<?xml version="1.0" encoding="UTF-8" standalone="no" ?>
<gpx xmlns="http://www.topografix.com/GPX/1/1" xmlns:xsi="http://www.w3.org/2001/XMLSchema-instance" xsi:schemaLocation="http://www.topografix.com/GPX/1/1 http://www.topografix.com/GPX/1/1/gpx.xsd" version="1.1" creator="VisuGPX - https://www.visugpx.com">
  <metadata>
    <name>Partenay-valognes</name>
  </metadata>
  <trk>
    <name><![CDATA[Partenay-valognes_1]]></name>
    <trkseg>
      <trkpt lat="46.57149" lon="-0.3065">
        <ele>205.23</ele>
        <time>2016-06-04T19:04:40Z</time>
      </trkpt>
      <trkpt lat="46.57149" lon="-0.3065">
        <ele>205.23</ele>
        <time>2016-06-04T19:04:40Z</time>
      </trkpt>
      <trkpt lat="46.57233" lon="-0.30641">
        <ele>208.021</ele>
        <time>2016-06-04T19:04:20Z</time>
      </trkpt>
      <trkpt lat="46.57285" lon="-0.30663">
        <ele>209.355</ele>
        <time>2016-06-04T19:04:00Z</time>
      </trkpt>
      <trkpt lat="46.5733" lon="-0.30609">
        <ele>212.913</ele>
        <time>2016-06-04T19:03:40Z</time>
      </trkpt>
      <trkpt lat="46.57404" lon="-0.30553">
        <ele>215.587</ele>
        <time>2016-06-04T19:03:20Z</time>
      </trkpt>
      <trkpt lat="46.57538" lon="-0.30474">
        <ele>212.294</ele>
        <time>2016-06-04T19:03:00Z</time>
      </trkpt>
      <trkpt lat="46.57581" lon="-0.30422">
        <ele>210.169</ele>
        <time>2016-06-04T19:02:40Z</time>
      </trkpt>
      <trkpt lat="46.57634" lon="-0.30407">
        <ele>206.063</ele>
        <time>2016-06-04T19:02:20Z</time>
      </trkpt>
      <trkpt lat="46.57681" lon="-0.30388">
        <ele>207.008</ele>
        <time>2016-06-04T19:02:00Z</time>
      </trkpt>
      <trkpt lat="46.57789" lon="-0.30461">
        <ele>197.82</ele>
        <time>2016-06-04T19:01:40Z</time>
      </trkpt>
      <trkpt lat="46.57938" lon="-0.30472">
        <ele>193.228</ele>
        <time>2016-06-04T19:01:20Z</time>
      </trkpt>
      <trkpt lat="46.58053" lon="-0.3045">
        <ele>188.075</ele>
        <time>2016-06-04T19:01:00Z</time>
      </trkpt>
      <trkpt lat="46.58198" lon="-0.30532">
        <ele>190.01</ele>
        <time>2016-06-04T19:00:40Z</time>
      </trkpt>
      <trkpt lat="46.58289" lon="-0.30549">
        <ele>190.531</ele>
        <time>2016-06-04T19:00:20Z</time>
      </trkpt>
      <trkpt lat="46.58441" lon="-0.30502">
        <ele>186.055</ele>
        <time>2016-06-04T19:00:00Z</time>
      </trkpt>
      <trkpt lat="46.5847" lon="-0.30345">
        <ele>182.023</ele>
        <time>2016-06-04T18:59:40Z</time>
      </trkpt>
      <trkpt lat="46.58525" lon="-0.30294">
        <ele>181.587</ele>
        <time>2016-06-04T18:59:20Z</time>
      </trkpt>
      <trkpt lat="46.58562" lon="-0.30281">
        <ele>182.394</ele>
        <time>2016-06-04T18:59:00Z</time>
      </trkpt>
      <trkpt lat="46.58616" lon="-0.30227">
        <ele>182.199</ele>
        <time>2016-06-04T18:58:40Z</time>
      </trkpt>
      <trkpt lat="46.58698" lon="-0.30186">
        <ele>181.293</ele>
        <time>2016-06-04T18:58:20Z</time>
      </trkpt>
      <trkpt lat="46.58805" lon="-0.30071">
        <ele>187.008</ele>
        <time>2016-06-04T18:58:00Z</time>
      </trkpt>
      <trkpt lat="46.58823" lon="-0.29961">
        <ele>184.626</ele>
        <time>2016-06-04T18:57:40Z</time>
      </trkpt>
      <trkpt lat="46.5891" lon="-0.2977">
        <ele>185.033</ele>
        <time>2016-06-04T18:57:20Z</time>
      </trkpt>
      <trkpt lat="46.58917" lon="-0.29704">
        <ele>184.778</ele>
        <time>2016-06-04T18:57:00Z</time>
      </trkpt>
      <trkpt lat="46.5901" lon="-0.29757">
        <ele>188.926</ele>
        <time>2016-06-04T18:56:40Z</time>
      </trkpt>
      <trkpt lat="46.59106" lon="-0.29826">
        <ele>193.717</ele>
        <time>2016-06-04T18:56:20Z</time>
      </trkpt>
      <trkpt lat="46.5922" lon="-0.29877">
        <ele>195.621</ele>
        <time>2016-06-04T18:56:00Z</time>
      </trkpt>
      <trkpt lat="46.59339" lon="-0.29903">
        <ele>196.739</ele>
        <time>2016-06-04T18:55:40Z</time>
      </trkpt>
      <trkpt lat="46.59414" lon="-0.29901">
        <ele>197.453</ele>
        <time>2016-06-04T18:55:20Z</time>
      </trkpt>
      <trkpt lat="46.59529" lon="-0.3">
        <ele>202.17</ele>
        <time>2016-06-04T18:55:00Z</time>
      </trkpt>
      <trkpt lat="46.59557" lon="-0.29968">
        <ele>201.825</ele>
        <time>2016-06-04T18:54:40Z</time>
      </trkpt>
      <trkpt lat="46.59634" lon="-0.30071">
        <ele>206.179</ele>
        <time>2016-06-04T18:54:20Z</time>
      </trkpt>
      <trkpt lat="46.59902" lon="-0.29826">
        <ele>207.008</ele>
        <time>2016-06-04T18:54:00Z</time>
      </trkpt>
      <trkpt lat="46.60016" lon="-0.29787">
        <ele>202.118</ele>
        <time>2016-06-04T18:53:40Z</time>
      </trkpt>
      <trkpt lat="46.60109" lon="-0.29734">
        <ele>199.017</ele>
        <time>2016-06-04T18:53:20Z</time>
      </trkpt>
      <trkpt lat="46.60128" lon="-0.29701">
        <ele>198.436</ele>
        <time>2016-06-04T18:53:00Z</time>
      </trkpt>
      <trkpt lat="46.60089" lon="-0.29545">
        <ele>196.147</ele>
        <time>2016-06-04T18:52:40Z</time>
      </trkpt>
      <trkpt lat="46.6011" lon="-0.29457">
        <ele>200.068</ele>
        <time>2016-06-04T18:52:20Z</time>
      </trkpt>
      <trkpt lat="46.60101" lon="-0.29232">
        <ele>195.932</ele>
        <time>2016-06-04T18:52:00Z</time>
      </trkpt>
      <trkpt lat="46.60061" lon="-0.29199">
        <ele>197.89</ele>
        <time>2016-06-04T18:51:40Z</time>
      </trkpt>
      <trkpt lat="46.60007" lon="-0.28998">
        <ele>200.044</ele>
        <time>2016-06-04T18:51:20Z</time>
      </trkpt>
      <trkpt lat="46.59972" lon="-0.28897">
        <ele>200.321</ele>
        <time>2016-06-04T18:51:00Z</time>
      </trkpt>
      <trkpt lat="46.59929" lon="-0.28901">
        <ele>198.926</ele>
        <time>2016-06-04T18:50:40Z</time>
      </trkpt>
      <trkpt lat="46.5992" lon="-0.2882">
        <ele>196.47</ele>
        <time>2016-06-04T18:50:20Z</time>
      </trkpt>
      <trkpt lat="46.59973" lon="-0.28811">
        <ele>196.208</ele>
        <time>2016-06-04T18:50:00Z</time>
      </trkpt>
      <trkpt lat="46.60216" lon="-0.28719">
        <ele>190.81</ele>
        <time>2016-06-04T18:49:40Z</time>
      </trkpt>
      <trkpt lat="46.60328" lon="-0.28667">
        <ele>192.064</ele>
        <time>2016-06-04T18:49:20Z</time>
      </trkpt>
      <trkpt lat="46.60327" lon="-0.28558">
        <ele>192.543</ele>
        <time>2016-06-04T18:49:00Z</time>
      </trkpt>
      <trkpt lat="46.60258" lon="-0.28496">
        <ele>189.36</ele>
        <time>2016-06-04T18:48:40Z</time>
      </trkpt>
      <trkpt lat="46.60258" lon="-0.28448">
        <ele>189.321</ele>
        <time>2016-06-04T18:48:20Z</time>
      </trkpt>
      <trkpt lat="46.60278" lon="-0.28408">
        <ele>190.095</ele>
        <time>2016-06-04T18:48:00Z</time>
      </trkpt>
      <trkpt lat="46.6044" lon="-0.28193">
        <ele>184.193</ele>
        <time>2016-06-04T18:47:40Z</time>
      </trkpt>
      <trkpt lat="46.60517" lon="-0.28077">
        <ele>177.287</ele>
        <time>2016-06-04T18:47:20Z</time>
      </trkpt>
      <trkpt lat="46.60573" lon="-0.28024">
        <ele>172.724</ele>
        <time>2016-06-04T18:47:00Z</time>
      </trkpt>
      <trkpt lat="46.60631" lon="-0.27918">
        <ele>169.769</ele>
        <time>2016-06-04T18:46:40Z</time>
      </trkpt>
      <trkpt lat="46.6069" lon="-0.27723">
        <ele>168.053</ele>
        <time>2016-06-04T18:46:20Z</time>
      </trkpt>
      <trkpt lat="46.60726" lon="-0.27539">
        <ele>166.708</ele>
        <time>2016-06-04T18:46:00Z</time>
      </trkpt>
      <trkpt lat="46.60881" lon="-0.27339">
        <ele>161.825</ele>
        <time>2016-06-04T18:45:40Z</time>
      </trkpt>
      <trkpt lat="46.60912" lon="-0.27255">
        <ele>159.205</ele>
        <time>2016-06-04T18:45:20Z</time>
      </trkpt>
      <trkpt lat="46.60974" lon="-0.27174">
        <ele>160.179</ele>
        <time>2016-06-04T18:45:00Z</time>
      </trkpt>
      <trkpt lat="46.61124" lon="-0.27047">
        <ele>169.076</ele>
        <time>2016-06-04T18:44:40Z</time>
      </trkpt>
      <trkpt lat="46.61211" lon="-0.27004">
        <ele>165.817</ele>
        <time>2016-06-04T18:44:20Z</time>
      </trkpt>
      <trkpt lat="46.61341" lon="-0.26869">
        <ele>160.781</ele>
        <time>2016-06-04T18:44:00Z</time>
      </trkpt>
      <trkpt lat="46.61428" lon="-0.26813">
        <ele>160.199</ele>
        <time>2016-06-04T18:43:40Z</time>
      </trkpt>
      <trkpt lat="46.61475" lon="-0.26807">
        <ele>161.043</ele>
        <time>2016-06-04T18:43:20Z</time>
      </trkpt>
      <trkpt lat="46.61577" lon="-0.26706">
        <ele>159.02</ele>
        <time>2016-06-04T18:43:00Z</time>
      </trkpt>
      <trkpt lat="46.61652" lon="-0.26659">
        <ele>161.685</ele>
        <time>2016-06-04T18:42:40Z</time>
      </trkpt>
      <trkpt lat="46.61764" lon="-0.26644">
        <ele>163.719</ele>
        <time>2016-06-04T18:42:20Z</time>
      </trkpt>
      <trkpt lat="46.61836" lon="-0.26612">
        <ele>159.908</ele>
        <time>2016-06-04T18:42:00Z</time>
      </trkpt>
      <trkpt lat="46.61959" lon="-0.26526">
        <ele>156.013</ele>
        <time>2016-06-04T18:41:40Z</time>
      </trkpt>
      <trkpt lat="46.62007" lon="-0.26607">
        <ele>153.649</ele>
        <time>2016-06-04T18:41:20Z</time>
      </trkpt>
      <trkpt lat="46.62035" lon="-0.26725">
        <ele>150.937</ele>
        <time>2016-06-04T18:41:00Z</time>
      </trkpt>
      <trkpt lat="46.62102" lon="-0.26839">
        <ele>153.725</ele>
        <time>2016-06-04T18:40:40Z</time>
      </trkpt>
      <trkpt lat="46.621" lon="-0.26963">
        <ele>155.766</ele>
        <time>2016-06-04T18:40:20Z</time>
      </trkpt>
      <trkpt lat="46.62116" lon="-0.27011">
        <ele>158.22</ele>
        <time>2016-06-04T18:40:00Z</time>
      </trkpt>
      <trkpt lat="46.62225" lon="-0.27045">
        <ele>158.248</ele>
        <time>2016-06-04T18:39:40Z</time>
      </trkpt>
      <trkpt lat="46.62296" lon="-0.27041">
        <ele>158.482</ele>
        <time>2016-06-04T18:39:20Z</time>
      </trkpt>
      <trkpt lat="46.62523" lon="-0.26923">
        <ele>149.079</ele>
        <time>2016-06-04T18:39:00Z</time>
      </trkpt>
      <trkpt lat="46.62595" lon="-0.26951">
        <ele>149.294</ele>
        <time>2016-06-04T18:38:40Z</time>
      </trkpt>
      <trkpt lat="46.6267" lon="-0.26882">
        <ele>150.058</ele>
        <time>2016-06-04T18:38:20Z</time>
      </trkpt>
      <trkpt lat="46.62729" lon="-0.26843">
        <ele>146.508</ele>
        <time>2016-06-04T18:38:00Z</time>
      </trkpt>
      <trkpt lat="46.62925" lon="-0.26803">
        <ele>143.317</ele>
        <time>2016-06-04T18:37:40Z</time>
      </trkpt>
      <trkpt lat="46.62968" lon="-0.26777">
        <ele>142.289</ele>
        <time>2016-06-04T18:37:20Z</time>
      </trkpt>
      <trkpt lat="46.63033" lon="-0.26753">
        <ele>142.228</ele>
        <time>2016-06-04T18:37:00Z</time>
      </trkpt>
      <trkpt lat="46.63145" lon="-0.26738">
        <ele>137.848</ele>
        <time>2016-06-04T18:36:40Z</time>
      </trkpt>
      <trkpt lat="46.63202" lon="-0.26691">
        <ele>137.279</ele>
        <time>2016-06-04T18:36:20Z</time>
      </trkpt>
      <trkpt lat="46.63291" lon="-0.26717">
        <ele>138.223</ele>
        <time>2016-06-04T18:36:00Z</time>
      </trkpt>
      <trkpt lat="46.63333" lon="-0.26753">
        <ele>136.881</ele>
        <time>2016-06-04T18:35:40Z</time>
      </trkpt>
      <trkpt lat="46.63379" lon="-0.26773">
        <ele>137.645</ele>
        <time>2016-06-04T18:35:20Z</time>
      </trkpt>
      <trkpt lat="46.63441" lon="-0.26652">
        <ele>143.152</ele>
        <time>2016-06-04T18:35:00Z</time>
      </trkpt>
      <trkpt lat="46.63494" lon="-0.26622">
        <ele>148.267</ele>
        <time>2016-06-04T18:34:40Z</time>
      </trkpt>
      <trkpt lat="46.63544" lon="-0.26612">
        <ele>152.251</ele>
        <time>2016-06-04T18:34:20Z</time>
      </trkpt>
      <trkpt lat="46.63554" lon="-0.26642">
        <ele>150.708</ele>
        <time>2016-06-04T18:34:00Z</time>
      </trkpt>
      <trkpt lat="46.63584" lon="-0.26644">
        <ele>150.42</ele>
        <time>2016-06-04T18:33:40Z</time>
      </trkpt>
      <trkpt lat="46.63682" lon="-0.26597">
        <ele>142.2</ele>
        <time>2020-12-25T00:07:55Z</time>
      </trkpt>
      <trkpt lat="46.63712" lon="-0.26651">
        <ele>140.157</ele>
        <time>2020-12-25T00:07:35Z</time>
      </trkpt>
      <trkpt lat="46.63852" lon="-0.26464">
        <ele>134.447</ele>
        <time>2016-06-04T18:33:00Z</time>
      </trkpt>
      <trkpt lat="46.63913" lon="-0.26334">
        <ele>136.298</ele>
        <time>2020-12-25T00:06:55Z</time>
      </trkpt>
      <trkpt lat="46.63957" lon="-0.26273">
        <ele>138.6</ele>
      </trkpt>
      <trkpt lat="46.6402" lon="-0.26374">
        <ele>133.4</ele>
      </trkpt>
      <trkpt lat="46.63992" lon="-0.26472">
        <ele>131.356</ele>
        <time>2016-06-04T18:31:20Z</time>
      </trkpt>
      <trkpt lat="46.64051" lon="-0.26498">
        <ele>130.95</ele>
        <time>2016-06-04T18:31:00Z</time>
      </trkpt>
      <trkpt lat="46.64128" lon="-0.26442">
        <ele>131.208</ele>
        <time>2016-06-04T18:30:40Z</time>
      </trkpt>
      <trkpt lat="46.64194" lon="-0.26369">
        <ele>131.011</ele>
        <time>2016-06-04T18:30:20Z</time>
      </trkpt>
      <trkpt lat="46.64194" lon="-0.26369">
        <ele>131.011</ele>
        <time>2016-06-04T18:30:20Z</time>
      </trkpt>
      <trkpt lat="46.64194" lon="-0.26369">
        <ele>131.011</ele>
        <time>2016-06-04T18:30:20Z</time>
      </trkpt>
      <trkpt lat="46.64194" lon="-0.26369">
        <ele>131.011</ele>
        <time>2016-06-04T18:30:20Z</time>
      </trkpt>
      <trkpt lat="46.64237" lon="-0.26363">
        <ele>132.447</ele>
        <time>2016-06-04T18:30:00Z</time>
      </trkpt>
      <trkpt lat="46.6431" lon="-0.26371">
        <ele>132.745</ele>
        <time>2016-06-04T18:29:40Z</time>
      </trkpt>
      <trkpt lat="46.64354" lon="-0.26358">
        <ele>133.921</ele>
        <time>2016-06-04T18:29:20Z</time>
      </trkpt>
      <trkpt lat="46.64372" lon="-0.26365">
        <ele>133.992</ele>
        <time>2016-06-04T18:29:00Z</time>
      </trkpt>
      <trkpt lat="46.64465" lon="-0.26393">
        <ele>135.556</ele>
        <time>2016-06-04T18:28:40Z</time>
      </trkpt>
      <trkpt lat="46.64515" lon="-0.26361">
        <ele>135.534</ele>
        <time>2016-06-04T18:28:20Z</time>
      </trkpt>
      <trkpt lat="46.64536" lon="-0.26264">
        <ele>138.228</ele>
        <time>2016-06-04T18:28:00Z</time>
      </trkpt>
      <trkpt lat="46.64537" lon="-0.26157">
        <ele>142.075</ele>
        <time>2016-06-04T18:27:40Z</time>
      </trkpt>
      <trkpt lat="46.64567" lon="-0.26017">
        <ele>143.44</ele>
        <time>2016-06-04T18:27:20Z</time>
      </trkpt>
      <trkpt lat="46.64556" lon="-0.25912">
        <ele>144.174</ele>
        <time>2016-06-04T18:27:00Z</time>
      </trkpt>
      <trkpt lat="46.64599" lon="-0.25661">
        <ele>140.608</ele>
        <time>2016-06-04T18:26:40Z</time>
      </trkpt>
      <trkpt lat="46.64624" lon="-0.25562">
        <ele>143.817</ele>
        <time>2016-06-04T18:26:20Z</time>
      </trkpt>
      <trkpt lat="46.64712" lon="-0.25376">
        <ele>141.589</ele>
        <time>2016-06-04T18:26:00Z</time>
      </trkpt>
      <trkpt lat="46.6476" lon="-0.25365">
        <ele>135.585</ele>
        <time>2016-06-04T18:25:40Z</time>
      </trkpt>
      <trkpt lat="46.64792" lon="-0.25304">
        <ele>146.452</ele>
        <time>2020-12-24T23:59:15Z</time>
      </trkpt>
      <trkpt lat="46.64829" lon="-0.2529">
        <ele>148.073</ele>
        <time>2020-12-24T23:58:55Z</time>
      </trkpt>
      <trkpt lat="46.64834" lon="-0.2527">
        <ele>152.327</ele>
        <time>2020-12-24T23:58:35Z</time>
      </trkpt>
      <trkpt lat="46.64832" lon="-0.25246">
        <ele>157.665</ele>
        <time>2020-12-24T23:58:15Z</time>
      </trkpt>
      <trkpt lat="46.64845" lon="-0.25244">
        <ele>156.719</ele>
        <time>2020-12-24T23:57:55Z</time>
      </trkpt>
      <trkpt lat="46.64848" lon="-0.25212">
        <ele>160.476</ele>
        <time>2020-12-24T23:57:35Z</time>
      </trkpt>
      <trkpt lat="46.64858" lon="-0.25193">
        <ele>162.171</ele>
        <time>2020-12-24T23:57:15Z</time>
      </trkpt>
      <trkpt lat="46.64875" lon="-0.25198">
        <ele>160.275</ele>
        <time>2020-12-24T23:56:55Z</time>
      </trkpt>
      <trkpt lat="46.64919" lon="-0.25195">
        <ele>160.708</ele>
        <time>2016-06-04T18:24:20Z</time>
      </trkpt>
      <trkpt lat="46.65011" lon="-0.25159">
        <ele>160.319</ele>
        <time>2016-06-04T18:24:00Z</time>
      </trkpt>
      <trkpt lat="46.65138" lon="-0.25152">
        <ele>151.181</ele>
        <time>2016-06-04T18:23:40Z</time>
      </trkpt>
      <trkpt lat="46.6515" lon="-0.25145">
        <ele>147.291</ele>
        <time>2020-12-24T23:55:35Z</time>
      </trkpt>
      <trkpt lat="46.65178" lon="-0.25115">
        <ele>141.589</ele>
        <time>2020-12-24T23:55:15Z</time>
      </trkpt>
      <trkpt lat="46.65183" lon="-0.25092">
        <ele>139.36</ele>
        <time>2020-12-24T23:54:55Z</time>
      </trkpt>
      <trkpt lat="46.65169" lon="-0.25062">
        <ele>138.574</ele>
        <time>2020-12-24T23:54:35Z</time>
      </trkpt>
      <trkpt lat="46.6514" lon="-0.25051">
        <ele>141.882</ele>
        <time>2020-12-24T23:54:15Z</time>
      </trkpt>
      <trkpt lat="46.65114" lon="-0.25023">
        <ele>143.276</ele>
        <time>2020-12-24T23:53:55Z</time>
      </trkpt>
      <trkpt lat="46.65077" lon="-0.24996">
        <ele>145.633</ele>
        <time>2020-12-24T23:53:35Z</time>
      </trkpt>
      <trkpt lat="46.65123" lon="-0.24963">
        <ele>141.828</ele>
        <time>2020-12-24T23:53:15Z</time>
      </trkpt>
      <trkpt lat="46.65171" lon="-0.2496">
        <ele>135.762</ele>
        <time>2020-12-24T23:52:55Z</time>
      </trkpt>
      <trkpt lat="46.65261" lon="-0.24924">
        <ele>132.108</ele>
        <time>2020-12-24T23:52:35Z</time>
      </trkpt>
      <trkpt lat="46.65313" lon="-0.2489">
        <ele>136.813</ele>
        <time>2020-12-24T23:52:15Z</time>
      </trkpt>
      <trkpt lat="46.65316" lon="-0.24913">
        <ele>137.321</ele>
        <time>2020-12-24T23:51:55Z</time>
      </trkpt>
      <trkpt lat="46.65365" lon="-0.24972">
        <ele>141.761</ele>
        <time>2020-12-24T23:51:35Z</time>
      </trkpt>
      <trkpt lat="46.65384" lon="-0.24945">
        <ele>142.425</ele>
        <time>2020-12-24T23:51:15Z</time>
      </trkpt>
      <trkpt lat="46.65396" lon="-0.24903">
        <ele>141.656</ele>
        <time>2020-12-24T23:50:55Z</time>
      </trkpt>
      <trkpt lat="46.65451" lon="-0.24835">
        <ele>140.98</ele>
        <time>2020-12-24T23:50:35Z</time>
      </trkpt>
      <trkpt lat="46.65468" lon="-0.24779">
        <ele>138.648</ele>
        <time>2020-12-24T23:50:15Z</time>
      </trkpt>
      <trkpt lat="46.655" lon="-0.24679">
        <ele>134.692</ele>
        <time>2020-12-24T23:49:55Z</time>
      </trkpt>
      <trkpt lat="46.65552" lon="-0.24639">
        <ele>138.839</ele>
        <time>2020-12-24T23:49:35Z</time>
      </trkpt>
      <trkpt lat="46.65661" lon="-0.24412">
        <ele>131.694</ele>
        <time>2020-12-24T23:49:15Z</time>
      </trkpt>
      <trkpt lat="46.65679" lon="-0.24425">
        <ele>133.388</ele>
        <time>2020-12-24T23:48:55Z</time>
      </trkpt>
      <trkpt lat="46.65732" lon="-0.24323">
        <ele>136.708</ele>
        <time>2020-12-24T23:48:35Z</time>
      </trkpt>
      <trkpt lat="46.65759" lon="-0.2421">
        <ele>136.508</ele>
        <time>2020-12-24T23:48:15Z</time>
      </trkpt>
      <trkpt lat="46.65737" lon="-0.24197">
        <ele>134.326</ele>
        <time>2020-12-24T23:47:55Z</time>
      </trkpt>
      <trkpt lat="46.65746" lon="-0.24147">
        <ele>133.625</ele>
        <time>2020-12-24T23:47:35Z</time>
      </trkpt>
      <trkpt lat="46.65741" lon="-0.24119">
        <ele>133.09</ele>
        <time>2020-12-24T23:47:15Z</time>
      </trkpt>
      <trkpt lat="46.65749" lon="-0.24061">
        <ele>132.481</ele>
        <time>2020-12-24T23:46:55Z</time>
      </trkpt>
      <trkpt lat="46.65751" lon="-0.24021">
        <ele>131.645</ele>
        <time>2020-12-24T23:46:35Z</time>
      </trkpt>
      <trkpt lat="46.65779" lon="-0.23983">
        <ele>134.183</ele>
        <time>2020-12-24T23:46:15Z</time>
      </trkpt>
      <trkpt lat="46.65785" lon="-0.23897">
        <ele>132.977</ele>
        <time>2020-12-24T23:45:55Z</time>
      </trkpt>
      <trkpt lat="46.65812" lon="-0.23797">
        <ele>135.134</ele>
        <time>2020-12-24T23:45:35Z</time>
      </trkpt>
      <trkpt lat="46.65861" lon="-0.23737">
        <ele>140.489</ele>
        <time>2020-12-24T23:45:15Z</time>
      </trkpt>
      <trkpt lat="46.6587" lon="-0.23674">
        <ele>141.563</ele>
        <time>2020-12-24T23:44:55Z</time>
      </trkpt>
      <trkpt lat="46.65886" lon="-0.2365">
        <ele>147.208</ele>
        <time>2016-06-04T18:14:40Z</time>
      </trkpt>
      <trkpt lat="46.65908" lon="-0.23663">
        <ele>152.127</ele>
        <time>2016-06-04T18:14:20Z</time>
      </trkpt>
      <trkpt lat="46.65935" lon="-0.23738">
        <ele>152.661</ele>
        <time>2016-06-04T18:14:00Z</time>
      </trkpt>
      <trkpt lat="46.65932" lon="-0.23767">
        <ele>148.577</ele>
        <time>2020-12-24T23:43:35Z</time>
      </trkpt>
      <trkpt lat="46.65922" lon="-0.23769">
        <ele>147.969</ele>
        <time>2020-12-24T23:43:15Z</time>
      </trkpt>
      <trkpt lat="46.65906" lon="-0.23812">
        <ele>141.69</ele>
        <time>2020-12-24T23:42:55Z</time>
      </trkpt>
      <trkpt lat="46.65954" lon="-0.23838">
        <ele>141.424</ele>
        <time>2020-12-24T23:42:35Z</time>
      </trkpt>
      <trkpt lat="46.65967" lon="-0.23834">
        <ele>141.812</ele>
        <time>2020-12-24T23:42:15Z</time>
      </trkpt>
      <trkpt lat="46.66" lon="-0.23813">
        <ele>145.526</ele>
        <time>2020-12-24T23:41:55Z</time>
      </trkpt>
      <trkpt lat="46.66057" lon="-0.23812">
        <ele>144.413</ele>
        <time>2020-12-24T23:41:35Z</time>
      </trkpt>
      <trkpt lat="46.66029" lon="-0.23848">
        <ele>139.568</ele>
        <time>2016-06-04T18:11:20Z</time>
      </trkpt>
      <trkpt lat="46.6605" lon="-0.23878">
        <ele>140.512</ele>
        <time>2016-06-04T18:11:00Z</time>
      </trkpt>
      <trkpt lat="46.66067" lon="-0.23887">
        <ele>143.408</ele>
        <time>2020-12-24T23:40:35Z</time>
      </trkpt>
      <trkpt lat="46.66095" lon="-0.23882">
        <ele>142.318</ele>
        <time>2016-06-04T18:10:40Z</time>
      </trkpt>
      <trkpt lat="46.66156" lon="-0.23861">
        <ele>145.044</ele>
        <time>2020-12-24T23:39:55Z</time>
      </trkpt>
      <trkpt lat="46.66185" lon="-0.23858">
        <ele>145.863</ele>
        <time>2020-12-24T23:39:35Z</time>
      </trkpt>
      <trkpt lat="46.66186" lon="-0.23846">
        <ele>145.734</ele>
        <time>2020-12-24T23:39:15Z</time>
      </trkpt>
      <trkpt lat="46.66151" lon="-0.23801">
        <ele>146.225</ele>
        <time>2016-06-04T18:10:00Z</time>
      </trkpt>
      <trkpt lat="46.66087" lon="-0.23776">
        <ele>146.889</ele>
        <time>2020-12-24T23:38:35Z</time>
      </trkpt>
      <trkpt lat="46.66107" lon="-0.23751">
        <ele>148.977</ele>
        <time>2020-12-24T23:38:15Z</time>
      </trkpt>
      <trkpt lat="46.66115" lon="-0.2371">
        <ele>150.961</ele>
        <time>2020-12-24T23:37:55Z</time>
      </trkpt>
      <trkpt lat="46.66113" lon="-0.23689">
        <ele>151.398</ele>
        <time>2016-06-04T18:09:00Z</time>
      </trkpt>
      <trkpt lat="46.6619" lon="-0.23552">
        <ele>156.063</ele>
        <time>2016-06-04T18:08:40Z</time>
      </trkpt>
      <trkpt lat="46.66252" lon="-0.23466">
        <ele>157.257</ele>
        <time>2016-06-04T18:08:20Z</time>
      </trkpt>
      <trkpt lat="46.66306" lon="-0.23466">
        <ele>157.208</ele>
        <time>2016-06-04T18:08:00Z</time>
      </trkpt>
      <trkpt lat="46.66399" lon="-0.2352">
        <ele>154.715</ele>
        <time>2016-06-04T18:07:40Z</time>
      </trkpt>
      <trkpt lat="46.66556" lon="-0.22936">
        <ele>169.087</ele>
        <time>2016-06-04T18:07:20Z</time>
      </trkpt>
      <trkpt lat="46.6662" lon="-0.22867">
        <ele>166.817</ele>
        <time>2016-06-04T18:07:00Z</time>
      </trkpt>
      <trkpt lat="46.66699" lon="-0.22717">
        <ele>164.742</ele>
        <time>2016-06-04T18:06:40Z</time>
      </trkpt>
      <trkpt lat="46.66739" lon="-0.22666">
        <ele>161.483</ele>
        <time>2016-06-04T18:06:20Z</time>
      </trkpt>
      <trkpt lat="46.66789" lon="-0.22569">
        <ele>161.597</ele>
        <time>2016-06-04T18:06:00Z</time>
      </trkpt>
      <trkpt lat="46.6682" lon="-0.22466">
        <ele>161.845</ele>
        <time>2016-06-04T18:05:40Z</time>
      </trkpt>
      <trkpt lat="46.6692" lon="-0.2235">
        <ele>165.059</ele>
        <time>2016-06-04T18:05:20Z</time>
      </trkpt>
      <trkpt lat="46.6692" lon="-0.2235">
        <ele>165.036</ele>
        <time>2016-06-04T18:05:00Z</time>
      </trkpt>
      <trkpt lat="46.67003" lon="-0.22058">
        <ele>160.971</ele>
        <time>2016-06-04T18:04:40Z</time>
      </trkpt>
      <trkpt lat="46.67005" lon="-0.21972">
        <ele>161.225</ele>
        <time>2016-06-04T18:04:20Z</time>
      </trkpt>
      <trkpt lat="46.67035" lon="-0.21769">
        <ele>157.908</ele>
        <time>2016-06-04T18:04:00Z</time>
      </trkpt>
      <trkpt lat="46.67129" lon="-0.21548">
        <ele>149.22</ele>
        <time>2016-06-04T18:03:40Z</time>
      </trkpt>
      <trkpt lat="46.67138" lon="-0.21509">
        <ele>149.073</ele>
        <time>2016-06-04T18:03:20Z</time>
      </trkpt>
      <trkpt lat="46.67163" lon="-0.21468">
        <ele>149.192</ele>
        <time>2016-06-04T18:03:00Z</time>
      </trkpt>
      <trkpt lat="46.67245" lon="-0.21404">
        <ele>148.93</ele>
        <time>2016-06-04T18:02:40Z</time>
      </trkpt>
      <trkpt lat="46.67297" lon="-0.21275">
        <ele>147.011</ele>
        <time>2016-06-04T18:02:20Z</time>
      </trkpt>
      <trkpt lat="46.67344" lon="-0.21181">
        <ele>146.995</ele>
        <time>2016-06-04T18:02:00Z</time>
      </trkpt>
      <trkpt lat="46.6745" lon="-0.21009">
        <ele>143.613</ele>
        <time>2016-06-04T18:01:40Z</time>
      </trkpt>
      <trkpt lat="46.67513" lon="-0.20857">
        <ele>143.437</ele>
        <time>2016-06-04T18:01:20Z</time>
      </trkpt>
      <trkpt lat="46.67544" lon="-0.20816">
        <ele>144.044</ele>
        <time>2016-06-04T18:01:00Z</time>
      </trkpt>
      <trkpt lat="46.6758" lon="-0.20932">
        <ele>146.799</ele>
        <time>2016-06-04T18:00:40Z</time>
      </trkpt>
      <trkpt lat="46.6772" lon="-0.2106">
        <ele>146.383</ele>
        <time>2016-06-04T18:00:20Z</time>
      </trkpt>
      <trkpt lat="46.67742" lon="-0.21174">
        <ele>147.508</ele>
        <time>2016-06-04T18:00:00Z</time>
      </trkpt>
      <trkpt lat="46.67773" lon="-0.21198">
        <ele>146.527</ele>
        <time>2016-06-04T17:59:40Z</time>
      </trkpt>
      <trkpt lat="46.67949" lon="-0.20938">
        <ele>145.161</ele>
        <time>2016-06-04T17:59:20Z</time>
      </trkpt>
      <trkpt lat="46.6828" lon="-0.20327">
        <ele>164.977</ele>
        <time>2016-06-04T17:59:00Z</time>
      </trkpt>
      <trkpt lat="46.68389" lon="-0.20078">
        <ele>166.054</ele>
        <time>2016-06-04T17:58:40Z</time>
      </trkpt>
      <trkpt lat="46.68466" lon="-0.19897">
        <ele>163.885</ele>
        <time>2016-06-04T17:58:20Z</time>
      </trkpt>
      <trkpt lat="46.68691" lon="-0.1943">
        <ele>160.929</ele>
        <time>2016-06-04T17:58:00Z</time>
      </trkpt>
      <trkpt lat="46.68865" lon="-0.18943">
        <ele>155.027</ele>
        <time>2016-06-04T17:57:40Z</time>
      </trkpt>
      <trkpt lat="46.69015" lon="-0.187">
        <ele>157.561</ele>
        <time>2016-06-04T17:57:20Z</time>
      </trkpt>
      <trkpt lat="46.691" lon="-0.18516">
        <ele>156.038</ele>
        <time>2016-06-04T17:57:00Z</time>
      </trkpt>
      <trkpt lat="46.69156" lon="-0.18413">
        <ele>154.053</ele>
        <time>2016-06-04T17:56:40Z</time>
      </trkpt>
      <trkpt lat="46.69193" lon="-0.18273">
        <ele>155.167</ele>
        <time>2016-06-04T17:56:20Z</time>
      </trkpt>
      <trkpt lat="46.6922" lon="-0.18196">
        <ele>155.008</ele>
        <time>2016-06-04T17:56:00Z</time>
      </trkpt>
      <trkpt lat="46.6923" lon="-0.18095">
        <ele>153.319</ele>
        <time>2016-06-04T17:55:40Z</time>
      </trkpt>
      <trkpt lat="46.6928" lon="-0.17992">
        <ele>153.209</ele>
        <time>2016-06-04T17:55:20Z</time>
      </trkpt>
      <trkpt lat="46.69398" lon="-0.17825">
        <ele>150.619</ele>
        <time>2016-06-04T17:55:00Z</time>
      </trkpt>
      <trkpt lat="46.69474" lon="-0.1779">
        <ele>148.595</ele>
        <time>2016-06-04T17:54:40Z</time>
      </trkpt>
      <trkpt lat="46.69598" lon="-0.17784">
        <ele>146.976</ele>
        <time>2016-06-04T17:54:20Z</time>
      </trkpt>
      <trkpt lat="46.69919" lon="-0.17578">
        <ele>144.96</ele>
        <time>2016-06-04T17:54:00Z</time>
      </trkpt>
      <trkpt lat="46.69989" lon="-0.17584">
        <ele>143.688</ele>
        <time>2016-06-04T17:53:40Z</time>
      </trkpt>
      <trkpt lat="46.70058" lon="-0.1755">
        <ele>144.232</ele>
        <time>2016-06-04T17:53:20Z</time>
      </trkpt>
      <trkpt lat="46.70175" lon="-0.17507">
        <ele>142.579</ele>
        <time>2016-06-04T17:53:00Z</time>
      </trkpt>
      <trkpt lat="46.70247" lon="-0.17514">
        <ele>140.534</ele>
        <time>2016-06-04T17:52:40Z</time>
      </trkpt>
      <trkpt lat="46.70345" lon="-0.17464">
        <ele>140.048</ele>
        <time>2016-06-04T17:52:20Z</time>
      </trkpt>
      <trkpt lat="46.70465" lon="-0.17381">
        <ele>137.908</ele>
        <time>2016-06-04T17:52:00Z</time>
      </trkpt>
      <trkpt lat="46.70541" lon="-0.17348">
        <ele>135.511</ele>
        <time>2016-06-04T17:51:40Z</time>
      </trkpt>
      <trkpt lat="46.70674" lon="-0.17348">
        <ele>135.983</ele>
        <time>2016-06-04T17:51:20Z</time>
      </trkpt>
      <trkpt lat="46.70734" lon="-0.17368">
        <ele>135.923</ele>
        <time>2016-06-04T17:51:00Z</time>
      </trkpt>
      <trkpt lat="46.70832" lon="-0.1737">
        <ele>134.781</ele>
        <time>2016-06-04T17:50:40Z</time>
      </trkpt>
      <trkpt lat="46.70941" lon="-0.1731">
        <ele>134.132</ele>
        <time>2016-06-04T17:50:20Z</time>
      </trkpt>
      <trkpt lat="46.70996" lon="-0.17209">
        <ele>134.596</ele>
        <time>2016-06-04T17:50:00Z</time>
      </trkpt>
      <trkpt lat="46.7108" lon="-0.17202">
        <ele>133.094</ele>
        <time>2016-06-04T17:49:40Z</time>
      </trkpt>
      <trkpt lat="46.71234" lon="-0.1722">
        <ele>132.968</ele>
        <time>2016-06-04T17:49:20Z</time>
      </trkpt>
      <trkpt lat="46.71446" lon="-0.17209">
        <ele>135.135</ele>
        <time>2016-06-04T17:49:00Z</time>
      </trkpt>
      <trkpt lat="46.71589" lon="-0.17123">
        <ele>134.99</ele>
        <time>2016-06-04T17:48:40Z</time>
      </trkpt>
      <trkpt lat="46.71736" lon="-0.17005">
        <ele>126.184</ele>
        <time>2016-06-04T17:48:20Z</time>
      </trkpt>
      <trkpt lat="46.71968" lon="-0.16988">
        <ele>123.108</ele>
        <time>2016-06-04T17:48:00Z</time>
      </trkpt>
      <trkpt lat="46.72031" lon="-0.17059">
        <ele>123.226</ele>
        <time>2016-06-04T17:47:40Z</time>
      </trkpt>
      <trkpt lat="46.72137" lon="-0.16984">
        <ele>125.66</ele>
        <time>2016-06-04T17:47:20Z</time>
      </trkpt>
      <trkpt lat="46.72301" lon="-0.16829">
        <ele>116.086</ele>
        <time>2016-06-04T17:47:00Z</time>
      </trkpt>
      <trkpt lat="46.72455" lon="-0.1667">
        <ele>114.428</ele>
        <time>2016-06-04T17:46:40Z</time>
      </trkpt>
      <trkpt lat="46.72467" lon="-0.16642">
        <ele>114.689</ele>
        <time>2016-06-04T17:46:20Z</time>
      </trkpt>
      <trkpt lat="46.72508" lon="-0.16666">
        <ele>116.333</ele>
        <time>2016-06-04T17:46:00Z</time>
      </trkpt>
      <trkpt lat="46.72565" lon="-0.16683">
        <ele>117.751</ele>
        <time>2016-06-04T17:45:40Z</time>
      </trkpt>
      <trkpt lat="46.7263" lon="-0.1672">
        <ele>121.475</ele>
        <time>2016-06-04T17:45:20Z</time>
      </trkpt>
      <trkpt lat="46.72667" lon="-0.1672">
        <ele>123.072</ele>
        <time>2016-06-04T17:45:00Z</time>
      </trkpt>
      <trkpt lat="46.72733" lon="-0.16756">
        <ele>129.787</ele>
        <time>2016-06-04T17:44:40Z</time>
      </trkpt>
      <trkpt lat="46.72733" lon="-0.16756">
        <ele>129.751</ele>
        <time>2016-06-04T17:44:40Z</time>
      </trkpt>
      <trkpt lat="46.72764" lon="-0.16711">
        <ele>132.408</ele>
        <time>2020-03-27T01:40:21Z</time>
      </trkpt>
      <trkpt lat="46.72816" lon="-0.16689">
        <ele>132.811</ele>
        <time>2019-10-27T18:08:41Z</time>
      </trkpt>
      <trkpt lat="46.72816" lon="-0.16774">
        <ele>133.856</ele>
        <time>2020-12-24T23:11:55Z</time>
      </trkpt>
      <trkpt lat="46.72887" lon="-0.16845">
        <ele>129.654</ele>
        <time>2020-12-24T23:11:35Z</time>
      </trkpt>
      <trkpt lat="46.73007" lon="-0.16575">
        <ele>123.727</ele>
        <time>2020-12-24T23:11:15Z</time>
      </trkpt>
      <trkpt lat="46.73106" lon="-0.16807">
        <ele>124.828</ele>
        <time>2019-10-27T18:06:41Z</time>
      </trkpt>
      <trkpt lat="46.73137" lon="-0.16933">
        <ele>123.612</ele>
        <time>2019-10-27T18:06:21Z</time>
      </trkpt>
      <trkpt lat="46.73165" lon="-0.17047">
        <ele>123.48</ele>
        <time>2019-10-27T18:06:01Z</time>
      </trkpt>
      <trkpt lat="46.73244" lon="-0.1703">
        <ele>126.084</ele>
        <time>2019-10-27T18:05:41Z</time>
      </trkpt>
      <trkpt lat="46.73337" lon="-0.17038">
        <ele>123.941</ele>
        <time>2019-10-27T18:05:21Z</time>
      </trkpt>
      <trkpt lat="46.73443" lon="-0.17105">
        <ele>122.116</ele>
        <time>2019-10-27T18:05:01Z</time>
      </trkpt>
      <trkpt lat="46.73649" lon="-0.17171">
        <ele>124.52</ele>
        <time>2019-10-27T18:04:41Z</time>
      </trkpt>
      <trkpt lat="46.73872" lon="-0.17262">
        <ele>125.608</ele>
        <time>2019-10-27T18:04:21Z</time>
      </trkpt>
      <trkpt lat="46.74043" lon="-0.17392">
        <ele>127.915</ele>
        <time>2019-10-27T18:04:01Z</time>
      </trkpt>
      <trkpt lat="46.74107" lon="-0.17433">
        <ele>125.305</ele>
        <time>2019-10-27T18:03:41Z</time>
      </trkpt>
      <trkpt lat="46.74269" lon="-0.17418">
        <ele>117.644</ele>
        <time>2019-10-27T18:03:21Z</time>
      </trkpt>
      <trkpt lat="46.74324" lon="-0.17395">
        <ele>116.019</ele>
        <time>2019-10-27T18:03:01Z</time>
      </trkpt>
      <trkpt lat="46.74366" lon="-0.17401">
        <ele>114.04</ele>
        <time>2019-10-27T18:02:41Z</time>
      </trkpt>
      <trkpt lat="46.74447" lon="-0.1753">
        <ele>103.644</ele>
        <time>2019-10-27T18:02:21Z</time>
      </trkpt>
      <trkpt lat="46.74497" lon="-0.17515">
        <ele>99.772</ele>
        <time>2019-10-27T18:02:01Z</time>
      </trkpt>
      <trkpt lat="46.74515" lon="-0.17517">
        <ele>98.326</ele>
        <time>2019-10-27T18:01:41Z</time>
      </trkpt>
      <trkpt lat="46.74534" lon="-0.17545">
        <ele>97.013</ele>
        <time>2019-10-27T18:01:21Z</time>
      </trkpt>
      <trkpt lat="46.74566" lon="-0.17571">
        <ele>98.188</ele>
        <time>2019-10-27T18:01:01Z</time>
      </trkpt>
      <trkpt lat="46.74622" lon="-0.17611">
        <ele>100.222</ele>
        <time>2019-10-27T18:00:41Z</time>
      </trkpt>
      <trkpt lat="46.7465" lon="-0.17678">
        <ele>103.008</ele>
        <time>2019-10-27T18:00:21Z</time>
      </trkpt>
      <trkpt lat="46.74712" lon="-0.17665">
        <ele>102.521</ele>
        <time>2019-10-27T18:00:01Z</time>
      </trkpt>
      <trkpt lat="46.74766" lon="-0.17663">
        <ele>101.429</ele>
        <time>2019-10-27T17:59:41Z</time>
      </trkpt>
      <trkpt lat="46.74797" lon="-0.17699">
        <ele>102.966</ele>
        <time>2019-10-27T17:59:21Z</time>
      </trkpt>
      <trkpt lat="46.74874" lon="-0.17747">
        <ele>100.081</ele>
        <time>2019-10-27T17:59:01Z</time>
      </trkpt>
      <trkpt lat="46.74869" lon="-0.17708">
        <ele>99.752</ele>
        <time>2019-10-27T17:58:41Z</time>
      </trkpt>
      <trkpt lat="46.74846" lon="-0.17686">
        <ele>100.146</ele>
        <time>2019-10-27T17:58:21Z</time>
      </trkpt>
      <trkpt lat="46.74785" lon="-0.17609">
        <ele>95.964</ele>
        <time>2019-10-27T17:58:01Z</time>
      </trkpt>
      <trkpt lat="46.74778" lon="-0.17504">
        <ele>92.998</ele>
        <time>2019-10-27T17:57:41Z</time>
      </trkpt>
      <trkpt lat="46.74906" lon="-0.17189">
        <ele>105.245</ele>
        <time>2019-10-27T17:57:21Z</time>
      </trkpt>
      <trkpt lat="46.74913" lon="-0.17077">
        <ele>112.14</ele>
        <time>2019-10-27T17:57:01Z</time>
      </trkpt>
      <trkpt lat="46.74946" lon="-0.16976">
        <ele>114.934</ele>
        <time>2019-10-27T17:56:41Z</time>
      </trkpt>
      <trkpt lat="46.74946" lon="-0.16893">
        <ele>120.708</ele>
        <time>2019-10-27T17:56:21Z</time>
      </trkpt>
      <trkpt lat="46.74956" lon="-0.16764">
        <ele>126.926</ele>
        <time>2019-10-27T17:56:01Z</time>
      </trkpt>
      <trkpt lat="46.74929" lon="-0.16721">
        <ele>128.06</ele>
        <time>2019-10-27T17:55:41Z</time>
      </trkpt>
      <trkpt lat="46.74931" lon="-0.16635">
        <ele>131.686</ele>
        <time>2019-10-27T17:55:21Z</time>
      </trkpt>
      <trkpt lat="46.74935" lon="-0.16558">
        <ele>135.812</ele>
        <time>2019-10-27T17:55:01Z</time>
      </trkpt>
      <trkpt lat="46.7496" lon="-0.16453">
        <ele>141.283</ele>
        <time>2019-10-27T17:54:41Z</time>
      </trkpt>
      <trkpt lat="46.74978" lon="-0.16356">
        <ele>149.457</ele>
        <time>2019-10-27T17:54:21Z</time>
      </trkpt>
      <trkpt lat="46.75015" lon="-0.16251">
        <ele>154.455</ele>
        <time>2019-10-27T17:54:01Z</time>
      </trkpt>
      <trkpt lat="46.7501" lon="-0.16227">
        <ele>155.889</ele>
        <time>2019-10-27T17:53:41Z</time>
      </trkpt>
      <trkpt lat="46.75043" lon="-0.16212">
        <ele>156.066</ele>
        <time>2019-10-27T17:53:21Z</time>
      </trkpt>
      <trkpt lat="46.75082" lon="-0.16225">
        <ele>155.781</ele>
        <time>2019-10-27T17:53:01Z</time>
      </trkpt>
      <trkpt lat="46.75141" lon="-0.16307">
        <ele>154.115</ele>
        <time>2019-10-27T17:52:41Z</time>
      </trkpt>
      <trkpt lat="46.752" lon="-0.16322">
        <ele>153.308</ele>
        <time>2019-10-27T17:52:21Z</time>
      </trkpt>
      <trkpt lat="46.75262" lon="-0.16339">
        <ele>151.821</ele>
        <time>2019-10-27T17:52:01Z</time>
      </trkpt>
      <trkpt lat="46.75409" lon="-0.1645">
        <ele>146.165</ele>
        <time>2019-10-27T17:51:41Z</time>
      </trkpt>
      <trkpt lat="46.75441" lon="-0.16457">
        <ele>146.493</ele>
        <time>2019-10-27T17:51:21Z</time>
      </trkpt>
      <trkpt lat="46.75504" lon="-0.16472">
        <ele>143.848</ele>
        <time>2016-06-04T13:39:38Z</time>
      </trkpt>
      <trkpt lat="46.75448" lon="-0.16605">
        <ele>138.379</ele>
        <time>2016-06-04T13:39:18Z</time>
      </trkpt>
      <trkpt lat="46.75465" lon="-0.16654">
        <ele>135.723</ele>
        <time>2016-06-04T13:38:58Z</time>
      </trkpt>
      <trkpt lat="46.75459" lon="-0.16815">
        <ele>129.381</ele>
        <time>2016-06-04T13:38:38Z</time>
      </trkpt>
      <trkpt lat="46.75445" lon="-0.17013">
        <ele>124.555</ele>
        <time>2016-06-04T13:38:18Z</time>
      </trkpt>
      <trkpt lat="46.75442" lon="-0.17139">
        <ele>117.042</ele>
        <time>2016-06-04T13:37:58Z</time>
      </trkpt>
      <trkpt lat="46.75487" lon="-0.17206">
        <ele>110.497</ele>
        <time>2016-06-04T13:37:38Z</time>
      </trkpt>
      <trkpt lat="46.75523" lon="-0.17322">
        <ele>105.821</ele>
        <time>2016-06-04T13:37:18Z</time>
      </trkpt>
      <trkpt lat="46.75506" lon="-0.17429">
        <ele>102.708</ele>
        <time>2016-06-04T13:36:58Z</time>
      </trkpt>
      <trkpt lat="46.75548" lon="-0.17478">
        <ele>98.308</ele>
        <time>2016-06-04T13:36:38Z</time>
      </trkpt>
      <trkpt lat="46.75565" lon="-0.17523">
        <ele>96.753</ele>
        <time>2016-06-04T13:36:18Z</time>
      </trkpt>
      <trkpt lat="46.75551" lon="-0.17699">
        <ele>92.752</ele>
        <time>2016-06-04T13:35:58Z</time>
      </trkpt>
      <trkpt lat="46.75559" lon="-0.17824">
        <ele>96.267</ele>
        <time>2016-06-04T13:35:38Z</time>
      </trkpt>
      <trkpt lat="46.7567" lon="-0.17841">
        <ele>106.098</ele>
        <time>2016-06-04T13:35:18Z</time>
      </trkpt>
      <trkpt lat="46.75698" lon="-0.17871">
        <ele>107.282</ele>
        <time>2016-06-04T13:34:58Z</time>
      </trkpt>
      <trkpt lat="46.75731" lon="-0.17824">
        <ele>107.62</ele>
        <time>2016-06-04T13:34:38Z</time>
      </trkpt>
      <trkpt lat="46.75756" lon="-0.17764">
        <ele>109.064</ele>
        <time>2016-06-04T13:34:18Z</time>
      </trkpt>
      <trkpt lat="46.75881" lon="-0.17738">
        <ele>118.871</ele>
        <time>2016-06-04T13:33:58Z</time>
      </trkpt>
      <trkpt lat="46.7608" lon="-0.17751">
        <ele>116.956</ele>
        <time>2016-06-04T13:33:38Z</time>
      </trkpt>
      <trkpt lat="46.76111" lon="-0.17766">
        <ele>116.63</ele>
        <time>2016-06-04T13:33:18Z</time>
      </trkpt>
      <trkpt lat="46.76233" lon="-0.17762">
        <ele>119.208</ele>
        <time>2016-06-04T13:32:58Z</time>
      </trkpt>
      <trkpt lat="46.76336" lon="-0.17682">
        <ele>118.415</ele>
        <time>2016-06-04T13:32:38Z</time>
      </trkpt>
      <trkpt lat="46.76348" lon="-0.17708">
        <ele>118.505</ele>
        <time>2016-06-04T13:32:18Z</time>
      </trkpt>
      <trkpt lat="46.76483" lon="-0.17577">
        <ele>109.344</ele>
        <time>2016-06-04T13:31:58Z</time>
      </trkpt>
      <trkpt lat="46.76611" lon="-0.17377">
        <ele>106.08</ele>
        <time>2016-06-04T13:31:38Z</time>
      </trkpt>
      <trkpt lat="46.76482" lon="-0.17289">
        <ele>95.151</ele>
        <time>2016-06-04T13:31:18Z</time>
      </trkpt>
      <trkpt lat="46.76455" lon="-0.17191">
        <ele>90.865</ele>
        <time>2016-06-04T13:30:58Z</time>
      </trkpt>
      <trkpt lat="46.76499" lon="-0.1698">
        <ele>94.853</ele>
        <time>2016-06-04T13:30:38Z</time>
      </trkpt>
      <trkpt lat="46.76539" lon="-0.16933">
        <ele>93.417</ele>
        <time>2016-06-04T13:30:18Z</time>
      </trkpt>
      <trkpt lat="46.76573" lon="-0.16918">
        <ele>94.464</ele>
        <time>2016-06-04T13:29:58Z</time>
      </trkpt>
      <trkpt lat="46.76582" lon="-0.1686">
        <ele>87.089</ele>
        <time>2016-06-04T13:29:38Z</time>
      </trkpt>
      <trkpt lat="46.76607" lon="-0.16822">
        <ele>85.193</ele>
        <time>2016-06-04T13:29:18Z</time>
      </trkpt>
      <trkpt lat="46.76608" lon="-0.16762">
        <ele>90.608</ele>
        <time>2016-06-04T13:28:58Z</time>
      </trkpt>
      <trkpt lat="46.76611" lon="-0.16719">
        <ele>95.113</ele>
        <time>2016-06-04T13:28:38Z</time>
      </trkpt>
      <trkpt lat="46.76696" lon="-0.16506">
        <ele>101.785</ele>
        <time>2016-06-04T13:28:18Z</time>
      </trkpt>
      <trkpt lat="46.76758" lon="-0.16478">
        <ele>99.573</ele>
        <time>2016-06-04T13:27:58Z</time>
      </trkpt>
      <trkpt lat="46.7674" lon="-0.1642">
        <ele>107.885</ele>
        <time>2016-06-04T13:27:38Z</time>
      </trkpt>
      <trkpt lat="46.76782" lon="-0.16384">
        <ele>113.096</ele>
        <time>2016-06-04T13:27:18Z</time>
      </trkpt>
      <trkpt lat="46.76829" lon="-0.16384">
        <ele>113.55</ele>
        <time>2016-06-04T13:26:58Z</time>
      </trkpt>
      <trkpt lat="46.76871" lon="-0.16255">
        <ele>126.278</ele>
        <time>2016-06-04T13:26:38Z</time>
      </trkpt>
      <trkpt lat="46.76901" lon="-0.16268">
        <ele>125.172</ele>
        <time>2016-06-04T13:26:18Z</time>
      </trkpt>
      <trkpt lat="46.76951" lon="-0.16285">
        <ele>124.919</ele>
        <time>2016-06-04T13:25:58Z</time>
      </trkpt>
      <trkpt lat="46.77036" lon="-0.1633">
        <ele>121.594</ele>
        <time>2016-06-04T13:25:38Z</time>
      </trkpt>
      <trkpt lat="46.77106" lon="-0.16328">
        <ele>117.568</ele>
        <time>2016-06-04T13:25:18Z</time>
      </trkpt>
      <trkpt lat="46.77236" lon="-0.16369">
        <ele>111.908</ele>
        <time>2016-06-04T13:24:58Z</time>
      </trkpt>
      <trkpt lat="46.77277" lon="-0.16373">
        <ele>110.114</ele>
        <time>2016-06-04T13:24:38Z</time>
      </trkpt>
      <trkpt lat="46.77346" lon="-0.16403">
        <ele>109.304</ele>
        <time>2016-06-04T13:24:18Z</time>
      </trkpt>
      <trkpt lat="46.7738" lon="-0.16446">
        <ele>108.324</ele>
        <time>2016-06-04T13:23:58Z</time>
      </trkpt>
      <trkpt lat="46.77394" lon="-0.16489">
        <ele>107.638</ele>
        <time>2016-06-04T13:23:38Z</time>
      </trkpt>
      <trkpt lat="46.77553" lon="-0.16545">
        <ele>102.129</ele>
        <time>2016-06-04T13:23:18Z</time>
      </trkpt>
      <trkpt lat="46.7758" lon="-0.16584">
        <ele>99.583</ele>
        <time>2016-06-04T13:22:58Z</time>
      </trkpt>
      <trkpt lat="46.7766" lon="-0.16605">
        <ele>97.491</ele>
        <time>2016-06-04T13:22:38Z</time>
      </trkpt>
      <trkpt lat="46.77682" lon="-0.16659">
        <ele>94.935</ele>
        <time>2016-06-04T13:22:18Z</time>
      </trkpt>
      <trkpt lat="46.77731" lon="-0.16725">
        <ele>90.312</ele>
        <time>2016-06-04T13:21:58Z</time>
      </trkpt>
      <trkpt lat="46.77728" lon="-0.16779">
        <ele>84.547</ele>
        <time>2016-06-04T13:21:38Z</time>
      </trkpt>
      <trkpt lat="46.77829" lon="-0.16781">
        <ele>83.931</ele>
        <time>2016-06-04T13:21:18Z</time>
      </trkpt>
      <trkpt lat="46.77919" lon="-0.16792">
        <ele>83.408</ele>
        <time>2016-06-04T13:20:58Z</time>
      </trkpt>
      <trkpt lat="46.77975" lon="-0.16777">
        <ele>81.023</ele>
        <time>2016-06-04T13:20:38Z</time>
      </trkpt>
      <trkpt lat="46.78016" lon="-0.16764">
        <ele>81.503</ele>
        <time>2016-06-04T13:20:18Z</time>
      </trkpt>
      <trkpt lat="46.78067" lon="-0.16725">
        <ele>81.259</ele>
        <time>2016-06-04T13:19:58Z</time>
      </trkpt>
      <trkpt lat="46.78095" lon="-0.16719">
        <ele>80.661</ele>
        <time>2016-06-04T13:19:38Z</time>
      </trkpt>
      <trkpt lat="46.78131" lon="-0.1668">
        <ele>82.052</ele>
        <time>2016-06-04T13:19:18Z</time>
      </trkpt>
      <trkpt lat="46.782" lon="-0.16644">
        <ele>81.876</ele>
        <time>2016-06-04T13:18:58Z</time>
      </trkpt>
      <trkpt lat="46.78273" lon="-0.16588">
        <ele>80.394</ele>
        <time>2016-06-04T13:18:38Z</time>
      </trkpt>
      <trkpt lat="46.78319" lon="-0.16532">
        <ele>81.888</ele>
        <time>2016-06-04T13:18:18Z</time>
      </trkpt>
      <trkpt lat="46.78403" lon="-0.16491">
        <ele>79.535</ele>
        <time>2016-06-04T13:17:58Z</time>
      </trkpt>
      <trkpt lat="46.78497" lon="-0.16498">
        <ele>78.16</ele>
        <time>2016-06-04T13:17:38Z</time>
      </trkpt>
      <trkpt lat="46.78571" lon="-0.16485">
        <ele>80.064</ele>
        <time>2016-06-04T13:17:18Z</time>
      </trkpt>
      <trkpt lat="46.78592" lon="-0.16496">
        <ele>80.108</ele>
        <time>2016-06-04T13:16:58Z</time>
      </trkpt>
      <trkpt lat="46.7862" lon="-0.16506">
        <ele>80.317</ele>
        <time>2016-06-04T13:16:38Z</time>
      </trkpt>
      <trkpt lat="46.78674" lon="-0.16652">
        <ele>82.007</ele>
        <time>2016-06-04T13:16:18Z</time>
      </trkpt>
      <trkpt lat="46.78723" lon="-0.16678">
        <ele>82.084</ele>
        <time>2016-06-04T13:15:58Z</time>
      </trkpt>
      <trkpt lat="46.78808" lon="-0.16695">
        <ele>84.975</ele>
        <time>2016-06-04T13:15:38Z</time>
      </trkpt>
      <trkpt lat="46.78808" lon="-0.16695">
        <ele>84.966</ele>
        <time>2016-06-04T13:15:18Z</time>
      </trkpt>
      <trkpt lat="46.78906" lon="-0.16732">
        <ele>82.84</ele>
        <time>2016-06-04T13:14:58Z</time>
      </trkpt>
      <trkpt lat="46.78981" lon="-0.16626">
        <ele>81.448</ele>
        <time>2016-06-04T13:14:38Z</time>
      </trkpt>
      <trkpt lat="46.78996" lon="-0.16594">
        <ele>82.032</ele>
        <time>2016-06-04T13:14:18Z</time>
      </trkpt>
      <trkpt lat="46.78987" lon="-0.16536">
        <ele>83.389</ele>
        <time>2016-06-04T13:13:58Z</time>
      </trkpt>
      <trkpt lat="46.78977" lon="-0.16335">
        <ele>87.034</ele>
        <time>2016-06-04T13:13:38Z</time>
      </trkpt>
      <trkpt lat="46.78992" lon="-0.16322">
        <ele>87.898</ele>
        <time>2016-06-04T13:13:18Z</time>
      </trkpt>
      <trkpt lat="46.79033" lon="-0.16167">
        <ele>98.508</ele>
        <time>2016-06-04T13:12:58Z</time>
      </trkpt>
      <trkpt lat="46.79067" lon="-0.16045">
        <ele>108.017</ele>
        <time>2016-06-04T13:12:38Z</time>
      </trkpt>
      <trkpt lat="46.79122" lon="-0.16056">
        <ele>112.089</ele>
        <time>2016-06-04T13:12:18Z</time>
      </trkpt>
      <trkpt lat="46.79142" lon="-0.16084">
        <ele>113.128</ele>
        <time>2016-06-04T13:11:58Z</time>
      </trkpt>
      <trkpt lat="46.79234" lon="-0.16114">
        <ele>111.63</ele>
        <time>2016-06-04T13:11:38Z</time>
      </trkpt>
      <trkpt lat="46.79319" lon="-0.16101">
        <ele>109.311</ele>
        <time>2016-06-04T13:11:18Z</time>
      </trkpt>
      <trkpt lat="46.79366" lon="-0.16077">
        <ele>108.115</ele>
        <time>2016-06-04T13:10:58Z</time>
      </trkpt>
      <trkpt lat="46.79366" lon="-0.16077">
        <ele>108.123</ele>
        <time>2016-06-04T13:10:38Z</time>
      </trkpt>
      <trkpt lat="46.79474" lon="-0.16">
        <ele>104.077</ele>
        <time>2016-06-04T13:10:18Z</time>
      </trkpt>
      <trkpt lat="46.79509" lon="-0.15953">
        <ele>103.264</ele>
        <time>2016-06-04T13:09:58Z</time>
      </trkpt>
      <trkpt lat="46.79557" lon="-0.15867">
        <ele>100.939</ele>
        <time>2016-06-04T13:09:38Z</time>
      </trkpt>
      <trkpt lat="46.79637" lon="-0.15822">
        <ele>97.763</ele>
        <time>2016-06-04T13:09:18Z</time>
      </trkpt>
      <trkpt lat="46.79759" lon="-0.15777">
        <ele>91.408</ele>
        <time>2016-06-04T13:08:58Z</time>
      </trkpt>
      <trkpt lat="46.79764" lon="-0.15745">
        <ele>90.813</ele>
        <time>2016-06-04T13:08:38Z</time>
      </trkpt>
      <trkpt lat="46.79748" lon="-0.15539">
        <ele>91.085</ele>
        <time>2016-06-04T13:08:18Z</time>
      </trkpt>
      <trkpt lat="46.7977" lon="-0.15536">
        <ele>91.773</ele>
        <time>2016-06-04T13:07:58Z</time>
      </trkpt>
      <trkpt lat="46.79816" lon="-0.15536">
        <ele>90.328</ele>
        <time>2016-06-04T13:07:38Z</time>
      </trkpt>
      <trkpt lat="46.7985" lon="-0.15337">
        <ele>87.979</ele>
        <time>2016-06-04T13:07:18Z</time>
      </trkpt>
      <trkpt lat="46.7991" lon="-0.15223">
        <ele>87.033</ele>
        <time>2016-06-04T13:06:58Z</time>
      </trkpt>
      <trkpt lat="46.79939" lon="-0.15163">
        <ele>87.211</ele>
        <time>2016-06-04T13:06:38Z</time>
      </trkpt>
      <trkpt lat="46.80039" lon="-0.14976">
        <ele>81.275</ele>
        <time>2016-06-04T13:06:18Z</time>
      </trkpt>
      <trkpt lat="46.80042" lon="-0.14929">
        <ele>81.242</ele>
        <time>2016-06-04T13:05:58Z</time>
      </trkpt>
      <trkpt lat="46.80058" lon="-0.14888">
        <ele>79.827</ele>
        <time>2016-06-04T13:05:38Z</time>
      </trkpt>
      <trkpt lat="46.8013" lon="-0.14826">
        <ele>81.971</ele>
        <time>2016-06-04T13:05:18Z</time>
      </trkpt>
      <trkpt lat="46.80158" lon="-0.14936">
        <ele>77.708</ele>
        <time>2016-06-04T13:04:58Z</time>
      </trkpt>
      <trkpt lat="46.80135" lon="-0.15045">
        <ele>79.317</ele>
        <time>2016-06-04T13:04:38Z</time>
      </trkpt>
      <trkpt lat="46.80118" lon="-0.15309">
        <ele>81.907</ele>
        <time>2016-06-04T13:04:18Z</time>
      </trkpt>
      <trkpt lat="46.80148" lon="-0.15513">
        <ele>83.955</ele>
        <time>2016-06-04T13:03:58Z</time>
      </trkpt>
      <trkpt lat="46.80154" lon="-0.15691">
        <ele>81.712</ele>
        <time>2016-06-04T13:03:38Z</time>
      </trkpt>
      <trkpt lat="46.80048" lon="-0.15704">
        <ele>77.233</ele>
        <time>2016-06-04T13:03:18Z</time>
      </trkpt>
      <trkpt lat="46.80042" lon="-0.15717">
        <ele>77.417</ele>
        <time>2016-06-04T13:02:58Z</time>
      </trkpt>
      <trkpt lat="46.8008" lon="-0.15807">
        <ele>79.775</ele>
        <time>2016-06-04T13:02:38Z</time>
      </trkpt>
      <trkpt lat="46.80101" lon="-0.15822">
        <ele>79.239</ele>
        <time>2016-06-04T13:02:18Z</time>
      </trkpt>
      <trkpt lat="46.80115" lon="-0.15914">
        <ele>80.716</ele>
        <time>2016-06-04T13:01:58Z</time>
      </trkpt>
      <trkpt lat="46.80126" lon="-0.15918">
        <ele>82.781</ele>
        <time>2016-06-04T13:01:38Z</time>
      </trkpt>
      <trkpt lat="46.80092" lon="-0.16013">
        <ele>83.745</ele>
        <time>2016-06-04T13:01:18Z</time>
      </trkpt>
      <trkpt lat="46.80098" lon="-0.16101">
        <ele>87.508</ele>
        <time>2016-06-04T13:00:58Z</time>
      </trkpt>
      <trkpt lat="46.80146" lon="-0.16073">
        <ele>92.021</ele>
        <time>2016-06-04T13:00:38Z</time>
      </trkpt>
      <trkpt lat="46.80164" lon="-0.15985">
        <ele>91.365</ele>
        <time>2016-06-04T13:00:18Z</time>
      </trkpt>
      <trkpt lat="46.80198" lon="-0.15951">
        <ele>92.793</ele>
        <time>2016-06-04T12:59:58Z</time>
      </trkpt>
      <trkpt lat="46.80273" lon="-0.15908">
        <ele>103.276</ele>
        <time>2016-06-04T12:59:38Z</time>
      </trkpt>
      <trkpt lat="46.80306" lon="-0.15832">
        <ele>107.127</ele>
        <time>2016-06-04T12:59:18Z</time>
      </trkpt>
      <trkpt lat="46.80314" lon="-0.15766">
        <ele>109.631</ele>
        <time>2016-06-04T12:58:58Z</time>
      </trkpt>
      <trkpt lat="46.80356" lon="-0.15687">
        <ele>112.359</ele>
        <time>2016-06-04T12:58:38Z</time>
      </trkpt>
      <trkpt lat="46.80402" lon="-0.15611">
        <ele>109.053</ele>
        <time>2016-06-04T12:58:18Z</time>
      </trkpt>
      <trkpt lat="46.80447" lon="-0.15584">
        <ele>108.16</ele>
        <time>2016-06-04T12:57:58Z</time>
      </trkpt>
      <trkpt lat="46.8065" lon="-0.15506">
        <ele>104.745</ele>
        <time>2016-06-04T12:57:38Z</time>
      </trkpt>
      <trkpt lat="46.80699" lon="-0.15474">
        <ele>103.169</ele>
        <time>2016-06-04T12:57:18Z</time>
      </trkpt>
      <trkpt lat="46.80701" lon="-0.15446">
        <ele>101.808</ele>
        <time>2016-06-04T12:56:58Z</time>
      </trkpt>
      <trkpt lat="46.80826" lon="-0.15292">
        <ele>88.418</ele>
        <time>2016-06-04T12:56:38Z</time>
      </trkpt>
      <trkpt lat="46.80938" lon="-0.15193">
        <ele>79.617</ele>
        <time>2016-06-04T12:56:18Z</time>
      </trkpt>
      <trkpt lat="46.81013" lon="-0.1518">
        <ele>80.636</ele>
        <time>2016-06-04T12:55:58Z</time>
      </trkpt>
      <trkpt lat="46.81089" lon="-0.15127">
        <ele>77.477</ele>
        <time>2016-06-04T12:55:38Z</time>
      </trkpt>
      <trkpt lat="46.81111" lon="-0.15088">
        <ele>75.398</ele>
        <time>2016-06-04T12:55:18Z</time>
      </trkpt>
      <trkpt lat="46.81195" lon="-0.14996">
        <ele>77.832</ele>
        <time>2016-06-04T12:54:58Z</time>
      </trkpt>
      <trkpt lat="46.81239" lon="-0.14938">
        <ele>74.88</ele>
        <time>2016-06-04T12:54:38Z</time>
      </trkpt>
      <trkpt lat="46.81298" lon="-0.14888">
        <ele>74.314</ele>
        <time>2016-06-04T12:54:18Z</time>
      </trkpt>
      <trkpt lat="46.81434" lon="-0.14783">
        <ele>75.541</ele>
        <time>2016-06-04T12:53:58Z</time>
      </trkpt>
      <trkpt lat="46.81543" lon="-0.14749">
        <ele>76.086</ele>
        <time>2016-06-04T12:53:38Z</time>
      </trkpt>
      <trkpt lat="46.81667" lon="-0.1472">
        <ele>79.86</ele>
        <time>2016-06-04T12:53:18Z</time>
      </trkpt>
      <trkpt lat="46.81778" lon="-0.14654">
        <ele>78.108</ele>
        <time>2016-06-04T12:52:58Z</time>
      </trkpt>
      <trkpt lat="46.81843" lon="-0.14639">
        <ele>76.709</ele>
        <time>2016-06-04T12:52:38Z</time>
      </trkpt>
      <trkpt lat="46.8192" lon="-0.14657">
        <ele>79.181</ele>
        <time>2016-06-04T12:52:18Z</time>
      </trkpt>
      <trkpt lat="46.81941" lon="-0.14487">
        <ele>82.241</ele>
        <time>2016-06-04T12:51:58Z</time>
      </trkpt>
      <trkpt lat="46.81938" lon="-0.14427">
        <ele>84.057</ele>
        <time>2016-06-04T12:51:38Z</time>
      </trkpt>
      <trkpt lat="46.81919" lon="-0.14382">
        <ele>83.238</ele>
        <time>2016-06-04T12:51:18Z</time>
      </trkpt>
      <trkpt lat="46.81947" lon="-0.14324">
        <ele>85.772</ele>
        <time>2016-06-04T12:50:58Z</time>
      </trkpt>
      <trkpt lat="46.81954" lon="-0.14275">
        <ele>88.21</ele>
        <time>2016-06-04T12:50:38Z</time>
      </trkpt>
      <trkpt lat="46.82004" lon="-0.14195">
        <ele>98.544</ele>
        <time>2016-06-04T12:50:18Z</time>
      </trkpt>
      <trkpt lat="46.82025" lon="-0.14127">
        <ele>102.981</ele>
        <time>2016-06-04T12:49:58Z</time>
      </trkpt>
      <trkpt lat="46.82139" lon="-0.13938">
        <ele>115.276</ele>
        <time>2016-06-04T12:49:38Z</time>
      </trkpt>
      <trkpt lat="46.8233" lon="-0.13843">
        <ele>118.46</ele>
        <time>2016-06-04T12:49:18Z</time>
      </trkpt>
      <trkpt lat="46.82337" lon="-0.13788">
        <ele>120.508</ele>
        <time>2016-06-04T12:48:58Z</time>
      </trkpt>
      <trkpt lat="46.82423" lon="-0.1362">
        <ele>119.014</ele>
        <time>2016-06-04T12:48:38Z</time>
      </trkpt>
      <trkpt lat="46.82465" lon="-0.13616">
        <ele>117.822</ele>
        <time>2020-12-24T22:03:55Z</time>
      </trkpt>
      <trkpt lat="46.82511" lon="-0.13691">
        <ele>117.042</ele>
        <time>2020-12-24T22:03:35Z</time>
      </trkpt>
      <trkpt lat="46.82534" lon="-0.13711">
        <ele>115.448</ele>
        <time>2020-12-24T22:03:15Z</time>
      </trkpt>
      <trkpt lat="46.82496" lon="-0.13876">
        <ele>116.189</ele>
        <time>2020-12-24T22:02:55Z</time>
      </trkpt>
      <trkpt lat="46.8255" lon="-0.13903">
        <ele>108.553</ele>
        <time>2020-12-24T22:02:35Z</time>
      </trkpt>
      <trkpt lat="46.82631" lon="-0.13805">
        <ele>105.271</ele>
        <time>2020-12-24T22:02:15Z</time>
      </trkpt>
      <trkpt lat="46.82648" lon="-0.13814">
        <ele>103.385</ele>
        <time>2020-12-24T22:01:55Z</time>
      </trkpt>
      <trkpt lat="46.82649" lon="-0.13762">
        <ele>105.292</ele>
        <time>2020-12-24T22:01:35Z</time>
      </trkpt>
      <trkpt lat="46.82671" lon="-0.13706">
        <ele>105.397</ele>
        <time>2020-12-24T22:01:15Z</time>
      </trkpt>
      <trkpt lat="46.8268" lon="-0.13618">
        <ele>106.561</ele>
        <time>2020-12-24T22:00:55Z</time>
      </trkpt>
      <trkpt lat="46.82689" lon="-0.13704">
        <ele>106.208</ele>
        <time>2020-12-24T22:00:35Z</time>
      </trkpt>
      <trkpt lat="46.82699" lon="-0.13742">
        <ele>106.417</ele>
        <time>2020-12-24T22:00:15Z</time>
      </trkpt>
      <trkpt lat="46.82696" lon="-0.13823">
        <ele>104.452</ele>
        <time>2020-12-24T21:59:55Z</time>
      </trkpt>
      <trkpt lat="46.82659" lon="-0.13841">
        <ele>101.458</ele>
        <time>2020-12-24T21:59:35Z</time>
      </trkpt>
      <trkpt lat="46.82634" lon="-0.13914">
        <ele>100.114</ele>
        <time>2020-12-24T21:59:15Z</time>
      </trkpt>
      <trkpt lat="46.8268" lon="-0.13985">
        <ele>100.125</ele>
        <time>2020-12-24T21:58:55Z</time>
      </trkpt>
      <trkpt lat="46.82714" lon="-0.13978">
        <ele>105.329</ele>
        <time>2020-12-24T21:58:35Z</time>
      </trkpt>
      <trkpt lat="46.82714" lon="-0.14014">
        <ele>105.597</ele>
        <time>2020-12-24T21:58:15Z</time>
      </trkpt>
      <trkpt lat="46.82759" lon="-0.14032">
        <ele>111.111</ele>
        <time>2020-12-24T21:57:55Z</time>
      </trkpt>
      <trkpt lat="46.82757" lon="-0.14053">
        <ele>111.148</ele>
        <time>2020-12-24T21:57:35Z</time>
      </trkpt>
      <trkpt lat="46.82714" lon="-0.14049">
        <ele>105.873</ele>
        <time>2020-12-24T21:57:15Z</time>
      </trkpt>
      <trkpt lat="46.8271" lon="-0.14088">
        <ele>105.857</ele>
        <time>2020-12-24T21:56:55Z</time>
      </trkpt>
      <trkpt lat="46.82687" lon="-0.14157">
        <ele>104.808</ele>
        <time>2020-12-24T21:56:35Z</time>
      </trkpt>
      <trkpt lat="46.82629" lon="-0.14261">
        <ele>102.303</ele>
        <time>2020-12-24T21:56:15Z</time>
      </trkpt>
      <trkpt lat="46.82644" lon="-0.14286">
        <ele>104.821</ele>
        <time>2020-12-24T21:55:55Z</time>
      </trkpt>
      <trkpt lat="46.82706" lon="-0.14287">
        <ele>109.111</ele>
        <time>2020-12-24T21:55:35Z</time>
      </trkpt>
      <trkpt lat="46.82718" lon="-0.14402">
        <ele>108.07</ele>
        <time>2016-06-04T12:40:58Z</time>
      </trkpt>
      <trkpt lat="46.82993" lon="-0.14375">
        <ele>109.141</ele>
        <time>2016-06-04T12:40:38Z</time>
      </trkpt>
      <trkpt lat="46.83122" lon="-0.1461">
        <ele>102.645</ele>
        <time>2016-06-04T12:40:18Z</time>
      </trkpt>
      <trkpt lat="46.83201" lon="-0.14692">
        <ele>97.283</ele>
        <time>2016-06-04T12:39:58Z</time>
      </trkpt>
      <trkpt lat="46.83325" lon="-0.1481">
        <ele>97.517</ele>
        <time>2016-06-04T12:39:38Z</time>
      </trkpt>
      <trkpt lat="46.83341" lon="-0.14879">
        <ele>93.784</ele>
        <time>2016-06-04T12:39:18Z</time>
      </trkpt>
      <trkpt lat="46.83428" lon="-0.15027">
        <ele>88.979</ele>
        <time>2016-06-04T12:38:58Z</time>
      </trkpt>
      <trkpt lat="46.83448" lon="-0.1504">
        <ele>88.673</ele>
        <time>2016-06-04T12:38:18Z</time>
      </trkpt>
      <trkpt lat="46.83507" lon="-0.1513">
        <ele>76.808</ele>
        <time>2016-06-04T12:37:58Z</time>
      </trkpt>
      <trkpt lat="46.8352" lon="-0.15209">
        <ele>80.019</ele>
        <time>2016-06-04T12:37:38Z</time>
      </trkpt>
      <trkpt lat="46.83514" lon="-0.15246">
        <ele>81.19</ele>
        <time>2016-06-04T12:37:18Z</time>
      </trkpt>
      <trkpt lat="46.83538" lon="-0.15293">
        <ele>75.276</ele>
        <time>2016-06-04T12:36:58Z</time>
      </trkpt>
      <trkpt lat="46.83552" lon="-0.15325">
        <ele>73.332</ele>
        <time>2016-06-04T12:36:18Z</time>
      </trkpt>
      <trkpt lat="46.8358" lon="-0.15331">
        <ele>72.193</ele>
        <time>2016-06-04T12:35:58Z</time>
      </trkpt>
      <trkpt lat="46.83617" lon="-0.15312">
        <ele>72.897</ele>
        <time>2016-06-04T12:35:38Z</time>
      </trkpt>
      <trkpt lat="46.83627" lon="-0.15274">
        <ele>75.825</ele>
        <time>2016-06-04T12:34:58Z</time>
      </trkpt>
      <trkpt lat="46.8372" lon="-0.15306">
        <ele>85.929</ele>
        <time>2016-06-04T12:34:38Z</time>
      </trkpt>
      <trkpt lat="46.83692" lon="-0.15377">
        <ele>83.656</ele>
        <time>2016-06-04T12:34:18Z</time>
      </trkpt>
      <trkpt lat="46.8373" lon="-0.1546">
        <ele>91.171</ele>
        <time>2016-06-04T12:33:58Z</time>
      </trkpt>
      <trkpt lat="46.83783" lon="-0.15501">
        <ele>90.555</ele>
        <time>2016-06-04T12:33:38Z</time>
      </trkpt>
      <trkpt lat="46.83892" lon="-0.1585">
        <ele>88.008</ele>
        <time>2016-06-04T12:33:18Z</time>
      </trkpt>
      <trkpt lat="46.84005" lon="-0.15862">
        <ele>89.022</ele>
        <time>2016-06-04T12:32:58Z</time>
      </trkpt>
      <trkpt lat="46.8406" lon="-0.15885">
        <ele>87.457</ele>
        <time>2016-06-04T12:32:38Z</time>
      </trkpt>
      <trkpt lat="46.84117" lon="-0.15898">
        <ele>82.594</ele>
        <time>2016-06-04T12:32:18Z</time>
      </trkpt>
      <trkpt lat="46.84155" lon="-0.15932">
        <ele>81.798</ele>
        <time>2016-06-04T12:31:58Z</time>
      </trkpt>
      <trkpt lat="46.84236" lon="-0.15962">
        <ele>78.869</ele>
        <time>2016-06-04T12:31:38Z</time>
      </trkpt>
      <trkpt lat="46.84351" lon="-0.16029">
        <ele>73.443</ele>
        <time>2016-06-04T12:31:18Z</time>
      </trkpt>
      <trkpt lat="46.84442" lon="-0.16164">
        <ele>80.881</ele>
        <time>2016-06-04T12:30:58Z</time>
      </trkpt>
      <trkpt lat="46.84486" lon="-0.16192">
        <ele>83.685</ele>
        <time>2016-06-04T12:30:38Z</time>
      </trkpt>
      <trkpt lat="46.84561" lon="-0.16168">
        <ele>75.912</ele>
        <time>2016-06-04T12:30:18Z</time>
      </trkpt>
      <trkpt lat="46.84594" lon="-0.1613">
        <ele>73.957</ele>
        <time>2016-06-04T12:29:58Z</time>
      </trkpt>
      <trkpt lat="46.84697" lon="-0.16046">
        <ele>79.741</ele>
        <time>2016-06-04T12:29:38Z</time>
      </trkpt>
      <trkpt lat="46.84869" lon="-0.15902">
        <ele>84.408</ele>
        <time>2016-06-04T12:29:18Z</time>
      </trkpt>
      <trkpt lat="46.84958" lon="-0.1581">
        <ele>84.517</ele>
        <time>2016-06-04T12:24:18Z</time>
      </trkpt>
      <trkpt lat="46.84986" lon="-0.15797">
        <ele>86.707</ele>
        <time>2016-06-04T12:23:58Z</time>
      </trkpt>
      <trkpt lat="46.85093" lon="-0.15776">
        <ele>92.755</ele>
        <time>2016-06-04T12:23:38Z</time>
      </trkpt>
      <trkpt lat="46.85134" lon="-0.15735">
        <ele>97.812</ele>
        <time>2016-06-04T12:23:18Z</time>
      </trkpt>
      <trkpt lat="46.8518" lon="-0.15711">
        <ele>99.353</ele>
        <time>2016-06-04T12:22:58Z</time>
      </trkpt>
      <trkpt lat="46.85217" lon="-0.1572">
        <ele>101.617</ele>
        <time>2016-06-04T12:22:38Z</time>
      </trkpt>
      <trkpt lat="46.85293" lon="-0.15932">
        <ele>107.815</ele>
        <time>2016-06-04T12:22:18Z</time>
      </trkpt>
      <trkpt lat="46.8535" lon="-0.16016">
        <ele>109.099</ele>
        <time>2016-06-04T12:21:38Z</time>
      </trkpt>
      <trkpt lat="46.85421" lon="-0.16108">
        <ele>110.276</ele>
        <time>2016-06-04T12:21:18Z</time>
      </trkpt>
      <trkpt lat="46.85444" lon="-0.162">
        <ele>110.081</ele>
        <time>2016-06-04T12:20:58Z</time>
      </trkpt>
      <trkpt lat="46.85542" lon="-0.16288">
        <ele>104.365</ele>
        <time>2016-06-04T12:20:38Z</time>
      </trkpt>
      <trkpt lat="46.85576" lon="-0.16188">
        <ele>105.508</ele>
        <time>2016-06-04T12:19:58Z</time>
      </trkpt>
      <trkpt lat="46.85626" lon="-0.16085">
        <ele>100.426</ele>
        <time>2016-06-04T12:19:38Z</time>
      </trkpt>
      <trkpt lat="46.8567" lon="-0.16089">
        <ele>94.115</ele>
        <time>2016-06-04T12:19:18Z</time>
      </trkpt>
      <trkpt lat="46.85773" lon="-0.15679">
        <ele>85.398</ele>
        <time>2016-06-04T12:18:58Z</time>
      </trkpt>
      <trkpt lat="46.85886" lon="-0.15683">
        <ele>79.841</ele>
        <time>2016-06-04T12:18:38Z</time>
      </trkpt>
      <trkpt lat="46.85944" lon="-0.15632">
        <ele>89.272</ele>
        <time>2016-06-04T12:18:18Z</time>
      </trkpt>
      <trkpt lat="46.85993" lon="-0.15486">
        <ele>87.446</ele>
        <time>2016-06-04T12:17:58Z</time>
      </trkpt>
      <trkpt lat="46.85999" lon="-0.15557">
        <ele>94.754</ele>
        <time>2016-06-04T12:17:38Z</time>
      </trkpt>
      <trkpt lat="46.86009" lon="-0.1555">
        <ele>96.218</ele>
        <time>2016-06-04T12:17:18Z</time>
      </trkpt>
      <trkpt lat="46.86046" lon="-0.15533">
        <ele>100.355</ele>
        <time>2016-06-04T12:16:58Z</time>
      </trkpt>
      <trkpt lat="46.86073" lon="-0.15449">
        <ele>99.37</ele>
        <time>2016-06-04T12:16:38Z</time>
      </trkpt>
      <trkpt lat="46.86093" lon="-0.15419">
        <ele>100.094</ele>
        <time>2016-06-04T12:16:18Z</time>
      </trkpt>
      <trkpt lat="46.86122" lon="-0.15309">
        <ele>99.608</ele>
        <time>2016-06-04T12:15:58Z</time>
      </trkpt>
      <trkpt lat="46.86166" lon="-0.1531">
        <ele>100.026</ele>
        <time>2016-06-04T12:15:18Z</time>
      </trkpt>
      <trkpt lat="46.86247" lon="-0.15295">
        <ele>99.624</ele>
        <time>2016-06-04T12:14:58Z</time>
      </trkpt>
      <trkpt lat="46.86346" lon="-0.15325">
        <ele>99.388</ele>
        <time>2016-06-04T12:14:38Z</time>
      </trkpt>
      <trkpt lat="46.86401" lon="-0.15327">
        <ele>99.961</ele>
        <time>2016-06-04T12:14:18Z</time>
      </trkpt>
      <trkpt lat="46.86483" lon="-0.15368">
        <ele>103.092</ele>
        <time>2016-06-04T12:13:58Z</time>
      </trkpt>
      <trkpt lat="46.86593" lon="-0.15364">
        <ele>103.426</ele>
        <time>2016-06-04T12:13:38Z</time>
      </trkpt>
      <trkpt lat="46.86701" lon="-0.15452">
        <ele>105.624</ele>
        <time>2016-06-04T12:13:18Z</time>
      </trkpt>
      <trkpt lat="46.86781" lon="-0.15559">
        <ele>104.848</ele>
        <time>2016-06-04T12:12:58Z</time>
      </trkpt>
      <trkpt lat="46.86942" lon="-0.15645">
        <ele>100.025</ele>
        <time>2016-06-04T12:12:38Z</time>
      </trkpt>
      <trkpt lat="46.8721" lon="-0.15514">
        <ele>99.23</ele>
        <time>2016-06-04T12:12:18Z</time>
      </trkpt>
      <trkpt lat="46.87362" lon="-0.15655">
        <ele>98.014</ele>
        <time>2016-06-04T12:11:58Z</time>
      </trkpt>
      <trkpt lat="46.87502" lon="-0.15769">
        <ele>84.308</ele>
        <time>2016-06-04T12:11:38Z</time>
      </trkpt>
      <trkpt lat="46.87611" lon="-0.15812">
        <ele>72.026</ele>
        <time>2016-06-04T12:11:18Z</time>
      </trkpt>
      <trkpt lat="46.87609" lon="-0.159">
        <ele>71.124</ele>
        <time>2016-06-04T12:10:58Z</time>
      </trkpt>
      <trkpt lat="46.87655" lon="-0.15939">
        <ele>67.888</ele>
        <time>2016-06-04T12:10:38Z</time>
      </trkpt>
      <trkpt lat="46.87689" lon="-0.15889">
        <ele>66.295</ele>
        <time>2016-06-04T12:10:18Z</time>
      </trkpt>
      <trkpt lat="46.87709" lon="-0.15896">
        <ele>65.926</ele>
        <time>2016-06-04T12:09:58Z</time>
      </trkpt>
      <trkpt lat="46.8774" lon="-0.15889">
        <ele>65.44</ele>
        <time>2016-06-04T12:09:38Z</time>
      </trkpt>
      <trkpt lat="46.87802" lon="-0.159">
        <ele>64.088</ele>
        <time>2016-06-04T12:09:18Z</time>
      </trkpt>
      <trkpt lat="46.8785" lon="-0.15889">
        <ele>64.112</ele>
        <time>2016-06-04T12:08:58Z</time>
      </trkpt>
      <trkpt lat="46.87904" lon="-0.159">
        <ele>68.179</ele>
        <time>2016-06-04T12:08:38Z</time>
      </trkpt>
      <trkpt lat="46.87931" lon="-0.15876">
        <ele>64.754</ele>
        <time>2016-06-04T12:08:18Z</time>
      </trkpt>
      <trkpt lat="46.87947" lon="-0.15816">
        <ele>62.238</ele>
        <time>2016-06-04T12:07:58Z</time>
      </trkpt>
      <trkpt lat="46.87929" lon="-0.15705">
        <ele>60.808</ele>
        <time>2016-06-04T12:07:38Z</time>
      </trkpt>
      <trkpt lat="46.87942" lon="-0.15658">
        <ele>62.617</ele>
        <time>2016-06-04T12:07:18Z</time>
      </trkpt>
      <trkpt lat="46.87982" lon="-0.15591">
        <ele>63.889</ele>
        <time>2016-06-04T12:06:58Z</time>
      </trkpt>
      <trkpt lat="46.87989" lon="-0.15591">
        <ele>63.528</ele>
        <time>2016-06-04T12:06:38Z</time>
      </trkpt>
      <trkpt lat="46.8814" lon="-0.15486">
        <ele>63.055</ele>
        <time>2016-06-04T12:06:18Z</time>
      </trkpt>
      <trkpt lat="46.88192" lon="-0.15387">
        <ele>65.096</ele>
        <time>2016-06-04T12:05:58Z</time>
      </trkpt>
      <trkpt lat="46.88234" lon="-0.15216">
        <ele>64.01</ele>
        <time>2016-06-04T12:05:38Z</time>
      </trkpt>
      <trkpt lat="46.88218" lon="-0.14904">
        <ele>61.178</ele>
        <time>2016-06-04T12:05:18Z</time>
      </trkpt>
      <trkpt lat="46.88243" lon="-0.14874">
        <ele>63.282</ele>
        <time>2016-06-04T12:04:58Z</time>
      </trkpt>
      <trkpt lat="46.88215" lon="-0.14675">
        <ele>64.819</ele>
        <time>2016-06-04T12:04:38Z</time>
      </trkpt>
      <trkpt lat="46.88208" lon="-0.14542">
        <ele>63.934</ele>
        <time>2016-06-04T12:03:18Z</time>
      </trkpt>
      <trkpt lat="46.88221" lon="-0.1437">
        <ele>61.478</ele>
        <time>2016-06-04T12:02:58Z</time>
      </trkpt>
      <trkpt lat="46.88245" lon="-0.14239">
        <ele>62.708</ele>
        <time>2016-06-04T12:02:38Z</time>
      </trkpt>
      <trkpt lat="46.88287" lon="-0.14151">
        <ele>63.208</ele>
        <time>2016-06-04T12:02:18Z</time>
      </trkpt>
      <trkpt lat="46.88324" lon="-0.14074">
        <ele>63.862</ele>
        <time>2016-06-04T12:01:58Z</time>
      </trkpt>
      <trkpt lat="46.88396" lon="-0.1401">
        <ele>62.622</ele>
        <time>2016-06-04T12:01:38Z</time>
      </trkpt>
      <trkpt lat="46.88421" lon="-0.14111">
        <ele>67.159</ele>
        <time>2016-06-04T12:01:18Z</time>
      </trkpt>
      <trkpt lat="46.88467" lon="-0.14063">
        <ele>68.92</ele>
        <time>2016-06-04T12:00:58Z</time>
      </trkpt>
      <trkpt lat="46.88484" lon="-0.14072">
        <ele>69.814</ele>
        <time>2016-06-04T12:00:38Z</time>
      </trkpt>
      <trkpt lat="46.88538" lon="-0.14053">
        <ele>69.492</ele>
        <time>2016-06-04T12:00:18Z</time>
      </trkpt>
      <trkpt lat="46.88579" lon="-0.1407">
        <ele>68.796</ele>
        <time>2016-06-04T11:59:58Z</time>
      </trkpt>
      <trkpt lat="46.88605" lon="-0.1402">
        <ele>63.763</ele>
        <time>2016-06-04T11:59:38Z</time>
      </trkpt>
      <trkpt lat="46.88607" lon="-0.13915">
        <ele>61.218</ele>
        <time>2016-06-04T11:59:18Z</time>
      </trkpt>
      <trkpt lat="46.88709" lon="-0.13932">
        <ele>62.742</ele>
        <time>2016-06-04T11:58:58Z</time>
      </trkpt>
      <trkpt lat="46.88899" lon="-0.1398">
        <ele>61.508</ele>
        <time>2016-06-04T11:58:38Z</time>
      </trkpt>
      <trkpt lat="46.89033" lon="-0.14014">
        <ele>62.024</ele>
        <time>2016-06-04T11:58:18Z</time>
      </trkpt>
      <trkpt lat="46.89116" lon="-0.14048">
        <ele>63.904</ele>
        <time>2016-06-04T11:57:58Z</time>
      </trkpt>
      <trkpt lat="46.89116" lon="-0.14095">
        <ele>68.869</ele>
        <time>2016-06-04T11:57:38Z</time>
      </trkpt>
      <trkpt lat="46.89466" lon="-0.14098">
        <ele>68.527</ele>
        <time>2016-06-04T11:57:18Z</time>
      </trkpt>
      <trkpt lat="46.89569" lon="-0.14063">
        <ele>64.228</ele>
        <time>2016-06-04T11:56:58Z</time>
      </trkpt>
      <trkpt lat="46.89645" lon="-0.14012">
        <ele>62.462</ele>
        <time>2016-06-04T11:56:38Z</time>
      </trkpt>
      <trkpt lat="46.89717" lon="-0.1402">
        <ele>61.95</ele>
        <time>2016-06-04T11:56:18Z</time>
      </trkpt>
      <trkpt lat="46.89837" lon="-0.1401">
        <ele>62.034</ele>
        <time>2016-06-04T11:55:58Z</time>
      </trkpt>
      <trkpt lat="46.90047" lon="-0.14027">
        <ele>61.091</ele>
        <time>2016-06-04T11:55:38Z</time>
      </trkpt>
      <trkpt lat="46.90155" lon="-0.14008">
        <ele>61.336</ele>
        <time>2016-06-04T11:55:18Z</time>
      </trkpt>
      <trkpt lat="46.90312" lon="-0.14053">
        <ele>61.81</ele>
        <time>2016-06-04T11:54:58Z</time>
      </trkpt>
      <trkpt lat="46.90377" lon="-0.14106">
        <ele>60.908</ele>
        <time>2016-06-04T11:54:38Z</time>
      </trkpt>
      <trkpt lat="46.90409" lon="-0.14181">
        <ele>61.709</ele>
        <time>2016-06-04T11:54:18Z</time>
      </trkpt>
      <trkpt lat="46.90489" lon="-0.14254">
        <ele>61.081</ele>
        <time>2016-06-04T11:53:58Z</time>
      </trkpt>
      <trkpt lat="46.90882" lon="-0.14546">
        <ele>62.941</ele>
        <time>2016-06-04T11:53:38Z</time>
      </trkpt>
      <trkpt lat="46.90907" lon="-0.14587">
        <ele>66.55</ele>
        <time>2016-06-04T11:53:18Z</time>
      </trkpt>
      <trkpt lat="46.9101" lon="-0.14632">
        <ele>73.031</ele>
        <time>2016-06-04T11:52:58Z</time>
      </trkpt>
      <trkpt lat="46.91178" lon="-0.14645">
        <ele>68.285</ele>
        <time>2016-06-04T11:52:38Z</time>
      </trkpt>
      <trkpt lat="46.91236" lon="-0.14638">
        <ele>67.973</ele>
        <time>2016-06-04T11:52:18Z</time>
      </trkpt>
      <trkpt lat="46.9131" lon="-0.14595">
        <ele>69.977</ele>
        <time>2016-06-04T11:51:58Z</time>
      </trkpt>
      <trkpt lat="46.91397" lon="-0.14499">
        <ele>71.014</ele>
        <time>2016-06-04T11:51:38Z</time>
      </trkpt>
      <trkpt lat="46.91454" lon="-0.14394">
        <ele>69.879</ele>
        <time>2016-06-04T11:51:18Z</time>
      </trkpt>
      <trkpt lat="46.91562" lon="-0.1416">
        <ele>65.283</ele>
        <time>2016-06-04T11:50:58Z</time>
      </trkpt>
      <trkpt lat="46.91681" lon="-0.13971">
        <ele>60.508</ele>
        <time>2016-06-04T11:50:38Z</time>
      </trkpt>
      <trkpt lat="46.91697" lon="-0.13909">
        <ele>61.925</ele>
        <time>2016-06-04T11:50:18Z</time>
      </trkpt>
      <trkpt lat="46.91716" lon="-0.13874">
        <ele>64.505</ele>
        <time>2016-06-04T11:49:58Z</time>
      </trkpt>
      <trkpt lat="46.91819" lon="-0.13844">
        <ele>62.779</ele>
        <time>2016-06-04T11:49:38Z</time>
      </trkpt>
      <trkpt lat="46.91847" lon="-0.13829">
        <ele>61.54</ele>
        <time>2016-06-04T11:49:18Z</time>
      </trkpt>
      <trkpt lat="46.91933" lon="-0.13752">
        <ele>61.041</ele>
        <time>2016-06-04T11:48:58Z</time>
      </trkpt>
      <trkpt lat="46.91944" lon="-0.13771">
        <ele>61.025</ele>
        <time>2016-06-04T11:48:38Z</time>
      </trkpt>
      <trkpt lat="46.91939" lon="-0.13853">
        <ele>65.863</ele>
        <time>2016-06-04T11:48:18Z</time>
      </trkpt>
      <trkpt lat="46.91955" lon="-0.13917">
        <ele>68.417</ele>
        <time>2016-06-04T11:47:58Z</time>
      </trkpt>
      <trkpt lat="46.91996" lon="-0.13965">
        <ele>67.854</ele>
        <time>2016-06-04T11:47:38Z</time>
      </trkpt>
      <trkpt lat="46.91993" lon="-0.13473">
        <ele>61.039</ele>
        <time>2016-06-04T11:47:18Z</time>
      </trkpt>
      <trkpt lat="46.92089" lon="-0.13505">
        <ele>59.593</ele>
        <time>2016-06-04T11:46:58Z</time>
      </trkpt>
      <trkpt lat="46.92199" lon="-0.13499">
        <ele>63.908</ele>
        <time>2016-06-04T11:46:38Z</time>
      </trkpt>
      <trkpt lat="46.92282" lon="-0.13514">
        <ele>60.726</ele>
        <time>2016-06-04T11:46:18Z</time>
      </trkpt>
      <trkpt lat="46.92347" lon="-0.13565">
        <ele>59.133</ele>
        <time>2016-06-04T11:45:58Z</time>
      </trkpt>
      <trkpt lat="46.92398" lon="-0.13645">
        <ele>57.378</ele>
        <time>2016-06-04T11:45:38Z</time>
      </trkpt>
      <trkpt lat="46.92434" lon="-0.13688">
        <ele>59.554</ele>
        <time>2016-06-04T11:45:18Z</time>
      </trkpt>
      <trkpt lat="46.9249" lon="-0.13838">
        <ele>60.955</ele>
        <time>2016-06-04T11:44:58Z</time>
      </trkpt>
      <trkpt lat="46.92527" lon="-0.13866">
        <ele>61.979</ele>
        <time>2016-06-04T11:44:38Z</time>
      </trkpt>
      <trkpt lat="46.92593" lon="-0.14224">
        <ele>66.317</ele>
        <time>2016-06-04T11:44:18Z</time>
      </trkpt>
      <trkpt lat="46.92585" lon="-0.14492">
        <ele>65.351</ele>
        <time>2016-06-04T11:43:58Z</time>
      </trkpt>
      <trkpt lat="46.92593" lon="-0.1458">
        <ele>69.388</ele>
        <time>2016-06-04T11:43:38Z</time>
      </trkpt>
      <trkpt lat="46.92565" lon="-0.14683">
        <ele>64.343</ele>
        <time>2016-06-04T11:43:18Z</time>
      </trkpt>
      <trkpt lat="46.92565" lon="-0.14789">
        <ele>63.077</ele>
        <time>2016-06-04T11:42:58Z</time>
      </trkpt>
      <trkpt lat="46.92547" lon="-0.14892">
        <ele>61.608</ele>
        <time>2016-06-04T11:42:38Z</time>
      </trkpt>
      <trkpt lat="46.92561" lon="-0.15083">
        <ele>59.415</ele>
        <time>2016-06-04T11:42:18Z</time>
      </trkpt>
      <trkpt lat="46.92602" lon="-0.15297">
        <ele>58.687</ele>
        <time>2016-06-04T11:41:58Z</time>
      </trkpt>
      <trkpt lat="46.9266" lon="-0.15437">
        <ele>59.517</ele>
        <time>2016-06-04T11:41:38Z</time>
      </trkpt>
      <trkpt lat="46.92731" lon="-0.15548">
        <ele>58.325</ele>
        <time>2016-06-04T11:41:18Z</time>
      </trkpt>
      <trkpt lat="46.92848" lon="-0.1564">
        <ele>57.176</ele>
        <time>2016-06-04T11:40:58Z</time>
      </trkpt>
      <trkpt lat="46.92931" lon="-0.15632">
        <ele>58.76</ele>
        <time>2016-06-04T11:40:38Z</time>
      </trkpt>
      <trkpt lat="46.93098" lon="-0.15529">
        <ele>58.148</ele>
        <time>2016-06-04T11:40:18Z</time>
      </trkpt>
      <trkpt lat="46.93233" lon="-0.154">
        <ele>58.672</ele>
        <time>2016-06-04T11:39:58Z</time>
      </trkpt>
      <trkpt lat="46.93318" lon="-0.15308">
        <ele>62.939</ele>
        <time>2016-06-04T11:39:38Z</time>
      </trkpt>
      <trkpt lat="46.93383" lon="-0.1522">
        <ele>64.444</ele>
        <time>2016-06-04T11:39:18Z</time>
      </trkpt>
      <trkpt lat="46.93459" lon="-0.15143">
        <ele>62.348</ele>
        <time>2016-06-04T11:38:58Z</time>
      </trkpt>
      <trkpt lat="46.93586" lon="-0.14965">
        <ele>63.108</ele>
        <time>2016-06-04T11:38:38Z</time>
      </trkpt>
      <trkpt lat="46.93639" lon="-0.14838">
        <ele>64.011</ele>
        <time>2016-06-04T11:38:18Z</time>
      </trkpt>
      <trkpt lat="46.93664" lon="-0.14789">
        <ele>63.147</ele>
        <time>2016-06-04T11:37:58Z</time>
      </trkpt>
      <trkpt lat="46.93951" lon="-0.14683">
        <ele>63.926</ele>
        <time>2016-06-04T11:37:38Z</time>
      </trkpt>
      <trkpt lat="46.94007" lon="-0.14681">
        <ele>63.471</ele>
        <time>2016-06-04T11:37:18Z</time>
      </trkpt>
      <trkpt lat="46.94103" lon="-0.1469">
        <ele>63.912</ele>
        <time>2016-06-04T11:36:58Z</time>
      </trkpt>
      <trkpt lat="46.94079" lon="-0.1475">
        <ele>63.046</ele>
        <time>2016-06-04T11:36:38Z</time>
      </trkpt>
      <trkpt lat="46.94085" lon="-0.14836">
        <ele>57.924</ele>
        <time>2016-06-04T11:36:18Z</time>
      </trkpt>
      <trkpt lat="46.9418" lon="-0.14872">
        <ele>57.148</ele>
        <time>2016-06-04T11:35:58Z</time>
      </trkpt>
      <trkpt lat="46.94256" lon="-0.14849">
        <ele>60.065</ele>
        <time>2016-06-04T11:35:38Z</time>
      </trkpt>
      <trkpt lat="46.94373" lon="-0.14887">
        <ele>60.55</ele>
        <time>2016-06-04T11:35:18Z</time>
      </trkpt>
      <trkpt lat="46.94459" lon="-0.14892">
        <ele>65.324</ele>
        <time>2016-06-04T11:34:58Z</time>
      </trkpt>
      <trkpt lat="46.94427" lon="-0.14999">
        <ele>57.408</ele>
        <time>2016-06-04T11:34:38Z</time>
      </trkpt>
      <trkpt lat="46.94361" lon="-0.15186">
        <ele>59.026</ele>
        <time>2016-06-04T11:34:18Z</time>
      </trkpt>
      <trkpt lat="46.94232" lon="-0.15115">
        <ele>60.924</ele>
        <time>2016-06-04T11:33:58Z</time>
      </trkpt>
      <trkpt lat="46.94074" lon="-0.15102">
        <ele>57.888</ele>
        <time>2016-06-04T11:33:38Z</time>
      </trkpt>
      <trkpt lat="46.93955" lon="-0.15136">
        <ele>59.644</ele>
        <time>2016-06-04T11:33:18Z</time>
      </trkpt>
      <trkpt lat="46.93907" lon="-0.15175">
        <ele>59.865</ele>
        <time>2016-06-04T11:32:58Z</time>
      </trkpt>
      <trkpt lat="46.93866" lon="-0.15289">
        <ele>59.999</ele>
        <time>2016-06-04T11:32:38Z</time>
      </trkpt>
      <trkpt lat="46.93857" lon="-0.15346">
        <ele>62.587</ele>
        <time>2016-06-04T11:32:18Z</time>
      </trkpt>
      <trkpt lat="46.93764" lon="-0.15514">
        <ele>62.281</ele>
        <time>2016-06-04T11:31:58Z</time>
      </trkpt>
      <trkpt lat="46.93802" lon="-0.15565">
        <ele>64.248</ele>
        <time>2016-06-04T11:31:38Z</time>
      </trkpt>
      <trkpt lat="46.93797" lon="-0.15707">
        <ele>68.413</ele>
        <time>2016-06-04T11:31:18Z</time>
      </trkpt>
      <trkpt lat="46.93813" lon="-0.15778">
        <ele>70.817</ele>
        <time>2016-06-04T11:30:38Z</time>
      </trkpt>
      <trkpt lat="46.93882" lon="-0.15879">
        <ele>81.108</ele>
        <time>2016-06-04T11:30:18Z</time>
      </trkpt>
      <trkpt lat="46.93958" lon="-0.16029">
        <ele>86.015</ele>
        <time>2016-06-04T11:29:58Z</time>
      </trkpt>
      <trkpt lat="46.94008" lon="-0.16166">
        <ele>89.087</ele>
        <time>2016-06-04T11:29:38Z</time>
      </trkpt>
      <trkpt lat="46.94004" lon="-0.16331">
        <ele>90.017</ele>
        <time>2016-06-04T11:29:18Z</time>
      </trkpt>
      <trkpt lat="46.94442" lon="-0.16705">
        <ele>93.685</ele>
        <time>2016-06-04T11:28:58Z</time>
      </trkpt>
      <trkpt lat="46.94553" lon="-0.16894">
        <ele>93.286</ele>
        <time>2016-06-04T11:28:38Z</time>
      </trkpt>
      <trkpt lat="46.94623" lon="-0.1708">
        <ele>93.14</ele>
        <time>2016-06-04T11:28:18Z</time>
      </trkpt>
      <trkpt lat="46.94773" lon="-0.17134">
        <ele>87.428</ele>
        <time>2016-06-04T11:27:58Z</time>
      </trkpt>
      <trkpt lat="46.94821" lon="-0.1725">
        <ele>88.932</ele>
        <time>2016-06-04T11:27:38Z</time>
      </trkpt>
      <trkpt lat="46.94829" lon="-0.174">
        <ele>84.819</ele>
        <time>2016-06-04T11:27:18Z</time>
      </trkpt>
      <trkpt lat="46.94965" lon="-0.17359">
        <ele>72.084</ele>
        <time>2016-06-04T11:26:58Z</time>
      </trkpt>
      <trkpt lat="46.95035" lon="-0.17348">
        <ele>64.368</ele>
        <time>2016-06-04T11:26:38Z</time>
      </trkpt>
      <trkpt lat="46.95129" lon="-0.17368">
        <ele>56.708</ele>
        <time>2016-06-04T11:26:18Z</time>
      </trkpt>
      <trkpt lat="46.95201" lon="-0.17451">
        <ele>55.014</ele>
        <time>2016-06-04T11:25:38Z</time>
      </trkpt>
      <trkpt lat="46.95268" lon="-0.17681">
        <ele>56.768</ele>
        <time>2016-06-04T11:24:58Z</time>
      </trkpt>
      <trkpt lat="46.95291" lon="-0.17934">
        <ele>60.027</ele>
        <time>2016-06-04T11:24:38Z</time>
      </trkpt>
      <trkpt lat="46.95294" lon="-0.18061">
        <ele>58.115</ele>
        <time>2016-06-04T11:24:18Z</time>
      </trkpt>
      <trkpt lat="46.95272" lon="-0.18172">
        <ele>62.246</ele>
        <time>2016-06-04T11:23:58Z</time>
      </trkpt>
      <trkpt lat="46.95284" lon="-0.18237">
        <ele>60.94</ele>
        <time>2016-06-04T11:23:38Z</time>
      </trkpt>
      <trkpt lat="46.9524" lon="-0.18269">
        <ele>62.588</ele>
        <time>2016-06-04T11:23:18Z</time>
      </trkpt>
      <trkpt lat="46.9525" lon="-0.18441">
        <ele>62.882</ele>
        <time>2016-06-04T11:22:58Z</time>
      </trkpt>
      <trkpt lat="46.95252" lon="-0.18539">
        <ele>62.839</ele>
        <time>2016-06-04T11:22:38Z</time>
      </trkpt>
      <trkpt lat="46.95247" lon="-0.18638">
        <ele>61.274</ele>
        <time>2016-06-04T11:22:18Z</time>
      </trkpt>
      <trkpt lat="46.95183" lon="-0.18898">
        <ele>64.068</ele>
        <time>2016-06-04T11:21:58Z</time>
      </trkpt>
      <trkpt lat="46.95187" lon="-0.18986">
        <ele>62.508</ele>
        <time>2016-06-04T11:21:38Z</time>
      </trkpt>
      <trkpt lat="46.95177" lon="-0.19022">
        <ele>63.205</ele>
        <time>2016-06-04T11:21:18Z</time>
      </trkpt>
      <trkpt lat="46.95176" lon="-0.19063">
        <ele>64.041</ele>
        <time>2016-06-04T11:20:58Z</time>
      </trkpt>
      <trkpt lat="46.95183" lon="-0.19091">
        <ele>63.121</ele>
        <time>2016-06-04T11:20:38Z</time>
      </trkpt>
      <trkpt lat="46.95296" lon="-0.19147">
        <ele>55.641</ele>
        <time>2016-06-04T11:20:18Z</time>
      </trkpt>
      <trkpt lat="46.9529" lon="-0.19198">
        <ele>56.862</ele>
        <time>2016-06-04T11:19:58Z</time>
      </trkpt>
      <trkpt lat="46.95296" lon="-0.19286">
        <ele>55.636</ele>
        <time>2016-06-04T11:19:38Z</time>
      </trkpt>
      <trkpt lat="46.95341" lon="-0.19385">
        <ele>53.434</ele>
        <time>2016-06-04T11:19:18Z</time>
      </trkpt>
      <trkpt lat="46.95391" lon="-0.19441">
        <ele>54.038</ele>
        <time>2016-06-04T11:18:58Z</time>
      </trkpt>
      <trkpt lat="46.95429" lon="-0.19445">
        <ele>54.025</ele>
        <time>2016-06-04T11:18:38Z</time>
      </trkpt>
      <trkpt lat="46.95498" lon="-0.19413">
        <ele>55.14</ele>
        <time>2016-06-04T11:18:18Z</time>
      </trkpt>
      <trkpt lat="46.95539" lon="-0.19346">
        <ele>57.824</ele>
        <time>2016-06-04T11:17:58Z</time>
      </trkpt>
      <trkpt lat="46.95703" lon="-0.19192">
        <ele>58.508</ele>
        <time>2016-06-04T11:17:38Z</time>
      </trkpt>
      <trkpt lat="46.95848" lon="-0.19108">
        <ele>58.217</ele>
        <time>2016-06-04T11:17:18Z</time>
      </trkpt>
      <trkpt lat="46.95983" lon="-0.18945">
        <ele>66.225</ele>
        <time>2016-06-04T11:16:58Z</time>
      </trkpt>
      <trkpt lat="46.96027" lon="-0.18923">
        <ele>65.483</ele>
        <time>2016-06-04T11:16:38Z</time>
      </trkpt>
      <trkpt lat="46.96084" lon="-0.18868">
        <ele>69.371</ele>
        <time>2016-06-04T11:16:18Z</time>
      </trkpt>
      <trkpt lat="46.96104" lon="-0.18861">
        <ele>70.032</ele>
        <time>2016-06-04T11:15:58Z</time>
      </trkpt>
      <trkpt lat="46.96123" lon="-0.18861">
        <ele>69.176</ele>
        <time>2016-06-04T11:15:38Z</time>
      </trkpt>
      <trkpt lat="46.96154" lon="-0.18827">
        <ele>68.544</ele>
        <time>2016-06-04T11:15:18Z</time>
      </trkpt>
      <trkpt lat="46.96164" lon="-0.18782">
        <ele>67.518</ele>
        <time>2016-06-04T11:14:58Z</time>
      </trkpt>
      <trkpt lat="46.96188" lon="-0.18745">
        <ele>68.375</ele>
        <time>2016-06-04T11:14:38Z</time>
      </trkpt>
      <trkpt lat="46.96218" lon="-0.18818">
        <ele>63.56</ele>
        <time>2016-06-04T11:14:18Z</time>
      </trkpt>
      <trkpt lat="46.9628" lon="-0.18835">
        <ele>59.754</ele>
        <time>2016-06-04T11:13:58Z</time>
      </trkpt>
      <trkpt lat="46.96318" lon="-0.1882">
        <ele>58.508</ele>
        <time>2016-06-04T11:13:38Z</time>
      </trkpt>
      <trkpt lat="46.96372" lon="-0.1882">
        <ele>57.517</ele>
        <time>2016-06-04T11:13:18Z</time>
      </trkpt>
      <trkpt lat="46.96486" lon="-0.18765">
        <ele>57.261</ele>
        <time>2016-06-04T11:12:58Z</time>
      </trkpt>
      <trkpt lat="46.96592" lon="-0.18713">
        <ele>61.681</ele>
        <time>2016-06-04T11:12:38Z</time>
      </trkpt>
      <trkpt lat="46.96688" lon="-0.18712">
        <ele>58.791</ele>
        <time>2016-06-04T11:12:18Z</time>
      </trkpt>
      <trkpt lat="46.96793" lon="-0.18726">
        <ele>59.152</ele>
        <time>2016-06-04T11:11:58Z</time>
      </trkpt>
      <trkpt lat="46.96908" lon="-0.1875">
        <ele>64.936</ele>
        <time>2016-06-04T11:11:38Z</time>
      </trkpt>
      <trkpt lat="46.96965" lon="-0.18827">
        <ele>61.664</ele>
        <time>2016-06-04T11:11:18Z</time>
      </trkpt>
      <trkpt lat="46.97015" lon="-0.18883">
        <ele>60.778</ele>
        <time>2016-06-04T11:10:58Z</time>
      </trkpt>
      <trkpt lat="46.97037" lon="-0.18934">
        <ele>58.085</ele>
        <time>2016-06-04T11:10:38Z</time>
      </trkpt>
      <trkpt lat="46.97081" lon="-0.19011">
        <ele>56.67</ele>
        <time>2016-06-04T11:10:18Z</time>
      </trkpt>
      <trkpt lat="46.9708" lon="-0.19224">
        <ele>62.234</ele>
        <time>2016-06-04T11:09:58Z</time>
      </trkpt>
      <trkpt lat="46.97104" lon="-0.19318">
        <ele>69.908</ele>
        <time>2016-06-04T11:09:38Z</time>
      </trkpt>
      <trkpt lat="46.97097" lon="-0.19541">
        <ele>82.426</ele>
        <time>2016-06-04T11:09:18Z</time>
      </trkpt>
      <trkpt lat="46.97046" lon="-0.19664">
        <ele>84.106</ele>
        <time>2016-06-04T11:08:58Z</time>
      </trkpt>
      <trkpt lat="46.97052" lon="-0.19717">
        <ele>87.789</ele>
        <time>2016-06-04T11:08:38Z</time>
      </trkpt>
      <trkpt lat="46.97077" lon="-0.19771">
        <ele>89.544</ele>
        <time>2016-06-04T11:08:18Z</time>
      </trkpt>
      <trkpt lat="46.97096" lon="-0.19844">
        <ele>85.635</ele>
        <time>2016-06-04T11:07:58Z</time>
      </trkpt>
      <trkpt lat="46.97142" lon="-0.19956">
        <ele>78.799</ele>
        <time>2016-06-04T11:07:38Z</time>
      </trkpt>
      <trkpt lat="46.97142" lon="-0.20026">
        <ele>77.017</ele>
        <time>2016-06-04T11:07:18Z</time>
      </trkpt>
      <trkpt lat="46.97181" lon="-0.20074">
        <ele>75.781</ele>
        <time>2016-06-04T11:06:58Z</time>
      </trkpt>
      <trkpt lat="46.97232" lon="-0.20082">
        <ele>75.458</ele>
        <time>2016-06-04T11:06:38Z</time>
      </trkpt>
      <trkpt lat="46.97271" lon="-0.20134">
        <ele>73.043</ele>
        <time>2016-06-04T11:06:18Z</time>
      </trkpt>
      <trkpt lat="46.97315" lon="-0.20204">
        <ele>77.427</ele>
        <time>2016-06-04T11:05:58Z</time>
      </trkpt>
      <trkpt lat="46.9735" lon="-0.20329">
        <ele>73.008</ele>
        <time>2016-06-04T11:05:38Z</time>
      </trkpt>
      <trkpt lat="46.97424" lon="-0.20509">
        <ele>68.419</ele>
        <time>2016-06-04T11:05:18Z</time>
      </trkpt>
      <trkpt lat="46.97475" lon="-0.20758">
        <ele>69.609</ele>
        <time>2016-06-04T11:04:58Z</time>
      </trkpt>
      <trkpt lat="46.97522" lon="-0.20917">
        <ele>71.319</ele>
        <time>2016-06-04T11:04:38Z</time>
      </trkpt>
      <trkpt lat="46.9753" lon="-0.21033">
        <ele>71.599</ele>
        <time>2016-06-04T11:04:18Z</time>
      </trkpt>
      <trkpt lat="46.9761" lon="-0.21048">
        <ele>82.13</ele>
        <time>2016-06-04T11:03:58Z</time>
      </trkpt>
      <trkpt lat="46.97615" lon="-0.21101">
        <ele>84.064</ele>
        <time>2016-06-04T11:03:38Z</time>
      </trkpt>
      <trkpt lat="46.9762" lon="-0.21162">
        <ele>87.222</ele>
        <time>2016-06-04T11:03:18Z</time>
      </trkpt>
      <trkpt lat="46.97577" lon="-0.21194">
        <ele>87.016</ele>
        <time>2016-06-04T11:02:58Z</time>
      </trkpt>
      <trkpt lat="46.97497" lon="-0.21224">
        <ele>84.053</ele>
        <time>2016-06-04T11:02:38Z</time>
      </trkpt>
      <trkpt lat="46.97465" lon="-0.21277">
        <ele>86.138</ele>
        <time>2016-06-04T11:02:18Z</time>
      </trkpt>
      <trkpt lat="46.97455" lon="-0.21389">
        <ele>90.812</ele>
        <time>2016-06-04T11:01:58Z</time>
      </trkpt>
      <trkpt lat="46.97438" lon="-0.21516">
        <ele>92.108</ele>
        <time>2016-06-04T11:01:38Z</time>
      </trkpt>
      <trkpt lat="46.97481" lon="-0.21563">
        <ele>93.026</ele>
        <time>2016-06-04T11:01:18Z</time>
      </trkpt>
      <trkpt lat="46.97487" lon="-0.21584">
        <ele>92.542</ele>
        <time>2016-06-04T11:00:58Z</time>
      </trkpt>
      <trkpt lat="46.97569" lon="-0.21623">
        <ele>90.568</ele>
        <time>2016-06-04T11:00:38Z</time>
      </trkpt>
      <trkpt lat="46.97782" lon="-0.21726">
        <ele>93.369</ele>
        <time>2016-06-04T11:00:18Z</time>
      </trkpt>
      <trkpt lat="46.97803" lon="-0.21719">
        <ele>95.93</ele>
        <time>2016-06-04T10:59:58Z</time>
      </trkpt>
      <trkpt lat="46.97907" lon="-0.21773">
        <ele>99.754</ele>
        <time>2016-06-04T10:59:38Z</time>
      </trkpt>
      <trkpt lat="46.97898" lon="-0.21814">
        <ele>92.022</ele>
        <time>2016-06-04T10:59:18Z</time>
      </trkpt>
      <trkpt lat="46.97876" lon="-0.21837">
        <ele>87.876</ele>
        <time>2016-06-04T10:58:58Z</time>
      </trkpt>
      <trkpt lat="46.97891" lon="-0.21861">
        <ele>83.043</ele>
        <time>2016-06-04T10:58:38Z</time>
      </trkpt>
      <trkpt lat="46.97935" lon="-0.21874">
        <ele>81.738</ele>
        <time>2016-06-04T10:58:18Z</time>
      </trkpt>
      <trkpt lat="46.97958" lon="-0.21917">
        <ele>71.552</ele>
        <time>2016-06-04T10:57:58Z</time>
      </trkpt>
      <trkpt lat="46.98139" lon="-0.22063">
        <ele>57.908</ele>
        <time>2016-06-04T10:57:38Z</time>
      </trkpt>
      <trkpt lat="46.98188" lon="-0.22194">
        <ele>56.613</ele>
        <time>2016-06-04T10:57:18Z</time>
      </trkpt>
      <trkpt lat="46.9822" lon="-0.22342">
        <ele>58.821</ele>
        <time>2016-06-04T10:56:58Z</time>
      </trkpt>
      <trkpt lat="46.98235" lon="-0.22494">
        <ele>55.861</ele>
        <time>2016-06-04T10:56:38Z</time>
      </trkpt>
      <trkpt lat="46.98226" lon="-0.22631">
        <ele>61.498</ele>
        <time>2016-06-04T10:56:18Z</time>
      </trkpt>
      <trkpt lat="46.98211" lon="-0.227">
        <ele>57.719</ele>
        <time>2016-06-04T10:55:58Z</time>
      </trkpt>
      <trkpt lat="46.98205" lon="-0.22844">
        <ele>58.683</ele>
        <time>2016-06-04T10:55:38Z</time>
      </trkpt>
      <trkpt lat="46.98182" lon="-0.22955">
        <ele>56.631</ele>
        <time>2016-06-04T10:55:18Z</time>
      </trkpt>
      <trkpt lat="46.98163" lon="-0.23076">
        <ele>53.415</ele>
        <time>2016-06-04T10:54:58Z</time>
      </trkpt>
      <trkpt lat="46.9817" lon="-0.23232">
        <ele>50.852</ele>
        <time>2016-06-04T10:54:38Z</time>
      </trkpt>
      <trkpt lat="46.98194" lon="-0.23425">
        <ele>49.037</ele>
        <time>2016-06-04T10:54:18Z</time>
      </trkpt>
      <trkpt lat="46.98221" lon="-0.23556">
        <ele>49.981</ele>
        <time>2016-06-04T10:53:58Z</time>
      </trkpt>
      <trkpt lat="46.98242" lon="-0.23711">
        <ele>49.808</ele>
        <time>2016-06-04T10:53:38Z</time>
      </trkpt>
      <trkpt lat="46.98299" lon="-0.24">
        <ele>50.314</ele>
        <time>2016-06-04T10:53:18Z</time>
      </trkpt>
      <trkpt lat="46.98374" lon="-0.24198">
        <ele>49.359</ele>
        <time>2016-06-04T10:52:58Z</time>
      </trkpt>
      <trkpt lat="46.98407" lon="-0.24224">
        <ele>51.956</ele>
        <time>2016-06-04T10:52:38Z</time>
      </trkpt>
      <trkpt lat="46.98503" lon="-0.2438">
        <ele>50.548</ele>
        <time>2016-06-04T10:52:18Z</time>
      </trkpt>
      <trkpt lat="46.98612" lon="-0.24475">
        <ele>48.279</ele>
        <time>2016-06-04T10:51:58Z</time>
      </trkpt>
      <trkpt lat="46.98725" lon="-0.24584">
        <ele>51.183</ele>
        <time>2016-06-04T10:51:38Z</time>
      </trkpt>
      <trkpt lat="46.98792" lon="-0.24651">
        <ele>50.051</ele>
        <time>2016-06-04T10:51:18Z</time>
      </trkpt>
      <trkpt lat="46.98908" lon="-0.24754">
        <ele>48.395</ele>
        <time>2016-06-04T10:50:58Z</time>
      </trkpt>
      <trkpt lat="46.98997" lon="-0.24775">
        <ele>50.272</ele>
        <time>2016-06-04T10:50:38Z</time>
      </trkpt>
      <trkpt lat="46.99151" lon="-0.24745">
        <ele>48.927</ele>
        <time>2016-06-04T10:50:18Z</time>
      </trkpt>
      <trkpt lat="46.99186" lon="-0.24754">
        <ele>48.051</ele>
        <time>2016-06-04T10:49:58Z</time>
      </trkpt>
      <trkpt lat="46.9928" lon="-0.24728">
        <ele>48.708</ele>
        <time>2016-06-04T10:49:38Z</time>
      </trkpt>
      <trkpt lat="46.99302" lon="-0.24698">
        <ele>48.223</ele>
        <time>2016-06-04T10:49:18Z</time>
      </trkpt>
      <trkpt lat="46.99384" lon="-0.2467">
        <ele>46.103</ele>
        <time>2016-06-04T10:48:58Z</time>
      </trkpt>
      <trkpt lat="46.99428" lon="-0.24644">
        <ele>48.259</ele>
        <time>2016-06-04T10:48:38Z</time>
      </trkpt>
      <trkpt lat="46.99498" lon="-0.2462">
        <ele>49.269</ele>
        <time>2016-06-04T10:48:18Z</time>
      </trkpt>
      <trkpt lat="46.996" lon="-0.24614">
        <ele>48.81</ele>
        <time>2016-06-04T10:47:58Z</time>
      </trkpt>
      <trkpt lat="46.99678" lon="-0.24588">
        <ele>46.694</ele>
        <time>2016-06-04T10:47:38Z</time>
      </trkpt>
      <trkpt lat="46.99729" lon="-0.24597">
        <ele>47.962</ele>
        <time>2016-06-04T10:47:18Z</time>
      </trkpt>
      <trkpt lat="46.99821" lon="-0.24565">
        <ele>49.426</ele>
        <time>2016-06-04T10:46:58Z</time>
      </trkpt>
      <trkpt lat="46.99843" lon="-0.2455">
        <ele>49.233</ele>
        <time>2016-06-04T10:46:18Z</time>
      </trkpt>
      <trkpt lat="46.99853" lon="-0.24524">
        <ele>48.368</ele>
        <time>2016-06-04T10:45:58Z</time>
      </trkpt>
      <trkpt lat="47.00014" lon="-0.24543">
        <ele>44.792</ele>
        <time>2016-06-04T10:45:38Z</time>
      </trkpt>
      <trkpt lat="47.00134" lon="-0.24558">
        <ele>45.908</ele>
        <time>2016-06-04T10:45:18Z</time>
      </trkpt>
      <trkpt lat="47.00252" lon="-0.24595">
        <ele>47.014</ele>
        <time>2016-06-04T10:44:58Z</time>
      </trkpt>
      <trkpt lat="47.00363" lon="-0.24605">
        <ele>48.468</ele>
        <time>2016-06-04T10:44:38Z</time>
      </trkpt>
      <trkpt lat="47.00443" lon="-0.24599">
        <ele>51.165</ele>
        <time>2016-06-04T10:44:18Z</time>
      </trkpt>
      <trkpt lat="47.00481" lon="-0.24623">
        <ele>52.272</ele>
        <time>2016-06-04T10:43:58Z</time>
      </trkpt>
      <trkpt lat="47.00509" lon="-0.24672">
        <ele>49.053</ele>
        <time>2016-06-04T10:43:38Z</time>
      </trkpt>
      <trkpt lat="47.00623" lon="-0.24801">
        <ele>54.387</ele>
        <time>2016-06-04T10:43:18Z</time>
      </trkpt>
      <trkpt lat="47.00695" lon="-0.24919">
        <ele>45.975</ele>
        <time>2016-06-04T10:42:58Z</time>
      </trkpt>
      <trkpt lat="47.00739" lon="-0.24998">
        <ele>46.349</ele>
        <time>2016-06-04T10:42:38Z</time>
      </trkpt>
      <trkpt lat="47.00813" lon="-0.25105">
        <ele>44.456</ele>
        <time>2016-06-04T10:42:18Z</time>
      </trkpt>
      <trkpt lat="47.0093" lon="-0.25243">
        <ele>44.521</ele>
        <time>2016-06-04T10:41:58Z</time>
      </trkpt>
      <trkpt lat="47.00976" lon="-0.25324">
        <ele>43.925</ele>
        <time>2016-06-04T10:41:38Z</time>
      </trkpt>
      <trkpt lat="47.00995" lon="-0.25348">
        <ele>43.208</ele>
        <time>2016-06-04T10:41:18Z</time>
      </trkpt>
      <trkpt lat="47.01069" lon="-0.255">
        <ele>43.519</ele>
        <time>2016-06-04T10:40:58Z</time>
      </trkpt>
      <trkpt lat="47.01109" lon="-0.25528">
        <ele>44.181</ele>
        <time>2016-06-04T10:40:38Z</time>
      </trkpt>
      <trkpt lat="47.0114" lon="-0.25623">
        <ele>42.491</ele>
        <time>2016-06-04T10:40:18Z</time>
      </trkpt>
      <trkpt lat="47.01182" lon="-0.25715">
        <ele>40.817</ele>
        <time>2016-06-04T10:39:58Z</time>
      </trkpt>
      <trkpt lat="47.01235" lon="-0.25766">
        <ele>43.348</ele>
        <time>2016-06-04T10:39:38Z</time>
      </trkpt>
      <trkpt lat="47.01302" lon="-0.25781">
        <ele>44.912</ele>
        <time>2016-06-04T10:39:18Z</time>
      </trkpt>
      <trkpt lat="47.01412" lon="-0.25747">
        <ele>45.07</ele>
        <time>2016-06-04T10:38:58Z</time>
      </trkpt>
      <trkpt lat="47.015" lon="-0.25693">
        <ele>45.074</ele>
        <time>2016-06-04T10:38:38Z</time>
      </trkpt>
      <trkpt lat="47.0158" lon="-0.25625">
        <ele>44.491</ele>
        <time>2016-06-04T10:38:18Z</time>
      </trkpt>
      <trkpt lat="47.01644" lon="-0.25601">
        <ele>45.526</ele>
        <time>2016-06-04T10:37:58Z</time>
      </trkpt>
      <trkpt lat="47.01772" lon="-0.25605">
        <ele>45.82</ele>
        <time>2016-06-04T10:37:38Z</time>
      </trkpt>
      <trkpt lat="47.01798" lon="-0.25595">
        <ele>45.608</ele>
        <time>2016-06-04T10:37:18Z</time>
      </trkpt>
      <trkpt lat="47.01895" lon="-0.25554">
        <ele>43.322</ele>
        <time>2016-06-04T10:36:58Z</time>
      </trkpt>
      <trkpt lat="47.0196" lon="-0.25492">
        <ele>44.402</ele>
        <time>2016-06-04T10:36:38Z</time>
      </trkpt>
      <trkpt lat="47.02006" lon="-0.25408">
        <ele>45.349</ele>
        <time>2016-06-04T10:36:18Z</time>
      </trkpt>
      <trkpt lat="47.02053" lon="-0.25271">
        <ele>46.645</ele>
        <time>2016-06-04T10:35:58Z</time>
      </trkpt>
      <trkpt lat="47.0214" lon="-0.25095">
        <ele>43.476</ele>
        <time>2016-06-04T10:35:38Z</time>
      </trkpt>
      <trkpt lat="47.02212" lon="-0.24904">
        <ele>42.02</ele>
        <time>2016-06-04T10:35:18Z</time>
      </trkpt>
      <trkpt lat="47.02263" lon="-0.24734">
        <ele>43.548</ele>
        <time>2016-06-04T10:34:58Z</time>
      </trkpt>
      <trkpt lat="47.02304" lon="-0.2464">
        <ele>42.172</ele>
        <time>2016-06-04T10:34:38Z</time>
      </trkpt>
      <trkpt lat="47.02312" lon="-0.2453">
        <ele>44.099</ele>
        <time>2016-06-04T10:34:18Z</time>
      </trkpt>
      <trkpt lat="47.0239" lon="-0.24468">
        <ele>44.074</ele>
        <time>2016-06-04T10:33:58Z</time>
      </trkpt>
      <trkpt lat="47.02486" lon="-0.24331">
        <ele>43.028</ele>
        <time>2016-06-04T10:33:38Z</time>
      </trkpt>
      <trkpt lat="47.02547" lon="-0.24264">
        <ele>43.708</ele>
        <time>2016-06-04T10:33:18Z</time>
      </trkpt>
      <trkpt lat="47.02588" lon="-0.24157">
        <ele>43.817</ele>
        <time>2016-06-04T10:32:58Z</time>
      </trkpt>
      <trkpt lat="47.02636" lon="-0.24067">
        <ele>44.589</ele>
        <time>2016-06-04T10:32:38Z</time>
      </trkpt>
      <trkpt lat="47.02878" lon="-0.2367">
        <ele>44.628</ele>
        <time>2016-06-04T10:32:18Z</time>
      </trkpt>
      <trkpt lat="47.02949" lon="-0.23582">
        <ele>44.932</ele>
        <time>2016-06-04T10:31:58Z</time>
      </trkpt>
      <trkpt lat="47.02986" lon="-0.23543">
        <ele>43.343</ele>
        <time>2016-06-04T10:31:38Z</time>
      </trkpt>
      <trkpt lat="47.03008" lon="-0.23509">
        <ele>42.577</ele>
        <time>2016-06-04T10:31:18Z</time>
      </trkpt>
      <trkpt lat="47.03074" lon="-0.2344">
        <ele>42.455</ele>
        <time>2016-06-04T10:30:58Z</time>
      </trkpt>
      <trkpt lat="47.03113" lon="-0.23423">
        <ele>42.979</ele>
        <time>2016-06-04T10:30:38Z</time>
      </trkpt>
      <trkpt lat="47.03215" lon="-0.2343">
        <ele>41.876</ele>
        <time>2016-06-04T10:30:18Z</time>
      </trkpt>
      <trkpt lat="47.03337" lon="-0.23389">
        <ele>42.171</ele>
        <time>2016-06-04T10:29:58Z</time>
      </trkpt>
      <trkpt lat="47.03463" lon="-0.23369">
        <ele>43.165</ele>
        <time>2016-06-04T10:29:38Z</time>
      </trkpt>
      <trkpt lat="47.03572" lon="-0.23166">
        <ele>42.408</ele>
        <time>2016-06-04T10:29:18Z</time>
      </trkpt>
      <trkpt lat="47.03638" lon="-0.23097">
        <ele>43.523</ele>
        <time>2016-06-04T10:28:58Z</time>
      </trkpt>
      <trkpt lat="47.03783" lon="-0.23078">
        <ele>40.849</ele>
        <time>2016-06-04T10:28:38Z</time>
      </trkpt>
      <trkpt lat="47.03795" lon="-0.23061">
        <ele>40.495</ele>
        <time>2016-06-04T10:28:18Z</time>
      </trkpt>
      <trkpt lat="47.03783" lon="-0.22936">
        <ele>42.936</ele>
        <time>2016-06-04T10:27:58Z</time>
      </trkpt>
      <trkpt lat="47.03762" lon="-0.22831">
        <ele>43.497</ele>
        <time>2016-06-04T10:27:38Z</time>
      </trkpt>
      <trkpt lat="47.03768" lon="-0.22792">
        <ele>43.051</ele>
        <time>2016-06-04T10:27:18Z</time>
      </trkpt>
      <trkpt lat="47.03814" lon="-0.22752">
        <ele>42.019</ele>
        <time>2016-06-04T10:26:58Z</time>
      </trkpt>
      <trkpt lat="47.03814" lon="-0.22694">
        <ele>42.753</ele>
        <time>2016-06-04T10:26:38Z</time>
      </trkpt>
      <trkpt lat="47.03822" lon="-0.22661">
        <ele>43.58</ele>
        <time>2016-06-04T10:26:18Z</time>
      </trkpt>
      <trkpt lat="47.03809" lon="-0.22582">
        <ele>46.225</ele>
        <time>2016-06-04T10:25:58Z</time>
      </trkpt>
      <trkpt lat="47.03907" lon="-0.22548">
        <ele>50.549</ele>
        <time>2016-06-04T10:25:38Z</time>
      </trkpt>
      <trkpt lat="47.04004" lon="-0.22552">
        <ele>44.308</ele>
        <time>2016-06-04T10:25:18Z</time>
      </trkpt>
      <trkpt lat="47.04093" lon="-0.22533">
        <ele>47.307</ele>
        <time>2016-06-04T10:24:58Z</time>
      </trkpt>
      <trkpt lat="47.04119" lon="-0.22404">
        <ele>50.861</ele>
        <time>2016-06-04T10:24:38Z</time>
      </trkpt>
      <trkpt lat="47.04198" lon="-0.22363">
        <ele>49.731</ele>
        <time>2016-06-04T10:24:18Z</time>
      </trkpt>
      <trkpt lat="47.04227" lon="-0.22374">
        <ele>47.656</ele>
        <time>2016-06-04T10:23:58Z</time>
      </trkpt>
      <trkpt lat="47.04286" lon="-0.22447">
        <ele>41.567</ele>
        <time>2016-06-04T10:23:38Z</time>
      </trkpt>
      <trkpt lat="47.04467" lon="-0.22292">
        <ele>48.021</ele>
        <time>2016-06-04T10:23:18Z</time>
      </trkpt>
      <trkpt lat="47.04542" lon="-0.22262">
        <ele>42.869</ele>
        <time>2016-06-04T10:22:58Z</time>
      </trkpt>
      <trkpt lat="47.04564" lon="-0.22232">
        <ele>43.853</ele>
        <time>2016-06-04T10:22:38Z</time>
      </trkpt>
      <trkpt lat="47.04602" lon="-0.22217">
        <ele>43.21</ele>
        <time>2016-06-04T10:22:18Z</time>
      </trkpt>
      <trkpt lat="47.04719" lon="-0.22131">
        <ele>43.935</ele>
        <time>2016-06-04T10:21:58Z</time>
      </trkpt>
      <trkpt lat="47.0477" lon="-0.22078">
        <ele>41.569</ele>
        <time>2016-06-04T10:21:38Z</time>
      </trkpt>
      <trkpt lat="47.04752" lon="-0.22033">
        <ele>45.508</ele>
        <time>2016-06-04T10:21:18Z</time>
      </trkpt>
      <trkpt lat="47.04679" lon="-0.21938">
        <ele>53.407</ele>
        <time>2016-06-04T10:20:58Z</time>
      </trkpt>
      <trkpt lat="47.04662" lon="-0.21882">
        <ele>52.261</ele>
        <time>2016-06-04T10:20:38Z</time>
      </trkpt>
      <trkpt lat="47.04574" lon="-0.21788">
        <ele>53.031</ele>
        <time>2016-06-04T10:20:18Z</time>
      </trkpt>
      <trkpt lat="47.04553" lon="-0.21737">
        <ele>54.094</ele>
        <time>2016-06-04T10:19:58Z</time>
      </trkpt>
      <trkpt lat="47.0462" lon="-0.2171">
        <ele>51.525</ele>
        <time>2016-06-04T10:19:38Z</time>
      </trkpt>
      <trkpt lat="47.04759" lon="-0.21718">
        <ele>50.239</ele>
        <time>2016-06-04T10:19:18Z</time>
      </trkpt>
      <trkpt lat="47.04833" lon="-0.21788">
        <ele>48.647</ele>
        <time>2016-06-04T10:18:58Z</time>
      </trkpt>
      <trkpt lat="47.04874" lon="-0.21797">
        <ele>44.671</ele>
        <time>2016-06-04T10:18:38Z</time>
      </trkpt>
      <trkpt lat="47.05058" lon="-0.21756">
        <ele>42.848</ele>
        <time>2016-06-04T10:18:18Z</time>
      </trkpt>
      <trkpt lat="47.05077" lon="-0.21732">
        <ele>43.693</ele>
        <time>2016-06-04T10:17:58Z</time>
      </trkpt>
      <trkpt lat="47.05154" lon="-0.21852">
        <ele>40.957</ele>
        <time>2016-06-04T10:17:38Z</time>
      </trkpt>
      <trkpt lat="47.05396" lon="-0.22013">
        <ele>39.508</ele>
        <time>2016-06-04T10:17:18Z</time>
      </trkpt>
      <trkpt lat="47.05545" lon="-0.22069">
        <ele>37.217</ele>
        <time>2016-06-04T10:16:58Z</time>
      </trkpt>
      <trkpt lat="47.05676" lon="-0.22011">
        <ele>38.798</ele>
        <time>2016-06-04T10:16:38Z</time>
      </trkpt>
      <trkpt lat="47.05704" lon="-0.22024">
        <ele>37.718</ele>
        <time>2016-06-04T10:16:18Z</time>
      </trkpt>
      <trkpt lat="47.05934" lon="-0.22026">
        <ele>39.257</ele>
        <time>2016-06-04T10:15:58Z</time>
      </trkpt>
      <trkpt lat="47.06186" lon="-0.2196">
        <ele>38.138</ele>
        <time>2016-06-04T10:15:38Z</time>
      </trkpt>
      <trkpt lat="47.06262" lon="-0.21962">
        <ele>39.022</ele>
        <time>2016-06-04T10:15:18Z</time>
      </trkpt>
      <trkpt lat="47.06363" lon="-0.22005">
        <ele>38.06</ele>
        <time>2016-06-04T10:14:58Z</time>
      </trkpt>
      <trkpt lat="47.06435" lon="-0.21983">
        <ele>38.344</ele>
        <time>2016-06-04T10:14:38Z</time>
      </trkpt>
      <trkpt lat="47.06493" lon="-0.21981">
        <ele>38.021</ele>
        <time>2016-06-04T10:14:18Z</time>
      </trkpt>
      <trkpt lat="47.06528" lon="-0.2196">
        <ele>38.566</ele>
        <time>2016-06-04T10:13:58Z</time>
      </trkpt>
      <trkpt lat="47.06591" lon="-0.21934">
        <ele>39.81</ele>
        <time>2016-06-04T10:13:38Z</time>
      </trkpt>
      <trkpt lat="47.06602" lon="-0.2181">
        <ele>40.008</ele>
        <time>2016-06-04T10:13:18Z</time>
      </trkpt>
      <trkpt lat="47.06699" lon="-0.2176">
        <ele>36.91</ele>
        <time>2016-06-04T10:12:58Z</time>
      </trkpt>
      <trkpt lat="47.06732" lon="-0.21719">
        <ele>36.364</ele>
        <time>2016-06-04T10:12:38Z</time>
      </trkpt>
      <trkpt lat="47.06796" lon="-0.2164">
        <ele>38.043</ele>
        <time>2016-06-04T10:12:18Z</time>
      </trkpt>
      <trkpt lat="47.06846" lon="-0.21576">
        <ele>37.686</ele>
        <time>2016-06-04T10:11:58Z</time>
      </trkpt>
      <trkpt lat="47.06938" lon="-0.21531">
        <ele>37.717</ele>
        <time>2016-06-04T10:11:38Z</time>
      </trkpt>
      <trkpt lat="47.07002" lon="-0.21479">
        <ele>42.191</ele>
        <time>2016-06-04T10:11:18Z</time>
      </trkpt>
      <trkpt lat="47.07131" lon="-0.21449">
        <ele>41.069</ele>
        <time>2016-06-04T10:10:58Z</time>
      </trkpt>
      <trkpt lat="47.07332" lon="-0.21348">
        <ele>38.013</ele>
        <time>2016-06-04T10:09:58Z</time>
      </trkpt>
      <trkpt lat="47.07568" lon="-0.21065">
        <ele>36.94</ele>
        <time>2016-06-04T10:09:38Z</time>
      </trkpt>
      <trkpt lat="47.07619" lon="-0.20966">
        <ele>38.135</ele>
        <time>2016-06-04T10:09:18Z</time>
      </trkpt>
      <trkpt lat="47.07644" lon="-0.209">
        <ele>39.269</ele>
        <time>2016-06-04T10:08:58Z</time>
      </trkpt>
      <trkpt lat="47.07651" lon="-0.20848">
        <ele>40.008</ele>
        <time>2016-06-04T10:08:38Z</time>
      </trkpt>
      <trkpt lat="47.07674" lon="-0.20687">
        <ele>38.115</ele>
        <time>2016-06-04T10:08:18Z</time>
      </trkpt>
      <trkpt lat="47.07708" lon="-0.20608">
        <ele>39.423</ele>
        <time>2016-06-04T10:07:58Z</time>
      </trkpt>
      <trkpt lat="47.07796" lon="-0.20466">
        <ele>39.033</ele>
        <time>2016-06-04T10:07:38Z</time>
      </trkpt>
      <trkpt lat="47.07908" lon="-0.20314">
        <ele>38.278</ele>
        <time>2016-06-04T10:07:18Z</time>
      </trkpt>
      <trkpt lat="47.07927" lon="-0.20271">
        <ele>38.849</ele>
        <time>2016-06-04T10:06:58Z</time>
      </trkpt>
      <trkpt lat="47.08043" lon="-0.20117">
        <ele>39.573</ele>
        <time>2016-06-04T10:06:38Z</time>
      </trkpt>
      <trkpt lat="47.08151" lon="-0.20048">
        <ele>39.921</ele>
        <time>2016-06-04T10:06:18Z</time>
      </trkpt>
      <trkpt lat="47.08167" lon="-0.19919">
        <ele>37.175</ele>
        <time>2016-06-04T10:05:58Z</time>
      </trkpt>
      <trkpt lat="47.08588" lon="-0.19695">
        <ele>36.852</ele>
        <time>2016-06-04T10:05:38Z</time>
      </trkpt>
      <trkpt lat="47.08691" lon="-0.19653">
        <ele>35.997</ele>
        <time>2016-06-04T10:05:18Z</time>
      </trkpt>
      <trkpt lat="47.08715" lon="-0.19775">
        <ele>35.041</ele>
        <time>2016-06-04T10:04:58Z</time>
      </trkpt>
      <trkpt lat="47.08756" lon="-0.1982">
        <ele>35.708</ele>
        <time>2016-06-04T10:04:38Z</time>
      </trkpt>
      <trkpt lat="47.08792" lon="-0.19893">
        <ele>36.72</ele>
        <time>2016-06-04T10:04:18Z</time>
      </trkpt>
      <trkpt lat="47.08814" lon="-0.20016">
        <ele>36.3</ele>
        <time>2016-06-04T10:03:58Z</time>
      </trkpt>
      <trkpt lat="47.08834" lon="-0.20054">
        <ele>35.157</ele>
        <time>2016-06-04T10:03:38Z</time>
      </trkpt>
      <trkpt lat="47.08931" lon="-0.20127">
        <ele>39.052</ele>
        <time>2016-06-04T10:03:18Z</time>
      </trkpt>
      <trkpt lat="47.08957" lon="-0.20134">
        <ele>39.043</ele>
        <time>2016-06-04T10:02:58Z</time>
      </trkpt>
      <trkpt lat="47.09099" lon="-0.20106">
        <ele>41.147</ele>
        <time>2016-06-04T10:02:38Z</time>
      </trkpt>
      <trkpt lat="47.09178" lon="-0.20076">
        <ele>38.355</ele>
        <time>2016-06-04T10:02:18Z</time>
      </trkpt>
      <trkpt lat="47.09214" lon="-0.20067">
        <ele>38.299</ele>
        <time>2016-06-04T10:01:58Z</time>
      </trkpt>
      <trkpt lat="47.09403" lon="-0.19943">
        <ele>35.066</ele>
        <time>2016-06-04T10:01:38Z</time>
      </trkpt>
      <trkpt lat="47.0948" lon="-0.19829">
        <ele>35.171</ele>
        <time>2016-06-04T10:01:18Z</time>
      </trkpt>
      <trkpt lat="47.09523" lon="-0.1978">
        <ele>37.085</ele>
        <time>2016-06-04T10:00:58Z</time>
      </trkpt>
      <trkpt lat="47.09541" lon="-0.19737">
        <ele>35.308</ele>
        <time>2016-06-04T10:00:38Z</time>
      </trkpt>
      <trkpt lat="47.09603" lon="-0.1964">
        <ele>37.023</ele>
        <time>2016-06-04T10:00:18Z</time>
      </trkpt>
      <trkpt lat="47.09581" lon="-0.19587">
        <ele>35.949</ele>
        <time>2016-06-04T09:59:58Z</time>
      </trkpt>
      <trkpt lat="47.0972" lon="-0.19359">
        <ele>38.895</ele>
        <time>2016-06-04T09:59:38Z</time>
      </trkpt>
      <trkpt lat="47.09676" lon="-0.19314">
        <ele>36.155</ele>
        <time>2016-06-04T09:59:18Z</time>
      </trkpt>
      <trkpt lat="47.09638" lon="-0.19241">
        <ele>37.016</ele>
        <time>2016-06-04T09:58:58Z</time>
      </trkpt>
      <trkpt lat="47.09582" lon="-0.19095">
        <ele>35.58</ele>
        <time>2016-06-04T09:58:38Z</time>
      </trkpt>
      <trkpt lat="47.09634" lon="-0.19048">
        <ele>35.948</ele>
        <time>2016-06-04T09:58:18Z</time>
      </trkpt>
      <trkpt lat="47.09699" lon="-0.19014">
        <ele>35.052</ele>
        <time>2016-06-04T09:57:58Z</time>
      </trkpt>
      <trkpt lat="47.09772" lon="-0.18981">
        <ele>35.099</ele>
        <time>2016-06-04T09:56:58Z</time>
      </trkpt>
      <trkpt lat="47.09797" lon="-0.18956">
        <ele>34.134</ele>
        <time>2016-06-04T09:56:38Z</time>
      </trkpt>
      <trkpt lat="47.09984" lon="-0.18799">
        <ele>34.838</ele>
        <time>2016-06-04T09:56:18Z</time>
      </trkpt>
      <trkpt lat="47.1005" lon="-0.18702">
        <ele>39.808</ele>
        <time>2016-06-04T09:55:58Z</time>
      </trkpt>
      <trkpt lat="47.10085" lon="-0.18619">
        <ele>40.614</ele>
        <time>2016-06-04T09:55:38Z</time>
      </trkpt>
      <trkpt lat="47.10136" lon="-0.18593">
        <ele>37.204</ele>
        <time>2016-06-04T09:55:18Z</time>
      </trkpt>
      <trkpt lat="47.1018" lon="-0.18576">
        <ele>36.024</ele>
        <time>2016-06-04T09:54:58Z</time>
      </trkpt>
      <trkpt lat="47.10276" lon="-0.18574">
        <ele>37.372</ele>
        <time>2016-06-04T09:54:38Z</time>
      </trkpt>
      <trkpt lat="47.10352" lon="-0.1852">
        <ele>38.633</ele>
        <time>2016-06-04T09:54:18Z</time>
      </trkpt>
      <trkpt lat="47.10456" lon="-0.18391">
        <ele>39.997</ele>
        <time>2016-06-04T09:53:58Z</time>
      </trkpt>
      <trkpt lat="47.10538" lon="-0.18327">
        <ele>39.815</ele>
        <time>2016-06-04T09:53:38Z</time>
      </trkpt>
      <trkpt lat="47.10586" lon="-0.18303">
        <ele>42.179</ele>
        <time>2016-06-04T09:53:18Z</time>
      </trkpt>
      <trkpt lat="47.10733" lon="-0.18273">
        <ele>39.096</ele>
        <time>2016-06-04T09:52:58Z</time>
      </trkpt>
      <trkpt lat="47.10801" lon="-0.18265">
        <ele>38.661</ele>
        <time>2016-06-04T09:52:38Z</time>
      </trkpt>
      <trkpt lat="47.10928" lon="-0.18185">
        <ele>36.775</ele>
        <time>2016-06-04T09:52:18Z</time>
      </trkpt>
      <trkpt lat="47.11207" lon="-0.17894">
        <ele>35.808</ele>
        <time>2016-06-04T09:51:58Z</time>
      </trkpt>
      <trkpt lat="47.11239" lon="-0.17844">
        <ele>37.626</ele>
        <time>2016-06-04T09:51:38Z</time>
      </trkpt>
      <trkpt lat="47.11296" lon="-0.17737">
        <ele>38.415</ele>
        <time>2016-06-04T09:51:18Z</time>
      </trkpt>
      <trkpt lat="47.11426" lon="-0.17539">
        <ele>36.698</ele>
        <time>2016-06-04T09:50:58Z</time>
      </trkpt>
      <trkpt lat="47.11535" lon="-0.17398">
        <ele>34.76</ele>
        <time>2016-06-04T09:50:38Z</time>
      </trkpt>
      <trkpt lat="47.11643" lon="-0.17162">
        <ele>33.291</ele>
        <time>2016-06-04T09:50:18Z</time>
      </trkpt>
      <trkpt lat="47.11667" lon="-0.17076">
        <ele>33.055</ele>
        <time>2016-06-04T09:49:58Z</time>
      </trkpt>
      <trkpt lat="47.11712" lon="-0.16973">
        <ele>32.083</ele>
        <time>2016-06-04T09:49:38Z</time>
      </trkpt>
      <trkpt lat="47.1176" lon="-0.16851">
        <ele>34.847</ele>
        <time>2016-06-04T09:49:18Z</time>
      </trkpt>
      <trkpt lat="47.11785" lon="-0.16831">
        <ele>34.964</ele>
        <time>2016-06-04T09:48:58Z</time>
      </trkpt>
      <trkpt lat="47.12109" lon="-0.16469">
        <ele>34.169</ele>
        <time>2016-06-04T09:48:38Z</time>
      </trkpt>
      <trkpt lat="47.1217" lon="-0.16413">
        <ele>34.733</ele>
        <time>2016-06-04T09:48:18Z</time>
      </trkpt>
      <trkpt lat="47.12255" lon="-0.16424">
        <ele>32.808</ele>
        <time>2016-06-04T09:47:58Z</time>
      </trkpt>
      <trkpt lat="47.12363" lon="-0.16398">
        <ele>31.125</ele>
        <time>2016-06-04T09:47:38Z</time>
      </trkpt>
      <trkpt lat="47.12864" lon="-0.16291">
        <ele>33.305</ele>
        <time>2016-06-04T09:47:18Z</time>
      </trkpt>
      <trkpt lat="47.12875" lon="-0.16228">
        <ele>33.179</ele>
        <time>2016-06-04T09:46:58Z</time>
      </trkpt>
      <trkpt lat="47.12915" lon="-0.16188">
        <ele>33.711</ele>
        <time>2016-06-04T09:46:38Z</time>
      </trkpt>
      <trkpt lat="47.12947" lon="-0.1611">
        <ele>35.172</ele>
        <time>2016-06-04T09:46:18Z</time>
      </trkpt>
      <trkpt lat="47.13087" lon="-0.16044">
        <ele>36.456</ele>
        <time>2016-06-04T09:45:58Z</time>
      </trkpt>
      <trkpt lat="47.13128" lon="-0.15999">
        <ele>36.754</ele>
        <time>2016-06-04T09:45:38Z</time>
      </trkpt>
      <trkpt lat="47.13265" lon="-0.15789">
        <ele>34.518</ele>
        <time>2016-06-04T09:45:18Z</time>
      </trkpt>
      <trkpt lat="47.13286" lon="-0.1575">
        <ele>34.075</ele>
        <time>2016-06-04T09:44:58Z</time>
      </trkpt>
      <trkpt lat="47.13324" lon="-0.15621">
        <ele>38.68</ele>
        <time>2016-06-04T09:44:38Z</time>
      </trkpt>
      <trkpt lat="47.13341" lon="-0.15595">
        <ele>38.064</ele>
        <time>2016-06-04T09:44:18Z</time>
      </trkpt>
      <trkpt lat="47.13359" lon="-0.15595">
        <ele>35.408</ele>
        <time>2016-06-04T09:43:58Z</time>
      </trkpt>
      <trkpt lat="47.1341" lon="-0.15484">
        <ele>37.117</ele>
        <time>2016-06-04T09:43:38Z</time>
      </trkpt>
      <trkpt lat="47.13407" lon="-0.15428">
        <ele>41.507</ele>
        <time>2016-06-04T09:43:18Z</time>
      </trkpt>
      <trkpt lat="47.13426" lon="-0.15381">
        <ele>40.084</ele>
        <time>2016-06-04T09:42:58Z</time>
      </trkpt>
      <trkpt lat="47.13465" lon="-0.15365">
        <ele>37.221</ele>
        <time>2016-06-04T09:42:38Z</time>
      </trkpt>
      <trkpt lat="47.13509" lon="-0.15398">
        <ele>34.532</ele>
        <time>2016-06-04T09:42:18Z</time>
      </trkpt>
      <trkpt lat="47.13516" lon="-0.15385">
        <ele>34.476</ele>
        <time>2016-06-04T09:41:58Z</time>
      </trkpt>
      <trkpt lat="47.13484" lon="-0.15325">
        <ele>37.014</ele>
        <time>2016-06-04T09:41:38Z</time>
      </trkpt>
      <trkpt lat="47.13487" lon="-0.15278">
        <ele>37.478</ele>
        <time>2016-06-04T09:41:18Z</time>
      </trkpt>
      <trkpt lat="47.13524" lon="-0.15203">
        <ele>38.835</ele>
        <time>2016-06-04T09:40:58Z</time>
      </trkpt>
      <trkpt lat="47.13543" lon="-0.15136">
        <ele>38.97</ele>
        <time>2016-06-04T09:40:38Z</time>
      </trkpt>
      <trkpt lat="47.13534" lon="-0.15061">
        <ele>39.064</ele>
        <time>2016-06-04T09:40:18Z</time>
      </trkpt>
      <trkpt lat="47.13436" lon="-0.1498">
        <ele>49.308</ele>
        <time>2016-06-04T09:39:58Z</time>
      </trkpt>
      <trkpt lat="47.1388" lon="-0.14231">
        <ele>42.517</ele>
        <time>2016-06-04T09:39:38Z</time>
      </trkpt>
      <trkpt lat="47.13961" lon="-0.14385">
        <ele>38.007</ele>
        <time>2016-06-04T09:39:18Z</time>
      </trkpt>
      <trkpt lat="47.13986" lon="-0.14402">
        <ele>37.584</ele>
        <time>2016-06-04T09:38:58Z</time>
      </trkpt>
      <trkpt lat="47.14002" lon="-0.14437">
        <ele>36.046</ele>
        <time>2016-06-04T09:38:38Z</time>
      </trkpt>
      <trkpt lat="47.14116" lon="-0.14332">
        <ele>36.497</ele>
        <time>2016-06-04T09:38:18Z</time>
      </trkpt>
      <trkpt lat="47.14135" lon="-0.14323">
        <ele>34.581</ele>
        <time>2016-06-04T09:37:58Z</time>
      </trkpt>
      <trkpt lat="47.14313" lon="-0.14156">
        <ele>32.539</ele>
        <time>2016-06-04T09:37:38Z</time>
      </trkpt>
      <trkpt lat="47.14382" lon="-0.14072">
        <ele>30.773</ele>
        <time>2016-06-04T09:37:18Z</time>
      </trkpt>
      <trkpt lat="47.14447" lon="-0.13997">
        <ele>36.08</ele>
        <time>2016-06-04T09:36:58Z</time>
      </trkpt>
      <trkpt lat="47.14519" lon="-0.13894">
        <ele>33.125</ele>
        <time>2016-06-04T09:36:38Z</time>
      </trkpt>
      <trkpt lat="47.14595" lon="-0.13806">
        <ele>32.159</ele>
        <time>2016-06-04T09:36:18Z</time>
      </trkpt>
      <trkpt lat="47.14684" lon="-0.13694">
        <ele>31.108</ele>
        <time>2016-06-04T09:35:58Z</time>
      </trkpt>
      <trkpt lat="47.14783" lon="-0.13538">
        <ele>30.21</ele>
        <time>2016-06-04T09:35:38Z</time>
      </trkpt>
      <trkpt lat="47.14825" lon="-0.1349">
        <ele>32.055</ele>
        <time>2016-06-04T09:35:18Z</time>
      </trkpt>
      <trkpt lat="47.1502" lon="-0.13265">
        <ele>30.534</ele>
        <time>2016-06-04T09:34:38Z</time>
      </trkpt>
      <trkpt lat="47.15031" lon="-0.13231">
        <ele>29.312</ele>
        <time>2016-06-04T09:34:18Z</time>
      </trkpt>
      <trkpt lat="47.1509" lon="-0.13231">
        <ele>31.573</ele>
        <time>2016-06-04T09:33:58Z</time>
      </trkpt>
      <trkpt lat="47.15338" lon="-0.12608">
        <ele>28.097</ele>
        <time>2016-06-04T09:33:38Z</time>
      </trkpt>
      <trkpt lat="47.15231" lon="-0.12347">
        <ele>34.585</ele>
        <time>2016-06-04T09:33:18Z</time>
      </trkpt>
      <trkpt lat="47.15309" lon="-0.12119">
        <ele>39.699</ele>
        <time>2016-06-04T09:32:58Z</time>
      </trkpt>
      <trkpt lat="47.15362" lon="-0.12006">
        <ele>41.216</ele>
        <time>2016-06-04T09:32:38Z</time>
      </trkpt>
      <trkpt lat="47.15564" lon="-0.11533">
        <ele>35.461</ele>
        <time>2016-06-04T09:32:18Z</time>
      </trkpt>
      <trkpt lat="47.15647" lon="-0.11439">
        <ele>36.415</ele>
        <time>2016-06-04T09:31:58Z</time>
      </trkpt>
      <trkpt lat="47.1598" lon="-0.11272">
        <ele>33.308</ele>
        <time>2016-06-04T09:31:38Z</time>
      </trkpt>
      <trkpt lat="47.16063" lon="-0.1122">
        <ele>34.819</ele>
        <time>2016-06-04T09:31:18Z</time>
      </trkpt>
      <trkpt lat="47.16104" lon="-0.11184">
        <ele>34.681</ele>
        <time>2016-06-04T09:30:58Z</time>
      </trkpt>
      <trkpt lat="47.16145" lon="-0.11139">
        <ele>35.091</ele>
        <time>2016-06-04T09:30:38Z</time>
      </trkpt>
      <trkpt lat="47.15996" lon="-0.11036">
        <ele>36.198</ele>
        <time>2016-06-04T09:30:18Z</time>
      </trkpt>
      <trkpt lat="47.16178" lon="-0.10778">
        <ele>35.029</ele>
        <time>2016-06-04T09:29:58Z</time>
      </trkpt>
      <trkpt lat="47.16404" lon="-0.10585">
        <ele>32.463</ele>
        <time>2016-06-04T09:29:38Z</time>
      </trkpt>
      <trkpt lat="47.16512" lon="-0.10473">
        <ele>31.031</ele>
        <time>2016-06-04T09:29:18Z</time>
      </trkpt>
      <trkpt lat="47.16601" lon="-0.1039">
        <ele>31.335</ele>
        <time>2016-06-04T09:28:58Z</time>
      </trkpt>
      <trkpt lat="47.16441" lon="-0.09722">
        <ele>34.052</ele>
        <time>2016-06-04T09:28:38Z</time>
      </trkpt>
      <trkpt lat="47.16587" lon="-0.09486">
        <ele>32.977</ele>
        <time>2016-06-04T09:28:18Z</time>
      </trkpt>
      <trkpt lat="47.16527" lon="-0.09486">
        <ele>33.081</ele>
        <time>2016-06-04T09:27:58Z</time>
      </trkpt>
      <trkpt lat="47.16533" lon="-0.08886">
        <ele>33.408</ele>
        <time>2016-06-04T09:27:38Z</time>
      </trkpt>
      <trkpt lat="47.16537" lon="-0.08841">
        <ele>33.817</ele>
        <time>2016-06-04T09:27:18Z</time>
      </trkpt>
      <trkpt lat="47.16591" lon="-0.08873">
        <ele>33.307</ele>
        <time>2016-06-04T09:26:58Z</time>
      </trkpt>
      <trkpt lat="47.16689" lon="-0.08334">
        <ele>30.655</ele>
        <time>2016-06-04T09:26:38Z</time>
      </trkpt>
      <trkpt lat="47.16719" lon="-0.08214">
        <ele>29.269</ele>
        <time>2016-06-04T09:26:18Z</time>
      </trkpt>
      <trkpt lat="47.16633" lon="-0.08128">
        <ele>32.52</ele>
        <time>2016-06-04T09:25:58Z</time>
      </trkpt>
      <trkpt lat="47.16479" lon="-0.07986">
        <ele>29.464</ele>
        <time>2016-06-04T09:25:38Z</time>
      </trkpt>
      <trkpt lat="47.16356" lon="-0.07849">
        <ele>35.472</ele>
        <time>2016-06-04T09:25:18Z</time>
      </trkpt>
      <trkpt lat="47.1627" lon="-0.07783">
        <ele>36.726</ele>
        <time>2016-06-04T09:24:58Z</time>
      </trkpt>
      <trkpt lat="47.16187" lon="-0.0769">
        <ele>33.923</ele>
        <time>2016-06-04T09:24:38Z</time>
      </trkpt>
      <trkpt lat="47.16159" lon="-0.07637">
        <ele>30.748</ele>
        <time>2016-06-04T09:24:18Z</time>
      </trkpt>
      <trkpt lat="47.16089" lon="-0.07596">
        <ele>37.572</ele>
        <time>2016-06-04T09:23:58Z</time>
      </trkpt>
      <trkpt lat="47.16053" lon="-0.07557">
        <ele>36.308</ele>
        <time>2016-06-04T09:23:38Z</time>
      </trkpt>
      <trkpt lat="47.15971" lon="-0.07424">
        <ele>33.911</ele>
        <time>2016-06-04T09:23:18Z</time>
      </trkpt>
      <trkpt lat="47.15883" lon="-0.07308">
        <ele>33.783</ele>
        <time>2016-06-04T09:22:58Z</time>
      </trkpt>
      <trkpt lat="47.15997" lon="-0.07152">
        <ele>27.962</ele>
        <time>2016-06-04T09:22:38Z</time>
      </trkpt>
      <trkpt lat="47.16018" lon="-0.07141">
        <ele>26.499</ele>
        <time>2016-06-04T09:22:18Z</time>
      </trkpt>
      <trkpt lat="47.16058" lon="-0.07193">
        <ele>27.97</ele>
        <time>2016-06-04T09:21:58Z</time>
      </trkpt>
      <trkpt lat="47.16076" lon="-0.07184">
        <ele>27.534</ele>
        <time>2016-06-04T09:21:38Z</time>
      </trkpt>
      <trkpt lat="47.16388" lon="-0.06514">
        <ele>29.092</ele>
        <time>2016-06-04T09:21:18Z</time>
      </trkpt>
      <trkpt lat="47.16391" lon="-0.06474">
        <ele>28.176</ele>
        <time>2016-06-04T09:20:58Z</time>
      </trkpt>
      <trkpt lat="47.16331" lon="-0.06414">
        <ele>31.213</ele>
        <time>2016-06-04T09:20:38Z</time>
      </trkpt>
      <trkpt lat="47.16323" lon="-0.06384">
        <ele>32.078</ele>
        <time>2016-06-04T09:20:18Z</time>
      </trkpt>
      <trkpt lat="47.16372" lon="-0.06137">
        <ele>35.052</ele>
        <time>2016-06-04T09:19:58Z</time>
      </trkpt>
      <trkpt lat="47.16404" lon="-0.06075">
        <ele>36.708</ele>
        <time>2016-06-04T09:19:38Z</time>
      </trkpt>
      <trkpt lat="47.16499" lon="-0.06206">
        <ele>35.621</ele>
        <time>2016-06-04T09:19:18Z</time>
      </trkpt>
      <trkpt lat="47.16522" lon="-0.06278">
        <ele>33.829</ele>
        <time>2016-06-04T09:18:58Z</time>
      </trkpt>
      <trkpt lat="47.16587" lon="-0.06417">
        <ele>33.166</ele>
        <time>2016-06-04T09:18:38Z</time>
      </trkpt>
      <trkpt lat="47.16658" lon="-0.06478">
        <ele>34.512</ele>
        <time>2016-06-04T09:18:18Z</time>
      </trkpt>
      <trkpt lat="47.16733" lon="-0.06575">
        <ele>33.073</ele>
        <time>2016-06-04T09:17:58Z</time>
      </trkpt>
      <trkpt lat="47.16839" lon="-0.06763">
        <ele>36.547</ele>
        <time>2016-06-04T09:17:38Z</time>
      </trkpt>
      <trkpt lat="47.1702" lon="-0.07002">
        <ele>39.015</ele>
        <time>2016-06-04T09:17:18Z</time>
      </trkpt>
      <trkpt lat="47.17005" lon="-0.07027">
        <ele>38.279</ele>
        <time>2016-06-04T09:16:58Z</time>
      </trkpt>
      <trkpt lat="47.17516" lon="-0.07697">
        <ele>31.596</ele>
        <time>2016-06-04T09:16:38Z</time>
      </trkpt>
      <trkpt lat="47.17625" lon="-0.07476">
        <ele>40.431</ele>
        <time>2016-06-04T09:16:18Z</time>
      </trkpt>
      <trkpt lat="47.1778" lon="-0.07079">
        <ele>40.835</ele>
        <time>2016-06-04T09:15:58Z</time>
      </trkpt>
      <trkpt lat="47.18107" lon="-0.07201">
        <ele>37.808</ele>
        <time>2016-06-04T09:15:38Z</time>
      </trkpt>
      <trkpt lat="47.18166" lon="-0.07195">
        <ele>38.024</ele>
        <time>2016-06-04T09:15:18Z</time>
      </trkpt>
      <trkpt lat="47.1788" lon="-0.08182">
        <ele>30.031</ele>
        <time>2016-06-04T09:14:58Z</time>
      </trkpt>
      <trkpt lat="47.17967" lon="-0.08227">
        <ele>30.396</ele>
        <time>2016-06-04T09:14:38Z</time>
      </trkpt>
      <trkpt lat="47.18022" lon="-0.08274">
        <ele>32.837</ele>
        <time>2016-06-04T09:14:18Z</time>
      </trkpt>
      <trkpt lat="47.18131" lon="-0.08289">
        <ele>29.358</ele>
        <time>2016-06-04T09:13:58Z</time>
      </trkpt>
      <trkpt lat="47.18314" lon="-0.08283">
        <ele>30.152</ele>
        <time>2016-06-04T09:13:38Z</time>
      </trkpt>
      <trkpt lat="47.18314" lon="-0.08283">
        <ele>30.11</ele>
        <time>2016-06-04T09:13:18Z</time>
      </trkpt>
      <trkpt lat="47.1842" lon="-0.08253">
        <ele>31.944</ele>
        <time>2016-06-04T09:12:58Z</time>
      </trkpt>
      <trkpt lat="47.18522" lon="-0.08231">
        <ele>30.351</ele>
        <time>2016-06-04T09:12:38Z</time>
      </trkpt>
      <trkpt lat="47.18686" lon="-0.0825">
        <ele>30.066</ele>
        <time>2016-06-04T09:12:18Z</time>
      </trkpt>
      <trkpt lat="47.18772" lon="-0.08242">
        <ele>31.47</ele>
        <time>2016-06-04T09:11:38Z</time>
      </trkpt>
      <trkpt lat="47.18882" lon="-0.08259">
        <ele>27.508</ele>
        <time>2016-06-04T09:10:58Z</time>
      </trkpt>
      <trkpt lat="47.18916" lon="-0.08242">
        <ele>28.022</ele>
        <time>2016-06-04T09:10:38Z</time>
      </trkpt>
      <trkpt lat="47.1897" lon="-0.08225">
        <ele>28.802</ele>
        <time>2016-06-04T09:10:18Z</time>
      </trkpt>
      <trkpt lat="47.19057" lon="-0.0819">
        <ele>31.149</ele>
        <time>2016-06-04T09:09:58Z</time>
      </trkpt>
      <trkpt lat="47.19159" lon="-0.08096">
        <ele>31.111</ele>
        <time>2016-06-04T09:09:38Z</time>
      </trkpt>
      <trkpt lat="47.19245" lon="-0.08036">
        <ele>28.532</ele>
        <time>2016-06-04T09:09:18Z</time>
      </trkpt>
      <trkpt lat="47.1931" lon="-0.0801">
        <ele>27.616</ele>
        <time>2016-06-04T09:08:58Z</time>
      </trkpt>
      <trkpt lat="47.19308" lon="-0.07806">
        <ele>27.994</ele>
        <time>2016-06-04T09:08:38Z</time>
      </trkpt>
      <trkpt lat="47.19333" lon="-0.07778">
        <ele>29.068</ele>
        <time>2016-06-04T09:08:18Z</time>
      </trkpt>
      <trkpt lat="47.19366" lon="-0.07894">
        <ele>29.215</ele>
        <time>2016-06-04T09:07:58Z</time>
      </trkpt>
      <trkpt lat="47.19428" lon="-0.07905">
        <ele>31.06</ele>
        <time>2016-06-04T09:07:38Z</time>
      </trkpt>
      <trkpt lat="47.19432" lon="-0.07935">
        <ele>29.694</ele>
        <time>2016-06-04T09:07:18Z</time>
      </trkpt>
      <trkpt lat="47.1947" lon="-0.07982">
        <ele>29.608</ele>
        <time>2016-06-04T09:06:58Z</time>
      </trkpt>
      <trkpt lat="47.19498" lon="-0.07995">
        <ele>30.117</ele>
        <time>2016-06-04T09:06:38Z</time>
      </trkpt>
      <trkpt lat="47.196" lon="-0.08004">
        <ele>31.589</ele>
        <time>2016-06-04T09:06:18Z</time>
      </trkpt>
      <trkpt lat="47.19722" lon="-0.07993">
        <ele>38.385</ele>
        <time>2016-06-04T09:05:58Z</time>
      </trkpt>
      <trkpt lat="47.19786" lon="-0.08019">
        <ele>40.144</ele>
        <time>2016-06-04T09:05:38Z</time>
      </trkpt>
      <trkpt lat="47.19811" lon="-0.08014">
        <ele>42.455</ele>
        <time>2016-06-04T09:05:18Z</time>
      </trkpt>
      <trkpt lat="47.1981" lon="-0.07974">
        <ele>44.229</ele>
        <time>2016-06-04T09:04:58Z</time>
      </trkpt>
      <trkpt lat="47.19823" lon="-0.07941">
        <ele>46.427</ele>
        <time>2016-06-04T09:04:38Z</time>
      </trkpt>
      <trkpt lat="47.19862" lon="-0.07967">
        <ele>49.471</ele>
        <time>2016-06-04T09:04:18Z</time>
      </trkpt>
      <trkpt lat="47.19875" lon="-0.0801">
        <ele>48.278</ele>
        <time>2016-06-04T09:03:58Z</time>
      </trkpt>
      <trkpt lat="47.19909" lon="-0.08036">
        <ele>48.773</ele>
        <time>2016-06-04T09:03:38Z</time>
      </trkpt>
      <trkpt lat="47.19921" lon="-0.08098">
        <ele>39.577</ele>
        <time>2016-06-04T09:03:18Z</time>
      </trkpt>
      <trkpt lat="47.19945" lon="-0.08141">
        <ele>32.808</ele>
        <time>2016-06-04T09:02:58Z</time>
      </trkpt>
      <trkpt lat="47.19983" lon="-0.08156">
        <ele>33.719</ele>
        <time>2016-06-04T09:02:38Z</time>
      </trkpt>
      <trkpt lat="47.20046" lon="-0.08169">
        <ele>35.309</ele>
        <time>2016-06-04T09:02:18Z</time>
      </trkpt>
      <trkpt lat="47.20062" lon="-0.08205">
        <ele>30.919</ele>
        <time>2016-06-04T09:01:58Z</time>
      </trkpt>
      <trkpt lat="47.20086" lon="-0.08229">
        <ele>29.875</ele>
        <time>2016-06-04T09:01:38Z</time>
      </trkpt>
      <trkpt lat="47.20308" lon="-0.08278">
        <ele>30.076</ele>
        <time>2016-06-04T09:01:18Z</time>
      </trkpt>
      <trkpt lat="47.20526" lon="-0.0828">
        <ele>25.98</ele>
        <time>2016-06-04T09:00:58Z</time>
      </trkpt>
      <trkpt lat="47.20661" lon="-0.08214">
        <ele>27.588</ele>
        <time>2016-06-04T09:00:38Z</time>
      </trkpt>
      <trkpt lat="47.20828" lon="-0.08165">
        <ele>29.872</ele>
        <time>2016-06-04T09:00:18Z</time>
      </trkpt>
      <trkpt lat="47.20925" lon="-0.08122">
        <ele>29.079</ele>
        <time>2016-06-04T08:59:58Z</time>
      </trkpt>
      <trkpt lat="47.20961" lon="-0.08064">
        <ele>29.094</ele>
        <time>2016-06-04T08:59:38Z</time>
      </trkpt>
      <trkpt lat="47.21007" lon="-0.08032">
        <ele>29.338</ele>
        <time>2016-06-04T08:59:18Z</time>
      </trkpt>
      <trkpt lat="47.21014" lon="-0.07984">
        <ele>29.808</ele>
        <time>2016-06-04T08:58:58Z</time>
      </trkpt>
      <trkpt lat="47.21135" lon="-0.0795">
        <ele>30.814</ele>
        <time>2016-06-04T08:58:38Z</time>
      </trkpt>
      <trkpt lat="47.21253" lon="-0.07978">
        <ele>33.804</ele>
        <time>2016-06-04T08:58:18Z</time>
      </trkpt>
      <trkpt lat="47.2134" lon="-0.07944">
        <ele>33.724</ele>
        <time>2016-06-04T08:57:58Z</time>
      </trkpt>
      <trkpt lat="47.21495" lon="-0.07989">
        <ele>30.768</ele>
        <time>2016-06-04T08:57:38Z</time>
      </trkpt>
      <trkpt lat="47.21556" lon="-0.07961">
        <ele>28.869</ele>
        <time>2016-06-04T08:57:18Z</time>
      </trkpt>
      <trkpt lat="47.21673" lon="-0.07959">
        <ele>28.343</ele>
        <time>2016-06-04T08:56:58Z</time>
      </trkpt>
      <trkpt lat="47.21731" lon="-0.07974">
        <ele>27.351</ele>
        <time>2016-06-04T08:56:38Z</time>
      </trkpt>
      <trkpt lat="47.21805" lon="-0.08057">
        <ele>27.985</ele>
        <time>2016-06-04T08:56:18Z</time>
      </trkpt>
      <trkpt lat="47.21966" lon="-0.08128">
        <ele>26.432</ele>
        <time>2016-06-04T08:55:58Z</time>
      </trkpt>
      <trkpt lat="47.22044" lon="-0.08128">
        <ele>28.437</ele>
        <time>2016-06-04T08:55:38Z</time>
      </trkpt>
      <trkpt lat="47.22143" lon="-0.08145">
        <ele>28.961</ele>
        <time>2016-06-04T08:54:58Z</time>
      </trkpt>
      <trkpt lat="47.22248" lon="-0.08147">
        <ele>29.708</ele>
        <time>2016-06-04T08:54:38Z</time>
      </trkpt>
      <trkpt lat="47.22278" lon="-0.08156">
        <ele>29.008</ele>
        <time>2016-06-04T08:54:18Z</time>
      </trkpt>
      <trkpt lat="47.22484" lon="-0.08152">
        <ele>28.453</ele>
        <time>2016-06-04T08:53:58Z</time>
      </trkpt>
      <trkpt lat="47.22776" lon="-0.08032">
        <ele>30.052</ele>
        <time>2016-06-04T08:53:38Z</time>
      </trkpt>
      <trkpt lat="47.22776" lon="-0.08032">
        <ele>30.052</ele>
        <time>2016-06-04T08:53:38Z</time>
      </trkpt>
      <trkpt lat="47.2291" lon="-0.07954">
        <ele>27.869</ele>
        <time>2016-06-04T08:53:18Z</time>
      </trkpt>
      <trkpt lat="47.23041" lon="-0.07929">
        <ele>30.79</ele>
        <time>2016-06-04T08:52:58Z</time>
      </trkpt>
      <trkpt lat="47.23158" lon="-0.07892">
        <ele>29.964</ele>
        <time>2016-06-04T08:52:38Z</time>
      </trkpt>
      <trkpt lat="47.2323" lon="-0.07856">
        <ele>26.462</ele>
        <time>2016-06-04T08:52:18Z</time>
      </trkpt>
      <trkpt lat="47.23305" lon="-0.07849">
        <ele>26.076</ele>
        <time>2016-06-04T08:51:58Z</time>
      </trkpt>
      <trkpt lat="47.23532" lon="-0.07793">
        <ele>28.613</ele>
        <time>2016-06-04T08:51:38Z</time>
      </trkpt>
      <trkpt lat="47.23707" lon="-0.07776">
        <ele>30.118</ele>
        <time>2016-06-04T08:51:18Z</time>
      </trkpt>
      <trkpt lat="47.23711" lon="-0.07929">
        <ele>26.642</ele>
        <time>2016-06-04T08:50:58Z</time>
      </trkpt>
      <trkpt lat="47.23742" lon="-0.07974">
        <ele>28.708</ele>
        <time>2016-06-04T08:50:38Z</time>
      </trkpt>
      <trkpt lat="47.23784" lon="-0.08072">
        <ele>25.326</ele>
        <time>2016-06-04T08:50:18Z</time>
      </trkpt>
      <trkpt lat="47.23772" lon="-0.08115">
        <ele>24.242</ele>
        <time>2016-06-04T08:49:58Z</time>
      </trkpt>
      <trkpt lat="47.2378" lon="-0.08162">
        <ele>24.068</ele>
        <time>2016-06-04T08:49:38Z</time>
      </trkpt>
      <trkpt lat="47.23794" lon="-0.082">
        <ele>25.115</ele>
        <time>2016-06-04T08:49:18Z</time>
      </trkpt>
      <trkpt lat="47.23809" lon="-0.08476">
        <ele>26.096</ele>
        <time>2016-06-04T08:48:58Z</time>
      </trkpt>
      <trkpt lat="47.23819" lon="-0.08527">
        <ele>25.51</ele>
        <time>2016-06-04T08:48:38Z</time>
      </trkpt>
      <trkpt lat="47.23902" lon="-0.08589">
        <ele>25.818</ele>
        <time>2016-06-04T08:48:18Z</time>
      </trkpt>
      <trkpt lat="47.24006" lon="-0.08632">
        <ele>25.452</ele>
        <time>2016-06-04T08:47:58Z</time>
      </trkpt>
      <trkpt lat="47.24032" lon="-0.08658">
        <ele>26.229</ele>
        <time>2016-06-04T08:47:38Z</time>
      </trkpt>
      <trkpt lat="47.24086" lon="-0.08665">
        <ele>26.094</ele>
        <time>2016-06-04T08:47:18Z</time>
      </trkpt>
      <trkpt lat="47.24111" lon="-0.08651">
        <ele>25.638</ele>
        <time>2016-06-04T08:46:58Z</time>
      </trkpt>
      <trkpt lat="47.24123" lon="-0.08584">
        <ele>27.408</ele>
        <time>2016-06-04T08:46:38Z</time>
      </trkpt>
      <trkpt lat="47.24176" lon="-0.086">
        <ele>27.717</ele>
        <time>2016-06-04T08:46:18Z</time>
      </trkpt>
      <trkpt lat="47.24277" lon="-0.08594">
        <ele>27.089</ele>
        <time>2016-06-04T08:45:58Z</time>
      </trkpt>
      <trkpt lat="47.24387" lon="-0.08532">
        <ele>25.128</ele>
        <time>2016-06-04T08:45:38Z</time>
      </trkpt>
      <trkpt lat="47.24457" lon="-0.08463">
        <ele>25.298</ele>
        <time>2016-06-04T08:45:18Z</time>
      </trkpt>
      <trkpt lat="47.24459" lon="-0.08478">
        <ele>25.029</ele>
        <time>2016-06-04T08:44:58Z</time>
      </trkpt>
      <trkpt lat="47.24479" lon="-0.08506">
        <ele>25.293</ele>
        <time>2016-06-04T08:44:38Z</time>
      </trkpt>
      <trkpt lat="47.24543" lon="-0.08501">
        <ele>24.171</ele>
        <time>2016-06-04T08:44:18Z</time>
      </trkpt>
      <trkpt lat="47.24623" lon="-0.08456">
        <ele>27.435</ele>
        <time>2016-06-04T08:43:18Z</time>
      </trkpt>
      <trkpt lat="47.24674" lon="-0.08456">
        <ele>26.262</ele>
        <time>2016-06-04T08:42:58Z</time>
      </trkpt>
      <trkpt lat="47.24718" lon="-0.08437">
        <ele>26.487</ele>
        <time>2016-06-04T08:42:38Z</time>
      </trkpt>
      <trkpt lat="47.24814" lon="-0.08433">
        <ele>30.481</ele>
        <time>2016-06-04T08:42:18Z</time>
      </trkpt>
      <trkpt lat="47.24947" lon="-0.08332">
        <ele>27.008</ele>
        <time>2016-06-04T08:41:58Z</time>
      </trkpt>
      <trkpt lat="47.25056" lon="-0.08298">
        <ele>28.014</ele>
        <time>2016-06-04T08:41:38Z</time>
      </trkpt>
      <trkpt lat="47.25132" lon="-0.08319">
        <ele>26.959</ele>
        <time>2016-06-04T08:40:58Z</time>
      </trkpt>
      <trkpt lat="47.25223" lon="-0.08381">
        <ele>29.356</ele>
        <time>2016-06-04T08:40:38Z</time>
      </trkpt>
      <trkpt lat="47.2528" lon="-0.08454">
        <ele>29.388</ele>
        <time>2016-06-04T08:40:18Z</time>
      </trkpt>
      <trkpt lat="47.25309" lon="-0.08493">
        <ele>29.329</ele>
        <time>2016-06-04T08:39:58Z</time>
      </trkpt>
      <trkpt lat="47.25388" lon="-0.08643">
        <ele>30.073</ele>
        <time>2016-06-04T08:39:38Z</time>
      </trkpt>
      <trkpt lat="47.25384" lon="-0.08707">
        <ele>30.041</ele>
        <time>2016-06-04T08:39:18Z</time>
      </trkpt>
      <trkpt lat="47.25419" lon="-0.08774">
        <ele>28.385</ele>
        <time>2016-06-04T08:38:58Z</time>
      </trkpt>
      <trkpt lat="47.25437" lon="-0.08776">
        <ele>29.622</ele>
        <time>2016-06-04T08:38:38Z</time>
      </trkpt>
      <trkpt lat="47.25449" lon="-0.08795">
        <ele>28.887</ele>
        <time>2016-06-04T08:38:18Z</time>
      </trkpt>
      <trkpt lat="47.25496" lon="-0.08815">
        <ele>28.331</ele>
        <time>2016-06-04T08:37:58Z</time>
      </trkpt>
      <trkpt lat="47.25526" lon="-0.08804">
        <ele>29.108</ele>
        <time>2016-06-04T08:37:38Z</time>
      </trkpt>
      <trkpt lat="47.25576" lon="-0.08798">
        <ele>32.717</ele>
        <time>2016-06-04T08:37:18Z</time>
      </trkpt>
      <trkpt lat="47.25641" lon="-0.08516">
        <ele>26.752</ele>
        <time>2016-06-04T08:36:58Z</time>
      </trkpt>
      <trkpt lat="47.25472" lon="-0.08197">
        <ele>28.158</ele>
        <time>2016-06-04T08:36:38Z</time>
      </trkpt>
      <trkpt lat="47.25443" lon="-0.0818">
        <ele>29.097</ele>
        <time>2016-06-04T08:36:18Z</time>
      </trkpt>
      <trkpt lat="47.25579" lon="-0.07932">
        <ele>29.298</ele>
        <time>2016-06-04T08:35:58Z</time>
      </trkpt>
      <trkpt lat="47.2557" lon="-0.079">
        <ele>30.172</ele>
        <time>2016-06-04T08:35:38Z</time>
      </trkpt>
      <trkpt lat="47.25611" lon="-0.07874">
        <ele>31.17</ele>
        <time>2016-06-04T08:35:18Z</time>
      </trkpt>
      <trkpt lat="47.2563" lon="-0.0784">
        <ele>33.484</ele>
        <time>2016-06-04T08:34:58Z</time>
      </trkpt>
      <trkpt lat="47.25703" lon="-0.07811">
        <ele>33.771</ele>
        <time>2016-06-04T08:34:38Z</time>
      </trkpt>
      <trkpt lat="47.25673" lon="-0.07684">
        <ele>37.426</ele>
        <time>2016-06-04T08:34:18Z</time>
      </trkpt>
      <trkpt lat="47.25673" lon="-0.07635">
        <ele>41.57</ele>
        <time>2016-06-04T08:33:58Z</time>
      </trkpt>
      <trkpt lat="47.25718" lon="-0.07638">
        <ele>43.708</ele>
        <time>2016-06-04T08:33:38Z</time>
      </trkpt>
      <trkpt lat="47.25744" lon="-0.07613">
        <ele>43.921</ele>
        <time>2016-06-04T08:33:18Z</time>
      </trkpt>
      <trkpt lat="47.25783" lon="-0.07608">
        <ele>41.229</ele>
        <time>2016-06-04T08:32:58Z</time>
      </trkpt>
      <trkpt lat="47.2582" lon="-0.07563">
        <ele>43.247</ele>
        <time>2016-06-04T08:32:38Z</time>
      </trkpt>
      <trkpt lat="47.25832" lon="-0.07539">
        <ele>42.587</ele>
        <time>2016-06-04T08:32:18Z</time>
      </trkpt>
      <trkpt lat="47.25829" lon="-0.07518">
        <ele>42.398</ele>
        <time>2016-06-04T08:31:58Z</time>
      </trkpt>
      <trkpt lat="47.2584" lon="-0.07503">
        <ele>40.432</ele>
        <time>2016-06-04T08:29:58Z</time>
      </trkpt>
      <trkpt lat="47.25856" lon="-0.07508">
        <ele>38.83</ele>
        <time>2016-06-04T08:29:38Z</time>
      </trkpt>
      <trkpt lat="47.25877" lon="-0.07493">
        <ele>37.164</ele>
        <time>2016-06-04T08:26:58Z</time>
      </trkpt>
      <trkpt lat="47.25906" lon="-0.07495">
        <ele>36.791</ele>
        <time>2016-06-04T08:26:38Z</time>
      </trkpt>
      <trkpt lat="47.25982" lon="-0.07448">
        <ele>35.846</ele>
        <time>2016-06-04T08:26:18Z</time>
      </trkpt>
      <trkpt lat="47.25995" lon="-0.0742">
        <ele>32.21</ele>
        <time>2016-06-04T08:25:58Z</time>
      </trkpt>
      <trkpt lat="47.26128" lon="-0.07678">
        <ele>36.108</ele>
        <time>2016-06-04T08:25:38Z</time>
      </trkpt>
      <trkpt lat="47.26128" lon="-0.07678">
        <ele>36.11</ele>
        <time>2016-06-04T08:25:18Z</time>
      </trkpt>
      <trkpt lat="47.26722" lon="-0.06991">
        <ele>28.264</ele>
        <time>2016-06-04T08:24:58Z</time>
      </trkpt>
      <trkpt lat="47.26722" lon="-0.06991">
        <ele>28.264</ele>
        <time>2016-06-04T08:24:58Z</time>
      </trkpt>
      <trkpt lat="47.26722" lon="-0.06991">
        <ele>28.264</ele>
        <time>2016-06-04T08:24:58Z</time>
      </trkpt>
      <trkpt lat="47.26722" lon="-0.06991">
        <ele>28.264</ele>
        <time>2016-06-04T08:24:58Z</time>
      </trkpt>
      <trkpt lat="47.26553" lon="-0.06658">
        <ele>26.943</ele>
        <time>2016-06-04T08:24:38Z</time>
      </trkpt>
      <trkpt lat="47.26358" lon="-0.05648">
        <ele>29.748</ele>
        <time>2016-06-04T08:24:18Z</time>
      </trkpt>
      <trkpt lat="47.26358" lon="-0.05648">
        <ele>29.789</ele>
        <time>2016-06-04T08:23:58Z</time>
      </trkpt>
      <trkpt lat="47.26358" lon="-0.05645">
        <ele>29.683</ele>
        <time>2016-06-04T08:23:38Z</time>
      </trkpt>
      <trkpt lat="47.26441" lon="-0.05592">
        <ele>27.051</ele>
        <time>2016-06-04T08:23:18Z</time>
      </trkpt>
      <trkpt lat="47.26519" lon="-0.05564">
        <ele>27.225</ele>
        <time>2016-06-04T08:22:58Z</time>
      </trkpt>
      <trkpt lat="47.26624" lon="-0.05504">
        <ele>27.152</ele>
        <time>2016-06-04T08:22:38Z</time>
      </trkpt>
      <trkpt lat="47.2662" lon="-0.05489">
        <ele>26.787</ele>
        <time>2016-06-04T08:22:18Z</time>
      </trkpt>
      <trkpt lat="47.26562" lon="-0.05328">
        <ele>26.881</ele>
        <time>2016-06-04T08:21:58Z</time>
      </trkpt>
      <trkpt lat="47.26496" lon="-0.05173">
        <ele>26.908</ele>
        <time>2016-06-04T08:21:38Z</time>
      </trkpt>
      <trkpt lat="47.26457" lon="-0.05137">
        <ele>29.017</ele>
        <time>2016-06-04T08:21:18Z</time>
      </trkpt>
      <trkpt lat="47.26435" lon="-0.051">
        <ele>28.552</ele>
        <time>2016-06-04T08:20:58Z</time>
      </trkpt>
      <trkpt lat="47.26448" lon="-0.05034">
        <ele>27.358</ele>
        <time>2016-06-04T08:20:38Z</time>
      </trkpt>
      <trkpt lat="47.26506" lon="-0.04989">
        <ele>26.876</ele>
        <time>2016-06-04T08:20:18Z</time>
      </trkpt>
      <trkpt lat="47.26589" lon="-0.04967">
        <ele>25.067</ele>
        <time>2016-06-04T08:19:58Z</time>
      </trkpt>
      <trkpt lat="47.26677" lon="-0.04897">
        <ele>25.041</ele>
        <time>2016-06-04T08:19:38Z</time>
      </trkpt>
      <trkpt lat="47.2669" lon="-0.0486">
        <ele>25.059</ele>
        <time>2016-06-04T08:19:18Z</time>
      </trkpt>
      <trkpt lat="47.26715" lon="-0.04824">
        <ele>26.043</ele>
        <time>2016-06-04T08:18:58Z</time>
      </trkpt>
      <trkpt lat="47.26761" lon="-0.04727">
        <ele>25.04</ele>
        <time>2016-06-04T08:18:38Z</time>
      </trkpt>
      <trkpt lat="47.2692" lon="-0.04512">
        <ele>25.015</ele>
        <time>2016-06-04T08:18:18Z</time>
      </trkpt>
      <trkpt lat="47.26964" lon="-0.04403">
        <ele>23.889</ele>
        <time>2016-06-04T08:17:58Z</time>
      </trkpt>
      <trkpt lat="47.26977" lon="-0.04345">
        <ele>23.008</ele>
        <time>2016-06-04T08:17:38Z</time>
      </trkpt>
      <trkpt lat="47.27048" lon="-0.04266">
        <ele>26.015</ele>
        <time>2016-06-04T08:17:18Z</time>
      </trkpt>
      <trkpt lat="47.27038" lon="-0.04212">
        <ele>26.423</ele>
        <time>2016-06-04T08:16:58Z</time>
      </trkpt>
      <trkpt lat="47.27083" lon="-0.04143">
        <ele>25.033</ele>
        <time>2016-06-04T08:16:38Z</time>
      </trkpt>
      <trkpt lat="47.27099" lon="-0.04049">
        <ele>22.372</ele>
        <time>2016-06-04T08:16:18Z</time>
      </trkpt>
      <trkpt lat="47.27162" lon="-0.04017">
        <ele>22.323</ele>
        <time>2016-06-04T08:15:58Z</time>
      </trkpt>
      <trkpt lat="47.27207" lon="-0.03957">
        <ele>23.427</ele>
        <time>2016-06-04T08:15:38Z</time>
      </trkpt>
      <trkpt lat="47.27224" lon="-0.03895">
        <ele>24.075</ele>
        <time>2016-06-04T08:15:18Z</time>
      </trkpt>
      <trkpt lat="47.27288" lon="-0.0377">
        <ele>28.169</ele>
        <time>2016-06-04T08:14:58Z</time>
      </trkpt>
      <trkpt lat="47.27348" lon="-0.03744">
        <ele>25.536</ele>
        <time>2016-06-04T08:14:38Z</time>
      </trkpt>
      <trkpt lat="47.27466" lon="-0.03725">
        <ele>27.761</ele>
        <time>2016-06-04T08:14:18Z</time>
      </trkpt>
      <trkpt lat="47.27536" lon="-0.03736">
        <ele>24.735</ele>
        <time>2016-06-04T08:13:58Z</time>
      </trkpt>
      <trkpt lat="47.27675" lon="-0.03699">
        <ele>23.508</ele>
        <time>2016-06-04T08:13:38Z</time>
      </trkpt>
      <trkpt lat="47.27836" lon="-0.03611">
        <ele>25.026</ele>
        <time>2016-06-04T08:13:18Z</time>
      </trkpt>
      <trkpt lat="47.27955" lon="-0.03562">
        <ele>21.115</ele>
        <time>2016-06-04T08:12:58Z</time>
      </trkpt>
      <trkpt lat="47.27956" lon="-0.03427">
        <ele>23.098</ele>
        <time>2016-06-04T08:12:38Z</time>
      </trkpt>
      <trkpt lat="47.27968" lon="-0.03354">
        <ele>22.968</ele>
        <time>2016-06-04T08:12:18Z</time>
      </trkpt>
      <trkpt lat="47.27948" lon="-0.03214">
        <ele>23.069</ele>
        <time>2016-06-04T08:11:58Z</time>
      </trkpt>
      <trkpt lat="47.28026" lon="-0.03152">
        <ele>22.943</ele>
        <time>2016-06-04T08:11:38Z</time>
      </trkpt>
      <trkpt lat="47.28034" lon="-0.03111">
        <ele>23.011</ele>
        <time>2016-06-04T08:11:18Z</time>
      </trkpt>
      <trkpt lat="47.28006" lon="-0.03">
        <ele>23.225</ele>
        <time>2016-06-04T08:10:58Z</time>
      </trkpt>
      <trkpt lat="47.27969" lon="-0.02925">
        <ele>26.732</ele>
        <time>2020-12-24T17:41:35Z</time>
      </trkpt>
      <trkpt lat="47.28026" lon="-0.02827">
        <ele>29.617</ele>
        <time>2020-12-24T17:41:15Z</time>
      </trkpt>
      <trkpt lat="47.28108" lon="-0.02762">
        <ele>24.081</ele>
        <time>2020-12-24T17:40:55Z</time>
      </trkpt>
      <trkpt lat="47.28245" lon="-0.02583">
        <ele>22.008</ele>
        <time>2020-12-24T17:40:35Z</time>
      </trkpt>
      <trkpt lat="47.28249" lon="-0.02535">
        <ele>22.623</ele>
        <time>2020-12-24T17:40:15Z</time>
      </trkpt>
      <trkpt lat="47.2839" lon="-0.02382">
        <ele>23.303</ele>
        <time>2020-12-24T17:39:55Z</time>
      </trkpt>
      <trkpt lat="47.28782" lon="-0.02199">
        <ele>24.959</ele>
        <time>2016-06-04T08:01:18Z</time>
      </trkpt>
      <trkpt lat="47.29041" lon="-0.02004">
        <ele>23.419</ele>
        <time>2016-06-04T08:00:58Z</time>
      </trkpt>
      <trkpt lat="47.29144" lon="-0.01948">
        <ele>22.94</ele>
        <time>2016-06-04T08:00:38Z</time>
      </trkpt>
      <trkpt lat="47.29347" lon="-0.0179">
        <ele>23.414</ele>
        <time>2016-06-04T08:00:18Z</time>
      </trkpt>
      <trkpt lat="47.29463" lon="-0.01663">
        <ele>21.392</ele>
        <time>2016-06-04T07:59:58Z</time>
      </trkpt>
      <trkpt lat="47.29563" lon="-0.01581">
        <ele>24.056</ele>
        <time>2016-06-04T07:59:38Z</time>
      </trkpt>
      <trkpt lat="47.2954" lon="-0.01472">
        <ele>22.933</ele>
        <time>2016-06-04T07:59:18Z</time>
      </trkpt>
      <trkpt lat="47.2952" lon="-0.01262">
        <ele>20.718</ele>
        <time>2016-06-04T07:58:58Z</time>
      </trkpt>
      <trkpt lat="47.29537" lon="-0.01154">
        <ele>21.852</ele>
        <time>2016-06-04T07:58:38Z</time>
      </trkpt>
      <trkpt lat="47.29533" lon="-0.0103">
        <ele>25.008</ele>
        <time>2016-06-04T07:58:18Z</time>
      </trkpt>
      <trkpt lat="47.29542" lon="-0.00925">
        <ele>22.016</ele>
        <time>2016-06-04T07:57:58Z</time>
      </trkpt>
      <trkpt lat="47.29582" lon="-0.00833">
        <ele>22.006</ele>
        <time>2016-06-04T07:57:38Z</time>
      </trkpt>
      <trkpt lat="47.29563" lon="-0.00635">
        <ele>23.964</ele>
        <time>2016-06-04T07:57:18Z</time>
      </trkpt>
      <trkpt lat="47.29751" lon="-0.00562">
        <ele>24.029</ele>
        <time>2016-06-04T07:56:58Z</time>
      </trkpt>
      <trkpt lat="47.29835" lon="-0.00584">
        <ele>26.09</ele>
        <time>2016-06-04T07:56:38Z</time>
      </trkpt>
      <trkpt lat="47.29898" lon="-0.0059">
        <ele>25.484</ele>
        <time>2016-06-04T07:56:18Z</time>
      </trkpt>
      <trkpt lat="47.29972" lon="-0.0056">
        <ele>24.292</ele>
        <time>2016-06-04T07:55:58Z</time>
      </trkpt>
      <trkpt lat="47.30097" lon="-0.00487">
        <ele>25.786</ele>
        <time>2016-06-04T07:55:38Z</time>
      </trkpt>
      <trkpt lat="47.30193" lon="-0.00461">
        <ele>28.553</ele>
        <time>2016-06-04T07:55:18Z</time>
      </trkpt>
      <trkpt lat="47.30241" lon="-0.00524">
        <ele>28.918</ele>
        <time>2016-06-04T07:54:58Z</time>
      </trkpt>
      <trkpt lat="47.30333" lon="-0.00442">
        <ele>28.962</ele>
        <time>2016-06-04T07:54:38Z</time>
      </trkpt>
      <trkpt lat="47.3032" lon="-0.00408">
        <ele>27.808</ele>
        <time>2016-06-04T07:54:18Z</time>
      </trkpt>
      <trkpt lat="47.30276" lon="-0.00382">
        <ele>27.024</ele>
        <time>2016-06-04T07:53:58Z</time>
      </trkpt>
      <trkpt lat="47.30255" lon="-0.00298">
        <ele>27.504</ele>
        <time>2016-06-04T07:53:38Z</time>
      </trkpt>
      <trkpt lat="47.30282" lon="-0.00255">
        <ele>26.069</ele>
        <time>2016-06-04T07:53:18Z</time>
      </trkpt>
      <trkpt lat="47.30256" lon="-0.00129">
        <ele>28.289</ele>
        <time>2016-06-04T07:52:58Z</time>
      </trkpt>
      <trkpt lat="47.30246" lon="-0.00034">
        <ele>28.84</ele>
        <time>2016-06-04T07:52:38Z</time>
      </trkpt>
      <trkpt lat="47.30182" lon="0.00223">
        <ele>27.154</ele>
        <time>2016-06-04T07:52:18Z</time>
      </trkpt>
      <trkpt lat="47.3016" lon="0.00421">
        <ele>27.752</ele>
        <time>2016-06-04T07:51:58Z</time>
      </trkpt>
      <trkpt lat="47.30259" lon="0.00416">
        <ele>28.346</ele>
        <time>2016-06-04T07:51:38Z</time>
      </trkpt>
      <trkpt lat="47.30352" lon="0.00479">
        <ele>29.053</ele>
        <time>2016-06-04T07:51:18Z</time>
      </trkpt>
      <trkpt lat="47.30319" lon="0.00526">
        <ele>29.048</ele>
        <time>2016-06-04T07:50:58Z</time>
      </trkpt>
      <trkpt lat="47.30236" lon="0.00577">
        <ele>27.982</ele>
        <time>2016-06-04T07:50:38Z</time>
      </trkpt>
      <trkpt lat="47.3015" lon="0.00614">
        <ele>28.108</ele>
        <time>2016-06-04T07:50:18Z</time>
      </trkpt>
      <trkpt lat="47.30148" lon="0.00642">
        <ele>29.113</ele>
        <time>2016-06-04T07:49:58Z</time>
      </trkpt>
      <trkpt lat="47.30141" lon="0.00809">
        <ele>29.821</ele>
        <time>2016-06-04T07:49:38Z</time>
      </trkpt>
      <trkpt lat="47.30112" lon="0.00914">
        <ele>28.961</ele>
        <time>2016-06-04T07:49:18Z</time>
      </trkpt>
      <trkpt lat="47.3018" lon="0.00991">
        <ele>30.295</ele>
        <time>2016-06-04T07:48:58Z</time>
      </trkpt>
      <trkpt lat="47.30135" lon="0.01114">
        <ele>35.056</ele>
        <time>2016-06-04T07:48:38Z</time>
      </trkpt>
      <trkpt lat="47.30122" lon="0.012">
        <ele>35.42</ele>
        <time>2016-06-04T07:48:18Z</time>
      </trkpt>
      <trkpt lat="47.30131" lon="0.01253">
        <ele>36.778</ele>
        <time>2016-06-04T07:47:58Z</time>
      </trkpt>
      <trkpt lat="47.3016" lon="0.01356">
        <ele>37.032</ele>
        <time>2016-06-04T07:47:38Z</time>
      </trkpt>
      <trkpt lat="47.30166" lon="0.01704">
        <ele>39.059</ele>
        <time>2016-06-04T07:47:18Z</time>
      </trkpt>
      <trkpt lat="47.30183" lon="0.01891">
        <ele>40.054</ele>
        <time>2016-06-04T07:46:58Z</time>
      </trkpt>
      <trkpt lat="47.30185" lon="0.02043">
        <ele>38.868</ele>
        <time>2016-06-04T07:46:38Z</time>
      </trkpt>
      <trkpt lat="47.3015" lon="0.02363">
        <ele>39.608</ele>
        <time>2016-06-04T07:46:18Z</time>
      </trkpt>
      <trkpt lat="47.30108" lon="0.02468">
        <ele>40.02</ele>
        <time>2016-06-04T07:45:58Z</time>
      </trkpt>
      <trkpt lat="47.30071" lon="0.0259">
        <ele>39.9</ele>
        <time>2016-06-04T07:45:38Z</time>
      </trkpt>
      <trkpt lat="47.30049" lon="0.02749">
        <ele>40.229</ele>
        <time>2016-06-04T07:45:18Z</time>
      </trkpt>
      <trkpt lat="47.30057" lon="0.02809">
        <ele>40.049</ele>
        <time>2016-06-04T07:44:58Z</time>
      </trkpt>
      <trkpt lat="47.30028" lon="0.02933">
        <ele>40.05</ele>
        <time>2016-06-04T07:44:38Z</time>
      </trkpt>
      <trkpt lat="47.30022" lon="0.03021">
        <ele>40.844</ele>
        <time>2016-06-04T07:44:18Z</time>
      </trkpt>
      <trkpt lat="47.30022" lon="0.033">
        <ele>41.632</ele>
        <time>2016-06-04T07:43:58Z</time>
      </trkpt>
      <trkpt lat="47.30007" lon="0.03356">
        <ele>42.836</ele>
        <time>2016-06-04T07:43:38Z</time>
      </trkpt>
      <trkpt lat="47.29945" lon="0.03412">
        <ele>40.063</ele>
        <time>2016-06-04T07:43:18Z</time>
      </trkpt>
      <trkpt lat="47.29866" lon="0.03607">
        <ele>41.038</ele>
        <time>2016-06-04T07:42:58Z</time>
      </trkpt>
      <trkpt lat="47.29961" lon="0.03682">
        <ele>39.892</ele>
        <time>2016-06-04T07:42:38Z</time>
      </trkpt>
      <trkpt lat="47.29981" lon="0.03678">
        <ele>40.108</ele>
        <time>2016-06-04T07:42:18Z</time>
      </trkpt>
      <trkpt lat="47.30009" lon="0.03603">
        <ele>40.018</ele>
        <time>2016-06-04T07:41:58Z</time>
      </trkpt>
      <trkpt lat="47.30028" lon="0.03603">
        <ele>40.044</ele>
        <time>2016-06-04T07:41:38Z</time>
      </trkpt>
      <trkpt lat="47.30045" lon="0.03616">
        <ele>40.763</ele>
        <time>2016-06-04T07:41:18Z</time>
      </trkpt>
      <trkpt lat="47.30122" lon="0.03661">
        <ele>43.456</ele>
        <time>2016-06-04T07:40:58Z</time>
      </trkpt>
      <trkpt lat="47.30273" lon="0.0379">
        <ele>41.567</ele>
        <time>2016-06-04T07:40:38Z</time>
      </trkpt>
      <trkpt lat="47.30305" lon="0.03848">
        <ele>42.021</ele>
        <time>2016-06-04T07:40:18Z</time>
      </trkpt>
      <trkpt lat="47.30349" lon="0.03873">
        <ele>42.639</ele>
        <time>2016-06-04T07:39:58Z</time>
      </trkpt>
      <trkpt lat="47.30423" lon="0.0386">
        <ele>44.263</ele>
        <time>2016-06-04T07:39:38Z</time>
      </trkpt>
      <trkpt lat="47.3058" lon="0.03901">
        <ele>46.32</ele>
        <time>2016-06-04T07:39:18Z</time>
      </trkpt>
      <trkpt lat="47.30621" lon="0.03933">
        <ele>50.035</ele>
        <time>2016-06-04T07:38:58Z</time>
      </trkpt>
      <trkpt lat="47.30928" lon="0.04117">
        <ele>67.329</ele>
        <time>2016-06-04T07:38:38Z</time>
      </trkpt>
      <trkpt lat="47.30977" lon="0.04108">
        <ele>70.208</ele>
        <time>2016-06-04T07:38:18Z</time>
      </trkpt>
      <trkpt lat="47.31013" lon="0.04067">
        <ele>73.821</ele>
        <time>2016-06-04T07:37:58Z</time>
      </trkpt>
      <trkpt lat="47.31047" lon="0.0407">
        <ele>76.701</ele>
        <time>2016-06-04T07:37:38Z</time>
      </trkpt>
      <trkpt lat="47.31102" lon="0.04145">
        <ele>77.839</ele>
        <time>2016-06-04T07:37:18Z</time>
      </trkpt>
      <trkpt lat="47.31179" lon="0.04329">
        <ele>84.196</ele>
        <time>2016-06-04T07:36:58Z</time>
      </trkpt>
      <trkpt lat="47.31211" lon="0.0446">
        <ele>87.957</ele>
        <time>2016-06-04T07:36:38Z</time>
      </trkpt>
      <trkpt lat="47.31249" lon="0.04529">
        <ele>87.081</ele>
        <time>2016-06-04T07:36:18Z</time>
      </trkpt>
      <trkpt lat="47.313" lon="0.04557">
        <ele>84.919</ele>
        <time>2016-06-04T07:35:58Z</time>
      </trkpt>
      <trkpt lat="47.314" lon="0.04735">
        <ele>92.263</ele>
        <time>2016-06-04T07:35:38Z</time>
      </trkpt>
      <trkpt lat="47.31477" lon="0.0479">
        <ele>96.15</ele>
        <time>2016-06-04T07:35:18Z</time>
      </trkpt>
      <trkpt lat="47.31553" lon="0.04893">
        <ele>103.575</ele>
        <time>2016-06-04T07:34:58Z</time>
      </trkpt>
      <trkpt lat="47.31553" lon="0.04893">
        <ele>103.569</ele>
        <time>2016-06-04T07:34:58Z</time>
      </trkpt>
      <trkpt lat="47.31774" lon="0.05303">
        <ele>95.808</ele>
        <time>2019-10-27T15:16:38Z</time>
      </trkpt>
      <trkpt lat="47.31791" lon="0.05348">
        <ele>96.211</ele>
        <time>2019-10-27T15:16:18Z</time>
      </trkpt>
      <trkpt lat="47.31825" lon="0.05385">
        <ele>94.592</ele>
        <time>2019-10-27T15:15:58Z</time>
      </trkpt>
      <trkpt lat="47.3189" lon="0.05411">
        <ele>92.532</ele>
        <time>2019-10-27T15:15:38Z</time>
      </trkpt>
      <trkpt lat="47.32065" lon="0.05563">
        <ele>89.975</ele>
        <time>2019-10-27T15:15:18Z</time>
      </trkpt>
      <trkpt lat="47.32293" lon="0.05728">
        <ele>89.976</ele>
        <time>2019-10-27T15:14:58Z</time>
      </trkpt>
      <trkpt lat="47.32387" lon="0.0589">
        <ele>98.16</ele>
        <time>2019-10-27T15:14:38Z</time>
      </trkpt>
      <trkpt lat="47.32566" lon="0.05847">
        <ele>103.278</ele>
        <time>2019-10-27T15:14:18Z</time>
      </trkpt>
      <trkpt lat="47.32617" lon="0.05775">
        <ele>108.522</ele>
        <time>2019-10-27T15:13:58Z</time>
      </trkpt>
      <trkpt lat="47.32579" lon="0.06058">
        <ele>109.399</ele>
        <time>2019-10-27T15:13:38Z</time>
      </trkpt>
      <trkpt lat="47.32469" lon="0.06156">
        <ele>109.714</ele>
        <time>2019-10-27T15:13:18Z</time>
      </trkpt>
      <trkpt lat="47.32377" lon="0.06249">
        <ele>111.128</ele>
        <time>2019-10-27T15:12:58Z</time>
      </trkpt>
      <trkpt lat="47.3263" lon="0.062">
        <ele>113.008</ele>
        <time>2019-10-27T15:12:38Z</time>
      </trkpt>
      <trkpt lat="47.32682" lon="0.06207">
        <ele>113.314</ele>
        <time>2019-10-27T15:12:18Z</time>
      </trkpt>
      <trkpt lat="47.33178" lon="0.06361">
        <ele>109.468</ele>
        <time>2019-10-27T15:11:58Z</time>
      </trkpt>
      <trkpt lat="47.3342" lon="0.06511">
        <ele>102.327</ele>
        <time>2019-10-27T15:11:38Z</time>
      </trkpt>
      <trkpt lat="47.33561" lon="0.06651">
        <ele>99.869</ele>
        <time>2019-10-27T15:11:18Z</time>
      </trkpt>
      <trkpt lat="47.33678" lon="0.0673">
        <ele>102.05</ele>
        <time>2019-10-27T15:10:58Z</time>
      </trkpt>
      <trkpt lat="47.33727" lon="0.06737">
        <ele>102.694</ele>
        <time>2019-10-27T15:10:38Z</time>
      </trkpt>
      <trkpt lat="47.33895" lon="0.06881">
        <ele>110.612</ele>
        <time>2019-10-27T15:10:18Z</time>
      </trkpt>
      <trkpt lat="47.33973" lon="0.06919">
        <ele>110.066</ele>
        <time>2019-10-27T15:09:58Z</time>
      </trkpt>
      <trkpt lat="47.33993" lon="0.07053">
        <ele>108.683</ele>
        <time>2019-10-27T15:09:38Z</time>
      </trkpt>
      <trkpt lat="47.34014" lon="0.07115">
        <ele>110.558</ele>
        <time>2019-10-27T15:09:18Z</time>
      </trkpt>
      <trkpt lat="47.34057" lon="0.07323">
        <ele>102.682</ele>
        <time>2019-10-27T15:08:58Z</time>
      </trkpt>
      <trkpt lat="47.34094" lon="0.07467">
        <ele>100.908</ele>
        <time>2019-10-27T15:08:38Z</time>
      </trkpt>
      <trkpt lat="47.34115" lon="0.07594">
        <ele>103.424</ele>
        <time>2019-10-27T15:08:18Z</time>
      </trkpt>
      <trkpt lat="47.34053" lon="0.07681">
        <ele>107.004</ele>
        <time>2019-10-27T15:07:58Z</time>
      </trkpt>
      <trkpt lat="47.34078" lon="0.07783">
        <ele>108.869</ele>
        <time>2019-10-27T15:07:38Z</time>
      </trkpt>
      <trkpt lat="47.34117" lon="0.07873">
        <ele>108.088</ele>
        <time>2019-10-27T15:07:18Z</time>
      </trkpt>
      <trkpt lat="47.34225" lon="0.08061">
        <ele>110.649</ele>
        <time>2019-10-27T15:06:58Z</time>
      </trkpt>
      <trkpt lat="47.34284" lon="0.08256">
        <ele>109.493</ele>
        <time>2019-10-27T15:06:38Z</time>
      </trkpt>
      <trkpt lat="47.34377" lon="0.08325">
        <ele>108.961</ele>
        <time>2019-10-27T15:06:18Z</time>
      </trkpt>
      <trkpt lat="47.34426" lon="0.08336">
        <ele>110.775</ele>
        <time>2019-10-27T15:05:58Z</time>
      </trkpt>
      <trkpt lat="47.34463" lon="0.08332">
        <ele>112.722</ele>
        <time>2019-10-27T15:05:38Z</time>
      </trkpt>
      <trkpt lat="47.34494" lon="0.08337">
        <ele>112.947</ele>
        <time>2019-10-27T15:05:18Z</time>
      </trkpt>
      <trkpt lat="47.34542" lon="0.08359">
        <ele>110.111</ele>
        <time>2019-10-27T15:04:58Z</time>
      </trkpt>
      <trkpt lat="47.3512" lon="0.08902">
        <ele>114.508</ele>
        <time>2019-10-27T15:04:38Z</time>
      </trkpt>
      <trkpt lat="47.35211" lon="0.09018">
        <ele>120.223</ele>
        <time>2019-10-27T15:04:18Z</time>
      </trkpt>
      <trkpt lat="47.35357" lon="0.09154">
        <ele>113.503</ele>
        <time>2016-06-02T21:48:13Z</time>
      </trkpt>
      <trkpt lat="47.35429" lon="0.09233">
        <ele>113.059</ele>
        <time>2016-06-02T21:47:53Z</time>
      </trkpt>
      <trkpt lat="47.35521" lon="0.09297">
        <ele>117.52</ele>
        <time>2016-06-02T21:47:33Z</time>
      </trkpt>
      <trkpt lat="47.35607" lon="0.09402">
        <ele>113.521</ele>
        <time>2016-06-02T21:47:13Z</time>
      </trkpt>
      <trkpt lat="47.35699" lon="0.09496">
        <ele>115.165</ele>
        <time>2016-06-02T21:46:53Z</time>
      </trkpt>
      <trkpt lat="47.35708" lon="0.09356">
        <ele>117.193</ele>
        <time>2016-06-02T21:46:33Z</time>
      </trkpt>
      <trkpt lat="47.35701" lon="0.09162">
        <ele>112.837</ele>
        <time>2016-06-02T21:46:13Z</time>
      </trkpt>
      <trkpt lat="47.35715" lon="0.08987">
        <ele>114.044</ele>
        <time>2016-06-02T21:45:53Z</time>
      </trkpt>
      <trkpt lat="47.35811" lon="0.08805">
        <ele>107.839</ele>
        <time>2016-06-02T21:45:33Z</time>
      </trkpt>
      <trkpt lat="47.35801" lon="0.08714">
        <ele>108.723</ele>
        <time>2016-06-02T21:45:13Z</time>
      </trkpt>
      <trkpt lat="47.35962" lon="0.08557">
        <ele>100.308</ele>
        <time>2016-06-02T21:44:53Z</time>
      </trkpt>
      <trkpt lat="47.35986" lon="0.08594">
        <ele>99.313</ele>
        <time>2016-06-02T21:44:33Z</time>
      </trkpt>
      <trkpt lat="47.36042" lon="0.08611">
        <ele>100.585</ele>
        <time>2016-06-02T21:44:13Z</time>
      </trkpt>
      <trkpt lat="47.3611" lon="0.08555">
        <ele>100.073</ele>
        <time>2016-06-02T21:43:53Z</time>
      </trkpt>
      <trkpt lat="47.36109" lon="0.08624">
        <ele>103.33</ele>
        <time>2016-06-02T21:43:33Z</time>
      </trkpt>
      <trkpt lat="47.36154" lon="0.08749">
        <ele>106.681</ele>
        <time>2016-06-02T21:43:13Z</time>
      </trkpt>
      <trkpt lat="47.3617" lon="0.08848">
        <ele>109.855</ele>
        <time>2016-06-02T21:42:53Z</time>
      </trkpt>
      <trkpt lat="47.36391" lon="0.09357">
        <ele>111.193</ele>
        <time>2016-06-02T21:42:33Z</time>
      </trkpt>
      <trkpt lat="47.36391" lon="0.09357">
        <ele>111.197</ele>
        <time>2016-06-02T21:41:53Z</time>
      </trkpt>
      <trkpt lat="47.36567" lon="0.09517">
        <ele>120.484</ele>
        <time>2016-06-02T21:41:33Z</time>
      </trkpt>
      <trkpt lat="47.36646" lon="0.09598">
        <ele>122.989</ele>
        <time>2016-06-02T21:41:13Z</time>
      </trkpt>
      <trkpt lat="47.36681" lon="0.09636">
        <ele>120.433</ele>
        <time>2016-06-02T21:40:53Z</time>
      </trkpt>
      <trkpt lat="47.36733" lon="0.0971">
        <ele>121.208</ele>
        <time>2016-06-02T21:40:33Z</time>
      </trkpt>
      <trkpt lat="47.36756" lon="0.09734">
        <ele>122.427</ele>
        <time>2016-06-02T21:40:13Z</time>
      </trkpt>
      <trkpt lat="47.36852" lon="0.09787">
        <ele>116.061</ele>
        <time>2016-06-02T21:39:53Z</time>
      </trkpt>
      <trkpt lat="47.3708" lon="0.09995">
        <ele>118.777</ele>
        <time>2016-06-02T21:39:33Z</time>
      </trkpt>
      <trkpt lat="47.37222" lon="0.10184">
        <ele>116.058</ele>
        <time>2016-06-02T21:39:13Z</time>
      </trkpt>
      <trkpt lat="47.37257" lon="0.10227">
        <ele>117.079</ele>
        <time>2016-06-02T21:38:13Z</time>
      </trkpt>
      <trkpt lat="47.37293" lon="0.10261">
        <ele>115.343</ele>
        <time>2016-06-02T21:37:33Z</time>
      </trkpt>
      <trkpt lat="47.37326" lon="0.10314">
        <ele>115.831</ele>
        <time>2016-06-02T21:37:13Z</time>
      </trkpt>
      <trkpt lat="47.37352" lon="0.10339">
        <ele>117.635</ele>
        <time>2016-06-02T21:36:53Z</time>
      </trkpt>
      <trkpt lat="47.3743" lon="0.1051">
        <ele>111.072</ele>
        <time>2016-06-02T21:36:33Z</time>
      </trkpt>
      <trkpt lat="47.37478" lon="0.10581">
        <ele>105.767</ele>
        <time>2016-06-02T21:36:13Z</time>
      </trkpt>
      <trkpt lat="47.37497" lon="0.10628">
        <ele>107.651</ele>
        <time>2016-06-02T21:35:53Z</time>
      </trkpt>
      <trkpt lat="47.37608" lon="0.10819">
        <ele>104.508</ele>
        <time>2016-06-02T21:35:33Z</time>
      </trkpt>
      <trkpt lat="47.3764" lon="0.10861">
        <ele>104.111</ele>
        <time>2016-06-02T21:35:13Z</time>
      </trkpt>
      <trkpt lat="47.37691" lon="0.109">
        <ele>104.256</ele>
        <time>2016-06-02T21:34:53Z</time>
      </trkpt>
      <trkpt lat="47.37776" lon="0.11025">
        <ele>95.154</ele>
        <time>2016-06-02T21:34:33Z</time>
      </trkpt>
      <trkpt lat="47.37794" lon="0.11081">
        <ele>94.718</ele>
        <time>2016-06-02T21:33:13Z</time>
      </trkpt>
      <trkpt lat="47.37839" lon="0.1115">
        <ele>89.149</ele>
        <time>2016-06-02T21:32:53Z</time>
      </trkpt>
      <trkpt lat="47.37929" lon="0.11205">
        <ele>86.023</ele>
        <time>2016-06-02T21:32:33Z</time>
      </trkpt>
      <trkpt lat="47.38033" lon="0.1127">
        <ele>87.561</ele>
        <time>2016-06-02T21:32:13Z</time>
      </trkpt>
      <trkpt lat="47.38161" lon="0.11341">
        <ele>82.955</ele>
        <time>2016-06-02T21:30:53Z</time>
      </trkpt>
      <trkpt lat="47.38269" lon="0.11341">
        <ele>82.742</ele>
        <time>2016-06-02T21:30:33Z</time>
      </trkpt>
      <trkpt lat="47.38269" lon="0.11413">
        <ele>81.117</ele>
        <time>2016-06-02T21:30:13Z</time>
      </trkpt>
      <trkpt lat="47.38269" lon="0.11413">
        <ele>81.151</ele>
        <time>2016-06-02T21:29:53Z</time>
      </trkpt>
      <trkpt lat="47.38238" lon="0.11801">
        <ele>79.008</ele>
        <time>2016-06-02T21:29:33Z</time>
      </trkpt>
      <trkpt lat="47.3825" lon="0.11824">
        <ele>78.317</ele>
        <time>2016-06-02T21:29:13Z</time>
      </trkpt>
      <trkpt lat="47.38455" lon="0.11968">
        <ele>79.207</ele>
        <time>2016-06-02T21:28:53Z</time>
      </trkpt>
      <trkpt lat="47.3853" lon="0.11995">
        <ele>77.255</ele>
        <time>2016-06-02T21:28:33Z</time>
      </trkpt>
      <trkpt lat="47.3857" lon="0.12001">
        <ele>76.544</ele>
        <time>2016-06-02T21:28:13Z</time>
      </trkpt>
      <trkpt lat="47.38688" lon="0.11965">
        <ele>74.535</ele>
        <time>2016-06-02T21:27:53Z</time>
      </trkpt>
      <trkpt lat="47.38715" lon="0.11938">
        <ele>75.219</ele>
        <time>2016-06-02T21:27:33Z</time>
      </trkpt>
      <trkpt lat="47.38733" lon="0.11894">
        <ele>73.497</ele>
        <time>2016-06-02T21:27:13Z</time>
      </trkpt>
      <trkpt lat="47.38873" lon="0.11855">
        <ele>73.221</ele>
        <time>2016-06-02T21:26:53Z</time>
      </trkpt>
      <trkpt lat="47.38906" lon="0.1187">
        <ele>73.268</ele>
        <time>2016-06-02T21:26:33Z</time>
      </trkpt>
      <trkpt lat="47.38935" lon="0.11877">
        <ele>74.793</ele>
        <time>2016-06-02T21:26:13Z</time>
      </trkpt>
      <trkpt lat="47.39014" lon="0.11863">
        <ele>80.117</ele>
        <time>2016-06-02T21:25:53Z</time>
      </trkpt>
      <trkpt lat="47.39101" lon="0.11818">
        <ele>78.908</ele>
        <time>2016-06-02T21:25:33Z</time>
      </trkpt>
      <trkpt lat="47.39162" lon="0.11842">
        <ele>81.505</ele>
        <time>2016-06-02T21:25:13Z</time>
      </trkpt>
      <trkpt lat="47.39212" lon="0.1183">
        <ele>78.832</ele>
        <time>2016-06-02T21:24:53Z</time>
      </trkpt>
      <trkpt lat="47.39262" lon="0.118">
        <ele>75.312</ele>
        <time>2016-06-02T21:24:33Z</time>
      </trkpt>
      <trkpt lat="47.39315" lon="0.11719">
        <ele>72.596</ele>
        <time>2016-06-02T21:24:13Z</time>
      </trkpt>
      <trkpt lat="47.39359" lon="0.11781">
        <ele>70.337</ele>
        <time>2016-06-02T21:23:53Z</time>
      </trkpt>
      <trkpt lat="47.39389" lon="0.11865">
        <ele>73.041</ele>
        <time>2016-06-02T21:23:33Z</time>
      </trkpt>
      <trkpt lat="47.39502" lon="0.12306">
        <ele>70.919</ele>
        <time>2016-06-02T21:23:13Z</time>
      </trkpt>
      <trkpt lat="47.39597" lon="0.12528">
        <ele>68.513</ele>
        <time>2016-06-02T21:22:53Z</time>
      </trkpt>
      <trkpt lat="47.39635" lon="0.12639">
        <ele>68.11</ele>
        <time>2016-06-02T21:22:33Z</time>
      </trkpt>
      <trkpt lat="47.39733" lon="0.12854">
        <ele>66.095</ele>
        <time>2016-06-02T21:22:13Z</time>
      </trkpt>
      <trkpt lat="47.39775" lon="0.12922">
        <ele>66.119</ele>
        <time>2016-06-02T21:21:53Z</time>
      </trkpt>
      <trkpt lat="47.39863" lon="0.131">
        <ele>68.108</ele>
        <time>2016-06-02T21:21:33Z</time>
      </trkpt>
      <trkpt lat="47.39991" lon="0.13341">
        <ele>69.007</ele>
        <time>2016-06-02T21:21:13Z</time>
      </trkpt>
      <trkpt lat="47.40014" lon="0.13333">
        <ele>68.561</ele>
        <time>2016-06-02T21:20:53Z</time>
      </trkpt>
      <trkpt lat="47.40088" lon="0.13466">
        <ele>67.831</ele>
        <time>2016-06-02T21:20:33Z</time>
      </trkpt>
      <trkpt lat="47.4014" lon="0.13594">
        <ele>67.052</ele>
        <time>2016-06-02T21:20:13Z</time>
      </trkpt>
      <trkpt lat="47.40164" lon="0.13688">
        <ele>68.823</ele>
        <time>2016-06-02T21:19:53Z</time>
      </trkpt>
      <trkpt lat="47.40209" lon="0.13799">
        <ele>67.617</ele>
        <time>2016-06-02T21:19:33Z</time>
      </trkpt>
      <trkpt lat="47.40382" lon="0.1449">
        <ele>67.875</ele>
        <time>2016-06-02T21:19:13Z</time>
      </trkpt>
      <trkpt lat="47.40474" lon="0.14714">
        <ele>66.119</ele>
        <time>2016-06-02T21:18:53Z</time>
      </trkpt>
      <trkpt lat="47.40502" lon="0.14757">
        <ele>68.336</ele>
        <time>2016-06-02T21:18:33Z</time>
      </trkpt>
      <trkpt lat="47.40513" lon="0.14817">
        <ele>68.681</ele>
        <time>2016-06-02T21:18:13Z</time>
      </trkpt>
      <trkpt lat="47.40519" lon="0.14884">
        <ele>67.935</ele>
        <time>2016-06-02T21:17:53Z</time>
      </trkpt>
      <trkpt lat="47.40571" lon="0.15002">
        <ele>67.608</ele>
        <time>2016-06-02T21:17:33Z</time>
      </trkpt>
      <trkpt lat="47.40374" lon="0.15243">
        <ele>70.327</ele>
        <time>2016-06-02T21:17:13Z</time>
      </trkpt>
      <trkpt lat="47.40421" lon="0.15319">
        <ele>70.907</ele>
        <time>2016-06-02T21:16:53Z</time>
      </trkpt>
      <trkpt lat="47.40421" lon="0.15393">
        <ele>72.099</ele>
        <time>2016-06-02T21:16:33Z</time>
      </trkpt>
      <trkpt lat="47.4043" lon="0.15524">
        <ele>73.529</ele>
        <time>2016-06-02T21:16:13Z</time>
      </trkpt>
      <trkpt lat="47.40444" lon="0.15637">
        <ele>73.09</ele>
        <time>2016-06-02T21:15:53Z</time>
      </trkpt>
      <trkpt lat="47.4044" lon="0.16072">
        <ele>73.014</ele>
        <time>2016-06-02T21:15:33Z</time>
      </trkpt>
      <trkpt lat="47.40447" lon="0.1621">
        <ele>71.572</ele>
        <time>2016-06-02T21:15:13Z</time>
      </trkpt>
      <trkpt lat="47.40422" lon="0.16201">
        <ele>71.636</ele>
        <time>2016-06-02T21:14:53Z</time>
      </trkpt>
      <trkpt lat="47.40364" lon="0.16374">
        <ele>72.983</ele>
        <time>2016-06-02T21:14:33Z</time>
      </trkpt>
      <trkpt lat="47.40354" lon="0.16421">
        <ele>73.038</ele>
        <time>2016-06-02T21:14:13Z</time>
      </trkpt>
      <trkpt lat="47.40321" lon="0.16476">
        <ele>72.912</ele>
        <time>2016-06-02T21:13:53Z</time>
      </trkpt>
      <trkpt lat="47.40294" lon="0.16467">
        <ele>73.008</ele>
        <time>2016-06-02T21:13:33Z</time>
      </trkpt>
      <trkpt lat="47.40281" lon="0.16521">
        <ele>72.013</ele>
        <time>2016-06-02T21:13:13Z</time>
      </trkpt>
      <trkpt lat="47.40609" lon="0.16801">
        <ele>72.821</ele>
        <time>2016-06-02T21:12:53Z</time>
      </trkpt>
      <trkpt lat="47.40915" lon="0.1705">
        <ele>74.061</ele>
        <time>2016-06-02T21:12:33Z</time>
      </trkpt>
      <trkpt lat="47.41094" lon="0.17154">
        <ele>78.214</ele>
        <time>2016-06-02T21:12:13Z</time>
      </trkpt>
      <trkpt lat="47.41758" lon="0.17651">
        <ele>77.085</ele>
        <time>2016-06-02T21:11:53Z</time>
      </trkpt>
      <trkpt lat="47.41813" lon="0.17683">
        <ele>78.969</ele>
        <time>2016-06-02T21:11:33Z</time>
      </trkpt>
      <trkpt lat="47.41832" lon="0.17685">
        <ele>78.787</ele>
        <time>2016-06-02T21:11:13Z</time>
      </trkpt>
      <trkpt lat="47.41925" lon="0.17721">
        <ele>80.021</ele>
        <time>2016-06-02T21:10:53Z</time>
      </trkpt>
      <trkpt lat="47.42001" lon="0.17732">
        <ele>78.078</ele>
        <time>2016-06-02T21:10:33Z</time>
      </trkpt>
      <trkpt lat="47.4204" lon="0.17725">
        <ele>77.053</ele>
        <time>2016-06-02T21:10:13Z</time>
      </trkpt>
      <trkpt lat="47.42087" lon="0.17769">
        <ele>78.077</ele>
        <time>2016-06-02T21:09:53Z</time>
      </trkpt>
      <trkpt lat="47.42123" lon="0.17788">
        <ele>78.808</ele>
        <time>2016-06-02T21:09:33Z</time>
      </trkpt>
      <trkpt lat="47.42247" lon="0.17836">
        <ele>84.911</ele>
        <time>2016-06-02T21:09:13Z</time>
      </trkpt>
      <trkpt lat="47.42287" lon="0.17845">
        <ele>86.365</ele>
        <time>2016-06-02T21:08:53Z</time>
      </trkpt>
      <trkpt lat="47.42308" lon="0.17866">
        <ele>86.815</ele>
        <time>2016-06-02T21:08:33Z</time>
      </trkpt>
      <trkpt lat="47.42371" lon="0.17968">
        <ele>86.166</ele>
        <time>2016-06-02T21:08:13Z</time>
      </trkpt>
      <trkpt lat="47.42394" lon="0.18028">
        <ele>87.447</ele>
        <time>2016-06-02T21:07:53Z</time>
      </trkpt>
      <trkpt lat="47.42569" lon="0.18013">
        <ele>99.071</ele>
        <time>2016-06-02T21:07:33Z</time>
      </trkpt>
      <trkpt lat="47.42655" lon="0.18054">
        <ele>99.429</ele>
        <time>2016-06-02T21:07:13Z</time>
      </trkpt>
      <trkpt lat="47.42714" lon="0.18104">
        <ele>99.853</ele>
        <time>2016-06-02T21:06:53Z</time>
      </trkpt>
      <trkpt lat="47.42796" lon="0.18195">
        <ele>103.88</ele>
        <time>2016-06-02T21:06:33Z</time>
      </trkpt>
      <trkpt lat="47.42878" lon="0.18299">
        <ele>105.295</ele>
        <time>2016-06-02T21:06:13Z</time>
      </trkpt>
      <trkpt lat="47.42945" lon="0.18456">
        <ele>108.099</ele>
        <time>2016-06-02T21:05:53Z</time>
      </trkpt>
      <trkpt lat="47.43057" lon="0.18408">
        <ele>109.908</ele>
        <time>2016-06-02T21:05:33Z</time>
      </trkpt>
      <trkpt lat="47.43268" lon="0.18342">
        <ele>115.314</ele>
        <time>2016-06-02T21:05:13Z</time>
      </trkpt>
      <trkpt lat="47.43348" lon="0.18314">
        <ele>115.886</ele>
        <time>2016-06-02T21:04:53Z</time>
      </trkpt>
      <trkpt lat="47.43583" lon="0.18314">
        <ele>118.435</ele>
        <time>2016-06-02T21:04:13Z</time>
      </trkpt>
      <trkpt lat="47.43655" lon="0.18306">
        <ele>117.469</ele>
        <time>2016-06-02T21:03:53Z</time>
      </trkpt>
      <trkpt lat="47.43803" lon="0.18278">
        <ele>115.11</ele>
        <time>2016-06-02T21:03:33Z</time>
      </trkpt>
      <trkpt lat="47.44039" lon="0.18255">
        <ele>112.654</ele>
        <time>2016-06-02T21:03:13Z</time>
      </trkpt>
      <trkpt lat="47.44336" lon="0.18262">
        <ele>119.552</ele>
        <time>2016-06-02T21:02:53Z</time>
      </trkpt>
      <trkpt lat="47.44388" lon="0.18258">
        <ele>118.496</ele>
        <time>2016-06-02T21:02:33Z</time>
      </trkpt>
      <trkpt lat="47.44513" lon="0.18233">
        <ele>120.153</ele>
        <time>2016-06-02T21:02:13Z</time>
      </trkpt>
      <trkpt lat="47.44793" lon="0.18189">
        <ele>121.268</ele>
        <time>2016-06-02T21:01:53Z</time>
      </trkpt>
      <trkpt lat="47.4507" lon="0.18184">
        <ele>127.162</ele>
        <time>2016-06-02T21:01:33Z</time>
      </trkpt>
      <trkpt lat="47.45249" lon="0.18134">
        <ele>125.908</ele>
        <time>2016-06-02T21:01:13Z</time>
      </trkpt>
      <trkpt lat="47.45336" lon="0.18117">
        <ele>121.221</ele>
        <time>2016-06-02T21:00:53Z</time>
      </trkpt>
      <trkpt lat="47.45404" lon="0.18187">
        <ele>120.629</ele>
        <time>2016-06-02T21:00:33Z</time>
      </trkpt>
      <trkpt lat="47.45509" lon="0.1832">
        <ele>113.566</ele>
        <time>2016-06-02T21:00:13Z</time>
      </trkpt>
      <trkpt lat="47.45683" lon="0.18578">
        <ele>106.989</ele>
        <time>2016-06-02T20:59:53Z</time>
      </trkpt>
      <trkpt lat="47.458" lon="0.1872">
        <ele>110.29</ele>
        <time>2016-06-02T20:59:33Z</time>
      </trkpt>
      <trkpt lat="47.45867" lon="0.18798">
        <ele>105.774</ele>
        <time>2016-06-02T20:59:13Z</time>
      </trkpt>
      <trkpt lat="47.45963" lon="0.18877">
        <ele>101.432</ele>
        <time>2016-06-02T20:58:53Z</time>
      </trkpt>
      <trkpt lat="47.45977" lon="0.18876">
        <ele>100.116</ele>
        <time>2016-06-02T20:58:33Z</time>
      </trkpt>
      <trkpt lat="47.46117" lon="0.19034">
        <ele>91.283</ele>
        <time>2016-06-02T20:58:13Z</time>
      </trkpt>
      <trkpt lat="47.46257" lon="0.19207">
        <ele>87.818</ele>
        <time>2016-06-02T20:57:53Z</time>
      </trkpt>
      <trkpt lat="47.46333" lon="0.19279">
        <ele>84.052</ele>
        <time>2016-06-02T20:57:33Z</time>
      </trkpt>
      <trkpt lat="47.46484" lon="0.19498">
        <ele>80.108</ele>
        <time>2016-06-02T20:57:13Z</time>
      </trkpt>
      <trkpt lat="47.46487" lon="0.19442">
        <ele>81.521</ele>
        <time>2016-06-02T20:56:53Z</time>
      </trkpt>
      <trkpt lat="47.4648" lon="0.1936">
        <ele>82.429</ele>
        <time>2016-06-02T20:56:33Z</time>
      </trkpt>
      <trkpt lat="47.46472" lon="0.18828">
        <ele>91.266</ele>
        <time>2016-06-02T20:56:13Z</time>
      </trkpt>
      <trkpt lat="47.46428" lon="0.18291">
        <ele>89.366</ele>
        <time>2016-06-02T20:55:53Z</time>
      </trkpt>
      <trkpt lat="47.46426" lon="0.1816">
        <ele>86.787</ele>
        <time>2016-06-02T20:55:33Z</time>
      </trkpt>
      <trkpt lat="47.4643" lon="0.18032">
        <ele>87.711</ele>
        <time>2016-06-02T20:55:13Z</time>
      </trkpt>
      <trkpt lat="47.46442" lon="0.17821">
        <ele>86.929</ele>
        <time>2016-06-02T20:54:53Z</time>
      </trkpt>
      <trkpt lat="47.46452" lon="0.17758">
        <ele>84.193</ele>
        <time>2016-06-02T20:54:33Z</time>
      </trkpt>
      <trkpt lat="47.46447" lon="0.1748">
        <ele>79.99</ele>
        <time>2016-06-02T20:54:13Z</time>
      </trkpt>
      <trkpt lat="47.46414" lon="0.17418">
        <ele>79.245</ele>
        <time>2016-06-02T20:53:53Z</time>
      </trkpt>
      <trkpt lat="47.46368" lon="0.17309">
        <ele>83.719</ele>
        <time>2016-06-02T20:53:33Z</time>
      </trkpt>
      <trkpt lat="47.46388" lon="0.17068">
        <ele>75.508</ele>
        <time>2016-06-02T20:53:13Z</time>
      </trkpt>
      <trkpt lat="47.464" lon="0.16884">
        <ele>76.718</ele>
        <time>2016-06-02T20:52:53Z</time>
      </trkpt>
      <trkpt lat="47.46394" lon="0.1681">
        <ele>73.217</ele>
        <time>2016-06-02T20:52:33Z</time>
      </trkpt>
      <trkpt lat="47.4578" lon="0.16257">
        <ele>85.636</ele>
        <time>2016-06-02T20:52:13Z</time>
      </trkpt>
      <trkpt lat="47.45729" lon="0.16186">
        <ele>85.31</ele>
        <time>2016-06-02T20:51:53Z</time>
      </trkpt>
      <trkpt lat="47.45714" lon="0.16134">
        <ele>87.841</ele>
        <time>2016-06-02T20:51:33Z</time>
      </trkpt>
      <trkpt lat="47.45647" lon="0.16005">
        <ele>92.165</ele>
        <time>2016-06-02T20:51:13Z</time>
      </trkpt>
      <trkpt lat="47.4554" lon="0.15758">
        <ele>91.683</ele>
        <time>2016-06-02T20:50:53Z</time>
      </trkpt>
      <trkpt lat="47.45472" lon="0.15586">
        <ele>88.067</ele>
        <time>2016-06-02T20:50:33Z</time>
      </trkpt>
      <trkpt lat="47.45188" lon="0.1501">
        <ele>74.984</ele>
        <time>2016-06-02T20:50:13Z</time>
      </trkpt>
      <trkpt lat="47.45172" lon="0.14912">
        <ele>71.619</ele>
        <time>2016-06-02T20:49:53Z</time>
      </trkpt>
      <trkpt lat="47.45101" lon="0.14636">
        <ele>74.143</ele>
        <time>2016-06-02T20:49:33Z</time>
      </trkpt>
      <trkpt lat="47.4501" lon="0.1442">
        <ele>68.408</ele>
        <time>2016-06-02T20:49:13Z</time>
      </trkpt>
      <trkpt lat="47.44947" lon="0.14331">
        <ele>73.026</ele>
        <time>2016-06-02T20:48:53Z</time>
      </trkpt>
      <trkpt lat="47.44995" lon="0.14259">
        <ele>72.833</ele>
        <time>2016-06-02T20:48:33Z</time>
      </trkpt>
      <trkpt lat="47.45086" lon="0.14105">
        <ele>72.978</ele>
        <time>2016-06-02T20:48:13Z</time>
      </trkpt>
      <trkpt lat="47.45108" lon="0.14059">
        <ele>73.14</ele>
        <time>2016-06-02T20:47:53Z</time>
      </trkpt>
      <trkpt lat="47.45132" lon="0.14054">
        <ele>72.261</ele>
        <time>2016-06-02T20:47:33Z</time>
      </trkpt>
      <trkpt lat="47.45307" lon="0.13962">
        <ele>70.085</ele>
        <time>2016-06-02T20:47:13Z</time>
      </trkpt>
      <trkpt lat="47.4557" lon="0.13791">
        <ele>72.353</ele>
        <time>2016-06-02T20:46:53Z</time>
      </trkpt>
      <trkpt lat="47.45584" lon="0.13711">
        <ele>72.057</ele>
        <time>2016-06-02T20:46:33Z</time>
      </trkpt>
      <trkpt lat="47.45615" lon="0.13693">
        <ele>71.224</ele>
        <time>2016-06-02T20:46:13Z</time>
      </trkpt>
      <trkpt lat="47.45667" lon="0.13569">
        <ele>69.519</ele>
        <time>2016-06-02T20:45:53Z</time>
      </trkpt>
      <trkpt lat="47.45678" lon="0.135">
        <ele>72.443</ele>
        <time>2016-06-02T20:45:33Z</time>
      </trkpt>
      <trkpt lat="47.45647" lon="0.13194">
        <ele>67.308</ele>
        <time>2016-06-02T20:45:13Z</time>
      </trkpt>
      <trkpt lat="47.45819" lon="0.13028">
        <ele>73.014</ele>
        <time>2016-06-02T20:44:53Z</time>
      </trkpt>
      <trkpt lat="47.45873" lon="0.12987">
        <ele>78.413</ele>
        <time>2016-06-02T20:44:33Z</time>
      </trkpt>
      <trkpt lat="47.45962" lon="0.12941">
        <ele>81.372</ele>
        <time>2016-06-02T20:44:13Z</time>
      </trkpt>
      <trkpt lat="47.46003" lon="0.12896">
        <ele>83.161</ele>
        <time>2016-06-02T20:42:53Z</time>
      </trkpt>
      <trkpt lat="47.46064" lon="0.12792">
        <ele>87.072</ele>
        <time>2016-06-02T20:42:33Z</time>
      </trkpt>
      <trkpt lat="47.46123" lon="0.12749">
        <ele>88.496</ele>
        <time>2016-06-02T20:42:13Z</time>
      </trkpt>
      <trkpt lat="47.46136" lon="0.12337">
        <ele>94.014</ele>
        <time>2016-06-02T20:41:53Z</time>
      </trkpt>
      <trkpt lat="47.46178" lon="0.12259">
        <ele>93.468</ele>
        <time>2016-06-02T20:41:33Z</time>
      </trkpt>
      <trkpt lat="47.46183" lon="0.12102">
        <ele>91.565</ele>
        <time>2016-06-02T20:41:13Z</time>
      </trkpt>
      <trkpt lat="47.46188" lon="0.11957">
        <ele>86.98</ele>
        <time>2016-06-02T20:40:53Z</time>
      </trkpt>
      <trkpt lat="47.46213" lon="0.11879">
        <ele>83.724</ele>
        <time>2016-06-02T20:40:33Z</time>
      </trkpt>
      <trkpt lat="47.46261" lon="0.11518">
        <ele>76.208</ele>
        <time>2016-06-02T20:40:13Z</time>
      </trkpt>
      <trkpt lat="47.46239" lon="0.11378">
        <ele>79.817</ele>
        <time>2016-06-02T20:39:53Z</time>
      </trkpt>
      <trkpt lat="47.46204" lon="0.11241">
        <ele>80.407</ele>
        <time>2016-06-02T20:39:33Z</time>
      </trkpt>
      <trkpt lat="47.46156" lon="0.11186">
        <ele>82.584</ele>
        <time>2016-06-02T20:39:13Z</time>
      </trkpt>
      <trkpt lat="47.46181" lon="0.11156">
        <ele>83.235</ele>
        <time>2016-06-02T20:38:53Z</time>
      </trkpt>
      <trkpt lat="47.46215" lon="0.11085">
        <ele>87.856</ele>
        <time>2016-06-02T20:38:33Z</time>
      </trkpt>
      <trkpt lat="47.46323" lon="0.1075">
        <ele>68.71</ele>
        <time>2016-06-02T20:38:13Z</time>
      </trkpt>
      <trkpt lat="47.46356" lon="0.10683">
        <ele>71.188</ele>
        <time>2016-06-02T20:37:53Z</time>
      </trkpt>
      <trkpt lat="47.4637" lon="0.10622">
        <ele>70.822</ele>
        <time>2016-06-02T20:37:33Z</time>
      </trkpt>
      <trkpt lat="47.46398" lon="0.10572">
        <ele>70.359</ele>
        <time>2016-06-02T20:37:13Z</time>
      </trkpt>
      <trkpt lat="47.46414" lon="0.10277">
        <ele>67.324</ele>
        <time>2016-06-02T20:36:53Z</time>
      </trkpt>
      <trkpt lat="47.46411" lon="0.10099">
        <ele>67.228</ele>
        <time>2016-06-02T20:36:33Z</time>
      </trkpt>
      <trkpt lat="47.46425" lon="0.10017">
        <ele>64.608</ele>
        <time>2016-06-02T20:36:13Z</time>
      </trkpt>
      <trkpt lat="47.46432" lon="0.0988">
        <ele>59.708</ele>
        <time>2016-06-02T20:35:53Z</time>
      </trkpt>
      <trkpt lat="47.46409" lon="0.09808">
        <ele>61.362</ele>
        <time>2016-06-02T20:35:33Z</time>
      </trkpt>
      <trkpt lat="47.46502" lon="0.09815">
        <ele>55.222</ele>
        <time>2016-06-02T20:35:13Z</time>
      </trkpt>
      <trkpt lat="47.46536" lon="0.09845">
        <ele>58.57</ele>
        <time>2016-06-02T20:34:53Z</time>
      </trkpt>
      <trkpt lat="47.46566" lon="0.09764">
        <ele>60.961</ele>
        <time>2016-06-02T20:34:33Z</time>
      </trkpt>
      <trkpt lat="47.46684" lon="0.09656">
        <ele>64.035</ele>
        <time>2016-06-02T20:34:13Z</time>
      </trkpt>
      <trkpt lat="47.46799" lon="0.09512">
        <ele>61.023</ele>
        <time>2016-06-02T20:33:53Z</time>
      </trkpt>
      <trkpt lat="47.46915" lon="0.09393">
        <ele>61.097</ele>
        <time>2016-06-02T20:33:33Z</time>
      </trkpt>
      <trkpt lat="47.46895" lon="0.09605">
        <ele>66.024</ele>
        <time>2016-06-02T20:33:13Z</time>
      </trkpt>
      <trkpt lat="47.47092" lon="0.09622">
        <ele>62.029</ele>
        <time>2016-06-02T20:32:53Z</time>
      </trkpt>
      <trkpt lat="47.47227" lon="0.09597">
        <ele>66.723</ele>
        <time>2016-06-02T20:32:33Z</time>
      </trkpt>
      <trkpt lat="47.47294" lon="0.0959">
        <ele>69.508</ele>
        <time>2016-06-02T20:32:13Z</time>
      </trkpt>
      <trkpt lat="47.47358" lon="0.09571">
        <ele>74.821</ele>
        <time>2016-06-02T20:31:53Z</time>
      </trkpt>
      <trkpt lat="47.47458" lon="0.0956">
        <ele>81.556</ele>
        <time>2016-06-02T20:31:33Z</time>
      </trkpt>
      <trkpt lat="47.47606" lon="0.09652">
        <ele>85.274</ele>
        <time>2016-06-02T20:31:13Z</time>
      </trkpt>
      <trkpt lat="47.47715" lon="0.09695">
        <ele>83.065</ele>
        <time>2016-06-02T20:30:53Z</time>
      </trkpt>
      <trkpt lat="47.47761" lon="0.09585">
        <ele>84.966</ele>
        <time>2016-06-02T20:30:33Z</time>
      </trkpt>
      <trkpt lat="47.4786" lon="0.09445">
        <ele>85.92</ele>
        <time>2016-06-02T20:30:13Z</time>
      </trkpt>
      <trkpt lat="47.47885" lon="0.09402">
        <ele>85.538</ele>
        <time>2016-06-02T20:29:53Z</time>
      </trkpt>
      <trkpt lat="47.47934" lon="0.09238">
        <ele>82.332</ele>
        <time>2016-06-02T20:29:33Z</time>
      </trkpt>
      <trkpt lat="47.48073" lon="0.0919">
        <ele>81.939</ele>
        <time>2016-06-02T20:29:13Z</time>
      </trkpt>
      <trkpt lat="47.48097" lon="0.09235">
        <ele>81.634</ele>
        <time>2020-12-24T15:45:15Z</time>
      </trkpt>
      <trkpt lat="47.48117" lon="0.09207">
        <ele>81.158</ele>
        <time>2020-12-24T15:44:55Z</time>
      </trkpt>
      <trkpt lat="47.48282" lon="0.09489">
        <ele>81.108</ele>
        <time>2020-12-24T15:44:35Z</time>
      </trkpt>
      <trkpt lat="47.484" lon="0.09607">
        <ele>81.611</ele>
        <time>2020-12-24T15:44:15Z</time>
      </trkpt>
      <trkpt lat="47.48462" lon="0.09777">
        <ele>81.483</ele>
        <time>2020-12-24T15:43:55Z</time>
      </trkpt>
      <trkpt lat="47.48687" lon="0.10102">
        <ele>81.723</ele>
        <time>2020-12-24T15:43:35Z</time>
      </trkpt>
      <trkpt lat="47.4893" lon="0.10346">
        <ele>82.787</ele>
        <time>2020-12-24T15:43:15Z</time>
      </trkpt>
      <trkpt lat="47.49567" lon="0.10997">
        <ele>86.668</ele>
        <time>2020-12-24T15:42:55Z</time>
      </trkpt>
      <trkpt lat="47.49581" lon="0.10997">
        <ele>86.972</ele>
        <time>2020-12-24T15:42:35Z</time>
      </trkpt>
      <trkpt lat="47.49734" lon="0.11139">
        <ele>85.71</ele>
        <time>2020-12-24T15:42:15Z</time>
      </trkpt>
      <trkpt lat="47.49808" lon="0.11157">
        <ele>85.394</ele>
        <time>2020-12-24T15:41:55Z</time>
      </trkpt>
      <trkpt lat="47.49904" lon="0.11161">
        <ele>86.741</ele>
        <time>2020-12-24T15:41:35Z</time>
      </trkpt>
      <trkpt lat="47.49969" lon="0.11187">
        <ele>85.476</ele>
        <time>2020-12-24T15:41:15Z</time>
      </trkpt>
      <trkpt lat="47.50044" lon="0.11203">
        <ele>83.57</ele>
        <time>2020-12-24T15:40:55Z</time>
      </trkpt>
      <trkpt lat="47.50194" lon="0.11185">
        <ele>80.708</ele>
        <time>2020-12-24T15:40:35Z</time>
      </trkpt>
      <trkpt lat="47.50347" lon="0.11233">
        <ele>80.921</ele>
        <time>2020-12-24T15:40:15Z</time>
      </trkpt>
      <trkpt lat="47.50505" lon="0.11341">
        <ele>81.029</ele>
        <time>2020-12-24T15:39:55Z</time>
      </trkpt>
      <trkpt lat="47.50549" lon="0.11207">
        <ele>81.147</ele>
        <time>2020-12-24T15:39:35Z</time>
      </trkpt>
      <trkpt lat="47.50601" lon="0.11085">
        <ele>83.096</ele>
        <time>2020-12-24T15:39:15Z</time>
      </trkpt>
      <trkpt lat="47.50704" lon="0.11225">
        <ele>82.757</ele>
        <time>2020-12-24T15:38:55Z</time>
      </trkpt>
      <trkpt lat="47.5089" lon="0.11147">
        <ele>82.861</ele>
        <time>2020-12-24T15:38:35Z</time>
      </trkpt>
      <trkpt lat="47.50954" lon="0.11485">
        <ele>83.939</ele>
        <time>2020-12-24T15:38:15Z</time>
      </trkpt>
      <trkpt lat="47.51066" lon="0.11365">
        <ele>84.623</ele>
        <time>2020-12-24T15:37:55Z</time>
      </trkpt>
      <trkpt lat="47.51185" lon="0.11499">
        <ele>84.82</ele>
        <time>2020-12-24T15:37:35Z</time>
      </trkpt>
      <trkpt lat="47.51259" lon="0.11407">
        <ele>85.095</ele>
        <time>2020-12-24T15:37:15Z</time>
      </trkpt>
      <trkpt lat="47.51373" lon="0.11425">
        <ele>83.559</ele>
        <time>2020-12-24T15:36:55Z</time>
      </trkpt>
      <trkpt lat="47.51393" lon="0.11353">
        <ele>82.408</ele>
        <time>2020-12-24T15:36:35Z</time>
      </trkpt>
      <trkpt lat="47.51506" lon="0.11099">
        <ele>82.811</ele>
        <time>2020-12-24T15:36:15Z</time>
      </trkpt>
      <trkpt lat="47.51724" lon="0.10427">
        <ele>84.692</ele>
        <time>2016-06-02T20:11:13Z</time>
      </trkpt>
      <trkpt lat="47.51795" lon="0.10441">
        <ele>84.632</ele>
        <time>2016-06-02T20:10:53Z</time>
      </trkpt>
      <trkpt lat="47.51876" lon="0.10494">
        <ele>84.517</ele>
        <time>2016-06-02T20:10:33Z</time>
      </trkpt>
      <trkpt lat="47.51971" lon="0.10593">
        <ele>82.388</ele>
        <time>2016-06-02T20:10:13Z</time>
      </trkpt>
      <trkpt lat="47.5209" lon="0.1069">
        <ele>85.032</ele>
        <time>2016-06-02T20:09:53Z</time>
      </trkpt>
      <trkpt lat="47.5219" lon="0.10748">
        <ele>84.82</ele>
        <time>2016-06-02T20:09:33Z</time>
      </trkpt>
      <trkpt lat="47.52245" lon="0.10734">
        <ele>85.444</ele>
        <time>2016-06-02T20:09:13Z</time>
      </trkpt>
      <trkpt lat="47.52329" lon="0.10772">
        <ele>83.261</ele>
        <time>2016-06-02T20:08:53Z</time>
      </trkpt>
      <trkpt lat="47.52417" lon="0.10855">
        <ele>81.246</ele>
        <time>2016-06-02T20:08:33Z</time>
      </trkpt>
      <trkpt lat="47.52443" lon="0.10903">
        <ele>81.04</ele>
        <time>2016-06-02T20:08:13Z</time>
      </trkpt>
      <trkpt lat="47.5249" lon="0.11036">
        <ele>82.708</ele>
        <time>2016-06-02T20:07:53Z</time>
      </trkpt>
      <trkpt lat="47.5253" lon="0.11102">
        <ele>80.816</ele>
        <time>2016-06-02T20:07:33Z</time>
      </trkpt>
      <trkpt lat="47.5257" lon="0.11215">
        <ele>79.488</ele>
        <time>2016-06-02T20:07:13Z</time>
      </trkpt>
      <trkpt lat="47.52628" lon="0.11268">
        <ele>78.446</ele>
        <time>2016-06-02T20:06:53Z</time>
      </trkpt>
      <trkpt lat="47.52775" lon="0.11492">
        <ele>76.025</ele>
        <time>2016-06-02T20:06:33Z</time>
      </trkpt>
      <trkpt lat="47.52817" lon="0.11615">
        <ele>75.516</ele>
        <time>2016-06-02T20:06:13Z</time>
      </trkpt>
      <trkpt lat="47.52829" lon="0.11787">
        <ele>74.57</ele>
        <time>2016-06-02T20:05:53Z</time>
      </trkpt>
      <trkpt lat="47.5291" lon="0.11808">
        <ele>76.898</ele>
        <time>2016-06-02T20:05:33Z</time>
      </trkpt>
      <trkpt lat="47.5289" lon="0.11664">
        <ele>76.912</ele>
        <time>2016-06-02T20:05:13Z</time>
      </trkpt>
      <trkpt lat="47.52885" lon="0.1156">
        <ele>75.769</ele>
        <time>2016-06-02T20:04:53Z</time>
      </trkpt>
      <trkpt lat="47.52922" lon="0.11335">
        <ele>76.664</ele>
        <time>2016-06-02T20:04:33Z</time>
      </trkpt>
      <trkpt lat="47.52949" lon="0.11239">
        <ele>77.068</ele>
        <time>2016-06-02T20:04:13Z</time>
      </trkpt>
      <trkpt lat="47.53028" lon="0.11238">
        <ele>76.008</ele>
        <time>2016-06-02T20:03:53Z</time>
      </trkpt>
      <trkpt lat="47.53201" lon="0.11174">
        <ele>74.314</ele>
        <time>2016-06-02T20:03:33Z</time>
      </trkpt>
      <trkpt lat="47.53213" lon="0.11146">
        <ele>74.068</ele>
        <time>2016-06-02T20:03:13Z</time>
      </trkpt>
      <trkpt lat="47.53276" lon="0.11125">
        <ele>73.627</ele>
        <time>2016-06-02T20:02:53Z</time>
      </trkpt>
      <trkpt lat="47.53346" lon="0.11094">
        <ele>72.422</ele>
        <time>2016-06-02T20:02:33Z</time>
      </trkpt>
      <trkpt lat="47.53395" lon="0.11055">
        <ele>74.073</ele>
        <time>2016-06-02T20:02:13Z</time>
      </trkpt>
      <trkpt lat="47.53459" lon="0.11059">
        <ele>75.087</ele>
        <time>2016-06-02T20:01:53Z</time>
      </trkpt>
      <trkpt lat="47.53457" lon="0.11261">
        <ele>77.855</ele>
        <time>2016-06-02T20:01:33Z</time>
      </trkpt>
      <trkpt lat="47.53616" lon="0.1131">
        <ele>78.049</ele>
        <time>2016-06-02T20:01:13Z</time>
      </trkpt>
      <trkpt lat="47.53681" lon="0.11324">
        <ele>78.516</ele>
        <time>2016-06-02T20:00:53Z</time>
      </trkpt>
      <trkpt lat="47.53785" lon="0.11367">
        <ele>79.481</ele>
        <time>2020-12-24T15:25:15Z</time>
      </trkpt>
      <trkpt lat="47.53847" lon="0.11366">
        <ele>78.345</ele>
        <time>2020-12-24T15:24:55Z</time>
      </trkpt>
      <trkpt lat="47.5386" lon="0.11315">
        <ele>78.608</ele>
        <time>2020-12-24T15:24:35Z</time>
      </trkpt>
      <trkpt lat="47.53956" lon="0.11261">
        <ele>79.321</ele>
        <time>2020-12-24T15:24:15Z</time>
      </trkpt>
      <trkpt lat="47.53975" lon="0.112">
        <ele>80.165</ele>
        <time>2020-12-24T15:23:55Z</time>
      </trkpt>
      <trkpt lat="47.54043" lon="0.11195">
        <ele>78.893</ele>
        <time>2020-12-24T15:23:35Z</time>
      </trkpt>
      <trkpt lat="47.54035" lon="0.10964">
        <ele>79.762</ele>
        <time>2020-12-24T15:23:15Z</time>
      </trkpt>
      <trkpt lat="47.54008" lon="0.10865">
        <ele>79.993</ele>
        <time>2020-12-24T15:22:55Z</time>
      </trkpt>
      <trkpt lat="47.54067" lon="0.10856">
        <ele>80.027</ele>
        <time>2016-06-02T19:58:33Z</time>
      </trkpt>
      <trkpt lat="47.54104" lon="0.10794">
        <ele>78.325</ele>
        <time>2016-06-02T19:58:13Z</time>
      </trkpt>
      <trkpt lat="47.54208" lon="0.1076">
        <ele>76.129</ele>
        <time>2016-06-02T19:57:53Z</time>
      </trkpt>
      <trkpt lat="47.5421" lon="0.10622">
        <ele>78.546</ele>
        <time>2016-06-02T19:57:33Z</time>
      </trkpt>
      <trkpt lat="47.54261" lon="0.10572">
        <ele>76.661</ele>
        <time>2016-06-02T19:57:13Z</time>
      </trkpt>
      <trkpt lat="47.54241" lon="0.10483">
        <ele>76.065</ele>
        <time>2016-06-02T19:56:53Z</time>
      </trkpt>
      <trkpt lat="47.54287" lon="0.10467">
        <ele>74.108</ele>
        <time>2016-06-02T19:56:33Z</time>
      </trkpt>
      <trkpt lat="47.54366" lon="0.10462">
        <ele>75.519</ele>
        <time>2016-06-02T19:56:13Z</time>
      </trkpt>
      <trkpt lat="47.54404" lon="0.10479">
        <ele>75.681</ele>
        <time>2016-06-02T19:55:53Z</time>
      </trkpt>
      <trkpt lat="47.54564" lon="0.10436">
        <ele>73.091</ele>
        <time>2016-06-02T19:55:33Z</time>
      </trkpt>
      <trkpt lat="47.54579" lon="0.10498">
        <ele>72.949</ele>
        <time>2016-06-02T19:55:13Z</time>
      </trkpt>
      <trkpt lat="47.546" lon="0.10543">
        <ele>73.99</ele>
        <time>2016-06-02T19:54:53Z</time>
      </trkpt>
      <trkpt lat="47.54616" lon="0.10556">
        <ele>74.014</ele>
        <time>2016-06-02T19:54:33Z</time>
      </trkpt>
      <trkpt lat="47.54753" lon="0.10545">
        <ele>71.942</ele>
        <time>2016-06-02T19:53:33Z</time>
      </trkpt>
      <trkpt lat="47.54777" lon="0.10559">
        <ele>71.156</ele>
        <time>2016-06-02T19:53:13Z</time>
      </trkpt>
      <trkpt lat="47.54836" lon="0.10565">
        <ele>71.073</ele>
        <time>2016-06-02T19:52:33Z</time>
      </trkpt>
      <trkpt lat="47.54911" lon="0.10632">
        <ele>71.668</ele>
        <time>2016-06-02T19:51:53Z</time>
      </trkpt>
      <trkpt lat="47.55064" lon="0.10741">
        <ele>72.272</ele>
        <time>2016-06-02T19:51:33Z</time>
      </trkpt>
      <trkpt lat="47.55316" lon="0.10791">
        <ele>68.808</ele>
        <time>2016-06-02T19:51:13Z</time>
      </trkpt>
      <trkpt lat="47.55472" lon="0.10935">
        <ele>73.016</ele>
        <time>2016-06-02T19:50:53Z</time>
      </trkpt>
      <trkpt lat="47.55505" lon="0.11147">
        <ele>71.806</ele>
        <time>2016-06-02T19:50:33Z</time>
      </trkpt>
      <trkpt lat="47.55506" lon="0.11346">
        <ele>73.664</ele>
        <time>2016-06-02T19:50:13Z</time>
      </trkpt>
      <trkpt lat="47.555" lon="0.1158">
        <ele>73.977</ele>
        <time>2016-06-02T19:49:53Z</time>
      </trkpt>
      <trkpt lat="47.55481" lon="0.11943">
        <ele>74.728</ele>
        <time>2016-06-02T19:48:53Z</time>
      </trkpt>
      <trkpt lat="47.55435" lon="0.11998">
        <ele>74.412</ele>
        <time>2016-06-02T19:48:33Z</time>
      </trkpt>
      <trkpt lat="47.55426" lon="0.12027">
        <ele>74.32</ele>
        <time>2016-06-02T19:48:13Z</time>
      </trkpt>
      <trkpt lat="47.55422" lon="0.12109">
        <ele>76.614</ele>
        <time>2016-06-02T19:47:53Z</time>
      </trkpt>
      <trkpt lat="47.55428" lon="0.12192">
        <ele>75.681</ele>
        <time>2016-06-02T19:47:33Z</time>
      </trkpt>
      <trkpt lat="47.55423" lon="0.12272">
        <ele>75.246</ele>
        <time>2016-06-02T19:47:13Z</time>
      </trkpt>
      <trkpt lat="47.55347" lon="0.12284">
        <ele>73.69</ele>
        <time>2016-06-02T19:46:53Z</time>
      </trkpt>
      <trkpt lat="47.55333" lon="0.12308">
        <ele>75.108</ele>
        <time>2016-06-02T19:46:33Z</time>
      </trkpt>
      <trkpt lat="47.55317" lon="0.12401">
        <ele>74.216</ele>
        <time>2016-06-02T19:46:13Z</time>
      </trkpt>
      <trkpt lat="47.55088" lon="0.12344">
        <ele>70.588</ele>
        <time>2016-06-02T19:45:53Z</time>
      </trkpt>
      <trkpt lat="47.55239" lon="0.12783">
        <ele>70.046</ele>
        <time>2016-06-02T19:45:33Z</time>
      </trkpt>
      <trkpt lat="47.55209" lon="0.12808">
        <ele>70.456</ele>
        <time>2016-06-02T19:45:13Z</time>
      </trkpt>
      <trkpt lat="47.55157" lon="0.13059">
        <ele>62.217</ele>
        <time>2016-06-02T19:44:53Z</time>
      </trkpt>
      <trkpt lat="47.55103" lon="0.13304">
        <ele>76.441</ele>
        <time>2016-06-02T19:44:33Z</time>
      </trkpt>
      <trkpt lat="47.55102" lon="0.13336">
        <ele>76.769</ele>
        <time>2016-06-02T19:44:13Z</time>
      </trkpt>
      <trkpt lat="47.5511" lon="0.13362">
        <ele>77.863</ele>
        <time>2016-06-02T19:43:53Z</time>
      </trkpt>
      <trkpt lat="47.55174" lon="0.13467">
        <ele>77.42</ele>
        <time>2016-06-02T19:43:33Z</time>
      </trkpt>
      <trkpt lat="47.55174" lon="0.13485">
        <ele>77.095</ele>
        <time>2016-06-02T19:43:13Z</time>
      </trkpt>
      <trkpt lat="47.55221" lon="0.135">
        <ele>81.969</ele>
        <time>2016-06-02T19:42:53Z</time>
      </trkpt>
      <trkpt lat="47.55403" lon="0.13745">
        <ele>79.708</ele>
        <time>2016-06-02T19:42:33Z</time>
      </trkpt>
      <trkpt lat="47.5617" lon="0.153">
        <ele>68.215</ele>
        <time>2016-06-02T19:42:13Z</time>
      </trkpt>
      <trkpt lat="47.56232" lon="0.15377">
        <ele>65.023</ele>
        <time>2016-06-02T19:41:33Z</time>
      </trkpt>
      <trkpt lat="47.56269" lon="0.1545">
        <ele>64.933</ele>
        <time>2016-06-02T19:41:13Z</time>
      </trkpt>
      <trkpt lat="47.56375" lon="0.15353">
        <ele>65.719</ele>
        <time>2016-06-02T19:40:53Z</time>
      </trkpt>
      <trkpt lat="47.56489" lon="0.15241">
        <ele>65.74</ele>
        <time>2016-06-02T19:40:33Z</time>
      </trkpt>
      <trkpt lat="47.56543" lon="0.154">
        <ele>64.554</ele>
        <time>2016-06-02T19:40:13Z</time>
      </trkpt>
      <trkpt lat="47.56558" lon="0.15527">
        <ele>63.942</ele>
        <time>2016-06-02T19:39:53Z</time>
      </trkpt>
      <trkpt lat="47.56562" lon="0.1578">
        <ele>61.856</ele>
        <time>2016-06-02T19:39:33Z</time>
      </trkpt>
      <trkpt lat="47.5663" lon="0.15881">
        <ele>60.553</ele>
        <time>2016-06-02T19:39:13Z</time>
      </trkpt>
      <trkpt lat="47.56763" lon="0.15923">
        <ele>61.238</ele>
        <time>2016-06-02T19:38:53Z</time>
      </trkpt>
      <trkpt lat="47.56758" lon="0.16124">
        <ele>66.312</ele>
        <time>2016-06-02T19:38:33Z</time>
      </trkpt>
      <trkpt lat="47.5681" lon="0.16194">
        <ele>70.208</ele>
        <time>2016-06-02T19:38:13Z</time>
      </trkpt>
      <trkpt lat="47.56858" lon="0.16306">
        <ele>74.013</ele>
        <time>2016-06-02T19:37:53Z</time>
      </trkpt>
      <trkpt lat="47.5693" lon="0.16348">
        <ele>71.521</ele>
        <time>2016-06-02T19:36:33Z</time>
      </trkpt>
      <trkpt lat="47.56988" lon="0.16603">
        <ele>72.261</ele>
        <time>2016-06-02T19:36:13Z</time>
      </trkpt>
      <trkpt lat="47.57202" lon="0.17071">
        <ele>78.397</ele>
        <time>2016-06-02T19:35:53Z</time>
      </trkpt>
      <trkpt lat="47.57574" lon="0.16947">
        <ele>71.118</ele>
        <time>2020-12-24T15:02:55Z</time>
      </trkpt>
      <trkpt lat="47.57694" lon="0.16902">
        <ele>73.232</ele>
        <time>2020-12-24T15:02:35Z</time>
      </trkpt>
      <trkpt lat="47.57956" lon="0.16693">
        <ele>73.99</ele>
        <time>2020-12-24T15:02:15Z</time>
      </trkpt>
      <trkpt lat="47.57953" lon="0.16973">
        <ele>73.454</ele>
        <time>2020-12-24T15:01:55Z</time>
      </trkpt>
      <trkpt lat="47.57927" lon="0.17357">
        <ele>76.481</ele>
        <time>2020-12-24T15:01:35Z</time>
      </trkpt>
      <trkpt lat="47.57988" lon="0.17542">
        <ele>80.756</ele>
        <time>2020-12-24T15:01:15Z</time>
      </trkpt>
      <trkpt lat="47.57975" lon="0.17832">
        <ele>80.31</ele>
        <time>2020-12-24T15:00:55Z</time>
      </trkpt>
      <trkpt lat="47.5794" lon="0.17965">
        <ele>78.608</ele>
        <time>2020-12-24T15:00:35Z</time>
      </trkpt>
      <trkpt lat="47.5794" lon="0.18079">
        <ele>78.414</ele>
        <time>2020-12-24T15:00:15Z</time>
      </trkpt>
      <trkpt lat="47.57978" lon="0.18151">
        <ele>78.322</ele>
        <time>2020-12-24T14:59:55Z</time>
      </trkpt>
      <trkpt lat="47.58076" lon="0.18538">
        <ele>84.942</ele>
        <time>2020-12-24T14:59:35Z</time>
      </trkpt>
      <trkpt lat="47.58144" lon="0.19588">
        <ele>98.081</ele>
        <time>2020-12-24T14:59:15Z</time>
      </trkpt>
      <trkpt lat="47.58479" lon="0.1944">
        <ele>102.092</ele>
        <time>2016-06-02T19:23:33Z</time>
      </trkpt>
      <trkpt lat="47.5873" lon="0.19491">
        <ele>108.256</ele>
        <time>2016-06-02T19:23:13Z</time>
      </trkpt>
      <trkpt lat="47.5879" lon="0.19494">
        <ele>110.494</ele>
        <time>2016-06-02T19:22:53Z</time>
      </trkpt>
      <trkpt lat="47.59234" lon="0.18951">
        <ele>112.118</ele>
        <time>2016-06-02T19:22:33Z</time>
      </trkpt>
      <trkpt lat="47.59636" lon="0.1831">
        <ele>104.975</ele>
        <time>2016-06-02T19:22:13Z</time>
      </trkpt>
      <trkpt lat="47.59672" lon="0.18224">
        <ele>108.32</ele>
        <time>2016-06-02T19:21:53Z</time>
      </trkpt>
      <trkpt lat="47.59804" lon="0.18086">
        <ele>114.034</ele>
        <time>2016-06-02T19:21:33Z</time>
      </trkpt>
      <trkpt lat="47.59905" lon="0.18009">
        <ele>115.008</ele>
        <time>2016-06-02T19:21:13Z</time>
      </trkpt>
      <trkpt lat="47.60281" lon="0.17799">
        <ele>97.017</ele>
        <time>2016-06-02T19:20:53Z</time>
      </trkpt>
      <trkpt lat="47.6034" lon="0.17741">
        <ele>88.461</ele>
        <time>2016-06-02T19:20:33Z</time>
      </trkpt>
      <trkpt lat="47.60391" lon="0.17646">
        <ele>81.481</ele>
        <time>2016-06-02T19:20:13Z</time>
      </trkpt>
      <trkpt lat="47.60485" lon="0.17533">
        <ele>75.062</ele>
        <time>2016-06-02T19:19:53Z</time>
      </trkpt>
      <trkpt lat="47.60629" lon="0.17331">
        <ele>70.743</ele>
        <time>2016-06-02T19:19:33Z</time>
      </trkpt>
      <trkpt lat="47.60671" lon="0.17258">
        <ele>70.117</ele>
        <time>2016-06-02T19:19:13Z</time>
      </trkpt>
      <trkpt lat="47.6077" lon="0.17175">
        <ele>69.375</ele>
        <time>2016-06-02T19:18:53Z</time>
      </trkpt>
      <trkpt lat="47.60821" lon="0.17156">
        <ele>70.019</ele>
        <time>2016-06-02T19:18:33Z</time>
      </trkpt>
      <trkpt lat="47.60934" lon="0.17087">
        <ele>72.626</ele>
        <time>2016-06-02T19:18:13Z</time>
      </trkpt>
      <trkpt lat="47.61071" lon="0.17225">
        <ele>74.051</ele>
        <time>2016-06-02T19:17:53Z</time>
      </trkpt>
      <trkpt lat="47.61259" lon="0.17229">
        <ele>75.065</ele>
        <time>2016-06-02T19:17:33Z</time>
      </trkpt>
      <trkpt lat="47.61341" lon="0.1721">
        <ele>75.008</ele>
        <time>2016-06-02T19:17:13Z</time>
      </trkpt>
      <trkpt lat="47.61367" lon="0.17214">
        <ele>74.825</ele>
        <time>2016-06-02T19:16:53Z</time>
      </trkpt>
      <trkpt lat="47.61379" lon="0.17164">
        <ele>74.423</ele>
        <time>2016-06-02T19:16:33Z</time>
      </trkpt>
      <trkpt lat="47.61423" lon="0.17044">
        <ele>74.897</ele>
        <time>2016-06-02T19:16:13Z</time>
      </trkpt>
      <trkpt lat="47.61518" lon="0.16884">
        <ele>66.061</ele>
        <time>2016-06-02T19:15:53Z</time>
      </trkpt>
      <trkpt lat="47.61578" lon="0.16922">
        <ele>64.092</ele>
        <time>2016-06-02T19:15:33Z</time>
      </trkpt>
      <trkpt lat="47.61654" lon="0.16909">
        <ele>54.176</ele>
        <time>2016-06-02T19:15:13Z</time>
      </trkpt>
      <trkpt lat="47.61707" lon="0.16853">
        <ele>46.044</ele>
        <time>2016-06-02T19:14:53Z</time>
      </trkpt>
      <trkpt lat="47.61781" lon="0.16896">
        <ele>44.648</ele>
        <time>2016-06-02T19:14:33Z</time>
      </trkpt>
      <trkpt lat="47.61854" lon="0.16764">
        <ele>41.115</ele>
        <time>2016-06-02T19:14:13Z</time>
      </trkpt>
      <trkpt lat="47.61876" lon="0.16658">
        <ele>45.29</ele>
        <time>2016-06-02T19:13:53Z</time>
      </trkpt>
      <trkpt lat="47.61864" lon="0.16646">
        <ele>45.684</ele>
        <time>2016-06-02T19:13:33Z</time>
      </trkpt>
      <trkpt lat="47.61919" lon="0.16509">
        <ele>55.808</ele>
        <time>2016-06-02T19:13:13Z</time>
      </trkpt>
      <trkpt lat="47.61967" lon="0.16409">
        <ele>63.617</ele>
        <time>2016-06-02T19:12:53Z</time>
      </trkpt>
      <trkpt lat="47.62005" lon="0.16323">
        <ele>66.161</ele>
        <time>2016-06-02T19:12:33Z</time>
      </trkpt>
      <trkpt lat="47.62059" lon="0.1627">
        <ele>63.081</ele>
        <time>2016-06-02T19:12:13Z</time>
      </trkpt>
      <trkpt lat="47.62073" lon="0.16237">
        <ele>63.251</ele>
        <time>2016-06-02T19:11:53Z</time>
      </trkpt>
      <trkpt lat="47.62101" lon="0.16093">
        <ele>60.352</ele>
        <time>2016-06-02T19:11:33Z</time>
      </trkpt>
      <trkpt lat="47.62122" lon="0.15923">
        <ele>61.816</ele>
        <time>2016-06-02T19:11:13Z</time>
      </trkpt>
      <trkpt lat="47.62169" lon="0.15931">
        <ele>60.644</ele>
        <time>2016-06-02T19:10:53Z</time>
      </trkpt>
      <trkpt lat="47.62282" lon="0.15975">
        <ele>66.368</ele>
        <time>2016-06-02T19:10:33Z</time>
      </trkpt>
      <trkpt lat="47.62349" lon="0.15978">
        <ele>69.455</ele>
        <time>2016-06-02T19:10:13Z</time>
      </trkpt>
      <trkpt lat="47.62392" lon="0.15965">
        <ele>71.05</ele>
        <time>2016-06-02T19:09:53Z</time>
      </trkpt>
      <trkpt lat="47.62707" lon="0.15841">
        <ele>69.734</ele>
        <time>2016-06-02T19:09:33Z</time>
      </trkpt>
      <trkpt lat="47.6283" lon="0.15787">
        <ele>65.008</ele>
        <time>2016-06-02T19:09:13Z</time>
      </trkpt>
      <trkpt lat="47.62912" lon="0.15747">
        <ele>62.117</ele>
        <time>2016-06-02T19:08:53Z</time>
      </trkpt>
      <trkpt lat="47.62997" lon="0.15742">
        <ele>62.261</ele>
        <time>2016-06-02T19:08:33Z</time>
      </trkpt>
      <trkpt lat="47.63126" lon="0.15721">
        <ele>58.581</ele>
        <time>2016-06-02T19:08:13Z</time>
      </trkpt>
      <trkpt lat="47.6321" lon="0.15692">
        <ele>55.999</ele>
        <time>2016-06-02T19:07:53Z</time>
      </trkpt>
      <trkpt lat="47.63617" lon="0.15604">
        <ele>50.49</ele>
        <time>2016-06-02T19:07:33Z</time>
      </trkpt>
      <trkpt lat="47.63791" lon="0.15653">
        <ele>54.364</ele>
        <time>2016-06-02T19:07:13Z</time>
      </trkpt>
      <trkpt lat="47.63954" lon="0.15714">
        <ele>50.042</ele>
        <time>2020-12-24T14:42:15Z</time>
      </trkpt>
      <trkpt lat="47.63973" lon="0.15735">
        <ele>51.036</ele>
        <time>2016-06-02T19:06:33Z</time>
      </trkpt>
      <trkpt lat="47.64036" lon="0.15716">
        <ele>47.953</ele>
        <time>2016-06-02T19:06:13Z</time>
      </trkpt>
      <trkpt lat="47.64103" lon="0.15782">
        <ele>46.938</ele>
        <time>2020-12-24T14:41:15Z</time>
      </trkpt>
      <trkpt lat="47.64204" lon="0.15528">
        <ele>48.352</ele>
        <time>2020-12-24T14:40:55Z</time>
      </trkpt>
      <trkpt lat="47.64303" lon="0.15613">
        <ele>47.008</ele>
        <time>2020-12-24T14:40:35Z</time>
      </trkpt>
      <trkpt lat="47.6444" lon="0.15763">
        <ele>44.211</ele>
        <time>2016-06-02T19:04:13Z</time>
      </trkpt>
      <trkpt lat="47.64513" lon="0.15704">
        <ele>44.383</ele>
        <time>2016-06-02T19:03:53Z</time>
      </trkpt>
      <trkpt lat="47.64581" lon="0.15747">
        <ele>49.762</ele>
        <time>2016-06-02T19:03:33Z</time>
      </trkpt>
      <trkpt lat="47.64581" lon="0.15747">
        <ele>49.762</ele>
        <time>2016-06-02T19:03:33Z</time>
      </trkpt>
      <trkpt lat="47.64726" lon="0.15783">
        <ele>51.09</ele>
        <time>2016-06-02T19:03:13Z</time>
      </trkpt>
      <trkpt lat="47.6481" lon="0.15879">
        <ele>44.971</ele>
        <time>2016-06-02T19:02:53Z</time>
      </trkpt>
      <trkpt lat="47.64811" lon="0.1597">
        <ele>43.475</ele>
        <time>2016-06-02T19:02:33Z</time>
      </trkpt>
      <trkpt lat="47.64934" lon="0.16453">
        <ele>37.123</ele>
        <time>2016-06-02T19:02:13Z</time>
      </trkpt>
      <trkpt lat="47.65028" lon="0.16597">
        <ele>36.057</ele>
        <time>2016-06-02T19:01:53Z</time>
      </trkpt>
      <trkpt lat="47.65101" lon="0.16823">
        <ele>37.594</ele>
        <time>2016-06-02T19:01:33Z</time>
      </trkpt>
      <trkpt lat="47.65226" lon="0.17121">
        <ele>37.049</ele>
        <time>2016-06-02T19:01:13Z</time>
      </trkpt>
      <trkpt lat="47.65264" lon="0.17362">
        <ele>35.033</ele>
        <time>2016-06-02T19:00:53Z</time>
      </trkpt>
      <trkpt lat="47.65294" lon="0.1748">
        <ele>35.708</ele>
        <time>2016-06-02T19:00:33Z</time>
      </trkpt>
      <trkpt lat="47.65472" lon="0.17863">
        <ele>37.126</ele>
        <time>2016-06-02T19:00:13Z</time>
      </trkpt>
      <trkpt lat="47.65541" lon="0.1803">
        <ele>38.633</ele>
        <time>2016-06-02T18:59:53Z</time>
      </trkpt>
      <trkpt lat="47.65641" lon="0.1822">
        <ele>37.078</ele>
        <time>2016-06-02T18:59:33Z</time>
      </trkpt>
      <trkpt lat="47.65668" lon="0.18303">
        <ele>35.11</ele>
        <time>2016-06-02T18:59:13Z</time>
      </trkpt>
      <trkpt lat="47.65694" lon="0.18485">
        <ele>38.031</ele>
        <time>2016-06-02T18:58:53Z</time>
      </trkpt>
      <trkpt lat="47.65698" lon="0.18575">
        <ele>36.435</ele>
        <time>2016-06-02T18:58:33Z</time>
      </trkpt>
      <trkpt lat="47.65726" lon="0.18718">
        <ele>37.023</ele>
        <time>2016-06-02T18:58:13Z</time>
      </trkpt>
      <trkpt lat="47.6574" lon="0.18848">
        <ele>37.687</ele>
        <time>2016-06-02T18:57:53Z</time>
      </trkpt>
      <trkpt lat="47.65847" lon="0.19089">
        <ele>42.214</ele>
        <time>2016-06-02T18:57:33Z</time>
      </trkpt>
      <trkpt lat="47.65872" lon="0.19137">
        <ele>45.339</ele>
        <time>2016-06-02T18:57:13Z</time>
      </trkpt>
      <trkpt lat="47.65928" lon="0.19246">
        <ele>58.173</ele>
        <time>2016-06-02T18:56:53Z</time>
      </trkpt>
      <trkpt lat="47.65907" lon="0.19291">
        <ele>58.708</ele>
        <time>2016-06-02T18:56:33Z</time>
      </trkpt>
      <trkpt lat="47.65902" lon="0.19376">
        <ele>65.827</ele>
        <time>2016-06-02T18:56:13Z</time>
      </trkpt>
      <trkpt lat="47.65887" lon="0.19472">
        <ele>72.961</ele>
        <time>2016-06-02T18:55:53Z</time>
      </trkpt>
      <trkpt lat="47.65923" lon="0.19588">
        <ele>74.077</ele>
        <time>2016-06-02T18:55:33Z</time>
      </trkpt>
      <trkpt lat="47.65959" lon="0.19652">
        <ele>76.04</ele>
        <time>2016-06-02T18:55:13Z</time>
      </trkpt>
      <trkpt lat="47.65999" lon="0.19735">
        <ele>80.441</ele>
        <time>2016-06-02T18:54:53Z</time>
      </trkpt>
      <trkpt lat="47.66031" lon="0.19853">
        <ele>85.545</ele>
        <time>2016-06-02T18:54:33Z</time>
      </trkpt>
      <trkpt lat="47.66064" lon="0.19931">
        <ele>83.893</ele>
        <time>2016-06-02T18:54:13Z</time>
      </trkpt>
      <trkpt lat="47.66115" lon="0.20073">
        <ele>80.547</ele>
        <time>2016-06-02T18:53:53Z</time>
      </trkpt>
      <trkpt lat="47.66146" lon="0.20228">
        <ele>85.764</ele>
        <time>2016-06-02T18:53:33Z</time>
      </trkpt>
      <trkpt lat="47.66229" lon="0.20308">
        <ele>86.139</ele>
        <time>2016-06-02T18:53:13Z</time>
      </trkpt>
      <trkpt lat="47.66306" lon="0.20447">
        <ele>90.773</ele>
        <time>2016-06-02T18:52:53Z</time>
      </trkpt>
      <trkpt lat="47.66327" lon="0.20498">
        <ele>85.408</ele>
        <time>2016-06-02T18:52:33Z</time>
      </trkpt>
      <trkpt lat="47.6641" lon="0.20537">
        <ele>79.026</ele>
        <time>2016-06-02T18:52:13Z</time>
      </trkpt>
      <trkpt lat="47.66477" lon="0.20555">
        <ele>75.733</ele>
        <time>2016-06-02T18:51:53Z</time>
      </trkpt>
      <trkpt lat="47.66574" lon="0.20621">
        <ele>70.578</ele>
        <time>2016-06-02T18:51:33Z</time>
      </trkpt>
      <trkpt lat="47.66613" lon="0.20649">
        <ele>68.511</ele>
        <time>2016-06-02T18:51:13Z</time>
      </trkpt>
      <trkpt lat="47.66665" lon="0.20707">
        <ele>67.592</ele>
        <time>2016-06-02T18:50:53Z</time>
      </trkpt>
      <trkpt lat="47.66775" lon="0.20752">
        <ele>67.216</ele>
        <time>2016-06-02T18:50:33Z</time>
      </trkpt>
      <trkpt lat="47.66844" lon="0.20772">
        <ele>75.734</ele>
        <time>2016-06-02T18:50:13Z</time>
      </trkpt>
      <trkpt lat="47.66887" lon="0.20741">
        <ele>79.578</ele>
        <time>2016-06-02T18:49:53Z</time>
      </trkpt>
      <trkpt lat="47.6693" lon="0.2073">
        <ele>81.345</ele>
        <time>2016-06-02T18:49:33Z</time>
      </trkpt>
      <trkpt lat="47.66967" lon="0.20699">
        <ele>78.55</ele>
        <time>2016-06-02T18:49:13Z</time>
      </trkpt>
      <trkpt lat="47.67072" lon="0.20898">
        <ele>87.424</ele>
        <time>2016-06-02T18:48:53Z</time>
      </trkpt>
      <trkpt lat="47.67092" lon="0.20962">
        <ele>94.408</ele>
        <time>2016-06-02T18:48:33Z</time>
      </trkpt>
      <trkpt lat="47.67172" lon="0.2071">
        <ele>88.417</ele>
        <time>2016-06-02T18:48:13Z</time>
      </trkpt>
      <trkpt lat="47.67215" lon="0.20665">
        <ele>86.089</ele>
        <time>2016-06-02T18:47:53Z</time>
      </trkpt>
      <trkpt lat="47.6756" lon="0.20184">
        <ele>80.885</ele>
        <time>2016-06-02T18:47:33Z</time>
      </trkpt>
      <trkpt lat="47.67641" lon="0.19997">
        <ele>80.885</ele>
        <time>2016-06-02T18:47:13Z</time>
      </trkpt>
      <trkpt lat="47.6767" lon="0.1997">
        <ele>79.656</ele>
        <time>2016-06-02T18:46:53Z</time>
      </trkpt>
      <trkpt lat="47.6773" lon="0.19933">
        <ele>76.46</ele>
        <time>2016-06-02T18:46:33Z</time>
      </trkpt>
      <trkpt lat="47.6777" lon="0.19869">
        <ele>78.058</ele>
        <time>2016-06-02T18:46:13Z</time>
      </trkpt>
      <trkpt lat="47.67777" lon="0.19702">
        <ele>84.782</ele>
        <time>2016-06-02T18:45:53Z</time>
      </trkpt>
      <trkpt lat="47.67782" lon="0.19604">
        <ele>80.169</ele>
        <time>2016-06-02T18:45:33Z</time>
      </trkpt>
      <trkpt lat="47.6778" lon="0.1955">
        <ele>77.854</ele>
        <time>2016-06-02T18:45:13Z</time>
      </trkpt>
      <trkpt lat="47.67797" lon="0.19544">
        <ele>77.628</ele>
        <time>2016-06-02T18:44:53Z</time>
      </trkpt>
      <trkpt lat="47.67899" lon="0.1973">
        <ele>79.708</ele>
        <time>2016-06-02T18:44:33Z</time>
      </trkpt>
      <trkpt lat="47.68027" lon="0.19923">
        <ele>79.805</ele>
        <time>2016-06-02T18:44:13Z</time>
      </trkpt>
      <trkpt lat="47.68069" lon="0.1997">
        <ele>82.141</ele>
        <time>2016-06-02T18:43:53Z</time>
      </trkpt>
      <trkpt lat="47.68069" lon="0.1997">
        <ele>82.121</ele>
        <time>2016-06-02T18:43:33Z</time>
      </trkpt>
      <trkpt lat="47.68069" lon="0.1997">
        <ele>82.184</ele>
        <time>2016-06-02T18:43:13Z</time>
      </trkpt>
      <trkpt lat="47.681" lon="0.19992">
        <ele>83.245</ele>
        <time>2016-06-02T18:42:53Z</time>
      </trkpt>
      <trkpt lat="47.68191" lon="0.20032">
        <ele>80.839</ele>
        <time>2016-06-02T18:42:33Z</time>
      </trkpt>
      <trkpt lat="47.68191" lon="0.20032">
        <ele>80.897</ele>
        <time>2016-06-02T18:42:13Z</time>
      </trkpt>
      <trkpt lat="47.68282" lon="0.20186">
        <ele>78.321</ele>
        <time>2016-06-02T18:41:53Z</time>
      </trkpt>
      <trkpt lat="47.68305" lon="0.20127">
        <ele>77.618</ele>
        <time>2016-06-02T18:41:33Z</time>
      </trkpt>
      <trkpt lat="47.68414" lon="0.20056">
        <ele>79.813</ele>
        <time>2016-06-02T18:41:13Z</time>
      </trkpt>
      <trkpt lat="47.68531" lon="0.19999">
        <ele>81.997</ele>
        <time>2016-06-02T18:40:53Z</time>
      </trkpt>
      <trkpt lat="47.68531" lon="0.20039">
        <ele>79.708</ele>
        <time>2016-06-02T18:40:33Z</time>
      </trkpt>
      <trkpt lat="47.68572" lon="0.20103">
        <ele>73.611</ele>
        <time>2016-06-02T18:40:13Z</time>
      </trkpt>
      <trkpt lat="47.68586" lon="0.20169">
        <ele>68.865</ele>
        <time>2016-06-02T18:39:53Z</time>
      </trkpt>
      <trkpt lat="47.68611" lon="0.20191">
        <ele>67.115</ele>
        <time>2016-06-02T18:39:33Z</time>
      </trkpt>
      <trkpt lat="47.68753" lon="0.20377">
        <ele>54.98</ele>
        <time>2016-06-02T18:39:13Z</time>
      </trkpt>
      <trkpt lat="47.68948" lon="0.20119">
        <ele>54.991</ele>
        <time>2016-06-02T18:38:53Z</time>
      </trkpt>
      <trkpt lat="47.69016" lon="0.20252">
        <ele>55.495</ele>
        <time>2016-06-02T18:38:33Z</time>
      </trkpt>
      <trkpt lat="47.69063" lon="0.20295">
        <ele>53.383</ele>
        <time>2016-06-02T18:38:13Z</time>
      </trkpt>
      <trkpt lat="47.69183" lon="0.20356">
        <ele>53.467</ele>
        <time>2016-06-02T18:37:53Z</time>
      </trkpt>
      <trkpt lat="47.69164" lon="0.20478">
        <ele>55.944</ele>
        <time>2016-06-02T18:37:33Z</time>
      </trkpt>
      <trkpt lat="47.69106" lon="0.20532">
        <ele>53.229</ele>
        <time>2016-06-02T18:37:13Z</time>
      </trkpt>
      <trkpt lat="47.69155" lon="0.20661">
        <ele>55.143</ele>
        <time>2016-06-02T18:36:53Z</time>
      </trkpt>
      <trkpt lat="47.69119" lon="0.20809">
        <ele>51.008</ele>
        <time>2016-06-02T18:36:33Z</time>
      </trkpt>
      <trkpt lat="47.69091" lon="0.20854">
        <ele>51.215</ele>
        <time>2016-06-02T18:36:13Z</time>
      </trkpt>
      <trkpt lat="47.69071" lon="0.20935">
        <ele>50.541</ele>
        <time>2016-06-02T18:35:53Z</time>
      </trkpt>
      <trkpt lat="47.69041" lon="0.21011">
        <ele>51.271</ele>
        <time>2016-06-02T18:35:33Z</time>
      </trkpt>
      <trkpt lat="47.69023" lon="0.21147">
        <ele>52.226</ele>
        <time>2016-06-02T18:35:13Z</time>
      </trkpt>
      <trkpt lat="47.69028" lon="0.21227">
        <ele>53.017</ele>
        <time>2016-06-02T18:34:53Z</time>
      </trkpt>
      <trkpt lat="47.69047" lon="0.21298">
        <ele>53.761</ele>
        <time>2016-06-02T18:34:33Z</time>
      </trkpt>
      <trkpt lat="47.69039" lon="0.21354">
        <ele>54.469</ele>
        <time>2016-06-02T18:34:13Z</time>
      </trkpt>
      <trkpt lat="47.69084" lon="0.21389">
        <ele>54.083</ele>
        <time>2016-06-02T18:33:53Z</time>
      </trkpt>
      <trkpt lat="47.69118" lon="0.21429">
        <ele>57.17</ele>
        <time>2016-06-02T18:33:33Z</time>
      </trkpt>
      <trkpt lat="47.69146" lon="0.2148">
        <ele>59.715</ele>
        <time>2016-06-02T18:33:13Z</time>
      </trkpt>
      <trkpt lat="47.6918" lon="0.21494">
        <ele>58.529</ele>
        <time>2016-06-02T18:32:53Z</time>
      </trkpt>
      <trkpt lat="47.69278" lon="0.21596">
        <ele>56.008</ele>
        <time>2016-06-02T18:32:33Z</time>
      </trkpt>
      <trkpt lat="47.69305" lon="0.21647">
        <ele>57.015</ele>
        <time>2016-06-02T18:32:13Z</time>
      </trkpt>
      <trkpt lat="47.69339" lon="0.21698">
        <ele>59.123</ele>
        <time>2016-06-02T18:31:53Z</time>
      </trkpt>
      <trkpt lat="47.69397" lon="0.21702">
        <ele>59.533</ele>
        <time>2016-06-02T18:31:33Z</time>
      </trkpt>
      <trkpt lat="47.69467" lon="0.2175">
        <ele>59.066</ele>
        <time>2016-06-02T18:31:13Z</time>
      </trkpt>
      <trkpt lat="47.69529" lon="0.21791">
        <ele>58.137</ele>
        <time>2016-06-02T18:30:53Z</time>
      </trkpt>
      <trkpt lat="47.69607" lon="0.21821">
        <ele>58.791</ele>
        <time>2016-06-02T18:30:33Z</time>
      </trkpt>
      <trkpt lat="47.69702" lon="0.21875">
        <ele>58.989</ele>
        <time>2016-06-02T18:30:13Z</time>
      </trkpt>
      <trkpt lat="47.69796" lon="0.21946">
        <ele>60.173</ele>
        <time>2016-06-02T18:29:53Z</time>
      </trkpt>
      <trkpt lat="47.69868" lon="0.21978">
        <ele>60.88</ele>
        <time>2016-06-02T18:29:33Z</time>
      </trkpt>
      <trkpt lat="47.69941" lon="0.21998">
        <ele>60.075</ele>
        <time>2016-06-02T18:29:13Z</time>
      </trkpt>
      <trkpt lat="47.70003" lon="0.21986">
        <ele>59.529</ele>
        <time>2016-06-02T18:28:53Z</time>
      </trkpt>
      <trkpt lat="47.70097" lon="0.21915">
        <ele>60.408</ele>
        <time>2016-06-02T18:28:33Z</time>
      </trkpt>
      <trkpt lat="47.70173" lon="0.21888">
        <ele>61.407</ele>
        <time>2016-06-02T18:28:13Z</time>
      </trkpt>
      <trkpt lat="47.702" lon="0.22078">
        <ele>61.661</ele>
        <time>2016-06-02T18:27:53Z</time>
      </trkpt>
      <trkpt lat="47.702" lon="0.22181">
        <ele>58.531</ele>
        <time>2016-06-02T18:27:33Z</time>
      </trkpt>
      <trkpt lat="47.70248" lon="0.22385">
        <ele>59.161</ele>
        <time>2016-06-02T18:27:13Z</time>
      </trkpt>
      <trkpt lat="47.70345" lon="0.22445">
        <ele>58.632</ele>
        <time>2016-06-02T18:26:53Z</time>
      </trkpt>
      <trkpt lat="47.70422" lon="0.22473">
        <ele>59.026</ele>
        <time>2016-06-02T18:26:33Z</time>
      </trkpt>
      <trkpt lat="47.70465" lon="0.22425">
        <ele>60.794</ele>
        <time>2016-06-02T18:26:13Z</time>
      </trkpt>
      <trkpt lat="47.70501" lon="0.22307">
        <ele>62.028</ele>
        <time>2016-06-02T18:25:53Z</time>
      </trkpt>
      <trkpt lat="47.70575" lon="0.22326">
        <ele>63.755</ele>
        <time>2016-06-02T18:25:33Z</time>
      </trkpt>
      <trkpt lat="47.70688" lon="0.22332">
        <ele>72.33</ele>
        <time>2016-06-02T18:25:13Z</time>
      </trkpt>
      <trkpt lat="47.70719" lon="0.22436">
        <ele>76.594</ele>
        <time>2016-06-02T18:24:53Z</time>
      </trkpt>
      <trkpt lat="47.70828" lon="0.22408">
        <ele>79.008</ele>
        <time>2016-06-02T18:24:33Z</time>
      </trkpt>
      <trkpt lat="47.70932" lon="0.22447">
        <ele>79.017</ele>
        <time>2016-06-02T18:24:13Z</time>
      </trkpt>
      <trkpt lat="47.71082" lon="0.22456">
        <ele>80.007</ele>
        <time>2016-06-02T18:23:53Z</time>
      </trkpt>
      <trkpt lat="47.71084" lon="0.22645">
        <ele>77.884</ele>
        <time>2016-06-02T18:23:33Z</time>
      </trkpt>
      <trkpt lat="47.71076" lon="0.22799">
        <ele>78.086</ele>
        <time>2016-06-02T18:23:13Z</time>
      </trkpt>
      <trkpt lat="47.71064" lon="0.22889">
        <ele>76.067</ele>
        <time>2016-06-02T18:22:53Z</time>
      </trkpt>
      <trkpt lat="47.71066" lon="0.22926">
        <ele>75.391</ele>
        <time>2016-06-02T18:22:33Z</time>
      </trkpt>
      <trkpt lat="47.70999" lon="0.22981">
        <ele>74.799</ele>
        <time>2016-06-02T18:22:13Z</time>
      </trkpt>
      <trkpt lat="47.70969" lon="0.23056">
        <ele>72.093</ele>
        <time>2016-06-02T18:21:53Z</time>
      </trkpt>
      <trkpt lat="47.70934" lon="0.23114">
        <ele>69.56</ele>
        <time>2016-06-02T18:21:33Z</time>
      </trkpt>
      <trkpt lat="47.70944" lon="0.2313">
        <ele>69.365</ele>
        <time>2016-06-02T18:20:53Z</time>
      </trkpt>
      <trkpt lat="47.70942" lon="0.2319">
        <ele>68.999</ele>
        <time>2016-06-02T18:20:33Z</time>
      </trkpt>
      <trkpt lat="47.70952" lon="0.23259">
        <ele>68.508</ele>
        <time>2016-06-02T18:20:13Z</time>
      </trkpt>
      <trkpt lat="47.70943" lon="0.23322">
        <ele>70.221</ele>
        <time>2016-06-02T18:19:53Z</time>
      </trkpt>
      <trkpt lat="47.70939" lon="0.23479">
        <ele>76.101</ele>
        <time>2016-06-02T18:19:33Z</time>
      </trkpt>
      <trkpt lat="47.70985" lon="0.23497">
        <ele>76.439</ele>
        <time>2016-06-02T18:19:13Z</time>
      </trkpt>
      <trkpt lat="47.71065" lon="0.2356">
        <ele>79.812</ele>
        <time>2016-06-02T18:18:53Z</time>
      </trkpt>
      <trkpt lat="47.71104" lon="0.2361">
        <ele>86.623</ele>
        <time>2016-06-02T18:18:33Z</time>
      </trkpt>
      <trkpt lat="47.7115" lon="0.23683">
        <ele>90.667</ele>
        <time>2016-06-02T18:18:13Z</time>
      </trkpt>
      <trkpt lat="47.71217" lon="0.23737">
        <ele>89.985</ele>
        <time>2016-06-02T18:17:53Z</time>
      </trkpt>
      <trkpt lat="47.71386" lon="0.23923">
        <ele>87.819</ele>
        <time>2016-06-02T18:17:33Z</time>
      </trkpt>
      <trkpt lat="47.7132" lon="0.24079">
        <ele>85.626</ele>
        <time>2016-06-02T18:17:13Z</time>
      </trkpt>
      <trkpt lat="47.71347" lon="0.24129">
        <ele>85.391</ele>
        <time>2016-06-02T18:16:53Z</time>
      </trkpt>
      <trkpt lat="47.71398" lon="0.24284">
        <ele>83.885</ele>
        <time>2016-06-02T18:16:33Z</time>
      </trkpt>
      <trkpt lat="47.71416" lon="0.24393">
        <ele>80.908</ele>
        <time>2016-06-02T18:16:13Z</time>
      </trkpt>
      <trkpt lat="47.7149" lon="0.24555">
        <ele>75.019</ele>
        <time>2016-06-02T18:15:53Z</time>
      </trkpt>
      <trkpt lat="47.715" lon="0.2466">
        <ele>69.281</ele>
        <time>2016-06-02T18:15:33Z</time>
      </trkpt>
      <trkpt lat="47.71466" lon="0.24774">
        <ele>65.991</ele>
        <time>2016-06-02T18:15:13Z</time>
      </trkpt>
      <trkpt lat="47.71463" lon="0.24832">
        <ele>65.748</ele>
        <time>2016-06-02T18:14:33Z</time>
      </trkpt>
      <trkpt lat="47.71458" lon="0.2495">
        <ele>65.459</ele>
        <time>2016-06-02T18:14:13Z</time>
      </trkpt>
      <trkpt lat="47.71509" lon="0.24937">
        <ele>65.063</ele>
        <time>2016-06-02T18:13:53Z</time>
      </trkpt>
      <trkpt lat="47.7155" lon="0.24965">
        <ele>67.311</ele>
        <time>2016-06-02T18:13:33Z</time>
      </trkpt>
      <trkpt lat="47.71579" lon="0.25014">
        <ele>72.395</ele>
        <time>2016-06-02T18:13:13Z</time>
      </trkpt>
      <trkpt lat="47.71638" lon="0.25052">
        <ele>76.832</ele>
        <time>2016-06-02T18:12:53Z</time>
      </trkpt>
      <trkpt lat="47.71707" lon="0.25131">
        <ele>80.857</ele>
        <time>2016-06-02T18:12:33Z</time>
      </trkpt>
      <trkpt lat="47.71735" lon="0.25245">
        <ele>83.041</ele>
        <time>2016-06-02T18:12:13Z</time>
      </trkpt>
      <trkpt lat="47.71704" lon="0.25318">
        <ele>87.508</ele>
        <time>2016-06-02T18:11:53Z</time>
      </trkpt>
      <trkpt lat="47.71726" lon="0.25404">
        <ele>83.217</ele>
        <time>2016-06-02T18:11:33Z</time>
      </trkpt>
      <trkpt lat="47.7172" lon="0.25485">
        <ele>79.752</ele>
        <time>2016-06-02T18:11:13Z</time>
      </trkpt>
      <trkpt lat="47.71892" lon="0.25827">
        <ele>66.058</ele>
        <time>2016-06-02T18:10:53Z</time>
      </trkpt>
      <trkpt lat="47.71924" lon="0.25908">
        <ele>65.381</ele>
        <time>2016-06-02T18:10:33Z</time>
      </trkpt>
      <trkpt lat="47.71996" lon="0.2592">
        <ele>64.142</ele>
        <time>2016-06-02T18:10:13Z</time>
      </trkpt>
      <trkpt lat="47.7198" lon="0.26015">
        <ele>66.966</ele>
        <time>2016-06-02T18:09:53Z</time>
      </trkpt>
      <trkpt lat="47.71988" lon="0.26145">
        <ele>63.984</ele>
        <time>2016-06-02T18:09:33Z</time>
      </trkpt>
      <trkpt lat="47.71999" lon="0.26431">
        <ele>67.078</ele>
        <time>2016-06-02T18:09:13Z</time>
      </trkpt>
      <trkpt lat="47.71966" lon="0.26546">
        <ele>65.185</ele>
        <time>2016-06-02T18:08:53Z</time>
      </trkpt>
      <trkpt lat="47.72066" lon="0.26639">
        <ele>65.85</ele>
        <time>2016-06-02T18:08:13Z</time>
      </trkpt>
      <trkpt lat="47.7208" lon="0.2668">
        <ele>66.954</ele>
        <time>2016-06-02T18:07:53Z</time>
      </trkpt>
      <trkpt lat="47.72146" lon="0.26719">
        <ele>70.408</ele>
        <time>2016-06-02T18:07:33Z</time>
      </trkpt>
      <trkpt lat="47.72169" lon="0.26792">
        <ele>69.026</ele>
        <time>2016-06-02T18:07:13Z</time>
      </trkpt>
      <trkpt lat="47.7225" lon="0.27017">
        <ele>69.024</ele>
        <time>2016-06-02T18:06:53Z</time>
      </trkpt>
      <trkpt lat="47.72281" lon="0.27203">
        <ele>78.188</ele>
        <time>2016-06-02T18:06:33Z</time>
      </trkpt>
      <trkpt lat="47.72298" lon="0.27409">
        <ele>75.468</ele>
        <time>2016-06-02T18:06:13Z</time>
      </trkpt>
      <trkpt lat="47.72331" lon="0.27554">
        <ele>77.139</ele>
        <time>2016-06-02T18:05:53Z</time>
      </trkpt>
      <trkpt lat="47.7241" lon="0.27739">
        <ele>71.183</ele>
        <time>2016-06-02T18:05:33Z</time>
      </trkpt>
      <trkpt lat="47.72468" lon="0.27844">
        <ele>75.091</ele>
        <time>2016-06-02T18:05:13Z</time>
      </trkpt>
      <trkpt lat="47.72501" lon="0.27925">
        <ele>79.145</ele>
        <time>2016-06-02T18:04:53Z</time>
      </trkpt>
      <trkpt lat="47.72563" lon="0.28108">
        <ele>82.652</ele>
        <time>2016-06-02T18:04:33Z</time>
      </trkpt>
      <trkpt lat="47.72668" lon="0.28326">
        <ele>79.047</ele>
        <time>2016-06-02T18:04:13Z</time>
      </trkpt>
      <trkpt lat="47.72702" lon="0.28383">
        <ele>77.751</ele>
        <time>2016-06-02T18:03:53Z</time>
      </trkpt>
      <trkpt lat="47.72726" lon="0.28433">
        <ele>78.608</ele>
        <time>2016-06-02T18:03:33Z</time>
      </trkpt>
      <trkpt lat="47.72712" lon="0.28493">
        <ele>81.814</ele>
        <time>2016-06-02T18:03:13Z</time>
      </trkpt>
      <trkpt lat="47.72766" lon="0.28588">
        <ele>80.604</ele>
        <time>2016-06-02T18:02:53Z</time>
      </trkpt>
      <trkpt lat="47.72914" lon="0.28389">
        <ele>84.053</ele>
        <time>2016-06-02T18:02:33Z</time>
      </trkpt>
      <trkpt lat="47.72986" lon="0.28335">
        <ele>81.016</ele>
        <time>2016-06-02T18:02:13Z</time>
      </trkpt>
      <trkpt lat="47.73045" lon="0.28341">
        <ele>85.947</ele>
        <time>2016-06-02T18:01:53Z</time>
      </trkpt>
      <trkpt lat="47.73031" lon="0.28294">
        <ele>84.351</ele>
        <time>2016-06-02T18:01:33Z</time>
      </trkpt>
      <trkpt lat="47.73067" lon="0.28263">
        <ele>86.589</ele>
        <time>2016-06-02T18:01:13Z</time>
      </trkpt>
      <trkpt lat="47.73089" lon="0.28314">
        <ele>89.583</ele>
        <time>2016-06-02T18:00:53Z</time>
      </trkpt>
      <trkpt lat="47.7314" lon="0.28299">
        <ele>94.92</ele>
        <time>2016-06-02T18:00:33Z</time>
      </trkpt>
      <trkpt lat="47.73196" lon="0.28251">
        <ele>96.035</ele>
        <time>2016-06-02T18:00:13Z</time>
      </trkpt>
      <trkpt lat="47.73222" lon="0.28256">
        <ele>95.289</ele>
        <time>2016-06-02T17:59:53Z</time>
      </trkpt>
      <trkpt lat="47.73385" lon="0.28036">
        <ele>85.508</ele>
        <time>2016-06-02T17:59:33Z</time>
      </trkpt>
      <trkpt lat="47.73599" lon="0.27839">
        <ele>77.014</ele>
        <time>2016-06-02T17:59:13Z</time>
      </trkpt>
      <trkpt lat="47.73599" lon="0.27839">
        <ele>77.086</ele>
        <time>2016-06-02T17:58:53Z</time>
      </trkpt>
      <trkpt lat="47.7382" lon="0.2776">
        <ele>82.035</ele>
        <time>2016-06-02T17:58:33Z</time>
      </trkpt>
      <trkpt lat="47.7391" lon="0.27712">
        <ele>91.325</ele>
        <time>2016-06-02T17:58:13Z</time>
      </trkpt>
      <trkpt lat="47.74006" lon="0.27727">
        <ele>99.396</ele>
        <time>2016-06-02T17:57:53Z</time>
      </trkpt>
      <trkpt lat="47.74053" lon="0.27715">
        <ele>101.91</ele>
        <time>2016-06-02T17:57:33Z</time>
      </trkpt>
      <trkpt lat="47.74114" lon="0.27669">
        <ele>103.018</ele>
        <time>2016-06-02T17:56:33Z</time>
      </trkpt>
      <trkpt lat="47.74247" lon="0.27527">
        <ele>102.282</ele>
        <time>2016-06-02T17:56:13Z</time>
      </trkpt>
      <trkpt lat="47.74278" lon="0.27517">
        <ele>98.089</ele>
        <time>2016-06-02T17:55:53Z</time>
      </trkpt>
      <trkpt lat="47.74313" lon="0.27588">
        <ele>96.564</ele>
        <time>2016-06-02T17:55:33Z</time>
      </trkpt>
      <trkpt lat="47.7435" lon="0.27689">
        <ele>94.478</ele>
        <time>2016-06-02T17:55:13Z</time>
      </trkpt>
      <trkpt lat="47.74431" lon="0.27677">
        <ele>90.508</ele>
        <time>2016-06-02T17:54:53Z</time>
      </trkpt>
      <trkpt lat="47.7444" lon="0.27658">
        <ele>89.805</ele>
        <time>2016-06-02T17:54:33Z</time>
      </trkpt>
      <trkpt lat="47.74471" lon="0.27642">
        <ele>88.241</ele>
        <time>2016-06-02T17:54:13Z</time>
      </trkpt>
      <trkpt lat="47.74623" lon="0.27593">
        <ele>82.021</ele>
        <time>2016-06-02T17:53:53Z</time>
      </trkpt>
      <trkpt lat="47.74801" lon="0.27518">
        <ele>82.499</ele>
        <time>2016-06-02T17:53:33Z</time>
      </trkpt>
      <trkpt lat="47.74896" lon="0.275">
        <ele>85.73</ele>
        <time>2016-06-02T17:53:13Z</time>
      </trkpt>
      <trkpt lat="47.7494" lon="0.27477">
        <ele>82.454</ele>
        <time>2016-06-02T17:52:53Z</time>
      </trkpt>
      <trkpt lat="47.75062" lon="0.27461">
        <ele>83.392</ele>
        <time>2016-06-02T17:52:33Z</time>
      </trkpt>
      <trkpt lat="47.75102" lon="0.27447">
        <ele>83.166</ele>
        <time>2016-06-02T17:52:13Z</time>
      </trkpt>
      <trkpt lat="47.75201" lon="0.27342">
        <ele>83.393</ele>
        <time>2016-06-02T17:51:53Z</time>
      </trkpt>
      <trkpt lat="47.75269" lon="0.27314">
        <ele>82.748</ele>
        <time>2016-06-02T17:51:33Z</time>
      </trkpt>
      <trkpt lat="47.75344" lon="0.27333">
        <ele>84.652</ele>
        <time>2016-06-02T17:51:13Z</time>
      </trkpt>
      <trkpt lat="47.75404" lon="0.27284">
        <ele>82.108</ele>
        <time>2016-06-02T17:50:53Z</time>
      </trkpt>
      <trkpt lat="47.75516" lon="0.27244">
        <ele>77.021</ele>
        <time>2016-06-02T17:50:33Z</time>
      </trkpt>
      <trkpt lat="47.75624" lon="0.27237">
        <ele>75.029</ele>
        <time>2020-12-24T13:27:55Z</time>
      </trkpt>
      <trkpt lat="47.75757" lon="0.27211">
        <ele>73.566</ele>
        <time>2020-12-24T13:27:35Z</time>
      </trkpt>
      <trkpt lat="47.75806" lon="0.27304">
        <ele>74.886</ele>
        <time>2020-12-24T13:27:15Z</time>
      </trkpt>
      <trkpt lat="47.7584" lon="0.27333">
        <ele>76.167</ele>
        <time>2020-12-24T13:26:55Z</time>
      </trkpt>
      <trkpt lat="47.75823" lon="0.27412">
        <ele>75.981</ele>
        <time>2020-12-24T13:26:35Z</time>
      </trkpt>
      <trkpt lat="47.75936" lon="0.27432">
        <ele>79.289</ele>
        <time>2020-12-24T13:26:15Z</time>
      </trkpt>
      <trkpt lat="47.7594" lon="0.27478">
        <ele>79.923</ele>
        <time>2020-12-24T13:25:55Z</time>
      </trkpt>
      <trkpt lat="47.75955" lon="0.27535">
        <ele>80.92</ele>
        <time>2020-12-24T13:25:35Z</time>
      </trkpt>
      <trkpt lat="47.75975" lon="0.27655">
        <ele>80.695</ele>
        <time>2020-12-24T13:25:15Z</time>
      </trkpt>
      <trkpt lat="47.75984" lon="0.27753">
        <ele>81.819</ele>
        <time>2020-12-24T13:24:55Z</time>
      </trkpt>
      <trkpt lat="47.76" lon="0.2795">
        <ele>83.608</ele>
        <time>2020-12-24T13:24:35Z</time>
      </trkpt>
      <trkpt lat="47.76008" lon="0.28123">
        <ele>84.021</ele>
        <time>2020-12-24T13:24:15Z</time>
      </trkpt>
      <trkpt lat="47.761" lon="0.28114">
        <ele>84.201</ele>
        <time>2020-12-24T13:23:55Z</time>
      </trkpt>
      <trkpt lat="47.76117" lon="0.2808">
        <ele>84.039</ele>
        <time>2020-12-24T13:23:35Z</time>
      </trkpt>
      <trkpt lat="47.76172" lon="0.28073">
        <ele>84.347</ele>
        <time>2020-12-24T13:23:15Z</time>
      </trkpt>
      <trkpt lat="47.76172" lon="0.28039">
        <ele>84.758</ele>
        <time>2020-12-24T13:22:55Z</time>
      </trkpt>
      <trkpt lat="47.76207" lon="0.28029">
        <ele>85.572</ele>
        <time>2020-12-24T13:22:35Z</time>
      </trkpt>
      <trkpt lat="47.76246" lon="0.2819">
        <ele>84.43</ele>
        <time>2020-12-24T13:22:15Z</time>
      </trkpt>
      <trkpt lat="47.76258" lon="0.28292">
        <ele>82.614</ele>
        <time>2020-12-24T13:21:55Z</time>
      </trkpt>
      <trkpt lat="47.76259" lon="0.28352">
        <ele>82.631</ele>
        <time>2020-12-24T13:21:35Z</time>
      </trkpt>
      <trkpt lat="47.76239" lon="0.28436">
        <ele>84.586</ele>
        <time>2020-12-24T13:21:15Z</time>
      </trkpt>
      <trkpt lat="47.76251" lon="0.2848">
        <ele>86.31</ele>
        <time>2020-12-24T13:20:55Z</time>
      </trkpt>
      <trkpt lat="47.76251" lon="0.28545">
        <ele>89.208</ele>
        <time>2020-12-24T13:20:35Z</time>
      </trkpt>
      <trkpt lat="47.76244" lon="0.28571">
        <ele>90.321</ele>
        <time>2020-12-24T13:20:15Z</time>
      </trkpt>
      <trkpt lat="47.76261" lon="0.28627">
        <ele>92.529</ele>
        <time>2020-12-24T13:19:55Z</time>
      </trkpt>
      <trkpt lat="47.76272" lon="0.28695">
        <ele>95.747</ele>
        <time>2020-12-24T13:19:35Z</time>
      </trkpt>
      <trkpt lat="47.76225" lon="0.28711">
        <ele>94.689</ele>
        <time>2020-12-24T13:19:15Z</time>
      </trkpt>
      <trkpt lat="47.76231" lon="0.2875">
        <ele>96.69</ele>
        <time>2020-12-24T13:18:55Z</time>
      </trkpt>
      <trkpt lat="47.7614" lon="0.28745">
        <ele>90.664</ele>
        <time>2020-12-24T13:18:35Z</time>
      </trkpt>
      <trkpt lat="47.76134" lon="0.2872">
        <ele>89.842</ele>
        <time>2016-06-02T17:47:13Z</time>
      </trkpt>
      <trkpt lat="47.76114" lon="0.28739">
        <ele>89.176</ele>
        <time>2016-06-02T17:46:53Z</time>
      </trkpt>
      <trkpt lat="47.76112" lon="0.28783">
        <ele>89.223</ele>
        <time>2016-06-02T17:46:33Z</time>
      </trkpt>
      <trkpt lat="47.76118" lon="0.28893">
        <ele>90.328</ele>
        <time>2016-06-02T17:46:13Z</time>
      </trkpt>
      <trkpt lat="47.76078" lon="0.28901">
        <ele>88.092</ele>
        <time>2016-06-02T17:45:53Z</time>
      </trkpt>
      <trkpt lat="47.75965" lon="0.28961">
        <ele>87.708</ele>
        <time>2016-06-02T17:45:33Z</time>
      </trkpt>
      <trkpt lat="47.75792" lon="0.29043">
        <ele>90.611</ele>
        <time>2016-06-02T17:42:53Z</time>
      </trkpt>
      <trkpt lat="47.75794" lon="0.29146">
        <ele>95.783</ele>
        <time>2016-06-02T17:42:33Z</time>
      </trkpt>
      <trkpt lat="47.75886" lon="0.29462">
        <ele>102.362</ele>
        <time>2016-06-02T17:42:13Z</time>
      </trkpt>
      <trkpt lat="47.75859" lon="0.29505">
        <ele>105.595</ele>
        <time>2016-06-02T17:41:53Z</time>
      </trkpt>
      <trkpt lat="47.75808" lon="0.29569">
        <ele>111.346</ele>
        <time>2016-06-02T17:41:33Z</time>
      </trkpt>
      <trkpt lat="47.75728" lon="0.29588">
        <ele>116.03</ele>
        <time>2016-06-02T17:41:13Z</time>
      </trkpt>
      <trkpt lat="47.75728" lon="0.29623">
        <ele>116.418</ele>
        <time>2016-06-02T17:40:53Z</time>
      </trkpt>
      <trkpt lat="47.75656" lon="0.29944">
        <ele>119.692</ele>
        <time>2016-06-02T17:40:33Z</time>
      </trkpt>
      <trkpt lat="47.75595" lon="0.30208">
        <ele>121.699</ele>
        <time>2016-06-02T17:40:13Z</time>
      </trkpt>
      <trkpt lat="47.75546" lon="0.30377">
        <ele>123.844</ele>
        <time>2016-06-02T17:39:53Z</time>
      </trkpt>
      <trkpt lat="47.75507" lon="0.30565">
        <ele>129.168</ele>
        <time>2016-06-02T17:39:33Z</time>
      </trkpt>
      <trkpt lat="47.75493" lon="0.3073">
        <ele>131.008</ele>
        <time>2016-06-02T17:39:13Z</time>
      </trkpt>
      <trkpt lat="47.75503" lon="0.30819">
        <ele>131.92</ele>
        <time>2016-06-02T17:38:53Z</time>
      </trkpt>
      <trkpt lat="47.75525" lon="0.30893">
        <ele>131.3</ele>
        <time>2016-06-02T17:38:33Z</time>
      </trkpt>
      <trkpt lat="47.75568" lon="0.31198">
        <ele>137.229</ele>
        <time>2016-06-02T17:38:13Z</time>
      </trkpt>
      <trkpt lat="47.75574" lon="0.31281">
        <ele>138.155</ele>
        <time>2016-06-02T17:37:53Z</time>
      </trkpt>
      <trkpt lat="47.75604" lon="0.31514">
        <ele>134.696</ele>
        <time>2016-06-02T17:37:33Z</time>
      </trkpt>
      <trkpt lat="47.75605" lon="0.31676">
        <ele>134.92</ele>
        <time>2016-06-02T17:37:13Z</time>
      </trkpt>
      <trkpt lat="47.75574" lon="0.3176">
        <ele>134.258</ele>
        <time>2016-06-02T17:36:53Z</time>
      </trkpt>
      <trkpt lat="47.75639" lon="0.31846">
        <ele>137.512</ele>
        <time>2016-06-02T17:36:33Z</time>
      </trkpt>
      <trkpt lat="47.7572" lon="0.31894">
        <ele>135.319</ele>
        <time>2016-06-02T17:36:13Z</time>
      </trkpt>
      <trkpt lat="47.75756" lon="0.31866">
        <ele>133.444</ele>
        <time>2016-06-02T17:35:53Z</time>
      </trkpt>
      <trkpt lat="47.75774" lon="0.31897">
        <ele>134.098</ele>
        <time>2016-06-02T17:35:33Z</time>
      </trkpt>
      <trkpt lat="47.75784" lon="0.31982">
        <ele>136.808</ele>
        <time>2016-06-02T17:35:13Z</time>
      </trkpt>
      <trkpt lat="47.75818" lon="0.32169">
        <ele>142.511</ele>
        <time>2016-06-02T17:34:53Z</time>
      </trkpt>
      <trkpt lat="47.75812" lon="0.3226">
        <ele>145.147</ele>
        <time>2016-06-02T17:34:33Z</time>
      </trkpt>
      <trkpt lat="47.75818" lon="0.32359">
        <ele>147.826</ele>
        <time>2016-06-02T17:34:13Z</time>
      </trkpt>
      <trkpt lat="47.75746" lon="0.32521">
        <ele>149.727</ele>
        <time>2016-06-02T17:33:53Z</time>
      </trkpt>
      <trkpt lat="47.75726" lon="0.32594">
        <ele>152.688</ele>
        <time>2016-06-02T17:33:33Z</time>
      </trkpt>
      <trkpt lat="47.75725" lon="0.32711">
        <ele>160.192</ele>
        <time>2016-06-02T17:33:13Z</time>
      </trkpt>
      <trkpt lat="47.76011" lon="0.33228">
        <ele>160.79</ele>
        <time>2016-06-02T17:32:53Z</time>
      </trkpt>
      <trkpt lat="47.75896" lon="0.33935">
        <ele>159.524</ele>
        <time>2016-06-02T17:32:33Z</time>
      </trkpt>
      <trkpt lat="47.75815" lon="0.33901">
        <ele>159.351</ele>
        <time>2016-06-02T17:32:13Z</time>
      </trkpt>
      <trkpt lat="47.75699" lon="0.34568">
        <ele>152.466</ele>
        <time>2016-06-02T17:31:53Z</time>
      </trkpt>
      <trkpt lat="47.75477" lon="0.34632">
        <ele>146.43</ele>
        <time>2016-06-02T17:31:33Z</time>
      </trkpt>
      <trkpt lat="47.75364" lon="0.34718">
        <ele>143.108</ele>
        <time>2016-06-02T17:31:13Z</time>
      </trkpt>
      <trkpt lat="47.75361" lon="0.34784">
        <ele>143.211</ele>
        <time>2016-06-02T17:30:53Z</time>
      </trkpt>
      <trkpt lat="47.7537" lon="0.34839">
        <ele>146.047</ele>
        <time>2016-06-02T17:30:33Z</time>
      </trkpt>
      <trkpt lat="47.75448" lon="0.34969">
        <ele>155.545</ele>
        <time>2016-06-02T17:30:13Z</time>
      </trkpt>
      <trkpt lat="47.7548" lon="0.35054">
        <ele>153.637</ele>
        <time>2016-06-02T17:29:53Z</time>
      </trkpt>
      <trkpt lat="47.75489" lon="0.35179">
        <ele>155.168</ele>
        <time>2016-06-02T17:29:33Z</time>
      </trkpt>
      <trkpt lat="47.75546" lon="0.35367">
        <ele>156.282</ele>
        <time>2016-06-02T17:29:13Z</time>
      </trkpt>
      <trkpt lat="47.75587" lon="0.35559">
        <ele>153.83</ele>
        <time>2016-06-02T17:28:53Z</time>
      </trkpt>
      <trkpt lat="47.75594" lon="0.35722">
        <ele>154.584</ele>
        <time>2016-06-02T17:28:33Z</time>
      </trkpt>
      <trkpt lat="47.75634" lon="0.35855">
        <ele>154.121</ele>
        <time>2016-06-02T17:28:13Z</time>
      </trkpt>
      <trkpt lat="47.7566" lon="0.35894">
        <ele>152.546</ele>
        <time>2016-06-02T17:27:53Z</time>
      </trkpt>
      <trkpt lat="47.75716" lon="0.36021">
        <ele>146.19</ele>
        <time>2016-06-02T17:27:33Z</time>
      </trkpt>
      <trkpt lat="47.75973" lon="0.35765">
        <ele>155.908</ele>
        <time>2016-06-02T17:27:13Z</time>
      </trkpt>
      <trkpt lat="47.7699" lon="0.35981">
        <ele>152.321</ele>
        <time>2016-06-02T17:26:53Z</time>
      </trkpt>
      <trkpt lat="47.77028" lon="0.35854">
        <ele>148.229</ele>
        <time>2016-06-02T17:26:33Z</time>
      </trkpt>
      <trkpt lat="47.77058" lon="0.35856">
        <ele>147.547</ele>
        <time>2016-06-02T17:26:13Z</time>
      </trkpt>
      <trkpt lat="47.7709" lon="0.36008">
        <ele>144.824</ele>
        <time>2016-06-02T17:25:53Z</time>
      </trkpt>
      <trkpt lat="47.77375" lon="0.36072">
        <ele>145.215</ele>
        <time>2016-06-02T17:25:33Z</time>
      </trkpt>
      <trkpt lat="47.77419" lon="0.35993">
        <ele>149.489</ele>
        <time>2016-06-02T17:25:13Z</time>
      </trkpt>
      <trkpt lat="47.77463" lon="0.36095">
        <ele>148.257</ele>
        <time>2016-06-02T17:24:53Z</time>
      </trkpt>
      <trkpt lat="47.77798" lon="0.36164">
        <ele>159.491</ele>
        <time>2016-06-02T17:24:33Z</time>
      </trkpt>
      <trkpt lat="47.77853" lon="0.36098">
        <ele>162.588</ele>
        <time>2016-06-02T17:24:13Z</time>
      </trkpt>
      <trkpt lat="47.77886" lon="0.36109">
        <ele>160.243</ele>
        <time>2016-06-02T17:23:53Z</time>
      </trkpt>
      <trkpt lat="47.77897" lon="0.36185">
        <ele>156.467</ele>
        <time>2016-06-02T17:23:33Z</time>
      </trkpt>
      <trkpt lat="47.77928" lon="0.36196">
        <ele>153.808</ele>
        <time>2016-06-02T17:23:13Z</time>
      </trkpt>
      <trkpt lat="47.78617" lon="0.36349">
        <ele>160.013</ele>
        <time>2016-06-02T17:22:53Z</time>
      </trkpt>
      <trkpt lat="47.78645" lon="0.36357">
        <ele>161.576</ele>
        <time>2020-12-24T12:55:55Z</time>
      </trkpt>
      <trkpt lat="47.7873" lon="0.3659">
        <ele>165.216</ele>
        <time>2020-12-24T12:55:35Z</time>
      </trkpt>
      <trkpt lat="47.78728" lon="0.36659">
        <ele>164.541</ele>
        <time>2020-12-24T12:55:15Z</time>
      </trkpt>
      <trkpt lat="47.78746" lon="0.36722">
        <ele>163.542</ele>
        <time>2020-12-24T12:54:55Z</time>
      </trkpt>
      <trkpt lat="47.78836" lon="0.3676">
        <ele>166.056</ele>
        <time>2020-12-24T12:54:35Z</time>
      </trkpt>
      <trkpt lat="47.78929" lon="0.36835">
        <ele>164.834</ele>
        <time>2020-12-24T12:54:15Z</time>
      </trkpt>
      <trkpt lat="47.78963" lon="0.3684">
        <ele>161.888</ele>
        <time>2020-12-24T12:53:55Z</time>
      </trkpt>
      <trkpt lat="47.79042" lon="0.36871">
        <ele>159.285</ele>
        <time>2020-12-24T12:53:35Z</time>
      </trkpt>
      <trkpt lat="47.79057" lon="0.37008">
        <ele>155.99</ele>
        <time>2020-12-24T12:53:15Z</time>
      </trkpt>
      <trkpt lat="47.79099" lon="0.37194">
        <ele>143.254</ele>
        <time>2020-12-24T12:52:55Z</time>
      </trkpt>
      <trkpt lat="47.79145" lon="0.37208">
        <ele>143.608</ele>
        <time>2020-12-24T12:52:35Z</time>
      </trkpt>
      <trkpt lat="47.7929" lon="0.37154">
        <ele>148.126</ele>
        <time>2020-12-24T12:52:15Z</time>
      </trkpt>
      <trkpt lat="47.7943" lon="0.37155">
        <ele>148.542</ele>
        <time>2020-12-24T12:51:55Z</time>
      </trkpt>
      <trkpt lat="47.79422" lon="0.37218">
        <ele>142.687</ele>
        <time>2020-12-24T12:51:35Z</time>
      </trkpt>
      <trkpt lat="47.79437" lon="0.37263">
        <ele>142.525</ele>
        <time>2020-12-24T12:51:15Z</time>
      </trkpt>
      <trkpt lat="47.79491" lon="0.37266">
        <ele>145.916</ele>
        <time>2020-12-24T12:50:55Z</time>
      </trkpt>
      <trkpt lat="47.79557" lon="0.37258">
        <ele>146.82</ele>
        <time>2016-06-02T17:13:33Z</time>
      </trkpt>
      <trkpt lat="47.79624" lon="0.37269">
        <ele>143.048</ele>
        <time>2016-06-02T17:13:13Z</time>
      </trkpt>
      <trkpt lat="47.79657" lon="0.37241">
        <ele>143.112</ele>
        <time>2016-06-02T17:12:53Z</time>
      </trkpt>
      <trkpt lat="47.79714" lon="0.37247">
        <ele>144.559</ele>
        <time>2016-06-02T17:12:33Z</time>
      </trkpt>
      <trkpt lat="47.79784" lon="0.37239">
        <ele>156.674</ele>
        <time>2016-06-02T17:12:13Z</time>
      </trkpt>
      <trkpt lat="47.7981" lon="0.37202">
        <ele>157.848</ele>
        <time>2016-06-02T17:11:53Z</time>
      </trkpt>
      <trkpt lat="47.79889" lon="0.37233">
        <ele>149.608</ele>
        <time>2016-06-02T17:11:33Z</time>
      </trkpt>
      <trkpt lat="47.79951" lon="0.37294">
        <ele>149.605</ele>
        <time>2016-06-02T17:11:13Z</time>
      </trkpt>
      <trkpt lat="47.80363" lon="0.37109">
        <ele>165.141</ele>
        <time>2016-06-02T17:10:53Z</time>
      </trkpt>
      <trkpt lat="47.80363" lon="0.37109">
        <ele>165.121</ele>
        <time>2016-06-02T17:10:33Z</time>
      </trkpt>
      <trkpt lat="47.80293" lon="0.36725">
        <ele>168.598</ele>
        <time>2016-06-02T17:10:13Z</time>
      </trkpt>
      <trkpt lat="47.80452" lon="0.36504">
        <ele>170.449</ele>
        <time>2016-06-02T17:09:53Z</time>
      </trkpt>
      <trkpt lat="47.80782" lon="0.36084">
        <ele>169.593</ele>
        <time>2016-06-02T17:09:33Z</time>
      </trkpt>
      <trkpt lat="47.80847" lon="0.35993">
        <ele>160.511</ele>
        <time>2016-06-02T17:09:13Z</time>
      </trkpt>
      <trkpt lat="47.80968" lon="0.35699">
        <ele>150.985</ele>
        <time>2016-06-02T17:08:53Z</time>
      </trkpt>
      <trkpt lat="47.80947" lon="0.35677">
        <ele>150.062</ele>
        <time>2016-06-02T17:08:33Z</time>
      </trkpt>
      <trkpt lat="47.80912" lon="0.35453">
        <ele>141.487</ele>
        <time>2016-06-02T17:08:13Z</time>
      </trkpt>
      <trkpt lat="47.80905" lon="0.35369">
        <ele>143.041</ele>
        <time>2016-06-02T17:07:53Z</time>
      </trkpt>
      <trkpt lat="47.80924" lon="0.35261">
        <ele>146.208</ele>
        <time>2016-06-02T17:07:33Z</time>
      </trkpt>
      <trkpt lat="47.80912" lon="0.35217">
        <ele>147.923</ele>
        <time>2016-06-02T17:07:13Z</time>
      </trkpt>
      <trkpt lat="47.80903" lon="0.35085">
        <ele>148.003</ele>
        <time>2016-06-02T17:06:53Z</time>
      </trkpt>
      <trkpt lat="47.80913" lon="0.35039">
        <ele>147.859</ele>
        <time>2016-06-02T17:06:33Z</time>
      </trkpt>
      <trkpt lat="47.80976" lon="0.34993">
        <ele>146.27</ele>
        <time>2016-06-02T17:06:13Z</time>
      </trkpt>
      <trkpt lat="47.80979" lon="0.34957">
        <ele>146.511</ele>
        <time>2016-06-02T17:05:53Z</time>
      </trkpt>
      <trkpt lat="47.80844" lon="0.34803">
        <ele>155.065</ele>
        <time>2016-06-02T17:05:33Z</time>
      </trkpt>
      <trkpt lat="47.80936" lon="0.34694">
        <ele>151.673</ele>
        <time>2016-06-02T17:05:13Z</time>
      </trkpt>
      <trkpt lat="47.81124" lon="0.34513">
        <ele>143.477</ele>
        <time>2016-06-02T17:04:53Z</time>
      </trkpt>
      <trkpt lat="47.81291" lon="0.34319">
        <ele>139.234</ele>
        <time>2016-06-02T17:04:33Z</time>
      </trkpt>
      <trkpt lat="47.81439" lon="0.34191">
        <ele>133.239</ele>
        <time>2016-06-02T17:04:13Z</time>
      </trkpt>
      <trkpt lat="47.81504" lon="0.34048">
        <ele>116.293</ele>
        <time>2016-06-02T17:03:53Z</time>
      </trkpt>
      <trkpt lat="47.81635" lon="0.33936">
        <ele>102.108</ele>
        <time>2016-06-02T17:03:33Z</time>
      </trkpt>
      <trkpt lat="47.8171" lon="0.33903">
        <ele>103.814</ele>
        <time>2016-06-02T17:03:13Z</time>
      </trkpt>
      <trkpt lat="47.81721" lon="0.33929">
        <ele>103.513</ele>
        <time>2016-06-02T17:02:53Z</time>
      </trkpt>
      <trkpt lat="47.81763" lon="0.33964">
        <ele>107.272</ele>
        <time>2016-06-02T17:02:33Z</time>
      </trkpt>
      <trkpt lat="47.81872" lon="0.34002">
        <ele>111.386</ele>
        <time>2016-06-02T17:02:13Z</time>
      </trkpt>
      <trkpt lat="47.81869" lon="0.33893">
        <ele>113.167</ele>
        <time>2016-06-02T17:01:53Z</time>
      </trkpt>
      <trkpt lat="47.81845" lon="0.33721">
        <ele>117.531</ele>
        <time>2016-06-02T17:01:33Z</time>
      </trkpt>
      <trkpt lat="47.81864" lon="0.33671">
        <ele>120.199</ele>
        <time>2016-06-02T17:01:13Z</time>
      </trkpt>
      <trkpt lat="47.81916" lon="0.33576">
        <ele>126.783</ele>
        <time>2016-06-02T17:00:53Z</time>
      </trkpt>
      <trkpt lat="47.81949" lon="0.33534">
        <ele>128.26</ele>
        <time>2016-06-02T17:00:33Z</time>
      </trkpt>
      <trkpt lat="47.82036" lon="0.33507">
        <ele>136.635</ele>
        <time>2016-06-02T17:00:13Z</time>
      </trkpt>
      <trkpt lat="47.8215" lon="0.3353">
        <ele>144.779</ele>
        <time>2016-06-02T16:59:53Z</time>
      </trkpt>
      <trkpt lat="47.82221" lon="0.33565">
        <ele>147.908</ele>
        <time>2016-06-02T16:59:33Z</time>
      </trkpt>
      <trkpt lat="47.82295" lon="0.33589">
        <ele>147.815</ele>
        <time>2016-06-02T16:59:13Z</time>
      </trkpt>
      <trkpt lat="47.82328" lon="0.3357">
        <ele>149.323</ele>
        <time>2016-06-02T16:58:53Z</time>
      </trkpt>
      <trkpt lat="47.82418" lon="0.33615">
        <ele>150.733</ele>
        <time>2016-06-02T16:58:33Z</time>
      </trkpt>
      <trkpt lat="47.82484" lon="0.33659">
        <ele>151.842</ele>
        <time>2016-06-02T16:58:13Z</time>
      </trkpt>
      <trkpt lat="47.82563" lon="0.33696">
        <ele>152.063</ele>
        <time>2016-06-02T16:57:53Z</time>
      </trkpt>
      <trkpt lat="47.82633" lon="0.33705">
        <ele>151.597</ele>
        <time>2016-06-02T16:57:33Z</time>
      </trkpt>
      <trkpt lat="47.8273" lon="0.33749">
        <ele>144.115</ele>
        <time>2016-06-02T16:57:13Z</time>
      </trkpt>
      <trkpt lat="47.8279" lon="0.33824">
        <ele>139.079</ele>
        <time>2016-06-02T16:56:53Z</time>
      </trkpt>
      <trkpt lat="47.82857" lon="0.33884">
        <ele>135.586</ele>
        <time>2016-06-02T16:56:33Z</time>
      </trkpt>
      <trkpt lat="47.82865" lon="0.33938">
        <ele>132.041</ele>
        <time>2016-06-02T16:56:13Z</time>
      </trkpt>
      <trkpt lat="47.82905" lon="0.33926">
        <ele>129.875</ele>
        <time>2016-06-02T16:55:53Z</time>
      </trkpt>
      <trkpt lat="47.82923" lon="0.33897">
        <ele>130.408</ele>
        <time>2016-06-02T16:55:33Z</time>
      </trkpt>
      <trkpt lat="47.82973" lon="0.3387">
        <ele>130.62</ele>
        <time>2016-06-02T16:55:13Z</time>
      </trkpt>
      <trkpt lat="47.82983" lon="0.33845">
        <ele>130.873</ele>
        <time>2016-06-02T16:54:53Z</time>
      </trkpt>
      <trkpt lat="47.82991" lon="0.33663">
        <ele>141.892</ele>
        <time>2016-06-02T16:54:33Z</time>
      </trkpt>
      <trkpt lat="47.83006" lon="0.33627">
        <ele>142.312</ele>
        <time>2016-06-02T16:54:13Z</time>
      </trkpt>
      <trkpt lat="47.83007" lon="0.33567">
        <ele>145.923</ele>
        <time>2016-06-02T16:53:53Z</time>
      </trkpt>
      <trkpt lat="47.8296" lon="0.33497">
        <ele>148.777</ele>
        <time>2016-06-02T16:53:33Z</time>
      </trkpt>
      <trkpt lat="47.82945" lon="0.33404">
        <ele>148.025</ele>
        <time>2016-06-02T16:53:13Z</time>
      </trkpt>
      <trkpt lat="47.82945" lon="0.33337">
        <ele>147.029</ele>
        <time>2016-06-02T16:52:53Z</time>
      </trkpt>
      <trkpt lat="47.82974" lon="0.33234">
        <ele>146.096</ele>
        <time>2016-06-02T16:52:33Z</time>
      </trkpt>
      <trkpt lat="47.82963" lon="0.33197">
        <ele>147.991</ele>
        <time>2016-06-02T16:52:13Z</time>
      </trkpt>
      <trkpt lat="47.82963" lon="0.33197">
        <ele>147.955</ele>
        <time>2016-06-02T16:51:53Z</time>
      </trkpt>
      <trkpt lat="47.83012" lon="0.33181">
        <ele>146.408</ele>
        <time>2016-06-02T16:51:33Z</time>
      </trkpt>
      <trkpt lat="47.83179" lon="0.3321">
        <ele>132.424</ele>
        <time>2016-06-02T16:51:13Z</time>
      </trkpt>
      <trkpt lat="47.83287" lon="0.33201">
        <ele>137.931</ele>
        <time>2016-06-02T16:50:53Z</time>
      </trkpt>
      <trkpt lat="47.83411" lon="0.33137">
        <ele>145.196</ele>
        <time>2016-06-02T16:50:33Z</time>
      </trkpt>
      <trkpt lat="47.83503" lon="0.33044">
        <ele>152.071</ele>
        <time>2016-06-02T16:50:13Z</time>
      </trkpt>
      <trkpt lat="47.83622" lon="0.3297">
        <ele>152.332</ele>
        <time>2016-06-02T16:49:53Z</time>
      </trkpt>
      <trkpt lat="47.83568" lon="0.3278">
        <ele>158.086</ele>
        <time>2016-06-02T16:49:33Z</time>
      </trkpt>
      <trkpt lat="47.83539" lon="0.32666">
        <ele>160.054</ele>
        <time>2016-06-02T16:49:13Z</time>
      </trkpt>
      <trkpt lat="47.83539" lon="0.32422">
        <ele>164.848</ele>
        <time>2016-06-02T16:48:53Z</time>
      </trkpt>
      <trkpt lat="47.83552" lon="0.32394">
        <ele>166.555</ele>
        <time>2016-06-02T16:48:33Z</time>
      </trkpt>
      <trkpt lat="47.8352" lon="0.32253">
        <ele>167.36</ele>
        <time>2016-06-02T16:48:13Z</time>
      </trkpt>
      <trkpt lat="47.83542" lon="0.32208">
        <ele>168.544</ele>
        <time>2016-06-02T16:47:53Z</time>
      </trkpt>
      <trkpt lat="47.83586" lon="0.32006">
        <ele>166.308</ele>
        <time>2016-06-02T16:47:33Z</time>
      </trkpt>
      <trkpt lat="47.83735" lon="0.32072">
        <ele>168.417</ele>
        <time>2016-06-02T16:47:13Z</time>
      </trkpt>
      <trkpt lat="47.83805" lon="0.32067">
        <ele>171.225</ele>
        <time>2016-06-02T16:46:53Z</time>
      </trkpt>
      <trkpt lat="47.83913" lon="0.3205">
        <ele>172.183</ele>
        <time>2016-06-02T16:46:33Z</time>
      </trkpt>
      <trkpt lat="47.84198" lon="0.31996">
        <ele>170.615</ele>
        <time>2016-06-02T16:46:13Z</time>
      </trkpt>
      <trkpt lat="47.84422" lon="0.3199">
        <ele>154.146</ele>
        <time>2016-06-02T16:45:53Z</time>
      </trkpt>
      <trkpt lat="47.8448" lon="0.31958">
        <ele>151.97</ele>
        <time>2016-06-02T16:45:33Z</time>
      </trkpt>
      <trkpt lat="47.84471" lon="0.3204">
        <ele>153.468</ele>
        <time>2016-06-02T16:45:13Z</time>
      </trkpt>
      <trkpt lat="47.84653" lon="0.32239">
        <ele>154.012</ele>
        <time>2016-06-02T16:44:53Z</time>
      </trkpt>
      <trkpt lat="47.84769" lon="0.32359">
        <ele>149.269</ele>
        <time>2016-06-02T16:44:33Z</time>
      </trkpt>
      <trkpt lat="47.84786" lon="0.32453">
        <ele>152.214</ele>
        <time>2016-06-02T16:44:13Z</time>
      </trkpt>
      <trkpt lat="47.84807" lon="0.32524">
        <ele>151.148</ele>
        <time>2016-06-02T16:43:53Z</time>
      </trkpt>
      <trkpt lat="47.85047" lon="0.33041">
        <ele>140.208</ele>
        <time>2016-06-02T16:43:33Z</time>
      </trkpt>
      <trkpt lat="47.85147" lon="0.32962">
        <ele>142.714</ele>
        <time>2016-06-02T16:43:13Z</time>
      </trkpt>
      <trkpt lat="47.85224" lon="0.32852">
        <ele>135.468</ele>
        <time>2016-06-02T16:42:53Z</time>
      </trkpt>
      <trkpt lat="47.85268" lon="0.32818">
        <ele>134.527</ele>
        <time>2016-06-02T16:42:33Z</time>
      </trkpt>
      <trkpt lat="47.85301" lon="0.32774">
        <ele>135.942</ele>
        <time>2016-06-02T16:42:13Z</time>
      </trkpt>
      <trkpt lat="47.85397" lon="0.3298">
        <ele>138.183</ele>
        <time>2016-06-02T16:41:53Z</time>
      </trkpt>
      <trkpt lat="47.85461" lon="0.33087">
        <ele>139.377</ele>
        <time>2016-06-02T16:41:33Z</time>
      </trkpt>
      <trkpt lat="47.85526" lon="0.3319">
        <ele>141.345</ele>
        <time>2016-06-02T16:41:13Z</time>
      </trkpt>
      <trkpt lat="47.85608" lon="0.33277">
        <ele>139.289</ele>
        <time>2016-06-02T16:40:53Z</time>
      </trkpt>
      <trkpt lat="47.85654" lon="0.33298">
        <ele>136.966</ele>
        <time>2016-06-02T16:40:33Z</time>
      </trkpt>
      <trkpt lat="47.8568" lon="0.3333">
        <ele>134.631</ele>
        <time>2016-06-02T16:40:13Z</time>
      </trkpt>
      <trkpt lat="47.85718" lon="0.33281">
        <ele>135.915</ele>
        <time>2016-06-02T16:39:53Z</time>
      </trkpt>
      <trkpt lat="47.85761" lon="0.33248">
        <ele>140.408</ele>
        <time>2016-06-02T16:39:33Z</time>
      </trkpt>
      <trkpt lat="47.85761" lon="0.33248">
        <ele>140.426</ele>
        <time>2016-06-02T16:39:13Z</time>
      </trkpt>
      <trkpt lat="47.85764" lon="0.33228">
        <ele>144.415</ele>
        <time>2016-06-02T16:38:53Z</time>
      </trkpt>
      <trkpt lat="47.85738" lon="0.33045">
        <ele>152.798</ele>
        <time>2016-06-02T16:38:33Z</time>
      </trkpt>
      <trkpt lat="47.85676" lon="0.3294">
        <ele>152.195</ele>
        <time>2016-06-02T16:38:13Z</time>
      </trkpt>
      <trkpt lat="47.85611" lon="0.32801">
        <ele>158.076</ele>
        <time>2016-06-02T16:37:53Z</time>
      </trkpt>
      <trkpt lat="47.85597" lon="0.32643">
        <ele>158.82</ele>
        <time>2016-06-02T16:37:33Z</time>
      </trkpt>
      <trkpt lat="47.85613" lon="0.32648">
        <ele>159.898</ele>
        <time>2016-06-02T16:37:13Z</time>
      </trkpt>
      <trkpt lat="47.85739" lon="0.32572">
        <ele>145.952</ele>
        <time>2016-06-02T16:36:53Z</time>
      </trkpt>
      <trkpt lat="47.85771" lon="0.32568">
        <ele>142.799</ele>
        <time>2016-06-02T16:36:33Z</time>
      </trkpt>
      <trkpt lat="47.85839" lon="0.32631">
        <ele>135.014</ele>
        <time>2016-06-02T16:36:13Z</time>
      </trkpt>
      <trkpt lat="47.85964" lon="0.32685">
        <ele>125.498</ele>
        <time>2016-06-02T16:35:53Z</time>
      </trkpt>
      <trkpt lat="47.8608" lon="0.32725">
        <ele>116.808</ele>
        <time>2016-06-02T16:35:33Z</time>
      </trkpt>
      <trkpt lat="47.86127" lon="0.32751">
        <ele>118.111</ele>
        <time>2016-06-02T16:35:13Z</time>
      </trkpt>
      <trkpt lat="47.86176" lon="0.32795">
        <ele>111.747</ele>
        <time>2016-06-02T16:34:53Z</time>
      </trkpt>
      <trkpt lat="47.86223" lon="0.32804">
        <ele>105.026</ele>
        <time>2016-06-02T16:34:33Z</time>
      </trkpt>
      <trkpt lat="47.86338" lon="0.32801">
        <ele>98.077</ele>
        <time>2016-06-02T16:34:13Z</time>
      </trkpt>
      <trkpt lat="47.8636" lon="0.32816">
        <ele>98.068</ele>
        <time>2016-06-02T16:33:53Z</time>
      </trkpt>
      <trkpt lat="47.86371" lon="0.33125">
        <ele>105.662</ele>
        <time>2016-06-02T16:33:33Z</time>
      </trkpt>
      <trkpt lat="47.86401" lon="0.33209">
        <ele>101.66</ele>
        <time>2016-06-02T16:33:13Z</time>
      </trkpt>
      <trkpt lat="47.86416" lon="0.33313">
        <ele>105.324</ele>
        <time>2016-06-02T16:32:53Z</time>
      </trkpt>
      <trkpt lat="47.86463" lon="0.33361">
        <ele>106.731</ele>
        <time>2016-06-02T16:32:33Z</time>
      </trkpt>
      <trkpt lat="47.86635" lon="0.33491">
        <ele>105.616</ele>
        <time>2016-06-02T16:32:13Z</time>
      </trkpt>
      <trkpt lat="47.86636" lon="0.33455">
        <ele>101.54</ele>
        <time>2016-06-02T16:31:53Z</time>
      </trkpt>
      <trkpt lat="47.86663" lon="0.33405">
        <ele>93.908</ele>
        <time>2016-06-02T16:31:33Z</time>
      </trkpt>
      <trkpt lat="47.86755" lon="0.33355">
        <ele>95.022</ele>
        <time>2016-06-02T16:31:13Z</time>
      </trkpt>
      <trkpt lat="47.86809" lon="0.33335">
        <ele>96.002</ele>
        <time>2016-06-02T16:30:53Z</time>
      </trkpt>
      <trkpt lat="47.86881" lon="0.33335">
        <ele>97.749</ele>
        <time>2016-06-02T16:30:33Z</time>
      </trkpt>
      <trkpt lat="47.86946" lon="0.33346">
        <ele>100.572</ele>
        <time>2016-06-02T16:30:13Z</time>
      </trkpt>
      <trkpt lat="47.87001" lon="0.33374">
        <ele>101.913</ele>
        <time>2016-06-02T16:29:53Z</time>
      </trkpt>
      <trkpt lat="47.87001" lon="0.33374">
        <ele>101.997</ele>
        <time>2016-06-02T16:29:53Z</time>
      </trkpt>
      <trkpt lat="47.87008" lon="0.33376">
        <ele>102.125</ele>
        <time>2019-10-26T18:56:16Z</time>
      </trkpt>
      <trkpt lat="47.87008" lon="0.33376">
        <ele>102.125</ele>
        <time>2019-10-26T18:56:16Z</time>
      </trkpt>
      <trkpt lat="47.87018" lon="0.33477">
        <ele>107.729</ele>
        <time>2019-10-26T18:55:56Z</time>
      </trkpt>
      <trkpt lat="47.87058" lon="0.33642">
        <ele>118.026</ele>
        <time>2019-10-26T18:55:36Z</time>
      </trkpt>
      <trkpt lat="47.87116" lon="0.33799">
        <ele>134.671</ele>
        <time>2019-10-26T18:55:16Z</time>
      </trkpt>
      <trkpt lat="47.87172" lon="0.33796">
        <ele>133.115</ele>
        <time>2019-10-26T18:54:56Z</time>
      </trkpt>
      <trkpt lat="47.87212" lon="0.33818">
        <ele>131.808</ele>
        <time>2019-10-26T18:54:36Z</time>
      </trkpt>
      <trkpt lat="47.8732" lon="0.33831">
        <ele>132.427</ele>
        <time>2019-10-26T18:54:16Z</time>
      </trkpt>
      <trkpt lat="47.87355" lon="0.33816">
        <ele>130.807</ele>
        <time>2019-10-26T18:53:56Z</time>
      </trkpt>
      <trkpt lat="47.87355" lon="0.33816">
        <ele>130.899</ele>
        <time>2019-10-26T18:53:36Z</time>
      </trkpt>
      <trkpt lat="47.87427" lon="0.33831">
        <ele>128.999</ele>
        <time>2019-10-26T18:53:16Z</time>
      </trkpt>
      <trkpt lat="47.87427" lon="0.33831">
        <ele>128.999</ele>
        <time>2019-10-26T18:53:16Z</time>
      </trkpt>
      <trkpt lat="47.87419" lon="0.3429">
        <ele>128.95</ele>
        <time>2019-10-26T18:52:56Z</time>
      </trkpt>
      <trkpt lat="47.87428" lon="0.34369">
        <ele>129.364</ele>
        <time>2019-10-26T18:52:36Z</time>
      </trkpt>
      <trkpt lat="47.87386" lon="0.34558">
        <ele>131.762</ele>
        <time>2019-10-26T18:52:16Z</time>
      </trkpt>
      <trkpt lat="47.87355" lon="0.34848">
        <ele>120.956</ele>
        <time>2016-06-02T01:38:06Z</time>
      </trkpt>
      <trkpt lat="47.87355" lon="0.34848">
        <ele>120.963</ele>
        <time>2016-06-02T01:37:46Z</time>
      </trkpt>
      <trkpt lat="47.87464" lon="0.34906">
        <ele>122.818</ele>
        <time>2016-06-02T01:37:26Z</time>
      </trkpt>
      <trkpt lat="47.87496" lon="0.34996">
        <ele>120.032</ele>
        <time>2016-06-02T01:37:06Z</time>
      </trkpt>
      <trkpt lat="47.875" lon="0.35101">
        <ele>122.008</ele>
        <time>2016-06-02T01:36:46Z</time>
      </trkpt>
      <trkpt lat="47.87483" lon="0.35148">
        <ele>121.413</ele>
        <time>2016-06-02T01:36:26Z</time>
      </trkpt>
      <trkpt lat="47.87533" lon="0.35279">
        <ele>117.821</ele>
        <time>2016-06-02T01:36:06Z</time>
      </trkpt>
      <trkpt lat="47.87706" lon="0.35116">
        <ele>123.561</ele>
        <time>2016-06-02T01:35:46Z</time>
      </trkpt>
      <trkpt lat="47.87794" lon="0.35335">
        <ele>122.979</ele>
        <time>2016-06-02T01:35:26Z</time>
      </trkpt>
      <trkpt lat="47.87965" lon="0.35178">
        <ele>124.91</ele>
        <time>2016-06-02T01:35:06Z</time>
      </trkpt>
      <trkpt lat="47.88001" lon="0.35517">
        <ele>123.414</ele>
        <time>2016-06-02T01:34:46Z</time>
      </trkpt>
      <trkpt lat="47.88001" lon="0.35517">
        <ele>123.492</ele>
        <time>2016-06-02T01:34:26Z</time>
      </trkpt>
      <trkpt lat="47.88155" lon="0.35755">
        <ele>116.176</ele>
        <time>2016-06-02T01:34:06Z</time>
      </trkpt>
      <trkpt lat="47.88372" lon="0.36045">
        <ele>118.033</ele>
        <time>2016-06-02T01:33:46Z</time>
      </trkpt>
      <trkpt lat="47.88372" lon="0.36045">
        <ele>118.048</ele>
        <time>2016-06-02T01:33:26Z</time>
      </trkpt>
      <trkpt lat="47.88424" lon="0.36131">
        <ele>115.072</ele>
        <time>2016-06-02T01:33:06Z</time>
      </trkpt>
      <trkpt lat="47.88464" lon="0.36088">
        <ele>112.808</ele>
        <time>2016-06-02T01:32:46Z</time>
      </trkpt>
      <trkpt lat="47.88753" lon="0.36577">
        <ele>119.113</ele>
        <time>2016-06-02T01:32:26Z</time>
      </trkpt>
      <trkpt lat="47.8893" lon="0.36736">
        <ele>118.721</ele>
        <time>2016-06-02T01:32:06Z</time>
      </trkpt>
      <trkpt lat="47.89046" lon="0.36878">
        <ele>113.461</ele>
        <time>2016-06-02T01:31:46Z</time>
      </trkpt>
      <trkpt lat="47.89115" lon="0.36989">
        <ele>112.069</ele>
        <time>2016-06-02T01:31:26Z</time>
      </trkpt>
      <trkpt lat="47.89041" lon="0.37075">
        <ele>109.39</ele>
        <time>2016-06-02T01:31:06Z</time>
      </trkpt>
      <trkpt lat="47.89086" lon="0.3709">
        <ele>107.944</ele>
        <time>2016-06-02T01:30:46Z</time>
      </trkpt>
      <trkpt lat="47.89187" lon="0.37215">
        <ele>108.362</ele>
        <time>2016-06-02T01:30:26Z</time>
      </trkpt>
      <trkpt lat="47.89282" lon="0.37395">
        <ele>117.176</ele>
        <time>2016-06-02T01:30:06Z</time>
      </trkpt>
      <trkpt lat="47.89282" lon="0.37395">
        <ele>117.183</ele>
        <time>2016-06-02T01:29:46Z</time>
      </trkpt>
      <trkpt lat="47.89313" lon="0.37506">
        <ele>116.658</ele>
        <time>2016-06-02T01:29:26Z</time>
      </trkpt>
      <trkpt lat="47.89387" lon="0.37674">
        <ele>111.812</ele>
        <time>2016-06-02T01:29:06Z</time>
      </trkpt>
      <trkpt lat="47.89437" lon="0.37708">
        <ele>111.308</ele>
        <time>2016-06-02T01:28:46Z</time>
      </trkpt>
      <trkpt lat="47.89466" lon="0.3777">
        <ele>110.124</ele>
        <time>2016-06-02T01:28:26Z</time>
      </trkpt>
      <trkpt lat="47.89477" lon="0.37888">
        <ele>108.504</ele>
        <time>2016-06-02T01:28:06Z</time>
      </trkpt>
      <trkpt lat="47.8951" lon="0.37946">
        <ele>112.869</ele>
        <time>2016-06-02T01:27:46Z</time>
      </trkpt>
      <trkpt lat="47.89566" lon="0.38133">
        <ele>117.214</ele>
        <time>2016-06-02T01:27:26Z</time>
      </trkpt>
      <trkpt lat="47.89674" lon="0.38058">
        <ele>123.795</ele>
        <time>2016-06-02T01:27:06Z</time>
      </trkpt>
      <trkpt lat="47.89772" lon="0.37953">
        <ele>117.299</ele>
        <time>2016-06-02T01:26:46Z</time>
      </trkpt>
      <trkpt lat="47.89838" lon="0.37963">
        <ele>113.497</ele>
        <time>2016-06-02T01:26:26Z</time>
      </trkpt>
      <trkpt lat="47.89955" lon="0.38094">
        <ele>112.761</ele>
        <time>2016-06-02T01:26:06Z</time>
      </trkpt>
      <trkpt lat="47.89974" lon="0.38223">
        <ele>114.078</ele>
        <time>2016-06-02T01:25:46Z</time>
      </trkpt>
      <trkpt lat="47.90012" lon="0.38453">
        <ele>109.153</ele>
        <time>2016-06-02T01:25:26Z</time>
      </trkpt>
      <trkpt lat="47.89969" lon="0.38466">
        <ele>108.087</ele>
        <time>2016-06-02T01:25:06Z</time>
      </trkpt>
      <trkpt lat="47.8982" lon="0.38547">
        <ele>109.408</ele>
        <time>2016-06-02T01:24:46Z</time>
      </trkpt>
      <trkpt lat="47.8963" lon="0.38609">
        <ele>110.317</ele>
        <time>2016-06-02T01:24:26Z</time>
      </trkpt>
      <trkpt lat="47.8963" lon="0.38609">
        <ele>110.398</ele>
        <time>2016-06-02T01:24:06Z</time>
      </trkpt>
      <trkpt lat="47.8963" lon="0.38697">
        <ele>110.018</ele>
        <time>2016-06-02T01:23:46Z</time>
      </trkpt>
      <trkpt lat="47.89591" lon="0.38796">
        <ele>111.278</ele>
        <time>2016-06-02T01:23:26Z</time>
      </trkpt>
      <trkpt lat="47.8966" lon="0.38895">
        <ele>109.299</ele>
        <time>2016-06-02T01:23:06Z</time>
      </trkpt>
      <trkpt lat="47.89728" lon="0.38918">
        <ele>113.453</ele>
        <time>2016-06-02T01:22:46Z</time>
      </trkpt>
      <trkpt lat="47.89761" lon="0.38981">
        <ele>117.471</ele>
        <time>2016-06-02T01:22:26Z</time>
      </trkpt>
      <trkpt lat="47.89788" lon="0.38993">
        <ele>117.995</ele>
        <time>2016-06-02T01:22:06Z</time>
      </trkpt>
      <trkpt lat="47.89784" lon="0.39075">
        <ele>121.262</ele>
        <time>2016-06-02T01:21:46Z</time>
      </trkpt>
      <trkpt lat="47.89899" lon="0.39339">
        <ele>127.867</ele>
        <time>2016-06-02T01:21:26Z</time>
      </trkpt>
      <trkpt lat="47.89899" lon="0.39339">
        <ele>127.861</ele>
        <time>2016-06-02T01:21:06Z</time>
      </trkpt>
      <trkpt lat="47.89817" lon="0.39384">
        <ele>122.108</ele>
        <time>2016-06-02T01:20:46Z</time>
      </trkpt>
      <trkpt lat="47.89765" lon="0.39448">
        <ele>121.317</ele>
        <time>2016-06-02T01:20:26Z</time>
      </trkpt>
      <trkpt lat="47.89587" lon="0.39496">
        <ele>122.052</ele>
        <time>2016-06-02T01:20:06Z</time>
      </trkpt>
      <trkpt lat="47.89587" lon="0.39496">
        <ele>122.058</ele>
        <time>2016-06-02T01:19:46Z</time>
      </trkpt>
      <trkpt lat="47.89385" lon="0.39671">
        <ele>122.174</ele>
        <time>2016-06-02T01:19:26Z</time>
      </trkpt>
      <trkpt lat="47.89294" lon="0.39742">
        <ele>121.295</ele>
        <time>2016-06-02T01:19:06Z</time>
      </trkpt>
      <trkpt lat="47.89251" lon="0.39809">
        <ele>118.149</ele>
        <time>2016-06-02T01:18:46Z</time>
      </trkpt>
      <trkpt lat="47.89228" lon="0.39907">
        <ele>119.097</ele>
        <time>2016-06-02T01:18:26Z</time>
      </trkpt>
      <trkpt lat="47.89201" lon="0.39953">
        <ele>119.521</ele>
        <time>2016-06-02T01:18:06Z</time>
      </trkpt>
      <trkpt lat="47.89107" lon="0.39985">
        <ele>123.198</ele>
        <time>2016-06-02T01:17:46Z</time>
      </trkpt>
      <trkpt lat="47.89086" lon="0.40028">
        <ele>123.963</ele>
        <time>2016-06-02T01:17:26Z</time>
      </trkpt>
      <trkpt lat="47.89044" lon="0.40045">
        <ele>125.097</ele>
        <time>2016-06-02T01:17:06Z</time>
      </trkpt>
      <trkpt lat="47.89015" lon="0.40006">
        <ele>123.808</ele>
        <time>2016-06-02T01:16:46Z</time>
      </trkpt>
      <trkpt lat="47.88949" lon="0.40036">
        <ele>128.613</ele>
        <time>2016-06-02T01:16:26Z</time>
      </trkpt>
      <trkpt lat="47.88913" lon="0.40693">
        <ele>144.176</ele>
        <time>2016-06-02T01:16:06Z</time>
      </trkpt>
      <trkpt lat="47.88815" lon="0.40753">
        <ele>145.316</ele>
        <time>2016-06-02T01:15:46Z</time>
      </trkpt>
      <trkpt lat="47.88715" lon="0.40854">
        <ele>145.027</ele>
        <time>2016-06-02T01:15:26Z</time>
      </trkpt>
      <trkpt lat="47.8862" lon="0.40948">
        <ele>143.938</ele>
        <time>2016-06-02T01:15:06Z</time>
      </trkpt>
      <trkpt lat="47.88814" lon="0.40985">
        <ele>143.292</ele>
        <time>2016-06-02T01:14:46Z</time>
      </trkpt>
      <trkpt lat="47.88814" lon="0.40985">
        <ele>143.22</ele>
        <time>2016-06-02T01:14:26Z</time>
      </trkpt>
      <trkpt lat="47.89098" lon="0.41013">
        <ele>144.614</ele>
        <time>2016-06-02T01:14:06Z</time>
      </trkpt>
      <trkpt lat="47.89768" lon="0.4112">
        <ele>146.311</ele>
        <time>2016-06-02T01:13:46Z</time>
      </trkpt>
      <trkpt lat="47.9003" lon="0.41279">
        <ele>143.066</ele>
        <time>2016-06-02T01:13:26Z</time>
      </trkpt>
      <trkpt lat="47.90113" lon="0.41307">
        <ele>140.86</ele>
        <time>2016-06-02T01:13:06Z</time>
      </trkpt>
      <trkpt lat="47.9024" lon="0.41322">
        <ele>134.908</ele>
        <time>2016-06-02T01:12:46Z</time>
      </trkpt>
      <trkpt lat="47.90367" lon="0.41384">
        <ele>133.914</ele>
        <time>2016-06-02T01:12:26Z</time>
      </trkpt>
      <trkpt lat="47.9043" lon="0.41167">
        <ele>127.122</ele>
        <time>2016-06-02T01:12:06Z</time>
      </trkpt>
      <trkpt lat="47.9043" lon="0.41167">
        <ele>127.142</ele>
        <time>2016-06-02T01:11:46Z</time>
      </trkpt>
      <trkpt lat="47.9061" lon="0.40747">
        <ele>128.951</ele>
        <time>2016-06-02T01:11:26Z</time>
      </trkpt>
      <trkpt lat="47.90771" lon="0.40697">
        <ele>133.772</ele>
        <time>2016-06-02T01:11:06Z</time>
      </trkpt>
      <trkpt lat="47.90869" lon="0.40626">
        <ele>135.966</ele>
        <time>2016-06-02T01:10:46Z</time>
      </trkpt>
      <trkpt lat="47.90905" lon="0.40624">
        <ele>134.774</ele>
        <time>2016-06-02T01:10:26Z</time>
      </trkpt>
      <trkpt lat="47.90919" lon="0.40598">
        <ele>134.738</ele>
        <time>2016-06-02T01:10:06Z</time>
      </trkpt>
      <trkpt lat="47.91002" lon="0.40598">
        <ele>124.415</ele>
        <time>2016-06-02T01:09:46Z</time>
      </trkpt>
      <trkpt lat="47.91057" lon="0.40553">
        <ele>120.87</ele>
        <time>2016-06-02T01:09:26Z</time>
      </trkpt>
      <trkpt lat="47.91204" lon="0.40611">
        <ele>114.314</ele>
        <time>2016-06-02T01:09:06Z</time>
      </trkpt>
      <trkpt lat="47.91414" lon="0.40663">
        <ele>107.108</ele>
        <time>2016-06-02T01:08:46Z</time>
      </trkpt>
      <trkpt lat="47.91408" lon="0.40719">
        <ele>108.017</ele>
        <time>2016-06-02T01:08:26Z</time>
      </trkpt>
      <trkpt lat="47.91706" lon="0.40965">
        <ele>114.861</ele>
        <time>2016-06-02T01:08:06Z</time>
      </trkpt>
      <trkpt lat="47.9174" lon="0.40899">
        <ele>111.481</ele>
        <time>2016-06-02T01:07:46Z</time>
      </trkpt>
      <trkpt lat="47.9174" lon="0.40899">
        <ele>111.497</ele>
        <time>2016-06-02T01:07:26Z</time>
      </trkpt>
      <trkpt lat="47.91698" lon="0.40764">
        <ele>113.178</ele>
        <time>2016-06-02T01:07:06Z</time>
      </trkpt>
      <trkpt lat="47.91707" lon="0.40598">
        <ele>112.172</ele>
        <time>2016-06-02T01:06:46Z</time>
      </trkpt>
      <trkpt lat="47.91756" lon="0.40414">
        <ele>105.61</ele>
        <time>2016-06-02T01:06:26Z</time>
      </trkpt>
      <trkpt lat="47.91792" lon="0.40354">
        <ele>103.614</ele>
        <time>2016-06-02T01:06:06Z</time>
      </trkpt>
      <trkpt lat="47.91854" lon="0.40214">
        <ele>102.851</ele>
        <time>2016-06-02T01:05:46Z</time>
      </trkpt>
      <trkpt lat="47.91799" lon="0.4012">
        <ele>102.076</ele>
        <time>2016-06-02T01:05:26Z</time>
      </trkpt>
      <trkpt lat="47.91809" lon="0.40058">
        <ele>101.88</ele>
        <time>2016-06-02T01:05:06Z</time>
      </trkpt>
      <trkpt lat="47.91798" lon="0.40008">
        <ele>102.108</ele>
        <time>2016-06-02T01:04:46Z</time>
      </trkpt>
      <trkpt lat="47.91959" lon="0.39856">
        <ele>102.717</ele>
        <time>2016-06-02T01:04:26Z</time>
      </trkpt>
      <trkpt lat="47.9215" lon="0.40161">
        <ele>99.061</ele>
        <time>2016-06-02T01:04:06Z</time>
      </trkpt>
      <trkpt lat="47.92423" lon="0.40699">
        <ele>95.348</ele>
        <time>2016-06-02T01:03:46Z</time>
      </trkpt>
      <trkpt lat="47.92606" lon="0.40925">
        <ele>95.239</ele>
        <time>2016-06-02T01:03:26Z</time>
      </trkpt>
      <trkpt lat="47.92796" lon="0.4118">
        <ele>91.68</ele>
        <time>2016-06-02T01:03:06Z</time>
      </trkpt>
      <trkpt lat="47.92871" lon="0.41312">
        <ele>93.254</ele>
        <time>2020-12-24T11:26:35Z</time>
      </trkpt>
      <trkpt lat="47.9292" lon="0.41428">
        <ele>93.852</ele>
        <time>2020-12-24T11:26:15Z</time>
      </trkpt>
      <trkpt lat="47.92998" lon="0.41375">
        <ele>92.166</ele>
        <time>2020-12-24T11:25:55Z</time>
      </trkpt>
      <trkpt lat="47.93007" lon="0.41297">
        <ele>90.983</ele>
        <time>2020-12-24T11:25:35Z</time>
      </trkpt>
      <trkpt lat="47.93028" lon="0.41218">
        <ele>88.488</ele>
        <time>2020-12-24T11:25:15Z</time>
      </trkpt>
      <trkpt lat="47.93073" lon="0.41255">
        <ele>87.612</ele>
        <time>2016-06-02T01:01:46Z</time>
      </trkpt>
      <trkpt lat="47.93087" lon="0.41345">
        <ele>89.808</ele>
        <time>2016-06-02T01:01:26Z</time>
      </trkpt>
      <trkpt lat="47.93087" lon="0.41345">
        <ele>89.808</ele>
        <time>2016-06-02T01:01:26Z</time>
      </trkpt>
      <trkpt lat="47.93087" lon="0.41345">
        <ele>89.808</ele>
        <time>2016-06-02T01:01:26Z</time>
      </trkpt>
      <trkpt lat="47.93087" lon="0.41345">
        <ele>89.808</ele>
        <time>2016-06-02T01:01:26Z</time>
      </trkpt>
      <trkpt lat="47.93045" lon="0.41505">
        <ele>93.426</ele>
        <time>2020-12-24T11:24:15Z</time>
      </trkpt>
      <trkpt lat="47.93129" lon="0.41564">
        <ele>92.542</ele>
        <time>2020-12-24T11:23:55Z</time>
      </trkpt>
      <trkpt lat="47.93181" lon="0.41454">
        <ele>90.668</ele>
        <time>2020-12-24T11:23:35Z</time>
      </trkpt>
      <trkpt lat="47.93355" lon="0.41624">
        <ele>88.216</ele>
        <time>2016-06-02T01:01:06Z</time>
      </trkpt>
      <trkpt lat="47.93417" lon="0.41648">
        <ele>87.347</ele>
        <time>2016-06-02T01:00:46Z</time>
      </trkpt>
      <trkpt lat="47.93424" lon="0.41594">
        <ele>86.511</ele>
        <time>2016-06-02T01:00:26Z</time>
      </trkpt>
      <trkpt lat="47.93478" lon="0.41517">
        <ele>88.039</ele>
        <time>2016-06-02T01:00:06Z</time>
      </trkpt>
      <trkpt lat="47.93546" lon="0.41502">
        <ele>91.393</ele>
        <time>2016-06-02T00:59:46Z</time>
      </trkpt>
      <trkpt lat="47.93595" lon="0.41302">
        <ele>90.08</ele>
        <time>2016-06-02T00:59:26Z</time>
      </trkpt>
      <trkpt lat="47.93595" lon="0.41302">
        <ele>90.045</ele>
        <time>2016-06-02T00:59:06Z</time>
      </trkpt>
      <trkpt lat="47.93632" lon="0.41285">
        <ele>91.369</ele>
        <time>2016-06-02T00:58:46Z</time>
      </trkpt>
      <trkpt lat="47.93815" lon="0.41358">
        <ele>92.708</ele>
        <time>2016-06-02T00:58:26Z</time>
      </trkpt>
      <trkpt lat="47.93987" lon="0.41341">
        <ele>93.318</ele>
        <time>2016-06-02T00:58:06Z</time>
      </trkpt>
      <trkpt lat="47.94092" lon="0.4136">
        <ele>94.717</ele>
        <time>2016-06-02T00:57:46Z</time>
      </trkpt>
      <trkpt lat="47.94166" lon="0.41347">
        <ele>97.036</ele>
        <time>2016-06-02T00:57:26Z</time>
      </trkpt>
      <trkpt lat="47.94242" lon="0.41356">
        <ele>94.461</ele>
        <time>2016-06-02T00:57:06Z</time>
      </trkpt>
      <trkpt lat="47.94529" lon="0.41315">
        <ele>93.052</ele>
        <time>2016-06-02T00:56:46Z</time>
      </trkpt>
      <trkpt lat="47.94692" lon="0.41251">
        <ele>95.136</ele>
        <time>2016-06-02T00:56:26Z</time>
      </trkpt>
      <trkpt lat="47.94877" lon="0.4103">
        <ele>96.594</ele>
        <time>2016-06-02T00:56:06Z</time>
      </trkpt>
      <trkpt lat="47.95081" lon="0.40731">
        <ele>92.898</ele>
        <time>2016-06-02T00:55:46Z</time>
      </trkpt>
      <trkpt lat="47.95209" lon="0.40508">
        <ele>88.895</ele>
        <time>2016-06-02T00:55:26Z</time>
      </trkpt>
      <trkpt lat="47.95261" lon="0.40566">
        <ele>89.02</ele>
        <time>2016-06-02T00:55:06Z</time>
      </trkpt>
      <trkpt lat="47.95337" lon="0.40541">
        <ele>88.954</ele>
        <time>2016-06-02T00:54:46Z</time>
      </trkpt>
      <trkpt lat="47.95488" lon="0.4039">
        <ele>95.008</ele>
        <time>2016-06-02T00:54:26Z</time>
      </trkpt>
      <trkpt lat="47.96101" lon="0.40538">
        <ele>89.517</ele>
        <time>2016-06-02T00:54:06Z</time>
      </trkpt>
      <trkpt lat="47.96146" lon="0.4039">
        <ele>87.525</ele>
        <time>2016-06-02T00:53:46Z</time>
      </trkpt>
      <trkpt lat="47.96147" lon="0.40322">
        <ele>86.483</ele>
        <time>2016-06-02T00:53:26Z</time>
      </trkpt>
      <trkpt lat="47.96134" lon="0.39929">
        <ele>85.715</ele>
        <time>2016-06-02T00:53:06Z</time>
      </trkpt>
      <trkpt lat="47.96175" lon="0.38899">
        <ele>102.356</ele>
        <time>2016-06-02T00:52:46Z</time>
      </trkpt>
      <trkpt lat="47.96169" lon="0.38545">
        <ele>93.69</ele>
        <time>2016-06-02T00:52:26Z</time>
      </trkpt>
      <trkpt lat="47.96268" lon="0.38609">
        <ele>86.318</ele>
        <time>2016-06-02T00:52:06Z</time>
      </trkpt>
      <trkpt lat="47.96419" lon="0.38684">
        <ele>86.362</ele>
        <time>2016-06-02T00:51:46Z</time>
      </trkpt>
      <trkpt lat="47.96589" lon="0.38805">
        <ele>88.099</ele>
        <time>2016-06-02T00:51:26Z</time>
      </trkpt>
      <trkpt lat="47.96626" lon="0.38815">
        <ele>86.974</ele>
        <time>2016-06-02T00:51:06Z</time>
      </trkpt>
      <trkpt lat="47.96837" lon="0.38972">
        <ele>84.078</ele>
        <time>2016-06-02T00:50:46Z</time>
      </trkpt>
      <trkpt lat="47.96897" lon="0.39066">
        <ele>84.608</ele>
        <time>2016-06-02T00:50:26Z</time>
      </trkpt>
      <trkpt lat="47.97031" lon="0.39174">
        <ele>89.214</ele>
        <time>2016-06-02T00:50:06Z</time>
      </trkpt>
      <trkpt lat="47.97116" lon="0.39133">
        <ele>87.104</ele>
        <time>2016-06-02T00:49:46Z</time>
      </trkpt>
      <trkpt lat="47.97397" lon="0.38822">
        <ele>83.924</ele>
        <time>2016-06-02T00:49:26Z</time>
      </trkpt>
      <trkpt lat="47.97726" lon="0.38672">
        <ele>88.075</ele>
        <time>2016-06-02T00:49:06Z</time>
      </trkpt>
      <trkpt lat="47.97759" lon="0.38682">
        <ele>88.396</ele>
        <time>2016-06-02T00:48:46Z</time>
      </trkpt>
      <trkpt lat="47.97695" lon="0.38275">
        <ele>88.36</ele>
        <time>2016-06-02T00:48:26Z</time>
      </trkpt>
      <trkpt lat="47.97646" lon="0.37839">
        <ele>91.068</ele>
        <time>2016-06-02T00:48:06Z</time>
      </trkpt>
      <trkpt lat="47.9765" lon="0.36204">
        <ele>88.692</ele>
        <time>2016-06-02T00:47:46Z</time>
      </trkpt>
      <trkpt lat="47.9765" lon="0.36204">
        <ele>88.669</ele>
        <time>2016-06-02T00:47:26Z</time>
      </trkpt>
      <trkpt lat="47.9765" lon="0.36204">
        <ele>88.654</ele>
        <time>2016-06-02T00:47:06Z</time>
      </trkpt>
      <trkpt lat="47.97718" lon="0.35848">
        <ele>93.178</ele>
        <time>2016-06-02T00:46:46Z</time>
      </trkpt>
      <trkpt lat="47.979" lon="0.35331">
        <ele>84.708</ele>
        <time>2016-06-02T00:46:26Z</time>
      </trkpt>
      <trkpt lat="47.98029" lon="0.34796">
        <ele>78.711</ele>
        <time>2016-06-02T00:46:06Z</time>
      </trkpt>
      <trkpt lat="47.98072" lon="0.34944">
        <ele>80.083</ele>
        <time>2016-06-02T00:45:46Z</time>
      </trkpt>
      <trkpt lat="47.98164" lon="0.35103">
        <ele>83.623</ele>
        <time>2016-06-02T00:45:26Z</time>
      </trkpt>
      <trkpt lat="47.98436" lon="0.35378">
        <ele>92.268</ele>
        <time>2016-06-02T00:45:06Z</time>
      </trkpt>
      <trkpt lat="47.98561" lon="0.35414">
        <ele>95.329</ele>
        <time>2016-06-02T00:44:46Z</time>
      </trkpt>
      <trkpt lat="47.98644" lon="0.35474">
        <ele>91.393</ele>
        <time>2016-06-02T00:44:26Z</time>
      </trkpt>
      <trkpt lat="47.98739" lon="0.35494">
        <ele>90.981</ele>
        <time>2016-06-02T00:44:06Z</time>
      </trkpt>
      <trkpt lat="47.98864" lon="0.35494">
        <ele>88.045</ele>
        <time>2016-06-02T00:43:46Z</time>
      </trkpt>
      <trkpt lat="47.98883" lon="0.35202">
        <ele>96.252</ele>
        <time>2016-06-02T00:43:26Z</time>
      </trkpt>
      <trkpt lat="47.98898" lon="0.35092">
        <ele>100.077</ele>
        <time>2016-06-02T00:43:06Z</time>
      </trkpt>
      <trkpt lat="47.98973" lon="0.35039">
        <ele>96.621</ele>
        <time>2016-06-02T00:42:46Z</time>
      </trkpt>
      <trkpt lat="47.99112" lon="0.34996">
        <ele>93.208</ele>
        <time>2016-06-02T00:42:26Z</time>
      </trkpt>
      <trkpt lat="47.99109" lon="0.34811">
        <ele>103.82</ele>
        <time>2016-06-02T00:42:06Z</time>
      </trkpt>
      <trkpt lat="47.99148" lon="0.34822">
        <ele>104.9</ele>
        <time>2016-06-02T00:41:46Z</time>
      </trkpt>
      <trkpt lat="47.99144" lon="0.34674">
        <ele>112.757</ele>
        <time>2016-06-02T00:41:26Z</time>
      </trkpt>
      <trkpt lat="47.99177" lon="0.34524">
        <ele>121.049</ele>
        <time>2016-06-02T00:41:06Z</time>
      </trkpt>
      <trkpt lat="47.99233" lon="0.34519">
        <ele>123.49</ele>
        <time>2016-06-02T00:40:46Z</time>
      </trkpt>
      <trkpt lat="47.99246" lon="0.34386">
        <ele>123.944</ele>
        <time>2016-06-02T00:40:26Z</time>
      </trkpt>
      <trkpt lat="47.99219" lon="0.3423">
        <ele>123.842</ele>
        <time>2016-06-02T00:40:06Z</time>
      </trkpt>
      <trkpt lat="47.99186" lon="0.3415">
        <ele>117.886</ele>
        <time>2016-06-02T00:39:46Z</time>
      </trkpt>
      <trkpt lat="47.9899" lon="0.33959">
        <ele>98.533</ele>
        <time>2016-06-02T00:39:26Z</time>
      </trkpt>
      <trkpt lat="47.9899" lon="0.33959">
        <ele>98.568</ele>
        <time>2016-06-02T00:39:06Z</time>
      </trkpt>
      <trkpt lat="47.9896" lon="0.33891">
        <ele>93.722</ele>
        <time>2016-06-02T00:38:46Z</time>
      </trkpt>
      <trkpt lat="47.98953" lon="0.33807">
        <ele>94.008</ele>
        <time>2016-06-02T00:38:26Z</time>
      </trkpt>
      <trkpt lat="47.98918" lon="0.33599">
        <ele>91.114</ele>
        <time>2016-06-02T00:38:06Z</time>
      </trkpt>
      <trkpt lat="47.99007" lon="0.33612">
        <ele>97.368</ele>
        <time>2016-06-02T00:37:46Z</time>
      </trkpt>
      <trkpt lat="47.99184" lon="0.33595">
        <ele>107.965</ele>
        <time>2016-06-02T00:37:26Z</time>
      </trkpt>
      <trkpt lat="47.99332" lon="0.3355">
        <ele>99.947</ele>
        <time>2016-06-02T00:37:06Z</time>
      </trkpt>
      <trkpt lat="47.99437" lon="0.33459">
        <ele>91.668</ele>
        <time>2016-06-02T00:36:46Z</time>
      </trkpt>
      <trkpt lat="47.99448" lon="0.33374">
        <ele>89.982</ele>
        <time>2016-06-02T00:36:26Z</time>
      </trkpt>
      <trkpt lat="47.99434" lon="0.33245">
        <ele>89.66</ele>
        <time>2016-06-02T00:36:06Z</time>
      </trkpt>
      <trkpt lat="47.99374" lon="0.33105">
        <ele>84.574</ele>
        <time>2016-06-02T00:35:46Z</time>
      </trkpt>
      <trkpt lat="47.99355" lon="0.33022">
        <ele>79.671</ele>
        <time>2016-06-02T00:35:26Z</time>
      </trkpt>
      <trkpt lat="47.99358" lon="0.32897">
        <ele>77.346</ele>
        <time>2016-06-02T00:35:06Z</time>
      </trkpt>
      <trkpt lat="47.99435" lon="0.32925">
        <ele>77.84</ele>
        <time>2016-06-02T00:34:46Z</time>
      </trkpt>
      <trkpt lat="47.99507" lon="0.32912">
        <ele>74.608</ele>
        <time>2016-06-02T00:34:26Z</time>
      </trkpt>
      <trkpt lat="47.99835" lon="0.3306">
        <ele>73.221</ele>
        <time>2016-06-02T00:34:06Z</time>
      </trkpt>
      <trkpt lat="48.00003" lon="0.32899">
        <ele>69.629</ele>
        <time>2016-06-02T00:33:46Z</time>
      </trkpt>
      <trkpt lat="48.00116" lon="0.32917">
        <ele>72.347</ele>
        <time>2016-06-02T00:33:26Z</time>
      </trkpt>
      <trkpt lat="48.00014" lon="0.32771">
        <ele>69.546</ele>
        <time>2016-06-02T00:33:06Z</time>
      </trkpt>
      <trkpt lat="48.00014" lon="0.32771">
        <ele>69.597</ele>
        <time>2016-06-02T00:32:46Z</time>
      </trkpt>
      <trkpt lat="48.00027" lon="0.32481">
        <ele>81.681</ele>
        <time>2016-06-02T00:32:26Z</time>
      </trkpt>
      <trkpt lat="48.0001" lon="0.32357">
        <ele>78.349</ele>
        <time>2016-06-02T00:32:06Z</time>
      </trkpt>
      <trkpt lat="48.00011" lon="0.32224">
        <ele>81.513</ele>
        <time>2016-06-02T00:31:46Z</time>
      </trkpt>
      <trkpt lat="48.00005" lon="0.32063">
        <ele>81.22</ele>
        <time>2016-06-02T00:31:26Z</time>
      </trkpt>
      <trkpt lat="48.00005" lon="0.31854">
        <ele>80.015</ele>
        <time>2016-06-02T00:31:06Z</time>
      </trkpt>
      <trkpt lat="47.99967" lon="0.31719">
        <ele>74.419</ele>
        <time>2016-06-02T00:30:46Z</time>
      </trkpt>
      <trkpt lat="47.9986" lon="0.31809">
        <ele>67.008</ele>
        <time>2016-06-02T00:30:26Z</time>
      </trkpt>
      <trkpt lat="47.99817" lon="0.31565">
        <ele>66.815</ele>
        <time>2016-06-02T00:30:06Z</time>
      </trkpt>
      <trkpt lat="47.99817" lon="0.315">
        <ele>63.423</ele>
        <time>2016-06-02T00:29:46Z</time>
      </trkpt>
      <trkpt lat="47.99922" lon="0.31558">
        <ele>72.033</ele>
        <time>2016-06-02T00:29:26Z</time>
      </trkpt>
      <trkpt lat="47.99962" lon="0.31533">
        <ele>74.858</ele>
        <time>2016-06-02T00:29:06Z</time>
      </trkpt>
      <trkpt lat="47.99982" lon="0.31121">
        <ele>77.629</ele>
        <time>2016-06-02T00:28:46Z</time>
      </trkpt>
      <trkpt lat="48" lon="0.3097">
        <ele>82.023</ele>
        <time>2016-06-02T00:28:26Z</time>
      </trkpt>
      <trkpt lat="48" lon="0.30833">
        <ele>80.051</ele>
        <time>2016-06-02T00:28:06Z</time>
      </trkpt>
      <trkpt lat="48.00017" lon="0.30681">
        <ele>68.365</ele>
        <time>2016-06-02T00:27:46Z</time>
      </trkpt>
      <trkpt lat="48.00011" lon="0.30483">
        <ele>66.692</ele>
        <time>2016-06-02T00:27:26Z</time>
      </trkpt>
      <trkpt lat="48.00046" lon="0.30325">
        <ele>72.777</ele>
        <time>2016-06-02T00:27:06Z</time>
      </trkpt>
      <trkpt lat="48.00031" lon="0.30191">
        <ele>73.011</ele>
        <time>2016-06-02T00:26:46Z</time>
      </trkpt>
      <trkpt lat="47.99896" lon="0.29715">
        <ele>70.208</ele>
        <time>2016-06-02T00:26:26Z</time>
      </trkpt>
      <trkpt lat="47.99878" lon="0.29614">
        <ele>70.611</ele>
        <time>2016-06-02T00:26:06Z</time>
      </trkpt>
      <trkpt lat="47.99836" lon="0.29496">
        <ele>76.556</ele>
        <time>2016-06-02T00:25:46Z</time>
      </trkpt>
      <trkpt lat="47.99833" lon="0.29344">
        <ele>68.454</ele>
        <time>2016-06-02T00:25:26Z</time>
      </trkpt>
      <trkpt lat="47.99816" lon="0.29071">
        <ele>71.341</ele>
        <time>2016-06-02T00:25:06Z</time>
      </trkpt>
      <trkpt lat="47.99825" lon="0.28996">
        <ele>64.762</ele>
        <time>2016-06-02T00:24:46Z</time>
      </trkpt>
      <trkpt lat="47.99784" lon="0.28971">
        <ele>67.126</ele>
        <time>2016-06-02T00:24:26Z</time>
      </trkpt>
      <trkpt lat="47.99682" lon="0.28953">
        <ele>72.644</ele>
        <time>2016-06-02T00:24:06Z</time>
      </trkpt>
      <trkpt lat="47.99642" lon="0.28915">
        <ele>69.718</ele>
        <time>2016-06-02T00:23:46Z</time>
      </trkpt>
      <trkpt lat="47.99566" lon="0.28741">
        <ele>62.725</ele>
        <time>2016-06-02T00:23:26Z</time>
      </trkpt>
      <trkpt lat="47.99468" lon="0.28659">
        <ele>58.03</ele>
        <time>2016-06-02T00:23:06Z</time>
      </trkpt>
      <trkpt lat="47.99517" lon="0.28606">
        <ele>58.434</ele>
        <time>2016-06-02T00:22:46Z</time>
      </trkpt>
      <trkpt lat="47.99466" lon="0.28565">
        <ele>60.408</ele>
        <time>2016-06-02T00:22:26Z</time>
      </trkpt>
      <trkpt lat="47.99444" lon="0.28295">
        <ele>75.226</ele>
        <time>2016-06-02T00:22:06Z</time>
      </trkpt>
      <trkpt lat="47.99421" lon="0.279">
        <ele>78.606</ele>
        <time>2016-06-02T00:21:46Z</time>
      </trkpt>
      <trkpt lat="47.99744" lon="0.27786">
        <ele>64.889</ele>
        <time>2016-06-02T00:21:26Z</time>
      </trkpt>
      <trkpt lat="48.00067" lon="0.27844">
        <ele>58.617</ele>
        <time>2016-06-02T00:21:06Z</time>
      </trkpt>
      <trkpt lat="48.00169" lon="0.27889">
        <ele>60.148</ele>
        <time>2016-06-02T00:20:46Z</time>
      </trkpt>
      <trkpt lat="48.00165" lon="0.27913">
        <ele>58.952</ele>
        <time>2016-06-02T00:20:26Z</time>
      </trkpt>
      <trkpt lat="48.00234" lon="0.28076">
        <ele>61.27</ele>
        <time>2016-06-02T00:20:06Z</time>
      </trkpt>
      <trkpt lat="48.00346" lon="0.28378">
        <ele>62.044</ele>
        <time>2016-06-02T00:19:46Z</time>
      </trkpt>
      <trkpt lat="48.00346" lon="0.28378">
        <ele>62.061</ele>
        <time>2016-06-02T00:19:26Z</time>
      </trkpt>
      <trkpt lat="48.00435" lon="0.2858">
        <ele>61.636</ele>
        <time>2016-06-02T00:19:06Z</time>
      </trkpt>
      <trkpt lat="48.00531" lon="0.28563">
        <ele>61.36</ele>
        <time>2016-06-02T00:18:46Z</time>
      </trkpt>
      <trkpt lat="48.00551" lon="0.28578">
        <ele>61.808</ele>
        <time>2016-06-02T00:18:26Z</time>
      </trkpt>
      <trkpt lat="48.00565" lon="0.28664">
        <ele>63.015</ele>
        <time>2016-06-02T00:18:06Z</time>
      </trkpt>
      <trkpt lat="48.00635" lon="0.28637">
        <ele>62.305</ele>
        <time>2020-12-24T10:39:55Z</time>
      </trkpt>
      <trkpt lat="48.00727" lon="0.28659">
        <ele>61.444</ele>
        <time>2020-12-24T10:39:35Z</time>
      </trkpt>
      <trkpt lat="48.00987" lon="0.28666">
        <ele>61.029</ele>
        <time>2020-12-24T10:39:15Z</time>
      </trkpt>
      <trkpt lat="48.01119" lon="0.28639">
        <ele>64.32</ele>
        <time>2020-12-24T10:38:55Z</time>
      </trkpt>
      <trkpt lat="48.01165" lon="0.28688">
        <ele>65.944</ele>
        <time>2020-12-24T10:38:35Z</time>
      </trkpt>
      <trkpt lat="48.01209" lon="0.28667">
        <ele>67.042</ele>
        <time>2020-12-24T10:38:15Z</time>
      </trkpt>
      <trkpt lat="48.01219" lon="0.28716">
        <ele>66.976</ele>
        <time>2020-12-24T10:37:55Z</time>
      </trkpt>
      <trkpt lat="48.01287" lon="0.28834">
        <ele>70.113</ele>
        <time>2020-12-24T10:37:35Z</time>
      </trkpt>
      <trkpt lat="48.0133" lon="0.28773">
        <ele>73.688</ele>
        <time>2016-06-02T00:14:26Z</time>
      </trkpt>
      <trkpt lat="48.01352" lon="0.28651">
        <ele>74.732</ele>
        <time>2016-06-02T00:14:06Z</time>
      </trkpt>
      <trkpt lat="48.01441" lon="0.28608">
        <ele>77.508</ele>
        <time>2016-06-02T00:13:46Z</time>
      </trkpt>
      <trkpt lat="48.01474" lon="0.2861">
        <ele>77.024</ele>
        <time>2016-06-02T00:13:26Z</time>
      </trkpt>
      <trkpt lat="48.0157" lon="0.28501">
        <ele>65.604</ele>
        <time>2016-06-02T00:13:06Z</time>
      </trkpt>
      <trkpt lat="48.01629" lon="0.28473">
        <ele>63.469</ele>
        <time>2016-06-02T00:12:46Z</time>
      </trkpt>
      <trkpt lat="48.01628" lon="0.28466">
        <ele>62.578</ele>
        <time>2016-06-02T00:12:26Z</time>
      </trkpt>
      <trkpt lat="48.01628" lon="0.28466">
        <ele>62.579</ele>
        <time>2016-06-02T00:12:06Z</time>
      </trkpt>
      <trkpt lat="48.01628" lon="0.28466">
        <ele>62.573</ele>
        <time>2016-06-02T00:11:46Z</time>
      </trkpt>
      <trkpt lat="48.01629" lon="0.28473">
        <ele>63.451</ele>
        <time>2016-06-02T00:11:26Z</time>
      </trkpt>
      <trkpt lat="48.01629" lon="0.28473">
        <ele>63.485</ele>
        <time>2016-06-02T00:11:06Z</time>
      </trkpt>
      <trkpt lat="48.01625" lon="0.28389">
        <ele>54.532</ele>
        <time>2016-06-02T00:10:46Z</time>
      </trkpt>
      <trkpt lat="48.01662" lon="0.28277">
        <ele>52.097</ele>
        <time>2016-06-02T00:10:26Z</time>
      </trkpt>
      <trkpt lat="48.01689" lon="0.27973">
        <ele>53.061</ele>
        <time>2016-06-02T00:10:06Z</time>
      </trkpt>
      <trkpt lat="48.01735" lon="0.27915">
        <ele>51.908</ele>
        <time>2016-06-02T00:09:46Z</time>
      </trkpt>
      <trkpt lat="48.01783" lon="0.27801">
        <ele>52.014</ele>
        <time>2016-06-02T00:09:26Z</time>
      </trkpt>
      <trkpt lat="48.01806" lon="0.27692">
        <ele>57.004</ele>
        <time>2016-06-02T00:09:06Z</time>
      </trkpt>
      <trkpt lat="48.0181" lon="0.27499">
        <ele>51.953</ele>
        <time>2016-06-02T00:08:46Z</time>
      </trkpt>
      <trkpt lat="48.01791" lon="0.27475">
        <ele>53.031</ele>
        <time>2016-06-02T00:08:26Z</time>
      </trkpt>
      <trkpt lat="48.01804" lon="0.27423">
        <ele>54.822</ele>
        <time>2020-12-24T10:30:55Z</time>
      </trkpt>
      <trkpt lat="48.01864" lon="0.27344">
        <ele>61.866</ele>
        <time>2020-12-24T10:30:35Z</time>
      </trkpt>
      <trkpt lat="48.01933" lon="0.27398">
        <ele>66.974</ele>
        <time>2016-06-02T00:07:06Z</time>
      </trkpt>
      <trkpt lat="48.01995" lon="0.27462">
        <ele>66.038</ele>
        <time>2016-06-02T00:06:46Z</time>
      </trkpt>
      <trkpt lat="48.02038" lon="0.27458">
        <ele>65.095</ele>
        <time>2016-06-02T00:06:26Z</time>
      </trkpt>
      <trkpt lat="48.02124" lon="0.27501">
        <ele>54.53</ele>
        <time>2016-06-02T00:06:06Z</time>
      </trkpt>
      <trkpt lat="48.02104" lon="0.27567">
        <ele>52.884</ele>
        <time>2016-06-02T00:05:46Z</time>
      </trkpt>
      <trkpt lat="48.02104" lon="0.27567">
        <ele>52.808</ele>
        <time>2016-06-02T00:05:26Z</time>
      </trkpt>
      <trkpt lat="48.02197" lon="0.27655">
        <ele>56.617</ele>
        <time>2016-06-02T00:05:06Z</time>
      </trkpt>
      <trkpt lat="48.02331" lon="0.27739">
        <ele>59.289</ele>
        <time>2016-06-02T00:04:46Z</time>
      </trkpt>
      <trkpt lat="48.02449" lon="0.2776">
        <ele>69.085</ele>
        <time>2016-06-02T00:04:26Z</time>
      </trkpt>
      <trkpt lat="48.02525" lon="0.27728">
        <ele>65.817</ele>
        <time>2016-06-02T00:04:06Z</time>
      </trkpt>
      <trkpt lat="48.02592" lon="0.2775">
        <ele>68.038</ele>
        <time>2016-06-02T00:03:46Z</time>
      </trkpt>
      <trkpt lat="48.02608" lon="0.27666">
        <ele>66.112</ele>
        <time>2016-06-02T00:03:26Z</time>
      </trkpt>
      <trkpt lat="48.02576" lon="0.27556">
        <ele>77.13</ele>
        <time>2016-06-02T00:03:06Z</time>
      </trkpt>
      <trkpt lat="48.02579" lon="0.27413">
        <ele>90.174</ele>
        <time>2016-06-02T00:02:46Z</time>
      </trkpt>
      <trkpt lat="48.02604" lon="0.27325">
        <ele>86.281</ele>
        <time>2016-06-02T00:02:26Z</time>
      </trkpt>
      <trkpt lat="48.02733" lon="0.27211">
        <ele>81.486</ele>
        <time>2016-06-02T00:02:06Z</time>
      </trkpt>
      <trkpt lat="48.02842" lon="0.27232">
        <ele>81.68</ele>
        <time>2016-06-02T00:01:46Z</time>
      </trkpt>
      <trkpt lat="48.02855" lon="0.27312">
        <ele>77.808</ele>
        <time>2016-06-02T00:01:26Z</time>
      </trkpt>
      <trkpt lat="48.02903" lon="0.2752">
        <ele>71.31</ele>
        <time>2016-06-02T00:01:06Z</time>
      </trkpt>
      <trkpt lat="48.02924" lon="0.2773">
        <ele>69.064</ele>
        <time>2016-06-02T00:00:46Z</time>
      </trkpt>
      <trkpt lat="48.02947" lon="0.27838">
        <ele>69.043</ele>
        <time>2016-06-02T00:00:26Z</time>
      </trkpt>
      <trkpt lat="48.02999" lon="0.27972">
        <ele>68.052</ele>
        <time>2016-06-02T00:00:06Z</time>
      </trkpt>
      <trkpt lat="48.02999" lon="0.27972">
        <ele>68.033</ele>
        <time>2016-06-01T23:59:46Z</time>
      </trkpt>
      <trkpt lat="48.03035" lon="0.28015">
        <ele>65.237</ele>
        <time>2016-06-01T23:59:26Z</time>
      </trkpt>
      <trkpt lat="48.03019" lon="0.28042">
        <ele>65.715</ele>
        <time>2016-06-01T23:59:06Z</time>
      </trkpt>
      <trkpt lat="48.03059" lon="0.2807">
        <ele>65.529</ele>
        <time>2016-06-01T23:58:46Z</time>
      </trkpt>
      <trkpt lat="48.0313" lon="0.28148">
        <ele>65.776</ele>
        <time>2016-06-01T23:58:26Z</time>
      </trkpt>
      <trkpt lat="48.03158" lon="0.28195">
        <ele>64.011</ele>
        <time>2016-06-01T23:58:06Z</time>
      </trkpt>
      <trkpt lat="48.03239" lon="0.28195">
        <ele>69.245</ele>
        <time>2016-06-01T23:57:46Z</time>
      </trkpt>
      <trkpt lat="48.03318" lon="0.28206">
        <ele>67.608</ele>
        <time>2016-06-01T23:57:26Z</time>
      </trkpt>
      <trkpt lat="48.03384" lon="0.28203">
        <ele>65.427</ele>
        <time>2016-06-01T23:57:06Z</time>
      </trkpt>
      <trkpt lat="48.03432" lon="0.28199">
        <ele>65.307</ele>
        <time>2016-06-01T23:56:46Z</time>
      </trkpt>
      <trkpt lat="48.03471" lon="0.2821">
        <ele>64.099</ele>
        <time>2016-06-01T23:56:26Z</time>
      </trkpt>
      <trkpt lat="48.03496" lon="0.28212">
        <ele>62.951</ele>
        <time>2016-06-01T23:56:06Z</time>
      </trkpt>
      <trkpt lat="48.0352" lon="0.28248">
        <ele>62.012</ele>
        <time>2016-06-01T23:55:46Z</time>
      </trkpt>
      <trkpt lat="48.03536" lon="0.28276">
        <ele>61.326</ele>
        <time>2016-06-01T23:55:26Z</time>
      </trkpt>
      <trkpt lat="48.03605" lon="0.28294">
        <ele>67.584</ele>
        <time>2016-06-01T23:55:06Z</time>
      </trkpt>
      <trkpt lat="48.03658" lon="0.28287">
        <ele>73.058</ele>
        <time>2016-06-01T23:54:46Z</time>
      </trkpt>
      <trkpt lat="48.03706" lon="0.28298">
        <ele>77.535</ele>
        <time>2016-06-01T23:54:26Z</time>
      </trkpt>
      <trkpt lat="48.04025" lon="0.28493">
        <ele>87.54</ele>
        <time>2016-06-01T23:54:06Z</time>
      </trkpt>
      <trkpt lat="48.04111" lon="0.28485">
        <ele>83.744</ele>
        <time>2016-06-01T23:53:46Z</time>
      </trkpt>
      <trkpt lat="48.04131" lon="0.28467">
        <ele>81.108</ele>
        <time>2016-06-01T23:53:26Z</time>
      </trkpt>
      <trkpt lat="48.04216" lon="0.28457">
        <ele>72.726</ele>
        <time>2016-06-01T23:53:06Z</time>
      </trkpt>
      <trkpt lat="48.04326" lon="0.28429">
        <ele>72.542</ele>
        <time>2016-06-01T23:52:46Z</time>
      </trkpt>
      <trkpt lat="48.04342" lon="0.28433">
        <ele>72.787</ele>
        <time>2016-06-01T23:52:26Z</time>
      </trkpt>
      <trkpt lat="48.04342" lon="0.28465">
        <ele>71.656</ele>
        <time>2016-06-01T23:52:06Z</time>
      </trkpt>
      <trkpt lat="48.04353" lon="0.28495">
        <ele>70.197</ele>
        <time>2016-06-01T23:51:46Z</time>
      </trkpt>
      <trkpt lat="48.04407" lon="0.28512">
        <ele>69.641</ele>
        <time>2016-06-01T23:51:26Z</time>
      </trkpt>
      <trkpt lat="48.04432" lon="0.28506">
        <ele>70.279</ele>
        <time>2016-06-01T23:51:06Z</time>
      </trkpt>
      <trkpt lat="48.0445" lon="0.28523">
        <ele>69.573</ele>
        <time>2016-06-01T23:50:46Z</time>
      </trkpt>
      <trkpt lat="48.04495" lon="0.28603">
        <ele>68.16</ele>
        <time>2016-06-01T23:50:26Z</time>
      </trkpt>
      <trkpt lat="48.04603" lon="0.28723">
        <ele>65.355</ele>
        <time>2016-06-01T23:50:06Z</time>
      </trkpt>
      <trkpt lat="48.04613" lon="0.28751">
        <ele>64.159</ele>
        <time>2016-06-01T23:49:46Z</time>
      </trkpt>
      <trkpt lat="48.0463" lon="0.28716">
        <ele>66.108</ele>
        <time>2016-06-01T23:49:26Z</time>
      </trkpt>
      <trkpt lat="48.04663" lon="0.2853">
        <ele>70.921</ele>
        <time>2016-06-01T23:49:06Z</time>
      </trkpt>
      <trkpt lat="48.04669" lon="0.2847">
        <ele>73.301</ele>
        <time>2016-06-01T23:48:46Z</time>
      </trkpt>
      <trkpt lat="48.04679" lon="0.28261">
        <ele>79.339</ele>
        <time>2016-06-01T23:48:26Z</time>
      </trkpt>
      <trkpt lat="48.04698" lon="0.28083">
        <ele>96.34</ele>
        <time>2016-06-01T23:48:06Z</time>
      </trkpt>
      <trkpt lat="48.04653" lon="0.28008">
        <ele>111.351</ele>
        <time>2016-06-01T23:47:46Z</time>
      </trkpt>
      <trkpt lat="48.04616" lon="0.27888">
        <ele>111.095</ele>
        <time>2016-06-01T23:47:26Z</time>
      </trkpt>
      <trkpt lat="48.0465" lon="0.27847">
        <ele>112.713</ele>
        <time>2016-06-01T23:47:06Z</time>
      </trkpt>
      <trkpt lat="48.04736" lon="0.27815">
        <ele>111.117</ele>
        <time>2016-06-01T23:46:46Z</time>
      </trkpt>
      <trkpt lat="48.04825" lon="0.27721">
        <ele>113.134</ele>
        <time>2016-06-01T23:46:26Z</time>
      </trkpt>
      <trkpt lat="48.04863" lon="0.27605">
        <ele>113.839</ele>
        <time>2016-06-01T23:46:06Z</time>
      </trkpt>
      <trkpt lat="48.04886" lon="0.2742">
        <ele>112.323</ele>
        <time>2016-06-01T23:45:46Z</time>
      </trkpt>
      <trkpt lat="48.0492" lon="0.27442">
        <ele>111.208</ele>
        <time>2016-06-01T23:45:26Z</time>
      </trkpt>
      <trkpt lat="48.05075" lon="0.276">
        <ele>103.319</ele>
        <time>2016-06-01T23:45:06Z</time>
      </trkpt>
      <trkpt lat="48.05155" lon="0.27729">
        <ele>96.99</ele>
        <time>2016-06-01T23:44:46Z</time>
      </trkpt>
      <trkpt lat="48.052" lon="0.27787">
        <ele>93.176</ele>
        <time>2016-06-01T23:44:26Z</time>
      </trkpt>
      <trkpt lat="48.05251" lon="0.27826">
        <ele>87.688</ele>
        <time>2016-06-01T23:44:06Z</time>
      </trkpt>
      <trkpt lat="48.05303" lon="0.27907">
        <ele>82.279</ele>
        <time>2016-06-01T23:43:46Z</time>
      </trkpt>
      <trkpt lat="48.05362" lon="0.27955">
        <ele>80.063</ele>
        <time>2016-06-01T23:43:26Z</time>
      </trkpt>
      <trkpt lat="48.05375" lon="0.27989">
        <ele>79.291</ele>
        <time>2016-06-01T23:43:06Z</time>
      </trkpt>
      <trkpt lat="48.05479" lon="0.28081">
        <ele>74.315</ele>
        <time>2016-06-01T23:42:46Z</time>
      </trkpt>
      <trkpt lat="48.05537" lon="0.28107">
        <ele>76.012</ele>
        <time>2016-06-01T23:42:26Z</time>
      </trkpt>
      <trkpt lat="48.05573" lon="0.28105">
        <ele>75.317</ele>
        <time>2016-06-01T23:42:06Z</time>
      </trkpt>
      <trkpt lat="48.0567" lon="0.2807">
        <ele>75.011</ele>
        <time>2016-06-01T23:41:46Z</time>
      </trkpt>
      <trkpt lat="48.05708" lon="0.28066">
        <ele>76.908</ele>
        <time>2016-06-01T23:41:26Z</time>
      </trkpt>
      <trkpt lat="48.05829" lon="0.28126">
        <ele>83.014</ele>
        <time>2016-06-01T23:41:06Z</time>
      </trkpt>
      <trkpt lat="48.059" lon="0.28152">
        <ele>82.404</ele>
        <time>2016-06-01T23:40:46Z</time>
      </trkpt>
      <trkpt lat="48.05969" lon="0.28191">
        <ele>77.453</ele>
        <time>2016-06-01T23:40:26Z</time>
      </trkpt>
      <trkpt lat="48.06099" lon="0.28242">
        <ele>70.411</ele>
        <time>2016-06-01T23:40:06Z</time>
      </trkpt>
      <trkpt lat="48.06154" lon="0.28038">
        <ele>73.862</ele>
        <time>2016-06-01T23:39:46Z</time>
      </trkpt>
      <trkpt lat="48.06174" lon="0.28002">
        <ele>74.266</ele>
        <time>2016-06-01T23:39:26Z</time>
      </trkpt>
      <trkpt lat="48.06185" lon="0.27892">
        <ele>78.254</ele>
        <time>2016-06-01T23:39:06Z</time>
      </trkpt>
      <trkpt lat="48.06201" lon="0.27847">
        <ele>80.458</ele>
        <time>2016-06-01T23:38:46Z</time>
      </trkpt>
      <trkpt lat="48.06242" lon="0.27806">
        <ele>76.835</ele>
        <time>2016-06-01T23:38:26Z</time>
      </trkpt>
      <trkpt lat="48.06285" lon="0.27776">
        <ele>72.12</ele>
        <time>2016-06-01T23:38:06Z</time>
      </trkpt>
      <trkpt lat="48.06351" lon="0.27697">
        <ele>68.614</ele>
        <time>2016-06-01T23:37:46Z</time>
      </trkpt>
      <trkpt lat="48.06362" lon="0.27667">
        <ele>69.008</ele>
        <time>2016-06-01T23:37:26Z</time>
      </trkpt>
      <trkpt lat="48.06314" lon="0.27605">
        <ele>68.717</ele>
        <time>2016-06-01T23:37:06Z</time>
      </trkpt>
      <trkpt lat="48.06222" lon="0.27399">
        <ele>72.661</ele>
        <time>2016-06-01T23:36:46Z</time>
      </trkpt>
      <trkpt lat="48.06222" lon="0.27322">
        <ele>75.481</ele>
        <time>2016-06-01T23:36:26Z</time>
      </trkpt>
      <trkpt lat="48.06232" lon="0.27238">
        <ele>78.816</ele>
        <time>2016-06-01T23:36:06Z</time>
      </trkpt>
      <trkpt lat="48.0625" lon="0.27128">
        <ele>77.047</ele>
        <time>2016-06-01T23:35:46Z</time>
      </trkpt>
      <trkpt lat="48.06268" lon="0.27092">
        <ele>77.011</ele>
        <time>2016-06-01T23:35:26Z</time>
      </trkpt>
      <trkpt lat="48.06274" lon="0.27053">
        <ele>77.079</ele>
        <time>2016-06-01T23:35:06Z</time>
      </trkpt>
      <trkpt lat="48.06209" lon="0.26643">
        <ele>86.923</ele>
        <time>2016-06-01T23:34:46Z</time>
      </trkpt>
      <trkpt lat="48.06211" lon="0.26581">
        <ele>85.43</ele>
        <time>2016-06-01T23:34:26Z</time>
      </trkpt>
      <trkpt lat="48.06194" lon="0.2651">
        <ele>87.835</ele>
        <time>2016-06-01T23:34:06Z</time>
      </trkpt>
      <trkpt lat="48.06189" lon="0.26421">
        <ele>88.489</ele>
        <time>2016-06-01T23:33:46Z</time>
      </trkpt>
      <trkpt lat="48.06207" lon="0.26412">
        <ele>86.608</ele>
        <time>2016-06-01T23:33:26Z</time>
      </trkpt>
      <trkpt lat="48.06206" lon="0.26348">
        <ele>87.221</ele>
        <time>2016-06-01T23:33:06Z</time>
      </trkpt>
      <trkpt lat="48.06189" lon="0.2629">
        <ele>94.001</ele>
        <time>2016-06-01T23:32:46Z</time>
      </trkpt>
      <trkpt lat="48.06195" lon="0.26212">
        <ele>96.639</ele>
        <time>2016-06-01T23:32:26Z</time>
      </trkpt>
      <trkpt lat="48.06215" lon="0.26109">
        <ele>95.725</ele>
        <time>2016-06-01T23:32:06Z</time>
      </trkpt>
      <trkpt lat="48.06232" lon="0.26019">
        <ele>99.816</ele>
        <time>2016-06-01T23:31:46Z</time>
      </trkpt>
      <trkpt lat="48.06254" lon="0.25577">
        <ele>108.29</ele>
        <time>2016-06-01T23:31:26Z</time>
      </trkpt>
      <trkpt lat="48.06321" lon="0.25616">
        <ele>105.368</ele>
        <time>2016-06-01T23:31:06Z</time>
      </trkpt>
      <trkpt lat="48.06377" lon="0.25656">
        <ele>101.942</ele>
        <time>2016-06-01T23:30:46Z</time>
      </trkpt>
      <trkpt lat="48.06425" lon="0.25714">
        <ele>108.299</ele>
        <time>2016-06-01T23:30:26Z</time>
      </trkpt>
      <trkpt lat="48.06458" lon="0.25716">
        <ele>110.844</ele>
        <time>2016-06-01T23:30:06Z</time>
      </trkpt>
      <trkpt lat="48.06568" lon="0.25671">
        <ele>108.788</ele>
        <time>2016-06-01T23:29:26Z</time>
      </trkpt>
      <trkpt lat="48.06698" lon="0.25738">
        <ele>110.808</ele>
        <time>2016-06-01T23:29:06Z</time>
      </trkpt>
      <trkpt lat="48.06714" lon="0.25766">
        <ele>113.014</ele>
        <time>2016-06-01T23:28:46Z</time>
      </trkpt>
      <trkpt lat="48.06762" lon="0.25783">
        <ele>114.904</ele>
        <time>2016-06-01T23:28:26Z</time>
      </trkpt>
      <trkpt lat="48.06825" lon="0.25832">
        <ele>115.224</ele>
        <time>2016-06-01T23:28:06Z</time>
      </trkpt>
      <trkpt lat="48.06911" lon="0.25839">
        <ele>118.844</ele>
        <time>2016-06-01T23:27:46Z</time>
      </trkpt>
      <trkpt lat="48.07081" lon="0.26068">
        <ele>116.255</ele>
        <time>2016-06-01T23:27:26Z</time>
      </trkpt>
      <trkpt lat="48.0719" lon="0.26056">
        <ele>111.399</ele>
        <time>2016-06-01T23:27:06Z</time>
      </trkpt>
      <trkpt lat="48.07374" lon="0.26154">
        <ele>89.487</ele>
        <time>2016-06-01T23:26:46Z</time>
      </trkpt>
      <trkpt lat="48.07487" lon="0.26118">
        <ele>86.321</ele>
        <time>2016-06-01T23:26:26Z</time>
      </trkpt>
      <trkpt lat="48.07544" lon="0.26131">
        <ele>86.528</ele>
        <time>2016-06-01T23:26:06Z</time>
      </trkpt>
      <trkpt lat="48.07576" lon="0.26101">
        <ele>87.513</ele>
        <time>2016-06-01T23:25:46Z</time>
      </trkpt>
      <trkpt lat="48.07777" lon="0.26165">
        <ele>76.067</ele>
        <time>2016-06-01T23:25:26Z</time>
      </trkpt>
      <trkpt lat="48.07808" lon="0.26161">
        <ele>76.108</ele>
        <time>2016-06-01T23:25:06Z</time>
      </trkpt>
      <trkpt lat="48.07738" lon="0.25957">
        <ele>78.211</ele>
        <time>2016-06-01T23:24:46Z</time>
      </trkpt>
      <trkpt lat="48.0786" lon="0.25843">
        <ele>89.565</ele>
        <time>2016-06-01T23:24:26Z</time>
      </trkpt>
      <trkpt lat="48.07906" lon="0.25742">
        <ele>95.915</ele>
        <time>2016-06-01T23:24:06Z</time>
      </trkpt>
      <trkpt lat="48.07921" lon="0.25676">
        <ele>98.748</ele>
        <time>2016-06-01T23:23:46Z</time>
      </trkpt>
      <trkpt lat="48.0795" lon="0.25624">
        <ele>100.239</ele>
        <time>2016-06-01T23:23:26Z</time>
      </trkpt>
      <trkpt lat="48.08033" lon="0.25528">
        <ele>108.433</ele>
        <time>2016-06-01T23:23:06Z</time>
      </trkpt>
      <trkpt lat="48.08073" lon="0.2551">
        <ele>109.871</ele>
        <time>2016-06-01T23:22:46Z</time>
      </trkpt>
      <trkpt lat="48.08114" lon="0.25474">
        <ele>110.765</ele>
        <time>2016-06-01T23:22:26Z</time>
      </trkpt>
      <trkpt lat="48.08121" lon="0.2542">
        <ele>117.792</ele>
        <time>2016-06-01T23:22:06Z</time>
      </trkpt>
      <trkpt lat="48.08104" lon="0.25395">
        <ele>117.887</ele>
        <time>2016-06-01T23:21:46Z</time>
      </trkpt>
      <trkpt lat="48.08046" lon="0.25274">
        <ele>121.161</ele>
        <time>2016-06-01T23:21:26Z</time>
      </trkpt>
      <trkpt lat="48.07794" lon="0.24963">
        <ele>129.408</ele>
        <time>2016-06-01T23:21:06Z</time>
      </trkpt>
      <trkpt lat="48.07741" lon="0.24835">
        <ele>125.708</ele>
        <time>2016-06-01T23:20:46Z</time>
      </trkpt>
      <trkpt lat="48.07639" lon="0.24573">
        <ele>117.653</ele>
        <time>2016-06-01T23:20:26Z</time>
      </trkpt>
      <trkpt lat="48.07616" lon="0.24455">
        <ele>115.052</ele>
        <time>2016-06-01T23:20:06Z</time>
      </trkpt>
      <trkpt lat="48.0761" lon="0.24369">
        <ele>113.431</ele>
        <time>2016-06-01T23:19:46Z</time>
      </trkpt>
      <trkpt lat="48.07622" lon="0.24307">
        <ele>112.472</ele>
        <time>2016-06-01T23:19:26Z</time>
      </trkpt>
      <trkpt lat="48.07643" lon="0.24234">
        <ele>115.286</ele>
        <time>2016-06-01T23:19:06Z</time>
      </trkpt>
      <trkpt lat="48.07701" lon="0.24111">
        <ele>120.834</ele>
        <time>2016-06-01T23:18:46Z</time>
      </trkpt>
      <trkpt lat="48.07709" lon="0.24086">
        <ele>121.048</ele>
        <time>2016-06-01T23:18:26Z</time>
      </trkpt>
      <trkpt lat="48.07751" lon="0.24058">
        <ele>121.045</ele>
        <time>2016-06-01T23:18:06Z</time>
      </trkpt>
      <trkpt lat="48.07787" lon="0.23985">
        <ele>116.83</ele>
        <time>2016-06-01T23:17:46Z</time>
      </trkpt>
      <trkpt lat="48.07814" lon="0.23903">
        <ele>112.124</ele>
        <time>2016-06-01T23:17:26Z</time>
      </trkpt>
      <trkpt lat="48.07824" lon="0.23796">
        <ele>110.208</ele>
        <time>2016-06-01T23:17:06Z</time>
      </trkpt>
      <trkpt lat="48.07856" lon="0.23779">
        <ele>108.326</ele>
        <time>2016-06-01T23:16:46Z</time>
      </trkpt>
      <trkpt lat="48.08042" lon="0.23766">
        <ele>99.76</ele>
        <time>2016-06-01T23:16:26Z</time>
      </trkpt>
      <trkpt lat="48.08078" lon="0.23779">
        <ele>92.286</ele>
        <time>2016-06-01T23:16:06Z</time>
      </trkpt>
      <trkpt lat="48.08131" lon="0.23719">
        <ele>90.399</ele>
        <time>2016-06-01T23:15:46Z</time>
      </trkpt>
      <trkpt lat="48.08137" lon="0.23642">
        <ele>88.45</ele>
        <time>2016-06-01T23:15:26Z</time>
      </trkpt>
      <trkpt lat="48.08231" lon="0.23599">
        <ele>90.794</ele>
        <time>2016-06-01T23:15:06Z</time>
      </trkpt>
      <trkpt lat="48.08263" lon="0.23461">
        <ele>90.742</ele>
        <time>2016-06-01T23:14:46Z</time>
      </trkpt>
      <trkpt lat="48.0836" lon="0.23386">
        <ele>88.926</ele>
        <time>2016-06-01T23:14:26Z</time>
      </trkpt>
      <trkpt lat="48.08316" lon="0.23178">
        <ele>84.793</ele>
        <time>2016-06-01T23:14:06Z</time>
      </trkpt>
      <trkpt lat="48.0831" lon="0.23109">
        <ele>82.718</ele>
        <time>2016-06-01T23:13:46Z</time>
      </trkpt>
      <trkpt lat="48.08405" lon="0.22867">
        <ele>77.062</ele>
        <time>2016-06-01T23:13:26Z</time>
      </trkpt>
      <trkpt lat="48.08428" lon="0.22594">
        <ele>77.408</ele>
        <time>2016-06-01T23:13:06Z</time>
      </trkpt>
      <trkpt lat="48.0837" lon="0.22541">
        <ele>73.216</ele>
        <time>2016-06-01T23:12:46Z</time>
      </trkpt>
      <trkpt lat="48.08284" lon="0.22464">
        <ele>74.006</ele>
        <time>2016-06-01T23:12:26Z</time>
      </trkpt>
      <trkpt lat="48.08214" lon="0.22429">
        <ele>72.664</ele>
        <time>2016-06-01T23:12:06Z</time>
      </trkpt>
      <trkpt lat="48.08111" lon="0.22461">
        <ele>70.046</ele>
        <time>2016-06-01T23:11:46Z</time>
      </trkpt>
      <trkpt lat="48.08082" lon="0.22453">
        <ele>69.027</ele>
        <time>2016-06-01T23:11:26Z</time>
      </trkpt>
      <trkpt lat="48.08008" lon="0.22416">
        <ele>70.631</ele>
        <time>2016-06-01T23:11:06Z</time>
      </trkpt>
      <trkpt lat="48.07947" lon="0.22416">
        <ele>68.139</ele>
        <time>2016-06-01T23:10:46Z</time>
      </trkpt>
      <trkpt lat="48.07907" lon="0.22399">
        <ele>67.073</ele>
        <time>2016-06-01T23:10:26Z</time>
      </trkpt>
      <trkpt lat="48.07813" lon="0.22365">
        <ele>68.17</ele>
        <time>2016-06-01T23:10:06Z</time>
      </trkpt>
      <trkpt lat="48.07808" lon="0.22313">
        <ele>68.045</ele>
        <time>2016-06-01T23:09:46Z</time>
      </trkpt>
      <trkpt lat="48.07814" lon="0.22253">
        <ele>67.189</ele>
        <time>2016-06-01T23:09:26Z</time>
      </trkpt>
      <trkpt lat="48.07851" lon="0.2221">
        <ele>67.608</ele>
        <time>2016-06-01T23:09:06Z</time>
      </trkpt>
      <trkpt lat="48.0787" lon="0.22157">
        <ele>69.91</ele>
        <time>2016-06-01T23:08:46Z</time>
      </trkpt>
      <trkpt lat="48.07983" lon="0.21955">
        <ele>82.455</ele>
        <time>2016-06-01T23:08:26Z</time>
      </trkpt>
      <trkpt lat="48.07942" lon="0.21882">
        <ele>81.034</ele>
        <time>2016-06-01T23:08:06Z</time>
      </trkpt>
      <trkpt lat="48.07886" lon="0.21751">
        <ele>80.948</ele>
        <time>2016-06-01T23:07:46Z</time>
      </trkpt>
      <trkpt lat="48.07729" lon="0.21691">
        <ele>78.329</ele>
        <time>2016-06-01T23:07:26Z</time>
      </trkpt>
      <trkpt lat="48.07751" lon="0.21607">
        <ele>75.013</ele>
        <time>2016-06-01T23:07:06Z</time>
      </trkpt>
      <trkpt lat="48.07791" lon="0.21515">
        <ele>73.091</ele>
        <time>2016-06-01T23:06:46Z</time>
      </trkpt>
      <trkpt lat="48.07823" lon="0.21498">
        <ele>72.435</ele>
        <time>2016-06-01T23:06:26Z</time>
      </trkpt>
      <trkpt lat="48.07986" lon="0.21511">
        <ele>75.122</ele>
        <time>2016-06-01T23:06:06Z</time>
      </trkpt>
      <trkpt lat="48.08068" lon="0.21586">
        <ele>82.547</ele>
        <time>2016-06-01T23:05:46Z</time>
      </trkpt>
      <trkpt lat="48.08109" lon="0.21594">
        <ele>85.351</ele>
        <time>2016-06-01T23:05:26Z</time>
      </trkpt>
      <trkpt lat="48.08115" lon="0.21571">
        <ele>84.408</ele>
        <time>2016-06-01T23:05:06Z</time>
      </trkpt>
      <trkpt lat="48.08212" lon="0.21502">
        <ele>89.717</ele>
        <time>2016-06-01T23:04:46Z</time>
      </trkpt>
      <trkpt lat="48.08181" lon="0.21255">
        <ele>76.007</ele>
        <time>2016-06-01T23:04:26Z</time>
      </trkpt>
      <trkpt lat="48.08169" lon="0.21135">
        <ele>71.555</ele>
        <time>2016-06-01T23:04:06Z</time>
      </trkpt>
      <trkpt lat="48.08294" lon="0.21079">
        <ele>68.45</ele>
        <time>2016-06-01T23:03:46Z</time>
      </trkpt>
      <trkpt lat="48.08266" lon="0.20863">
        <ele>59.191</ele>
        <time>2016-06-01T23:03:26Z</time>
      </trkpt>
      <trkpt lat="48.08309" lon="0.20852">
        <ele>59.065</ele>
        <time>2016-06-01T23:03:06Z</time>
      </trkpt>
      <trkpt lat="48.08281" lon="0.20592">
        <ele>56.093</ele>
        <time>2016-06-01T23:02:46Z</time>
      </trkpt>
      <trkpt lat="48.08247" lon="0.20547">
        <ele>57.047</ele>
        <time>2016-06-01T23:02:26Z</time>
      </trkpt>
      <trkpt lat="48.08261" lon="0.20494">
        <ele>56.624</ele>
        <time>2016-06-01T23:02:06Z</time>
      </trkpt>
      <trkpt lat="48.08291" lon="0.20507">
        <ele>56.069</ele>
        <time>2016-06-01T23:01:46Z</time>
      </trkpt>
      <trkpt lat="48.08357" lon="0.205">
        <ele>57.953</ele>
        <time>2016-06-01T23:01:26Z</time>
      </trkpt>
      <trkpt lat="48.08465" lon="0.20526">
        <ele>54.308</ele>
        <time>2016-06-01T23:01:06Z</time>
      </trkpt>
      <trkpt lat="48.08546" lon="0.20567">
        <ele>51.021</ele>
        <time>2016-06-01T23:00:46Z</time>
      </trkpt>
      <trkpt lat="48.08611" lon="0.20618">
        <ele>52.056</ele>
        <time>2016-06-01T23:00:26Z</time>
      </trkpt>
      <trkpt lat="48.08632" lon="0.20663">
        <ele>51.074</ele>
        <time>2016-06-01T23:00:06Z</time>
      </trkpt>
      <trkpt lat="48.08832" lon="0.20751">
        <ele>51.987</ele>
        <time>2016-06-01T22:59:46Z</time>
      </trkpt>
      <trkpt lat="48.08879" lon="0.20762">
        <ele>52.448</ele>
        <time>2016-06-01T22:59:26Z</time>
      </trkpt>
      <trkpt lat="48.08981" lon="0.20749">
        <ele>51.772</ele>
        <time>2016-06-01T22:59:06Z</time>
      </trkpt>
      <trkpt lat="48.09011" lon="0.20749">
        <ele>51.02</ele>
        <time>2016-06-01T22:58:46Z</time>
      </trkpt>
      <trkpt lat="48.09052" lon="0.20781">
        <ele>52.974</ele>
        <time>2016-06-01T22:58:26Z</time>
      </trkpt>
      <trkpt lat="48.0906" lon="0.20968">
        <ele>51.031</ele>
        <time>2016-06-01T22:58:06Z</time>
      </trkpt>
      <trkpt lat="48.09051" lon="0.21067">
        <ele>50.876</ele>
        <time>2016-06-01T22:57:46Z</time>
      </trkpt>
      <trkpt lat="48.09295" lon="0.21032">
        <ele>50.48</ele>
        <time>2016-06-01T22:57:26Z</time>
      </trkpt>
      <trkpt lat="48.09452" lon="0.21092">
        <ele>51.008</ele>
        <time>2016-06-01T22:57:06Z</time>
      </trkpt>
      <trkpt lat="48.09537" lon="0.21191">
        <ele>51.314</ele>
        <time>2016-06-01T22:56:46Z</time>
      </trkpt>
      <trkpt lat="48.09584" lon="0.21219">
        <ele>51.122</ele>
        <time>2016-06-01T22:56:26Z</time>
      </trkpt>
      <trkpt lat="48.09636" lon="0.21228">
        <ele>50.542</ele>
        <time>2016-06-01T22:56:06Z</time>
      </trkpt>
      <trkpt lat="48.09713" lon="0.21178">
        <ele>49.699</ele>
        <time>2016-06-01T22:55:46Z</time>
      </trkpt>
      <trkpt lat="48.09796" lon="0.2115">
        <ele>51.01</ele>
        <time>2016-06-01T22:55:26Z</time>
      </trkpt>
      <trkpt lat="48.09912" lon="0.21088">
        <ele>53.844</ele>
        <time>2016-06-01T22:55:06Z</time>
      </trkpt>
      <trkpt lat="48.09965" lon="0.21073">
        <ele>55.472</ele>
        <time>2016-06-01T22:54:46Z</time>
      </trkpt>
      <trkpt lat="48.10023" lon="0.21071">
        <ele>57.776</ele>
        <time>2016-06-01T22:54:26Z</time>
      </trkpt>
      <trkpt lat="48.1011" lon="0.21011">
        <ele>58.623</ele>
        <time>2016-06-01T22:54:06Z</time>
      </trkpt>
      <trkpt lat="48.1012" lon="0.20942">
        <ele>58.498</ele>
        <time>2016-06-01T22:53:46Z</time>
      </trkpt>
      <trkpt lat="48.10159" lon="0.20923">
        <ele>56.372</ele>
        <time>2016-06-01T22:53:26Z</time>
      </trkpt>
      <trkpt lat="48.10256" lon="0.20908">
        <ele>54.908</ele>
        <time>2016-06-01T22:53:06Z</time>
      </trkpt>
      <trkpt lat="48.10285" lon="0.20934">
        <ele>56.319</ele>
        <time>2016-06-01T22:52:46Z</time>
      </trkpt>
      <trkpt lat="48.10308" lon="0.20981">
        <ele>57.781</ele>
        <time>2016-06-01T22:52:26Z</time>
      </trkpt>
      <trkpt lat="48.10348" lon="0.20961">
        <ele>58.067</ele>
        <time>2016-06-01T22:52:06Z</time>
      </trkpt>
      <trkpt lat="48.10435" lon="0.20876">
        <ele>57.068</ele>
        <time>2016-06-01T22:51:46Z</time>
      </trkpt>
      <trkpt lat="48.10582" lon="0.20818">
        <ele>60.069</ele>
        <time>2016-06-01T22:51:26Z</time>
      </trkpt>
      <trkpt lat="48.10619" lon="0.20777">
        <ele>59.273</ele>
        <time>2016-06-01T22:51:06Z</time>
      </trkpt>
      <trkpt lat="48.10748" lon="0.20601">
        <ele>60.051</ele>
        <time>2016-06-01T22:50:46Z</time>
      </trkpt>
      <trkpt lat="48.10808" lon="0.20492">
        <ele>59.665</ele>
        <time>2016-06-01T22:50:26Z</time>
      </trkpt>
      <trkpt lat="48.10849" lon="0.20356">
        <ele>59.092</ele>
        <time>2016-06-01T22:50:06Z</time>
      </trkpt>
      <trkpt lat="48.10971" lon="0.20148">
        <ele>58.077</ele>
        <time>2016-06-01T22:49:46Z</time>
      </trkpt>
      <trkpt lat="48.1104" lon="0.20077">
        <ele>58.951</ele>
        <time>2016-06-01T22:49:26Z</time>
      </trkpt>
      <trkpt lat="48.11106" lon="0.20022">
        <ele>62.008</ele>
        <time>2016-06-01T22:49:06Z</time>
      </trkpt>
      <trkpt lat="48.11215" lon="0.19957">
        <ele>63.017</ele>
        <time>2016-06-01T22:48:46Z</time>
      </trkpt>
      <trkpt lat="48.11248" lon="0.1976">
        <ele>60.107</ele>
        <time>2016-06-01T22:48:26Z</time>
      </trkpt>
      <trkpt lat="48.11327" lon="0.19462">
        <ele>54.055</ele>
        <time>2016-06-01T22:48:06Z</time>
      </trkpt>
      <trkpt lat="48.11329" lon="0.19417">
        <ele>53.18</ele>
        <time>2016-06-01T22:47:46Z</time>
      </trkpt>
      <trkpt lat="48.11352" lon="0.1941">
        <ele>52.891</ele>
        <time>2016-06-01T22:47:26Z</time>
      </trkpt>
      <trkpt lat="48.11386" lon="0.19295">
        <ele>52.455</ele>
        <time>2020-12-24T09:10:35Z</time>
      </trkpt>
      <trkpt lat="48.11434" lon="0.19287">
        <ele>52.223</ele>
        <time>2020-12-24T09:10:15Z</time>
      </trkpt>
      <trkpt lat="48.11485" lon="0.19297">
        <ele>53.447</ele>
        <time>2020-12-24T09:09:55Z</time>
      </trkpt>
      <trkpt lat="48.11584" lon="0.193">
        <ele>53.644</ele>
        <time>2020-12-24T09:09:35Z</time>
      </trkpt>
      <trkpt lat="48.1152" lon="0.19133">
        <ele>49.729</ele>
        <time>2020-12-24T09:09:15Z</time>
      </trkpt>
      <trkpt lat="48.11457" lon="0.19103">
        <ele>50.383</ele>
        <time>2020-12-24T09:08:55Z</time>
      </trkpt>
      <trkpt lat="48.11616" lon="0.18625">
        <ele>50.408</ele>
        <time>2016-06-01T22:45:46Z</time>
      </trkpt>
      <trkpt lat="48.11636" lon="0.1859">
        <ele>50.821</ele>
        <time>2016-06-01T22:45:26Z</time>
      </trkpt>
      <trkpt lat="48.11761" lon="0.18432">
        <ele>53.356</ele>
        <time>2016-06-01T22:45:06Z</time>
      </trkpt>
      <trkpt lat="48.11788" lon="0.18417">
        <ele>53.074</ele>
        <time>2016-06-01T22:44:46Z</time>
      </trkpt>
      <trkpt lat="48.11813" lon="0.18396">
        <ele>53.25</ele>
        <time>2020-12-24T09:07:15Z</time>
      </trkpt>
      <trkpt lat="48.11822" lon="0.18422">
        <ele>52.971</ele>
        <time>2020-12-24T09:06:55Z</time>
      </trkpt>
      <trkpt lat="48.11952" lon="0.1849">
        <ele>53.685</ele>
        <time>2020-12-24T09:06:35Z</time>
      </trkpt>
      <trkpt lat="48.12015" lon="0.18491">
        <ele>53.223</ele>
        <time>2020-12-24T09:06:15Z</time>
      </trkpt>
      <trkpt lat="48.12159" lon="0.18505">
        <ele>55.747</ele>
        <time>2020-12-24T09:05:55Z</time>
      </trkpt>
      <trkpt lat="48.123" lon="0.18552">
        <ele>52.824</ele>
        <time>2020-12-24T09:05:35Z</time>
      </trkpt>
      <trkpt lat="48.12378" lon="0.18493">
        <ele>53.589</ele>
        <time>2020-12-24T09:05:15Z</time>
      </trkpt>
      <trkpt lat="48.12398" lon="0.18097">
        <ele>55.523</ele>
        <time>2016-06-01T22:41:26Z</time>
      </trkpt>
      <trkpt lat="48.12494" lon="0.18045">
        <ele>56.008</ele>
        <time>2016-06-01T22:41:06Z</time>
      </trkpt>
      <trkpt lat="48.1263" lon="0.17932">
        <ele>56.82</ele>
        <time>2016-06-01T22:40:46Z</time>
      </trkpt>
      <trkpt lat="48.1265" lon="0.17788">
        <ele>59.828</ele>
        <time>2016-06-01T22:40:26Z</time>
      </trkpt>
      <trkpt lat="48.12666" lon="0.17655">
        <ele>58.075</ele>
        <time>2016-06-01T22:40:06Z</time>
      </trkpt>
      <trkpt lat="48.12663" lon="0.17533">
        <ele>59.845</ele>
        <time>2016-06-01T22:39:46Z</time>
      </trkpt>
      <trkpt lat="48.12613" lon="0.17483">
        <ele>61.926</ele>
        <time>2016-06-01T22:39:26Z</time>
      </trkpt>
      <trkpt lat="48.12695" lon="0.17187">
        <ele>70.32</ele>
        <time>2016-06-01T22:39:06Z</time>
      </trkpt>
      <trkpt lat="48.12769" lon="0.17166">
        <ele>71.358</ele>
        <time>2016-06-01T22:38:46Z</time>
      </trkpt>
      <trkpt lat="48.12816" lon="0.17129">
        <ele>68.142</ele>
        <time>2016-06-01T22:38:26Z</time>
      </trkpt>
      <trkpt lat="48.12881" lon="0.17215">
        <ele>62.669</ele>
        <time>2016-06-01T22:38:06Z</time>
      </trkpt>
      <trkpt lat="48.12933" lon="0.173">
        <ele>62.564</ele>
        <time>2020-12-24T09:01:15Z</time>
      </trkpt>
      <trkpt lat="48.12975" lon="0.17284">
        <ele>61.358</ele>
        <time>2020-12-24T09:00:55Z</time>
      </trkpt>
      <trkpt lat="48.12998" lon="0.17232">
        <ele>61.708</ele>
        <time>2020-12-24T09:00:35Z</time>
      </trkpt>
      <trkpt lat="48.13042" lon="0.17268">
        <ele>61.214</ele>
        <time>2020-12-24T09:00:15Z</time>
      </trkpt>
      <trkpt lat="48.1309" lon="0.1721">
        <ele>61.804</ele>
        <time>2020-12-24T08:59:55Z</time>
      </trkpt>
      <trkpt lat="48.1314" lon="0.17317">
        <ele>59.024</ele>
        <time>2020-12-24T08:59:35Z</time>
      </trkpt>
      <trkpt lat="48.13243" lon="0.17118">
        <ele>58.424</ele>
        <time>2016-06-01T22:35:46Z</time>
      </trkpt>
      <trkpt lat="48.13283" lon="0.1703">
        <ele>56.985</ele>
        <time>2016-06-01T22:35:26Z</time>
      </trkpt>
      <trkpt lat="48.13285" lon="0.16955">
        <ele>57.089</ele>
        <time>2016-06-01T22:35:06Z</time>
      </trkpt>
      <trkpt lat="48.13266" lon="0.16885">
        <ele>59.667</ele>
        <time>2016-06-01T22:34:46Z</time>
      </trkpt>
      <trkpt lat="48.13269" lon="0.167">
        <ele>57.351</ele>
        <time>2016-06-01T22:34:26Z</time>
      </trkpt>
      <trkpt lat="48.13282" lon="0.16651">
        <ele>59.178</ele>
        <time>2016-06-01T22:34:06Z</time>
      </trkpt>
      <trkpt lat="48.13289" lon="0.16488">
        <ele>62.253</ele>
        <time>2016-06-01T22:33:46Z</time>
      </trkpt>
      <trkpt lat="48.13313" lon="0.16417">
        <ele>61.517</ele>
        <time>2016-06-01T22:33:26Z</time>
      </trkpt>
      <trkpt lat="48.13342" lon="0.1637">
        <ele>61.208</ele>
        <time>2016-06-01T22:33:06Z</time>
      </trkpt>
      <trkpt lat="48.13432" lon="0.16198">
        <ele>62.017</ele>
        <time>2016-06-01T22:32:46Z</time>
      </trkpt>
      <trkpt lat="48.13445" lon="0.16146">
        <ele>61.798</ele>
        <time>2020-12-24T08:55:55Z</time>
      </trkpt>
      <trkpt lat="48.1331" lon="0.15666">
        <ele>70.818</ele>
        <time>2020-12-24T08:55:35Z</time>
      </trkpt>
      <trkpt lat="48.13438" lon="0.15574">
        <ele>74.22</ele>
        <time>2020-12-24T08:55:15Z</time>
      </trkpt>
      <trkpt lat="48.13405" lon="0.15485">
        <ele>74.681</ele>
        <time>2016-06-01T22:29:06Z</time>
      </trkpt>
      <trkpt lat="48.13326" lon="0.15348">
        <ele>77.525</ele>
        <time>2016-06-01T22:28:46Z</time>
      </trkpt>
      <trkpt lat="48.13299" lon="0.15297">
        <ele>77.993</ele>
        <time>2016-06-01T22:28:26Z</time>
      </trkpt>
      <trkpt lat="48.13257" lon="0.15267">
        <ele>78.777</ele>
        <time>2016-06-01T22:28:06Z</time>
      </trkpt>
      <trkpt lat="48.13233" lon="0.15215">
        <ele>79.054</ele>
        <time>2016-06-01T22:27:46Z</time>
      </trkpt>
      <trkpt lat="48.13159" lon="0.15121">
        <ele>78.079</ele>
        <time>2016-06-01T22:27:26Z</time>
      </trkpt>
      <trkpt lat="48.1318" lon="0.15028">
        <ele>81.583</ele>
        <time>2016-06-01T22:27:06Z</time>
      </trkpt>
      <trkpt lat="48.13308" lon="0.14795">
        <ele>87.108</ele>
        <time>2016-06-01T22:26:46Z</time>
      </trkpt>
      <trkpt lat="48.1332" lon="0.14726">
        <ele>88.52</ele>
        <time>2016-06-01T22:26:26Z</time>
      </trkpt>
      <trkpt lat="48.1332" lon="0.14677">
        <ele>88.228</ele>
        <time>2016-06-01T22:26:06Z</time>
      </trkpt>
      <trkpt lat="48.13299" lon="0.14627">
        <ele>88.175</ele>
        <time>2016-06-01T22:25:46Z</time>
      </trkpt>
      <trkpt lat="48.13289" lon="0.14576">
        <ele>89.09</ele>
        <time>2016-06-01T22:25:26Z</time>
      </trkpt>
      <trkpt lat="48.13287" lon="0.14477">
        <ele>92.181</ele>
        <time>2016-06-01T22:25:06Z</time>
      </trkpt>
      <trkpt lat="48.13253" lon="0.14415">
        <ele>87.075</ele>
        <time>2016-06-01T22:24:46Z</time>
      </trkpt>
      <trkpt lat="48.1364" lon="0.14419">
        <ele>87.133</ele>
        <time>2016-06-01T22:24:26Z</time>
      </trkpt>
      <trkpt lat="48.13688" lon="0.14425">
        <ele>88.217</ele>
        <time>2016-06-01T22:24:06Z</time>
      </trkpt>
      <trkpt lat="48.13723" lon="0.14464">
        <ele>88.794</ele>
        <time>2016-06-01T22:23:46Z</time>
      </trkpt>
      <trkpt lat="48.13747" lon="0.14449">
        <ele>88.259</ele>
        <time>2016-06-01T22:23:26Z</time>
      </trkpt>
      <trkpt lat="48.1381" lon="0.14473">
        <ele>85.753</ele>
        <time>2016-06-01T22:23:06Z</time>
      </trkpt>
      <trkpt lat="48.13836" lon="0.14473">
        <ele>83.908</ele>
        <time>2016-06-01T22:22:46Z</time>
      </trkpt>
      <trkpt lat="48.13852" lon="0.14436">
        <ele>82.027</ele>
        <time>2016-06-01T22:22:26Z</time>
      </trkpt>
      <trkpt lat="48.13849" lon="0.14398">
        <ele>81.161</ele>
        <time>2016-06-01T22:22:06Z</time>
      </trkpt>
      <trkpt lat="48.13814" lon="0.14286">
        <ele>79.777</ele>
        <time>2016-06-01T22:21:46Z</time>
      </trkpt>
      <trkpt lat="48.1376" lon="0.1417">
        <ele>82.265</ele>
        <time>2016-06-01T22:21:26Z</time>
      </trkpt>
      <trkpt lat="48.1372" lon="0.13998">
        <ele>82.216</ele>
        <time>2016-06-01T22:21:06Z</time>
      </trkpt>
      <trkpt lat="48.13767" lon="0.13975">
        <ele>78.49</ele>
        <time>2016-06-01T22:20:46Z</time>
      </trkpt>
      <trkpt lat="48.1381" lon="0.13971">
        <ele>75.568</ele>
        <time>2016-06-01T22:20:26Z</time>
      </trkpt>
      <trkpt lat="48.13857" lon="0.13932">
        <ele>71.332</ele>
        <time>2016-06-01T22:20:06Z</time>
      </trkpt>
      <trkpt lat="48.13952" lon="0.13891">
        <ele>68.779</ele>
        <time>2016-06-01T22:19:46Z</time>
      </trkpt>
      <trkpt lat="48.14051" lon="0.13863">
        <ele>70.874</ele>
        <time>2016-06-01T22:19:26Z</time>
      </trkpt>
      <trkpt lat="48.14128" lon="0.13891">
        <ele>77.048</ele>
        <time>2016-06-01T22:19:06Z</time>
      </trkpt>
      <trkpt lat="48.14211" lon="0.13889">
        <ele>75.008</ele>
        <time>2016-06-01T22:18:46Z</time>
      </trkpt>
      <trkpt lat="48.14278" lon="0.13874">
        <ele>74.505</ele>
        <time>2016-06-01T22:18:26Z</time>
      </trkpt>
      <trkpt lat="48.14519" lon="0.1378">
        <ele>74.341</ele>
        <time>2016-06-01T22:18:06Z</time>
      </trkpt>
      <trkpt lat="48.14579" lon="0.13769">
        <ele>75.221</ele>
        <time>2016-06-01T22:17:46Z</time>
      </trkpt>
      <trkpt lat="48.14699" lon="0.13773">
        <ele>71.079</ele>
        <time>2016-06-01T22:17:26Z</time>
      </trkpt>
      <trkpt lat="48.14792" lon="0.13765">
        <ele>66.22</ele>
        <time>2016-06-01T22:17:06Z</time>
      </trkpt>
      <trkpt lat="48.1485" lon="0.13754">
        <ele>65.484</ele>
        <time>2016-06-01T22:16:46Z</time>
      </trkpt>
      <trkpt lat="48.14894" lon="0.13726">
        <ele>61.982</ele>
        <time>2016-06-01T22:16:26Z</time>
      </trkpt>
      <trkpt lat="48.14911" lon="0.13724">
        <ele>61.266</ele>
        <time>2016-06-01T22:16:06Z</time>
      </trkpt>
      <trkpt lat="48.14927" lon="0.13752">
        <ele>62.433</ele>
        <time>2016-06-01T22:15:46Z</time>
      </trkpt>
      <trkpt lat="48.14953" lon="0.13777">
        <ele>64.658</ele>
        <time>2016-06-01T22:15:26Z</time>
      </trkpt>
      <trkpt lat="48.14989" lon="0.13777">
        <ele>67.862</ele>
        <time>2016-06-01T22:15:06Z</time>
      </trkpt>
      <trkpt lat="48.15046" lon="0.13747">
        <ele>71.008</ele>
        <time>2016-06-01T22:14:46Z</time>
      </trkpt>
      <trkpt lat="48.15325" lon="0.13674">
        <ele>75.421</ele>
        <time>2016-06-01T22:14:26Z</time>
      </trkpt>
      <trkpt lat="48.15362" lon="0.13689">
        <ele>74.229</ele>
        <time>2016-06-01T22:14:06Z</time>
      </trkpt>
      <trkpt lat="48.15391" lon="0.13696">
        <ele>74.366</ele>
        <time>2016-06-01T22:13:46Z</time>
      </trkpt>
      <trkpt lat="48.155" lon="0.13674">
        <ele>84.725</ele>
        <time>2016-06-01T22:13:26Z</time>
      </trkpt>
      <trkpt lat="48.15557" lon="0.13649">
        <ele>86.436</ele>
        <time>2016-06-01T22:13:06Z</time>
      </trkpt>
      <trkpt lat="48.15719" lon="0.13533">
        <ele>89.75</ele>
        <time>2016-06-01T22:12:46Z</time>
      </trkpt>
      <trkpt lat="48.15792" lon="0.13471">
        <ele>89.028</ele>
        <time>2016-06-01T22:12:26Z</time>
      </trkpt>
      <trkpt lat="48.15817" lon="0.13411">
        <ele>88.762</ele>
        <time>2016-06-01T22:12:06Z</time>
      </trkpt>
      <trkpt lat="48.1584" lon="0.13357">
        <ele>88.849</ele>
        <time>2016-06-01T22:11:46Z</time>
      </trkpt>
      <trkpt lat="48.15869" lon="0.13335">
        <ele>89.274</ele>
        <time>2016-06-01T22:11:26Z</time>
      </trkpt>
      <trkpt lat="48.15893" lon="0.13301">
        <ele>90.058</ele>
        <time>2016-06-01T22:11:06Z</time>
      </trkpt>
      <trkpt lat="48.15915" lon="0.13292">
        <ele>90.508</ele>
        <time>2016-06-01T22:10:46Z</time>
      </trkpt>
      <trkpt lat="48.15952" lon="0.13284">
        <ele>91.105</ele>
        <time>2016-06-01T22:10:26Z</time>
      </trkpt>
      <trkpt lat="48.16044" lon="0.13217">
        <ele>91.441</ele>
        <time>2016-06-01T22:10:06Z</time>
      </trkpt>
      <trkpt lat="48.16082" lon="0.13177">
        <ele>90.021</ele>
        <time>2016-06-01T22:09:46Z</time>
      </trkpt>
      <trkpt lat="48.16131" lon="0.13174">
        <ele>88.394</ele>
        <time>2016-06-01T22:09:26Z</time>
      </trkpt>
      <trkpt lat="48.16207" lon="0.13155">
        <ele>86.615</ele>
        <time>2016-06-01T22:09:06Z</time>
      </trkpt>
      <trkpt lat="48.1623" lon="0.13127">
        <ele>86.029</ele>
        <time>2016-06-01T22:08:46Z</time>
      </trkpt>
      <trkpt lat="48.1636" lon="0.13086">
        <ele>84.087</ele>
        <time>2016-06-01T22:08:26Z</time>
      </trkpt>
      <trkpt lat="48.16542" lon="0.12968">
        <ele>82.641</ele>
        <time>2016-06-01T22:08:06Z</time>
      </trkpt>
      <trkpt lat="48.16746" lon="0.12833">
        <ele>81.158</ele>
        <time>2016-06-01T22:07:46Z</time>
      </trkpt>
      <trkpt lat="48.16778" lon="0.1279">
        <ele>81.573</ele>
        <time>2016-06-01T22:07:26Z</time>
      </trkpt>
      <trkpt lat="48.16849" lon="0.12745">
        <ele>82.437</ele>
        <time>2016-06-01T22:07:06Z</time>
      </trkpt>
      <trkpt lat="48.16888" lon="0.12745">
        <ele>83.908</ele>
        <time>2016-06-01T22:06:46Z</time>
      </trkpt>
      <trkpt lat="48.16938" lon="0.12756">
        <ele>83.413</ele>
        <time>2016-06-01T22:06:26Z</time>
      </trkpt>
      <trkpt lat="48.16997" lon="0.12595">
        <ele>63.076</ele>
        <time>2016-06-01T22:06:06Z</time>
      </trkpt>
      <trkpt lat="48.1705" lon="0.12589">
        <ele>56.416</ele>
        <time>2016-06-01T22:05:46Z</time>
      </trkpt>
      <trkpt lat="48.17088" lon="0.12612">
        <ele>56.061</ele>
        <time>2016-06-01T22:05:26Z</time>
      </trkpt>
      <trkpt lat="48.1713" lon="0.12612">
        <ele>56.722</ele>
        <time>2016-06-01T22:05:06Z</time>
      </trkpt>
      <trkpt lat="48.17207" lon="0.12539">
        <ele>54.456</ele>
        <time>2016-06-01T22:04:46Z</time>
      </trkpt>
      <trkpt lat="48.17292" lon="0.12475">
        <ele>56.644</ele>
        <time>2016-06-01T22:04:26Z</time>
      </trkpt>
      <trkpt lat="48.17406" lon="0.12456">
        <ele>57.638</ele>
        <time>2016-06-01T22:04:06Z</time>
      </trkpt>
      <trkpt lat="48.17409" lon="0.12432">
        <ele>58.055</ele>
        <time>2016-06-01T22:03:46Z</time>
      </trkpt>
      <trkpt lat="48.17396" lon="0.12366">
        <ele>57.41</ele>
        <time>2016-06-01T22:03:26Z</time>
      </trkpt>
      <trkpt lat="48.17319" lon="0.12215">
        <ele>57.414</ele>
        <time>2016-06-01T22:03:06Z</time>
      </trkpt>
      <trkpt lat="48.17292" lon="0.12136">
        <ele>58.608</ele>
        <time>2016-06-01T22:02:46Z</time>
      </trkpt>
      <trkpt lat="48.17254" lon="0.12052">
        <ele>58.017</ele>
        <time>2016-06-01T22:02:26Z</time>
      </trkpt>
      <trkpt lat="48.17243" lon="0.12007">
        <ele>57.443</ele>
        <time>2016-06-01T22:02:06Z</time>
      </trkpt>
      <trkpt lat="48.17645" lon="0.12087">
        <ele>58.082</ele>
        <time>2016-06-01T22:01:46Z</time>
      </trkpt>
      <trkpt lat="48.17758" lon="0.12114">
        <ele>58.435</ele>
        <time>2016-06-01T22:01:26Z</time>
      </trkpt>
      <trkpt lat="48.17802" lon="0.12168">
        <ele>60.096</ele>
        <time>2016-06-01T22:01:06Z</time>
      </trkpt>
      <trkpt lat="48.17851" lon="0.12303">
        <ele>58.53</ele>
        <time>2016-06-01T22:00:46Z</time>
      </trkpt>
      <trkpt lat="48.17891" lon="0.12406">
        <ele>57.618</ele>
        <time>2016-06-01T22:00:26Z</time>
      </trkpt>
      <trkpt lat="48.17917" lon="0.12565">
        <ele>64.712</ele>
        <time>2016-06-01T22:00:06Z</time>
      </trkpt>
      <trkpt lat="48.17955" lon="0.12679">
        <ele>67.229</ele>
        <time>2016-06-01T21:59:46Z</time>
      </trkpt>
      <trkpt lat="48.17975" lon="0.1279">
        <ele>68.114</ele>
        <time>2016-06-01T21:59:26Z</time>
      </trkpt>
      <trkpt lat="48.17963" lon="0.12835">
        <ele>67.058</ele>
        <time>2016-06-01T21:59:06Z</time>
      </trkpt>
      <trkpt lat="48.17967" lon="0.13005">
        <ele>65.008</ele>
        <time>2016-06-01T21:58:46Z</time>
      </trkpt>
      <trkpt lat="48.18024" lon="0.13029">
        <ele>67.614</ele>
        <time>2016-06-01T21:58:26Z</time>
      </trkpt>
      <trkpt lat="48.18073" lon="0.13031">
        <ele>72.868</ele>
        <time>2016-06-01T21:58:06Z</time>
      </trkpt>
      <trkpt lat="48.18096" lon="0.13048">
        <ele>74.027</ele>
        <time>2016-06-01T21:57:46Z</time>
      </trkpt>
      <trkpt lat="48.18133" lon="0.13138">
        <ele>75.72</ele>
        <time>2016-06-01T21:57:26Z</time>
      </trkpt>
      <trkpt lat="48.18134" lon="0.13189">
        <ele>75.311</ele>
        <time>2016-06-01T21:57:06Z</time>
      </trkpt>
      <trkpt lat="48.18154" lon="0.13205">
        <ele>75.495</ele>
        <time>2016-06-01T21:56:46Z</time>
      </trkpt>
      <trkpt lat="48.18202" lon="0.13222">
        <ele>76.083</ele>
        <time>2016-06-01T21:56:26Z</time>
      </trkpt>
      <trkpt lat="48.18214" lon="0.13235">
        <ele>76.047</ele>
        <time>2016-06-01T21:56:06Z</time>
      </trkpt>
      <trkpt lat="48.18272" lon="0.13305">
        <ele>75.074</ele>
        <time>2016-06-01T21:55:46Z</time>
      </trkpt>
      <trkpt lat="48.18312" lon="0.13335">
        <ele>74.959</ele>
        <time>2016-06-01T21:55:26Z</time>
      </trkpt>
      <trkpt lat="48.1833" lon="0.13402">
        <ele>73.393</ele>
        <time>2016-06-01T21:55:06Z</time>
      </trkpt>
      <trkpt lat="48.18362" lon="0.13451">
        <ele>75.808</ele>
        <time>2016-06-01T21:54:46Z</time>
      </trkpt>
      <trkpt lat="48.18408" lon="0.13488">
        <ele>77.019</ele>
        <time>2016-06-01T21:54:26Z</time>
      </trkpt>
      <trkpt lat="48.18456" lon="0.13535">
        <ele>79.49</ele>
        <time>2016-06-01T21:54:06Z</time>
      </trkpt>
      <trkpt lat="48.18486" lon="0.13593">
        <ele>79.576</ele>
        <time>2016-06-01T21:53:46Z</time>
      </trkpt>
      <trkpt lat="48.18543" lon="0.13698">
        <ele>83.658</ele>
        <time>2016-06-01T21:53:26Z</time>
      </trkpt>
      <trkpt lat="48.18552" lon="0.13745">
        <ele>82.859</ele>
        <time>2016-06-01T21:53:06Z</time>
      </trkpt>
      <trkpt lat="48.18552" lon="0.13838">
        <ele>79.793</ele>
        <time>2016-06-01T21:52:46Z</time>
      </trkpt>
      <trkpt lat="48.18566" lon="0.13943">
        <ele>78.451</ele>
        <time>2016-06-01T21:52:26Z</time>
      </trkpt>
      <trkpt lat="48.18588" lon="0.14016">
        <ele>81.385</ele>
        <time>2016-06-01T21:52:06Z</time>
      </trkpt>
      <trkpt lat="48.18664" lon="0.14166">
        <ele>94.952</ele>
        <time>2016-06-01T21:51:46Z</time>
      </trkpt>
      <trkpt lat="48.18674" lon="0.14198">
        <ele>97.657</ele>
        <time>2016-06-01T21:51:26Z</time>
      </trkpt>
      <trkpt lat="48.18671" lon="0.14277">
        <ele>98.271</ele>
        <time>2016-06-01T21:51:06Z</time>
      </trkpt>
      <trkpt lat="48.18651" lon="0.14342">
        <ele>96.708</ele>
        <time>2016-06-01T21:50:46Z</time>
      </trkpt>
      <trkpt lat="48.18635" lon="0.14483">
        <ele>89.808</ele>
        <time>2016-06-01T21:50:26Z</time>
      </trkpt>
      <trkpt lat="48.18636" lon="0.14576">
        <ele>89.653</ele>
        <time>2016-06-01T21:50:06Z</time>
      </trkpt>
      <trkpt lat="48.18651" lon="0.14597">
        <ele>90.752</ele>
        <time>2016-06-01T21:49:46Z</time>
      </trkpt>
      <trkpt lat="48.18675" lon="0.14595">
        <ele>91.386</ele>
        <time>2016-06-01T21:49:26Z</time>
      </trkpt>
      <trkpt lat="48.18709" lon="0.14599">
        <ele>93.217</ele>
        <time>2016-06-01T21:49:06Z</time>
      </trkpt>
      <trkpt lat="48.18795" lon="0.14636">
        <ele>99.611</ele>
        <time>2016-06-01T21:48:46Z</time>
      </trkpt>
      <trkpt lat="48.18841" lon="0.14621">
        <ele>100.069</ele>
        <time>2016-06-01T21:48:26Z</time>
      </trkpt>
      <trkpt lat="48.18895" lon="0.14595">
        <ele>101.583</ele>
        <time>2016-06-01T21:48:06Z</time>
      </trkpt>
      <trkpt lat="48.18997" lon="0.14563">
        <ele>103.23</ele>
        <time>2016-06-01T21:47:46Z</time>
      </trkpt>
      <trkpt lat="48.19036" lon="0.1458">
        <ele>103.935</ele>
        <time>2016-06-01T21:47:26Z</time>
      </trkpt>
      <trkpt lat="48.19187" lon="0.14458">
        <ele>106.099</ele>
        <time>2016-06-01T21:47:06Z</time>
      </trkpt>
      <trkpt lat="48.19226" lon="0.14438">
        <ele>106.108</ele>
        <time>2016-06-01T21:46:46Z</time>
      </trkpt>
      <trkpt lat="48.19277" lon="0.14419">
        <ele>109.01</ele>
        <time>2016-06-01T21:46:26Z</time>
      </trkpt>
      <trkpt lat="48.19322" lon="0.1441">
        <ele>112.255</ele>
        <time>2016-06-01T21:46:06Z</time>
      </trkpt>
      <trkpt lat="48.19322" lon="0.14393">
        <ele>112.234</ele>
        <time>2016-06-01T21:45:46Z</time>
      </trkpt>
      <trkpt lat="48.19304" lon="0.14265">
        <ele>115.559</ele>
        <time>2016-06-01T21:45:26Z</time>
      </trkpt>
      <trkpt lat="48.19303" lon="0.14174">
        <ele>115.73</ele>
        <time>2020-12-24T08:10:55Z</time>
      </trkpt>
      <trkpt lat="48.19473" lon="0.14399">
        <ele>112.934</ele>
        <time>2020-12-24T08:10:35Z</time>
      </trkpt>
      <trkpt lat="48.19667" lon="0.14456">
        <ele>110.562</ele>
        <time>2020-12-24T08:10:15Z</time>
      </trkpt>
      <trkpt lat="48.20021" lon="0.14679">
        <ele>109.296</ele>
        <time>2020-12-24T08:09:55Z</time>
      </trkpt>
      <trkpt lat="48.20153" lon="0.14707">
        <ele>102.443</ele>
        <time>2020-12-24T08:09:35Z</time>
      </trkpt>
      <trkpt lat="48.20232" lon="0.14659">
        <ele>95.788</ele>
        <time>2020-12-24T08:09:15Z</time>
      </trkpt>
      <trkpt lat="48.20271" lon="0.14656">
        <ele>94.772</ele>
        <time>2020-12-24T08:08:55Z</time>
      </trkpt>
      <trkpt lat="48.20405" lon="0.14473">
        <ele>90.208</ele>
        <time>2020-12-24T08:08:35Z</time>
      </trkpt>
      <trkpt lat="48.20776" lon="0.14088">
        <ele>78.124</ele>
        <time>2020-12-24T08:08:15Z</time>
      </trkpt>
      <trkpt lat="48.20894" lon="0.1384">
        <ele>73.304</ele>
        <time>2020-12-24T08:07:55Z</time>
      </trkpt>
      <trkpt lat="48.20927" lon="0.13571">
        <ele>73.869</ele>
        <time>2020-12-24T08:07:35Z</time>
      </trkpt>
      <trkpt lat="48.20899" lon="0.13323">
        <ele>73.264</ele>
        <time>2020-12-24T08:07:15Z</time>
      </trkpt>
      <trkpt lat="48.20844" lon="0.13026">
        <ele>74.655</ele>
        <time>2020-12-24T08:06:55Z</time>
      </trkpt>
      <trkpt lat="48.20747" lon="0.13019">
        <ele>73.749</ele>
        <time>2020-12-24T08:06:35Z</time>
      </trkpt>
      <trkpt lat="48.20726" lon="0.12964">
        <ele>74.547</ele>
        <time>2020-12-24T08:06:15Z</time>
      </trkpt>
      <trkpt lat="48.20663" lon="0.12888">
        <ele>73.671</ele>
        <time>2020-12-24T08:05:55Z</time>
      </trkpt>
      <trkpt lat="48.20635" lon="0.12803">
        <ele>72.518</ele>
        <time>2020-12-24T08:05:35Z</time>
      </trkpt>
      <trkpt lat="48.20484" lon="0.12705">
        <ele>74.343</ele>
        <time>2016-06-01T21:36:06Z</time>
      </trkpt>
      <trkpt lat="48.2039" lon="0.12263">
        <ele>69.557</ele>
        <time>2016-06-01T21:35:46Z</time>
      </trkpt>
      <trkpt lat="48.20473" lon="0.12288">
        <ele>69.408</ele>
        <time>2016-06-01T21:35:26Z</time>
      </trkpt>
      <trkpt lat="48.20523" lon="0.12295">
        <ele>70.115</ele>
        <time>2016-06-01T21:35:06Z</time>
      </trkpt>
      <trkpt lat="48.20629" lon="0.1229">
        <ele>70.587</ele>
        <time>2016-06-01T21:34:46Z</time>
      </trkpt>
      <trkpt lat="48.20718" lon="0.12299">
        <ele>69.617</ele>
        <time>2016-06-01T21:34:26Z</time>
      </trkpt>
      <trkpt lat="48.2076" lon="0.12316">
        <ele>68.579</ele>
        <time>2016-06-01T21:34:06Z</time>
      </trkpt>
      <trkpt lat="48.20821" lon="0.12376">
        <ele>72.84</ele>
        <time>2016-06-01T21:33:46Z</time>
      </trkpt>
      <trkpt lat="48.20846" lon="0.12402">
        <ele>73.024</ele>
        <time>2016-06-01T21:33:26Z</time>
      </trkpt>
      <trkpt lat="48.20971" lon="0.12417">
        <ele>72.032</ele>
        <time>2016-06-01T21:33:06Z</time>
      </trkpt>
      <trkpt lat="48.21071" lon="0.124">
        <ele>64.496</ele>
        <time>2016-06-01T21:32:46Z</time>
      </trkpt>
      <trkpt lat="48.21161" lon="0.12398">
        <ele>62.973</ele>
        <time>2016-06-01T21:32:26Z</time>
      </trkpt>
      <trkpt lat="48.21264" lon="0.12462">
        <ele>63.198</ele>
        <time>2016-06-01T21:32:06Z</time>
      </trkpt>
      <trkpt lat="48.21382" lon="0.12526">
        <ele>60.722</ele>
        <time>2016-06-01T21:31:46Z</time>
      </trkpt>
      <trkpt lat="48.2156" lon="0.1261">
        <ele>62.008</ele>
        <time>2016-06-01T21:31:26Z</time>
      </trkpt>
      <trkpt lat="48.21594" lon="0.12662">
        <ele>61.124</ele>
        <time>2016-06-01T21:31:06Z</time>
      </trkpt>
      <trkpt lat="48.21604" lon="0.127">
        <ele>60.904</ele>
        <time>2016-06-01T21:30:46Z</time>
      </trkpt>
      <trkpt lat="48.21648" lon="0.12717">
        <ele>61.569</ele>
        <time>2016-06-01T21:30:26Z</time>
      </trkpt>
      <trkpt lat="48.21711" lon="0.1273">
        <ele>60.127</ele>
        <time>2016-06-01T21:30:06Z</time>
      </trkpt>
      <trkpt lat="48.21748" lon="0.12769">
        <ele>59.788</ele>
        <time>2016-06-01T21:29:46Z</time>
      </trkpt>
      <trkpt lat="48.21954" lon="0.12876">
        <ele>60.542</ele>
        <time>2016-06-01T21:29:26Z</time>
      </trkpt>
      <trkpt lat="48.21986" lon="0.12885">
        <ele>60.87</ele>
        <time>2016-06-01T21:29:06Z</time>
      </trkpt>
      <trkpt lat="48.2199" lon="0.12934">
        <ele>60.664</ele>
        <time>2016-06-01T21:28:46Z</time>
      </trkpt>
      <trkpt lat="48.22022" lon="0.13037">
        <ele>62.311</ele>
        <time>2016-06-01T21:28:26Z</time>
      </trkpt>
      <trkpt lat="48.22062" lon="0.13056">
        <ele>63.056</ele>
        <time>2016-06-01T21:28:06Z</time>
      </trkpt>
      <trkpt lat="48.22143" lon="0.13063">
        <ele>61.35</ele>
        <time>2016-06-01T21:27:46Z</time>
      </trkpt>
      <trkpt lat="48.22157" lon="0.13089">
        <ele>62.108</ele>
        <time>2016-06-01T21:27:26Z</time>
      </trkpt>
      <trkpt lat="48.22325" lon="0.13059">
        <ele>61.016</ele>
        <time>2016-06-01T21:27:06Z</time>
      </trkpt>
      <trkpt lat="48.22429" lon="0.12996">
        <ele>66.888</ele>
        <time>2016-06-01T21:26:46Z</time>
      </trkpt>
      <trkpt lat="48.22388" lon="0.12928">
        <ele>64.546</ele>
        <time>2016-06-01T21:26:26Z</time>
      </trkpt>
      <trkpt lat="48.22378" lon="0.12881">
        <ele>63.384</ele>
        <time>2016-06-01T21:26:06Z</time>
      </trkpt>
      <trkpt lat="48.22396" lon="0.12818">
        <ele>62.495</ele>
        <time>2016-06-01T21:25:46Z</time>
      </trkpt>
      <trkpt lat="48.22409" lon="0.12752">
        <ele>68.059</ele>
        <time>2016-06-01T21:25:26Z</time>
      </trkpt>
      <trkpt lat="48.22409" lon="0.12587">
        <ele>77.947</ele>
        <time>2016-06-01T21:25:06Z</time>
      </trkpt>
      <trkpt lat="48.22365" lon="0.12524">
        <ele>78.021</ele>
        <time>2016-06-01T21:24:46Z</time>
      </trkpt>
      <trkpt lat="48.22335" lon="0.12453">
        <ele>79.768</ele>
        <time>2016-06-01T21:24:26Z</time>
      </trkpt>
      <trkpt lat="48.22292" lon="0.12413">
        <ele>81.053</ele>
        <time>2016-06-01T21:24:06Z</time>
      </trkpt>
      <trkpt lat="48.22373" lon="0.12342">
        <ele>79.017</ele>
        <time>2016-06-01T21:23:46Z</time>
      </trkpt>
      <trkpt lat="48.22355" lon="0.12108">
        <ele>82.208</ele>
        <time>2016-06-01T21:23:26Z</time>
      </trkpt>
      <trkpt lat="48.22329" lon="0.12059">
        <ele>84.015</ele>
        <time>2016-06-01T21:23:06Z</time>
      </trkpt>
      <trkpt lat="48.22313" lon="0.11992">
        <ele>86.087</ele>
        <time>2016-06-01T21:22:46Z</time>
      </trkpt>
      <trkpt lat="48.22272" lon="0.11893">
        <ele>86.017</ele>
        <time>2016-06-01T21:22:26Z</time>
      </trkpt>
      <trkpt lat="48.22167" lon="0.1176">
        <ele>86.459</ele>
        <time>2016-06-01T21:22:06Z</time>
      </trkpt>
      <trkpt lat="48.22119" lon="0.11694">
        <ele>86.05</ele>
        <time>2016-06-01T21:21:46Z</time>
      </trkpt>
      <trkpt lat="48.22036" lon="0.11518">
        <ele>85.434</ele>
        <time>2016-06-01T21:21:26Z</time>
      </trkpt>
      <trkpt lat="48.22027" lon="0.11419">
        <ele>87.972</ele>
        <time>2016-06-01T21:21:06Z</time>
      </trkpt>
      <trkpt lat="48.21982" lon="0.11288">
        <ele>86.216</ele>
        <time>2016-06-01T21:20:46Z</time>
      </trkpt>
      <trkpt lat="48.21953" lon="0.11258">
        <ele>86.543</ele>
        <time>2016-06-01T21:20:26Z</time>
      </trkpt>
      <trkpt lat="48.21921" lon="0.11239">
        <ele>87.058</ele>
        <time>2016-06-01T21:20:06Z</time>
      </trkpt>
      <trkpt lat="48.21894" lon="0.1122">
        <ele>87.052</ele>
        <time>2016-06-01T21:19:46Z</time>
      </trkpt>
      <trkpt lat="48.2175" lon="0.10966">
        <ele>91.008</ele>
        <time>2016-06-01T21:19:26Z</time>
      </trkpt>
      <trkpt lat="48.21738" lon="0.10971">
        <ele>91.424</ele>
        <time>2016-06-01T21:19:06Z</time>
      </trkpt>
      <trkpt lat="48.21716" lon="0.10962">
        <ele>91.904</ele>
        <time>2016-06-01T21:18:46Z</time>
      </trkpt>
      <trkpt lat="48.21688" lon="0.10939">
        <ele>92.269</ele>
        <time>2016-06-01T21:18:26Z</time>
      </trkpt>
      <trkpt lat="48.21633" lon="0.10945">
        <ele>91.559</ele>
        <time>2016-06-01T21:18:06Z</time>
      </trkpt>
      <trkpt lat="48.21621" lon="0.10913">
        <ele>91.02</ele>
        <time>2016-06-01T21:17:46Z</time>
      </trkpt>
      <trkpt lat="48.21603" lon="0.10765">
        <ele>92.684</ele>
        <time>2016-06-01T21:17:26Z</time>
      </trkpt>
      <trkpt lat="48.21601" lon="0.10645">
        <ele>92.332</ele>
        <time>2016-06-01T21:17:06Z</time>
      </trkpt>
      <trkpt lat="48.21583" lon="0.10612">
        <ele>90.126</ele>
        <time>2016-06-01T21:16:46Z</time>
      </trkpt>
      <trkpt lat="48.21567" lon="0.10591">
        <ele>89.113</ele>
        <time>2016-06-01T21:16:26Z</time>
      </trkpt>
      <trkpt lat="48.21567" lon="0.10518">
        <ele>85.128</ele>
        <time>2016-06-01T21:16:06Z</time>
      </trkpt>
      <trkpt lat="48.21535" lon="0.10447">
        <ele>87.532</ele>
        <time>2016-06-01T21:15:46Z</time>
      </trkpt>
      <trkpt lat="48.21523" lon="0.10381">
        <ele>90.308</ele>
        <time>2016-06-01T21:15:26Z</time>
      </trkpt>
      <trkpt lat="48.21525" lon="0.1031">
        <ele>90.321</ele>
        <time>2016-06-01T21:15:06Z</time>
      </trkpt>
      <trkpt lat="48.21513" lon="0.10267">
        <ele>90.229</ele>
        <time>2016-06-01T21:14:46Z</time>
      </trkpt>
      <trkpt lat="48.21316" lon="0.10332">
        <ele>87.066</ele>
        <time>2016-06-01T21:14:26Z</time>
      </trkpt>
      <trkpt lat="48.21275" lon="0.10242">
        <ele>87.448</ele>
        <time>2016-06-01T21:14:06Z</time>
      </trkpt>
      <trkpt lat="48.21262" lon="0.10158">
        <ele>90.769</ele>
        <time>2016-06-01T21:13:46Z</time>
      </trkpt>
      <trkpt lat="48.21268" lon="0.10085">
        <ele>92.023</ele>
        <time>2016-06-01T21:13:26Z</time>
      </trkpt>
      <trkpt lat="48.21235" lon="0.09708">
        <ele>94.161</ele>
        <time>2016-06-01T21:13:06Z</time>
      </trkpt>
      <trkpt lat="48.21211" lon="0.09534">
        <ele>96.425</ele>
        <time>2016-06-01T21:12:46Z</time>
      </trkpt>
      <trkpt lat="48.21221" lon="0.09454">
        <ele>98.392</ele>
        <time>2016-06-01T21:12:26Z</time>
      </trkpt>
      <trkpt lat="48.21455" lon="0.09708">
        <ele>100.477</ele>
        <time>2016-06-01T21:12:06Z</time>
      </trkpt>
      <trkpt lat="48.2154" lon="0.09776">
        <ele>97.231</ele>
        <time>2016-06-01T21:10:26Z</time>
      </trkpt>
      <trkpt lat="48.21596" lon="0.09737">
        <ele>96.308</ele>
        <time>2016-06-01T21:10:06Z</time>
      </trkpt>
      <trkpt lat="48.21628" lon="0.09705">
        <ele>96.611</ele>
        <time>2016-06-01T21:09:46Z</time>
      </trkpt>
      <trkpt lat="48.21651" lon="0.09658">
        <ele>97.056</ele>
        <time>2016-06-01T21:09:26Z</time>
      </trkpt>
      <trkpt lat="48.21666" lon="0.09606">
        <ele>97.254</ele>
        <time>2016-06-01T21:09:06Z</time>
      </trkpt>
      <trkpt lat="48.21684" lon="0.09563">
        <ele>98.122</ele>
        <time>2016-06-01T21:08:46Z</time>
      </trkpt>
      <trkpt lat="48.21723" lon="0.0954">
        <ele>98.093</ele>
        <time>2016-06-01T21:08:26Z</time>
      </trkpt>
      <trkpt lat="48.21644" lon="0.09301">
        <ele>98.857</ele>
        <time>2016-06-01T21:08:06Z</time>
      </trkpt>
      <trkpt lat="48.21584" lon="0.09078">
        <ele>99.015</ele>
        <time>2016-06-01T21:07:46Z</time>
      </trkpt>
      <trkpt lat="48.21924" lon="0.08831">
        <ele>103.599</ele>
        <time>2016-06-01T21:07:26Z</time>
      </trkpt>
      <trkpt lat="48.21943" lon="0.0881">
        <ele>104.056</ele>
        <time>2016-06-01T21:07:06Z</time>
      </trkpt>
      <trkpt lat="48.2194" lon="0.08739">
        <ele>102.871</ele>
        <time>2016-06-01T21:06:46Z</time>
      </trkpt>
      <trkpt lat="48.21923" lon="0.08677">
        <ele>101.635</ele>
        <time>2016-06-01T21:06:26Z</time>
      </trkpt>
      <trkpt lat="48.21927" lon="0.08617">
        <ele>100.508</ele>
        <time>2016-06-01T21:06:06Z</time>
      </trkpt>
      <trkpt lat="48.21959" lon="0.0858">
        <ele>100.419</ele>
        <time>2016-06-01T21:05:46Z</time>
      </trkpt>
      <trkpt lat="48.2198" lon="0.08544">
        <ele>100.481</ele>
        <time>2016-06-01T21:05:26Z</time>
      </trkpt>
      <trkpt lat="48.22034" lon="0.08377">
        <ele>96.991</ele>
        <time>2016-06-01T21:05:06Z</time>
      </trkpt>
      <trkpt lat="48.22099" lon="0.08188">
        <ele>88.818</ele>
        <time>2016-06-01T21:04:46Z</time>
      </trkpt>
      <trkpt lat="48.22129" lon="0.08078">
        <ele>82.429</ele>
        <time>2016-06-01T21:04:26Z</time>
      </trkpt>
      <trkpt lat="48.22129" lon="0.0807">
        <ele>81.733</ele>
        <time>2016-06-01T21:04:06Z</time>
      </trkpt>
      <trkpt lat="48.2215" lon="0.08042">
        <ele>78.941</ele>
        <time>2016-06-01T21:03:46Z</time>
      </trkpt>
      <trkpt lat="48.22169" lon="0.0799">
        <ele>77.335</ele>
        <time>2016-06-01T21:03:26Z</time>
      </trkpt>
      <trkpt lat="48.22196" lon="0.07941">
        <ele>77.192</ele>
        <time>2016-06-01T21:03:06Z</time>
      </trkpt>
      <trkpt lat="48.22242" lon="0.07881">
        <ele>74.317</ele>
        <time>2016-06-01T21:02:46Z</time>
      </trkpt>
      <trkpt lat="48.22336" lon="0.07821">
        <ele>73.081</ele>
        <time>2016-06-01T21:02:26Z</time>
      </trkpt>
      <trkpt lat="48.2237" lon="0.07776">
        <ele>74.408</ele>
        <time>2016-06-01T21:02:06Z</time>
      </trkpt>
      <trkpt lat="48.22389" lon="0.07729">
        <ele>75.223</ele>
        <time>2016-06-01T21:01:46Z</time>
      </trkpt>
      <trkpt lat="48.22426" lon="0.07662">
        <ele>77.703</ele>
        <time>2016-06-01T21:01:26Z</time>
      </trkpt>
      <trkpt lat="48.22463" lon="0.07628">
        <ele>79.459</ele>
        <time>2016-06-01T21:01:06Z</time>
      </trkpt>
      <trkpt lat="48.22312" lon="0.07553">
        <ele>73.264</ele>
        <time>2016-06-01T21:00:46Z</time>
      </trkpt>
      <trkpt lat="48.22279" lon="0.0755">
        <ele>72.065</ele>
        <time>2016-06-01T21:00:26Z</time>
      </trkpt>
      <trkpt lat="48.22243" lon="0.07568">
        <ele>72.259</ele>
        <time>2016-06-01T21:00:06Z</time>
      </trkpt>
      <trkpt lat="48.22196" lon="0.07583">
        <ele>73.097</ele>
        <time>2016-06-01T20:59:46Z</time>
      </trkpt>
      <trkpt lat="48.22069" lon="0.07548">
        <ele>80.711</ele>
        <time>2016-06-01T20:59:26Z</time>
      </trkpt>
      <trkpt lat="48.22037" lon="0.0751">
        <ele>83.388</ele>
        <time>2016-06-01T20:59:06Z</time>
      </trkpt>
      <trkpt lat="48.22024" lon="0.07454">
        <ele>84.223</ele>
        <time>2016-06-01T20:58:46Z</time>
      </trkpt>
      <trkpt lat="48.22004" lon="0.07402">
        <ele>86.257</ele>
        <time>2016-06-01T20:58:26Z</time>
      </trkpt>
      <trkpt lat="48.21963" lon="0.07374">
        <ele>88.908</ele>
        <time>2016-06-01T20:58:06Z</time>
      </trkpt>
      <trkpt lat="48.21773" lon="0.07377">
        <ele>100.615</ele>
        <time>2016-06-01T20:57:46Z</time>
      </trkpt>
      <trkpt lat="48.21681" lon="0.07398">
        <ele>103.587</ele>
        <time>2016-06-01T20:57:26Z</time>
      </trkpt>
      <trkpt lat="48.21633" lon="0.074">
        <ele>105.217</ele>
        <time>2016-06-01T20:57:06Z</time>
      </trkpt>
      <trkpt lat="48.2165" lon="0.07338">
        <ele>104.685</ele>
        <time>2016-06-01T20:56:46Z</time>
      </trkpt>
      <trkpt lat="48.21706" lon="0.07261">
        <ele>100.036</ele>
        <time>2016-06-01T20:56:26Z</time>
      </trkpt>
      <trkpt lat="48.21718" lon="0.07145">
        <ele>94.77</ele>
        <time>2016-06-01T20:56:06Z</time>
      </trkpt>
      <trkpt lat="48.21748" lon="0.0704">
        <ele>91.148</ele>
        <time>2016-06-01T20:55:46Z</time>
      </trkpt>
      <trkpt lat="48.21803" lon="0.06879">
        <ele>87.092</ele>
        <time>2016-06-01T20:55:26Z</time>
      </trkpt>
      <trkpt lat="48.21839" lon="0.06748">
        <ele>81.859</ele>
        <time>2016-06-01T20:55:06Z</time>
      </trkpt>
      <trkpt lat="48.21834" lon="0.0669">
        <ele>81.064</ele>
        <time>2016-06-01T20:54:46Z</time>
      </trkpt>
      <trkpt lat="48.21804" lon="0.0652">
        <ele>81.098</ele>
        <time>2016-06-01T20:54:26Z</time>
      </trkpt>
      <trkpt lat="48.21801" lon="0.06409">
        <ele>81.108</ele>
        <time>2016-06-01T20:54:06Z</time>
      </trkpt>
      <trkpt lat="48.21777" lon="0.06289">
        <ele>78.017</ele>
        <time>2016-06-01T20:53:46Z</time>
      </trkpt>
      <trkpt lat="48.21718" lon="0.06102">
        <ele>77.989</ele>
        <time>2016-06-01T20:53:26Z</time>
      </trkpt>
      <trkpt lat="48.21693" lon="0.06048">
        <ele>78.228</ele>
        <time>2016-06-01T20:53:06Z</time>
      </trkpt>
      <trkpt lat="48.21626" lon="0.05943">
        <ele>78.086</ele>
        <time>2016-06-01T20:52:46Z</time>
      </trkpt>
      <trkpt lat="48.21598" lon="0.05915">
        <ele>79.447</ele>
        <time>2016-06-01T20:52:26Z</time>
      </trkpt>
      <trkpt lat="48.21553" lon="0.05881">
        <ele>81.961</ele>
        <time>2016-06-01T20:52:06Z</time>
      </trkpt>
      <trkpt lat="48.21535" lon="0.05853">
        <ele>82.449</ele>
        <time>2016-06-01T20:51:46Z</time>
      </trkpt>
      <trkpt lat="48.21501" lon="0.05679">
        <ele>81.963</ele>
        <time>2016-06-01T20:51:26Z</time>
      </trkpt>
      <trkpt lat="48.2147" lon="0.05602">
        <ele>81.29</ele>
        <time>2016-06-01T20:51:06Z</time>
      </trkpt>
      <trkpt lat="48.2139" lon="0.05443">
        <ele>80.955</ele>
        <time>2016-06-01T20:50:46Z</time>
      </trkpt>
      <trkpt lat="48.21351" lon="0.05327">
        <ele>79.219</ele>
        <time>2016-06-01T20:50:26Z</time>
      </trkpt>
      <trkpt lat="48.2132" lon="0.05239">
        <ele>78.108</ele>
        <time>2016-06-01T20:50:06Z</time>
      </trkpt>
      <trkpt lat="48.21277" lon="0.05188">
        <ele>77.714</ele>
        <time>2016-06-01T20:49:46Z</time>
      </trkpt>
      <trkpt lat="48.21195" lon="0.0507">
        <ele>78.086</ele>
        <time>2016-06-01T20:49:26Z</time>
      </trkpt>
      <trkpt lat="48.21141" lon="0.05014">
        <ele>77.635</ele>
        <time>2016-06-01T20:49:06Z</time>
      </trkpt>
      <trkpt lat="48.21085" lon="0.05033">
        <ele>78.499</ele>
        <time>2016-06-01T20:48:46Z</time>
      </trkpt>
      <trkpt lat="48.21051" lon="0.05029">
        <ele>79.42</ele>
        <time>2016-06-01T20:48:26Z</time>
      </trkpt>
      <trkpt lat="48.20984" lon="0.04971">
        <ele>79.214</ele>
        <time>2016-06-01T20:48:06Z</time>
      </trkpt>
      <trkpt lat="48.20876" lon="0.04823">
        <ele>79.312</ele>
        <time>2016-06-01T20:47:46Z</time>
      </trkpt>
      <trkpt lat="48.20868" lon="0.04787">
        <ele>78.816</ele>
        <time>2016-06-01T20:47:26Z</time>
      </trkpt>
      <trkpt lat="48.20852" lon="0.04675">
        <ele>77.323</ele>
        <time>2016-06-01T20:47:06Z</time>
      </trkpt>
      <trkpt lat="48.20861" lon="0.04643">
        <ele>77.998</ele>
        <time>2016-06-01T20:46:46Z</time>
      </trkpt>
      <trkpt lat="48.20883" lon="0.046">
        <ele>79.342</ele>
        <time>2016-06-01T20:46:26Z</time>
      </trkpt>
      <trkpt lat="48.20889" lon="0.04546">
        <ele>77.708</ele>
        <time>2016-06-01T20:46:06Z</time>
      </trkpt>
      <trkpt lat="48.20913" lon="0.04548">
        <ele>77.716</ele>
        <time>2016-06-01T20:45:46Z</time>
      </trkpt>
      <trkpt lat="48.20968" lon="0.04512">
        <ele>77.206</ele>
        <time>2016-06-01T20:45:26Z</time>
      </trkpt>
      <trkpt lat="48.20991" lon="0.04512">
        <ele>76.864</ele>
        <time>2016-06-01T20:45:06Z</time>
      </trkpt>
      <trkpt lat="48.21018" lon="0.04529">
        <ele>76.684</ele>
        <time>2016-06-01T20:44:46Z</time>
      </trkpt>
      <trkpt lat="48.21052" lon="0.04533">
        <ele>77.075</ele>
        <time>2016-06-01T20:44:26Z</time>
      </trkpt>
      <trkpt lat="48.21086" lon="0.04495">
        <ele>79.199</ele>
        <time>2016-06-01T20:44:06Z</time>
      </trkpt>
      <trkpt lat="48.21138" lon="0.04407">
        <ele>81.087</ele>
        <time>2016-06-01T20:43:46Z</time>
      </trkpt>
      <trkpt lat="48.21187" lon="0.0436">
        <ele>83.491</ele>
        <time>2016-06-01T20:43:26Z</time>
      </trkpt>
      <trkpt lat="48.21267" lon="0.04338">
        <ele>83.588</ele>
        <time>2016-06-01T20:43:06Z</time>
      </trkpt>
      <trkpt lat="48.21312" lon="0.04304">
        <ele>84.513</ele>
        <time>2016-06-01T20:42:46Z</time>
      </trkpt>
      <trkpt lat="48.21395" lon="0.04201">
        <ele>86.857</ele>
        <time>2016-06-01T20:42:26Z</time>
      </trkpt>
      <trkpt lat="48.21448" lon="0.04111">
        <ele>86.008</ele>
        <time>2016-06-01T20:42:06Z</time>
      </trkpt>
      <trkpt lat="48.21468" lon="0.041">
        <ele>86.413</ele>
        <time>2016-06-01T20:41:46Z</time>
      </trkpt>
      <trkpt lat="48.21474" lon="0.04044">
        <ele>86.976</ele>
        <time>2016-06-01T20:41:26Z</time>
      </trkpt>
      <trkpt lat="48.21531" lon="0.03963">
        <ele>88.116</ele>
        <time>2016-06-01T20:41:06Z</time>
      </trkpt>
      <trkpt lat="48.21597" lon="0.03922">
        <ele>87.298</ele>
        <time>2016-06-01T20:40:46Z</time>
      </trkpt>
      <trkpt lat="48.21671" lon="0.0381">
        <ele>87.389</ele>
        <time>2016-06-01T20:40:26Z</time>
      </trkpt>
      <trkpt lat="48.21707" lon="0.03759">
        <ele>89.023</ele>
        <time>2016-06-01T20:40:06Z</time>
      </trkpt>
      <trkpt lat="48.21839" lon="0.03639">
        <ele>96.421</ele>
        <time>2016-06-01T20:39:46Z</time>
      </trkpt>
      <trkpt lat="48.21969" lon="0.03452">
        <ele>109.665</ele>
        <time>2016-06-01T20:39:26Z</time>
      </trkpt>
      <trkpt lat="48.21989" lon="0.03454">
        <ele>110.482</ele>
        <time>2016-06-01T20:39:06Z</time>
      </trkpt>
      <trkpt lat="48.22029" lon="0.03463">
        <ele>113.487</ele>
        <time>2016-06-01T20:38:46Z</time>
      </trkpt>
      <trkpt lat="48.22063" lon="0.0348">
        <ele>114.571</ele>
        <time>2016-06-01T20:38:26Z</time>
      </trkpt>
      <trkpt lat="48.22147" lon="0.03358">
        <ele>126.008</ele>
        <time>2016-06-01T20:38:06Z</time>
      </trkpt>
      <trkpt lat="48.22156" lon="0.03328">
        <ele>127.611</ele>
        <time>2016-06-01T20:37:46Z</time>
      </trkpt>
      <trkpt lat="48.2213" lon="0.03212">
        <ele>133.156</ele>
        <time>2016-06-01T20:37:26Z</time>
      </trkpt>
      <trkpt lat="48.22093" lon="0.03162">
        <ele>136.654</ele>
        <time>2016-06-01T20:37:06Z</time>
      </trkpt>
      <trkpt lat="48.22047" lon="0.03064">
        <ele>144.181</ele>
        <time>2016-06-01T20:36:46Z</time>
      </trkpt>
      <trkpt lat="48.21952" lon="0.02969">
        <ele>152.782</ele>
        <time>2016-06-01T20:36:26Z</time>
      </trkpt>
      <trkpt lat="48.21921" lon="0.02907">
        <ele>151.436</ele>
        <time>2016-06-01T20:36:06Z</time>
      </trkpt>
      <trkpt lat="48.21913" lon="0.0286">
        <ele>154.754</ele>
        <time>2016-06-01T20:35:46Z</time>
      </trkpt>
      <trkpt lat="48.21836" lon="0.02673">
        <ele>159.928</ele>
        <time>2016-06-01T20:35:26Z</time>
      </trkpt>
      <trkpt lat="48.21773" lon="0.02546">
        <ele>161.975</ele>
        <time>2016-06-01T20:35:06Z</time>
      </trkpt>
      <trkpt lat="48.21731" lon="0.02433">
        <ele>158.23</ele>
        <time>2016-06-01T20:34:46Z</time>
      </trkpt>
      <trkpt lat="48.21718" lon="0.0234">
        <ele>157.074</ele>
        <time>2016-06-01T20:34:26Z</time>
      </trkpt>
      <trkpt lat="48.21686" lon="0.02229">
        <ele>156.008</ele>
        <time>2016-06-01T20:34:06Z</time>
      </trkpt>
      <trkpt lat="48.21678" lon="0.02008">
        <ele>156.917</ele>
        <time>2016-06-01T20:33:46Z</time>
      </trkpt>
      <trkpt lat="48.21643" lon="0.018">
        <ele>158.943</ele>
        <time>2016-06-01T20:33:26Z</time>
      </trkpt>
      <trkpt lat="48.21618" lon="0.01701">
        <ele>159.282</ele>
        <time>2016-06-01T20:33:06Z</time>
      </trkpt>
      <trkpt lat="48.21616" lon="0.01617">
        <ele>160.93</ele>
        <time>2016-06-01T20:32:46Z</time>
      </trkpt>
      <trkpt lat="48.21597" lon="0.01486">
        <ele>157.221</ele>
        <time>2016-06-01T20:32:26Z</time>
      </trkpt>
      <trkpt lat="48.21594" lon="0.01356">
        <ele>159.195</ele>
        <time>2016-06-01T20:32:06Z</time>
      </trkpt>
      <trkpt lat="48.21637" lon="0.01383">
        <ele>161.123</ele>
        <time>2016-06-01T20:31:46Z</time>
      </trkpt>
      <trkpt lat="48.21683" lon="0.01388">
        <ele>162.637</ele>
        <time>2016-06-01T20:31:26Z</time>
      </trkpt>
      <trkpt lat="48.21781" lon="0.01381">
        <ele>165.024</ele>
        <time>2016-06-01T20:31:06Z</time>
      </trkpt>
      <trkpt lat="48.21819" lon="0.01403">
        <ele>165.779</ele>
        <time>2016-06-01T20:30:46Z</time>
      </trkpt>
      <trkpt lat="48.21877" lon="0.01315">
        <ele>166.133</ele>
        <time>2016-06-01T20:30:26Z</time>
      </trkpt>
      <trkpt lat="48.21927" lon="0.01259">
        <ele>168.808</ele>
        <time>2016-06-01T20:30:06Z</time>
      </trkpt>
      <trkpt lat="48.21936" lon="0.01229">
        <ele>170.121</ele>
        <time>2016-06-01T20:29:46Z</time>
      </trkpt>
      <trkpt lat="48.21992" lon="0.01135">
        <ele>167.556</ele>
        <time>2016-06-01T20:29:26Z</time>
      </trkpt>
      <trkpt lat="48.21996" lon="0.01077">
        <ele>168.474</ele>
        <time>2016-06-01T20:29:06Z</time>
      </trkpt>
      <trkpt lat="48.2202" lon="0.01038">
        <ele>168.36</ele>
        <time>2016-06-01T20:28:46Z</time>
      </trkpt>
      <trkpt lat="48.22023" lon="0.00987">
        <ele>170.521</ele>
        <time>2016-06-01T20:28:26Z</time>
      </trkpt>
      <trkpt lat="48.22034" lon="0.00918">
        <ele>171.735</ele>
        <time>2016-06-01T20:28:06Z</time>
      </trkpt>
      <trkpt lat="48.22072" lon="0.00811">
        <ele>172.473</ele>
        <time>2016-06-01T20:27:46Z</time>
      </trkpt>
      <trkpt lat="48.22082" lon="0.00703">
        <ele>173.037</ele>
        <time>2016-06-01T20:27:26Z</time>
      </trkpt>
      <trkpt lat="48.22275" lon="0.00444">
        <ele>175.034</ele>
        <time>2016-06-01T20:27:06Z</time>
      </trkpt>
      <trkpt lat="48.22182" lon="0.00128">
        <ele>176.379</ele>
        <time>2016-06-01T20:26:46Z</time>
      </trkpt>
      <trkpt lat="48.22203" lon="0.0009">
        <ele>178.723</ele>
        <time>2016-06-01T20:26:26Z</time>
      </trkpt>
      <trkpt lat="48.22265" lon="0.00042">
        <ele>175.808</ele>
        <time>2016-06-01T20:26:06Z</time>
      </trkpt>
      <trkpt lat="48.22317" lon="-0.00014">
        <ele>173.415</ele>
        <time>2016-06-01T20:25:46Z</time>
      </trkpt>
      <trkpt lat="48.22375" lon="-0.00125">
        <ele>176.241</ele>
        <time>2016-06-01T20:25:26Z</time>
      </trkpt>
      <trkpt lat="48.22439" lon="-0.00166">
        <ele>180.671</ele>
        <time>2016-06-01T20:25:06Z</time>
      </trkpt>
      <trkpt lat="48.22535" lon="-0.00301">
        <ele>184.244</ele>
        <time>2016-06-01T20:24:46Z</time>
      </trkpt>
      <trkpt lat="48.22578" lon="-0.00344">
        <ele>186.745</ele>
        <time>2016-06-01T20:24:26Z</time>
      </trkpt>
      <trkpt lat="48.22608" lon="-0.00402">
        <ele>186.859</ele>
        <time>2016-06-01T20:24:06Z</time>
      </trkpt>
      <trkpt lat="48.22631" lon="-0.00436">
        <ele>186.037</ele>
        <time>2016-06-01T20:23:46Z</time>
      </trkpt>
      <trkpt lat="48.22688" lon="-0.00516">
        <ele>186.691</ele>
        <time>2016-06-01T20:23:26Z</time>
      </trkpt>
      <trkpt lat="48.22688" lon="-0.00563">
        <ele>186.358</ele>
        <time>2016-06-01T20:23:06Z</time>
      </trkpt>
      <trkpt lat="48.22711" lon="-0.0064">
        <ele>187.063</ele>
        <time>2016-06-01T20:22:46Z</time>
      </trkpt>
      <trkpt lat="48.22728" lon="-0.00621">
        <ele>186.837</ele>
        <time>2016-06-01T20:22:26Z</time>
      </trkpt>
      <trkpt lat="48.22748" lon="-0.00623">
        <ele>186.108</ele>
        <time>2016-06-01T20:22:06Z</time>
      </trkpt>
      <trkpt lat="48.22771" lon="-0.00634">
        <ele>185.315</ele>
        <time>2016-06-01T20:21:46Z</time>
      </trkpt>
      <trkpt lat="48.22981" lon="-0.00758">
        <ele>165.487</ele>
        <time>2016-06-01T20:21:26Z</time>
      </trkpt>
      <trkpt lat="48.23005" lon="-0.00769">
        <ele>164.117</ele>
        <time>2016-06-01T20:21:06Z</time>
      </trkpt>
      <trkpt lat="48.23025" lon="-0.00857">
        <ele>163.189</ele>
        <time>2016-06-01T20:20:46Z</time>
      </trkpt>
      <trkpt lat="48.23038" lon="-0.00968">
        <ele>159.98</ele>
        <time>2016-06-01T20:20:26Z</time>
      </trkpt>
      <trkpt lat="48.23054" lon="-0.01016">
        <ele>158.714</ele>
        <time>2016-06-01T20:20:06Z</time>
      </trkpt>
      <trkpt lat="48.23067" lon="-0.01134">
        <ele>155.562</ele>
        <time>2016-06-01T20:19:46Z</time>
      </trkpt>
      <trkpt lat="48.23058" lon="-0.01269">
        <ele>152.116</ele>
        <time>2016-06-01T20:19:26Z</time>
      </trkpt>
      <trkpt lat="48.23059" lon="-0.0137">
        <ele>146.223</ele>
        <time>2016-06-01T20:19:06Z</time>
      </trkpt>
      <trkpt lat="48.23071" lon="-0.01428">
        <ele>142.848</ele>
        <time>2016-06-01T20:18:46Z</time>
      </trkpt>
      <trkpt lat="48.23068" lon="-0.01509">
        <ele>138.092</ele>
        <time>2016-06-01T20:18:26Z</time>
      </trkpt>
      <trkpt lat="48.23064" lon="-0.01543">
        <ele>139.008</ele>
        <time>2016-06-01T20:18:06Z</time>
      </trkpt>
      <trkpt lat="48.23035" lon="-0.01576">
        <ele>140.718</ele>
        <time>2016-06-01T20:17:46Z</time>
      </trkpt>
      <trkpt lat="48.22935" lon="-0.01636">
        <ele>140.844</ele>
        <time>2016-06-01T20:17:26Z</time>
      </trkpt>
      <trkpt lat="48.22871" lon="-0.01728">
        <ele>139.863</ele>
        <time>2016-06-01T20:17:06Z</time>
      </trkpt>
      <trkpt lat="48.22814" lon="-0.01812">
        <ele>139.366</ele>
        <time>2016-06-01T20:16:46Z</time>
      </trkpt>
      <trkpt lat="48.22769" lon="-0.01848">
        <ele>137.527</ele>
        <time>2016-06-01T20:16:26Z</time>
      </trkpt>
      <trkpt lat="48.22733" lon="-0.01893">
        <ele>135.271</ele>
        <time>2016-06-01T20:16:06Z</time>
      </trkpt>
      <trkpt lat="48.22698" lon="-0.01996">
        <ele>132.239</ele>
        <time>2016-06-01T20:15:46Z</time>
      </trkpt>
      <trkpt lat="48.22643" lon="-0.02033">
        <ele>133.083</ele>
        <time>2016-06-01T20:15:26Z</time>
      </trkpt>
      <trkpt lat="48.22468" lon="-0.02395">
        <ele>152.81</ele>
        <time>2016-06-01T20:15:06Z</time>
      </trkpt>
      <trkpt lat="48.2246" lon="-0.02434">
        <ele>155.625</ele>
        <time>2016-06-01T20:14:46Z</time>
      </trkpt>
      <trkpt lat="48.22446" lon="-0.02533">
        <ele>156.629</ele>
        <time>2016-06-01T20:14:26Z</time>
      </trkpt>
      <trkpt lat="48.22423" lon="-0.02543">
        <ele>155.808</ele>
        <time>2016-06-01T20:14:06Z</time>
      </trkpt>
      <trkpt lat="48.22422" lon="-0.02563">
        <ele>156.413</ele>
        <time>2016-06-01T20:13:46Z</time>
      </trkpt>
      <trkpt lat="48.224" lon="-0.02636">
        <ele>160.649</ele>
        <time>2016-06-01T20:13:26Z</time>
      </trkpt>
      <trkpt lat="48.22393" lon="-0.02685">
        <ele>161.537</ele>
        <time>2020-12-24T06:43:35Z</time>
      </trkpt>
      <trkpt lat="48.22412" lon="-0.0269">
        <ele>162.61</ele>
        <time>2020-12-24T06:43:15Z</time>
      </trkpt>
      <trkpt lat="48.22492" lon="-0.02647">
        <ele>160.941</ele>
        <time>2020-12-24T06:42:55Z</time>
      </trkpt>
      <trkpt lat="48.22524" lon="-0.02858">
        <ele>162.245</ele>
        <time>2020-12-24T06:42:35Z</time>
      </trkpt>
      <trkpt lat="48.22511" lon="-0.02961">
        <ele>164.813</ele>
        <time>2020-12-24T06:42:15Z</time>
      </trkpt>
      <trkpt lat="48.22454" lon="-0.03247">
        <ele>180.177</ele>
        <time>2020-12-24T06:41:55Z</time>
      </trkpt>
      <trkpt lat="48.22718" lon="-0.03388">
        <ele>166.594</ele>
        <time>2020-12-24T06:41:35Z</time>
      </trkpt>
      <trkpt lat="48.2271" lon="-0.03441">
        <ele>168.259</ele>
        <time>2020-12-24T06:41:15Z</time>
      </trkpt>
      <trkpt lat="48.2269" lon="-0.03512">
        <ele>170.453</ele>
        <time>2020-12-24T06:40:55Z</time>
      </trkpt>
      <trkpt lat="48.22691" lon="-0.03573">
        <ele>170.508</ele>
        <time>2020-12-24T06:40:35Z</time>
      </trkpt>
      <trkpt lat="48.22685" lon="-0.03622">
        <ele>170.625</ele>
        <time>2020-12-24T06:40:15Z</time>
      </trkpt>
      <trkpt lat="48.2266" lon="-0.03684">
        <ele>171.605</ele>
        <time>2020-12-24T06:39:55Z</time>
      </trkpt>
      <trkpt lat="48.2261" lon="-0.03742">
        <ele>175.279</ele>
        <time>2020-12-24T06:39:35Z</time>
      </trkpt>
      <trkpt lat="48.22563" lon="-0.03815">
        <ele>177.076</ele>
        <time>2020-12-24T06:39:15Z</time>
      </trkpt>
      <trkpt lat="48.22458" lon="-0.042">
        <ele>178.657</ele>
        <time>2020-12-24T06:38:55Z</time>
      </trkpt>
      <trkpt lat="48.22363" lon="-0.04162">
        <ele>184.441</ele>
        <time>2020-12-24T06:38:35Z</time>
      </trkpt>
      <trkpt lat="48.22299" lon="-0.04214">
        <ele>182.359</ele>
        <time>2020-12-24T06:38:15Z</time>
      </trkpt>
      <trkpt lat="48.2227" lon="-0.04264">
        <ele>180.013</ele>
        <time>2020-12-24T06:37:55Z</time>
      </trkpt>
      <trkpt lat="48.22252" lon="-0.04333">
        <ele>177.14</ele>
        <time>2020-12-24T06:37:35Z</time>
      </trkpt>
      <trkpt lat="48.2218" lon="-0.04455">
        <ele>166.555</ele>
        <time>2020-12-24T06:37:15Z</time>
      </trkpt>
      <trkpt lat="48.22177" lon="-0.04498">
        <ele>164.999</ele>
        <time>2020-12-24T06:36:55Z</time>
      </trkpt>
      <trkpt lat="48.2211" lon="-0.04498">
        <ele>170.108</ele>
        <time>2020-12-24T06:36:35Z</time>
      </trkpt>
      <trkpt lat="48.22084" lon="-0.04567">
        <ele>174.51</ele>
        <time>2020-12-24T06:36:15Z</time>
      </trkpt>
      <trkpt lat="48.22076" lon="-0.04734">
        <ele>179.555</ele>
        <time>2020-12-24T06:35:55Z</time>
      </trkpt>
      <trkpt lat="48.22097" lon="-0.04788">
        <ele>178.034</ele>
        <time>2020-12-24T06:35:35Z</time>
      </trkpt>
      <trkpt lat="48.22109" lon="-0.04854">
        <ele>179.375</ele>
        <time>2020-12-24T06:35:15Z</time>
      </trkpt>
      <trkpt lat="48.22097" lon="-0.0502">
        <ele>182.926</ele>
        <time>2020-12-24T06:34:55Z</time>
      </trkpt>
      <trkpt lat="48.22071" lon="-0.05153">
        <ele>183.62</ele>
        <time>2020-12-24T06:34:35Z</time>
      </trkpt>
      <trkpt lat="48.22037" lon="-0.05201">
        <ele>184.998</ele>
        <time>2020-12-24T06:34:15Z</time>
      </trkpt>
      <trkpt lat="48.22014" lon="-0.05257">
        <ele>186.422</ele>
        <time>2020-12-24T06:33:55Z</time>
      </trkpt>
      <trkpt lat="48.21987" lon="-0.05301">
        <ele>187.739</ele>
        <time>2020-12-24T06:33:35Z</time>
      </trkpt>
      <trkpt lat="48.21951" lon="-0.0541">
        <ele>191.494</ele>
        <time>2020-12-24T06:33:15Z</time>
      </trkpt>
      <trkpt lat="48.21913" lon="-0.05469">
        <ele>189.468</ele>
        <time>2020-12-24T06:32:55Z</time>
      </trkpt>
      <trkpt lat="48.21876" lon="-0.05599">
        <ele>193.608</ele>
        <time>2020-12-24T06:32:35Z</time>
      </trkpt>
      <trkpt lat="48.21823" lon="-0.05757">
        <ele>196.211</ele>
        <time>2020-12-24T06:32:15Z</time>
      </trkpt>
      <trkpt lat="48.21796" lon="-0.05972">
        <ele>199.547</ele>
        <time>2020-12-24T06:31:55Z</time>
      </trkpt>
      <trkpt lat="48.21775" lon="-0.06015">
        <ele>199.326</ele>
        <time>2020-12-24T06:31:35Z</time>
      </trkpt>
      <trkpt lat="48.21742" lon="-0.06118">
        <ele>201.26</ele>
        <time>2020-12-24T06:31:15Z</time>
      </trkpt>
      <trkpt lat="48.21722" lon="-0.06126">
        <ele>202.711</ele>
        <time>2020-12-24T06:30:55Z</time>
      </trkpt>
      <trkpt lat="48.21704" lon="-0.06161">
        <ele>204.515</ele>
        <time>2020-12-24T06:30:35Z</time>
      </trkpt>
      <trkpt lat="48.2157" lon="-0.06249">
        <ele>219.573</ele>
        <time>2020-12-24T06:30:15Z</time>
      </trkpt>
      <trkpt lat="48.21527" lon="-0.06226">
        <ele>223.987</ele>
        <time>2020-12-24T06:29:55Z</time>
      </trkpt>
      <trkpt lat="48.21515" lon="-0.06188">
        <ele>225.194</ele>
        <time>2020-12-24T06:29:35Z</time>
      </trkpt>
      <trkpt lat="48.21481" lon="-0.06191">
        <ele>229.559</ele>
        <time>2020-12-24T06:29:15Z</time>
      </trkpt>
      <trkpt lat="48.2146" lon="-0.06232">
        <ele>231.923</ele>
        <time>2020-12-24T06:28:55Z</time>
      </trkpt>
      <trkpt lat="48.21326" lon="-0.06364">
        <ele>249.308</ele>
        <time>2020-12-24T06:28:35Z</time>
      </trkpt>
      <trkpt lat="48.21024" lon="-0.06211">
        <ele>262.413</ele>
        <time>2020-12-24T06:28:15Z</time>
      </trkpt>
      <trkpt lat="48.20789" lon="-0.07238">
        <ele>267.485</ele>
        <time>2016-06-01T20:07:06Z</time>
      </trkpt>
      <trkpt lat="48.20576" lon="-0.07084">
        <ele>241.273</ele>
        <time>2016-06-01T20:06:46Z</time>
      </trkpt>
      <trkpt lat="48.20545" lon="-0.07112">
        <ele>240.61</ele>
        <time>2016-06-01T20:06:26Z</time>
      </trkpt>
      <trkpt lat="48.20504" lon="-0.07193">
        <ele>245.811</ele>
        <time>2016-06-01T20:06:06Z</time>
      </trkpt>
      <trkpt lat="48.20439" lon="-0.07492">
        <ele>240.695</ele>
        <time>2016-06-01T20:05:46Z</time>
      </trkpt>
      <trkpt lat="48.20506" lon="-0.07519">
        <ele>243.353</ele>
        <time>2016-06-01T20:05:26Z</time>
      </trkpt>
      <trkpt lat="48.20273" lon="-0.07622">
        <ele>223.857</ele>
        <time>2016-06-01T20:05:06Z</time>
      </trkpt>
      <trkpt lat="48.20206" lon="-0.07655">
        <ele>222.544</ele>
        <time>2016-06-01T20:04:46Z</time>
      </trkpt>
      <trkpt lat="48.20134" lon="-0.07629">
        <ele>214.369</ele>
        <time>2016-06-01T20:04:26Z</time>
      </trkpt>
      <trkpt lat="48.20004" lon="-0.07543">
        <ele>193.023</ele>
        <time>2016-06-01T20:04:06Z</time>
      </trkpt>
      <trkpt lat="48.19988" lon="-0.07567">
        <ele>192.508</ele>
        <time>2016-06-01T20:03:46Z</time>
      </trkpt>
      <trkpt lat="48.19937" lon="-0.07698">
        <ele>196.426</ele>
        <time>2016-06-01T20:03:26Z</time>
      </trkpt>
      <trkpt lat="48.19914" lon="-0.07788">
        <ele>197.533</ele>
        <time>2016-06-01T20:03:06Z</time>
      </trkpt>
      <trkpt lat="48.19912" lon="-0.07839">
        <ele>197.678</ele>
        <time>2016-06-01T20:02:46Z</time>
      </trkpt>
      <trkpt lat="48.19898" lon="-0.07959">
        <ele>196.542</ele>
        <time>2016-06-01T20:02:26Z</time>
      </trkpt>
      <trkpt lat="48.19858" lon="-0.0809">
        <ele>186.113</ele>
        <time>2016-06-01T20:02:06Z</time>
      </trkpt>
      <trkpt lat="48.19834" lon="-0.08105">
        <ele>183.837</ele>
        <time>2016-06-01T20:01:46Z</time>
      </trkpt>
      <trkpt lat="48.19778" lon="-0.08219">
        <ele>188.025</ele>
        <time>2016-06-01T20:01:26Z</time>
      </trkpt>
      <trkpt lat="48.19721" lon="-0.08339">
        <ele>194.339</ele>
        <time>2016-06-01T20:01:06Z</time>
      </trkpt>
      <trkpt lat="48.19685" lon="-0.08403">
        <ele>189.786</ele>
        <time>2016-06-01T20:00:46Z</time>
      </trkpt>
      <trkpt lat="48.19651" lon="-0.08436">
        <ele>187.981</ele>
        <time>2016-06-01T20:00:26Z</time>
      </trkpt>
      <trkpt lat="48.19535" lon="-0.08474">
        <ele>180.115</ele>
        <time>2016-06-01T20:00:06Z</time>
      </trkpt>
      <trkpt lat="48.19489" lon="-0.08567">
        <ele>179.208</ele>
        <time>2016-06-01T19:59:46Z</time>
      </trkpt>
      <trkpt lat="48.19455" lon="-0.08601">
        <ele>177.424</ele>
        <time>2016-06-01T19:59:26Z</time>
      </trkpt>
      <trkpt lat="48.19445" lon="-0.08633">
        <ele>177.831</ele>
        <time>2016-06-01T19:59:06Z</time>
      </trkpt>
      <trkpt lat="48.19465" lon="-0.08685">
        <ele>180.896</ele>
        <time>2016-06-01T19:58:46Z</time>
      </trkpt>
      <trkpt lat="48.19455" lon="-0.08852">
        <ele>185.068</ele>
        <time>2016-06-01T19:58:26Z</time>
      </trkpt>
      <trkpt lat="48.19417" lon="-0.08901">
        <ele>184.569</ele>
        <time>2016-06-01T19:58:06Z</time>
      </trkpt>
      <trkpt lat="48.19395" lon="-0.08972">
        <ele>184.223</ele>
        <time>2016-06-01T19:57:46Z</time>
      </trkpt>
      <trkpt lat="48.19389" lon="-0.09013">
        <ele>184.541</ele>
        <time>2016-06-01T19:57:26Z</time>
      </trkpt>
      <trkpt lat="48.19377" lon="-0.09071">
        <ele>186.945</ele>
        <time>2016-06-01T19:57:06Z</time>
      </trkpt>
      <trkpt lat="48.19332" lon="-0.09137">
        <ele>187.992</ele>
        <time>2016-06-01T19:56:46Z</time>
      </trkpt>
      <trkpt lat="48.19406" lon="-0.09208">
        <ele>196.587</ele>
        <time>2016-06-01T19:56:26Z</time>
      </trkpt>
      <trkpt lat="48.19468" lon="-0.09225">
        <ele>206.351</ele>
        <time>2016-06-01T19:56:06Z</time>
      </trkpt>
      <trkpt lat="48.1951" lon="-0.09174">
        <ele>209.008</ele>
        <time>2016-06-01T19:55:46Z</time>
      </trkpt>
      <trkpt lat="48.19582" lon="-0.09124">
        <ele>219.211</ele>
        <time>2016-06-01T19:55:26Z</time>
      </trkpt>
      <trkpt lat="48.19641" lon="-0.09112">
        <ele>228.301</ele>
        <time>2016-06-01T19:55:06Z</time>
      </trkpt>
      <trkpt lat="48.19689" lon="-0.09146">
        <ele>236.951</ele>
        <time>2016-06-01T19:54:46Z</time>
      </trkpt>
      <trkpt lat="48.19685" lon="-0.09212">
        <ele>241.174</ele>
        <time>2016-06-01T19:54:26Z</time>
      </trkpt>
      <trkpt lat="48.19689" lon="-0.0927">
        <ele>246.665</ele>
        <time>2016-06-01T19:54:06Z</time>
      </trkpt>
      <trkpt lat="48.19744" lon="-0.09382">
        <ele>262.779</ele>
        <time>2016-06-01T19:53:46Z</time>
      </trkpt>
      <trkpt lat="48.19761" lon="-0.09433">
        <ele>264.917</ele>
        <time>2016-06-01T19:53:26Z</time>
      </trkpt>
      <trkpt lat="48.19754" lon="-0.09429">
        <ele>265.081</ele>
        <time>2016-06-01T19:53:06Z</time>
      </trkpt>
      <trkpt lat="48.19711" lon="-0.09421">
        <ele>262.318</ele>
        <time>2016-06-01T19:52:46Z</time>
      </trkpt>
      <trkpt lat="48.19654" lon="-0.09436">
        <ele>254.843</ele>
        <time>2016-06-01T19:52:26Z</time>
      </trkpt>
      <trkpt lat="48.19515" lon="-0.09442">
        <ele>236.477</ele>
        <time>2016-06-01T19:52:06Z</time>
      </trkpt>
      <trkpt lat="48.19466" lon="-0.09418">
        <ele>227.208</ele>
        <time>2016-06-01T19:51:46Z</time>
      </trkpt>
      <trkpt lat="48.19416" lon="-0.09401">
        <ele>214.607</ele>
        <time>2016-06-01T19:51:26Z</time>
      </trkpt>
      <trkpt lat="48.1937" lon="-0.09444">
        <ele>206.943</ele>
        <time>2016-06-01T19:51:06Z</time>
      </trkpt>
      <trkpt lat="48.19292" lon="-0.09588">
        <ele>202.313</ele>
        <time>2016-06-01T19:50:46Z</time>
      </trkpt>
      <trkpt lat="48.19247" lon="-0.0976">
        <ele>202.947</ele>
        <time>2020-12-24T06:11:15Z</time>
      </trkpt>
      <trkpt lat="48.19233" lon="-0.09775">
        <ele>200.818</ele>
        <time>2020-12-24T06:10:55Z</time>
      </trkpt>
      <trkpt lat="48.19236" lon="-0.09897">
        <ele>203.522</ele>
        <time>2020-12-24T06:10:35Z</time>
      </trkpt>
      <trkpt lat="48.19256" lon="-0.09929">
        <ele>207.28</ele>
        <time>2020-12-24T06:10:15Z</time>
      </trkpt>
      <trkpt lat="48.19269" lon="-0.09977">
        <ele>207.994</ele>
        <time>2020-12-24T06:09:55Z</time>
      </trkpt>
      <trkpt lat="48.19344" lon="-0.10122">
        <ele>215.151</ele>
        <time>2020-12-24T06:09:35Z</time>
      </trkpt>
      <trkpt lat="48.1938" lon="-0.10178">
        <ele>215.826</ele>
        <time>2020-12-24T06:09:15Z</time>
      </trkpt>
      <trkpt lat="48.19392" lon="-0.10232">
        <ele>214.95</ele>
        <time>2020-12-24T06:08:55Z</time>
      </trkpt>
      <trkpt lat="48.19323" lon="-0.10225">
        <ele>222.008</ele>
        <time>2020-12-24T06:08:35Z</time>
      </trkpt>
      <trkpt lat="48.19316" lon="-0.10401">
        <ele>240.016</ele>
        <time>2016-06-01T19:46:46Z</time>
      </trkpt>
      <trkpt lat="48.19332" lon="-0.10485">
        <ele>247.888</ele>
        <time>2016-06-01T19:46:26Z</time>
      </trkpt>
      <trkpt lat="48.19337" lon="-0.10556">
        <ele>251.446</ele>
        <time>2016-06-01T19:46:06Z</time>
      </trkpt>
      <trkpt lat="48.19307" lon="-0.10629">
        <ele>253.96</ele>
        <time>2016-06-01T19:45:46Z</time>
      </trkpt>
      <trkpt lat="48.19286" lon="-0.10706">
        <ele>253.781</ele>
        <time>2016-06-01T19:45:26Z</time>
      </trkpt>
      <trkpt lat="48.1923" lon="-0.10794">
        <ele>253.345</ele>
        <time>2016-06-01T19:45:06Z</time>
      </trkpt>
      <trkpt lat="48.19264" lon="-0.108">
        <ele>250.373</ele>
        <time>2016-06-01T19:44:46Z</time>
      </trkpt>
      <trkpt lat="48.19326" lon="-0.10837">
        <ele>244.687</ele>
        <time>2016-06-01T19:44:26Z</time>
      </trkpt>
      <trkpt lat="48.19407" lon="-0.10869">
        <ele>246.734</ele>
        <time>2016-06-01T19:44:06Z</time>
      </trkpt>
      <trkpt lat="48.19468" lon="-0.10938">
        <ele>250.559</ele>
        <time>2016-06-01T19:43:46Z</time>
      </trkpt>
      <trkpt lat="48.19498" lon="-0.10955">
        <ele>252.893</ele>
        <time>2016-06-01T19:43:26Z</time>
      </trkpt>
      <trkpt lat="48.19541" lon="-0.10987">
        <ele>254.708</ele>
        <time>2016-06-01T19:43:06Z</time>
      </trkpt>
      <trkpt lat="48.19592" lon="-0.11019">
        <ele>255.82</ele>
        <time>2016-06-01T19:42:46Z</time>
      </trkpt>
      <trkpt lat="48.19645" lon="-0.11038">
        <ele>257.028</ele>
        <time>2016-06-01T19:42:26Z</time>
      </trkpt>
      <trkpt lat="48.19666" lon="-0.11051">
        <ele>257.075</ele>
        <time>2016-06-01T19:42:06Z</time>
      </trkpt>
      <trkpt lat="48.19679" lon="-0.11077">
        <ele>257.052</ele>
        <time>2016-06-01T19:41:46Z</time>
      </trkpt>
      <trkpt lat="48.19791" lon="-0.10981">
        <ele>261.653</ele>
        <time>2016-06-01T19:41:26Z</time>
      </trkpt>
      <trkpt lat="48.19864" lon="-0.11051">
        <ele>263.297</ele>
        <time>2016-06-01T19:41:06Z</time>
      </trkpt>
      <trkpt lat="48.19954" lon="-0.1112">
        <ele>264.855</ele>
        <time>2016-06-01T19:40:46Z</time>
      </trkpt>
      <trkpt lat="48.2" lon="-0.11146">
        <ele>267.099</ele>
        <time>2016-06-01T19:40:26Z</time>
      </trkpt>
      <trkpt lat="48.2003" lon="-0.11163">
        <ele>268.236</ele>
        <time>2016-06-01T19:40:06Z</time>
      </trkpt>
      <trkpt lat="48.20043" lon="-0.11217">
        <ele>270.011</ele>
        <time>2016-06-01T19:39:46Z</time>
      </trkpt>
      <trkpt lat="48.20133" lon="-0.11277">
        <ele>274.095</ele>
        <time>2016-06-01T19:39:26Z</time>
      </trkpt>
      <trkpt lat="48.20181" lon="-0.11352">
        <ele>275.708</ele>
        <time>2016-06-01T19:39:06Z</time>
      </trkpt>
      <trkpt lat="48.20218" lon="-0.1138">
        <ele>280.421</ele>
        <time>2016-06-01T19:38:46Z</time>
      </trkpt>
      <trkpt lat="48.20364" lon="-0.11515">
        <ele>263.165</ele>
        <time>2016-06-01T19:38:26Z</time>
      </trkpt>
      <trkpt lat="48.20264" lon="-0.11757">
        <ele>261.693</ele>
        <time>2016-06-01T19:38:06Z</time>
      </trkpt>
      <trkpt lat="48.20228" lon="-0.11837">
        <ele>257.619</ele>
        <time>2016-06-01T19:37:46Z</time>
      </trkpt>
      <trkpt lat="48.20178" lon="-0.1188">
        <ele>261.98</ele>
        <time>2016-06-01T19:37:26Z</time>
      </trkpt>
      <trkpt lat="48.20118" lon="-0.11946">
        <ele>265.614</ele>
        <time>2016-06-01T19:37:06Z</time>
      </trkpt>
      <trkpt lat="48.20138" lon="-0.11961">
        <ele>263.272</ele>
        <time>2016-06-01T19:36:46Z</time>
      </trkpt>
      <trkpt lat="48.20154" lon="-0.12032">
        <ele>256.876</ele>
        <time>2016-06-01T19:36:26Z</time>
      </trkpt>
      <trkpt lat="48.20193" lon="-0.12071">
        <ele>258.263</ele>
        <time>2016-06-01T19:36:06Z</time>
      </trkpt>
      <trkpt lat="48.20218" lon="-0.12154">
        <ele>255.648</ele>
        <time>2016-06-01T19:35:46Z</time>
      </trkpt>
      <trkpt lat="48.20213" lon="-0.12201">
        <ele>252.472</ele>
        <time>2016-06-01T19:35:26Z</time>
      </trkpt>
      <trkpt lat="48.2018" lon="-0.12212">
        <ele>250.608</ele>
        <time>2016-06-01T19:35:06Z</time>
      </trkpt>
      <trkpt lat="48.20148" lon="-0.1224">
        <ele>248.711</ele>
        <time>2016-06-01T19:34:46Z</time>
      </trkpt>
      <trkpt lat="48.20166" lon="-0.12646">
        <ele>249.183</ele>
        <time>2016-06-01T19:34:26Z</time>
      </trkpt>
      <trkpt lat="48.20326" lon="-0.1274">
        <ele>240.062</ele>
        <time>2016-06-01T19:34:06Z</time>
      </trkpt>
      <trkpt lat="48.20357" lon="-0.12753">
        <ele>237.39</ele>
        <time>2016-06-01T19:33:46Z</time>
      </trkpt>
      <trkpt lat="48.20337" lon="-0.12875">
        <ele>240.131</ele>
        <time>2016-06-01T19:33:26Z</time>
      </trkpt>
      <trkpt lat="48.20347" lon="-0.12918">
        <ele>238.045</ele>
        <time>2016-06-01T19:33:06Z</time>
      </trkpt>
      <trkpt lat="48.2034" lon="-0.12946">
        <ele>237.943</ele>
        <time>2016-06-01T19:32:46Z</time>
      </trkpt>
      <trkpt lat="48.20196" lon="-0.13116">
        <ele>239.667</ele>
        <time>2016-06-01T19:32:26Z</time>
      </trkpt>
      <trkpt lat="48.20163" lon="-0.13191">
        <ele>235.984</ele>
        <time>2016-06-01T19:32:06Z</time>
      </trkpt>
      <trkpt lat="48.20163" lon="-0.13201">
        <ele>235.259</ele>
        <time>2016-06-01T19:31:46Z</time>
      </trkpt>
      <trkpt lat="48.20186" lon="-0.13257">
        <ele>234.083</ele>
        <time>2016-06-01T19:31:26Z</time>
      </trkpt>
      <trkpt lat="48.20223" lon="-0.13317">
        <ele>233.008</ele>
        <time>2016-06-01T19:31:06Z</time>
      </trkpt>
      <trkpt lat="48.20296" lon="-0.13369">
        <ele>235.925</ele>
        <time>2016-06-01T19:30:46Z</time>
      </trkpt>
      <trkpt lat="48.2032" lon="-0.13371">
        <ele>239.905</ele>
        <time>2016-06-01T19:30:26Z</time>
      </trkpt>
      <trkpt lat="48.2032" lon="-0.13371">
        <ele>239.979</ele>
        <time>2016-06-01T19:30:06Z</time>
      </trkpt>
      <trkpt lat="48.2032" lon="-0.13362">
        <ele>239.635</ele>
        <time>2016-06-01T19:29:46Z</time>
      </trkpt>
      <trkpt lat="48.2037" lon="-0.13208">
        <ele>237.616</ele>
        <time>2016-06-01T19:29:26Z</time>
      </trkpt>
      <trkpt lat="48.20429" lon="-0.13137">
        <ele>237.43</ele>
        <time>2016-06-01T19:29:06Z</time>
      </trkpt>
      <trkpt lat="48.20452" lon="-0.1309">
        <ele>232.748</ele>
        <time>2016-06-01T19:28:46Z</time>
      </trkpt>
      <trkpt lat="48.20503" lon="-0.13049">
        <ele>234.072</ele>
        <time>2016-06-01T19:28:26Z</time>
      </trkpt>
      <trkpt lat="48.20536" lon="-0.13051">
        <ele>236.329</ele>
        <time>2016-06-01T19:28:06Z</time>
      </trkpt>
      <trkpt lat="48.2058" lon="-0.13051">
        <ele>237.744</ele>
        <time>2016-06-01T19:27:46Z</time>
      </trkpt>
      <trkpt lat="48.20637" lon="-0.13047">
        <ele>234.968</ele>
        <time>2016-06-01T19:27:26Z</time>
      </trkpt>
      <trkpt lat="48.2069" lon="-0.13086">
        <ele>242.108</ele>
        <time>2016-06-01T19:27:06Z</time>
      </trkpt>
      <trkpt lat="48.20715" lon="-0.13133">
        <ele>242.914</ele>
        <time>2016-06-01T19:26:46Z</time>
      </trkpt>
      <trkpt lat="48.20746" lon="-0.13152">
        <ele>244.804</ele>
        <time>2016-06-01T19:26:26Z</time>
      </trkpt>
      <trkpt lat="48.20786" lon="-0.13197">
        <ele>245.324</ele>
        <time>2016-06-01T19:26:06Z</time>
      </trkpt>
      <trkpt lat="48.20853" lon="-0.13292">
        <ele>245.685</ele>
        <time>2016-06-01T19:25:46Z</time>
      </trkpt>
      <trkpt lat="48.20896" lon="-0.13354">
        <ele>242.516</ele>
        <time>2016-06-01T19:25:26Z</time>
      </trkpt>
      <trkpt lat="48.20895" lon="-0.13382">
        <ele>242.23</ele>
        <time>2016-06-01T19:25:06Z</time>
      </trkpt>
      <trkpt lat="48.20995" lon="-0.13403">
        <ele>231.628</ele>
        <time>2016-06-01T19:24:46Z</time>
      </trkpt>
      <trkpt lat="48.21041" lon="-0.13371">
        <ele>229.042</ele>
        <time>2016-06-01T19:24:26Z</time>
      </trkpt>
      <trkpt lat="48.21115" lon="-0.1333">
        <ele>229.129</ele>
        <time>2016-06-01T19:24:06Z</time>
      </trkpt>
      <trkpt lat="48.21222" lon="-0.1327">
        <ele>234.714</ele>
        <time>2016-06-01T19:23:46Z</time>
      </trkpt>
      <trkpt lat="48.21277" lon="-0.13223">
        <ele>237.058</ele>
        <time>2016-06-01T19:23:26Z</time>
      </trkpt>
      <trkpt lat="48.2129" lon="-0.13214">
        <ele>238.608</ele>
        <time>2016-06-01T19:23:06Z</time>
      </trkpt>
      <trkpt lat="48.213" lon="-0.1312">
        <ele>236.014</ele>
        <time>2016-06-01T19:22:46Z</time>
      </trkpt>
      <trkpt lat="48.21414" lon="-0.13201">
        <ele>244.704</ele>
        <time>2016-06-01T19:22:26Z</time>
      </trkpt>
      <trkpt lat="48.21676" lon="-0.12317">
        <ele>244.324</ele>
        <time>2016-06-01T19:22:06Z</time>
      </trkpt>
      <trkpt lat="48.21601" lon="-0.12277">
        <ele>244.219</ele>
        <time>2016-06-01T19:21:46Z</time>
      </trkpt>
      <trkpt lat="48.21608" lon="-0.1227">
        <ele>244.27</ele>
        <time>2016-06-01T19:21:26Z</time>
      </trkpt>
      <trkpt lat="48.21876" lon="-0.11867">
        <ele>241.664</ele>
        <time>2016-06-01T19:21:06Z</time>
      </trkpt>
      <trkpt lat="48.21889" lon="-0.11867">
        <ele>242.082</ele>
        <time>2016-06-01T19:20:46Z</time>
      </trkpt>
      <trkpt lat="48.21903" lon="-0.11847">
        <ele>242.366</ele>
        <time>2016-06-01T19:20:26Z</time>
      </trkpt>
      <trkpt lat="48.22007" lon="-0.11774">
        <ele>245.873</ele>
        <time>2016-06-01T19:20:06Z</time>
      </trkpt>
      <trkpt lat="48.2203" lon="-0.11744">
        <ele>244.968</ele>
        <time>2016-06-01T19:19:46Z</time>
      </trkpt>
      <trkpt lat="48.22063" lon="-0.11725">
        <ele>244.022</ele>
        <time>2016-06-01T19:19:26Z</time>
      </trkpt>
      <trkpt lat="48.221" lon="-0.11669">
        <ele>242.108</ele>
        <time>2016-06-01T19:19:06Z</time>
      </trkpt>
      <trkpt lat="48.22146" lon="-0.11599">
        <ele>241.313</ele>
        <time>2016-06-01T19:18:46Z</time>
      </trkpt>
      <trkpt lat="48.22166" lon="-0.11564">
        <ele>239.321</ele>
        <time>2016-06-01T19:18:26Z</time>
      </trkpt>
      <trkpt lat="48.22172" lon="-0.11493">
        <ele>234.361</ele>
        <time>2016-06-01T19:18:06Z</time>
      </trkpt>
      <trkpt lat="48.22187" lon="-0.11472">
        <ele>231.599</ele>
        <time>2016-06-01T19:17:46Z</time>
      </trkpt>
      <trkpt lat="48.22196" lon="-0.11427">
        <ele>228.16</ele>
        <time>2016-06-01T19:17:26Z</time>
      </trkpt>
      <trkpt lat="48.22237" lon="-0.11317">
        <ele>220.474</ele>
        <time>2016-06-01T19:17:06Z</time>
      </trkpt>
      <trkpt lat="48.22205" lon="-0.11277">
        <ele>223.292</ele>
        <time>2016-06-01T19:16:46Z</time>
      </trkpt>
      <trkpt lat="48.22072" lon="-0.11159">
        <ele>222.466</ele>
        <time>2016-06-01T19:16:26Z</time>
      </trkpt>
      <trkpt lat="48.22013" lon="-0.11099">
        <ele>213.943</ele>
        <time>2016-06-01T19:16:06Z</time>
      </trkpt>
      <trkpt lat="48.21986" lon="-0.11056">
        <ele>212.568</ele>
        <time>2016-06-01T19:15:46Z</time>
      </trkpt>
      <trkpt lat="48.2193" lon="-0.1103">
        <ele>213.972</ele>
        <time>2016-06-01T19:15:26Z</time>
      </trkpt>
      <trkpt lat="48.21984" lon="-0.10948">
        <ele>213.708</ele>
        <time>2016-06-01T19:15:06Z</time>
      </trkpt>
      <trkpt lat="48.22053" lon="-0.10847">
        <ele>209.321</ele>
        <time>2016-06-01T19:14:46Z</time>
      </trkpt>
      <trkpt lat="48.22094" lon="-0.10826">
        <ele>206.929</ele>
        <time>2016-06-01T19:14:26Z</time>
      </trkpt>
      <trkpt lat="48.22116" lon="-0.10822">
        <ele>205.966</ele>
        <time>2016-06-01T19:14:06Z</time>
      </trkpt>
      <trkpt lat="48.22207" lon="-0.1082">
        <ele>201.364</ele>
        <time>2016-06-01T19:13:46Z</time>
      </trkpt>
      <trkpt lat="48.22376" lon="-0.10931">
        <ele>209.935</ele>
        <time>2016-06-01T19:13:26Z</time>
      </trkpt>
      <trkpt lat="48.22386" lon="-0.10908">
        <ele>215.819</ele>
        <time>2016-06-01T19:13:06Z</time>
      </trkpt>
      <trkpt lat="48.2245" lon="-0.10665">
        <ele>237.537</ele>
        <time>2016-06-01T19:12:46Z</time>
      </trkpt>
      <trkpt lat="48.22668" lon="-0.10807">
        <ele>230.091</ele>
        <time>2016-06-01T19:12:26Z</time>
      </trkpt>
      <trkpt lat="48.22693" lon="-0.10817">
        <ele>229.658</ele>
        <time>2016-06-01T19:12:06Z</time>
      </trkpt>
      <trkpt lat="48.22989" lon="-0.11006">
        <ele>194.473</ele>
        <time>2016-06-01T19:11:46Z</time>
      </trkpt>
      <trkpt lat="48.23034" lon="-0.10858">
        <ele>190.637</ele>
        <time>2016-06-01T19:11:26Z</time>
      </trkpt>
      <trkpt lat="48.23179" lon="-0.10865">
        <ele>171.408</ele>
        <time>2016-06-01T19:11:06Z</time>
      </trkpt>
      <trkpt lat="48.23254" lon="-0.10912">
        <ele>165.211</ele>
        <time>2016-06-01T19:10:46Z</time>
      </trkpt>
      <trkpt lat="48.23285" lon="-0.10961">
        <ele>161.065</ele>
        <time>2016-06-01T19:10:26Z</time>
      </trkpt>
      <trkpt lat="48.23321" lon="-0.11013">
        <ele>153.115</ele>
        <time>2016-06-01T19:10:06Z</time>
      </trkpt>
      <trkpt lat="48.23352" lon="-0.11034">
        <ele>149.694</ele>
        <time>2016-06-01T19:09:46Z</time>
      </trkpt>
      <trkpt lat="48.23397" lon="-0.11075">
        <ele>149.595</ele>
        <time>2016-06-01T19:09:26Z</time>
      </trkpt>
      <trkpt lat="48.23454" lon="-0.11135">
        <ele>151.239</ele>
        <time>2016-06-01T19:09:06Z</time>
      </trkpt>
      <trkpt lat="48.2343" lon="-0.11195">
        <ele>153.047</ele>
        <time>2016-06-01T19:08:46Z</time>
      </trkpt>
      <trkpt lat="48.23468" lon="-0.11195">
        <ele>153.011</ele>
        <time>2016-06-01T19:08:26Z</time>
      </trkpt>
      <trkpt lat="48.23517" lon="-0.11232">
        <ele>156.338</ele>
        <time>2016-06-01T19:08:06Z</time>
      </trkpt>
      <trkpt lat="48.23547" lon="-0.11223">
        <ele>158.473</ele>
        <time>2016-06-01T19:07:46Z</time>
      </trkpt>
      <trkpt lat="48.23564" lon="-0.11206">
        <ele>158.977</ele>
        <time>2016-06-01T19:07:26Z</time>
      </trkpt>
      <trkpt lat="48.23593" lon="-0.11253">
        <ele>162.208</ele>
        <time>2016-06-01T19:07:06Z</time>
      </trkpt>
      <trkpt lat="48.23644" lon="-0.11315">
        <ele>168.203</ele>
        <time>2016-06-01T19:06:46Z</time>
      </trkpt>
      <trkpt lat="48.23654" lon="-0.11345">
        <ele>168.821</ele>
        <time>2016-06-01T19:06:26Z</time>
      </trkpt>
      <trkpt lat="48.23717" lon="-0.11438">
        <ele>177.911</ele>
        <time>2016-06-01T19:06:06Z</time>
      </trkpt>
      <trkpt lat="48.23765" lon="-0.11472">
        <ele>182.134</ele>
        <time>2016-06-01T19:05:46Z</time>
      </trkpt>
      <trkpt lat="48.23815" lon="-0.11493">
        <ele>186.885</ele>
        <time>2016-06-01T19:05:26Z</time>
      </trkpt>
      <trkpt lat="48.23853" lon="-0.11528">
        <ele>187.739</ele>
        <time>2016-06-01T19:05:06Z</time>
      </trkpt>
      <trkpt lat="48.2391" lon="-0.11586">
        <ele>194.477</ele>
        <time>2016-06-01T19:04:46Z</time>
      </trkpt>
      <trkpt lat="48.2397" lon="-0.11622">
        <ele>201.641</ele>
        <time>2016-06-01T19:04:26Z</time>
      </trkpt>
      <trkpt lat="48.23993" lon="-0.11592">
        <ele>204.538</ele>
        <time>2016-06-01T19:04:06Z</time>
      </trkpt>
      <trkpt lat="48.24041" lon="-0.11549">
        <ele>213.433</ele>
        <time>2016-06-01T19:03:46Z</time>
      </trkpt>
      <trkpt lat="48.24086" lon="-0.11476">
        <ele>218.427</ele>
        <time>2016-06-01T19:03:26Z</time>
      </trkpt>
      <trkpt lat="48.24124" lon="-0.11354">
        <ele>223.708</ele>
        <time>2016-06-01T19:03:06Z</time>
      </trkpt>
      <trkpt lat="48.24144" lon="-0.11292">
        <ele>221.203</ele>
        <time>2016-06-01T19:02:46Z</time>
      </trkpt>
      <trkpt lat="48.24178" lon="-0.11197">
        <ele>218.521</ele>
        <time>2016-06-01T19:02:26Z</time>
      </trkpt>
      <trkpt lat="48.24207" lon="-0.11105">
        <ele>218.811</ele>
        <time>2016-06-01T19:02:06Z</time>
      </trkpt>
      <trkpt lat="48.24224" lon="-0.11066">
        <ele>217.588</ele>
        <time>2016-06-01T19:01:46Z</time>
      </trkpt>
      <trkpt lat="48.24257" lon="-0.11032">
        <ele>217.429</ele>
        <time>2016-06-01T19:01:26Z</time>
      </trkpt>
      <trkpt lat="48.2426" lon="-0.11019">
        <ele>217.033</ele>
        <time>2016-06-01T19:01:06Z</time>
      </trkpt>
      <trkpt lat="48.2426" lon="-0.10955">
        <ele>214.821</ele>
        <time>2016-06-01T19:00:46Z</time>
      </trkpt>
      <trkpt lat="48.24268" lon="-0.10905">
        <ele>215.275</ele>
        <time>2016-06-01T19:00:26Z</time>
      </trkpt>
      <trkpt lat="48.24286" lon="-0.10867">
        <ele>214.262</ele>
        <time>2016-06-01T19:00:06Z</time>
      </trkpt>
      <trkpt lat="48.24317" lon="-0.10817">
        <ele>212.797</ele>
        <time>2016-06-01T18:59:46Z</time>
      </trkpt>
      <trkpt lat="48.2434" lon="-0.10772">
        <ele>212.061</ele>
        <time>2016-06-01T18:59:26Z</time>
      </trkpt>
      <trkpt lat="48.24359" lon="-0.10762">
        <ele>211.808</ele>
        <time>2016-06-01T18:59:06Z</time>
      </trkpt>
      <trkpt lat="48.24389" lon="-0.10802">
        <ele>212.92</ele>
        <time>2016-06-01T18:58:46Z</time>
      </trkpt>
      <trkpt lat="48.24411" lon="-0.10805">
        <ele>212.2</ele>
        <time>2016-06-01T18:58:26Z</time>
      </trkpt>
      <trkpt lat="48.24427" lon="-0.10828">
        <ele>211.257</ele>
        <time>2016-06-01T18:58:06Z</time>
      </trkpt>
      <trkpt lat="48.24444" lon="-0.10861">
        <ele>208.928</ele>
        <time>2020-12-24T05:19:15Z</time>
      </trkpt>
      <trkpt lat="48.24474" lon="-0.10898">
        <ele>206.139</ele>
        <time>2020-12-24T05:18:55Z</time>
      </trkpt>
      <trkpt lat="48.24515" lon="-0.10756">
        <ele>201.593</ele>
        <time>2020-12-24T05:18:35Z</time>
      </trkpt>
      <trkpt lat="48.24532" lon="-0.10746">
        <ele>200.781</ele>
        <time>2020-12-24T05:18:15Z</time>
      </trkpt>
      <trkpt lat="48.24557" lon="-0.10639">
        <ele>196.625</ele>
        <time>2020-12-24T05:17:55Z</time>
      </trkpt>
      <trkpt lat="48.24642" lon="-0.10671">
        <ele>197.452</ele>
        <time>2020-12-24T05:17:35Z</time>
      </trkpt>
      <trkpt lat="48.2467" lon="-0.10713">
        <ele>197.927</ele>
        <time>2020-12-24T05:17:15Z</time>
      </trkpt>
      <trkpt lat="48.24665" lon="-0.10802">
        <ele>200.351</ele>
        <time>2020-12-24T05:16:55Z</time>
      </trkpt>
      <trkpt lat="48.24641" lon="-0.10832">
        <ele>201.308</ele>
        <time>2020-12-24T05:16:35Z</time>
      </trkpt>
      <trkpt lat="48.24613" lon="-0.10935">
        <ele>202.617</ele>
        <time>2020-12-24T05:16:15Z</time>
      </trkpt>
      <trkpt lat="48.24558" lon="-0.11167">
        <ele>201.607</ele>
        <time>2020-12-24T05:15:55Z</time>
      </trkpt>
      <trkpt lat="48.24575" lon="-0.11307">
        <ele>195.655</ele>
        <time>2020-12-24T05:15:35Z</time>
      </trkpt>
      <trkpt lat="48.24752" lon="-0.11312">
        <ele>189.32</ele>
        <time>2020-12-24T05:15:15Z</time>
      </trkpt>
      <trkpt lat="48.24883" lon="-0.11305">
        <ele>190.071</ele>
        <time>2020-12-24T05:14:55Z</time>
      </trkpt>
      <trkpt lat="48.25036" lon="-0.1128">
        <ele>186.365</ele>
        <time>2020-12-24T05:14:35Z</time>
      </trkpt>
      <trkpt lat="48.25065" lon="-0.11221">
        <ele>184.013</ele>
        <time>2016-06-01T23:10:35Z</time>
      </trkpt>
      <trkpt lat="48.25132" lon="-0.11277">
        <ele>183.017</ele>
        <time>2016-06-01T23:10:15Z</time>
      </trkpt>
      <trkpt lat="48.25198" lon="-0.11386">
        <ele>178.734</ele>
        <time>2016-06-01T23:09:55Z</time>
      </trkpt>
      <trkpt lat="48.25233" lon="-0.11384">
        <ele>176.149</ele>
        <time>2016-06-01T23:09:35Z</time>
      </trkpt>
      <trkpt lat="48.25259" lon="-0.11399">
        <ele>174.153</ele>
        <time>2016-06-01T23:09:15Z</time>
      </trkpt>
      <trkpt lat="48.25358" lon="-0.1147">
        <ele>166.008</ele>
        <time>2016-06-01T23:08:55Z</time>
      </trkpt>
      <trkpt lat="48.254" lon="-0.11464">
        <ele>164.619</ele>
        <time>2016-06-01T23:08:35Z</time>
      </trkpt>
      <trkpt lat="48.2543" lon="-0.11472">
        <ele>163.09</ele>
        <time>2016-06-01T23:08:15Z</time>
      </trkpt>
      <trkpt lat="48.25476" lon="-0.11483">
        <ele>162.876</ele>
        <time>2016-06-01T23:07:55Z</time>
      </trkpt>
      <trkpt lat="48.25509" lon="-0.11498">
        <ele>162.185</ele>
        <time>2016-06-01T23:07:35Z</time>
      </trkpt>
      <trkpt lat="48.2561" lon="-0.11588">
        <ele>157.796</ele>
        <time>2016-06-01T23:07:15Z</time>
      </trkpt>
      <trkpt lat="48.25775" lon="-0.11783">
        <ele>141.77</ele>
        <time>2016-06-01T23:06:55Z</time>
      </trkpt>
      <trkpt lat="48.25819" lon="-0.11807">
        <ele>133.098</ele>
        <time>2016-06-01T23:06:35Z</time>
      </trkpt>
      <trkpt lat="48.25848" lon="-0.11775">
        <ele>127.842</ele>
        <time>2016-06-01T23:06:15Z</time>
      </trkpt>
      <trkpt lat="48.25852" lon="-0.11736">
        <ele>126.389</ele>
        <time>2016-06-01T23:05:55Z</time>
      </trkpt>
      <trkpt lat="48.25902" lon="-0.11652">
        <ele>118.414</ele>
        <time>2016-06-01T23:05:35Z</time>
      </trkpt>
      <trkpt lat="48.25925" lon="-0.11646">
        <ele>112.758</ele>
        <time>2016-06-01T23:05:15Z</time>
      </trkpt>
      <trkpt lat="48.2594" lon="-0.11687">
        <ele>110.408</ele>
        <time>2016-06-01T23:04:55Z</time>
      </trkpt>
      <trkpt lat="48.25985" lon="-0.11708">
        <ele>112.808</ele>
        <time>2016-06-01T23:04:35Z</time>
      </trkpt>
      <trkpt lat="48.25978" lon="-0.11755">
        <ele>112.362</ele>
        <time>2016-06-01T23:04:15Z</time>
      </trkpt>
      <trkpt lat="48.25992" lon="-0.11841">
        <ele>117.622</ele>
        <time>2016-06-01T23:03:55Z</time>
      </trkpt>
      <trkpt lat="48.26005" lon="-0.11931">
        <ele>119.881</ele>
        <time>2016-06-01T23:03:35Z</time>
      </trkpt>
      <trkpt lat="48.25996" lon="-0.12004">
        <ele>121.022</ele>
        <time>2016-06-01T23:03:15Z</time>
      </trkpt>
      <trkpt lat="48.26" lon="-0.12116">
        <ele>119.166</ele>
        <time>2016-06-01T23:02:55Z</time>
      </trkpt>
      <trkpt lat="48.26015" lon="-0.1215">
        <ele>120.884</ele>
        <time>2016-06-01T23:02:35Z</time>
      </trkpt>
      <trkpt lat="48.26055" lon="-0.1217">
        <ele>123.998</ele>
        <time>2016-06-01T23:02:15Z</time>
      </trkpt>
      <trkpt lat="48.26108" lon="-0.1221">
        <ele>128.185</ele>
        <time>2016-06-01T23:01:55Z</time>
      </trkpt>
      <trkpt lat="48.26183" lon="-0.1227">
        <ele>139.18</ele>
        <time>2016-06-01T23:01:35Z</time>
      </trkpt>
      <trkpt lat="48.26216" lon="-0.12281">
        <ele>141.674</ele>
        <time>2016-06-01T23:01:15Z</time>
      </trkpt>
      <trkpt lat="48.26259" lon="-0.12266">
        <ele>145.008</ele>
        <time>2016-06-01T23:00:55Z</time>
      </trkpt>
      <trkpt lat="48.26336" lon="-0.12277">
        <ele>150.226</ele>
        <time>2016-06-01T23:00:35Z</time>
      </trkpt>
      <trkpt lat="48.26389" lon="-0.12322">
        <ele>150.842</ele>
        <time>2016-06-01T23:00:15Z</time>
      </trkpt>
      <trkpt lat="48.26436" lon="-0.12339">
        <ele>147.887</ele>
        <time>2016-06-01T22:59:55Z</time>
      </trkpt>
      <trkpt lat="48.26533" lon="-0.12279">
        <ele>148.77</ele>
        <time>2016-06-01T22:59:35Z</time>
      </trkpt>
      <trkpt lat="48.26553" lon="-0.12247">
        <ele>150.741</ele>
        <time>2016-06-01T22:59:15Z</time>
      </trkpt>
      <trkpt lat="48.26673" lon="-0.12009">
        <ele>155.565</ele>
        <time>2016-06-01T22:58:55Z</time>
      </trkpt>
      <trkpt lat="48.26887" lon="-0.11395">
        <ele>147.923</ele>
        <time>2016-06-01T22:58:35Z</time>
      </trkpt>
      <trkpt lat="48.26892" lon="-0.11403">
        <ele>148.177</ele>
        <time>2016-06-01T22:58:15Z</time>
      </trkpt>
      <trkpt lat="48.26903" lon="-0.11592">
        <ele>149.524</ele>
        <time>2016-06-01T22:57:55Z</time>
      </trkpt>
      <trkpt lat="48.2693" lon="-0.11631">
        <ele>153.879</ele>
        <time>2016-06-01T22:57:35Z</time>
      </trkpt>
      <trkpt lat="48.26955" lon="-0.11648">
        <ele>154.873</ele>
        <time>2016-06-01T22:57:15Z</time>
      </trkpt>
      <trkpt lat="48.27015" lon="-0.11633">
        <ele>158.008</ele>
        <time>2016-06-01T22:56:55Z</time>
      </trkpt>
      <trkpt lat="48.27235" lon="-0.11577">
        <ele>176.413</ele>
        <time>2016-06-01T22:56:35Z</time>
      </trkpt>
      <trkpt lat="48.2725" lon="-0.11556">
        <ele>177.085</ele>
        <time>2016-06-01T22:56:15Z</time>
      </trkpt>
      <trkpt lat="48.2726" lon="-0.11474">
        <ele>177.473</ele>
        <time>2016-06-01T22:55:55Z</time>
      </trkpt>
      <trkpt lat="48.27289" lon="-0.1135">
        <ele>175.042</ele>
        <time>2016-06-01T22:55:35Z</time>
      </trkpt>
      <trkpt lat="48.27309" lon="-0.11341">
        <ele>175.063</ele>
        <time>2016-06-01T22:55:15Z</time>
      </trkpt>
      <trkpt lat="48.27373" lon="-0.1135">
        <ele>176.277</ele>
        <time>2016-06-01T22:54:55Z</time>
      </trkpt>
      <trkpt lat="48.27404" lon="-0.11346">
        <ele>174.685</ele>
        <time>2016-06-01T22:54:35Z</time>
      </trkpt>
      <trkpt lat="48.27552" lon="-0.11266">
        <ele>170.749</ele>
        <time>2016-06-01T22:54:15Z</time>
      </trkpt>
      <trkpt lat="48.27576" lon="-0.1126">
        <ele>169.986</ele>
        <time>2016-06-01T22:53:55Z</time>
      </trkpt>
      <trkpt lat="48.27684" lon="-0.11208">
        <ele>168.081</ele>
        <time>2016-06-01T22:53:35Z</time>
      </trkpt>
      <trkpt lat="48.27694" lon="-0.11182">
        <ele>168.495</ele>
        <time>2016-06-01T22:53:15Z</time>
      </trkpt>
      <trkpt lat="48.27703" lon="-0.11131">
        <ele>169.208</ele>
        <time>2016-06-01T22:52:55Z</time>
      </trkpt>
      <trkpt lat="48.2769" lon="-0.11122">
        <ele>169.726</ele>
        <time>2016-06-01T22:52:35Z</time>
      </trkpt>
      <trkpt lat="48.27724" lon="-0.10979">
        <ele>169.815</ele>
        <time>2016-06-01T22:52:15Z</time>
      </trkpt>
      <trkpt lat="48.27827" lon="-0.1068">
        <ele>168.698</ele>
        <time>2016-06-01T22:51:55Z</time>
      </trkpt>
      <trkpt lat="48.2785" lon="-0.10648">
        <ele>167.671</ele>
        <time>2016-06-01T22:51:35Z</time>
      </trkpt>
      <trkpt lat="48.27864" lon="-0.10652">
        <ele>167.332</ele>
        <time>2016-06-01T22:51:15Z</time>
      </trkpt>
      <trkpt lat="48.27904" lon="-0.10745">
        <ele>167.136</ele>
        <time>2016-06-01T22:50:55Z</time>
      </trkpt>
      <trkpt lat="48.27919" lon="-0.10762">
        <ele>167.354</ele>
        <time>2016-06-01T22:50:35Z</time>
      </trkpt>
      <trkpt lat="48.2796" lon="-0.10803">
        <ele>165.838</ele>
        <time>2016-06-01T22:50:15Z</time>
      </trkpt>
      <trkpt lat="48.28086" lon="-0.10916">
        <ele>164.095</ele>
        <time>2016-06-01T22:49:55Z</time>
      </trkpt>
      <trkpt lat="48.28137" lon="-0.11">
        <ele>163.11</ele>
        <time>2016-06-01T22:49:35Z</time>
      </trkpt>
      <trkpt lat="48.28228" lon="-0.11341">
        <ele>141.894</ele>
        <time>2016-06-01T22:49:15Z</time>
      </trkpt>
      <trkpt lat="48.28268" lon="-0.11341">
        <ele>138.608</ele>
        <time>2016-06-01T22:48:55Z</time>
      </trkpt>
      <trkpt lat="48.28364" lon="-0.11339">
        <ele>137.017</ele>
        <time>2016-06-01T22:48:35Z</time>
      </trkpt>
      <trkpt lat="48.28513" lon="-0.11419">
        <ele>136.007</ele>
        <time>2016-06-01T22:48:15Z</time>
      </trkpt>
      <trkpt lat="48.28735" lon="-0.11386">
        <ele>130.184</ele>
        <time>2016-06-01T22:47:55Z</time>
      </trkpt>
      <trkpt lat="48.288" lon="-0.11399">
        <ele>122.919</ele>
        <time>2016-06-01T22:47:35Z</time>
      </trkpt>
      <trkpt lat="48.28901" lon="-0.11352">
        <ele>106.67</ele>
        <time>2016-06-01T22:47:15Z</time>
      </trkpt>
      <trkpt lat="48.28932" lon="-0.11361">
        <ele>101.844</ele>
        <time>2016-06-01T22:46:55Z</time>
      </trkpt>
      <trkpt lat="48.28955" lon="-0.11313">
        <ele>99.412</ele>
        <time>2016-06-01T22:46:35Z</time>
      </trkpt>
      <trkpt lat="48.28998" lon="-0.11268">
        <ele>99.376</ele>
        <time>2016-06-01T22:46:15Z</time>
      </trkpt>
      <trkpt lat="48.29049" lon="-0.11223">
        <ele>106.923</ele>
        <time>2016-06-01T22:45:55Z</time>
      </trkpt>
      <trkpt lat="48.29038" lon="-0.11131">
        <ele>104.258</ele>
        <time>2016-06-01T22:45:35Z</time>
      </trkpt>
      <trkpt lat="48.29032" lon="-0.11007">
        <ele>105.562</ele>
        <time>2016-06-01T22:45:15Z</time>
      </trkpt>
      <trkpt lat="48.28999" lon="-0.1091">
        <ele>104.108</ele>
        <time>2016-06-01T22:44:55Z</time>
      </trkpt>
      <trkpt lat="48.29001" lon="-0.10816">
        <ele>102.514</ele>
        <time>2016-06-01T22:44:35Z</time>
      </trkpt>
      <trkpt lat="48.29009" lon="-0.1073">
        <ele>103.468</ele>
        <time>2016-06-01T22:44:15Z</time>
      </trkpt>
      <trkpt lat="48.29047" lon="-0.10652">
        <ele>103.065</ele>
        <time>2016-06-01T22:43:55Z</time>
      </trkpt>
      <trkpt lat="48.29094" lon="-0.10595">
        <ele>106.019</ele>
        <time>2016-06-01T22:43:35Z</time>
      </trkpt>
      <trkpt lat="48.29117" lon="-0.10526">
        <ele>103.94</ele>
        <time>2016-06-01T22:43:15Z</time>
      </trkpt>
      <trkpt lat="48.29145" lon="-0.10483">
        <ele>104.844</ele>
        <time>2016-06-01T22:42:55Z</time>
      </trkpt>
      <trkpt lat="48.29162" lon="-0.1041">
        <ele>104.142</ele>
        <time>2016-06-01T22:42:35Z</time>
      </trkpt>
      <trkpt lat="48.29209" lon="-0.10328">
        <ele>105.096</ele>
        <time>2016-06-01T22:42:15Z</time>
      </trkpt>
      <trkpt lat="48.29226" lon="-0.10296">
        <ele>107.833</ele>
        <time>2016-06-01T22:41:55Z</time>
      </trkpt>
      <trkpt lat="48.29236" lon="-0.10204">
        <ele>107.188</ele>
        <time>2016-06-01T22:41:35Z</time>
      </trkpt>
      <trkpt lat="48.29236" lon="-0.10114">
        <ele>102.342</ele>
        <time>2016-06-01T22:41:15Z</time>
      </trkpt>
      <trkpt lat="48.29276" lon="-0.10047">
        <ele>102.908</ele>
        <time>2016-06-01T22:40:55Z</time>
      </trkpt>
      <trkpt lat="48.29321" lon="-0.09985">
        <ele>104.111</ele>
        <time>2016-06-01T22:40:35Z</time>
      </trkpt>
      <trkpt lat="48.29348" lon="-0.09972">
        <ele>105.683</ele>
        <time>2016-06-01T22:40:15Z</time>
      </trkpt>
      <trkpt lat="48.29448" lon="-0.09749">
        <ele>104.762</ele>
        <time>2016-06-01T22:39:55Z</time>
      </trkpt>
      <trkpt lat="48.29478" lon="-0.09771">
        <ele>115.044</ele>
        <time>2016-06-01T22:39:35Z</time>
      </trkpt>
      <trkpt lat="48.29495" lon="-0.09777">
        <ele>119.015</ele>
        <time>2016-06-01T22:39:15Z</time>
      </trkpt>
      <trkpt lat="48.29509" lon="-0.09771">
        <ele>120.169</ele>
        <time>2016-06-01T22:38:55Z</time>
      </trkpt>
      <trkpt lat="48.29749" lon="-0.09985">
        <ele>138.467</ele>
        <time>2016-06-01T22:38:35Z</time>
      </trkpt>
      <trkpt lat="48.29753" lon="-0.1005">
        <ele>141.031</ele>
        <time>2016-06-01T22:38:15Z</time>
      </trkpt>
      <trkpt lat="48.2975" lon="-0.10101">
        <ele>143.778</ele>
        <time>2016-06-01T22:37:55Z</time>
      </trkpt>
      <trkpt lat="48.29762" lon="-0.10114">
        <ele>144.563</ele>
        <time>2016-06-01T22:37:35Z</time>
      </trkpt>
      <trkpt lat="48.29792" lon="-0.10283">
        <ele>148.677</ele>
        <time>2016-06-01T22:37:15Z</time>
      </trkpt>
      <trkpt lat="48.29809" lon="-0.10453">
        <ele>152.508</ele>
        <time>2016-06-01T22:36:55Z</time>
      </trkpt>
      <trkpt lat="48.29738" lon="-0.1059">
        <ele>149.311</ele>
        <time>2016-06-01T22:36:35Z</time>
      </trkpt>
      <trkpt lat="48.29716" lon="-0.10601">
        <ele>147.865</ele>
        <time>2016-06-01T22:36:15Z</time>
      </trkpt>
      <trkpt lat="48.29678" lon="-0.10648">
        <ele>145.415</ele>
        <time>2016-06-01T22:35:55Z</time>
      </trkpt>
      <trkpt lat="48.29832" lon="-0.1106">
        <ele>142.958</ele>
        <time>2016-06-01T22:35:35Z</time>
      </trkpt>
      <trkpt lat="48.29839" lon="-0.11131">
        <ele>144.289</ele>
        <time>2016-06-01T22:35:15Z</time>
      </trkpt>
      <trkpt lat="48.29863" lon="-0.11384">
        <ele>147.263</ele>
        <time>2016-06-01T22:34:55Z</time>
      </trkpt>
      <trkpt lat="48.29853" lon="-0.1147">
        <ele>147.371</ele>
        <time>2016-06-01T22:34:35Z</time>
      </trkpt>
      <trkpt lat="48.29937" lon="-0.11504">
        <ele>146.625</ele>
        <time>2016-06-01T22:34:15Z</time>
      </trkpt>
      <trkpt lat="48.30034" lon="-0.11586">
        <ele>138.662</ele>
        <time>2016-06-01T22:33:55Z</time>
      </trkpt>
      <trkpt lat="48.30063" lon="-0.11655">
        <ele>136.987</ele>
        <time>2016-06-01T22:33:35Z</time>
      </trkpt>
      <trkpt lat="48.3012" lon="-0.11558">
        <ele>138.161</ele>
        <time>2016-06-01T22:33:15Z</time>
      </trkpt>
      <trkpt lat="48.30122" lon="-0.11567">
        <ele>138.208</ele>
        <time>2016-06-01T22:32:55Z</time>
      </trkpt>
      <trkpt lat="48.30179" lon="-0.1165">
        <ele>139.408</ele>
        <time>2016-06-01T22:32:35Z</time>
      </trkpt>
      <trkpt lat="48.30233" lon="-0.11567">
        <ele>140.453</ele>
        <time>2016-06-01T22:32:15Z</time>
      </trkpt>
      <trkpt lat="48.30266" lon="-0.11464">
        <ele>141.752</ele>
        <time>2016-06-01T22:31:55Z</time>
      </trkpt>
      <trkpt lat="48.30287" lon="-0.11414">
        <ele>143.095</ele>
        <time>2016-06-01T22:31:35Z</time>
      </trkpt>
      <trkpt lat="48.30326" lon="-0.1138">
        <ele>141.556</ele>
        <time>2016-06-01T22:31:15Z</time>
      </trkpt>
      <trkpt lat="48.30343" lon="-0.11421">
        <ele>142.03</ele>
        <time>2016-06-01T22:30:55Z</time>
      </trkpt>
      <trkpt lat="48.30387" lon="-0.11348">
        <ele>140.548</ele>
        <time>2016-06-01T22:30:35Z</time>
      </trkpt>
      <trkpt lat="48.30378" lon="-0.11258">
        <ele>139.442</ele>
        <time>2016-06-01T22:30:15Z</time>
      </trkpt>
      <trkpt lat="48.30386" lon="-0.11238">
        <ele>138.779</ele>
        <time>2016-06-01T22:29:55Z</time>
      </trkpt>
      <trkpt lat="48.30871" lon="-0.11337">
        <ele>123.114</ele>
        <time>2016-06-01T22:29:35Z</time>
      </trkpt>
      <trkpt lat="48.30878" lon="-0.11258">
        <ele>123.318</ele>
        <time>2016-06-01T22:29:15Z</time>
      </trkpt>
      <trkpt lat="48.30909" lon="-0.11167">
        <ele>121.508</ele>
        <time>2016-06-01T22:28:55Z</time>
      </trkpt>
      <trkpt lat="48.30929" lon="-0.11152">
        <ele>121.105</ele>
        <time>2016-06-01T22:28:35Z</time>
      </trkpt>
      <trkpt lat="48.30945" lon="-0.11097">
        <ele>121.041</ele>
        <time>2016-06-01T22:28:15Z</time>
      </trkpt>
      <trkpt lat="48.30952" lon="-0.1109">
        <ele>120.421</ele>
        <time>2016-06-01T22:27:55Z</time>
      </trkpt>
      <trkpt lat="48.31074" lon="-0.11223">
        <ele>121.687</ele>
        <time>2016-06-01T22:27:35Z</time>
      </trkpt>
      <trkpt lat="48.31146" lon="-0.11206">
        <ele>121.328</ele>
        <time>2016-06-01T22:27:15Z</time>
      </trkpt>
      <trkpt lat="48.31135" lon="-0.11152">
        <ele>120.382</ele>
        <time>2016-06-01T22:26:55Z</time>
      </trkpt>
      <trkpt lat="48.31166" lon="-0.11142">
        <ele>121.03</ele>
        <time>2016-06-01T22:26:35Z</time>
      </trkpt>
      <trkpt lat="48.31245" lon="-0.11084">
        <ele>118.214</ele>
        <time>2016-06-01T22:26:15Z</time>
      </trkpt>
      <trkpt lat="48.31298" lon="-0.11071">
        <ele>117.031</ele>
        <time>2016-06-01T22:25:55Z</time>
      </trkpt>
      <trkpt lat="48.31319" lon="-0.11026">
        <ele>117.036</ele>
        <time>2016-06-01T22:25:35Z</time>
      </trkpt>
      <trkpt lat="48.3139" lon="-0.10974">
        <ele>112.01</ele>
        <time>2016-06-01T22:25:15Z</time>
      </trkpt>
      <trkpt lat="48.3141" lon="-0.10927">
        <ele>111.108</ele>
        <time>2016-06-01T22:24:55Z</time>
      </trkpt>
      <trkpt lat="48.31443" lon="-0.10891">
        <ele>111.022</ele>
        <time>2016-06-01T22:24:35Z</time>
      </trkpt>
      <trkpt lat="48.31456" lon="-0.10861">
        <ele>111.602</ele>
        <time>2016-06-01T22:24:15Z</time>
      </trkpt>
      <trkpt lat="48.31496" lon="-0.10867">
        <ele>110.549</ele>
        <time>2016-06-01T22:23:55Z</time>
      </trkpt>
      <trkpt lat="48.31776" lon="-0.10809">
        <ele>109.126</ele>
        <time>2016-06-01T22:23:35Z</time>
      </trkpt>
      <trkpt lat="48.31818" lon="-0.10762">
        <ele>106.047</ele>
        <time>2016-06-01T22:23:15Z</time>
      </trkpt>
      <trkpt lat="48.31867" lon="-0.10723">
        <ele>101.061</ele>
        <time>2016-06-01T22:22:55Z</time>
      </trkpt>
      <trkpt lat="48.31968" lon="-0.10713">
        <ele>100.129</ele>
        <time>2016-06-01T22:22:35Z</time>
      </trkpt>
      <trkpt lat="48.31991" lon="-0.10736">
        <ele>99.773</ele>
        <time>2016-06-01T22:22:15Z</time>
      </trkpt>
      <trkpt lat="48.3202" lon="-0.1071">
        <ele>103.77</ele>
        <time>2016-06-01T22:21:55Z</time>
      </trkpt>
      <trkpt lat="48.32071" lon="-0.10749">
        <ele>110.445</ele>
        <time>2016-06-01T22:21:35Z</time>
      </trkpt>
      <trkpt lat="48.32101" lon="-0.10743">
        <ele>114.759</ele>
        <time>2016-06-01T22:21:15Z</time>
      </trkpt>
      <trkpt lat="48.32088" lon="-0.10691">
        <ele>112.208</ele>
        <time>2016-06-01T22:20:55Z</time>
      </trkpt>
      <trkpt lat="48.32172" lon="-0.10706">
        <ele>116.421</ele>
        <time>2016-06-01T22:20:35Z</time>
      </trkpt>
      <trkpt lat="48.32174" lon="-0.1062">
        <ele>111.201</ele>
        <time>2016-06-01T22:20:15Z</time>
      </trkpt>
      <trkpt lat="48.32188" lon="-0.10571">
        <ele>110.739</ele>
        <time>2016-06-01T22:19:55Z</time>
      </trkpt>
      <trkpt lat="48.32217" lon="-0.10564">
        <ele>111.396</ele>
        <time>2016-06-01T22:19:35Z</time>
      </trkpt>
      <trkpt lat="48.32288" lon="-0.10526">
        <ele>117.767</ele>
        <time>2016-06-01T22:19:15Z</time>
      </trkpt>
      <trkpt lat="48.32388" lon="-0.10522">
        <ele>125.231</ele>
        <time>2016-06-01T22:18:55Z</time>
      </trkpt>
      <trkpt lat="48.32471" lon="-0.10532">
        <ele>130.969</ele>
        <time>2016-06-01T22:18:35Z</time>
      </trkpt>
      <trkpt lat="48.32538" lon="-0.1053">
        <ele>135.833</ele>
        <time>2016-06-01T22:18:15Z</time>
      </trkpt>
      <trkpt lat="48.32536" lon="-0.10537">
        <ele>135.81</ele>
        <time>2016-06-01T22:17:55Z</time>
      </trkpt>
      <trkpt lat="48.32525" lon="-0.10655">
        <ele>131.915</ele>
        <time>2016-06-01T22:17:35Z</time>
      </trkpt>
      <trkpt lat="48.32486" lon="-0.10773">
        <ele>125.659</ele>
        <time>2016-06-01T22:17:15Z</time>
      </trkpt>
      <trkpt lat="48.32538" lon="-0.10792">
        <ele>127.908</ele>
        <time>2016-06-01T22:16:55Z</time>
      </trkpt>
      <trkpt lat="48.32573" lon="-0.10788">
        <ele>131.421</ele>
        <time>2016-06-01T22:16:35Z</time>
      </trkpt>
      <trkpt lat="48.32655" lon="-0.1077">
        <ele>137.701</ele>
        <time>2016-06-01T22:16:15Z</time>
      </trkpt>
      <trkpt lat="48.32764" lon="-0.10723">
        <ele>142.039</ele>
        <time>2016-06-01T22:15:55Z</time>
      </trkpt>
      <trkpt lat="48.32814" lon="-0.10667">
        <ele>145.731</ele>
        <time>2016-06-01T22:15:35Z</time>
      </trkpt>
      <trkpt lat="48.32844" lon="-0.10661">
        <ele>145.752</ele>
        <time>2016-06-01T22:15:15Z</time>
      </trkpt>
      <trkpt lat="48.32904" lon="-0.10633">
        <ele>151.326</ele>
        <time>2016-06-01T22:14:55Z</time>
      </trkpt>
      <trkpt lat="48.32936" lon="-0.10633">
        <ele>153.444</ele>
        <time>2016-06-01T22:14:35Z</time>
      </trkpt>
      <trkpt lat="48.32997" lon="-0.10648">
        <ele>158.028</ele>
        <time>2016-06-01T22:14:15Z</time>
      </trkpt>
      <trkpt lat="48.3309" lon="-0.10663">
        <ele>171.645</ele>
        <time>2016-06-01T22:13:55Z</time>
      </trkpt>
      <trkpt lat="48.33128" lon="-0.10687">
        <ele>176.07</ele>
        <time>2016-06-01T22:13:35Z</time>
      </trkpt>
      <trkpt lat="48.33144" lon="-0.10706">
        <ele>177.654</ele>
        <time>2016-06-01T22:13:15Z</time>
      </trkpt>
      <trkpt lat="48.33281" lon="-0.10655">
        <ele>188.508</ele>
        <time>2016-06-01T22:12:55Z</time>
      </trkpt>
      <trkpt lat="48.33366" lon="-0.10691">
        <ele>188.217</ele>
        <time>2016-06-01T22:12:35Z</time>
      </trkpt>
      <trkpt lat="48.33392" lon="-0.10736">
        <ele>191.207</ele>
        <time>2016-06-01T22:12:15Z</time>
      </trkpt>
      <trkpt lat="48.33432" lon="-0.10858">
        <ele>195.284</ele>
        <time>2016-06-01T22:11:55Z</time>
      </trkpt>
      <trkpt lat="48.33465" lon="-0.11019">
        <ele>201.092</ele>
        <time>2016-06-01T22:11:35Z</time>
      </trkpt>
      <trkpt lat="48.33488" lon="-0.11028">
        <ele>199.393</ele>
        <time>2016-06-01T22:11:15Z</time>
      </trkpt>
      <trkpt lat="48.33523" lon="-0.11071">
        <ele>201.277</ele>
        <time>2016-06-01T22:10:55Z</time>
      </trkpt>
      <trkpt lat="48.33546" lon="-0.11086">
        <ele>201.535</ele>
        <time>2016-06-01T22:10:35Z</time>
      </trkpt>
      <trkpt lat="48.33576" lon="-0.11077">
        <ele>201.539</ele>
        <time>2016-06-01T22:10:15Z</time>
      </trkpt>
      <trkpt lat="48.33612" lon="-0.1106">
        <ele>203.236</ele>
        <time>2016-06-01T22:09:55Z</time>
      </trkpt>
      <trkpt lat="48.33603" lon="-0.11007">
        <ele>202.551</ele>
        <time>2016-06-01T22:09:35Z</time>
      </trkpt>
      <trkpt lat="48.33585" lon="-0.10665">
        <ele>195.045</ele>
        <time>2016-06-01T22:09:15Z</time>
      </trkpt>
      <trkpt lat="48.33679" lon="-0.10667">
        <ele>198.908</ele>
        <time>2016-06-01T22:08:55Z</time>
      </trkpt>
      <trkpt lat="48.33722" lon="-0.107">
        <ele>202.126</ele>
        <time>2016-06-01T22:08:35Z</time>
      </trkpt>
      <trkpt lat="48.33789" lon="-0.1074">
        <ele>209.415</ele>
        <time>2016-06-01T22:08:15Z</time>
      </trkpt>
      <trkpt lat="48.33881" lon="-0.10764">
        <ele>217.698</ele>
        <time>2016-06-01T22:07:55Z</time>
      </trkpt>
      <trkpt lat="48.33973" lon="-0.10775">
        <ele>221.258</ele>
        <time>2016-06-01T22:07:35Z</time>
      </trkpt>
      <trkpt lat="48.34082" lon="-0.10762">
        <ele>227.139</ele>
        <time>2016-06-01T22:07:15Z</time>
      </trkpt>
      <trkpt lat="48.34152" lon="-0.10775">
        <ele>225.113</ele>
        <time>2016-06-01T22:06:55Z</time>
      </trkpt>
      <trkpt lat="48.34162" lon="-0.10755">
        <ele>225.151</ele>
        <time>2016-06-01T22:06:35Z</time>
      </trkpt>
      <trkpt lat="48.34199" lon="-0.1067">
        <ele>225.255</ele>
        <time>2016-06-01T22:06:15Z</time>
      </trkpt>
      <trkpt lat="48.34256" lon="-0.10601">
        <ele>227.932</ele>
        <time>2016-06-01T22:05:55Z</time>
      </trkpt>
      <trkpt lat="48.34311" lon="-0.10573">
        <ele>227.557</ele>
        <time>2016-06-01T22:05:35Z</time>
      </trkpt>
      <trkpt lat="48.34381" lon="-0.10543">
        <ele>225.191</ele>
        <time>2016-06-01T22:05:15Z</time>
      </trkpt>
      <trkpt lat="48.345" lon="-0.10504">
        <ele>220.008</ele>
        <time>2016-06-01T22:04:55Z</time>
      </trkpt>
      <trkpt lat="48.34381" lon="-0.10245">
        <ele>213.817</ele>
        <time>2016-06-01T22:04:35Z</time>
      </trkpt>
      <trkpt lat="48.34606" lon="-0.10067">
        <ele>209.152</ele>
        <time>2016-06-01T22:04:15Z</time>
      </trkpt>
      <trkpt lat="48.34647" lon="-0.09994">
        <ele>205.558</ele>
        <time>2016-06-01T22:03:55Z</time>
      </trkpt>
      <trkpt lat="48.34697" lon="-0.09944">
        <ele>199.914</ele>
        <time>2016-06-01T22:03:35Z</time>
      </trkpt>
      <trkpt lat="48.34743" lon="-0.09927">
        <ele>193.795</ele>
        <time>2016-06-01T22:03:15Z</time>
      </trkpt>
      <trkpt lat="48.34794" lon="-0.09936">
        <ele>188.389</ele>
        <time>2016-06-01T22:02:55Z</time>
      </trkpt>
      <trkpt lat="48.34843" lon="-0.09929">
        <ele>180.397</ele>
        <time>2016-06-01T22:02:35Z</time>
      </trkpt>
      <trkpt lat="48.34884" lon="-0.09947">
        <ele>174.221</ele>
        <time>2016-06-01T22:02:15Z</time>
      </trkpt>
      <trkpt lat="48.3492" lon="-0.09927">
        <ele>166.478</ele>
        <time>2016-06-01T22:01:55Z</time>
      </trkpt>
      <trkpt lat="48.34961" lon="-0.09912">
        <ele>163.023</ele>
        <time>2016-06-01T22:01:35Z</time>
      </trkpt>
      <trkpt lat="48.34994" lon="-0.09921">
        <ele>163.347</ele>
        <time>2016-06-01T22:01:15Z</time>
      </trkpt>
      <trkpt lat="48.35019" lon="-0.09908">
        <ele>166.408</ele>
        <time>2016-06-01T22:00:55Z</time>
      </trkpt>
      <trkpt lat="48.35032" lon="-0.09886">
        <ele>169.317</ele>
        <time>2016-06-01T22:00:35Z</time>
      </trkpt>
      <trkpt lat="48.35054" lon="-0.09897">
        <ele>175.498</ele>
        <time>2016-06-01T22:00:15Z</time>
      </trkpt>
      <trkpt lat="48.35098" lon="-0.1">
        <ele>187.618</ele>
        <time>2016-06-01T21:59:55Z</time>
      </trkpt>
      <trkpt lat="48.35129" lon="-0.10133">
        <ele>196.714</ele>
        <time>2016-06-01T21:59:35Z</time>
      </trkpt>
      <trkpt lat="48.35145" lon="-0.10163">
        <ele>202.545</ele>
        <time>2016-06-01T21:59:15Z</time>
      </trkpt>
      <trkpt lat="48.35198" lon="-0.10204">
        <ele>208.889</ele>
        <time>2016-06-01T21:58:55Z</time>
      </trkpt>
      <trkpt lat="48.35242" lon="-0.1003">
        <ele>209.927</ele>
        <time>2016-06-01T21:58:35Z</time>
      </trkpt>
      <trkpt lat="48.35282" lon="-0.09904">
        <ele>207.881</ele>
        <time>2016-06-01T21:58:15Z</time>
      </trkpt>
      <trkpt lat="48.35298" lon="-0.09841">
        <ele>206.758</ele>
        <time>2016-06-01T21:57:55Z</time>
      </trkpt>
      <trkpt lat="48.35289" lon="-0.09764">
        <ele>212.313</ele>
        <time>2016-06-01T21:57:35Z</time>
      </trkpt>
      <trkpt lat="48.35266" lon="-0.09599">
        <ele>203.997</ele>
        <time>2016-06-01T21:57:15Z</time>
      </trkpt>
      <trkpt lat="48.3527" lon="-0.09517">
        <ele>202.708</ele>
        <time>2016-06-01T21:56:55Z</time>
      </trkpt>
      <trkpt lat="48.35288" lon="-0.09359">
        <ele>196.517</ele>
        <time>2016-06-01T21:56:35Z</time>
      </trkpt>
      <trkpt lat="48.35258" lon="-0.09307">
        <ele>192.498</ele>
        <time>2016-06-01T21:56:15Z</time>
      </trkpt>
      <trkpt lat="48.35243" lon="-0.09243">
        <ele>187.118</ele>
        <time>2016-06-01T21:55:55Z</time>
      </trkpt>
      <trkpt lat="48.35165" lon="-0.09191">
        <ele>179.556</ele>
        <time>2016-06-01T21:55:35Z</time>
      </trkpt>
      <trkpt lat="48.35158" lon="-0.09135">
        <ele>178.577</ele>
        <time>2016-06-01T21:55:15Z</time>
      </trkpt>
      <trkpt lat="48.35159" lon="-0.09043">
        <ele>181.031</ele>
        <time>2016-06-01T21:54:55Z</time>
      </trkpt>
      <trkpt lat="48.35114" lon="-0.08814">
        <ele>172.659</ele>
        <time>2016-06-01T21:54:35Z</time>
      </trkpt>
      <trkpt lat="48.35085" lon="-0.08721">
        <ele>178.343</ele>
        <time>2016-06-01T21:54:15Z</time>
      </trkpt>
      <trkpt lat="48.35042" lon="-0.08689">
        <ele>179.63</ele>
        <time>2016-06-01T21:53:55Z</time>
      </trkpt>
      <trkpt lat="48.34998" lon="-0.08648">
        <ele>183.195</ele>
        <time>2016-06-01T21:53:35Z</time>
      </trkpt>
      <trkpt lat="48.3488" lon="-0.0858">
        <ele>184.439</ele>
        <time>2016-06-01T21:53:15Z</time>
      </trkpt>
      <trkpt lat="48.34844" lon="-0.08547">
        <ele>185.408</ele>
        <time>2016-06-01T21:52:55Z</time>
      </trkpt>
      <trkpt lat="48.34797" lon="-0.08528">
        <ele>182.414</ele>
        <time>2016-06-01T21:52:35Z</time>
      </trkpt>
      <trkpt lat="48.34787" lon="-0.08515">
        <ele>181.686</ele>
        <time>2016-06-01T21:52:15Z</time>
      </trkpt>
      <trkpt lat="48.34764" lon="-0.085">
        <ele>177.035</ele>
        <time>2016-06-01T21:51:55Z</time>
      </trkpt>
      <trkpt lat="48.34746" lon="-0.08451">
        <ele>172.449</ele>
        <time>2016-06-01T21:51:35Z</time>
      </trkpt>
      <trkpt lat="48.34763" lon="-0.08329">
        <ele>172.95</ele>
        <time>2016-06-01T21:51:15Z</time>
      </trkpt>
      <trkpt lat="48.3478" lon="-0.08307">
        <ele>177.654</ele>
        <time>2016-06-01T21:50:55Z</time>
      </trkpt>
      <trkpt lat="48.34787" lon="-0.08266">
        <ele>176.892</ele>
        <time>2016-06-01T21:50:35Z</time>
      </trkpt>
      <trkpt lat="48.34797" lon="-0.08243">
        <ele>175.836</ele>
        <time>2016-06-01T21:50:15Z</time>
      </trkpt>
      <trkpt lat="48.34821" lon="-0.08236">
        <ele>178.883</ele>
        <time>2016-06-01T21:49:55Z</time>
      </trkpt>
      <trkpt lat="48.34851" lon="-0.08266">
        <ele>188.038</ele>
        <time>2016-06-01T21:49:35Z</time>
      </trkpt>
      <trkpt lat="48.34894" lon="-0.08279">
        <ele>189.972</ele>
        <time>2016-06-01T21:49:15Z</time>
      </trkpt>
      <trkpt lat="48.34942" lon="-0.08264">
        <ele>187.008</ele>
        <time>2016-06-01T21:48:55Z</time>
      </trkpt>
      <trkpt lat="48.34971" lon="-0.08299">
        <ele>192.211</ele>
        <time>2016-06-01T21:48:35Z</time>
      </trkpt>
      <trkpt lat="48.34971" lon="-0.08356">
        <ele>195.883</ele>
        <time>2016-06-01T21:48:15Z</time>
      </trkpt>
      <trkpt lat="48.35024" lon="-0.08402">
        <ele>194.162</ele>
        <time>2016-06-01T21:47:55Z</time>
      </trkpt>
      <trkpt lat="48.35058" lon="-0.08399">
        <ele>192.538</ele>
        <time>2016-06-01T21:47:35Z</time>
      </trkpt>
      <trkpt lat="48.35084" lon="-0.08427">
        <ele>190.089</ele>
        <time>2016-06-01T21:47:15Z</time>
      </trkpt>
      <trkpt lat="48.35101" lon="-0.08378">
        <ele>189.133</ele>
        <time>2016-06-01T21:46:55Z</time>
      </trkpt>
      <trkpt lat="48.35119" lon="-0.08374">
        <ele>186.811</ele>
        <time>2016-06-01T21:46:35Z</time>
      </trkpt>
      <trkpt lat="48.35142" lon="-0.0829">
        <ele>185.745</ele>
        <time>2016-06-01T21:46:15Z</time>
      </trkpt>
      <trkpt lat="48.35163" lon="-0.08249">
        <ele>184.822</ele>
        <time>2016-06-01T21:45:55Z</time>
      </trkpt>
      <trkpt lat="48.35189" lon="-0.08211">
        <ele>183.057</ele>
        <time>2016-06-01T21:45:35Z</time>
      </trkpt>
      <trkpt lat="48.35191" lon="-0.08163">
        <ele>177.461</ele>
        <time>2016-06-01T21:45:15Z</time>
      </trkpt>
      <trkpt lat="48.35181" lon="-0.08118">
        <ele>169.108</ele>
        <time>2016-06-01T21:44:55Z</time>
      </trkpt>
      <trkpt lat="48.35142" lon="-0.08093">
        <ele>159.311</ele>
        <time>2016-06-01T21:44:35Z</time>
      </trkpt>
      <trkpt lat="48.35203" lon="-0.08078">
        <ele>157.901</ele>
        <time>2016-06-01T21:44:15Z</time>
      </trkpt>
      <trkpt lat="48.35216" lon="-0.08054">
        <ele>151.451</ele>
        <time>2016-06-01T21:43:55Z</time>
      </trkpt>
      <trkpt lat="48.35248" lon="-0.0805">
        <ele>150.034</ele>
        <time>2016-06-01T21:43:35Z</time>
      </trkpt>
      <trkpt lat="48.35223" lon="-0.07998">
        <ele>137.815</ele>
        <time>2016-06-01T21:43:15Z</time>
      </trkpt>
      <trkpt lat="48.35199" lon="-0.0797">
        <ele>133.759</ele>
        <time>2016-06-01T21:42:55Z</time>
      </trkpt>
      <trkpt lat="48.35192" lon="-0.0794">
        <ele>128.967</ele>
        <time>2016-06-01T21:42:35Z</time>
      </trkpt>
      <trkpt lat="48.35181" lon="-0.07814">
        <ele>115.141</ele>
        <time>2016-06-01T21:42:15Z</time>
      </trkpt>
      <trkpt lat="48.35165" lon="-0.07754">
        <ele>110.998</ele>
        <time>2016-06-01T21:41:55Z</time>
      </trkpt>
      <trkpt lat="48.35221" lon="-0.07698">
        <ele>110.193</ele>
        <time>2016-06-01T21:41:35Z</time>
      </trkpt>
      <trkpt lat="48.3545" lon="-0.07754">
        <ele>104.717</ele>
        <time>2016-06-01T21:41:15Z</time>
      </trkpt>
      <trkpt lat="48.35467" lon="-0.07769">
        <ele>106.808</ele>
        <time>2016-06-01T21:40:55Z</time>
      </trkpt>
      <trkpt lat="48.35499" lon="-0.07854">
        <ele>110.909</ele>
        <time>2016-06-01T21:40:35Z</time>
      </trkpt>
      <trkpt lat="48.35551" lon="-0.07882">
        <ele>121.654</ele>
        <time>2016-06-01T21:40:15Z</time>
      </trkpt>
      <trkpt lat="48.3559" lon="-0.0791">
        <ele>127.114</ele>
        <time>2016-06-01T21:39:55Z</time>
      </trkpt>
      <trkpt lat="48.3564" lon="-0.07951">
        <ele>131.527</ele>
        <time>2016-06-01T21:39:35Z</time>
      </trkpt>
      <trkpt lat="48.35638" lon="-0.07906">
        <ele>136.928</ele>
        <time>2016-06-01T21:39:15Z</time>
      </trkpt>
      <trkpt lat="48.35663" lon="-0.0788">
        <ele>146.432</ele>
        <time>2016-06-01T21:38:55Z</time>
      </trkpt>
      <trkpt lat="48.35702" lon="-0.07863">
        <ele>155.71</ele>
        <time>2016-06-01T21:38:35Z</time>
      </trkpt>
      <trkpt lat="48.35805" lon="-0.07865">
        <ele>153.384</ele>
        <time>2016-06-01T21:38:15Z</time>
      </trkpt>
      <trkpt lat="48.35815" lon="-0.07927">
        <ele>141.851</ele>
        <time>2016-06-01T21:37:55Z</time>
      </trkpt>
      <trkpt lat="48.35993" lon="-0.07773">
        <ele>131.696</ele>
        <time>2016-06-01T21:37:35Z</time>
      </trkpt>
      <trkpt lat="48.36008" lon="-0.07781">
        <ele>131.69</ele>
        <time>2016-06-01T21:37:15Z</time>
      </trkpt>
      <trkpt lat="48.36013" lon="-0.07839">
        <ele>128.808</ele>
        <time>2016-06-01T21:36:55Z</time>
      </trkpt>
      <trkpt lat="48.36025" lon="-0.07846">
        <ele>128.615</ele>
        <time>2016-06-01T21:36:35Z</time>
      </trkpt>
      <trkpt lat="48.36063" lon="-0.07779">
        <ele>129.205</ele>
        <time>2016-06-01T21:36:15Z</time>
      </trkpt>
      <trkpt lat="48.361" lon="-0.0767">
        <ele>131.244</ele>
        <time>2016-06-01T21:35:55Z</time>
      </trkpt>
      <trkpt lat="48.36152" lon="-0.0758">
        <ele>129.819</ele>
        <time>2020-12-24T03:39:15Z</time>
      </trkpt>
      <trkpt lat="48.36217" lon="-0.07552">
        <ele>121.43</ele>
        <time>2016-06-01T21:34:55Z</time>
      </trkpt>
      <trkpt lat="48.36281" lon="-0.07546">
        <ele>119.934</ele>
        <time>2020-12-24T03:38:35Z</time>
      </trkpt>
      <trkpt lat="48.36432" lon="-0.07674">
        <ele>112.512</ele>
        <time>2020-12-24T03:38:15Z</time>
      </trkpt>
      <trkpt lat="48.36568" lon="-0.07741">
        <ele>117.076</ele>
        <time>2020-12-24T03:37:55Z</time>
      </trkpt>
      <trkpt lat="48.36661" lon="-0.07763">
        <ele>119.063</ele>
        <time>2020-12-24T03:37:35Z</time>
      </trkpt>
      <trkpt lat="48.36665" lon="-0.07657">
        <ele>115.638</ele>
        <time>2016-06-01T21:32:35Z</time>
      </trkpt>
      <trkpt lat="48.36709" lon="-0.07672">
        <ele>115.782</ele>
        <time>2016-06-01T21:32:15Z</time>
      </trkpt>
      <trkpt lat="48.36733" lon="-0.0767">
        <ele>115.808</ele>
        <time>2016-06-01T21:31:55Z</time>
      </trkpt>
      <trkpt lat="48.36752" lon="-0.07704">
        <ele>113.418</ele>
        <time>2016-06-01T21:31:35Z</time>
      </trkpt>
      <trkpt lat="48.36765" lon="-0.07711">
        <ele>114.244</ele>
        <time>2016-06-01T21:31:15Z</time>
      </trkpt>
      <trkpt lat="48.36785" lon="-0.07749">
        <ele>113.563</ele>
        <time>2016-06-01T21:30:55Z</time>
      </trkpt>
      <trkpt lat="48.3693" lon="-0.07747">
        <ele>116.576</ele>
        <time>2016-06-01T21:30:35Z</time>
      </trkpt>
      <trkpt lat="48.36937" lon="-0.07728">
        <ele>118.727</ele>
        <time>2016-06-01T21:30:15Z</time>
      </trkpt>
      <trkpt lat="48.36961" lon="-0.07685">
        <ele>121.681</ele>
        <time>2016-06-01T21:29:55Z</time>
      </trkpt>
      <trkpt lat="48.3699" lon="-0.0764">
        <ele>120.549</ele>
        <time>2016-06-01T21:29:35Z</time>
      </trkpt>
      <trkpt lat="48.36973" lon="-0.07554">
        <ele>134.293</ele>
        <time>2016-06-01T21:29:15Z</time>
      </trkpt>
      <trkpt lat="48.36996" lon="-0.07494">
        <ele>143.79</ele>
        <time>2016-06-01T21:28:55Z</time>
      </trkpt>
      <trkpt lat="48.3706" lon="-0.07445">
        <ele>152.675</ele>
        <time>2016-06-01T21:28:35Z</time>
      </trkpt>
      <trkpt lat="48.37115" lon="-0.07393">
        <ele>154.229</ele>
        <time>2016-06-01T21:28:15Z</time>
      </trkpt>
      <trkpt lat="48.37127" lon="-0.07352">
        <ele>156.708</ele>
        <time>2016-06-01T21:27:55Z</time>
      </trkpt>
      <trkpt lat="48.37124" lon="-0.07322">
        <ele>158.407</ele>
        <time>2016-06-01T21:27:35Z</time>
      </trkpt>
      <trkpt lat="48.37087" lon="-0.07251">
        <ele>165.661</ele>
        <time>2016-06-01T21:27:15Z</time>
      </trkpt>
      <trkpt lat="48.37092" lon="-0.07215">
        <ele>164.931</ele>
        <time>2016-06-01T21:26:55Z</time>
      </trkpt>
      <trkpt lat="48.37118" lon="-0.07189">
        <ele>161.515</ele>
        <time>2016-06-01T21:26:35Z</time>
      </trkpt>
      <trkpt lat="48.37152" lon="-0.07198">
        <ele>159.876</ele>
        <time>2016-06-01T21:26:15Z</time>
      </trkpt>
      <trkpt lat="48.37178" lon="-0.07228">
        <ele>155.54</ele>
        <time>2016-06-01T21:25:55Z</time>
      </trkpt>
      <trkpt lat="48.37254" lon="-0.07209">
        <ele>154.378</ele>
        <time>2016-06-01T21:25:35Z</time>
      </trkpt>
      <trkpt lat="48.37285" lon="-0.07181">
        <ele>158.022</ele>
        <time>2016-06-01T21:25:15Z</time>
      </trkpt>
      <trkpt lat="48.37316" lon="-0.07112">
        <ele>167.789</ele>
        <time>2016-06-01T21:24:55Z</time>
      </trkpt>
      <trkpt lat="48.37375" lon="-0.07056">
        <ele>168.514</ele>
        <time>2016-06-01T21:24:35Z</time>
      </trkpt>
      <trkpt lat="48.37392" lon="-0.07018">
        <ele>169.838</ele>
        <time>2016-06-01T21:24:15Z</time>
      </trkpt>
      <trkpt lat="48.37435" lon="-0.06977">
        <ele>170.808</ele>
        <time>2016-06-01T21:23:55Z</time>
      </trkpt>
      <trkpt lat="48.37453" lon="-0.06942">
        <ele>174.005</ele>
        <time>2016-06-01T21:23:35Z</time>
      </trkpt>
      <trkpt lat="48.37497" lon="-0.06736">
        <ele>182.241</ele>
        <time>2016-06-01T21:23:15Z</time>
      </trkpt>
      <trkpt lat="48.37536" lon="-0.06736">
        <ele>176.521</ele>
        <time>2016-06-01T21:22:55Z</time>
      </trkpt>
      <trkpt lat="48.37571" lon="-0.06724">
        <ele>172.064</ele>
        <time>2016-06-01T21:22:35Z</time>
      </trkpt>
      <trkpt lat="48.37523" lon="-0.06629">
        <ele>178.985</ele>
        <time>2016-06-01T21:22:15Z</time>
      </trkpt>
      <trkpt lat="48.37512" lon="-0.06595">
        <ele>179.959</ele>
        <time>2016-06-01T21:21:55Z</time>
      </trkpt>
      <trkpt lat="48.37483" lon="-0.06548">
        <ele>185.047</ele>
        <time>2016-06-01T21:21:35Z</time>
      </trkpt>
      <trkpt lat="48.37469" lon="-0.06518">
        <ele>187.381</ele>
        <time>2016-06-01T21:21:15Z</time>
      </trkpt>
      <trkpt lat="48.37456" lon="-0.06425">
        <ele>188.968</ele>
        <time>2016-06-01T21:20:55Z</time>
      </trkpt>
      <trkpt lat="48.37453" lon="-0.06391">
        <ele>191.043</ele>
        <time>2016-06-01T21:20:35Z</time>
      </trkpt>
      <trkpt lat="48.37453" lon="-0.06339">
        <ele>193.537</ele>
        <time>2016-06-01T21:20:15Z</time>
      </trkpt>
      <trkpt lat="48.37449" lon="-0.0626">
        <ele>200.408</ele>
        <time>2016-06-01T21:19:55Z</time>
      </trkpt>
      <trkpt lat="48.3745" lon="-0.06217">
        <ele>201.209</ele>
        <time>2016-06-01T21:19:35Z</time>
      </trkpt>
      <trkpt lat="48.37483" lon="-0.06138">
        <ele>194.754</ele>
        <time>2016-06-01T21:19:15Z</time>
      </trkpt>
      <trkpt lat="48.3749" lon="-0.06065">
        <ele>193.814</ele>
        <time>2016-06-01T21:18:55Z</time>
      </trkpt>
      <trkpt lat="48.37517" lon="-0.06046">
        <ele>189.759</ele>
        <time>2016-06-01T21:18:35Z</time>
      </trkpt>
      <trkpt lat="48.37531" lon="-0.0597">
        <ele>189.22</ele>
        <time>2016-06-01T21:18:15Z</time>
      </trkpt>
      <trkpt lat="48.37586" lon="-0.0591">
        <ele>183.954</ele>
        <time>2016-06-01T21:17:55Z</time>
      </trkpt>
      <trkpt lat="48.37594" lon="-0.05872">
        <ele>182.532</ele>
        <time>2016-06-01T21:17:35Z</time>
      </trkpt>
      <trkpt lat="48.3763" lon="-0.05833">
        <ele>173.086</ele>
        <time>2016-06-01T21:17:15Z</time>
      </trkpt>
      <trkpt lat="48.37704" lon="-0.05805">
        <ele>167.723</ele>
        <time>2016-06-01T21:16:55Z</time>
      </trkpt>
      <trkpt lat="48.3774" lon="-0.05743">
        <ele>160.748</ele>
        <time>2016-06-01T21:16:35Z</time>
      </trkpt>
      <trkpt lat="48.37752" lon="-0.05664">
        <ele>157.562</ele>
        <time>2016-06-01T21:16:15Z</time>
      </trkpt>
      <trkpt lat="48.37703" lon="-0.05634">
        <ele>163.708</ele>
        <time>2016-06-01T21:15:55Z</time>
      </trkpt>
      <trkpt lat="48.37688" lon="-0.05631">
        <ele>166.126</ele>
        <time>2016-06-01T21:15:35Z</time>
      </trkpt>
      <trkpt lat="48.3766" lon="-0.0564">
        <ele>170.842</ele>
        <time>2016-06-01T21:15:15Z</time>
      </trkpt>
      <trkpt lat="48.37516" lon="-0.05661">
        <ele>183.268</ele>
        <time>2016-06-01T21:14:55Z</time>
      </trkpt>
      <trkpt lat="48.37446" lon="-0.05704">
        <ele>192.322</ele>
        <time>2016-06-01T21:14:35Z</time>
      </trkpt>
      <trkpt lat="48.37399" lon="-0.05719">
        <ele>197.763</ele>
        <time>2016-06-01T21:14:15Z</time>
      </trkpt>
      <trkpt lat="48.37376" lon="-0.05704">
        <ele>197.767</ele>
        <time>2016-06-01T21:13:55Z</time>
      </trkpt>
      <trkpt lat="48.37363" lon="-0.05668">
        <ele>195.125</ele>
        <time>2016-06-01T21:13:35Z</time>
      </trkpt>
      <trkpt lat="48.37312" lon="-0.05676">
        <ele>197.289</ele>
        <time>2016-06-01T21:13:15Z</time>
      </trkpt>
      <trkpt lat="48.37235" lon="-0.05651">
        <ele>198.056</ele>
        <time>2016-06-01T21:12:55Z</time>
      </trkpt>
      <trkpt lat="48.37256" lon="-0.05314">
        <ele>196.571</ele>
        <time>2016-06-01T21:12:35Z</time>
      </trkpt>
      <trkpt lat="48.37358" lon="-0.05207">
        <ele>193.195</ele>
        <time>2016-06-01T21:12:15Z</time>
      </trkpt>
      <trkpt lat="48.3739" lon="-0.05121">
        <ele>187.708</ele>
        <time>2016-06-01T21:11:55Z</time>
      </trkpt>
      <trkpt lat="48.37403" lon="-0.05039">
        <ele>186.223</ele>
        <time>2016-06-01T21:11:35Z</time>
      </trkpt>
      <trkpt lat="48.37416" lon="-0.04962">
        <ele>180.949</ele>
        <time>2016-06-01T21:11:15Z</time>
      </trkpt>
      <trkpt lat="48.3747" lon="-0.04902">
        <ele>166.195</ele>
        <time>2016-06-01T21:10:55Z</time>
      </trkpt>
      <trkpt lat="48.37516" lon="-0.04857">
        <ele>158.118</ele>
        <time>2016-06-01T21:10:35Z</time>
      </trkpt>
      <trkpt lat="48.3757" lon="-0.04867">
        <ele>134.169</ele>
        <time>2016-06-01T21:10:15Z</time>
      </trkpt>
      <trkpt lat="48.37631" lon="-0.04921">
        <ele>122.063</ele>
        <time>2016-06-01T21:09:55Z</time>
      </trkpt>
      <trkpt lat="48.37851" lon="-0.05095">
        <ele>121.551</ele>
        <time>2016-06-01T21:09:35Z</time>
      </trkpt>
      <trkpt lat="48.37889" lon="-0.05119">
        <ele>121.045</ele>
        <time>2016-06-01T21:09:15Z</time>
      </trkpt>
      <trkpt lat="48.37906" lon="-0.05211">
        <ele>127.832</ele>
        <time>2016-06-01T21:08:55Z</time>
      </trkpt>
      <trkpt lat="48.37933" lon="-0.05252">
        <ele>131.637</ele>
        <time>2016-06-01T21:08:35Z</time>
      </trkpt>
      <trkpt lat="48.37936" lon="-0.05275">
        <ele>131.761</ele>
        <time>2016-06-01T21:08:15Z</time>
      </trkpt>
      <trkpt lat="48.37945" lon="-0.05286">
        <ele>131.108</ele>
        <time>2016-06-01T21:07:55Z</time>
      </trkpt>
      <trkpt lat="48.38066" lon="-0.05258">
        <ele>133.911</ele>
        <time>2016-06-01T21:07:35Z</time>
      </trkpt>
      <trkpt lat="48.3809" lon="-0.05241">
        <ele>136.501</ele>
        <time>2016-06-01T21:07:15Z</time>
      </trkpt>
      <trkpt lat="48.38126" lon="-0.05189">
        <ele>145.351</ele>
        <time>2016-06-01T21:06:55Z</time>
      </trkpt>
      <trkpt lat="48.3816" lon="-0.05157">
        <ele>149.014</ele>
        <time>2016-06-01T21:06:35Z</time>
      </trkpt>
      <trkpt lat="48.38164" lon="-0.05131">
        <ele>150.435</ele>
        <time>2016-06-01T21:06:15Z</time>
      </trkpt>
      <trkpt lat="48.38294" lon="-0.05099">
        <ele>162.699</ele>
        <time>2016-06-01T21:05:55Z</time>
      </trkpt>
      <trkpt lat="48.38318" lon="-0.05082">
        <ele>163.987</ele>
        <time>2016-06-01T21:05:35Z</time>
      </trkpt>
      <trkpt lat="48.38391" lon="-0.05041">
        <ele>168.761</ele>
        <time>2016-06-01T21:05:15Z</time>
      </trkpt>
      <trkpt lat="48.38448" lon="-0.05041">
        <ele>173.528</ele>
        <time>2016-06-01T21:04:55Z</time>
      </trkpt>
      <trkpt lat="48.38486" lon="-0.05033">
        <ele>173.273</ele>
        <time>2016-06-01T21:04:35Z</time>
      </trkpt>
      <trkpt lat="48.38563" lon="-0.04964">
        <ele>174.657</ele>
        <time>2016-06-01T21:04:15Z</time>
      </trkpt>
      <trkpt lat="48.38616" lon="-0.04934">
        <ele>179.808</ele>
        <time>2016-06-01T21:03:55Z</time>
      </trkpt>
      <trkpt lat="48.38682" lon="-0.04915">
        <ele>185.503</ele>
        <time>2016-06-01T21:03:35Z</time>
      </trkpt>
      <trkpt lat="48.38841" lon="-0.04932">
        <ele>187.721</ele>
        <time>2016-06-01T21:03:15Z</time>
      </trkpt>
      <trkpt lat="48.38997" lon="-0.04805">
        <ele>182.111</ele>
        <time>2016-06-01T21:02:55Z</time>
      </trkpt>
      <trkpt lat="48.39049" lon="-0.0497">
        <ele>176.398</ele>
        <time>2016-06-01T21:02:35Z</time>
      </trkpt>
      <trkpt lat="48.39059" lon="-0.0496">
        <ele>176.429</ele>
        <time>2016-06-01T21:02:15Z</time>
      </trkpt>
      <trkpt lat="48.3914" lon="-0.04981">
        <ele>176.473</ele>
        <time>2016-06-01T21:01:55Z</time>
      </trkpt>
      <trkpt lat="48.39182" lon="-0.05056">
        <ele>170.951</ele>
        <time>2016-06-01T21:01:35Z</time>
      </trkpt>
      <trkpt lat="48.39216" lon="-0.05084">
        <ele>170.575</ele>
        <time>2016-06-01T21:01:15Z</time>
      </trkpt>
      <trkpt lat="48.39239" lon="-0.05088">
        <ele>170.252</ele>
        <time>2016-06-01T21:00:55Z</time>
      </trkpt>
      <trkpt lat="48.3942" lon="-0.05114">
        <ele>158.027</ele>
        <time>2016-06-01T21:00:35Z</time>
      </trkpt>
      <trkpt lat="48.3949" lon="-0.05127">
        <ele>157.651</ele>
        <time>2016-06-01T21:00:15Z</time>
      </trkpt>
      <trkpt lat="48.39528" lon="-0.05123">
        <ele>157.608</ele>
        <time>2016-06-01T20:59:55Z</time>
      </trkpt>
      <trkpt lat="48.39636" lon="-0.05153">
        <ele>163.417</ele>
        <time>2016-06-01T20:59:35Z</time>
      </trkpt>
      <trkpt lat="48.39672" lon="-0.05146">
        <ele>167.707</ele>
        <time>2016-06-01T20:59:15Z</time>
      </trkpt>
      <trkpt lat="48.39716" lon="-0.05121">
        <ele>173.355</ele>
        <time>2016-06-01T20:58:55Z</time>
      </trkpt>
      <trkpt lat="48.39745" lon="-0.05123">
        <ele>175.967</ele>
        <time>2016-06-01T20:58:35Z</time>
      </trkpt>
      <trkpt lat="48.39752" lon="-0.05148">
        <ele>177.538</ele>
        <time>2016-06-01T20:58:15Z</time>
      </trkpt>
      <trkpt lat="48.39752" lon="-0.05148">
        <ele>177.532</ele>
        <time>2016-06-01T20:57:55Z</time>
      </trkpt>
      <trkpt lat="48.39753" lon="-0.05143">
        <ele>177.53</ele>
        <time>2016-06-01T20:57:35Z</time>
      </trkpt>
      <trkpt lat="48.39756" lon="-0.05203">
        <ele>178.444</ele>
        <time>2016-06-01T20:57:15Z</time>
      </trkpt>
      <trkpt lat="48.39861" lon="-0.05182">
        <ele>183.011</ele>
        <time>2016-06-01T20:56:55Z</time>
      </trkpt>
      <trkpt lat="48.40199" lon="-0.05308">
        <ele>171.236</ele>
        <time>2016-06-01T20:56:35Z</time>
      </trkpt>
      <trkpt lat="48.4043" lon="-0.05433">
        <ele>163.67</ele>
        <time>2016-06-01T20:56:15Z</time>
      </trkpt>
      <trkpt lat="48.40435" lon="-0.05435">
        <ele>163.208</ele>
        <time>2016-06-01T20:55:55Z</time>
      </trkpt>
      <trkpt lat="48.40463" lon="-0.05439">
        <ele>161.909</ele>
        <time>2016-06-01T20:55:35Z</time>
      </trkpt>
      <trkpt lat="48.40645" lon="-0.05353">
        <ele>170.181</ele>
        <time>2016-06-01T20:55:15Z</time>
      </trkpt>
      <trkpt lat="48.40696" lon="-0.05319">
        <ele>171.141</ele>
        <time>2016-06-01T20:54:55Z</time>
      </trkpt>
      <trkpt lat="48.40726" lon="-0.05317">
        <ele>171.647</ele>
        <time>2016-06-01T20:54:35Z</time>
      </trkpt>
      <trkpt lat="48.40783" lon="-0.05369">
        <ele>169.048</ele>
        <time>2016-06-01T20:54:15Z</time>
      </trkpt>
      <trkpt lat="48.40883" lon="-0.0539">
        <ele>166.232</ele>
        <time>2016-06-01T20:53:55Z</time>
      </trkpt>
      <trkpt lat="48.40945" lon="-0.0539">
        <ele>166.06</ele>
        <time>2016-06-01T20:53:35Z</time>
      </trkpt>
      <trkpt lat="48.41089" lon="-0.05403">
        <ele>163.614</ele>
        <time>2016-06-01T20:53:15Z</time>
      </trkpt>
      <trkpt lat="48.41076" lon="-0.0575">
        <ele>172.081</ele>
        <time>2016-06-01T20:52:55Z</time>
      </trkpt>
      <trkpt lat="48.41101" lon="-0.05738">
        <ele>172.086</ele>
        <time>2016-06-01T20:52:35Z</time>
      </trkpt>
      <trkpt lat="48.41169" lon="-0.05624">
        <ele>169.45</ele>
        <time>2016-06-01T20:52:15Z</time>
      </trkpt>
      <trkpt lat="48.41219" lon="-0.0563">
        <ele>169.608</ele>
        <time>2016-06-01T20:51:55Z</time>
      </trkpt>
      <trkpt lat="48.41246" lon="-0.05652">
        <ele>170.317</ele>
        <time>2016-06-01T20:51:35Z</time>
      </trkpt>
      <trkpt lat="48.4127" lon="-0.05695">
        <ele>171.761</ele>
        <time>2016-06-01T20:51:15Z</time>
      </trkpt>
      <trkpt lat="48.41274" lon="-0.05723">
        <ele>172.848</ele>
        <time>2016-06-01T20:50:55Z</time>
      </trkpt>
      <trkpt lat="48.4131" lon="-0.05748">
        <ele>175.18</ele>
        <time>2016-06-01T20:50:35Z</time>
      </trkpt>
      <trkpt lat="48.41397" lon="-0.05815">
        <ele>179.791</ele>
        <time>2016-06-01T20:50:15Z</time>
      </trkpt>
      <trkpt lat="48.41507" lon="-0.05914">
        <ele>182.315</ele>
        <time>2016-06-01T20:49:55Z</time>
      </trkpt>
      <trkpt lat="48.41673" lon="-0.06087">
        <ele>181.393</ele>
        <time>2016-06-01T20:49:35Z</time>
      </trkpt>
      <trkpt lat="48.41705" lon="-0.06102">
        <ele>181.067</ele>
        <time>2016-06-01T20:49:15Z</time>
      </trkpt>
      <trkpt lat="48.41743" lon="-0.06087">
        <ele>178.374</ele>
        <time>2016-06-01T20:48:55Z</time>
      </trkpt>
      <trkpt lat="48.41867" lon="-0.0601">
        <ele>177.339</ele>
        <time>2016-06-01T20:48:35Z</time>
      </trkpt>
      <trkpt lat="48.41905" lon="-0.05997">
        <ele>176.013</ele>
        <time>2016-06-01T20:48:15Z</time>
      </trkpt>
      <trkpt lat="48.41914" lon="-0.0604">
        <ele>178.508</ele>
        <time>2016-06-01T20:47:55Z</time>
      </trkpt>
      <trkpt lat="48.41954" lon="-0.06308">
        <ele>187.719</ele>
        <time>2016-06-01T20:47:35Z</time>
      </trkpt>
      <trkpt lat="48.41961" lon="-0.06364">
        <ele>189.09</ele>
        <time>2016-06-01T20:47:15Z</time>
      </trkpt>
      <trkpt lat="48.41982" lon="-0.06371">
        <ele>189.076</ele>
        <time>2016-06-01T20:46:55Z</time>
      </trkpt>
      <trkpt lat="48.42028" lon="-0.06353">
        <ele>189.01</ele>
        <time>2016-06-01T20:46:35Z</time>
      </trkpt>
      <trkpt lat="48.42072" lon="-0.06377">
        <ele>189.861</ele>
        <time>2016-06-01T20:46:15Z</time>
      </trkpt>
      <trkpt lat="48.42115" lon="-0.06398">
        <ele>189.325</ele>
        <time>2016-06-01T20:45:55Z</time>
      </trkpt>
      <trkpt lat="48.42159" lon="-0.0642">
        <ele>191.043</ele>
        <time>2016-06-01T20:45:35Z</time>
      </trkpt>
      <trkpt lat="48.42183" lon="-0.06469">
        <ele>190.617</ele>
        <time>2016-06-01T20:45:15Z</time>
      </trkpt>
      <trkpt lat="48.42196" lon="-0.06512">
        <ele>191.194</ele>
        <time>2016-06-01T20:44:55Z</time>
      </trkpt>
      <trkpt lat="48.42217" lon="-0.06555">
        <ele>192.649</ele>
        <time>2016-06-01T20:44:35Z</time>
      </trkpt>
      <trkpt lat="48.42274" lon="-0.066">
        <ele>196.523</ele>
        <time>2016-06-01T20:44:15Z</time>
      </trkpt>
      <trkpt lat="48.42276" lon="-0.06654">
        <ele>197.008</ele>
        <time>2016-06-01T20:43:55Z</time>
      </trkpt>
      <trkpt lat="48.42268" lon="-0.06722">
        <ele>197.027</ele>
        <time>2016-06-01T20:43:35Z</time>
      </trkpt>
      <trkpt lat="48.42236" lon="-0.06772">
        <ele>196.661</ele>
        <time>2016-06-01T20:43:15Z</time>
      </trkpt>
      <trkpt lat="48.42231" lon="-0.0681">
        <ele>196.377</ele>
        <time>2016-06-01T20:42:55Z</time>
      </trkpt>
      <trkpt lat="48.42243" lon="-0.06928">
        <ele>198.841</ele>
        <time>2016-06-01T20:42:35Z</time>
      </trkpt>
      <trkpt lat="48.42293" lon="-0.06935">
        <ele>198.552</ele>
        <time>2016-06-01T20:42:15Z</time>
      </trkpt>
      <trkpt lat="48.42358" lon="-0.06946">
        <ele>199.086</ele>
        <time>2016-06-01T20:41:55Z</time>
      </trkpt>
      <trkpt lat="48.42358" lon="-0.06946">
        <ele>199.024</ele>
        <time>2016-06-01T20:41:35Z</time>
      </trkpt>
      <trkpt lat="48.42384" lon="-0.06939">
        <ele>199.858</ele>
        <time>2016-06-01T20:41:15Z</time>
      </trkpt>
      <trkpt lat="48.42493" lon="-0.06858">
        <ele>199.855</ele>
        <time>2016-06-01T20:40:55Z</time>
      </trkpt>
      <trkpt lat="48.42624" lon="-0.06707">
        <ele>199.88</ele>
        <time>2016-06-01T20:40:35Z</time>
      </trkpt>
      <trkpt lat="48.42671" lon="-0.0666">
        <ele>201.074</ele>
        <time>2016-06-01T20:40:15Z</time>
      </trkpt>
      <trkpt lat="48.42723" lon="-0.06622">
        <ele>202.608</ele>
        <time>2016-06-01T20:39:55Z</time>
      </trkpt>
      <trkpt lat="48.4278" lon="-0.06574">
        <ele>203.126</ele>
        <time>2016-06-01T20:39:35Z</time>
      </trkpt>
      <trkpt lat="48.42896" lon="-0.0645">
        <ele>208.142</ele>
        <time>2016-06-01T20:39:15Z</time>
      </trkpt>
      <trkpt lat="48.42933" lon="-0.06358">
        <ele>206.887</ele>
        <time>2016-06-01T20:38:55Z</time>
      </trkpt>
      <trkpt lat="48.42972" lon="-0.0628">
        <ele>203.14</ele>
        <time>2016-06-01T20:38:35Z</time>
      </trkpt>
      <trkpt lat="48.43002" lon="-0.06225">
        <ele>203.121</ele>
        <time>2016-06-01T20:38:15Z</time>
      </trkpt>
      <trkpt lat="48.43053" lon="-0.06171">
        <ele>202.185</ele>
        <time>2016-06-01T20:37:55Z</time>
      </trkpt>
      <trkpt lat="48.43146" lon="-0.06124">
        <ele>199.863</ele>
        <time>2016-06-01T20:37:35Z</time>
      </trkpt>
      <trkpt lat="48.43305" lon="-0.06098">
        <ele>194.027</ele>
        <time>2016-06-01T20:37:15Z</time>
      </trkpt>
      <trkpt lat="48.43392" lon="-0.06066">
        <ele>188.024</ele>
        <time>2016-06-01T20:36:55Z</time>
      </trkpt>
      <trkpt lat="48.43453" lon="-0.0607">
        <ele>185.399</ele>
        <time>2016-06-01T20:36:35Z</time>
      </trkpt>
      <trkpt lat="48.43605" lon="-0.06126">
        <ele>189.843</ele>
        <time>2016-06-01T20:36:15Z</time>
      </trkpt>
      <trkpt lat="48.43833" lon="-0.06227">
        <ele>189.008</ele>
        <time>2016-06-01T20:35:55Z</time>
      </trkpt>
      <trkpt lat="48.43954" lon="-0.06259">
        <ele>189.115</ele>
        <time>2016-06-01T20:35:35Z</time>
      </trkpt>
      <trkpt lat="48.4402" lon="-0.06263">
        <ele>187.941</ele>
        <time>2016-06-01T20:35:15Z</time>
      </trkpt>
      <trkpt lat="48.44142" lon="-0.06238">
        <ele>184.671</ele>
        <time>2016-06-01T20:34:55Z</time>
      </trkpt>
      <trkpt lat="48.44222" lon="-0.06263">
        <ele>189.549</ele>
        <time>2016-06-01T20:34:35Z</time>
      </trkpt>
      <trkpt lat="48.44299" lon="-0.0628">
        <ele>191.01</ele>
        <time>2016-06-01T20:34:15Z</time>
      </trkpt>
      <trkpt lat="48.44367" lon="-0.06321">
        <ele>193.874</ele>
        <time>2016-06-01T20:33:55Z</time>
      </trkpt>
      <trkpt lat="48.44444" lon="-0.06375">
        <ele>198.582</ele>
        <time>2016-06-01T20:33:35Z</time>
      </trkpt>
      <trkpt lat="48.44497" lon="-0.06364">
        <ele>199.066</ele>
        <time>2016-06-01T20:33:15Z</time>
      </trkpt>
      <trkpt lat="48.44548" lon="-0.06388">
        <ele>200.053</ele>
        <time>2016-06-01T20:32:55Z</time>
      </trkpt>
      <trkpt lat="48.44595" lon="-0.06386">
        <ele>201.528</ele>
        <time>2016-06-01T20:32:35Z</time>
      </trkpt>
      <trkpt lat="48.4464" lon="-0.06409">
        <ele>202.872</ele>
        <time>2016-06-01T20:32:15Z</time>
      </trkpt>
      <trkpt lat="48.44666" lon="-0.06405">
        <ele>204.508</ele>
        <time>2016-06-01T20:31:55Z</time>
      </trkpt>
      <trkpt lat="48.44743" lon="-0.06259">
        <ele>204.218</ele>
        <time>2016-06-01T20:31:35Z</time>
      </trkpt>
      <trkpt lat="48.44777" lon="-0.06158">
        <ele>202.744</ele>
        <time>2016-06-01T20:31:15Z</time>
      </trkpt>
      <trkpt lat="48.44813" lon="-0.06107">
        <ele>203.063</ele>
        <time>2016-06-01T20:30:55Z</time>
      </trkpt>
      <trkpt lat="48.44837" lon="-0.06105">
        <ele>202.852</ele>
        <time>2016-06-01T20:30:35Z</time>
      </trkpt>
      <trkpt lat="48.44921" lon="-0.06083">
        <ele>204.093</ele>
        <time>2016-06-01T20:30:15Z</time>
      </trkpt>
      <trkpt lat="48.44975" lon="-0.06032">
        <ele>202.037</ele>
        <time>2016-06-01T20:29:55Z</time>
      </trkpt>
      <trkpt lat="48.45042" lon="-0.05991">
        <ele>198.885</ele>
        <time>2016-06-01T20:29:35Z</time>
      </trkpt>
      <trkpt lat="48.4513" lon="-0.05959">
        <ele>204.029</ele>
        <time>2016-06-01T20:29:15Z</time>
      </trkpt>
      <trkpt lat="48.45187" lon="-0.05956">
        <ele>206.976</ele>
        <time>2016-06-01T20:28:55Z</time>
      </trkpt>
      <trkpt lat="48.45487" lon="-0.05886">
        <ele>194.351</ele>
        <time>2016-06-01T20:28:35Z</time>
      </trkpt>
      <trkpt lat="48.45565" lon="-0.05768">
        <ele>189.275</ele>
        <time>2016-06-01T20:28:15Z</time>
      </trkpt>
      <trkpt lat="48.45588" lon="-0.05688">
        <ele>191.408</ele>
        <time>2016-06-01T20:27:55Z</time>
      </trkpt>
      <trkpt lat="48.45646" lon="-0.0565">
        <ele>194.019</ele>
        <time>2016-06-01T20:27:35Z</time>
      </trkpt>
      <trkpt lat="48.45701" lon="-0.05658">
        <ele>193.981</ele>
        <time>2016-06-01T20:27:15Z</time>
      </trkpt>
      <trkpt lat="48.45691" lon="-0.05635">
        <ele>193.191</ele>
        <time>2016-06-01T20:26:55Z</time>
      </trkpt>
      <trkpt lat="48.45691" lon="-0.05568">
        <ele>192.431</ele>
        <time>2016-06-01T20:26:35Z</time>
      </trkpt>
      <trkpt lat="48.45691" lon="-0.05568">
        <ele>192.431</ele>
        <time>2016-06-01T20:26:35Z</time>
      </trkpt>
      <trkpt lat="48.45691" lon="-0.05568">
        <ele>192.431</ele>
        <time>2016-06-01T20:26:35Z</time>
      </trkpt>
      <trkpt lat="48.45894" lon="-0.05624">
        <ele>195.812</ele>
        <time>2016-06-01T20:26:15Z</time>
      </trkpt>
      <trkpt lat="48.45933" lon="-0.05656">
        <ele>199.956</ele>
        <time>2016-06-01T20:25:55Z</time>
      </trkpt>
      <trkpt lat="48.46129" lon="-0.058">
        <ele>199.984</ele>
        <time>2016-06-01T20:25:35Z</time>
      </trkpt>
      <trkpt lat="48.46157" lon="-0.05838">
        <ele>198.538</ele>
        <time>2016-06-01T20:25:15Z</time>
      </trkpt>
      <trkpt lat="48.4619" lon="-0.05864">
        <ele>199.165</ele>
        <time>2016-06-01T20:24:55Z</time>
      </trkpt>
      <trkpt lat="48.46265" lon="-0.05883">
        <ele>199.51</ele>
        <time>2016-06-01T20:24:35Z</time>
      </trkpt>
      <trkpt lat="48.46349" lon="-0.05911">
        <ele>201.564</ele>
        <time>2016-06-01T20:24:15Z</time>
      </trkpt>
      <trkpt lat="48.46512" lon="-0.05944">
        <ele>199.508</ele>
        <time>2016-06-01T20:23:55Z</time>
      </trkpt>
      <trkpt lat="48.46559" lon="-0.05956">
        <ele>200.517</ele>
        <time>2016-06-01T20:23:35Z</time>
      </trkpt>
      <trkpt lat="48.46725" lon="-0.06021">
        <ele>206.061</ele>
        <time>2016-06-01T20:23:15Z</time>
      </trkpt>
      <trkpt lat="48.46805" lon="-0.06062">
        <ele>216.581</ele>
        <time>2016-06-01T20:22:55Z</time>
      </trkpt>
      <trkpt lat="48.46826" lon="-0.06094">
        <ele>224.681</ele>
        <time>2016-06-01T20:22:35Z</time>
      </trkpt>
      <trkpt lat="48.46863" lon="-0.0619">
        <ele>237.382</ele>
        <time>2016-06-01T20:22:15Z</time>
      </trkpt>
      <trkpt lat="48.46893" lon="-0.0628">
        <ele>245.946</ele>
        <time>2016-06-01T20:21:55Z</time>
      </trkpt>
      <trkpt lat="48.46899" lon="-0.06422">
        <ele>251.684</ele>
        <time>2016-06-01T20:21:35Z</time>
      </trkpt>
      <trkpt lat="48.46909" lon="-0.06482">
        <ele>256.518</ele>
        <time>2016-06-01T20:21:15Z</time>
      </trkpt>
      <trkpt lat="48.4694" lon="-0.06692">
        <ele>263.325</ele>
        <time>2016-06-01T20:20:55Z</time>
      </trkpt>
      <trkpt lat="48.46984" lon="-0.06748">
        <ele>265.06</ele>
        <time>2016-06-01T20:20:35Z</time>
      </trkpt>
      <trkpt lat="48.47025" lon="-0.06744">
        <ele>266.094</ele>
        <time>2016-06-01T20:20:15Z</time>
      </trkpt>
      <trkpt lat="48.47054" lon="-0.06716">
        <ele>268.008</ele>
        <time>2016-06-01T20:19:55Z</time>
      </trkpt>
      <trkpt lat="48.47105" lon="-0.0668">
        <ele>268.926</ele>
        <time>2016-06-01T20:19:35Z</time>
      </trkpt>
      <trkpt lat="48.47155" lon="-0.06658">
        <ele>267.624</ele>
        <time>2016-06-01T20:19:15Z</time>
      </trkpt>
      <trkpt lat="48.47206" lon="-0.06658">
        <ele>263.788</ele>
        <time>2016-06-01T20:18:55Z</time>
      </trkpt>
      <trkpt lat="48.47243" lon="-0.06639">
        <ele>261.018</ele>
        <time>2016-06-01T20:18:35Z</time>
      </trkpt>
      <trkpt lat="48.47311" lon="-0.06574">
        <ele>253.119</ele>
        <time>2016-06-01T20:18:15Z</time>
      </trkpt>
      <trkpt lat="48.47328" lon="-0.06577">
        <ele>250.373</ele>
        <time>2016-06-01T20:17:55Z</time>
      </trkpt>
      <trkpt lat="48.47355" lon="-0.06574">
        <ele>246.081</ele>
        <time>2016-06-01T20:17:35Z</time>
      </trkpt>
      <trkpt lat="48.47496" lon="-0.0669">
        <ele>229.625</ele>
        <time>2016-06-01T20:17:15Z</time>
      </trkpt>
      <trkpt lat="48.47596" lon="-0.06733">
        <ele>223.672</ele>
        <time>2016-06-01T20:16:55Z</time>
      </trkpt>
      <trkpt lat="48.47633" lon="-0.06735">
        <ele>226.327</ele>
        <time>2016-06-01T20:16:35Z</time>
      </trkpt>
      <trkpt lat="48.4766" lon="-0.06714">
        <ele>227.791</ele>
        <time>2016-06-01T20:16:15Z</time>
      </trkpt>
      <trkpt lat="48.47691" lon="-0.06645">
        <ele>226.108</ele>
        <time>2016-06-01T20:15:55Z</time>
      </trkpt>
      <trkpt lat="48.47708" lon="-0.06626">
        <ele>225.311</ele>
        <time>2016-06-01T20:15:35Z</time>
      </trkpt>
      <trkpt lat="48.47724" lon="-0.06602">
        <ele>224.701</ele>
        <time>2016-06-01T20:15:15Z</time>
      </trkpt>
      <trkpt lat="48.47737" lon="-0.06583">
        <ele>224.051</ele>
        <time>2016-06-01T20:14:55Z</time>
      </trkpt>
      <trkpt lat="48.47766" lon="-0.06684">
        <ele>233.296</ele>
        <time>2016-06-01T20:14:35Z</time>
      </trkpt>
      <trkpt lat="48.47785" lon="-0.06722">
        <ele>236.597</ele>
        <time>2016-06-01T20:14:15Z</time>
      </trkpt>
      <trkpt lat="48.47917" lon="-0.07074">
        <ele>270.071</ele>
        <time>2016-06-01T20:13:55Z</time>
      </trkpt>
      <trkpt lat="48.48008" lon="-0.0698">
        <ele>273.029</ele>
        <time>2016-06-01T20:13:35Z</time>
      </trkpt>
      <trkpt lat="48.48042" lon="-0.06918">
        <ele>266.633</ele>
        <time>2016-06-01T20:13:15Z</time>
      </trkpt>
      <trkpt lat="48.48057" lon="-0.06845">
        <ele>264.21</ele>
        <time>2016-06-01T20:12:55Z</time>
      </trkpt>
      <trkpt lat="48.48072" lon="-0.06643">
        <ele>265.895</ele>
        <time>2016-06-01T20:12:35Z</time>
      </trkpt>
      <trkpt lat="48.48158" lon="-0.06448">
        <ele>263.649</ele>
        <time>2016-06-01T20:12:15Z</time>
      </trkpt>
      <trkpt lat="48.4818" lon="-0.06414">
        <ele>266.308</ele>
        <time>2016-06-01T20:11:55Z</time>
      </trkpt>
      <trkpt lat="48.48323" lon="-0.06255">
        <ele>273.311</ele>
        <time>2016-06-01T20:11:35Z</time>
      </trkpt>
      <trkpt lat="48.48469" lon="-0.06077">
        <ele>256.092</ele>
        <time>2016-06-01T20:11:15Z</time>
      </trkpt>
      <trkpt lat="48.48579" lon="-0.05933">
        <ele>245.432</ele>
        <time>2016-06-01T20:10:55Z</time>
      </trkpt>
      <trkpt lat="48.48662" lon="-0.05849">
        <ele>230.067</ele>
        <time>2016-06-01T20:10:35Z</time>
      </trkpt>
      <trkpt lat="48.4882" lon="-0.05695">
        <ele>217.098</ele>
        <time>2016-06-01T20:10:15Z</time>
      </trkpt>
      <trkpt lat="48.48987" lon="-0.05544">
        <ele>214.042</ele>
        <time>2016-06-01T20:09:55Z</time>
      </trkpt>
      <trkpt lat="48.48984" lon="-0.05523">
        <ele>214.21</ele>
        <time>2016-06-01T20:09:35Z</time>
      </trkpt>
      <trkpt lat="48.48961" lon="-0.05416">
        <ele>216.194</ele>
        <time>2016-06-01T20:09:15Z</time>
      </trkpt>
      <trkpt lat="48.48928" lon="-0.05323">
        <ele>219.021</ele>
        <time>2016-06-01T20:08:55Z</time>
      </trkpt>
      <trkpt lat="48.48945" lon="-0.05306">
        <ele>219.076</ele>
        <time>2016-06-01T20:08:35Z</time>
      </trkpt>
      <trkpt lat="48.49086" lon="-0.0525">
        <ele>229.35</ele>
        <time>2016-06-01T20:08:15Z</time>
      </trkpt>
      <trkpt lat="48.49105" lon="-0.05253">
        <ele>231.308</ele>
        <time>2016-06-01T20:07:55Z</time>
      </trkpt>
      <trkpt lat="48.4914" lon="-0.05283">
        <ele>231.809</ele>
        <time>2016-06-01T20:07:35Z</time>
      </trkpt>
      <trkpt lat="48.49166" lon="-0.05296">
        <ele>230.481</ele>
        <time>2016-06-01T20:07:15Z</time>
      </trkpt>
      <trkpt lat="48.49172" lon="-0.05315">
        <ele>229.441</ele>
        <time>2016-06-01T20:06:55Z</time>
      </trkpt>
      <trkpt lat="48.49186" lon="-0.05315">
        <ele>228.748</ele>
        <time>2016-06-01T20:06:35Z</time>
      </trkpt>
      <trkpt lat="48.49214" lon="-0.053">
        <ele>226.929</ele>
        <time>2016-06-01T20:06:15Z</time>
      </trkpt>
      <trkpt lat="48.4923" lon="-0.05319">
        <ele>224.523</ele>
        <time>2016-06-01T20:05:55Z</time>
      </trkpt>
      <trkpt lat="48.49251" lon="-0.05283">
        <ele>224.621</ele>
        <time>2016-06-01T20:05:35Z</time>
      </trkpt>
      <trkpt lat="48.49267" lon="-0.05242">
        <ele>222.595</ele>
        <time>2016-06-01T20:05:15Z</time>
      </trkpt>
      <trkpt lat="48.4929" lon="-0.05229">
        <ele>219.162</ele>
        <time>2016-06-01T20:04:55Z</time>
      </trkpt>
      <trkpt lat="48.49311" lon="-0.05178">
        <ele>216.587</ele>
        <time>2016-06-01T20:04:35Z</time>
      </trkpt>
      <trkpt lat="48.49317" lon="-0.05137">
        <ele>216.791</ele>
        <time>2016-06-01T20:04:15Z</time>
      </trkpt>
      <trkpt lat="48.49304" lon="-0.05018">
        <ele>218.008</ele>
        <time>2020-12-24T02:08:35Z</time>
      </trkpt>
      <trkpt lat="48.49313" lon="-0.04993">
        <ele>216.011</ele>
        <time>2020-12-24T02:08:15Z</time>
      </trkpt>
      <trkpt lat="48.49253" lon="-0.04951">
        <ele>218.256</ele>
        <time>2020-12-24T02:07:55Z</time>
      </trkpt>
      <trkpt lat="48.4922" lon="-0.04951">
        <ele>218.954</ele>
        <time>2020-12-24T02:07:35Z</time>
      </trkpt>
      <trkpt lat="48.49111" lon="-0.05004">
        <ele>223.03</ele>
        <time>2020-12-24T02:07:15Z</time>
      </trkpt>
      <trkpt lat="48.49071" lon="-0.05054">
        <ele>224.341</ele>
        <time>2020-12-24T02:06:55Z</time>
      </trkpt>
      <trkpt lat="48.4903" lon="-0.05074">
        <ele>223.175</ele>
        <time>2020-12-24T02:06:35Z</time>
      </trkpt>
      <trkpt lat="48.49027" lon="-0.0503">
        <ele>218.453</ele>
        <time>2020-12-24T02:06:15Z</time>
      </trkpt>
      <trkpt lat="48.48986" lon="-0.04929">
        <ele>208.897</ele>
        <time>2020-12-24T02:05:55Z</time>
      </trkpt>
      <trkpt lat="48.48924" lon="-0.0465">
        <ele>208.314</ele>
        <time>2020-12-24T02:05:35Z</time>
      </trkpt>
      <trkpt lat="48.48794" lon="-0.04176">
        <ele>232.839</ele>
        <time>2020-12-24T02:05:15Z</time>
      </trkpt>
      <trkpt lat="48.48821" lon="-0.04153">
        <ele>232.543</ele>
        <time>2020-12-24T02:04:55Z</time>
      </trkpt>
      <trkpt lat="48.48836" lon="-0.04113">
        <ele>234.908</ele>
        <time>2020-12-24T02:04:35Z</time>
      </trkpt>
      <trkpt lat="48.48868" lon="-0.03872">
        <ele>243.026</ele>
        <time>2020-12-24T02:04:15Z</time>
      </trkpt>
      <trkpt lat="48.48876" lon="-0.03675">
        <ele>247.433</ele>
        <time>2020-12-24T02:03:55Z</time>
      </trkpt>
      <trkpt lat="48.489" lon="-0.03655">
        <ele>244.678</ele>
        <time>2020-12-24T02:03:35Z</time>
      </trkpt>
      <trkpt lat="48.49098" lon="-0.03691">
        <ele>229.154</ele>
        <time>2020-12-24T02:03:15Z</time>
      </trkpt>
      <trkpt lat="48.49122" lon="-0.03685">
        <ele>226.985</ele>
        <time>2020-12-24T02:02:55Z</time>
      </trkpt>
      <trkpt lat="48.49117" lon="-0.03649">
        <ele>228.779</ele>
        <time>2020-12-24T02:02:35Z</time>
      </trkpt>
      <trkpt lat="48.49099" lon="-0.03611">
        <ele>231.847</ele>
        <time>2020-12-24T02:02:15Z</time>
      </trkpt>
      <trkpt lat="48.49099" lon="-0.03581">
        <ele>232.691</ele>
        <time>2020-12-24T02:01:55Z</time>
      </trkpt>
      <trkpt lat="48.49138" lon="-0.03546">
        <ele>227.918</ele>
        <time>2020-12-24T02:01:35Z</time>
      </trkpt>
      <trkpt lat="48.49164" lon="-0.03446">
        <ele>228.933</ele>
        <time>2020-12-24T02:01:15Z</time>
      </trkpt>
      <trkpt lat="48.49165" lon="-0.03385">
        <ele>232.027</ele>
        <time>2020-12-24T02:00:55Z</time>
      </trkpt>
      <trkpt lat="48.4919" lon="-0.03317">
        <ele>232.508</ele>
        <time>2020-12-24T02:00:35Z</time>
      </trkpt>
      <trkpt lat="48.49239" lon="-0.0325">
        <ele>231.319</ele>
        <time>2020-12-24T02:00:15Z</time>
      </trkpt>
      <trkpt lat="48.49307" lon="-0.03199">
        <ele>231.009</ele>
        <time>2020-12-24T01:59:55Z</time>
      </trkpt>
      <trkpt lat="48.49337" lon="-0.03204">
        <ele>229.019</ele>
        <time>2020-12-24T01:59:35Z</time>
      </trkpt>
      <trkpt lat="48.49336" lon="-0.03168">
        <ele>232.052</ele>
        <time>2020-12-24T01:59:15Z</time>
      </trkpt>
      <trkpt lat="48.49348" lon="-0.0313">
        <ele>233.873</ele>
        <time>2016-06-01T19:57:35Z</time>
      </trkpt>
      <trkpt lat="48.49442" lon="-0.02997">
        <ele>244.037</ele>
        <time>2016-06-01T19:57:15Z</time>
      </trkpt>
      <trkpt lat="48.49753" lon="-0.0256">
        <ele>257.895</ele>
        <time>2016-06-01T19:56:55Z</time>
      </trkpt>
      <trkpt lat="48.50111" lon="-0.02064">
        <ele>298.769</ele>
        <time>2016-06-01T19:56:35Z</time>
      </trkpt>
      <trkpt lat="48.50261" lon="-0.02296">
        <ele>299.276</ele>
        <time>2016-06-01T19:56:15Z</time>
      </trkpt>
      <trkpt lat="48.50288" lon="-0.02354">
        <ele>297.811</ele>
        <time>2016-06-01T19:55:55Z</time>
      </trkpt>
      <trkpt lat="48.50311" lon="-0.02497">
        <ele>293.185</ele>
        <time>2016-06-01T19:55:35Z</time>
      </trkpt>
      <trkpt lat="48.50346" lon="-0.02536">
        <ele>290.908</ele>
        <time>2016-06-01T19:55:15Z</time>
      </trkpt>
      <trkpt lat="48.50566" lon="-0.02729">
        <ele>298.72</ele>
        <time>2016-06-01T19:54:55Z</time>
      </trkpt>
      <trkpt lat="48.50613" lon="-0.0274">
        <ele>299.373</ele>
        <time>2016-06-01T19:54:35Z</time>
      </trkpt>
      <trkpt lat="48.50662" lon="-0.02723">
        <ele>299.092</ele>
        <time>2016-06-01T19:54:15Z</time>
      </trkpt>
      <trkpt lat="48.50731" lon="-0.02682">
        <ele>296.45</ele>
        <time>2016-06-01T19:53:55Z</time>
      </trkpt>
      <trkpt lat="48.50788" lon="-0.02661">
        <ele>292.611</ele>
        <time>2016-06-01T19:53:35Z</time>
      </trkpt>
      <trkpt lat="48.50847" lon="-0.02656">
        <ele>290.125</ele>
        <time>2016-06-01T19:53:15Z</time>
      </trkpt>
      <trkpt lat="48.50905" lon="-0.02673">
        <ele>285.443</ele>
        <time>2016-06-01T19:52:55Z</time>
      </trkpt>
      <trkpt lat="48.50937" lon="-0.02667">
        <ele>286.227</ele>
        <time>2016-06-01T19:52:35Z</time>
      </trkpt>
      <trkpt lat="48.5095" lon="-0.02676">
        <ele>284.494</ele>
        <time>2016-06-01T19:52:15Z</time>
      </trkpt>
      <trkpt lat="48.51044" lon="-0.02633">
        <ele>285.819</ele>
        <time>2016-06-01T19:51:55Z</time>
      </trkpt>
      <trkpt lat="48.51048" lon="-0.02611">
        <ele>286.783</ele>
        <time>2016-06-01T19:51:35Z</time>
      </trkpt>
      <trkpt lat="48.51048" lon="-0.02611">
        <ele>286.708</ele>
        <time>2016-06-01T19:51:15Z</time>
      </trkpt>
      <trkpt lat="48.51058" lon="-0.02588">
        <ele>288.526</ele>
        <time>2016-06-01T19:50:55Z</time>
      </trkpt>
      <trkpt lat="48.511" lon="-0.0257">
        <ele>287.733</ele>
        <time>2016-06-01T19:50:35Z</time>
      </trkpt>
      <trkpt lat="48.51115" lon="-0.02558">
        <ele>287.878</ele>
        <time>2016-06-01T19:50:15Z</time>
      </trkpt>
      <trkpt lat="48.51142" lon="-0.025">
        <ele>295.26</ele>
        <time>2016-06-01T19:49:55Z</time>
      </trkpt>
      <trkpt lat="48.51139" lon="-0.02422">
        <ele>303.491</ele>
        <time>2016-06-01T19:49:35Z</time>
      </trkpt>
      <trkpt lat="48.51148" lon="-0.02388">
        <ele>305.765</ele>
        <time>2016-06-01T19:49:15Z</time>
      </trkpt>
      <trkpt lat="48.51175" lon="-0.02358">
        <ele>306.873</ele>
        <time>2016-06-01T19:48:55Z</time>
      </trkpt>
      <trkpt lat="48.512" lon="-0.02313">
        <ele>306.987</ele>
        <time>2016-06-01T19:48:35Z</time>
      </trkpt>
      <trkpt lat="48.51215" lon="-0.02246">
        <ele>308.114</ele>
        <time>2016-06-01T19:48:15Z</time>
      </trkpt>
      <trkpt lat="48.5122" lon="-0.02184">
        <ele>310.359</ele>
        <time>2016-06-01T19:47:55Z</time>
      </trkpt>
      <trkpt lat="48.5122" lon="-0.02111">
        <ele>313.983</ele>
        <time>2016-06-01T19:47:35Z</time>
      </trkpt>
      <trkpt lat="48.51215" lon="-0.02047">
        <ele>317.008</ele>
        <time>2016-06-01T19:47:15Z</time>
      </trkpt>
      <trkpt lat="48.51199" lon="-0.02013">
        <ele>317.225</ele>
        <time>2016-06-01T19:46:55Z</time>
      </trkpt>
      <trkpt lat="48.51188" lon="-0.0197">
        <ele>317.505</ele>
        <time>2016-06-01T19:46:35Z</time>
      </trkpt>
      <trkpt lat="48.51188" lon="-0.01933">
        <ele>317.979</ele>
        <time>2016-06-01T19:46:15Z</time>
      </trkpt>
      <trkpt lat="48.51225" lon="-0.01753">
        <ele>320.636</ele>
        <time>2016-06-01T19:45:55Z</time>
      </trkpt>
      <trkpt lat="48.51235" lon="-0.01693">
        <ele>319.957</ele>
        <time>2016-06-01T19:45:35Z</time>
      </trkpt>
      <trkpt lat="48.51223" lon="-0.01643">
        <ele>321.961</ele>
        <time>2016-06-01T19:45:15Z</time>
      </trkpt>
      <trkpt lat="48.51209" lon="-0.01616">
        <ele>325.089</ele>
        <time>2016-06-01T19:44:55Z</time>
      </trkpt>
      <trkpt lat="48.51512" lon="-0.01225">
        <ele>298.013</ele>
        <time>2016-06-01T19:44:35Z</time>
      </trkpt>
      <trkpt lat="48.51535" lon="-0.01193">
        <ele>299.75</ele>
        <time>2016-06-01T19:44:15Z</time>
      </trkpt>
      <trkpt lat="48.51557" lon="-0.01189">
        <ele>298.095</ele>
        <time>2016-06-01T19:43:55Z</time>
      </trkpt>
      <trkpt lat="48.51562" lon="-0.01178">
        <ele>297.679</ele>
        <time>2016-06-01T19:43:35Z</time>
      </trkpt>
      <trkpt lat="48.51604" lon="-0.01025">
        <ele>300.308</ele>
        <time>2016-06-01T19:43:15Z</time>
      </trkpt>
      <trkpt lat="48.51633" lon="-0.0092">
        <ele>295.307</ele>
        <time>2016-06-01T19:42:55Z</time>
      </trkpt>
      <trkpt lat="48.51667" lon="-0.00845">
        <ele>296.361</ele>
        <time>2016-06-01T19:42:35Z</time>
      </trkpt>
      <trkpt lat="48.51688" lon="-0.00747">
        <ele>297.531</ele>
        <time>2016-06-01T19:42:15Z</time>
      </trkpt>
      <trkpt lat="48.5167" lon="-0.00723">
        <ele>304.032</ele>
        <time>2016-06-01T19:41:55Z</time>
      </trkpt>
      <trkpt lat="48.5167" lon="-0.00723">
        <ele>304.023</ele>
        <time>2016-06-01T19:41:35Z</time>
      </trkpt>
      <trkpt lat="48.51357" lon="0.01758">
        <ele>410.977</ele>
        <time>2016-06-01T19:41:15Z</time>
      </trkpt>
      <trkpt lat="48.519" lon="0.01565">
        <ele>383.635</ele>
        <time>2016-06-01T19:40:55Z</time>
      </trkpt>
      <trkpt lat="48.52512" lon="0.01981">
        <ele>375.689</ele>
        <time>2016-06-01T19:40:35Z</time>
      </trkpt>
      <trkpt lat="48.52536" lon="0.02002">
        <ele>376.956</ele>
        <time>2016-06-01T19:40:15Z</time>
      </trkpt>
      <trkpt lat="48.52845" lon="0.02208">
        <ele>383.471</ele>
        <time>2016-06-01T19:39:55Z</time>
      </trkpt>
      <trkpt lat="48.53298" lon="0.02519">
        <ele>375.465</ele>
        <time>2016-06-01T19:39:35Z</time>
      </trkpt>
      <trkpt lat="48.53467" lon="0.02625">
        <ele>375.708</ele>
        <time>2016-06-01T19:39:15Z</time>
      </trkpt>
      <trkpt lat="48.53973" lon="0.02968">
        <ele>374.321</ele>
        <time>2016-06-01T19:38:55Z</time>
      </trkpt>
      <trkpt lat="48.53983" lon="0.03425">
        <ele>378.165</ele>
        <time>2016-06-01T19:38:35Z</time>
      </trkpt>
      <trkpt lat="48.54388" lon="0.0368">
        <ele>384.093</ele>
        <time>2016-06-01T19:38:15Z</time>
      </trkpt>
      <trkpt lat="48.54377" lon="0.03734">
        <ele>384.318</ele>
        <time>2016-06-01T19:37:55Z</time>
      </trkpt>
      <trkpt lat="48.54885" lon="0.04073">
        <ele>405.459</ele>
        <time>2016-06-01T19:37:35Z</time>
      </trkpt>
      <trkpt lat="48.54882" lon="0.04294">
        <ele>410.413</ele>
        <time>2016-06-01T19:37:15Z</time>
      </trkpt>
      <trkpt lat="48.5509" lon="0.03715">
        <ele>410.341</ele>
        <time>2016-06-01T19:36:55Z</time>
      </trkpt>
      <trkpt lat="48.5509" lon="0.03715">
        <ele>410.315</ele>
        <time>2016-06-01T19:36:35Z</time>
      </trkpt>
      <trkpt lat="48.55091" lon="0.03715">
        <ele>410.312</ele>
        <time>2016-06-01T19:36:15Z</time>
      </trkpt>
      <trkpt lat="48.55672" lon="0.03545">
        <ele>357.977</ele>
        <time>2016-06-01T19:35:55Z</time>
      </trkpt>
      <trkpt lat="48.55784" lon="0.03112">
        <ele>350.861</ele>
        <time>2016-06-01T19:35:35Z</time>
      </trkpt>
      <trkpt lat="48.55828" lon="0.03131">
        <ele>349.908</ele>
        <time>2016-06-01T19:35:15Z</time>
      </trkpt>
      <trkpt lat="48.55764" lon="0.01936">
        <ele>366.823</ele>
        <time>2016-06-01T19:34:55Z</time>
      </trkpt>
      <trkpt lat="48.55902" lon="0.00318">
        <ele>375.203</ele>
        <time>2016-06-01T19:34:35Z</time>
      </trkpt>
      <trkpt lat="48.55936" lon="0.00337">
        <ele>370.659</ele>
        <time>2016-06-01T19:34:15Z</time>
      </trkpt>
      <trkpt lat="48.55972" lon="0.00367">
        <ele>365.184</ele>
        <time>2016-06-01T19:33:55Z</time>
      </trkpt>
      <trkpt lat="48.56004" lon="0.00361">
        <ele>362.395</ele>
        <time>2016-06-01T19:33:35Z</time>
      </trkpt>
      <trkpt lat="48.56027" lon="0.00384">
        <ele>357.389</ele>
        <time>2016-06-01T19:33:15Z</time>
      </trkpt>
      <trkpt lat="48.56078" lon="0.00434">
        <ele>353.277</ele>
        <time>2016-06-01T19:32:55Z</time>
      </trkpt>
      <trkpt lat="48.56146" lon="0.00453">
        <ele>346.911</ele>
        <time>2016-06-01T19:32:35Z</time>
      </trkpt>
      <trkpt lat="48.5618" lon="0.0049">
        <ele>342.298</ele>
        <time>2016-06-01T19:32:15Z</time>
      </trkpt>
      <trkpt lat="48.56268" lon="0.00509">
        <ele>332.383</ele>
        <time>2016-06-01T19:31:55Z</time>
      </trkpt>
      <trkpt lat="48.56287" lon="0.00483">
        <ele>328.827</ele>
        <time>2016-06-01T19:31:35Z</time>
      </trkpt>
      <trkpt lat="48.56335" lon="0.00464">
        <ele>323.208</ele>
        <time>2016-06-01T19:31:15Z</time>
      </trkpt>
      <trkpt lat="48.56442" lon="0.00505">
        <ele>316.015</ele>
        <time>2016-06-01T19:30:55Z</time>
      </trkpt>
      <trkpt lat="48.56496" lon="0.00539">
        <ele>308.687</ele>
        <time>2016-06-01T19:30:35Z</time>
      </trkpt>
      <trkpt lat="48.56471" lon="0.00429">
        <ele>312.517</ele>
        <time>2016-06-01T19:30:15Z</time>
      </trkpt>
      <trkpt lat="48.5645" lon="0.00417">
        <ele>313.642</ele>
        <time>2016-06-01T19:29:55Z</time>
      </trkpt>
      <trkpt lat="48.56437" lon="0.00387">
        <ele>313.353</ele>
        <time>2016-06-01T19:29:35Z</time>
      </trkpt>
      <trkpt lat="48.56402" lon="0.00346">
        <ele>314.877</ele>
        <time>2016-06-01T19:29:15Z</time>
      </trkpt>
      <trkpt lat="48.56403" lon="0.00247">
        <ele>319.925</ele>
        <time>2016-06-01T19:28:55Z</time>
      </trkpt>
      <trkpt lat="48.56372" lon="0.00236">
        <ele>321.029</ele>
        <time>2016-06-01T19:28:35Z</time>
      </trkpt>
      <trkpt lat="48.56322" lon="0.00223">
        <ele>323.776</ele>
        <time>2016-06-01T19:28:15Z</time>
      </trkpt>
      <trkpt lat="48.56281" lon="0.00223">
        <ele>325.871</ele>
        <time>2016-06-01T19:27:55Z</time>
      </trkpt>
      <trkpt lat="48.56182" lon="0.00189">
        <ele>326.985</ele>
        <time>2016-06-01T19:27:35Z</time>
      </trkpt>
      <trkpt lat="48.56136" lon="0.0014">
        <ele>334.708</ele>
        <time>2016-06-01T19:27:15Z</time>
      </trkpt>
      <trkpt lat="48.56105" lon="0.00071">
        <ele>342.223</ele>
        <time>2016-06-01T19:26:55Z</time>
      </trkpt>
      <trkpt lat="48.56094" lon="-2.0E-5">
        <ele>349.649</ele>
        <time>2016-06-01T19:26:35Z</time>
      </trkpt>
      <trkpt lat="48.5605" lon="-0.00103">
        <ele>353.495</ele>
        <time>2016-06-01T19:26:15Z</time>
      </trkpt>
      <trkpt lat="48.56001" lon="-0.00148">
        <ele>354.197</ele>
        <time>2016-06-01T19:25:55Z</time>
      </trkpt>
      <trkpt lat="48.5598" lon="-0.00186">
        <ele>357.668</ele>
        <time>2016-06-01T19:25:35Z</time>
      </trkpt>
      <trkpt lat="48.55952" lon="-0.00214">
        <ele>359.922</ele>
        <time>2016-06-01T19:25:15Z</time>
      </trkpt>
      <trkpt lat="48.56109" lon="-0.02062">
        <ele>397.01</ele>
        <time>2016-06-01T19:24:55Z</time>
      </trkpt>
      <trkpt lat="48.56332" lon="-0.02352">
        <ele>388.744</ele>
        <time>2016-06-01T19:24:35Z</time>
      </trkpt>
      <trkpt lat="48.56195" lon="-0.02442">
        <ele>394.081</ele>
        <time>2016-06-01T19:24:15Z</time>
      </trkpt>
      <trkpt lat="48.55817" lon="-0.03326">
        <ele>401.336</ele>
        <time>2016-06-01T19:23:55Z</time>
      </trkpt>
      <trkpt lat="48.55834" lon="-0.03377">
        <ele>397.49</ele>
        <time>2016-06-01T19:23:35Z</time>
      </trkpt>
      <trkpt lat="48.55849" lon="-0.03407">
        <ele>396.208</ele>
        <time>2016-06-01T19:23:15Z</time>
      </trkpt>
      <trkpt lat="48.55862" lon="-0.03493">
        <ele>396.91</ele>
        <time>2016-06-01T19:22:55Z</time>
      </trkpt>
      <trkpt lat="48.55854" lon="-0.03515">
        <ele>396.564</ele>
        <time>2016-06-01T19:22:35Z</time>
      </trkpt>
      <trkpt lat="48.55855" lon="-0.03686">
        <ele>388.543</ele>
        <time>2016-06-01T19:22:15Z</time>
      </trkpt>
      <trkpt lat="48.55865" lon="-0.03721">
        <ele>386.692</ele>
        <time>2016-06-01T19:21:55Z</time>
      </trkpt>
      <trkpt lat="48.55876" lon="-0.03787">
        <ele>384.253</ele>
        <time>2016-06-01T19:21:35Z</time>
      </trkpt>
      <trkpt lat="48.55871" lon="-0.03849">
        <ele>384.157</ele>
        <time>2016-06-01T19:21:15Z</time>
      </trkpt>
      <trkpt lat="48.55857" lon="-0.03892">
        <ele>383.865</ele>
        <time>2016-06-01T19:20:55Z</time>
      </trkpt>
      <trkpt lat="48.55866" lon="-0.03939">
        <ele>381.689</ele>
        <time>2016-06-01T19:20:35Z</time>
      </trkpt>
      <trkpt lat="48.55882" lon="-0.03946">
        <ele>382.526</ele>
        <time>2016-06-01T19:20:15Z</time>
      </trkpt>
      <trkpt lat="48.55952" lon="-0.04388">
        <ele>364.571</ele>
        <time>2016-06-01T19:19:55Z</time>
      </trkpt>
      <trkpt lat="48.55946" lon="-0.04429">
        <ele>363.875</ele>
        <time>2016-06-01T19:19:35Z</time>
      </trkpt>
      <trkpt lat="48.55974" lon="-0.04635">
        <ele>362.708</ele>
        <time>2016-06-01T19:19:15Z</time>
      </trkpt>
      <trkpt lat="48.56027" lon="-0.04948">
        <ele>351.826</ele>
        <time>2016-06-01T19:18:55Z</time>
      </trkpt>
      <trkpt lat="48.56045" lon="-0.04997">
        <ele>348.415</ele>
        <time>2016-06-01T19:18:35Z</time>
      </trkpt>
      <trkpt lat="48.56065" lon="-0.04984">
        <ele>347.798</ele>
        <time>2016-06-01T19:18:15Z</time>
      </trkpt>
      <trkpt lat="48.55972" lon="-0.05662">
        <ele>359.911</ele>
        <time>2016-06-01T19:17:55Z</time>
      </trkpt>
      <trkpt lat="48.56368" lon="-0.05771">
        <ele>357.162</ele>
        <time>2020-12-24T01:18:55Z</time>
      </trkpt>
      <trkpt lat="48.56537" lon="-0.05686">
        <ele>353.816</ele>
        <time>2020-12-24T01:18:35Z</time>
      </trkpt>
      <trkpt lat="48.56673" lon="-0.05871">
        <ele>348.864</ele>
        <time>2016-06-01T19:16:55Z</time>
      </trkpt>
      <trkpt lat="48.56673" lon="-0.05871">
        <ele>348.838</ele>
        <time>2016-06-01T19:16:35Z</time>
      </trkpt>
      <trkpt lat="48.57183" lon="-0.06032">
        <ele>352.645</ele>
        <time>2016-06-01T19:16:15Z</time>
      </trkpt>
      <trkpt lat="48.57206" lon="-0.06025">
        <ele>351.91</ele>
        <time>2016-06-01T19:15:55Z</time>
      </trkpt>
      <trkpt lat="48.57237" lon="-0.06044">
        <ele>352.314</ele>
        <time>2016-06-01T19:15:35Z</time>
      </trkpt>
      <trkpt lat="48.58882" lon="-0.06557">
        <ele>371.608</ele>
        <time>2016-06-01T19:15:15Z</time>
      </trkpt>
      <trkpt lat="48.58882" lon="-0.06557">
        <ele>371.608</ele>
        <time>2016-06-01T19:15:15Z</time>
      </trkpt>
      <trkpt lat="48.59647" lon="-0.05746">
        <ele>290.726</ele>
        <time>2016-06-01T19:14:55Z</time>
      </trkpt>
      <trkpt lat="48.59681" lon="-0.0572">
        <ele>287.46</ele>
        <time>2016-06-01T19:14:35Z</time>
      </trkpt>
      <trkpt lat="48.5981" lon="-0.05804">
        <ele>279.686</ele>
        <time>2016-06-01T19:14:15Z</time>
      </trkpt>
      <trkpt lat="48.59817" lon="-0.05922">
        <ele>277.035</ele>
        <time>2016-06-01T19:13:55Z</time>
      </trkpt>
      <trkpt lat="48.59846" lon="-0.06014">
        <ele>273.956</ele>
        <time>2016-06-01T19:13:35Z</time>
      </trkpt>
      <trkpt lat="48.59874" lon="-0.06098">
        <ele>270.95</ele>
        <time>2016-06-01T19:13:15Z</time>
      </trkpt>
      <trkpt lat="48.59908" lon="-0.06141">
        <ele>274.158</ele>
        <time>2016-06-01T19:12:55Z</time>
      </trkpt>
      <trkpt lat="48.59979" lon="-0.06169">
        <ele>270.252</ele>
        <time>2016-06-01T19:12:35Z</time>
      </trkpt>
      <trkpt lat="48.60071" lon="-0.06177">
        <ele>264.259</ele>
        <time>2016-06-01T19:12:15Z</time>
      </trkpt>
      <trkpt lat="48.60151" lon="-0.06186">
        <ele>260.414</ele>
        <time>2016-06-01T19:11:55Z</time>
      </trkpt>
      <trkpt lat="48.60195" lon="-0.06233">
        <ele>264.658</ele>
        <time>2016-06-01T19:11:35Z</time>
      </trkpt>
      <trkpt lat="48.60222" lon="-0.06244">
        <ele>265.908</ele>
        <time>2016-06-01T19:11:15Z</time>
      </trkpt>
      <trkpt lat="48.60351" lon="-0.06231">
        <ele>261.311</ele>
        <time>2016-06-01T19:10:55Z</time>
      </trkpt>
      <trkpt lat="48.6042" lon="-0.06261">
        <ele>258.283</ele>
        <time>2016-06-01T19:10:35Z</time>
      </trkpt>
      <trkpt lat="48.60476" lon="-0.06302">
        <ele>255.423</ele>
        <time>2016-06-01T19:10:15Z</time>
      </trkpt>
      <trkpt lat="48.60484" lon="-0.06353">
        <ele>260.752</ele>
        <time>2016-06-01T19:09:55Z</time>
      </trkpt>
      <trkpt lat="48.6046" lon="-0.06416">
        <ele>271.743</ele>
        <time>2016-06-01T19:09:35Z</time>
      </trkpt>
      <trkpt lat="48.60459" lon="-0.06467">
        <ele>271.547</ele>
        <time>2016-06-01T19:09:15Z</time>
      </trkpt>
      <trkpt lat="48.60477" lon="-0.06553">
        <ele>267.635</ele>
        <time>2016-06-01T19:08:55Z</time>
      </trkpt>
      <trkpt lat="48.60613" lon="-0.06383">
        <ele>250.369</ele>
        <time>2016-06-01T19:08:35Z</time>
      </trkpt>
      <trkpt lat="48.60598" lon="-0.06295">
        <ele>247.336</ele>
        <time>2016-06-01T19:08:15Z</time>
      </trkpt>
      <trkpt lat="48.60611" lon="-0.06276">
        <ele>246.091</ele>
        <time>2016-06-01T19:07:55Z</time>
      </trkpt>
      <trkpt lat="48.60622" lon="-0.06186">
        <ele>247.515</ele>
        <time>2016-06-01T19:07:35Z</time>
      </trkpt>
      <trkpt lat="48.6062" lon="-0.06085">
        <ele>255.108</ele>
        <time>2016-06-01T19:07:15Z</time>
      </trkpt>
      <trkpt lat="48.60632" lon="-0.05963">
        <ele>268.319</ele>
        <time>2016-06-01T19:06:55Z</time>
      </trkpt>
      <trkpt lat="48.60613" lon="-0.05879">
        <ele>277.781</ele>
        <time>2016-06-01T19:06:35Z</time>
      </trkpt>
      <trkpt lat="48.6062" lon="-0.05853">
        <ele>279.391</ele>
        <time>2016-06-01T19:06:15Z</time>
      </trkpt>
      <trkpt lat="48.60721" lon="-0.05695">
        <ele>287.256</ele>
        <time>2016-06-01T19:05:55Z</time>
      </trkpt>
      <trkpt lat="48.60751" lon="-0.05575">
        <ele>298.157</ele>
        <time>2016-06-01T19:05:35Z</time>
      </trkpt>
      <trkpt lat="48.60784" lon="-0.0554">
        <ele>298.281</ele>
        <time>2016-06-01T19:05:15Z</time>
      </trkpt>
      <trkpt lat="48.60863" lon="-0.05502">
        <ele>293.759</ele>
        <time>2016-06-01T19:04:55Z</time>
      </trkpt>
      <trkpt lat="48.60859" lon="-0.05446">
        <ele>300.043</ele>
        <time>2016-06-01T19:04:35Z</time>
      </trkpt>
      <trkpt lat="48.60864" lon="-0.05216">
        <ele>312.86</ele>
        <time>2016-06-01T19:04:15Z</time>
      </trkpt>
      <trkpt lat="48.60843" lon="-0.05186">
        <ele>316.975</ele>
        <time>2016-06-01T19:03:55Z</time>
      </trkpt>
      <trkpt lat="48.60809" lon="-0.05085">
        <ele>322.859</ele>
        <time>2016-06-01T19:03:35Z</time>
      </trkpt>
      <trkpt lat="48.60768" lon="-0.05014">
        <ele>324.208</ele>
        <time>2016-06-01T19:03:15Z</time>
      </trkpt>
      <trkpt lat="48.60781" lon="-0.04931">
        <ele>320.615</ele>
        <time>2016-06-01T19:02:55Z</time>
      </trkpt>
      <trkpt lat="48.60791" lon="-0.04796">
        <ele>321.523</ele>
        <time>2016-06-01T19:02:35Z</time>
      </trkpt>
      <trkpt lat="48.60811" lon="-0.04643">
        <ele>323.533</ele>
        <time>2016-06-01T19:02:15Z</time>
      </trkpt>
      <trkpt lat="48.60829" lon="-0.04538">
        <ele>324.624</ele>
        <time>2016-06-01T19:01:55Z</time>
      </trkpt>
      <trkpt lat="48.60826" lon="-0.04478">
        <ele>325.745</ele>
        <time>2016-06-01T19:01:35Z</time>
      </trkpt>
      <trkpt lat="48.60777" lon="-0.04442">
        <ele>326.159</ele>
        <time>2016-06-01T19:01:15Z</time>
      </trkpt>
      <trkpt lat="48.60656" lon="-0.04392">
        <ele>330.057</ele>
        <time>2016-06-01T19:00:55Z</time>
      </trkpt>
      <trkpt lat="48.60598" lon="-0.04388">
        <ele>332.111</ele>
        <time>2016-06-01T19:00:35Z</time>
      </trkpt>
      <trkpt lat="48.60558" lon="-0.04405">
        <ele>332.538</ele>
        <time>2016-06-01T19:00:15Z</time>
      </trkpt>
      <trkpt lat="48.60477" lon="-0.04083">
        <ele>338.533</ele>
        <time>2016-06-01T18:59:55Z</time>
      </trkpt>
      <trkpt lat="48.60477" lon="-0.04051">
        <ele>338.257</ele>
        <time>2016-06-01T18:59:35Z</time>
      </trkpt>
      <trkpt lat="48.60951" lon="-0.03933">
        <ele>328.508</ele>
        <time>2016-06-01T18:59:15Z</time>
      </trkpt>
      <trkpt lat="48.60972" lon="-0.03897">
        <ele>327.015</ele>
        <time>2016-06-01T18:58:55Z</time>
      </trkpt>
      <trkpt lat="48.60998" lon="-0.03875">
        <ele>325.187</ele>
        <time>2016-06-01T18:58:35Z</time>
      </trkpt>
      <trkpt lat="48.61013" lon="-0.03851">
        <ele>324.217</ele>
        <time>2016-06-01T18:58:15Z</time>
      </trkpt>
      <trkpt lat="48.61053" lon="-0.0374">
        <ele>320.076</ele>
        <time>2016-06-01T18:57:55Z</time>
      </trkpt>
      <trkpt lat="48.61067" lon="-0.03706">
        <ele>320.017</ele>
        <time>2016-06-01T18:57:35Z</time>
      </trkpt>
      <trkpt lat="48.61089" lon="-0.03684">
        <ele>319.971</ele>
        <time>2016-06-01T18:57:15Z</time>
      </trkpt>
      <trkpt lat="48.61109" lon="-0.03654">
        <ele>320.179</ele>
        <time>2016-06-01T18:56:55Z</time>
      </trkpt>
      <trkpt lat="48.61121" lon="-0.03618">
        <ele>318.323</ele>
        <time>2016-06-01T18:56:35Z</time>
      </trkpt>
      <trkpt lat="48.6112" lon="-0.03575">
        <ele>317.24</ele>
        <time>2016-06-01T18:56:15Z</time>
      </trkpt>
      <trkpt lat="48.61131" lon="-0.03536">
        <ele>312.035</ele>
        <time>2016-06-01T18:55:55Z</time>
      </trkpt>
      <trkpt lat="48.61175" lon="-0.03515">
        <ele>300.479</ele>
        <time>2016-06-01T18:55:35Z</time>
      </trkpt>
      <trkpt lat="48.61204" lon="-0.0353">
        <ele>294.808</ele>
        <time>2016-06-01T18:55:15Z</time>
      </trkpt>
      <trkpt lat="48.61274" lon="-0.03622">
        <ele>286.711</ele>
        <time>2016-06-01T18:54:55Z</time>
      </trkpt>
      <trkpt lat="48.61317" lon="-0.03712">
        <ele>282.892</ele>
        <time>2016-06-01T18:54:35Z</time>
      </trkpt>
      <trkpt lat="48.6136" lon="-0.03746">
        <ele>277.432</ele>
        <time>2016-06-01T18:54:15Z</time>
      </trkpt>
      <trkpt lat="48.61384" lon="-0.03755">
        <ele>273.971</ele>
        <time>2016-06-01T18:53:55Z</time>
      </trkpt>
      <trkpt lat="48.61511" lon="-0.03665">
        <ele>251.652</ele>
        <time>2016-06-01T18:53:35Z</time>
      </trkpt>
      <trkpt lat="48.6188" lon="-0.03738">
        <ele>230.526</ele>
        <time>2016-06-01T18:53:15Z</time>
      </trkpt>
      <trkpt lat="48.61892" lon="-0.03427">
        <ele>230.914</ele>
        <time>2016-06-01T18:52:55Z</time>
      </trkpt>
      <trkpt lat="48.61906" lon="-0.03403">
        <ele>230.498</ele>
        <time>2016-06-01T18:52:35Z</time>
      </trkpt>
      <trkpt lat="48.61955" lon="-0.03424">
        <ele>228.695</ele>
        <time>2016-06-01T18:52:15Z</time>
      </trkpt>
      <trkpt lat="48.62016" lon="-0.03459">
        <ele>225.94</ele>
        <time>2016-06-01T18:51:55Z</time>
      </trkpt>
      <trkpt lat="48.62036" lon="-0.03463">
        <ele>225.034</ele>
        <time>2016-06-01T18:51:35Z</time>
      </trkpt>
      <trkpt lat="48.62073" lon="-0.03444">
        <ele>225.708</ele>
        <time>2016-06-01T18:51:15Z</time>
      </trkpt>
      <trkpt lat="48.62103" lon="-0.03444">
        <ele>225.317</ele>
        <time>2016-06-01T18:50:55Z</time>
      </trkpt>
      <trkpt lat="48.62157" lon="-0.03463">
        <ele>223.143</ele>
        <time>2016-06-01T18:50:35Z</time>
      </trkpt>
      <trkpt lat="48.62181" lon="-0.03452">
        <ele>223.982</ele>
        <time>2016-06-01T18:50:15Z</time>
      </trkpt>
      <trkpt lat="48.62216" lon="-0.03424">
        <ele>223.425</ele>
        <time>2016-06-01T18:49:55Z</time>
      </trkpt>
      <trkpt lat="48.62252" lon="-0.0342">
        <ele>220.126</ele>
        <time>2016-06-01T18:49:35Z</time>
      </trkpt>
      <trkpt lat="48.62284" lon="-0.03435">
        <ele>218.94</ele>
        <time>2016-06-01T18:49:15Z</time>
      </trkpt>
      <trkpt lat="48.62328" lon="-0.03446">
        <ele>219.038</ele>
        <time>2016-06-01T18:48:55Z</time>
      </trkpt>
      <trkpt lat="48.6238" lon="-0.03437">
        <ele>217.322</ele>
        <time>2016-06-01T18:48:35Z</time>
      </trkpt>
      <trkpt lat="48.62435" lon="-0.03446">
        <ele>216.359</ele>
        <time>2016-06-01T18:48:15Z</time>
      </trkpt>
      <trkpt lat="48.62473" lon="-0.03424">
        <ele>216.034</ele>
        <time>2016-06-01T18:47:55Z</time>
      </trkpt>
      <trkpt lat="48.62496" lon="-0.03397">
        <ele>215.328</ele>
        <time>2016-06-01T18:47:35Z</time>
      </trkpt>
      <trkpt lat="48.62534" lon="-0.03369">
        <ele>213.808</ele>
        <time>2016-06-01T18:47:15Z</time>
      </trkpt>
      <trkpt lat="48.62565" lon="-0.03373">
        <ele>213.005</ele>
        <time>2016-06-01T18:46:55Z</time>
      </trkpt>
      <trkpt lat="48.62612" lon="-0.03356">
        <ele>213.041</ele>
        <time>2016-06-01T18:46:35Z</time>
      </trkpt>
      <trkpt lat="48.62666" lon="-0.0327">
        <ele>210.721</ele>
        <time>2016-06-01T18:46:15Z</time>
      </trkpt>
      <trkpt lat="48.62791" lon="-0.03118">
        <ele>204.962</ele>
        <time>2016-06-01T18:45:55Z</time>
      </trkpt>
      <trkpt lat="48.62829" lon="-0.03038">
        <ele>203.223</ele>
        <time>2016-06-01T18:45:35Z</time>
      </trkpt>
      <trkpt lat="48.6285" lon="-0.03017">
        <ele>202.027</ele>
        <time>2016-06-01T18:45:15Z</time>
      </trkpt>
      <trkpt lat="48.62879" lon="-0.03017">
        <ele>201.695</ele>
        <time>2016-06-01T18:44:55Z</time>
      </trkpt>
      <trkpt lat="48.62957" lon="-0.03058">
        <ele>200.939</ele>
        <time>2016-06-01T18:44:35Z</time>
      </trkpt>
      <trkpt lat="48.62979" lon="-0.03066">
        <ele>200.586</ele>
        <time>2016-06-01T18:44:15Z</time>
      </trkpt>
      <trkpt lat="48.63035" lon="-0.0303">
        <ele>200.281</ele>
        <time>2016-06-01T18:43:55Z</time>
      </trkpt>
      <trkpt lat="48.63113" lon="-0.02946">
        <ele>206.045</ele>
        <time>2016-06-01T18:43:35Z</time>
      </trkpt>
      <trkpt lat="48.63158" lon="-0.02837">
        <ele>210.008</ele>
        <time>2016-06-01T18:43:15Z</time>
      </trkpt>
      <trkpt lat="48.63209" lon="-0.02774">
        <ele>213.625</ele>
        <time>2016-06-01T18:42:55Z</time>
      </trkpt>
      <trkpt lat="48.63266" lon="-0.02712">
        <ele>220.823</ele>
        <time>2016-06-01T18:42:35Z</time>
      </trkpt>
      <trkpt lat="48.63764" lon="-0.02319">
        <ele>264.297</ele>
        <time>2016-06-01T18:42:15Z</time>
      </trkpt>
      <trkpt lat="48.63819" lon="-0.023">
        <ele>269.161</ele>
        <time>2016-06-01T18:41:55Z</time>
      </trkpt>
      <trkpt lat="48.63835" lon="-0.02285">
        <ele>269.862</ele>
        <time>2016-06-01T18:41:35Z</time>
      </trkpt>
      <trkpt lat="48.63859" lon="-0.02281">
        <ele>270.066</ele>
        <time>2016-06-01T18:41:15Z</time>
      </trkpt>
      <trkpt lat="48.63876" lon="-0.02307">
        <ele>270.534</ele>
        <time>2016-06-01T18:40:55Z</time>
      </trkpt>
      <trkpt lat="48.63941" lon="-0.02652">
        <ele>270.158</ele>
        <time>2016-06-01T18:40:35Z</time>
      </trkpt>
      <trkpt lat="48.63954" lon="-0.02764">
        <ele>269.585</ele>
        <time>2016-06-01T18:40:15Z</time>
      </trkpt>
      <trkpt lat="48.63995" lon="-0.03025">
        <ele>265.39</ele>
        <time>2016-06-01T18:39:55Z</time>
      </trkpt>
      <trkpt lat="48.64015" lon="-0.03079">
        <ele>263.814</ele>
        <time>2016-06-01T18:39:35Z</time>
      </trkpt>
      <trkpt lat="48.64037" lon="-0.0318">
        <ele>262.908</ele>
        <time>2016-06-01T18:39:15Z</time>
      </trkpt>
      <trkpt lat="48.64066" lon="-0.03259">
        <ele>261.717</ele>
        <time>2016-06-01T18:38:55Z</time>
      </trkpt>
      <trkpt lat="48.64284" lon="-0.04036">
        <ele>259.661</ele>
        <time>2016-06-01T18:38:35Z</time>
      </trkpt>
      <trkpt lat="48.64353" lon="-0.04347">
        <ele>251.581</ele>
        <time>2016-06-01T18:38:15Z</time>
      </trkpt>
      <trkpt lat="48.64336" lon="-0.04366">
        <ele>251.059</ele>
        <time>2016-06-01T18:37:55Z</time>
      </trkpt>
      <trkpt lat="48.64406" lon="-0.04562">
        <ele>248.43</ele>
        <time>2016-06-01T18:37:35Z</time>
      </trkpt>
      <trkpt lat="48.64429" lon="-0.04628">
        <ele>247.674</ele>
        <time>2016-06-01T18:37:15Z</time>
      </trkpt>
      <trkpt lat="48.64504" lon="-0.04909">
        <ele>243.042</ele>
        <time>2016-06-01T18:36:55Z</time>
      </trkpt>
      <trkpt lat="48.64502" lon="-0.04926">
        <ele>243.096</ele>
        <time>2016-06-01T18:36:35Z</time>
      </trkpt>
      <trkpt lat="48.6457" lon="-0.05057">
        <ele>241.653</ele>
        <time>2016-06-01T18:36:15Z</time>
      </trkpt>
      <trkpt lat="48.64599" lon="-0.05178">
        <ele>244.128</ele>
        <time>2016-06-01T18:35:55Z</time>
      </trkpt>
      <trkpt lat="48.64637" lon="-0.05259">
        <ele>244.242</ele>
        <time>2016-06-01T18:35:35Z</time>
      </trkpt>
      <trkpt lat="48.64661" lon="-0.05495">
        <ele>237.008</ele>
        <time>2016-06-01T18:35:15Z</time>
      </trkpt>
      <trkpt lat="48.64664" lon="-0.05585">
        <ele>236.926</ele>
        <time>2016-06-01T18:34:55Z</time>
      </trkpt>
      <trkpt lat="48.64678" lon="-0.05701">
        <ele>237.342</ele>
        <time>2016-06-01T18:34:35Z</time>
      </trkpt>
      <trkpt lat="48.65356" lon="-0.05572">
        <ele>263.368</ele>
        <time>2016-06-01T18:34:15Z</time>
      </trkpt>
      <trkpt lat="48.65388" lon="-0.05579">
        <ele>263.099</ele>
        <time>2016-06-01T18:33:55Z</time>
      </trkpt>
      <trkpt lat="48.65437" lon="-0.05566">
        <ele>262.41</ele>
        <time>2016-06-01T18:33:35Z</time>
      </trkpt>
      <trkpt lat="48.65473" lon="-0.05592">
        <ele>260.764</ele>
        <time>2016-06-01T18:33:15Z</time>
      </trkpt>
      <trkpt lat="48.65509" lon="-0.05579">
        <ele>260.872</ele>
        <time>2016-06-01T18:32:55Z</time>
      </trkpt>
      <trkpt lat="48.65585" lon="-0.056">
        <ele>258.436</ele>
        <time>2016-06-01T18:32:35Z</time>
      </trkpt>
      <trkpt lat="48.65631" lon="-0.05566">
        <ele>259.033</ele>
        <time>2016-06-01T18:32:15Z</time>
      </trkpt>
      <trkpt lat="48.65704" lon="-0.05551">
        <ele>258.028</ele>
        <time>2016-06-01T18:31:55Z</time>
      </trkpt>
      <trkpt lat="48.65815" lon="-0.05551">
        <ele>257.042</ele>
        <time>2016-06-01T18:31:35Z</time>
      </trkpt>
      <trkpt lat="48.65815" lon="-0.05551">
        <ele>257.008</ele>
        <time>2016-06-01T18:31:15Z</time>
      </trkpt>
      <trkpt lat="48.66015" lon="-0.0554">
        <ele>252.414</ele>
        <time>2016-06-01T18:30:55Z</time>
      </trkpt>
      <trkpt lat="48.66063" lon="-0.05549">
        <ele>248.368</ele>
        <time>2016-06-01T18:30:35Z</time>
      </trkpt>
      <trkpt lat="48.66175" lon="-0.0554">
        <ele>242.265</ele>
        <time>2016-06-01T18:30:15Z</time>
      </trkpt>
      <trkpt lat="48.66467" lon="-0.05527">
        <ele>225.351</ele>
        <time>2016-06-01T18:29:55Z</time>
      </trkpt>
      <trkpt lat="48.66468" lon="-0.05514">
        <ele>224.382</ele>
        <time>2016-06-01T18:29:35Z</time>
      </trkpt>
      <trkpt lat="48.66461" lon="-0.05452">
        <ele>221.556</ele>
        <time>2016-06-01T18:29:15Z</time>
      </trkpt>
      <trkpt lat="48.66457" lon="-0.05392">
        <ele>223.074</ele>
        <time>2016-06-01T18:28:55Z</time>
      </trkpt>
      <trkpt lat="48.66526" lon="-0.05338">
        <ele>218.248</ele>
        <time>2016-06-01T18:28:35Z</time>
      </trkpt>
      <trkpt lat="48.66568" lon="-0.05321">
        <ele>215.865</ele>
        <time>2016-06-01T18:28:15Z</time>
      </trkpt>
      <trkpt lat="48.66604" lon="-0.05319">
        <ele>209.78</ele>
        <time>2016-06-01T18:27:55Z</time>
      </trkpt>
      <trkpt lat="48.66627" lon="-0.05341">
        <ele>206.284</ele>
        <time>2016-06-01T18:27:35Z</time>
      </trkpt>
      <trkpt lat="48.66674" lon="-0.05392">
        <ele>202.508</ele>
        <time>2016-06-01T18:27:15Z</time>
      </trkpt>
      <trkpt lat="48.66701" lon="-0.0548">
        <ele>201.026</ele>
        <time>2016-06-01T18:26:55Z</time>
      </trkpt>
      <trkpt lat="48.66748" lon="-0.05538">
        <ele>200.406</ele>
        <time>2016-06-01T18:26:35Z</time>
      </trkpt>
      <trkpt lat="48.66936" lon="-0.05673">
        <ele>185.689</ele>
        <time>2016-06-01T18:26:15Z</time>
      </trkpt>
      <trkpt lat="48.67047" lon="-0.05733">
        <ele>188.776</ele>
        <time>2016-06-01T18:25:55Z</time>
      </trkpt>
      <trkpt lat="48.67047" lon="-0.05781">
        <ele>188.617</ele>
        <time>2016-06-01T18:25:35Z</time>
      </trkpt>
      <trkpt lat="48.67055" lon="-0.05873">
        <ele>187.021</ele>
        <time>2016-06-01T18:25:15Z</time>
      </trkpt>
      <trkpt lat="48.67066" lon="-0.05954">
        <ele>186.499</ele>
        <time>2016-06-01T18:24:55Z</time>
      </trkpt>
      <trkpt lat="48.67081" lon="-0.05971">
        <ele>186.923</ele>
        <time>2016-06-01T18:24:35Z</time>
      </trkpt>
      <trkpt lat="48.67103" lon="-0.06012">
        <ele>187.01</ele>
        <time>2016-06-01T18:24:15Z</time>
      </trkpt>
      <trkpt lat="48.67115" lon="-0.06057">
        <ele>186.175</ele>
        <time>2016-06-01T18:23:55Z</time>
      </trkpt>
      <trkpt lat="48.67133" lon="-0.06132">
        <ele>184.839</ele>
        <time>2016-06-01T18:23:35Z</time>
      </trkpt>
      <trkpt lat="48.67159" lon="-0.06173">
        <ele>184.808</ele>
        <time>2016-06-01T18:23:15Z</time>
      </trkpt>
      <trkpt lat="48.67187" lon="-0.06246">
        <ele>181.413</ele>
        <time>2016-06-01T18:22:55Z</time>
      </trkpt>
      <trkpt lat="48.67214" lon="-0.06272">
        <ele>182.949</ele>
        <time>2016-06-01T18:22:35Z</time>
      </trkpt>
      <trkpt lat="48.67236" lon="-0.06263">
        <ele>183.237</ele>
        <time>2016-06-01T18:22:15Z</time>
      </trkpt>
      <trkpt lat="48.67272" lon="-0.06429">
        <ele>181.136</ele>
        <time>2016-06-01T18:21:55Z</time>
      </trkpt>
      <trkpt lat="48.67252" lon="-0.06478">
        <ele>181.387</ele>
        <time>2016-06-01T18:21:35Z</time>
      </trkpt>
      <trkpt lat="48.67252" lon="-0.06521">
        <ele>182.931</ele>
        <time>2016-06-01T18:21:15Z</time>
      </trkpt>
      <trkpt lat="48.67249" lon="-0.06574">
        <ele>182.679</ele>
        <time>2016-06-01T18:20:55Z</time>
      </trkpt>
      <trkpt lat="48.67244" lon="-0.06645">
        <ele>185.843</ele>
        <time>2016-06-01T18:20:35Z</time>
      </trkpt>
      <trkpt lat="48.67229" lon="-0.06733">
        <ele>187.51</ele>
        <time>2016-06-01T18:20:15Z</time>
      </trkpt>
      <trkpt lat="48.67208" lon="-0.068">
        <ele>185.675</ele>
        <time>2016-06-01T18:19:55Z</time>
      </trkpt>
      <trkpt lat="48.67201" lon="-0.06866">
        <ele>185.229</ele>
        <time>2016-06-01T18:19:35Z</time>
      </trkpt>
      <trkpt lat="48.67218" lon="-0.06911">
        <ele>185.808</ele>
        <time>2016-06-01T18:19:15Z</time>
      </trkpt>
      <trkpt lat="48.67217" lon="-0.06982">
        <ele>185.013</ele>
        <time>2016-06-01T18:18:55Z</time>
      </trkpt>
      <trkpt lat="48.67202" lon="-0.07034">
        <ele>185.249</ele>
        <time>2016-06-01T18:18:35Z</time>
      </trkpt>
      <trkpt lat="48.67225" lon="-0.07038">
        <ele>184.937</ele>
        <time>2016-06-01T18:18:15Z</time>
      </trkpt>
      <trkpt lat="48.67248" lon="-0.07092">
        <ele>184.138</ele>
        <time>2016-06-01T18:17:55Z</time>
      </trkpt>
      <trkpt lat="48.67419" lon="-0.07143">
        <ele>173.999</ele>
        <time>2016-06-01T18:17:35Z</time>
      </trkpt>
      <trkpt lat="48.67473" lon="-0.07192">
        <ele>173.923</ele>
        <time>2016-06-01T18:17:15Z</time>
      </trkpt>
      <trkpt lat="48.67517" lon="-0.07216">
        <ele>172.631</ele>
        <time>2016-06-01T18:16:55Z</time>
      </trkpt>
      <trkpt lat="48.67571" lon="-0.07227">
        <ele>169.485</ele>
        <time>2016-06-01T18:16:35Z</time>
      </trkpt>
      <trkpt lat="48.67639" lon="-0.07235">
        <ele>166.062</ele>
        <time>2016-06-01T18:16:15Z</time>
      </trkpt>
      <trkpt lat="48.67679" lon="-0.07278">
        <ele>163.697</ele>
        <time>2016-06-01T18:15:55Z</time>
      </trkpt>
      <trkpt lat="48.67755" lon="-0.07323">
        <ele>162.861</ele>
        <time>2016-06-01T18:15:35Z</time>
      </trkpt>
      <trkpt lat="48.6782" lon="-0.07366">
        <ele>159.508</ele>
        <time>2016-06-01T18:15:15Z</time>
      </trkpt>
      <trkpt lat="48.67877" lon="-0.07349">
        <ele>159.614</ele>
        <time>2016-06-01T18:14:55Z</time>
      </trkpt>
      <trkpt lat="48.67919" lon="-0.07358">
        <ele>161.004</ele>
        <time>2016-06-01T18:14:35Z</time>
      </trkpt>
      <trkpt lat="48.67977" lon="-0.07353">
        <ele>160.053</ele>
        <time>2016-06-01T18:14:15Z</time>
      </trkpt>
      <trkpt lat="48.68034" lon="-0.07371">
        <ele>159.799</ele>
        <time>2016-06-01T18:13:55Z</time>
      </trkpt>
      <trkpt lat="48.68055" lon="-0.07383">
        <ele>160.01</ele>
        <time>2016-06-01T18:13:35Z</time>
      </trkpt>
      <trkpt lat="48.68159" lon="-0.07383">
        <ele>160.274</ele>
        <time>2016-06-01T18:13:15Z</time>
      </trkpt>
      <trkpt lat="48.68329" lon="-0.07405">
        <ele>161.522</ele>
        <time>2016-06-01T18:12:55Z</time>
      </trkpt>
      <trkpt lat="48.68381" lon="-0.07418">
        <ele>160.356</ele>
        <time>2016-06-01T18:12:35Z</time>
      </trkpt>
      <trkpt lat="48.68402" lon="-0.07413">
        <ele>159.563</ele>
        <time>2016-06-01T18:12:15Z</time>
      </trkpt>
      <trkpt lat="48.68435" lon="-0.07386">
        <ele>157.938</ele>
        <time>2016-06-01T18:11:55Z</time>
      </trkpt>
      <trkpt lat="48.68463" lon="-0.07379">
        <ele>158.682</ele>
        <time>2016-06-01T18:11:35Z</time>
      </trkpt>
      <trkpt lat="48.68504" lon="-0.07411">
        <ele>159.908</ele>
        <time>2016-06-01T18:11:15Z</time>
      </trkpt>
      <trkpt lat="48.68558" lon="-0.07439">
        <ele>160.416</ele>
        <time>2016-06-01T18:10:55Z</time>
      </trkpt>
      <trkpt lat="48.68605" lon="-0.07428">
        <ele>164.306</ele>
        <time>2016-06-01T18:10:35Z</time>
      </trkpt>
      <trkpt lat="48.68683" lon="-0.07373">
        <ele>166.664</ele>
        <time>2016-06-01T18:10:15Z</time>
      </trkpt>
      <trkpt lat="48.6873" lon="-0.07347">
        <ele>166.759</ele>
        <time>2016-06-01T18:09:55Z</time>
      </trkpt>
      <trkpt lat="48.68728" lon="-0.07413">
        <ele>166.85</ele>
        <time>2016-06-01T18:09:35Z</time>
      </trkpt>
      <trkpt lat="48.68745" lon="-0.07564">
        <ele>163.814</ele>
        <time>2016-06-01T18:09:15Z</time>
      </trkpt>
      <trkpt lat="48.68774" lon="-0.07624">
        <ele>163.492</ele>
        <time>2016-06-01T18:08:55Z</time>
      </trkpt>
      <trkpt lat="48.68813" lon="-0.07647">
        <ele>162.796</ele>
        <time>2016-06-01T18:08:35Z</time>
      </trkpt>
      <trkpt lat="48.68857" lon="-0.0766">
        <ele>161.183</ele>
        <time>2016-06-01T18:08:15Z</time>
      </trkpt>
      <trkpt lat="48.68886" lon="-0.07664">
        <ele>161.118</ele>
        <time>2016-06-01T18:07:55Z</time>
      </trkpt>
      <trkpt lat="48.689" lon="-0.07662">
        <ele>161.562</ele>
        <time>2016-06-01T18:07:35Z</time>
      </trkpt>
      <trkpt lat="48.69126" lon="-0.07958">
        <ele>164.308</ele>
        <time>2016-06-01T18:07:15Z</time>
      </trkpt>
      <trkpt lat="48.69153" lon="-0.07978">
        <ele>165.413</ele>
        <time>2016-06-01T18:06:55Z</time>
      </trkpt>
      <trkpt lat="48.69183" lon="-0.07995">
        <ele>166.121</ele>
        <time>2016-06-01T18:06:35Z</time>
      </trkpt>
      <trkpt lat="48.69177" lon="-0.08034">
        <ele>164.861</ele>
        <time>2016-06-01T18:06:15Z</time>
      </trkpt>
      <trkpt lat="48.69172" lon="-0.08055">
        <ele>164.038</ele>
        <time>2016-06-01T18:05:55Z</time>
      </trkpt>
      <trkpt lat="48.69141" lon="-0.08102">
        <ele>163.149</ele>
        <time>2016-06-01T18:05:35Z</time>
      </trkpt>
      <trkpt lat="48.69118" lon="-0.08143">
        <ele>162.183</ele>
        <time>2016-06-01T18:05:15Z</time>
      </trkpt>
      <trkpt lat="48.69125" lon="-0.08164">
        <ele>161.631</ele>
        <time>2016-06-01T18:04:55Z</time>
      </trkpt>
      <trkpt lat="48.69159" lon="-0.08197">
        <ele>160.665</ele>
        <time>2016-06-01T18:04:35Z</time>
      </trkpt>
      <trkpt lat="48.69183" lon="-0.08192">
        <ele>161.132</ele>
        <time>2016-06-01T18:04:15Z</time>
      </trkpt>
      <trkpt lat="48.6922" lon="-0.08205">
        <ele>159.397</ele>
        <time>2016-06-01T18:03:55Z</time>
      </trkpt>
      <trkpt lat="48.69241" lon="-0.08201">
        <ele>159.561</ele>
        <time>2016-06-01T18:03:35Z</time>
      </trkpt>
      <trkpt lat="48.69238" lon="-0.0833">
        <ele>155.408</ele>
        <time>2016-06-01T18:03:15Z</time>
      </trkpt>
      <trkpt lat="48.69282" lon="-0.0842">
        <ele>155.008</ele>
        <time>2016-06-01T18:02:55Z</time>
      </trkpt>
      <trkpt lat="48.69292" lon="-0.08566">
        <ele>154.753</ele>
        <time>2016-06-01T18:02:35Z</time>
      </trkpt>
      <trkpt lat="48.69269" lon="-0.0874">
        <ele>153.352</ele>
        <time>2016-06-01T18:02:15Z</time>
      </trkpt>
      <trkpt lat="48.69269" lon="-0.08808">
        <ele>153.499</ele>
        <time>2016-06-01T18:01:55Z</time>
      </trkpt>
      <trkpt lat="48.69301" lon="-0.08907">
        <ele>155.39</ele>
        <time>2016-06-01T18:01:35Z</time>
      </trkpt>
      <trkpt lat="48.69309" lon="-0.08958">
        <ele>155.634</ele>
        <time>2016-06-01T18:01:15Z</time>
      </trkpt>
      <trkpt lat="48.69302" lon="-0.09089">
        <ele>158.112</ele>
        <time>2016-06-01T18:00:55Z</time>
      </trkpt>
      <trkpt lat="48.69293" lon="-0.09132">
        <ele>158.416</ele>
        <time>2016-06-01T18:00:35Z</time>
      </trkpt>
      <trkpt lat="48.69353" lon="-0.09244">
        <ele>157.123</ele>
        <time>2016-06-01T18:00:15Z</time>
      </trkpt>
      <trkpt lat="48.69381" lon="-0.09274">
        <ele>156.988</ele>
        <time>2016-06-01T17:59:55Z</time>
      </trkpt>
      <trkpt lat="48.69401" lon="-0.09332">
        <ele>156.662</ele>
        <time>2016-06-01T17:59:35Z</time>
      </trkpt>
      <trkpt lat="48.69434" lon="-0.09398">
        <ele>157.108</ele>
        <time>2016-06-01T17:59:15Z</time>
      </trkpt>
      <trkpt lat="48.69442" lon="-0.09441">
        <ele>157.916</ele>
        <time>2016-06-01T17:58:55Z</time>
      </trkpt>
      <trkpt lat="48.69482" lon="-0.09548">
        <ele>158.706</ele>
        <time>2016-06-01T17:58:35Z</time>
      </trkpt>
      <trkpt lat="48.69514" lon="-0.09694">
        <ele>161.564</ele>
        <time>2016-06-01T17:58:15Z</time>
      </trkpt>
      <trkpt lat="48.69575" lon="-0.09875">
        <ele>160.867</ele>
        <time>2016-06-01T17:57:55Z</time>
      </trkpt>
      <trkpt lat="48.6974" lon="-0.09965">
        <ele>158.328</ele>
        <time>2016-06-01T17:57:35Z</time>
      </trkpt>
      <trkpt lat="48.69864" lon="-0.10042">
        <ele>158.032</ele>
        <time>2016-06-01T17:57:15Z</time>
      </trkpt>
      <trkpt lat="48.69921" lon="-0.1007">
        <ele>156.86</ele>
        <time>2016-06-01T17:56:55Z</time>
      </trkpt>
      <trkpt lat="48.69985" lon="-0.10096">
        <ele>156.034</ele>
        <time>2016-06-01T17:56:35Z</time>
      </trkpt>
      <trkpt lat="48.70109" lon="-0.10154">
        <ele>154.681</ele>
        <time>2016-06-01T17:56:15Z</time>
      </trkpt>
      <trkpt lat="48.70145" lon="-0.10177">
        <ele>155.496</ele>
        <time>2016-06-01T17:55:55Z</time>
      </trkpt>
      <trkpt lat="48.7016" lon="-0.10162">
        <ele>154.85</ele>
        <time>2016-06-01T17:55:35Z</time>
      </trkpt>
      <trkpt lat="48.70333" lon="-0.10214">
        <ele>154.008</ele>
        <time>2016-06-01T17:55:15Z</time>
      </trkpt>
      <trkpt lat="48.70359" lon="-0.10214">
        <ele>154.611</ele>
        <time>2016-06-01T17:54:55Z</time>
      </trkpt>
      <trkpt lat="48.70383" lon="-0.1025">
        <ele>156.047</ele>
        <time>2016-06-01T17:54:35Z</time>
      </trkpt>
      <trkpt lat="48.70376" lon="-0.10269">
        <ele>156.045</ele>
        <time>2016-06-01T17:54:15Z</time>
      </trkpt>
      <trkpt lat="48.70373" lon="-0.1033">
        <ele>155.174</ele>
        <time>2016-06-01T17:53:55Z</time>
      </trkpt>
      <trkpt lat="48.70395" lon="-0.10639">
        <ele>154.845</ele>
        <time>2016-06-01T17:53:35Z</time>
      </trkpt>
      <trkpt lat="48.7039" lon="-0.10759">
        <ele>154.059</ele>
        <time>2016-06-01T17:53:15Z</time>
      </trkpt>
      <trkpt lat="48.70455" lon="-0.10898">
        <ele>154.817</ele>
        <time>2016-06-01T17:52:55Z</time>
      </trkpt>
      <trkpt lat="48.70516" lon="-0.10967">
        <ele>154.091</ele>
        <time>2016-06-01T17:52:35Z</time>
      </trkpt>
      <trkpt lat="48.70645" lon="-0.11031">
        <ele>154.868</ele>
        <time>2016-06-01T17:52:15Z</time>
      </trkpt>
      <trkpt lat="48.70829" lon="-0.11158">
        <ele>154.893</ele>
        <time>2016-06-01T17:51:55Z</time>
      </trkpt>
      <trkpt lat="48.7089" lon="-0.11254">
        <ele>157.267</ele>
        <time>2016-06-01T17:51:35Z</time>
      </trkpt>
      <trkpt lat="48.70949" lon="-0.11325">
        <ele>158.808</ele>
        <time>2016-06-01T17:51:15Z</time>
      </trkpt>
      <trkpt lat="48.71218" lon="-0.11583">
        <ele>161.019</ele>
        <time>2016-06-01T17:50:55Z</time>
      </trkpt>
      <trkpt lat="48.71364" lon="-0.11729">
        <ele>157.009</ele>
        <time>2016-06-01T17:50:35Z</time>
      </trkpt>
      <trkpt lat="48.71453" lon="-0.11797">
        <ele>155.019</ele>
        <time>2016-06-01T17:50:15Z</time>
      </trkpt>
      <trkpt lat="48.71437" lon="-0.12342">
        <ele>152.456</ele>
        <time>2016-06-01T17:49:55Z</time>
      </trkpt>
      <trkpt lat="48.71463" lon="-0.12383">
        <ele>151.987</ele>
        <time>2016-06-01T17:49:35Z</time>
      </trkpt>
      <trkpt lat="48.71561" lon="-0.12435">
        <ele>153.071</ele>
        <time>2016-06-01T17:49:15Z</time>
      </trkpt>
      <trkpt lat="48.71561" lon="-0.12435">
        <ele>153.071</ele>
        <time>2016-06-01T17:49:15Z</time>
      </trkpt>
      <trkpt lat="48.71551" lon="-0.12615">
        <ele>150.779</ele>
        <time>2016-06-01T17:48:55Z</time>
      </trkpt>
      <trkpt lat="48.71605" lon="-0.12621">
        <ele>151.543</ele>
        <time>2016-06-01T17:48:35Z</time>
      </trkpt>
      <trkpt lat="48.71668" lon="-0.12619">
        <ele>150.74</ele>
        <time>2016-06-01T17:48:15Z</time>
      </trkpt>
      <trkpt lat="48.71725" lon="-0.126">
        <ele>151.545</ele>
        <time>2016-06-01T17:47:55Z</time>
      </trkpt>
      <trkpt lat="48.71769" lon="-0.12649">
        <ele>151.649</ele>
        <time>2016-06-01T17:47:35Z</time>
      </trkpt>
      <trkpt lat="48.71875" lon="-0.12604">
        <ele>152.008</ele>
        <time>2016-06-01T17:47:15Z</time>
      </trkpt>
      <trkpt lat="48.7194" lon="-0.1269">
        <ele>151.021</ele>
        <time>2016-06-01T17:46:55Z</time>
      </trkpt>
      <trkpt lat="48.71971" lon="-0.12741">
        <ele>149.301</ele>
        <time>2016-06-01T17:46:35Z</time>
      </trkpt>
      <trkpt lat="48.72028" lon="-0.12808">
        <ele>148.139</ele>
        <time>2016-06-01T17:46:15Z</time>
      </trkpt>
      <trkpt lat="48.72072" lon="-0.12838">
        <ele>149.899</ele>
        <time>2016-06-01T17:45:55Z</time>
      </trkpt>
      <trkpt lat="48.72072" lon="-0.129">
        <ele>150.61</ele>
        <time>2016-06-01T17:45:35Z</time>
      </trkpt>
      <trkpt lat="48.72042" lon="-0.13005">
        <ele>151.124</ele>
        <time>2016-06-01T17:45:15Z</time>
      </trkpt>
      <trkpt lat="48.72029" lon="-0.13168">
        <ele>152.232</ele>
        <time>2016-06-01T17:44:55Z</time>
      </trkpt>
      <trkpt lat="48.72045" lon="-0.13218">
        <ele>153.926</ele>
        <time>2016-06-01T17:44:35Z</time>
      </trkpt>
      <trkpt lat="48.72109" lon="-0.13282">
        <ele>152.983</ele>
        <time>2016-06-01T17:44:15Z</time>
      </trkpt>
      <trkpt lat="48.72143" lon="-0.13344">
        <ele>152.958</ele>
        <time>2016-06-01T17:43:55Z</time>
      </trkpt>
      <trkpt lat="48.72158" lon="-0.13398">
        <ele>152.772</ele>
        <time>2016-06-01T17:43:35Z</time>
      </trkpt>
      <trkpt lat="48.7224" lon="-0.14014">
        <ele>161.008</ele>
        <time>2016-06-01T17:43:15Z</time>
      </trkpt>
      <trkpt lat="48.72257" lon="-0.14085">
        <ele>161.311</ele>
        <time>2016-06-01T17:42:55Z</time>
      </trkpt>
      <trkpt lat="48.72288" lon="-0.14164">
        <ele>161.883</ele>
        <time>2016-06-01T17:42:35Z</time>
      </trkpt>
      <trkpt lat="48.72341" lon="-0.14265">
        <ele>164.062</ele>
        <time>2016-06-01T17:42:15Z</time>
      </trkpt>
      <trkpt lat="48.72413" lon="-0.14351">
        <ele>164.052</ele>
        <time>2016-06-01T17:41:55Z</time>
      </trkpt>
      <trkpt lat="48.72578" lon="-0.14499">
        <ele>163.823</ele>
        <time>2016-06-01T17:41:35Z</time>
      </trkpt>
      <trkpt lat="48.72603" lon="-0.14535">
        <ele>164.627</ele>
        <time>2016-06-01T17:41:15Z</time>
      </trkpt>
      <trkpt lat="48.72638" lon="-0.14612">
        <ele>164.925</ele>
        <time>2016-06-01T17:40:55Z</time>
      </trkpt>
      <trkpt lat="48.72693" lon="-0.14679">
        <ele>162.129</ele>
        <time>2016-06-01T17:40:35Z</time>
      </trkpt>
      <trkpt lat="48.72744" lon="-0.14728">
        <ele>158.156</ele>
        <time>2016-06-01T17:40:15Z</time>
      </trkpt>
      <trkpt lat="48.72791" lon="-0.14754">
        <ele>156.471</ele>
        <time>2016-06-01T17:39:55Z</time>
      </trkpt>
      <trkpt lat="48.72809" lon="-0.14746">
        <ele>156.175</ele>
        <time>2016-06-01T17:39:35Z</time>
      </trkpt>
      <trkpt lat="48.72835" lon="-0.14681">
        <ele>157.408</ele>
        <time>2016-06-01T17:39:15Z</time>
      </trkpt>
      <trkpt lat="48.72842" lon="-0.14683">
        <ele>157.02</ele>
        <time>2016-06-01T17:38:55Z</time>
      </trkpt>
      <trkpt lat="48.72966" lon="-0.14788">
        <ele>172.173</ele>
        <time>2016-06-01T17:38:35Z</time>
      </trkpt>
      <trkpt lat="48.72995" lon="-0.14782">
        <ele>173.792</ele>
        <time>2016-06-01T17:38:15Z</time>
      </trkpt>
      <trkpt lat="48.73043" lon="-0.14677">
        <ele>174.025</ele>
        <time>2016-06-01T17:37:55Z</time>
      </trkpt>
      <trkpt lat="48.73255" lon="-0.14741">
        <ele>180.836</ele>
        <time>2016-06-01T17:37:35Z</time>
      </trkpt>
      <trkpt lat="48.73384" lon="-0.14849">
        <ele>175.75</ele>
        <time>2016-06-01T17:37:15Z</time>
      </trkpt>
      <trkpt lat="48.73381" lon="-0.14926">
        <ele>174.828</ele>
        <time>2016-06-01T17:36:55Z</time>
      </trkpt>
      <trkpt lat="48.73416" lon="-0.15029">
        <ele>181.222</ele>
        <time>2016-06-01T17:36:35Z</time>
      </trkpt>
      <trkpt lat="48.73418" lon="-0.15327">
        <ele>194.929</ele>
        <time>2016-06-01T17:36:15Z</time>
      </trkpt>
      <trkpt lat="48.73426" lon="-0.15396">
        <ele>197.644</ele>
        <time>2016-06-01T17:35:55Z</time>
      </trkpt>
      <trkpt lat="48.73448" lon="-0.15464">
        <ele>198.348</ele>
        <time>2016-06-01T17:35:35Z</time>
      </trkpt>
      <trkpt lat="48.73479" lon="-0.15647">
        <ele>198.608</ele>
        <time>2016-06-01T17:35:15Z</time>
      </trkpt>
      <trkpt lat="48.73487" lon="-0.15846">
        <ele>198.42</ele>
        <time>2016-06-01T17:34:55Z</time>
      </trkpt>
      <trkpt lat="48.73497" lon="-0.15943">
        <ele>198.1</ele>
        <time>2016-06-01T17:34:35Z</time>
      </trkpt>
      <trkpt lat="48.73513" lon="-0.15992">
        <ele>196.729</ele>
        <time>2016-06-01T17:34:15Z</time>
      </trkpt>
      <trkpt lat="48.73528" lon="-0.16022">
        <ele>194.422</ele>
        <time>2016-06-01T17:33:55Z</time>
      </trkpt>
      <trkpt lat="48.73527" lon="-0.16052">
        <ele>194.113</ele>
        <time>2016-06-01T17:33:35Z</time>
      </trkpt>
      <trkpt lat="48.73545" lon="-0.16151">
        <ele>192.887</ele>
        <time>2016-06-01T17:33:15Z</time>
      </trkpt>
      <trkpt lat="48.73586" lon="-0.16196">
        <ele>190.925</ele>
        <time>2016-06-01T17:32:55Z</time>
      </trkpt>
      <trkpt lat="48.73622" lon="-0.16202">
        <ele>189.169</ele>
        <time>2016-06-01T17:32:35Z</time>
      </trkpt>
      <trkpt lat="48.73644" lon="-0.16235">
        <ele>186.586</ele>
        <time>2016-06-01T17:32:15Z</time>
      </trkpt>
      <trkpt lat="48.73685" lon="-0.16361">
        <ele>187.761</ele>
        <time>2016-06-01T17:31:55Z</time>
      </trkpt>
      <trkpt lat="48.7374" lon="-0.16449">
        <ele>176.195</ele>
        <time>2016-06-01T17:31:35Z</time>
      </trkpt>
      <trkpt lat="48.7379" lon="-0.16546">
        <ele>174.008</ele>
        <time>2016-06-01T17:31:15Z</time>
      </trkpt>
      <trkpt lat="48.73842" lon="-0.16675">
        <ele>169.426</ele>
        <time>2016-06-01T17:30:55Z</time>
      </trkpt>
      <trkpt lat="48.73855" lon="-0.16705">
        <ele>168.415</ele>
        <time>2016-06-01T17:30:35Z</time>
      </trkpt>
      <trkpt lat="48.73895" lon="-0.17005">
        <ele>166.998</ele>
        <time>2016-06-01T17:30:15Z</time>
      </trkpt>
      <trkpt lat="48.73943" lon="-0.17054">
        <ele>163.281</ele>
        <time>2016-06-01T17:29:55Z</time>
      </trkpt>
      <trkpt lat="48.74009" lon="-0.17198">
        <ele>157.342</ele>
        <time>2016-06-01T17:29:35Z</time>
      </trkpt>
      <trkpt lat="48.74072" lon="-0.17293">
        <ele>151.686</ele>
        <time>2016-06-01T17:29:15Z</time>
      </trkpt>
      <trkpt lat="48.7412" lon="-0.17331">
        <ele>149.694</ele>
        <time>2016-06-01T17:28:55Z</time>
      </trkpt>
      <trkpt lat="48.74124" lon="-0.17402">
        <ele>149.888</ele>
        <time>2016-06-01T17:28:35Z</time>
      </trkpt>
      <trkpt lat="48.74138" lon="-0.17434">
        <ele>148.445</ele>
        <time>2016-06-01T17:28:15Z</time>
      </trkpt>
      <trkpt lat="48.74158" lon="-0.17518">
        <ele>155.97</ele>
        <time>2016-06-01T17:27:55Z</time>
      </trkpt>
      <trkpt lat="48.74159" lon="-0.17556">
        <ele>156.764</ele>
        <time>2016-06-01T17:27:35Z</time>
      </trkpt>
      <trkpt lat="48.7414" lon="-0.17621">
        <ele>155.208</ele>
        <time>2016-06-01T17:27:15Z</time>
      </trkpt>
      <trkpt lat="48.74103" lon="-0.17732">
        <ele>169.517</ele>
        <time>2016-06-01T17:26:55Z</time>
      </trkpt>
      <trkpt lat="48.74021" lon="-0.17842">
        <ele>170.189</ele>
        <time>2016-06-01T17:26:35Z</time>
      </trkpt>
      <trkpt lat="48.74008" lon="-0.17874">
        <ele>175.185</ele>
        <time>2016-06-01T17:26:15Z</time>
      </trkpt>
      <trkpt lat="48.73967" lon="-0.17906">
        <ele>172.645</ele>
        <time>2016-06-01T17:25:55Z</time>
      </trkpt>
      <trkpt lat="48.73906" lon="-0.17968">
        <ele>176.576</ele>
        <time>2016-06-01T17:25:35Z</time>
      </trkpt>
      <trkpt lat="48.73888" lon="-0.17994">
        <ele>178.36</ele>
        <time>2016-06-01T17:25:15Z</time>
      </trkpt>
      <trkpt lat="48.73886" lon="-0.18011">
        <ele>179.348</ele>
        <time>2016-06-01T17:24:55Z</time>
      </trkpt>
      <trkpt lat="48.73671" lon="-0.18142">
        <ele>189.812</ele>
        <time>2016-06-01T17:24:35Z</time>
      </trkpt>
      <trkpt lat="48.7351" lon="-0.18438">
        <ele>200.229</ele>
        <time>2016-06-01T17:24:15Z</time>
      </trkpt>
      <trkpt lat="48.73497" lon="-0.18546">
        <ele>201.324</ele>
        <time>2016-06-01T17:23:55Z</time>
      </trkpt>
      <trkpt lat="48.73474" lon="-0.18616">
        <ele>203.868</ele>
        <time>2016-06-01T17:23:35Z</time>
      </trkpt>
      <trkpt lat="48.73429" lon="-0.18773">
        <ele>206.608</ele>
        <time>2016-06-01T17:23:15Z</time>
      </trkpt>
      <trkpt lat="48.73409" lon="-0.18831">
        <ele>205.217</ele>
        <time>2016-06-01T17:22:55Z</time>
      </trkpt>
      <trkpt lat="48.73378" lon="-0.18861">
        <ele>209.289</ele>
        <time>2016-06-01T17:22:35Z</time>
      </trkpt>
      <trkpt lat="48.73358" lon="-0.18966">
        <ele>214.128</ele>
        <time>2016-06-01T17:22:15Z</time>
      </trkpt>
      <trkpt lat="48.73339" lon="-0.19033">
        <ele>217.345</ele>
        <time>2016-06-01T17:21:55Z</time>
      </trkpt>
      <trkpt lat="48.73292" lon="-0.19211">
        <ele>220.026</ele>
        <time>2016-06-01T17:21:35Z</time>
      </trkpt>
      <trkpt lat="48.7318" lon="-0.19359">
        <ele>224.25</ele>
        <time>2016-06-01T17:21:15Z</time>
      </trkpt>
      <trkpt lat="48.73142" lon="-0.19421">
        <ele>221.188</ele>
        <time>2016-06-01T17:20:55Z</time>
      </trkpt>
      <trkpt lat="48.73133" lon="-0.19473">
        <ele>222.052</ele>
        <time>2016-06-01T17:20:35Z</time>
      </trkpt>
      <trkpt lat="48.73231" lon="-0.19509">
        <ele>219.529</ele>
        <time>2016-06-01T17:20:15Z</time>
      </trkpt>
      <trkpt lat="48.73288" lon="-0.19561">
        <ele>215.594</ele>
        <time>2016-06-01T17:19:55Z</time>
      </trkpt>
      <trkpt lat="48.733" lon="-0.19661">
        <ele>222.528</ele>
        <time>2016-06-01T17:19:35Z</time>
      </trkpt>
      <trkpt lat="48.7333" lon="-0.19749">
        <ele>227.408</ele>
        <time>2016-06-01T17:19:15Z</time>
      </trkpt>
      <trkpt lat="48.73384" lon="-0.19795">
        <ele>222.317</ele>
        <time>2016-06-01T17:18:55Z</time>
      </trkpt>
      <trkpt lat="48.73439" lon="-0.19876">
        <ele>227.189</ele>
        <time>2016-06-01T17:18:35Z</time>
      </trkpt>
      <trkpt lat="48.73439" lon="-0.19876">
        <ele>227.128</ele>
        <time>2016-06-01T17:18:15Z</time>
      </trkpt>
      <trkpt lat="48.73515" lon="-0.19842">
        <ele>217.448</ele>
        <time>2016-06-01T17:17:55Z</time>
      </trkpt>
      <trkpt lat="48.73624" lon="-0.19752">
        <ele>204.679</ele>
        <time>2016-06-01T17:17:35Z</time>
      </trkpt>
      <trkpt lat="48.7365" lon="-0.19743">
        <ele>201.953</ele>
        <time>2016-06-01T17:17:15Z</time>
      </trkpt>
      <trkpt lat="48.73682" lon="-0.19769">
        <ele>202.281</ele>
        <time>2016-06-01T17:16:55Z</time>
      </trkpt>
      <trkpt lat="48.73701" lon="-0.19747">
        <ele>199.835</ele>
        <time>2016-06-01T17:16:35Z</time>
      </trkpt>
      <trkpt lat="48.73726" lon="-0.19634">
        <ele>189.612</ele>
        <time>2016-06-01T17:16:15Z</time>
      </trkpt>
      <trkpt lat="48.73767" lon="-0.19634">
        <ele>191.477</ele>
        <time>2016-06-01T17:15:55Z</time>
      </trkpt>
      <trkpt lat="48.73813" lon="-0.19668">
        <ele>190.151</ele>
        <time>2016-06-01T17:15:35Z</time>
      </trkpt>
      <trkpt lat="48.73872" lon="-0.19715">
        <ele>189.308</ele>
        <time>2016-06-01T17:15:15Z</time>
      </trkpt>
      <trkpt lat="48.73909" lon="-0.19696">
        <ele>185.514</ele>
        <time>2016-06-01T17:14:55Z</time>
      </trkpt>
      <trkpt lat="48.74018" lon="-0.19717">
        <ele>182.059</ele>
        <time>2016-06-01T17:14:35Z</time>
      </trkpt>
      <trkpt lat="48.74093" lon="-0.19754">
        <ele>178.356</ele>
        <time>2016-06-01T17:14:15Z</time>
      </trkpt>
      <trkpt lat="48.74271" lon="-0.19743">
        <ele>178.978</ele>
        <time>2016-06-01T17:13:55Z</time>
      </trkpt>
      <trkpt lat="48.74356" lon="-0.19724">
        <ele>181.539</ele>
        <time>2016-06-01T17:13:35Z</time>
      </trkpt>
      <trkpt lat="48.74458" lon="-0.19685">
        <ele>181.423</ele>
        <time>2016-06-01T17:13:15Z</time>
      </trkpt>
      <trkpt lat="48.74515" lon="-0.19601">
        <ele>179.021</ele>
        <time>2016-06-01T17:12:55Z</time>
      </trkpt>
      <trkpt lat="48.74612" lon="-0.1949">
        <ele>176.345</ele>
        <time>2016-06-01T17:12:35Z</time>
      </trkpt>
      <trkpt lat="48.74657" lon="-0.19417">
        <ele>171.082</ele>
        <time>2016-06-01T17:12:15Z</time>
      </trkpt>
      <trkpt lat="48.7473" lon="-0.19239">
        <ele>170.357</ele>
        <time>2016-06-01T17:11:55Z</time>
      </trkpt>
      <trkpt lat="48.74747" lon="-0.19127">
        <ele>165.681</ele>
        <time>2016-06-01T17:11:35Z</time>
      </trkpt>
      <trkpt lat="48.74764" lon="-0.19039">
        <ele>162.308</ele>
        <time>2016-06-01T17:11:15Z</time>
      </trkpt>
      <trkpt lat="48.74816" lon="-0.18857">
        <ele>161.714</ele>
        <time>2016-06-01T17:10:55Z</time>
      </trkpt>
      <trkpt lat="48.74833" lon="-0.18812">
        <ele>160.004</ele>
        <time>2016-06-01T17:10:35Z</time>
      </trkpt>
      <trkpt lat="48.74908" lon="-0.18692">
        <ele>154.953</ele>
        <time>2016-06-01T17:10:15Z</time>
      </trkpt>
      <trkpt lat="48.74919" lon="-0.18659">
        <ele>153.927</ele>
        <time>2016-06-01T17:09:55Z</time>
      </trkpt>
      <trkpt lat="48.74895" lon="-0.18578">
        <ele>149.838</ele>
        <time>2016-06-01T17:09:35Z</time>
      </trkpt>
      <trkpt lat="48.74874" lon="-0.18546">
        <ele>146.982</ele>
        <time>2016-06-01T17:09:15Z</time>
      </trkpt>
      <trkpt lat="48.74739" lon="-0.18466">
        <ele>143.28</ele>
        <time>2016-06-01T17:08:55Z</time>
      </trkpt>
      <trkpt lat="48.74715" lon="-0.18481">
        <ele>143.244</ele>
        <time>2016-06-01T17:08:35Z</time>
      </trkpt>
      <trkpt lat="48.74669" lon="-0.18552">
        <ele>145.031</ele>
        <time>2016-06-01T17:08:15Z</time>
      </trkpt>
      <trkpt lat="48.74653" lon="-0.18595">
        <ele>145.586</ele>
        <time>2016-06-01T17:07:55Z</time>
      </trkpt>
      <trkpt lat="48.74623" lon="-0.18657">
        <ele>153.17</ele>
        <time>2016-06-01T17:07:35Z</time>
      </trkpt>
      <trkpt lat="48.74628" lon="-0.18591">
        <ele>151.508</ele>
        <time>2016-06-01T17:07:15Z</time>
      </trkpt>
      <trkpt lat="48.74609" lon="-0.18535">
        <ele>154.817</ele>
        <time>2016-06-01T17:06:55Z</time>
      </trkpt>
      <trkpt lat="48.74606" lon="-0.18477">
        <ele>150.561</ele>
        <time>2016-06-01T17:06:35Z</time>
      </trkpt>
      <trkpt lat="48.74648" lon="-0.18335">
        <ele>159.848</ele>
        <time>2016-06-01T17:06:15Z</time>
      </trkpt>
      <trkpt lat="48.74693" lon="-0.18344">
        <ele>165.161</ele>
        <time>2016-06-01T17:05:55Z</time>
      </trkpt>
      <trkpt lat="48.7473" lon="-0.18307">
        <ele>166.982</ele>
        <time>2016-06-01T17:05:35Z</time>
      </trkpt>
      <trkpt lat="48.74829" lon="-0.18123">
        <ele>173.186</ele>
        <time>2016-06-01T17:05:15Z</time>
      </trkpt>
      <trkpt lat="48.74959" lon="-0.18044">
        <ele>172.534</ele>
        <time>2016-06-01T17:04:55Z</time>
      </trkpt>
      <trkpt lat="48.74996" lon="-0.18041">
        <ele>172.968</ele>
        <time>2016-06-01T17:04:35Z</time>
      </trkpt>
      <trkpt lat="48.7503" lon="-0.18022">
        <ele>175.145</ele>
        <time>2016-06-01T17:04:15Z</time>
      </trkpt>
      <trkpt lat="48.75059" lon="-0.17979">
        <ele>177.15</ele>
        <time>2016-06-01T17:03:55Z</time>
      </trkpt>
      <trkpt lat="48.75201" lon="-0.17842">
        <ele>187.854</ele>
        <time>2016-06-01T17:03:35Z</time>
      </trkpt>
      <trkpt lat="48.75266" lon="-0.17795">
        <ele>189.008</ele>
        <time>2016-06-01T17:03:15Z</time>
      </trkpt>
      <trkpt lat="48.75307" lon="-0.17739">
        <ele>191.426</ele>
        <time>2016-06-01T17:02:55Z</time>
      </trkpt>
      <trkpt lat="48.75312" lon="-0.17715">
        <ele>192.76</ele>
        <time>2016-06-01T17:02:35Z</time>
      </trkpt>
      <trkpt lat="48.75337" lon="-0.17711">
        <ele>193.486</ele>
        <time>2016-06-01T17:02:15Z</time>
      </trkpt>
      <trkpt lat="48.75433" lon="-0.1764">
        <ele>199.02</ele>
        <time>2016-06-01T17:01:55Z</time>
      </trkpt>
      <trkpt lat="48.75453" lon="-0.1764">
        <ele>199.051</ele>
        <time>2016-06-01T17:01:35Z</time>
      </trkpt>
      <trkpt lat="48.75576" lon="-0.1767">
        <ele>202.555</ele>
        <time>2016-06-01T17:01:15Z</time>
      </trkpt>
      <trkpt lat="48.75581" lon="-0.1772">
        <ele>200.033</ele>
        <time>2016-06-01T17:00:55Z</time>
      </trkpt>
      <trkpt lat="48.75607" lon="-0.17814">
        <ele>197.147</ele>
        <time>2016-06-01T17:00:35Z</time>
      </trkpt>
      <trkpt lat="48.75656" lon="-0.17938">
        <ele>194.434</ele>
        <time>2016-06-01T17:00:15Z</time>
      </trkpt>
      <trkpt lat="48.75638" lon="-0.17992">
        <ele>193.649</ele>
        <time>2016-06-01T16:59:55Z</time>
      </trkpt>
      <trkpt lat="48.75639" lon="-0.18035">
        <ele>192.843</ele>
        <time>2016-06-01T16:59:35Z</time>
      </trkpt>
      <trkpt lat="48.75655" lon="-0.18067">
        <ele>193.308</ele>
        <time>2016-06-01T16:59:15Z</time>
      </trkpt>
      <trkpt lat="48.75655" lon="-0.18091">
        <ele>193.615</ele>
        <time>2016-06-01T16:58:55Z</time>
      </trkpt>
      <trkpt lat="48.75665" lon="-0.18119">
        <ele>193.941</ele>
        <time>2016-06-01T16:58:35Z</time>
      </trkpt>
      <trkpt lat="48.75701" lon="-0.18114">
        <ele>196.871</ele>
        <time>2016-06-01T16:58:15Z</time>
      </trkpt>
      <trkpt lat="48.75716" lon="-0.18172">
        <ele>198.324</ele>
        <time>2016-06-01T16:57:55Z</time>
      </trkpt>
      <trkpt lat="48.75693" lon="-0.18202">
        <ele>196.895</ele>
        <time>2016-06-01T16:57:35Z</time>
      </trkpt>
      <trkpt lat="48.75687" lon="-0.18273">
        <ele>195.369</ele>
        <time>2016-06-01T16:57:15Z</time>
      </trkpt>
      <trkpt lat="48.75693" lon="-0.1828">
        <ele>195.897</ele>
        <time>2016-06-01T16:56:55Z</time>
      </trkpt>
      <trkpt lat="48.75707" lon="-0.18449">
        <ele>196.291</ele>
        <time>2016-06-01T16:56:35Z</time>
      </trkpt>
      <trkpt lat="48.75709" lon="-0.1849">
        <ele>196.468</ele>
        <time>2016-06-01T16:56:15Z</time>
      </trkpt>
      <trkpt lat="48.75675" lon="-0.18651">
        <ele>184.253</ele>
        <time>2016-06-01T16:55:55Z</time>
      </trkpt>
      <trkpt lat="48.75662" lon="-0.18728">
        <ele>177.117</ele>
        <time>2016-06-01T16:55:35Z</time>
      </trkpt>
      <trkpt lat="48.75601" lon="-0.18782">
        <ele>169.308</ele>
        <time>2016-06-01T16:55:15Z</time>
      </trkpt>
      <trkpt lat="48.75563" lon="-0.18788">
        <ele>161.615</ele>
        <time>2016-06-01T16:54:55Z</time>
      </trkpt>
      <trkpt lat="48.75536" lon="-0.18822">
        <ele>155.387</ele>
        <time>2016-06-01T16:54:35Z</time>
      </trkpt>
      <trkpt lat="48.75505" lon="-0.18857">
        <ele>149.417</ele>
        <time>2016-06-01T16:54:15Z</time>
      </trkpt>
      <trkpt lat="48.75509" lon="-0.18895">
        <ele>148.431</ele>
        <time>2016-06-01T16:53:55Z</time>
      </trkpt>
      <trkpt lat="48.75526" lon="-0.18913">
        <ele>149.072</ele>
        <time>2016-06-01T16:53:35Z</time>
      </trkpt>
      <trkpt lat="48.75561" lon="-0.18979">
        <ele>151.026</ele>
        <time>2016-06-01T16:53:15Z</time>
      </trkpt>
      <trkpt lat="48.75506" lon="-0.18986">
        <ele>149.394</ele>
        <time>2016-06-01T16:52:55Z</time>
      </trkpt>
      <trkpt lat="48.75468" lon="-0.18968">
        <ele>145.428</ele>
        <time>2016-06-01T16:52:35Z</time>
      </trkpt>
      <trkpt lat="48.75427" lon="-0.19052">
        <ele>143.475</ele>
        <time>2016-06-01T16:52:15Z</time>
      </trkpt>
      <trkpt lat="48.75383" lon="-0.19269">
        <ele>151.53</ele>
        <time>2016-06-01T16:51:55Z</time>
      </trkpt>
      <trkpt lat="48.75356" lon="-0.19376">
        <ele>155.044</ele>
        <time>2016-06-01T16:51:35Z</time>
      </trkpt>
      <trkpt lat="48.75322" lon="-0.1952">
        <ele>151.108</ele>
        <time>2016-06-01T16:51:15Z</time>
      </trkpt>
      <trkpt lat="48.75305" lon="-0.19769">
        <ele>151.626</ele>
        <time>2016-06-01T16:50:55Z</time>
      </trkpt>
      <trkpt lat="48.75192" lon="-0.20176">
        <ele>163.442</ele>
        <time>2016-06-01T16:50:35Z</time>
      </trkpt>
      <trkpt lat="48.75143" lon="-0.20243">
        <ele>167.687</ele>
        <time>2016-06-01T16:50:15Z</time>
      </trkpt>
      <trkpt lat="48.75071" lon="-0.20288">
        <ele>170.084</ele>
        <time>2016-06-01T16:49:55Z</time>
      </trkpt>
      <trkpt lat="48.74976" lon="-0.2029">
        <ele>166.375</ele>
        <time>2016-06-01T16:49:35Z</time>
      </trkpt>
      <trkpt lat="48.74895" lon="-0.20271">
        <ele>165.289</ele>
        <time>2016-06-01T16:49:15Z</time>
      </trkpt>
      <trkpt lat="48.74813" lon="-0.20271">
        <ele>170.267</ele>
        <time>2016-06-01T16:48:55Z</time>
      </trkpt>
      <trkpt lat="48.74739" lon="-0.20252">
        <ele>166.011</ele>
        <time>2016-06-01T16:48:35Z</time>
      </trkpt>
      <trkpt lat="48.74628" lon="-0.20254">
        <ele>164.678</ele>
        <time>2016-06-01T16:48:15Z</time>
      </trkpt>
      <trkpt lat="48.74541" lon="-0.20219">
        <ele>164.893</ele>
        <time>2016-06-01T16:47:55Z</time>
      </trkpt>
      <trkpt lat="48.74381" lon="-0.20136">
        <ele>159.527</ele>
        <time>2016-06-01T16:47:35Z</time>
      </trkpt>
      <trkpt lat="48.74142" lon="-0.2005">
        <ele>142.908</ele>
        <time>2016-06-01T16:47:15Z</time>
      </trkpt>
      <trkpt lat="48.74137" lon="-0.20073">
        <ele>144.119</ele>
        <time>2016-06-01T16:46:55Z</time>
      </trkpt>
      <trkpt lat="48.74111" lon="-0.20138">
        <ele>146.009</ele>
        <time>2016-06-01T16:46:35Z</time>
      </trkpt>
      <trkpt lat="48.74134" lon="-0.20226">
        <ele>155.019</ele>
        <time>2016-06-01T16:46:15Z</time>
      </trkpt>
      <trkpt lat="48.74135" lon="-0.20297">
        <ele>161.884</ele>
        <time>2016-06-01T16:45:55Z</time>
      </trkpt>
      <trkpt lat="48.74159" lon="-0.20393">
        <ele>168.275</ele>
        <time>2016-06-01T16:45:35Z</time>
      </trkpt>
      <trkpt lat="48.74148" lon="-0.205">
        <ele>166.449</ele>
        <time>2016-06-01T16:45:15Z</time>
      </trkpt>
      <trkpt lat="48.74121" lon="-0.20644">
        <ele>161.197</ele>
        <time>2016-06-01T16:44:55Z</time>
      </trkpt>
      <trkpt lat="48.74137" lon="-0.20709">
        <ele>157.721</ele>
        <time>2016-06-01T16:44:35Z</time>
      </trkpt>
      <trkpt lat="48.74205" lon="-0.20803">
        <ele>158.858</ele>
        <time>2016-06-01T16:44:15Z</time>
      </trkpt>
      <trkpt lat="48.74209" lon="-0.20835">
        <ele>152.753</ele>
        <time>2016-06-01T16:43:55Z</time>
      </trkpt>
      <trkpt lat="48.74226" lon="-0.20882">
        <ele>147.587</ele>
        <time>2016-06-01T16:43:35Z</time>
      </trkpt>
      <trkpt lat="48.74265" lon="-0.20925">
        <ele>150.308</ele>
        <time>2016-06-01T16:43:15Z</time>
      </trkpt>
      <trkpt lat="48.74301" lon="-0.20975">
        <ele>148.207</ele>
        <time>2016-06-01T16:42:55Z</time>
      </trkpt>
      <trkpt lat="48.74314" lon="-0.20966">
        <ele>150.443</ele>
        <time>2016-06-01T16:42:35Z</time>
      </trkpt>
      <trkpt lat="48.74348" lon="-0.21018">
        <ele>142.713</ele>
        <time>2016-06-01T16:42:15Z</time>
      </trkpt>
      <trkpt lat="48.74346" lon="-0.2117">
        <ele>144.851</ele>
        <time>2016-06-01T16:41:55Z</time>
      </trkpt>
      <trkpt lat="48.74247" lon="-0.21191">
        <ele>157.292</ele>
        <time>2016-06-01T16:41:35Z</time>
      </trkpt>
      <trkpt lat="48.74203" lon="-0.21191">
        <ele>159.646</ele>
        <time>2016-06-01T16:41:15Z</time>
      </trkpt>
      <trkpt lat="48.74148" lon="-0.21161">
        <ele>156.254</ele>
        <time>2016-06-01T16:40:55Z</time>
      </trkpt>
      <trkpt lat="48.74076" lon="-0.21093">
        <ele>148.798</ele>
        <time>2016-06-01T16:40:35Z</time>
      </trkpt>
      <trkpt lat="48.74048" lon="-0.21069">
        <ele>142.685</ele>
        <time>2016-06-01T16:40:15Z</time>
      </trkpt>
      <trkpt lat="48.73995" lon="-0.21063">
        <ele>144.36</ele>
        <time>2016-06-01T16:39:55Z</time>
      </trkpt>
      <trkpt lat="48.73923" lon="-0.21161">
        <ele>156.414</ele>
        <time>2016-06-01T16:39:35Z</time>
      </trkpt>
      <trkpt lat="48.73847" lon="-0.2146">
        <ele>175.208</ele>
        <time>2016-06-01T16:39:15Z</time>
      </trkpt>
      <trkpt lat="48.73817" lon="-0.21503">
        <ele>181.626</ele>
        <time>2016-06-01T16:38:55Z</time>
      </trkpt>
      <trkpt lat="48.73728" lon="-0.21612">
        <ele>187.424</ele>
        <time>2016-06-01T16:38:35Z</time>
      </trkpt>
      <trkpt lat="48.73702" lon="-0.21646">
        <ele>188.288</ele>
        <time>2016-06-01T16:38:15Z</time>
      </trkpt>
      <trkpt lat="48.73704" lon="-0.21728">
        <ele>194.246</ele>
        <time>2016-06-01T16:37:55Z</time>
      </trkpt>
      <trkpt lat="48.73782" lon="-0.2208">
        <ele>198.127</ele>
        <time>2016-06-01T16:37:35Z</time>
      </trkpt>
      <trkpt lat="48.73851" lon="-0.22198">
        <ele>199.611</ele>
        <time>2016-06-01T16:37:15Z</time>
      </trkpt>
      <trkpt lat="48.73849" lon="-0.22251">
        <ele>200.259</ele>
        <time>2016-06-01T16:36:55Z</time>
      </trkpt>
      <trkpt lat="48.7381" lon="-0.22309">
        <ele>199.073</ele>
        <time>2016-06-01T16:36:35Z</time>
      </trkpt>
      <trkpt lat="48.7351" lon="-0.22663">
        <ele>211.79</ele>
        <time>2016-06-01T16:36:15Z</time>
      </trkpt>
      <trkpt lat="48.73449" lon="-0.22713">
        <ele>214.145</ele>
        <time>2016-06-01T16:35:55Z</time>
      </trkpt>
      <trkpt lat="48.7345" lon="-0.22869">
        <ele>213.259</ele>
        <time>2016-06-01T16:35:35Z</time>
      </trkpt>
      <trkpt lat="48.73498" lon="-0.22889">
        <ele>215.908</ele>
        <time>2016-06-01T16:35:15Z</time>
      </trkpt>
      <trkpt lat="48.7375" lon="-0.23202">
        <ele>214.211</ele>
        <time>2016-06-01T16:34:55Z</time>
      </trkpt>
      <trkpt lat="48.73766" lon="-0.23314">
        <ele>218.692</ele>
        <time>2016-06-01T16:34:35Z</time>
      </trkpt>
      <trkpt lat="48.73944" lon="-0.23751">
        <ele>214.032</ele>
        <time>2016-06-01T16:34:15Z</time>
      </trkpt>
      <trkpt lat="48.7394" lon="-0.23801">
        <ele>212.935</ele>
        <time>2016-06-01T16:33:55Z</time>
      </trkpt>
      <trkpt lat="48.73923" lon="-0.23904">
        <ele>212.516</ele>
        <time>2016-06-01T16:33:35Z</time>
      </trkpt>
      <trkpt lat="48.73919" lon="-0.23987">
        <ele>208.51</ele>
        <time>2016-06-01T16:33:15Z</time>
      </trkpt>
      <trkpt lat="48.73936" lon="-0.24045">
        <ele>206.718</ele>
        <time>2016-06-01T16:32:55Z</time>
      </trkpt>
      <trkpt lat="48.73992" lon="-0.2406">
        <ele>205.172</ele>
        <time>2016-06-01T16:32:35Z</time>
      </trkpt>
      <trkpt lat="48.74046" lon="-0.24086">
        <ele>202.139</ele>
        <time>2016-06-01T16:32:15Z</time>
      </trkpt>
      <trkpt lat="48.74215" lon="-0.24075">
        <ele>187.314</ele>
        <time>2016-06-01T16:31:55Z</time>
      </trkpt>
      <trkpt lat="48.74365" lon="-0.24045">
        <ele>184.998</ele>
        <time>2016-06-01T16:31:35Z</time>
      </trkpt>
      <trkpt lat="48.74513" lon="-0.24062">
        <ele>181.108</ele>
        <time>2016-06-01T16:31:15Z</time>
      </trkpt>
      <trkpt lat="48.74605" lon="-0.24041">
        <ele>174.411</ele>
        <time>2016-06-01T16:30:55Z</time>
      </trkpt>
      <trkpt lat="48.74676" lon="-0.24011">
        <ele>167.883</ele>
        <time>2016-06-01T16:30:35Z</time>
      </trkpt>
      <trkpt lat="48.74752" lon="-0.23942">
        <ele>157.223</ele>
        <time>2016-06-01T16:30:15Z</time>
      </trkpt>
      <trkpt lat="48.74788" lon="-0.23934">
        <ele>157.616</ele>
        <time>2016-06-01T16:29:55Z</time>
      </trkpt>
      <trkpt lat="48.74871" lon="-0.23992">
        <ele>160.837</ele>
        <time>2016-06-01T16:29:35Z</time>
      </trkpt>
      <trkpt lat="48.74902" lon="-0.24045">
        <ele>160.531</ele>
        <time>2016-06-01T16:29:15Z</time>
      </trkpt>
      <trkpt lat="48.74986" lon="-0.24116">
        <ele>161.749</ele>
        <time>2016-06-01T16:28:55Z</time>
      </trkpt>
      <trkpt lat="48.75099" lon="-0.2415">
        <ele>158.233</ele>
        <time>2016-06-01T16:28:35Z</time>
      </trkpt>
      <trkpt lat="48.75119" lon="-0.24172">
        <ele>158.59</ele>
        <time>2016-06-01T16:28:15Z</time>
      </trkpt>
      <trkpt lat="48.75239" lon="-0.24103">
        <ele>159.665</ele>
        <time>2016-06-01T16:27:55Z</time>
      </trkpt>
      <trkpt lat="48.75266" lon="-0.24114">
        <ele>162.839</ele>
        <time>2016-06-01T16:27:35Z</time>
      </trkpt>
      <trkpt lat="48.75274" lon="-0.24148">
        <ele>166.508</ele>
        <time>2016-06-01T16:27:15Z</time>
      </trkpt>
      <trkpt lat="48.75271" lon="-0.24155">
        <ele>166.811</ele>
        <time>2016-06-01T16:26:55Z</time>
      </trkpt>
      <trkpt lat="48.75267" lon="-0.24183">
        <ele>168.292</ele>
        <time>2016-06-01T16:26:35Z</time>
      </trkpt>
      <trkpt lat="48.75281" lon="-0.24208">
        <ele>169.632</ele>
        <time>2016-06-01T16:26:15Z</time>
      </trkpt>
      <trkpt lat="48.7528" lon="-0.24262">
        <ele>173.294</ele>
        <time>2016-06-01T16:25:55Z</time>
      </trkpt>
      <trkpt lat="48.75305" lon="-0.24318">
        <ele>177.925</ele>
        <time>2016-06-01T16:25:35Z</time>
      </trkpt>
      <trkpt lat="48.75307" lon="-0.24339">
        <ele>178.939</ele>
        <time>2016-06-01T16:25:15Z</time>
      </trkpt>
      <trkpt lat="48.7527" lon="-0.24386">
        <ele>184.957</ele>
        <time>2016-06-01T16:24:55Z</time>
      </trkpt>
      <trkpt lat="48.75249" lon="-0.24447">
        <ele>188.251</ele>
        <time>2016-06-01T16:24:35Z</time>
      </trkpt>
      <trkpt lat="48.75178" lon="-0.24509">
        <ele>192.668</ele>
        <time>2016-06-01T16:24:15Z</time>
      </trkpt>
      <trkpt lat="48.75165" lon="-0.24552">
        <ele>193.013</ele>
        <time>2016-06-01T16:23:55Z</time>
      </trkpt>
      <trkpt lat="48.75179" lon="-0.24672">
        <ele>186.967</ele>
        <time>2016-06-01T16:23:35Z</time>
      </trkpt>
      <trkpt lat="48.75225" lon="-0.24762">
        <ele>186.208</ele>
        <time>2016-06-01T16:23:15Z</time>
      </trkpt>
      <trkpt lat="48.75225" lon="-0.24786">
        <ele>187.613</ele>
        <time>2016-06-01T16:22:55Z</time>
      </trkpt>
      <trkpt lat="48.75182" lon="-0.24916">
        <ele>194.076</ele>
        <time>2016-06-01T16:22:35Z</time>
      </trkpt>
      <trkpt lat="48.75163" lon="-0.24989">
        <ele>199.616</ele>
        <time>2016-06-01T16:22:15Z</time>
      </trkpt>
      <trkpt lat="48.75188" lon="-0.25146">
        <ele>203.091</ele>
        <time>2016-06-01T16:21:55Z</time>
      </trkpt>
      <trkpt lat="48.75247" lon="-0.2511">
        <ele>200.952</ele>
        <time>2016-06-01T16:21:35Z</time>
      </trkpt>
      <trkpt lat="48.75348" lon="-0.25049">
        <ele>198.996</ele>
        <time>2016-06-01T16:21:15Z</time>
      </trkpt>
      <trkpt lat="48.75406" lon="-0.24979">
        <ele>197.914</ele>
        <time>2016-06-01T16:20:55Z</time>
      </trkpt>
      <trkpt lat="48.75495" lon="-0.24841">
        <ele>190.838</ele>
        <time>2016-06-01T16:20:35Z</time>
      </trkpt>
      <trkpt lat="48.75542" lon="-0.24781">
        <ele>183.785</ele>
        <time>2016-06-01T16:20:15Z</time>
      </trkpt>
      <trkpt lat="48.75577" lon="-0.24764">
        <ele>180.59</ele>
        <time>2016-06-01T16:19:55Z</time>
      </trkpt>
      <trkpt lat="48.75615" lon="-0.24749">
        <ele>176.544</ele>
        <time>2016-06-01T16:19:35Z</time>
      </trkpt>
      <trkpt lat="48.75693" lon="-0.24777">
        <ele>165.208</ele>
        <time>2016-06-01T16:19:15Z</time>
      </trkpt>
      <trkpt lat="48.75723" lon="-0.24773">
        <ele>159.726</ele>
        <time>2016-06-01T16:18:55Z</time>
      </trkpt>
      <trkpt lat="48.75769" lon="-0.24747">
        <ele>148.76</ele>
        <time>2016-06-01T16:18:35Z</time>
      </trkpt>
      <trkpt lat="48.75822" lon="-0.24773">
        <ele>146.086</ele>
        <time>2016-06-01T16:18:15Z</time>
      </trkpt>
      <trkpt lat="48.7586" lon="-0.24777">
        <ele>142.27</ele>
        <time>2016-06-01T16:17:55Z</time>
      </trkpt>
      <trkpt lat="48.7599" lon="-0.24884">
        <ele>141.871</ele>
        <time>2016-06-01T16:17:35Z</time>
      </trkpt>
      <trkpt lat="48.76105" lon="-0.24934">
        <ele>139.535</ele>
        <time>2016-06-01T16:17:15Z</time>
      </trkpt>
      <trkpt lat="48.76105" lon="-0.24934">
        <ele>139.563</ele>
        <time>2016-06-01T16:17:15Z</time>
      </trkpt>
      <trkpt lat="48.76113" lon="-0.24944">
        <ele>139.087</ele>
        <time>2019-10-26T14:11:46Z</time>
      </trkpt>
      <trkpt lat="48.76039" lon="-0.25014">
        <ele>140.584</ele>
        <time>2019-10-26T14:11:26Z</time>
      </trkpt>
      <trkpt lat="48.7597" lon="-0.25072">
        <ele>146.519</ele>
        <time>2019-10-26T14:11:06Z</time>
      </trkpt>
      <trkpt lat="48.75987" lon="-0.25125">
        <ele>145.873</ele>
        <time>2019-10-26T14:10:46Z</time>
      </trkpt>
      <trkpt lat="48.76006" lon="-0.25181">
        <ele>150.008</ele>
        <time>2019-10-26T14:10:26Z</time>
      </trkpt>
      <trkpt lat="48.76036" lon="-0.25296">
        <ele>167.113</ele>
        <time>2019-10-26T14:10:06Z</time>
      </trkpt>
      <trkpt lat="48.76083" lon="-0.25322">
        <ele>164.385</ele>
        <time>2019-10-26T14:09:46Z</time>
      </trkpt>
      <trkpt lat="48.76156" lon="-0.25415">
        <ele>158.473</ele>
        <time>2019-10-26T14:09:26Z</time>
      </trkpt>
      <trkpt lat="48.76165" lon="-0.2552">
        <ele>166.992</ele>
        <time>2019-10-26T14:09:06Z</time>
      </trkpt>
      <trkpt lat="48.76195" lon="-0.2556">
        <ele>166.593</ele>
        <time>2019-10-26T14:08:46Z</time>
      </trkpt>
      <trkpt lat="48.76243" lon="-0.25608">
        <ele>166.417</ele>
        <time>2019-10-26T14:08:26Z</time>
      </trkpt>
      <trkpt lat="48.76269" lon="-0.2565">
        <ele>167.815</ele>
        <time>2019-10-26T14:08:06Z</time>
      </trkpt>
      <trkpt lat="48.76304" lon="-0.25749">
        <ele>171.329</ele>
        <time>2019-10-26T14:07:46Z</time>
      </trkpt>
      <trkpt lat="48.76345" lon="-0.25822">
        <ele>178.576</ele>
        <time>2019-10-26T14:07:26Z</time>
      </trkpt>
      <trkpt lat="48.76348" lon="-0.25904">
        <ele>181.731</ele>
        <time>2019-10-26T14:07:06Z</time>
      </trkpt>
      <trkpt lat="48.7629" lon="-0.26015">
        <ele>188.445</ele>
        <time>2019-10-26T14:06:46Z</time>
      </trkpt>
      <trkpt lat="48.76237" lon="-0.26149">
        <ele>193.008</ele>
        <time>2019-10-26T14:06:26Z</time>
      </trkpt>
      <trkpt lat="48.76234" lon="-0.26255">
        <ele>197.723</ele>
        <time>2019-10-26T14:06:06Z</time>
      </trkpt>
      <trkpt lat="48.76266" lon="-0.26372">
        <ele>199.149</ele>
        <time>2019-10-26T14:05:46Z</time>
      </trkpt>
      <trkpt lat="48.76278" lon="-0.26457">
        <ele>200.195</ele>
        <time>2019-10-26T14:05:26Z</time>
      </trkpt>
      <trkpt lat="48.76242" lon="-0.26594">
        <ele>187.022</ele>
        <time>2019-10-26T14:05:06Z</time>
      </trkpt>
      <trkpt lat="48.76263" lon="-0.26642">
        <ele>185.663</ele>
        <time>2019-10-26T14:04:46Z</time>
      </trkpt>
      <trkpt lat="48.76295" lon="-0.26649">
        <ele>186.717</ele>
        <time>2016-05-31T23:54:25Z</time>
      </trkpt>
      <trkpt lat="48.76351" lon="-0.26631">
        <ele>187.745</ele>
        <time>2016-05-31T23:54:05Z</time>
      </trkpt>
      <trkpt lat="48.76424" lon="-0.26692">
        <ele>192.789</ele>
        <time>2016-05-31T23:53:45Z</time>
      </trkpt>
      <trkpt lat="48.76482" lon="-0.26802">
        <ele>198.056</ele>
        <time>2016-05-31T23:53:25Z</time>
      </trkpt>
      <trkpt lat="48.76544" lon="-0.26816">
        <ele>197.161</ele>
        <time>2016-05-31T23:53:05Z</time>
      </trkpt>
      <trkpt lat="48.76579" lon="-0.2684">
        <ele>198.965</ele>
        <time>2016-05-31T23:52:45Z</time>
      </trkpt>
      <trkpt lat="48.76604" lon="-0.2689">
        <ele>201.508</ele>
        <time>2016-05-31T23:52:25Z</time>
      </trkpt>
      <trkpt lat="48.76585" lon="-0.26956">
        <ele>201.422</ele>
        <time>2016-05-31T23:52:05Z</time>
      </trkpt>
      <trkpt lat="48.76616" lon="-0.27053">
        <ele>200.757</ele>
        <time>2016-05-31T23:51:45Z</time>
      </trkpt>
      <trkpt lat="48.76619" lon="-0.27198">
        <ele>197.994</ele>
        <time>2016-05-31T23:51:25Z</time>
      </trkpt>
      <trkpt lat="48.7664" lon="-0.27269">
        <ele>195.997</ele>
        <time>2016-05-31T23:51:05Z</time>
      </trkpt>
      <trkpt lat="48.76649" lon="-0.27351">
        <ele>194.828</ele>
        <time>2016-05-31T23:50:45Z</time>
      </trkpt>
      <trkpt lat="48.76669" lon="-0.27385">
        <ele>193.282</ele>
        <time>2016-05-31T23:50:25Z</time>
      </trkpt>
      <trkpt lat="48.76668" lon="-0.27484">
        <ele>187.66</ele>
        <time>2016-05-31T23:50:05Z</time>
      </trkpt>
      <trkpt lat="48.76681" lon="-0.27498">
        <ele>187.154</ele>
        <time>2016-05-31T23:49:45Z</time>
      </trkpt>
      <trkpt lat="48.76731" lon="-0.27499">
        <ele>185.411</ele>
        <time>2016-05-31T23:49:25Z</time>
      </trkpt>
      <trkpt lat="48.76805" lon="-0.2749">
        <ele>180.816</ele>
        <time>2016-05-31T23:49:05Z</time>
      </trkpt>
      <trkpt lat="48.769" lon="-0.27458">
        <ele>180.84</ele>
        <time>2016-05-31T23:48:45Z</time>
      </trkpt>
      <trkpt lat="48.77009" lon="-0.27451">
        <ele>174.908</ele>
        <time>2016-05-31T23:48:25Z</time>
      </trkpt>
      <trkpt lat="48.77034" lon="-0.27488">
        <ele>172.011</ele>
        <time>2016-05-31T23:48:05Z</time>
      </trkpt>
      <trkpt lat="48.77085" lon="-0.27534">
        <ele>165.947</ele>
        <time>2016-05-31T23:47:45Z</time>
      </trkpt>
      <trkpt lat="48.77142" lon="-0.27563">
        <ele>157.445</ele>
        <time>2016-05-31T23:47:25Z</time>
      </trkpt>
      <trkpt lat="48.77196" lon="-0.27553">
        <ele>153.07</ele>
        <time>2016-05-31T23:47:05Z</time>
      </trkpt>
      <trkpt lat="48.77243" lon="-0.27596">
        <ele>160.561</ele>
        <time>2016-05-31T23:46:45Z</time>
      </trkpt>
      <trkpt lat="48.77282" lon="-0.27642">
        <ele>160.945</ele>
        <time>2016-05-31T23:46:25Z</time>
      </trkpt>
      <trkpt lat="48.773" lon="-0.27642">
        <ele>159.533</ele>
        <time>2016-05-31T23:46:05Z</time>
      </trkpt>
      <trkpt lat="48.77346" lon="-0.27619">
        <ele>155.837</ele>
        <time>2016-05-31T23:45:45Z</time>
      </trkpt>
      <trkpt lat="48.77386" lon="-0.27686">
        <ele>155.944</ele>
        <time>2016-05-31T23:45:25Z</time>
      </trkpt>
      <trkpt lat="48.77418" lon="-0.27761">
        <ele>156.899</ele>
        <time>2016-05-31T23:45:05Z</time>
      </trkpt>
      <trkpt lat="48.77419" lon="-0.27795">
        <ele>159.763</ele>
        <time>2016-05-31T23:44:45Z</time>
      </trkpt>
      <trkpt lat="48.77408" lon="-0.27957">
        <ele>178.108</ele>
        <time>2016-05-31T23:44:25Z</time>
      </trkpt>
      <trkpt lat="48.77495" lon="-0.28142">
        <ele>184.815</ele>
        <time>2016-05-31T23:44:05Z</time>
      </trkpt>
      <trkpt lat="48.77495" lon="-0.28142">
        <ele>184.841</ele>
        <time>2016-05-31T23:43:45Z</time>
      </trkpt>
      <trkpt lat="48.77495" lon="-0.28142">
        <ele>184.871</ele>
        <time>2016-05-31T23:43:25Z</time>
      </trkpt>
      <trkpt lat="48.77577" lon="-0.28375">
        <ele>182.742</ele>
        <time>2016-05-31T23:43:05Z</time>
      </trkpt>
      <trkpt lat="48.77652" lon="-0.28357">
        <ele>173.523</ele>
        <time>2016-05-31T23:42:45Z</time>
      </trkpt>
      <trkpt lat="48.77721" lon="-0.28349">
        <ele>165.667</ele>
        <time>2016-05-31T23:42:25Z</time>
      </trkpt>
      <trkpt lat="48.77799" lon="-0.28295">
        <ele>159.445</ele>
        <time>2016-05-31T23:42:05Z</time>
      </trkpt>
      <trkpt lat="48.77794" lon="-0.283">
        <ele>158</ele>
      </trkpt>
      <trkpt lat="48.77801" lon="-0.28316">
        <ele>158.2</ele>
      </trkpt>
      <trkpt lat="48.77814" lon="-0.28372">
        <ele>158.6</ele>
      </trkpt>
      <trkpt lat="48.77826" lon="-0.28415">
        <ele>159.1</ele>
      </trkpt>
      <trkpt lat="48.77828" lon="-0.28458">
        <ele>158.6</ele>
      </trkpt>
      <trkpt lat="48.77831" lon="-0.2851">
        <ele>157.8</ele>
      </trkpt>
      <trkpt lat="48.77868" lon="-0.28537">
        <ele>155</ele>
      </trkpt>
      <trkpt lat="48.77916" lon="-0.28526">
        <ele>152.4</ele>
      </trkpt>
      <trkpt lat="48.77986" lon="-0.28512">
        <ele>142.1</ele>
      </trkpt>
      <trkpt lat="48.77989" lon="-0.28536">
        <ele>141.3</ele>
      </trkpt>
      <trkpt lat="48.77992" lon="-0.28551">
        <ele>140.6</ele>
      </trkpt>
      <trkpt lat="48.77998" lon="-0.2858">
        <ele>139.4</ele>
      </trkpt>
      <trkpt lat="48.78004" lon="-0.28588">
        <ele>139</ele>
      </trkpt>
      <trkpt lat="48.7802" lon="-0.28586">
        <ele>137.4</ele>
      </trkpt>
      <trkpt lat="48.7803" lon="-0.28578">
        <ele>136.1</ele>
      </trkpt>
      <trkpt lat="48.78042" lon="-0.28568">
        <ele>134.9</ele>
      </trkpt>
      <trkpt lat="48.78052" lon="-0.28561">
        <ele>133.8</ele>
      </trkpt>
      <trkpt lat="48.78061" lon="-0.28558">
        <ele>132.8</ele>
      </trkpt>
      <trkpt lat="48.78063" lon="-0.28557">
        <ele>132.6</ele>
      </trkpt>
      <trkpt lat="48.78069" lon="-0.28559">
        <ele>132</ele>
      </trkpt>
      <trkpt lat="48.78076" lon="-0.28564">
        <ele>131.3</ele>
      </trkpt>
      <trkpt lat="48.78086" lon="-0.2857">
        <ele>130.4</ele>
      </trkpt>
      <trkpt lat="48.78095" lon="-0.28576">
        <ele>129.8</ele>
      </trkpt>
      <trkpt lat="48.78103" lon="-0.28584">
        <ele>129.2</ele>
      </trkpt>
      <trkpt lat="48.7811" lon="-0.28591">
        <ele>129.8</ele>
      </trkpt>
      <trkpt lat="48.78113" lon="-0.28596">
        <ele>130.4</ele>
      </trkpt>
      <trkpt lat="48.78114" lon="-0.28603">
        <ele>131.6</ele>
      </trkpt>
      <trkpt lat="48.78109" lon="-0.28608">
        <ele>132.9</ele>
      </trkpt>
      <trkpt lat="48.78099" lon="-0.28605">
        <ele>133.5</ele>
      </trkpt>
      <trkpt lat="48.78084" lon="-0.286">
        <ele>134.1</ele>
      </trkpt>
      <trkpt lat="48.78069" lon="-0.28602">
        <ele>135.7</ele>
      </trkpt>
      <trkpt lat="48.78056" lon="-0.28614">
        <ele>138.4</ele>
      </trkpt>
      <trkpt lat="48.78045" lon="-0.28629">
        <ele>141.2</ele>
      </trkpt>
      <trkpt lat="48.78038" lon="-0.28644">
        <ele>143.4</ele>
      </trkpt>
      <trkpt lat="48.78036" lon="-0.28653">
        <ele>144.7</ele>
      </trkpt>
      <trkpt lat="48.78039" lon="-0.28662">
        <ele>145.8</ele>
      </trkpt>
      <trkpt lat="48.78038" lon="-0.28663">
        <ele>146</ele>
      </trkpt>
      <trkpt lat="48.78027" lon="-0.28689">
        <ele>148.8</ele>
      </trkpt>
      <trkpt lat="48.78012" lon="-0.28722">
        <ele>151.7</ele>
      </trkpt>
      <trkpt lat="48.77993" lon="-0.28762">
        <ele>155.1</ele>
      </trkpt>
      <trkpt lat="48.77976" lon="-0.28794">
        <ele>157.9</ele>
      </trkpt>
      <trkpt lat="48.7796" lon="-0.28818">
        <ele>159.9</ele>
      </trkpt>
      <trkpt lat="48.77947" lon="-0.28828">
        <ele>160.9</ele>
      </trkpt>
      <trkpt lat="48.77936" lon="-0.28837">
        <ele>161.615</ele>
        <time>2020-12-23T21:55:55Z</time>
      </trkpt>
      <trkpt lat="48.77894" lon="-0.28883">
        <ele>163.398</ele>
        <time>2016-05-31T23:37:25Z</time>
      </trkpt>
      <trkpt lat="48.7783" lon="-0.28917">
        <ele>167.494</ele>
        <time>2016-05-31T23:37:05Z</time>
      </trkpt>
      <trkpt lat="48.77745" lon="-0.29031">
        <ele>175.395</ele>
        <time>2016-05-31T23:36:45Z</time>
      </trkpt>
      <trkpt lat="48.77877" lon="-0.29123">
        <ele>172.449</ele>
        <time>2016-05-31T23:36:25Z</time>
      </trkpt>
      <trkpt lat="48.77916" lon="-0.2916">
        <ele>171.847</ele>
        <time>2016-05-31T23:36:05Z</time>
      </trkpt>
      <trkpt lat="48.77949" lon="-0.2916">
        <ele>169.771</ele>
        <time>2016-05-31T23:35:45Z</time>
      </trkpt>
      <trkpt lat="48.77963" lon="-0.29188">
        <ele>170.878</ele>
        <time>2016-05-31T23:35:25Z</time>
      </trkpt>
      <trkpt lat="48.77939" lon="-0.29224">
        <ele>172.033</ele>
        <time>2016-05-31T23:35:05Z</time>
      </trkpt>
      <trkpt lat="48.78053" lon="-0.29282">
        <ele>174.387</ele>
        <time>2016-05-31T23:34:45Z</time>
      </trkpt>
      <trkpt lat="48.78063" lon="-0.29334">
        <ele>176.708</ele>
        <time>2016-05-31T23:34:25Z</time>
      </trkpt>
      <trkpt lat="48.78066" lon="-0.29469">
        <ele>180.209</ele>
        <time>2016-05-31T23:34:05Z</time>
      </trkpt>
      <trkpt lat="48.78001" lon="-0.29718">
        <ele>193.854</ele>
        <time>2016-05-31T23:33:45Z</time>
      </trkpt>
      <trkpt lat="48.77868" lon="-0.30025">
        <ele>181.414</ele>
        <time>2016-05-31T23:33:25Z</time>
      </trkpt>
      <trkpt lat="48.77861" lon="-0.30126">
        <ele>178.526</ele>
        <time>2016-05-31T23:33:05Z</time>
      </trkpt>
      <trkpt lat="48.77865" lon="-0.3025">
        <ele>178.627</ele>
        <time>2016-05-31T23:32:45Z</time>
      </trkpt>
      <trkpt lat="48.77793" lon="-0.30851">
        <ele>158.761</ele>
        <time>2016-05-31T23:32:25Z</time>
      </trkpt>
      <trkpt lat="48.77756" lon="-0.30973">
        <ele>155.569</ele>
        <time>2016-05-31T23:32:05Z</time>
      </trkpt>
      <trkpt lat="48.77737" lon="-0.3107">
        <ele>151.613</ele>
        <time>2016-05-31T23:31:45Z</time>
      </trkpt>
      <trkpt lat="48.77923" lon="-0.31158">
        <ele>151.76</ele>
        <time>2016-05-31T23:31:25Z</time>
      </trkpt>
      <trkpt lat="48.77947" lon="-0.31162">
        <ele>156.635</ele>
        <time>2016-05-31T23:31:05Z</time>
      </trkpt>
      <trkpt lat="48.78066" lon="-0.31108">
        <ele>173.129</ele>
        <time>2016-05-31T23:30:45Z</time>
      </trkpt>
      <trkpt lat="48.78076" lon="-0.31089">
        <ele>171.908</ele>
        <time>2016-05-31T23:30:25Z</time>
      </trkpt>
      <trkpt lat="48.78137" lon="-0.30988">
        <ele>168.413</ele>
        <time>2016-05-31T23:30:05Z</time>
      </trkpt>
      <trkpt lat="48.78164" lon="-0.3095">
        <ele>164.649</ele>
        <time>2016-05-31T23:29:45Z</time>
      </trkpt>
      <trkpt lat="48.7827" lon="-0.30862">
        <ele>172.237</ele>
        <time>2016-05-31T23:29:25Z</time>
      </trkpt>
      <trkpt lat="48.78315" lon="-0.30838">
        <ele>173.984</ele>
        <time>2016-05-31T23:29:05Z</time>
      </trkpt>
      <trkpt lat="48.78362" lon="-0.30834">
        <ele>175.095</ele>
        <time>2016-05-31T23:28:45Z</time>
      </trkpt>
      <trkpt lat="48.78447" lon="-0.30861">
        <ele>181.899</ele>
        <time>2016-05-31T23:28:25Z</time>
      </trkpt>
      <trkpt lat="48.78447" lon="-0.30861">
        <ele>181.887</ele>
        <time>2016-05-31T23:28:05Z</time>
      </trkpt>
      <trkpt lat="48.78485" lon="-0.30931">
        <ele>185.331</ele>
        <time>2016-05-31T23:27:45Z</time>
      </trkpt>
      <trkpt lat="48.78534" lon="-0.30976">
        <ele>188.478</ele>
        <time>2016-05-31T23:27:25Z</time>
      </trkpt>
      <trkpt lat="48.78561" lon="-0.31032">
        <ele>192.343</ele>
        <time>2016-05-31T23:27:05Z</time>
      </trkpt>
      <trkpt lat="48.78624" lon="-0.31047">
        <ele>192.567</ele>
        <time>2016-05-31T23:26:45Z</time>
      </trkpt>
      <trkpt lat="48.78648" lon="-0.31072">
        <ele>193.608</ele>
        <time>2016-05-31T23:26:25Z</time>
      </trkpt>
      <trkpt lat="48.78647" lon="-0.31116">
        <ele>194.215</ele>
        <time>2016-05-31T23:26:05Z</time>
      </trkpt>
      <trkpt lat="48.78624" lon="-0.31164">
        <ele>194.187</ele>
        <time>2016-05-31T23:25:45Z</time>
      </trkpt>
      <trkpt lat="48.78706" lon="-0.31196">
        <ele>181.617</ele>
        <time>2016-05-31T23:25:25Z</time>
      </trkpt>
      <trkpt lat="48.78835" lon="-0.31195">
        <ele>165.73</ele>
        <time>2016-05-31T23:25:05Z</time>
      </trkpt>
      <trkpt lat="48.78945" lon="-0.31153">
        <ele>168.471</ele>
        <time>2016-05-31T23:24:45Z</time>
      </trkpt>
      <trkpt lat="48.7907" lon="-0.31163">
        <ele>162.265</ele>
        <time>2016-05-31T23:24:25Z</time>
      </trkpt>
      <trkpt lat="48.79224" lon="-0.31149">
        <ele>160.033</ele>
        <time>2016-05-31T23:24:05Z</time>
      </trkpt>
      <trkpt lat="48.79265" lon="-0.31191">
        <ele>159.667</ele>
        <time>2016-05-31T23:23:45Z</time>
      </trkpt>
      <trkpt lat="48.793" lon="-0.31202">
        <ele>160.024</ele>
        <time>2016-05-31T23:23:25Z</time>
      </trkpt>
      <trkpt lat="48.79374" lon="-0.31199">
        <ele>159.969</ele>
        <time>2016-05-31T23:23:05Z</time>
      </trkpt>
      <trkpt lat="48.79505" lon="-0.31313">
        <ele>150.993</ele>
        <time>2016-05-31T23:22:45Z</time>
      </trkpt>
      <trkpt lat="48.79544" lon="-0.3133">
        <ele>144.608</ele>
        <time>2016-05-31T23:22:25Z</time>
      </trkpt>
      <trkpt lat="48.79584" lon="-0.31294">
        <ele>139.926</ele>
        <time>2016-05-31T23:22:05Z</time>
      </trkpt>
      <trkpt lat="48.79614" lon="-0.31244">
        <ele>133.633</ele>
        <time>2016-05-31T23:21:45Z</time>
      </trkpt>
      <trkpt lat="48.79633" lon="-0.31216">
        <ele>125.878</ele>
        <time>2016-05-31T23:21:25Z</time>
      </trkpt>
      <trkpt lat="48.79644" lon="-0.31235">
        <ele>123.212</ele>
        <time>2016-05-31T23:21:05Z</time>
      </trkpt>
      <trkpt lat="48.79644" lon="-0.3137">
        <ele>106.923</ele>
        <time>2016-05-31T23:20:45Z</time>
      </trkpt>
      <trkpt lat="48.79662" lon="-0.31444">
        <ele>102.257</ele>
        <time>2016-05-31T23:20:25Z</time>
      </trkpt>
      <trkpt lat="48.79651" lon="-0.3151">
        <ele>101.115</ele>
        <time>2016-05-31T23:20:05Z</time>
      </trkpt>
      <trkpt lat="48.79644" lon="-0.31556">
        <ele>99.059</ele>
        <time>2016-05-31T23:19:45Z</time>
      </trkpt>
      <trkpt lat="48.79579" lon="-0.31522">
        <ele>105.516</ele>
        <time>2016-05-31T23:19:25Z</time>
      </trkpt>
      <trkpt lat="48.79564" lon="-0.31595">
        <ele>106.291</ele>
        <time>2016-05-31T23:19:05Z</time>
      </trkpt>
      <trkpt lat="48.79489" lon="-0.31593">
        <ele>119.915</ele>
        <time>2016-05-31T23:18:45Z</time>
      </trkpt>
      <trkpt lat="48.79424" lon="-0.31634">
        <ele>136.008</ele>
        <time>2016-05-31T23:18:25Z</time>
      </trkpt>
      <trkpt lat="48.79419" lon="-0.31661">
        <ele>136.923</ele>
        <time>2016-05-31T23:18:05Z</time>
      </trkpt>
      <trkpt lat="48.79445" lon="-0.31665">
        <ele>135.849</ele>
        <time>2016-05-31T23:17:45Z</time>
      </trkpt>
      <trkpt lat="48.79481" lon="-0.31703">
        <ele>135.595</ele>
        <time>2016-05-31T23:17:25Z</time>
      </trkpt>
      <trkpt lat="48.7955" lon="-0.31845">
        <ele>138.284</ele>
        <time>2016-05-31T23:17:05Z</time>
      </trkpt>
      <trkpt lat="48.79574" lon="-0.31956">
        <ele>155.815</ele>
        <time>2016-05-31T23:16:45Z</time>
      </trkpt>
      <trkpt lat="48.79623" lon="-0.32015">
        <ele>168.189</ele>
        <time>2016-05-31T23:16:25Z</time>
      </trkpt>
      <trkpt lat="48.79696" lon="-0.32097">
        <ele>174.057</ele>
        <time>2016-05-31T23:16:05Z</time>
      </trkpt>
      <trkpt lat="48.79789" lon="-0.32174">
        <ele>183.591</ele>
        <time>2016-05-31T23:15:45Z</time>
      </trkpt>
      <trkpt lat="48.79797" lon="-0.32252">
        <ele>186.138</ele>
        <time>2016-05-31T23:15:25Z</time>
      </trkpt>
      <trkpt lat="48.79847" lon="-0.32259">
        <ele>188.893</ele>
        <time>2016-05-31T23:15:05Z</time>
      </trkpt>
      <trkpt lat="48.79878" lon="-0.32281">
        <ele>190.257</ele>
        <time>2016-05-31T23:14:45Z</time>
      </trkpt>
      <trkpt lat="48.79905" lon="-0.3233">
        <ele>193.808</ele>
        <time>2016-05-31T23:14:25Z</time>
      </trkpt>
      <trkpt lat="48.79988" lon="-0.32391">
        <ele>192.609</ele>
        <time>2016-05-31T23:14:05Z</time>
      </trkpt>
      <trkpt lat="48.80019" lon="-0.32403">
        <ele>193.554</ele>
        <time>2016-05-31T23:13:45Z</time>
      </trkpt>
      <trkpt lat="48.80116" lon="-0.32393">
        <ele>189.414</ele>
        <time>2016-05-31T23:13:25Z</time>
      </trkpt>
      <trkpt lat="48.80168" lon="-0.32344">
        <ele>190.225</ele>
        <time>2016-05-31T23:13:05Z</time>
      </trkpt>
      <trkpt lat="48.8025" lon="-0.32332">
        <ele>195.976</ele>
        <time>2016-05-31T23:12:45Z</time>
      </trkpt>
      <trkpt lat="48.80278" lon="-0.32313">
        <ele>196.32</ele>
        <time>2016-05-31T23:12:25Z</time>
      </trkpt>
      <trkpt lat="48.80357" lon="-0.32273">
        <ele>201.368</ele>
        <time>2016-05-31T23:12:05Z</time>
      </trkpt>
      <trkpt lat="48.80405" lon="-0.32241">
        <ele>191.132</ele>
        <time>2016-05-31T23:11:45Z</time>
      </trkpt>
      <trkpt lat="48.80441" lon="-0.32159">
        <ele>180.219</ele>
        <time>2016-05-31T23:11:25Z</time>
      </trkpt>
      <trkpt lat="48.80485" lon="-0.32162">
        <ele>173.894</ele>
        <time>2016-05-31T23:11:05Z</time>
      </trkpt>
      <trkpt lat="48.80523" lon="-0.32154">
        <ele>168.798</ele>
        <time>2016-05-31T23:10:45Z</time>
      </trkpt>
      <trkpt lat="48.8055" lon="-0.32184">
        <ele>165.208</ele>
        <time>2016-05-31T23:10:25Z</time>
      </trkpt>
      <trkpt lat="48.80563" lon="-0.32226">
        <ele>164.411</ele>
        <time>2016-05-31T23:10:05Z</time>
      </trkpt>
      <trkpt lat="48.80576" lon="-0.32252">
        <ele>162.483</ele>
        <time>2016-05-31T23:09:45Z</time>
      </trkpt>
      <trkpt lat="48.80641" lon="-0.32239">
        <ele>156.023</ele>
        <time>2016-05-31T23:09:25Z</time>
      </trkpt>
      <trkpt lat="48.80698" lon="-0.32203">
        <ele>158.724</ele>
        <time>2016-05-31T23:09:05Z</time>
      </trkpt>
      <trkpt lat="48.80754" lon="-0.32073">
        <ele>159.615</ele>
        <time>2016-05-31T23:08:45Z</time>
      </trkpt>
      <trkpt lat="48.8076" lon="-0.31995">
        <ele>154.539</ele>
        <time>2016-05-31T23:08:25Z</time>
      </trkpt>
      <trkpt lat="48.8075" lon="-0.31843">
        <ele>142.497</ele>
        <time>2016-05-31T23:08:05Z</time>
      </trkpt>
      <trkpt lat="48.80774" lon="-0.31799">
        <ele>139.131</ele>
        <time>2016-05-31T23:07:45Z</time>
      </trkpt>
      <trkpt lat="48.80827" lon="-0.31749">
        <ele>137.228</ele>
        <time>2016-05-31T23:07:25Z</time>
      </trkpt>
      <trkpt lat="48.80861" lon="-0.317">
        <ele>134.473</ele>
        <time>2016-05-31T23:07:05Z</time>
      </trkpt>
      <trkpt lat="48.80896" lon="-0.31587">
        <ele>130.037</ele>
        <time>2016-05-31T23:06:45Z</time>
      </trkpt>
      <trkpt lat="48.80911" lon="-0.31512">
        <ele>123.908</ele>
        <time>2016-05-31T23:06:25Z</time>
      </trkpt>
      <trkpt lat="48.80955" lon="-0.31479">
        <ele>121.807</ele>
        <time>2016-05-31T23:06:05Z</time>
      </trkpt>
      <trkpt lat="48.81003" lon="-0.31484">
        <ele>114.343</ele>
        <time>2016-05-31T23:05:45Z</time>
      </trkpt>
      <trkpt lat="48.81057" lon="-0.31511">
        <ele>101.113</ele>
        <time>2016-05-31T23:05:25Z</time>
      </trkpt>
      <trkpt lat="48.81079" lon="-0.31546">
        <ele>97.895</ele>
        <time>2016-05-31T23:05:05Z</time>
      </trkpt>
      <trkpt lat="48.81103" lon="-0.31617">
        <ele>93.936</ele>
        <time>2016-05-31T23:04:45Z</time>
      </trkpt>
      <trkpt lat="48.81139" lon="-0.3179">
        <ele>91.99</ele>
        <time>2016-05-31T23:04:25Z</time>
      </trkpt>
      <trkpt lat="48.81154" lon="-0.31919">
        <ele>88.628</ele>
        <time>2016-05-31T23:04:05Z</time>
      </trkpt>
      <trkpt lat="48.81175" lon="-0.32036">
        <ele>82.982</ele>
        <time>2016-05-31T23:03:45Z</time>
      </trkpt>
      <trkpt lat="48.81164" lon="-0.32115">
        <ele>89.249</ele>
        <time>2016-05-31T23:03:25Z</time>
      </trkpt>
      <trkpt lat="48.81166" lon="-0.32197">
        <ele>109.074</ele>
        <time>2016-05-31T23:03:05Z</time>
      </trkpt>
      <trkpt lat="48.81222" lon="-0.32352">
        <ele>117.058</ele>
        <time>2016-05-31T23:02:45Z</time>
      </trkpt>
      <trkpt lat="48.81201" lon="-0.3242">
        <ele>127.908</ele>
        <time>2016-05-31T23:02:25Z</time>
      </trkpt>
      <trkpt lat="48.81172" lon="-0.32419">
        <ele>136.611</ele>
        <time>2016-05-31T23:02:05Z</time>
      </trkpt>
      <trkpt lat="48.81119" lon="-0.32426">
        <ele>146.447</ele>
        <time>2016-05-31T23:01:45Z</time>
      </trkpt>
      <trkpt lat="48.81047" lon="-0.32482">
        <ele>151.426</ele>
        <time>2016-05-31T23:01:25Z</time>
      </trkpt>
      <trkpt lat="48.81009" lon="-0.32546">
        <ele>156.947</ele>
        <time>2016-05-31T23:01:05Z</time>
      </trkpt>
      <trkpt lat="48.81032" lon="-0.32643">
        <ele>157.868</ele>
        <time>2016-05-31T23:00:45Z</time>
      </trkpt>
      <trkpt lat="48.81004" lon="-0.32671">
        <ele>161.692</ele>
        <time>2016-05-31T23:00:25Z</time>
      </trkpt>
      <trkpt lat="48.81004" lon="-0.32671">
        <ele>161.65</ele>
        <time>2016-05-31T23:00:05Z</time>
      </trkpt>
      <trkpt lat="48.80903" lon="-0.32772">
        <ele>174.044</ele>
        <time>2016-05-31T22:59:45Z</time>
      </trkpt>
      <trkpt lat="48.80816" lon="-0.32882">
        <ele>180.931</ele>
        <time>2016-05-31T22:59:25Z</time>
      </trkpt>
      <trkpt lat="48.80792" lon="-0.32932">
        <ele>179.926</ele>
        <time>2016-05-31T22:59:05Z</time>
      </trkpt>
      <trkpt lat="48.80803" lon="-0.33029">
        <ele>185.68</ele>
        <time>2016-05-31T22:58:45Z</time>
      </trkpt>
      <trkpt lat="48.80835" lon="-0.33111">
        <ele>190.208</ele>
        <time>2016-05-31T22:58:25Z</time>
      </trkpt>
      <trkpt lat="48.8083" lon="-0.33155">
        <ele>189.616</ele>
        <time>2016-05-31T22:58:05Z</time>
      </trkpt>
      <trkpt lat="48.80806" lon="-0.33196">
        <ele>189.188</ele>
        <time>2016-05-31T22:57:45Z</time>
      </trkpt>
      <trkpt lat="48.80827" lon="-0.33269">
        <ele>191.846</ele>
        <time>2016-05-31T22:57:25Z</time>
      </trkpt>
      <trkpt lat="48.80849" lon="-0.33395">
        <ele>196.836</ele>
        <time>2016-05-31T22:57:05Z</time>
      </trkpt>
      <trkpt lat="48.80872" lon="-0.33436">
        <ele>199.167</ele>
        <time>2016-05-31T22:56:45Z</time>
      </trkpt>
      <trkpt lat="48.80898" lon="-0.33457">
        <ele>200.131</ele>
        <time>2016-05-31T22:56:25Z</time>
      </trkpt>
      <trkpt lat="48.80953" lon="-0.33471">
        <ele>202.389</ele>
        <time>2016-05-31T22:56:05Z</time>
      </trkpt>
      <trkpt lat="48.81118" lon="-0.33354">
        <ele>194.453</ele>
        <time>2016-05-31T22:55:45Z</time>
      </trkpt>
      <trkpt lat="48.81162" lon="-0.33342">
        <ele>189.35</ele>
        <time>2016-05-31T22:55:25Z</time>
      </trkpt>
      <trkpt lat="48.81202" lon="-0.33318">
        <ele>182.355</ele>
        <time>2016-05-31T22:55:05Z</time>
      </trkpt>
      <trkpt lat="48.81261" lon="-0.33358">
        <ele>168.869</ele>
        <time>2016-05-31T22:54:45Z</time>
      </trkpt>
      <trkpt lat="48.81275" lon="-0.33407">
        <ele>166.708</ele>
        <time>2016-05-31T22:54:25Z</time>
      </trkpt>
      <trkpt lat="48.8127" lon="-0.33448">
        <ele>170.91</ele>
        <time>2016-05-31T22:54:05Z</time>
      </trkpt>
      <trkpt lat="48.81321" lon="-0.33584">
        <ele>178.155</ele>
        <time>2016-05-31T22:53:45Z</time>
      </trkpt>
      <trkpt lat="48.81302" lon="-0.33682">
        <ele>189.934</ele>
        <time>2016-05-31T22:53:25Z</time>
      </trkpt>
      <trkpt lat="48.81276" lon="-0.33693">
        <ele>196.331</ele>
        <time>2016-05-31T22:53:05Z</time>
      </trkpt>
      <trkpt lat="48.81273" lon="-0.33725">
        <ele>200.512</ele>
        <time>2016-05-31T22:52:45Z</time>
      </trkpt>
      <trkpt lat="48.81255" lon="-0.33799">
        <ele>205.496</ele>
        <time>2016-05-31T22:52:25Z</time>
      </trkpt>
      <trkpt lat="48.81242" lon="-0.3391">
        <ele>212.024</ele>
        <time>2016-05-31T22:52:05Z</time>
      </trkpt>
      <trkpt lat="48.81244" lon="-0.33968">
        <ele>212.478</ele>
        <time>2016-05-31T22:51:45Z</time>
      </trkpt>
      <trkpt lat="48.8124" lon="-0.33994">
        <ele>213.565</ele>
        <time>2016-05-31T22:51:25Z</time>
      </trkpt>
      <trkpt lat="48.81229" lon="-0.34036">
        <ele>214.55</ele>
        <time>2016-05-31T22:51:05Z</time>
      </trkpt>
      <trkpt lat="48.81209" lon="-0.34078">
        <ele>214.574</ele>
        <time>2016-05-31T22:50:45Z</time>
      </trkpt>
      <trkpt lat="48.81192" lon="-0.34094">
        <ele>215.108</ele>
        <time>2016-05-31T22:50:25Z</time>
      </trkpt>
      <trkpt lat="48.81179" lon="-0.34118">
        <ele>215.817</ele>
        <time>2016-05-31T22:50:05Z</time>
      </trkpt>
      <trkpt lat="48.8117" lon="-0.34208">
        <ele>217.943</ele>
        <time>2016-05-31T22:49:45Z</time>
      </trkpt>
      <trkpt lat="48.81186" lon="-0.34198">
        <ele>217.382</ele>
        <time>2016-05-31T22:49:25Z</time>
      </trkpt>
      <trkpt lat="48.81191" lon="-0.342">
        <ele>217.165</ele>
        <time>2016-05-31T22:49:05Z</time>
      </trkpt>
      <trkpt lat="48.81195" lon="-0.34231">
        <ele>216.756</ele>
        <time>2016-05-31T22:48:45Z</time>
      </trkpt>
      <trkpt lat="48.81232" lon="-0.34232">
        <ele>214.75</ele>
        <time>2016-05-31T22:48:25Z</time>
      </trkpt>
      <trkpt lat="48.81255" lon="-0.3426">
        <ele>211.968</ele>
        <time>2016-05-31T22:48:05Z</time>
      </trkpt>
      <trkpt lat="48.81266" lon="-0.34265">
        <ele>210.252</ele>
        <time>2016-05-31T22:47:45Z</time>
      </trkpt>
      <trkpt lat="48.81307" lon="-0.34236">
        <ele>204.899</ele>
        <time>2016-05-31T22:46:05Z</time>
      </trkpt>
      <trkpt lat="48.81341" lon="-0.34225">
        <ele>199.654</ele>
        <time>2016-05-31T22:45:45Z</time>
      </trkpt>
      <trkpt lat="48.81374" lon="-0.34223">
        <ele>195.188</ele>
        <time>2016-05-31T22:45:25Z</time>
      </trkpt>
      <trkpt lat="48.81389" lon="-0.34279">
        <ele>196.108</ele>
        <time>2016-05-31T22:45:05Z</time>
      </trkpt>
      <trkpt lat="48.81406" lon="-0.34315">
        <ele>197.105</ele>
        <time>2016-05-31T22:44:45Z</time>
      </trkpt>
      <trkpt lat="48.81438" lon="-0.34348">
        <ele>194.141</ele>
        <time>2016-05-31T22:44:25Z</time>
      </trkpt>
      <trkpt lat="48.81477" lon="-0.34446">
        <ele>193.421</ele>
        <time>2016-05-31T22:44:05Z</time>
      </trkpt>
      <trkpt lat="48.815" lon="-0.3453">
        <ele>194.336</ele>
        <time>2016-05-31T22:43:45Z</time>
      </trkpt>
      <trkpt lat="48.81539" lon="-0.34606">
        <ele>193.237</ele>
        <time>2016-05-31T22:43:25Z</time>
      </trkpt>
      <trkpt lat="48.81566" lon="-0.34647">
        <ele>191.321</ele>
        <time>2016-05-31T22:43:05Z</time>
      </trkpt>
      <trkpt lat="48.81584" lon="-0.34695">
        <ele>191.989</ele>
        <time>2016-05-31T22:42:45Z</time>
      </trkpt>
      <trkpt lat="48.81619" lon="-0.34761">
        <ele>190.863</ele>
        <time>2016-05-31T22:42:25Z</time>
      </trkpt>
      <trkpt lat="48.81643" lon="-0.34833">
        <ele>196.57</ele>
        <time>2016-05-31T22:42:05Z</time>
      </trkpt>
      <trkpt lat="48.81661" lon="-0.34936">
        <ele>204.615</ele>
        <time>2016-05-31T22:41:45Z</time>
      </trkpt>
      <trkpt lat="48.81663" lon="-0.34965">
        <ele>206.119</ele>
        <time>2016-05-31T22:41:25Z</time>
      </trkpt>
      <trkpt lat="48.81611" lon="-0.35179">
        <ele>211.608</ele>
        <time>2016-05-31T22:41:05Z</time>
      </trkpt>
      <trkpt lat="48.81593" lon="-0.35208">
        <ele>209.518</ele>
        <time>2016-05-31T22:40:45Z</time>
      </trkpt>
      <trkpt lat="48.81454" lon="-0.35312">
        <ele>222.617</ele>
        <time>2016-05-31T22:40:25Z</time>
      </trkpt>
      <trkpt lat="48.81357" lon="-0.35365">
        <ele>230.036</ele>
        <time>2016-05-31T22:40:05Z</time>
      </trkpt>
      <trkpt lat="48.81369" lon="-0.35442">
        <ele>228.574</ele>
        <time>2016-05-31T22:39:45Z</time>
      </trkpt>
      <trkpt lat="48.81416" lon="-0.35668">
        <ele>226.055</ele>
        <time>2016-05-31T22:39:25Z</time>
      </trkpt>
      <trkpt lat="48.81423" lon="-0.35724">
        <ele>226.599</ele>
        <time>2016-05-31T22:39:05Z</time>
      </trkpt>
      <trkpt lat="48.8142" lon="-0.35748">
        <ele>226.967</ele>
        <time>2016-05-31T22:38:45Z</time>
      </trkpt>
      <trkpt lat="48.81435" lon="-0.35749">
        <ele>226.371</ele>
        <time>2016-05-31T22:38:25Z</time>
      </trkpt>
      <trkpt lat="48.81491" lon="-0.35805">
        <ele>220.318</ele>
        <time>2016-05-31T22:38:05Z</time>
      </trkpt>
      <trkpt lat="48.81548" lon="-0.35837">
        <ele>216.643</ele>
        <time>2016-05-31T22:37:45Z</time>
      </trkpt>
      <trkpt lat="48.81545" lon="-0.35927">
        <ele>224.477</ele>
        <time>2016-05-31T22:37:25Z</time>
      </trkpt>
      <trkpt lat="48.81473" lon="-0.35983">
        <ele>226.808</ele>
        <time>2016-05-31T22:37:05Z</time>
      </trkpt>
      <trkpt lat="48.81467" lon="-0.36001">
        <ele>227.905</ele>
        <time>2016-05-31T22:36:45Z</time>
      </trkpt>
      <trkpt lat="48.81466" lon="-0.36036">
        <ele>230.432</ele>
        <time>2016-05-31T22:36:25Z</time>
      </trkpt>
      <trkpt lat="48.81476" lon="-0.36067">
        <ele>231.412</ele>
        <time>2016-05-31T22:36:05Z</time>
      </trkpt>
      <trkpt lat="48.81474" lon="-0.36099">
        <ele>232.07</ele>
        <time>2016-05-31T22:35:45Z</time>
      </trkpt>
      <trkpt lat="48.81492" lon="-0.36154">
        <ele>232.731</ele>
        <time>2016-05-31T22:35:25Z</time>
      </trkpt>
      <trkpt lat="48.81499" lon="-0.3619">
        <ele>233.835</ele>
        <time>2016-05-31T22:35:05Z</time>
      </trkpt>
      <trkpt lat="48.81613" lon="-0.36303">
        <ele>236.923</ele>
        <time>2016-05-31T22:34:45Z</time>
      </trkpt>
      <trkpt lat="48.81657" lon="-0.36358">
        <ele>233.087</ele>
        <time>2016-05-31T22:34:25Z</time>
      </trkpt>
      <trkpt lat="48.81693" lon="-0.36388">
        <ele>234.094</ele>
        <time>2016-05-31T22:34:05Z</time>
      </trkpt>
      <trkpt lat="48.81712" lon="-0.36392">
        <ele>234.849</ele>
        <time>2016-05-31T22:33:45Z</time>
      </trkpt>
      <trkpt lat="48.81767" lon="-0.36384">
        <ele>236.553</ele>
        <time>2016-05-31T22:33:25Z</time>
      </trkpt>
      <trkpt lat="48.81789" lon="-0.36387">
        <ele>236.408</ele>
        <time>2016-05-31T22:33:05Z</time>
      </trkpt>
      <trkpt lat="48.81836" lon="-0.36429">
        <ele>236.614</ele>
        <time>2016-05-31T22:32:45Z</time>
      </trkpt>
      <trkpt lat="48.81889" lon="-0.36462">
        <ele>233.013</ele>
        <time>2016-05-31T22:32:25Z</time>
      </trkpt>
      <trkpt lat="48.81919" lon="-0.36496">
        <ele>233.972</ele>
        <time>2016-05-31T22:32:05Z</time>
      </trkpt>
      <trkpt lat="48.8199" lon="-0.36612">
        <ele>228.498</ele>
        <time>2016-05-31T22:31:45Z</time>
      </trkpt>
      <trkpt lat="48.82026" lon="-0.36644">
        <ele>225.289</ele>
        <time>2016-05-31T22:31:25Z</time>
      </trkpt>
      <trkpt lat="48.82093" lon="-0.36765">
        <ele>219.953</ele>
        <time>2016-05-31T22:31:05Z</time>
      </trkpt>
      <trkpt lat="48.82144" lon="-0.36891">
        <ele>215.381</ele>
        <time>2016-05-31T22:30:45Z</time>
      </trkpt>
      <trkpt lat="48.82156" lon="-0.36949">
        <ele>215.725</ele>
        <time>2016-05-31T22:30:25Z</time>
      </trkpt>
      <trkpt lat="48.8218" lon="-0.3696">
        <ele>215.092</ele>
        <time>2016-05-31T22:30:05Z</time>
      </trkpt>
      <trkpt lat="48.8222" lon="-0.36919">
        <ele>213.927</ele>
        <time>2016-05-31T22:29:45Z</time>
      </trkpt>
      <trkpt lat="48.82244" lon="-0.36962">
        <ele>213.581</ele>
        <time>2016-05-31T22:29:25Z</time>
      </trkpt>
      <trkpt lat="48.82241" lon="-0.36994">
        <ele>213.308</ele>
        <time>2016-05-31T22:29:05Z</time>
      </trkpt>
      <trkpt lat="48.82311" lon="-0.3718">
        <ele>205.214</ele>
        <time>2016-05-31T22:28:45Z</time>
      </trkpt>
      <trkpt lat="48.82311" lon="-0.3718">
        <ele>205.259</ele>
        <time>2016-05-31T22:28:25Z</time>
      </trkpt>
      <trkpt lat="48.82374" lon="-0.37274">
        <ele>195.556</ele>
        <time>2016-05-31T22:28:05Z</time>
      </trkpt>
      <trkpt lat="48.82433" lon="-0.37351">
        <ele>187.15</ele>
        <time>2016-05-31T22:27:45Z</time>
      </trkpt>
      <trkpt lat="48.82465" lon="-0.37374">
        <ele>182.261</ele>
        <time>2016-05-31T22:27:25Z</time>
      </trkpt>
      <trkpt lat="48.82478" lon="-0.37368">
        <ele>181.335</ele>
        <time>2016-05-31T22:27:05Z</time>
      </trkpt>
      <trkpt lat="48.82709" lon="-0.37863">
        <ele>160.213</ele>
        <time>2016-05-31T22:26:45Z</time>
      </trkpt>
      <trkpt lat="48.82777" lon="-0.37898">
        <ele>161.987</ele>
        <time>2016-05-31T22:26:25Z</time>
      </trkpt>
      <trkpt lat="48.82824" lon="-0.3787">
        <ele>159.944</ele>
        <time>2016-05-31T22:26:05Z</time>
      </trkpt>
      <trkpt lat="48.82824" lon="-0.3787">
        <ele>159.949</ele>
        <time>2016-05-31T22:25:45Z</time>
      </trkpt>
      <trkpt lat="48.82824" lon="-0.3787">
        <ele>159.943</ele>
        <time>2016-05-31T22:25:25Z</time>
      </trkpt>
      <trkpt lat="48.82824" lon="-0.3787">
        <ele>159.908</ele>
        <time>2016-05-31T22:25:05Z</time>
      </trkpt>
      <trkpt lat="48.82926" lon="-0.38172">
        <ele>155.714</ele>
        <time>2016-05-31T22:24:45Z</time>
      </trkpt>
      <trkpt lat="48.82938" lon="-0.38172">
        <ele>154.713</ele>
        <time>2016-05-31T22:24:25Z</time>
      </trkpt>
      <trkpt lat="48.82949" lon="-0.38202">
        <ele>153.672</ele>
        <time>2016-05-31T22:24:05Z</time>
      </trkpt>
      <trkpt lat="48.83011" lon="-0.38153">
        <ele>152.934</ele>
        <time>2016-05-31T22:23:45Z</time>
      </trkpt>
      <trkpt lat="48.83012" lon="-0.38127">
        <ele>154.535</ele>
        <time>2016-05-31T22:23:25Z</time>
      </trkpt>
      <trkpt lat="48.83067" lon="-0.3813">
        <ele>151.059</ele>
        <time>2016-05-31T22:23:05Z</time>
      </trkpt>
      <trkpt lat="48.83067" lon="-0.3813">
        <ele>151.027</ele>
        <time>2016-05-31T22:22:45Z</time>
      </trkpt>
      <trkpt lat="48.8314" lon="-0.38206">
        <ele>145.381</ele>
        <time>2016-05-31T22:22:25Z</time>
      </trkpt>
      <trkpt lat="48.83162" lon="-0.3826">
        <ele>148.068</ele>
        <time>2016-05-31T22:22:05Z</time>
      </trkpt>
      <trkpt lat="48.83185" lon="-0.38278">
        <ele>149.753</ele>
        <time>2016-05-31T22:21:45Z</time>
      </trkpt>
      <trkpt lat="48.83242" lon="-0.38403">
        <ele>152.277</ele>
        <time>2016-05-31T22:21:25Z</time>
      </trkpt>
      <trkpt lat="48.8329" lon="-0.38533">
        <ele>150.608</ele>
        <time>2016-05-31T22:21:05Z</time>
      </trkpt>
      <trkpt lat="48.8333" lon="-0.38603">
        <ele>149.219</ele>
        <time>2016-05-31T22:20:45Z</time>
      </trkpt>
      <trkpt lat="48.83419" lon="-0.3849">
        <ele>158.909</ele>
        <time>2016-05-31T22:20:25Z</time>
      </trkpt>
      <trkpt lat="48.83471" lon="-0.3838">
        <ele>162.019</ele>
        <time>2016-05-31T22:20:05Z</time>
      </trkpt>
      <trkpt lat="48.83511" lon="-0.38218">
        <ele>163.014</ele>
        <time>2016-05-31T22:19:45Z</time>
      </trkpt>
      <trkpt lat="48.8356" lon="-0.38177">
        <ele>161.935</ele>
        <time>2016-05-31T22:19:25Z</time>
      </trkpt>
      <trkpt lat="48.83658" lon="-0.38124">
        <ele>158.539</ele>
        <time>2016-05-31T22:19:05Z</time>
      </trkpt>
      <trkpt lat="48.83757" lon="-0.37991">
        <ele>149.167</ele>
        <time>2016-05-31T22:18:45Z</time>
      </trkpt>
      <trkpt lat="48.83796" lon="-0.37928">
        <ele>141.871</ele>
        <time>2016-05-31T22:18:25Z</time>
      </trkpt>
      <trkpt lat="48.83835" lon="-0.37865">
        <ele>138.078</ele>
        <time>2016-05-31T22:18:05Z</time>
      </trkpt>
      <trkpt lat="48.83888" lon="-0.37937">
        <ele>136.173</ele>
        <time>2016-05-31T22:17:45Z</time>
      </trkpt>
      <trkpt lat="48.83991" lon="-0.3806">
        <ele>127.677</ele>
        <time>2016-05-31T22:17:25Z</time>
      </trkpt>
      <trkpt lat="48.84023" lon="-0.38147">
        <ele>125.908</ele>
        <time>2016-05-31T22:17:05Z</time>
      </trkpt>
      <trkpt lat="48.84091" lon="-0.38283">
        <ele>108.111</ele>
        <time>2016-05-31T22:16:45Z</time>
      </trkpt>
      <trkpt lat="48.84117" lon="-0.38309">
        <ele>102.165</ele>
        <time>2016-05-31T22:16:25Z</time>
      </trkpt>
      <trkpt lat="48.8415" lon="-0.38356">
        <ele>97.015</ele>
        <time>2016-05-31T22:16:05Z</time>
      </trkpt>
      <trkpt lat="48.84165" lon="-0.38451">
        <ele>93.862</ele>
        <time>2016-05-31T22:15:45Z</time>
      </trkpt>
      <trkpt lat="48.84159" lon="-0.38528">
        <ele>93.133</ele>
        <time>2016-05-31T22:15:25Z</time>
      </trkpt>
      <trkpt lat="48.84156" lon="-0.38668">
        <ele>97.417</ele>
        <time>2016-05-31T22:15:05Z</time>
      </trkpt>
      <trkpt lat="48.84184" lon="-0.38815">
        <ele>98.395</ele>
        <time>2016-05-31T22:14:45Z</time>
      </trkpt>
      <trkpt lat="48.84163" lon="-0.38856">
        <ele>100.339</ele>
        <time>2016-05-31T22:14:25Z</time>
      </trkpt>
      <trkpt lat="48.84165" lon="-0.38892">
        <ele>99.136</ele>
        <time>2016-05-31T22:14:05Z</time>
      </trkpt>
      <trkpt lat="48.84199" lon="-0.39065">
        <ele>96.851</ele>
        <time>2016-05-31T22:13:45Z</time>
      </trkpt>
      <trkpt lat="48.84217" lon="-0.39218">
        <ele>93.295</ele>
        <time>2016-05-31T22:13:25Z</time>
      </trkpt>
      <trkpt lat="48.84212" lon="-0.39323">
        <ele>87.508</ele>
        <time>2016-05-31T22:13:05Z</time>
      </trkpt>
      <trkpt lat="48.84187" lon="-0.39413">
        <ele>78.42</ele>
        <time>2016-05-31T22:12:45Z</time>
      </trkpt>
      <trkpt lat="48.84194" lon="-0.39444">
        <ele>75.073</ele>
        <time>2016-05-31T22:12:25Z</time>
      </trkpt>
      <trkpt lat="48.84227" lon="-0.39529">
        <ele>64.092</ele>
        <time>2016-05-31T22:12:05Z</time>
      </trkpt>
      <trkpt lat="48.84264" lon="-0.3956">
        <ele>63.144</ele>
        <time>2016-05-31T22:11:45Z</time>
      </trkpt>
      <trkpt lat="48.842" lon="-0.39589">
        <ele>57.615</ele>
        <time>2016-05-31T22:11:25Z</time>
      </trkpt>
      <trkpt lat="48.84173" lon="-0.3964">
        <ele>60.729</ele>
        <time>2016-05-31T22:11:05Z</time>
      </trkpt>
      <trkpt lat="48.84191" lon="-0.39708">
        <ele>64.597</ele>
        <time>2016-05-31T22:10:45Z</time>
      </trkpt>
      <trkpt lat="48.84271" lon="-0.39832">
        <ele>67.391</ele>
        <time>2016-05-31T22:10:25Z</time>
      </trkpt>
      <trkpt lat="48.84342" lon="-0.39849">
        <ele>72.068</ele>
        <time>2016-05-31T22:10:05Z</time>
      </trkpt>
      <trkpt lat="48.84414" lon="-0.3982">
        <ele>74.423</ele>
        <time>2016-05-31T22:09:45Z</time>
      </trkpt>
      <trkpt lat="48.84503" lon="-0.39688">
        <ele>72.277</ele>
        <time>2016-05-31T22:09:25Z</time>
      </trkpt>
      <trkpt lat="48.84574" lon="-0.39445">
        <ele>66.408</ele>
        <time>2016-05-31T22:09:05Z</time>
      </trkpt>
      <trkpt lat="48.84594" lon="-0.39321">
        <ele>67.217</ele>
        <time>2016-05-31T22:08:45Z</time>
      </trkpt>
      <trkpt lat="48.84576" lon="-0.39182">
        <ele>68.698</ele>
        <time>2016-05-31T22:08:25Z</time>
      </trkpt>
      <trkpt lat="48.84521" lon="-0.3908">
        <ele>66.518</ele>
        <time>2016-05-31T22:08:05Z</time>
      </trkpt>
      <trkpt lat="48.84441" lon="-0.38964">
        <ele>64.152</ele>
        <time>2016-05-31T22:07:45Z</time>
      </trkpt>
      <trkpt lat="48.8434" lon="-0.38835">
        <ele>58.823</ele>
        <time>2016-05-31T22:07:25Z</time>
      </trkpt>
      <trkpt lat="48.84321" lon="-0.38686">
        <ele>57.537</ele>
        <time>2016-05-31T22:07:05Z</time>
      </trkpt>
      <trkpt lat="48.84334" lon="-0.3857">
        <ele>58.795</ele>
        <time>2016-05-31T22:06:45Z</time>
      </trkpt>
      <trkpt lat="48.84434" lon="-0.38227">
        <ele>61.039</ele>
        <time>2016-05-31T22:06:25Z</time>
      </trkpt>
      <trkpt lat="48.84473" lon="-0.38163">
        <ele>57.736</ele>
        <time>2016-05-31T22:06:05Z</time>
      </trkpt>
      <trkpt lat="48.84519" lon="-0.38152">
        <ele>55.681</ele>
        <time>2016-05-31T22:05:45Z</time>
      </trkpt>
      <trkpt lat="48.84501" lon="-0.38211">
        <ele>61.715</ele>
        <time>2016-05-31T22:05:25Z</time>
      </trkpt>
      <trkpt lat="48.84462" lon="-0.38296">
        <ele>70.208</ele>
        <time>2016-05-31T22:05:05Z</time>
      </trkpt>
      <trkpt lat="48.84456" lon="-0.38351">
        <ele>71.919</ele>
        <time>2016-05-31T22:04:45Z</time>
      </trkpt>
      <trkpt lat="48.84445" lon="-0.38394">
        <ele>73.481</ele>
        <time>2016-05-31T22:04:25Z</time>
      </trkpt>
      <trkpt lat="48.84449" lon="-0.38466">
        <ele>77.291</ele>
        <time>2016-05-31T22:04:05Z</time>
      </trkpt>
      <trkpt lat="48.84449" lon="-0.38583">
        <ele>82.112</ele>
        <time>2016-05-31T22:03:45Z</time>
      </trkpt>
      <trkpt lat="48.84494" lon="-0.38731">
        <ele>95.583</ele>
        <time>2016-05-31T22:03:25Z</time>
      </trkpt>
      <trkpt lat="48.84563" lon="-0.38902">
        <ele>109.187</ele>
        <time>2016-05-31T22:03:05Z</time>
      </trkpt>
      <trkpt lat="48.84624" lon="-0.39006">
        <ele>113.135</ele>
        <time>2016-05-31T22:02:45Z</time>
      </trkpt>
      <trkpt lat="48.84644" lon="-0.39064">
        <ele>109.149</ele>
        <time>2016-05-31T22:02:25Z</time>
      </trkpt>
      <trkpt lat="48.84647" lon="-0.39113">
        <ele>106.466</ele>
        <time>2016-05-31T22:02:05Z</time>
      </trkpt>
      <trkpt lat="48.84659" lon="-0.39161">
        <ele>104.081</ele>
        <time>2016-05-31T22:01:45Z</time>
      </trkpt>
      <trkpt lat="48.84675" lon="-0.39292">
        <ele>97.945</ele>
        <time>2016-05-31T22:01:25Z</time>
      </trkpt>
      <trkpt lat="48.84675" lon="-0.39368">
        <ele>98.108</ele>
        <time>2016-05-31T22:01:05Z</time>
      </trkpt>
      <trkpt lat="48.84689" lon="-0.39377">
        <ele>99.524</ele>
        <time>2016-05-31T22:00:45Z</time>
      </trkpt>
      <trkpt lat="48.84708" lon="-0.39376">
        <ele>99.031</ele>
        <time>2016-05-31T22:00:25Z</time>
      </trkpt>
      <trkpt lat="48.84835" lon="-0.39107">
        <ele>83.796</ele>
        <time>2016-05-31T22:00:05Z</time>
      </trkpt>
      <trkpt lat="48.84878" lon="-0.391">
        <ele>77.168</ele>
        <time>2016-05-31T21:59:45Z</time>
      </trkpt>
      <trkpt lat="48.84961" lon="-0.39207">
        <ele>74.869</ele>
        <time>2016-05-31T21:59:25Z</time>
      </trkpt>
      <trkpt lat="48.84991" lon="-0.39158">
        <ele>66.233</ele>
        <time>2016-05-31T21:59:05Z</time>
      </trkpt>
      <trkpt lat="48.85055" lon="-0.39225">
        <ele>70.561</ele>
        <time>2016-05-31T21:58:45Z</time>
      </trkpt>
      <trkpt lat="48.85121" lon="-0.39347">
        <ele>72.985</ele>
        <time>2016-05-31T21:58:25Z</time>
      </trkpt>
      <trkpt lat="48.85141" lon="-0.39352">
        <ele>68.842</ele>
        <time>2016-05-31T21:58:05Z</time>
      </trkpt>
      <trkpt lat="48.85154" lon="-0.39405">
        <ele>67.187</ele>
        <time>2016-05-31T21:57:45Z</time>
      </trkpt>
      <trkpt lat="48.85179" lon="-0.39374">
        <ele>59.371</ele>
        <time>2016-05-31T21:57:25Z</time>
      </trkpt>
      <trkpt lat="48.85207" lon="-0.39372">
        <ele>56.508</ele>
        <time>2016-05-31T21:57:05Z</time>
      </trkpt>
      <trkpt lat="48.85267" lon="-0.39299">
        <ele>51.714</ele>
        <time>2016-05-31T21:56:45Z</time>
      </trkpt>
      <trkpt lat="48.85329" lon="-0.39302">
        <ele>49.704</ele>
        <time>2016-05-31T21:56:25Z</time>
      </trkpt>
      <trkpt lat="48.85421" lon="-0.3939">
        <ele>50.853</ele>
        <time>2016-05-31T21:56:05Z</time>
      </trkpt>
      <trkpt lat="48.85644" lon="-0.398">
        <ele>51.024</ele>
        <time>2016-05-31T21:55:45Z</time>
      </trkpt>
      <trkpt lat="48.85675" lon="-0.39835">
        <ele>51.785</ele>
        <time>2016-05-31T21:55:25Z</time>
      </trkpt>
      <trkpt lat="48.85692" lon="-0.39882">
        <ele>51.269</ele>
        <time>2016-05-31T21:55:05Z</time>
      </trkpt>
      <trkpt lat="48.85711" lon="-0.39928">
        <ele>51.477</ele>
        <time>2016-05-31T21:54:45Z</time>
      </trkpt>
      <trkpt lat="48.85741" lon="-0.40013">
        <ele>56.791</ele>
        <time>2016-05-31T21:54:25Z</time>
      </trkpt>
      <trkpt lat="48.8574" lon="-0.40061">
        <ele>60.598</ele>
        <time>2016-05-31T21:54:05Z</time>
      </trkpt>
      <trkpt lat="48.85684" lon="-0.40145">
        <ele>68.323</ele>
        <time>2016-05-31T21:53:45Z</time>
      </trkpt>
      <trkpt lat="48.85642" lon="-0.40241">
        <ele>74.457</ele>
        <time>2016-05-31T21:53:25Z</time>
      </trkpt>
      <trkpt lat="48.85612" lon="-0.4046">
        <ele>88.108</ele>
        <time>2016-05-31T21:53:05Z</time>
      </trkpt>
      <trkpt lat="48.85419" lon="-0.40905">
        <ele>111.203</ele>
        <time>2016-05-31T21:52:45Z</time>
      </trkpt>
      <trkpt lat="48.85354" lon="-0.41093">
        <ele>122.221</ele>
        <time>2016-05-31T21:52:25Z</time>
      </trkpt>
      <trkpt lat="48.8538" lon="-0.41099">
        <ele>122.011</ele>
        <time>2016-05-31T21:52:05Z</time>
      </trkpt>
      <trkpt lat="48.85508" lon="-0.41203">
        <ele>126.377</ele>
        <time>2016-05-31T21:51:45Z</time>
      </trkpt>
      <trkpt lat="48.85604" lon="-0.41222">
        <ele>119.038</ele>
        <time>2016-05-31T21:51:25Z</time>
      </trkpt>
      <trkpt lat="48.85668" lon="-0.41261">
        <ele>118.672</ele>
        <time>2016-05-31T21:51:05Z</time>
      </trkpt>
      <trkpt lat="48.85722" lon="-0.4128">
        <ele>117.18</ele>
        <time>2016-05-31T21:50:45Z</time>
      </trkpt>
      <trkpt lat="48.85787" lon="-0.41248">
        <ele>114.634</ele>
        <time>2016-05-31T21:50:25Z</time>
      </trkpt>
      <trkpt lat="48.85957" lon="-0.41204">
        <ele>108.711</ele>
        <time>2016-05-31T21:50:05Z</time>
      </trkpt>
      <trkpt lat="48.85978" lon="-0.41189">
        <ele>107.486</ele>
        <time>2016-05-31T21:49:45Z</time>
      </trkpt>
      <trkpt lat="48.86062" lon="-0.41231">
        <ele>100.42</ele>
        <time>2016-05-31T21:49:25Z</time>
      </trkpt>
      <trkpt lat="48.8613" lon="-0.4114">
        <ele>94.008</ele>
        <time>2016-05-31T21:49:05Z</time>
      </trkpt>
      <trkpt lat="48.86123" lon="-0.4124">
        <ele>94.222</ele>
        <time>2016-05-31T21:48:45Z</time>
      </trkpt>
      <trkpt lat="48.86151" lon="-0.41258">
        <ele>94.102</ele>
        <time>2016-05-31T21:48:25Z</time>
      </trkpt>
      <trkpt lat="48.86261" lon="-0.41379">
        <ele>98.549</ele>
        <time>2016-05-31T21:48:05Z</time>
      </trkpt>
      <trkpt lat="48.86319" lon="-0.41473">
        <ele>99.562</ele>
        <time>2016-05-31T21:47:45Z</time>
      </trkpt>
      <trkpt lat="48.86372" lon="-0.41407">
        <ele>95.733</ele>
        <time>2016-05-31T21:47:25Z</time>
      </trkpt>
      <trkpt lat="48.86443" lon="-0.41261">
        <ele>89.737</ele>
        <time>2016-05-31T21:47:05Z</time>
      </trkpt>
      <trkpt lat="48.86495" lon="-0.41228">
        <ele>88.935</ele>
        <time>2016-05-31T21:46:45Z</time>
      </trkpt>
      <trkpt lat="48.86532" lon="-0.41184">
        <ele>86.559</ele>
        <time>2016-05-31T21:46:25Z</time>
      </trkpt>
      <trkpt lat="48.86599" lon="-0.41148">
        <ele>84.596</ele>
        <time>2016-05-31T21:46:05Z</time>
      </trkpt>
      <trkpt lat="48.86664" lon="-0.41035">
        <ele>77.471</ele>
        <time>2016-05-31T21:45:45Z</time>
      </trkpt>
      <trkpt lat="48.86761" lon="-0.40829">
        <ele>65.495</ele>
        <time>2016-05-31T21:45:25Z</time>
      </trkpt>
      <trkpt lat="48.86983" lon="-0.40992">
        <ele>52.3</ele>
      </trkpt>
      <trkpt lat="48.86939" lon="-0.41108">
        <ele>53.9</ele>
      </trkpt>
      <trkpt lat="48.86939" lon="-0.41108">
        <ele>53.9</ele>
      </trkpt>
      <trkpt lat="48.86929" lon="-0.41146">
        <ele>52.5</ele>
      </trkpt>
      <trkpt lat="48.86904" lon="-0.41225">
        <ele>52.1</ele>
      </trkpt>
      <trkpt lat="48.86892" lon="-0.41242">
        <ele>53.8</ele>
      </trkpt>
      <trkpt lat="48.86828" lon="-0.41476">
        <ele>58.4</ele>
      </trkpt>
      <trkpt lat="48.86797" lon="-0.41581">
        <ele>61</ele>
      </trkpt>
      <trkpt lat="48.86705" lon="-0.41984">
        <ele>62.4</ele>
      </trkpt>
      <trkpt lat="48.8666" lon="-0.42227">
        <ele>57.5</ele>
      </trkpt>
      <trkpt lat="48.86655" lon="-0.42234">
        <ele>57.6</ele>
      </trkpt>
      <trkpt lat="48.86643" lon="-0.42241">
        <ele>59.1</ele>
      </trkpt>
      <trkpt lat="48.86633" lon="-0.42256">
        <ele>59.6</ele>
      </trkpt>
      <trkpt lat="48.866" lon="-0.42338">
        <ele>59.7</ele>
      </trkpt>
      <trkpt lat="48.8658" lon="-0.42391">
        <ele>58.8</ele>
      </trkpt>
      <trkpt lat="48.86569" lon="-0.42399">
        <ele>59.3</ele>
      </trkpt>
      <trkpt lat="48.86555" lon="-0.42399">
        <ele>60.5</ele>
      </trkpt>
      <trkpt lat="48.86535" lon="-0.42395">
        <ele>62.5</ele>
      </trkpt>
      <trkpt lat="48.86517" lon="-0.42382">
        <ele>65</ele>
      </trkpt>
      <trkpt lat="48.86492" lon="-0.42369">
        <ele>67.6</ele>
      </trkpt>
      <trkpt lat="48.86474" lon="-0.42362">
        <ele>68.8</ele>
      </trkpt>
      <trkpt lat="48.86462" lon="-0.4236">
        <ele>69.3</ele>
      </trkpt>
      <trkpt lat="48.8645" lon="-0.4236">
        <ele>69.7</ele>
      </trkpt>
      <trkpt lat="48.86432" lon="-0.42363">
        <ele>70</ele>
      </trkpt>
      <trkpt lat="48.86407" lon="-0.42371">
        <ele>70</ele>
      </trkpt>
      <trkpt lat="48.86399" lon="-0.42379">
        <ele>69.5</ele>
      </trkpt>
      <trkpt lat="48.86382" lon="-0.42422">
        <ele>67.5</ele>
      </trkpt>
      <trkpt lat="48.86413" lon="-0.42444">
        <ele>66.9</ele>
      </trkpt>
      <trkpt lat="48.86425" lon="-0.42456">
        <ele>66.6</ele>
      </trkpt>
      <trkpt lat="48.86423" lon="-0.42466">
        <ele>66.9</ele>
      </trkpt>
      <trkpt lat="48.86416" lon="-0.42478">
        <ele>67.5</ele>
      </trkpt>
      <trkpt lat="48.86397" lon="-0.42501">
        <ele>69.7</ele>
      </trkpt>
      <trkpt lat="48.86373" lon="-0.42522">
        <ele>71.7</ele>
      </trkpt>
      <trkpt lat="48.86343" lon="-0.42535">
        <ele>74.5</ele>
      </trkpt>
      <trkpt lat="48.86323" lon="-0.42546">
        <ele>75.9</ele>
      </trkpt>
      <trkpt lat="48.86294" lon="-0.42575">
        <ele>78.4</ele>
      </trkpt>
      <trkpt lat="48.86266" lon="-0.42611">
        <ele>80.5</ele>
      </trkpt>
      <trkpt lat="48.86254" lon="-0.42628">
        <ele>81.6</ele>
      </trkpt>
      <trkpt lat="48.8625" lon="-0.42645">
        <ele>82</ele>
      </trkpt>
      <trkpt lat="48.86228" lon="-0.42657">
        <ele>83.9</ele>
      </trkpt>
      <trkpt lat="48.86191" lon="-0.42685">
        <ele>87.8</ele>
      </trkpt>
      <trkpt lat="48.8616" lon="-0.42712">
        <ele>90.8</ele>
      </trkpt>
      <trkpt lat="48.86139" lon="-0.42733">
        <ele>92.6</ele>
      </trkpt>
      <trkpt lat="48.86127" lon="-0.42756">
        <ele>94.6</ele>
      </trkpt>
      <trkpt lat="48.86119" lon="-0.42775">
        <ele>96.1</ele>
      </trkpt>
      <trkpt lat="48.86085" lon="-0.42945">
        <ele>105.2</ele>
      </trkpt>
      <trkpt lat="48.86068" lon="-0.42995">
        <ele>109.3</ele>
      </trkpt>
      <trkpt lat="48.86036" lon="-0.43102">
        <ele>116.1</ele>
      </trkpt>
      <trkpt lat="48.86023" lon="-0.43145">
        <ele>119.1</ele>
      </trkpt>
      <trkpt lat="48.85987" lon="-0.43212">
        <ele>123.6</ele>
      </trkpt>
      <trkpt lat="48.85915" lon="-0.43327">
        <ele>130.5</ele>
      </trkpt>
      <trkpt lat="48.85894" lon="-0.43358">
        <ele>131.9</ele>
      </trkpt>
      <trkpt lat="48.85847" lon="-0.43419">
        <ele>137.5</ele>
      </trkpt>
      <trkpt lat="48.85822" lon="-0.43456">
        <ele>137.8</ele>
      </trkpt>
      <trkpt lat="48.85774" lon="-0.43538">
        <ele>143.5</ele>
      </trkpt>
      <trkpt lat="48.85752" lon="-0.43578">
        <ele>148.5</ele>
      </trkpt>
      <trkpt lat="48.85734" lon="-0.43615">
        <ele>151.8</ele>
      </trkpt>
      <trkpt lat="48.85718" lon="-0.43658">
        <ele>154.7</ele>
      </trkpt>
      <trkpt lat="48.85736" lon="-0.43745">
        <ele>157.2</ele>
      </trkpt>
      <trkpt lat="48.85771" lon="-0.4388">
        <ele>164.7</ele>
      </trkpt>
      <trkpt lat="48.85779" lon="-0.43922">
        <ele>166.8</ele>
      </trkpt>
      <trkpt lat="48.85796" lon="-0.44045">
        <ele>169.3</ele>
      </trkpt>
      <trkpt lat="48.85801" lon="-0.44117">
        <ele>169.3</ele>
      </trkpt>
      <trkpt lat="48.85798" lon="-0.4435">
        <ele>170.8</ele>
      </trkpt>
      <trkpt lat="48.85892" lon="-0.44353">
        <ele>166.9</ele>
      </trkpt>
      <trkpt lat="48.85896" lon="-0.44405">
        <ele>167</ele>
      </trkpt>
      <trkpt lat="48.85899" lon="-0.44458">
        <ele>166.2</ele>
      </trkpt>
      <trkpt lat="48.85897" lon="-0.44588">
        <ele>162.4</ele>
      </trkpt>
      <trkpt lat="48.85891" lon="-0.44685">
        <ele>159.8</ele>
      </trkpt>
      <trkpt lat="48.85884" lon="-0.44729">
        <ele>157.8</ele>
      </trkpt>
      <trkpt lat="48.85833" lon="-0.44903">
        <ele>151.6</ele>
      </trkpt>
      <trkpt lat="48.85781" lon="-0.45053">
        <ele>146.8</ele>
      </trkpt>
      <trkpt lat="48.85768" lon="-0.45072">
        <ele>145.9</ele>
      </trkpt>
      <trkpt lat="48.85706" lon="-0.45124">
        <ele>147</ele>
      </trkpt>
      <trkpt lat="48.85688" lon="-0.45143">
        <ele>146.5</ele>
      </trkpt>
      <trkpt lat="48.85672" lon="-0.45162">
        <ele>145.3</ele>
      </trkpt>
      <trkpt lat="48.8567" lon="-0.45195">
        <ele>147.3</ele>
      </trkpt>
      <trkpt lat="48.85675" lon="-0.45204">
        <ele>148</ele>
      </trkpt>
      <trkpt lat="48.85746" lon="-0.45221">
        <ele>149.5</ele>
      </trkpt>
      <trkpt lat="48.85775" lon="-0.45232">
        <ele>148.8</ele>
      </trkpt>
      <trkpt lat="48.8579" lon="-0.45268">
        <ele>151.5</ele>
      </trkpt>
      <trkpt lat="48.85789" lon="-0.45279">
        <ele>152.4</ele>
      </trkpt>
      <trkpt lat="48.85784" lon="-0.453">
        <ele>154.4</ele>
      </trkpt>
      <trkpt lat="48.85764" lon="-0.45347">
        <ele>159.2</ele>
      </trkpt>
      <trkpt lat="48.85715" lon="-0.45483">
        <ele>159.7</ele>
      </trkpt>
      <trkpt lat="48.8567" lon="-0.45563">
        <ele>166.4</ele>
      </trkpt>
      <trkpt lat="48.85659" lon="-0.4559">
        <ele>167.8</ele>
      </trkpt>
      <trkpt lat="48.85644" lon="-0.45632">
        <ele>170</ele>
      </trkpt>
      <trkpt lat="48.85622" lon="-0.457">
        <ele>174.7</ele>
      </trkpt>
      <trkpt lat="48.85622" lon="-0.45723">
        <ele>175.7</ele>
      </trkpt>
      <trkpt lat="48.85637" lon="-0.45828">
        <ele>176.4</ele>
      </trkpt>
      <trkpt lat="48.85639" lon="-0.45863">
        <ele>175.6</ele>
      </trkpt>
      <trkpt lat="48.85637" lon="-0.45921">
        <ele>174.4</ele>
      </trkpt>
      <trkpt lat="48.85632" lon="-0.45934">
        <ele>174.8</ele>
      </trkpt>
      <trkpt lat="48.85621" lon="-0.45952">
        <ele>175.8</ele>
      </trkpt>
      <trkpt lat="48.85554" lon="-0.46036">
        <ele>185.5</ele>
      </trkpt>
      <trkpt lat="48.85542" lon="-0.46074">
        <ele>188.4</ele>
      </trkpt>
      <trkpt lat="48.85555" lon="-0.46077">
        <ele>185.5</ele>
      </trkpt>
      <trkpt lat="48.85559" lon="-0.46081">
        <ele>184.5</ele>
      </trkpt>
      <trkpt lat="48.85589" lon="-0.4614">
        <ele>179.8</ele>
      </trkpt>
      <trkpt lat="48.85591" lon="-0.46154">
        <ele>179.9</ele>
      </trkpt>
      <trkpt lat="48.8559" lon="-0.46175">
        <ele>181.3</ele>
      </trkpt>
      <trkpt lat="48.85592" lon="-0.46198">
        <ele>183.8</ele>
      </trkpt>
      <trkpt lat="48.85601" lon="-0.46218">
        <ele>185.1</ele>
      </trkpt>
      <trkpt lat="48.85611" lon="-0.46223">
        <ele>184.5</ele>
      </trkpt>
      <trkpt lat="48.85627" lon="-0.46224">
        <ele>182.7</ele>
      </trkpt>
      <trkpt lat="48.85656" lon="-0.46243">
        <ele>180.9</ele>
      </trkpt>
      <trkpt lat="48.85664" lon="-0.46247">
        <ele>180.1</ele>
      </trkpt>
      <trkpt lat="48.85673" lon="-0.46248">
        <ele>179.3</ele>
      </trkpt>
      <trkpt lat="48.85685" lon="-0.46245">
        <ele>178.1</ele>
      </trkpt>
      <trkpt lat="48.85722" lon="-0.46226">
        <ele>174.3</ele>
      </trkpt>
      <trkpt lat="48.85751" lon="-0.46207">
        <ele>171.9</ele>
      </trkpt>
      <trkpt lat="48.85776" lon="-0.46186">
        <ele>170.3</ele>
      </trkpt>
      <trkpt lat="48.8582" lon="-0.46157">
        <ele>168.3</ele>
      </trkpt>
      <trkpt lat="48.85823" lon="-0.46177">
        <ele>168.3</ele>
      </trkpt>
      <trkpt lat="48.85842" lon="-0.46169">
        <ele>167.1</ele>
      </trkpt>
      <trkpt lat="48.85855" lon="-0.46142">
        <ele>165.8</ele>
      </trkpt>
      <trkpt lat="48.85915" lon="-0.46105">
        <ele>161.6</ele>
      </trkpt>
      <trkpt lat="48.85922" lon="-0.46104">
        <ele>161</ele>
      </trkpt>
      <trkpt lat="48.85941" lon="-0.46114">
        <ele>158.8</ele>
      </trkpt>
      <trkpt lat="48.85952" lon="-0.46123">
        <ele>157.5</ele>
      </trkpt>
      <trkpt lat="48.86013" lon="-0.46196">
        <ele>146.8</ele>
      </trkpt>
      <trkpt lat="48.86032" lon="-0.46201">
        <ele>142.7</ele>
      </trkpt>
      <trkpt lat="48.86053" lon="-0.46196">
        <ele>139.3</ele>
      </trkpt>
      <trkpt lat="48.86097" lon="-0.46174">
        <ele>133.2</ele>
      </trkpt>
      <trkpt lat="48.86112" lon="-0.46171">
        <ele>131</ele>
      </trkpt>
      <trkpt lat="48.86129" lon="-0.46177">
        <ele>127.7</ele>
      </trkpt>
      <trkpt lat="48.86151" lon="-0.46205">
        <ele>122.1</ele>
      </trkpt>
      <trkpt lat="48.86153" lon="-0.46216">
        <ele>121.1</ele>
      </trkpt>
      <trkpt lat="48.86142" lon="-0.46253">
        <ele>120.3</ele>
      </trkpt>
      <trkpt lat="48.8613" lon="-0.46284">
        <ele>119.1</ele>
      </trkpt>
      <trkpt lat="48.86162" lon="-0.46296">
        <ele>113.8</ele>
      </trkpt>
      <trkpt lat="48.86191" lon="-0.46325">
        <ele>108.6</ele>
      </trkpt>
      <trkpt lat="48.86186" lon="-0.46349">
        <ele>107</ele>
      </trkpt>
      <trkpt lat="48.86176" lon="-0.46374">
        <ele>105.3</ele>
      </trkpt>
      <trkpt lat="48.86164" lon="-0.46399">
        <ele>104</ele>
      </trkpt>
      <trkpt lat="48.86152" lon="-0.46421">
        <ele>103.2</ele>
      </trkpt>
      <trkpt lat="48.86139" lon="-0.46439">
        <ele>102.9</ele>
      </trkpt>
      <trkpt lat="48.86114" lon="-0.46469">
        <ele>102</ele>
      </trkpt>
      <trkpt lat="48.861" lon="-0.46491">
        <ele>100.3</ele>
      </trkpt>
      <trkpt lat="48.86097" lon="-0.46501">
        <ele>99.4</ele>
      </trkpt>
      <trkpt lat="48.86092" lon="-0.46525">
        <ele>99.2</ele>
      </trkpt>
      <trkpt lat="48.86091" lon="-0.46603">
        <ele>98.5</ele>
      </trkpt>
      <trkpt lat="48.86089" lon="-0.46659">
        <ele>98.5</ele>
      </trkpt>
      <trkpt lat="48.8608" lon="-0.46766">
        <ele>97.4</ele>
      </trkpt>
      <trkpt lat="48.8608" lon="-0.46766">
        <ele>97.4</ele>
      </trkpt>
      <trkpt lat="48.86024" lon="-0.46889">
        <ele>95.6</ele>
      </trkpt>
      <trkpt lat="48.85961" lon="-0.46987">
        <ele>98.7</ele>
      </trkpt>
      <trkpt lat="48.86011" lon="-0.47007">
        <ele>90.7</ele>
      </trkpt>
      <trkpt lat="48.86024" lon="-0.47017">
        <ele>89.1</ele>
      </trkpt>
      <trkpt lat="48.86029" lon="-0.47023">
        <ele>88.4</ele>
      </trkpt>
      <trkpt lat="48.86033" lon="-0.47032">
        <ele>87.7</ele>
      </trkpt>
      <trkpt lat="48.86036" lon="-0.47044">
        <ele>87.1</ele>
      </trkpt>
      <trkpt lat="48.86035" lon="-0.47065">
        <ele>86.7</ele>
      </trkpt>
      <trkpt lat="48.86025" lon="-0.47078">
        <ele>87.9</ele>
      </trkpt>
      <trkpt lat="48.85996" lon="-0.47099">
        <ele>90.8</ele>
      </trkpt>
      <trkpt lat="48.8592" lon="-0.47138">
        <ele>110.5</ele>
      </trkpt>
      <trkpt lat="48.85872" lon="-0.47167">
        <ele>121</ele>
      </trkpt>
      <trkpt lat="48.85843" lon="-0.47189">
        <ele>126.3</ele>
      </trkpt>
      <trkpt lat="48.8583" lon="-0.47195">
        <ele>128.9</ele>
      </trkpt>
      <trkpt lat="48.85729" lon="-0.47261">
        <ele>155.6</ele>
      </trkpt>
      <trkpt lat="48.85702" lon="-0.47287">
        <ele>164.8</ele>
      </trkpt>
      <trkpt lat="48.85665" lon="-0.47342">
        <ele>179.8</ele>
      </trkpt>
      <trkpt lat="48.85651" lon="-0.47368">
        <ele>185.3</ele>
      </trkpt>
      <trkpt lat="48.85623" lon="-0.47431">
        <ele>197</ele>
      </trkpt>
      <trkpt lat="48.85594" lon="-0.47478">
        <ele>207.9</ele>
      </trkpt>
      <trkpt lat="48.85576" lon="-0.47498">
        <ele>212.6</ele>
      </trkpt>
      <trkpt lat="48.85548" lon="-0.47522">
        <ele>215.4</ele>
      </trkpt>
      <trkpt lat="48.85531" lon="-0.47526">
        <ele>216.9</ele>
      </trkpt>
      <trkpt lat="48.8548" lon="-0.47551">
        <ele>220.7</ele>
      </trkpt>
      <trkpt lat="48.85416" lon="-0.47593">
        <ele>225</ele>
      </trkpt>
      <trkpt lat="48.85384" lon="-0.47617">
        <ele>224.9</ele>
      </trkpt>
      <trkpt lat="48.85357" lon="-0.47641">
        <ele>225.3</ele>
      </trkpt>
      <trkpt lat="48.85335" lon="-0.4766">
        <ele>225.8</ele>
      </trkpt>
      <trkpt lat="48.85318" lon="-0.47666">
        <ele>225.4</ele>
      </trkpt>
      <trkpt lat="48.85288" lon="-0.47666">
        <ele>224.3</ele>
      </trkpt>
      <trkpt lat="48.85247" lon="-0.47656">
        <ele>222.8</ele>
      </trkpt>
      <trkpt lat="48.85234" lon="-0.47648">
        <ele>222.1</ele>
      </trkpt>
      <trkpt lat="48.85208" lon="-0.47687">
        <ele>220.8</ele>
      </trkpt>
      <trkpt lat="48.85068" lon="-0.47882">
        <ele>215.1</ele>
      </trkpt>
      <trkpt lat="48.85056" lon="-0.47901">
        <ele>214.7</ele>
      </trkpt>
      <trkpt lat="48.85037" lon="-0.47939">
        <ele>214.2</ele>
      </trkpt>
      <trkpt lat="48.85011" lon="-0.48008">
        <ele>213.9</ele>
      </trkpt>
      <trkpt lat="48.85001" lon="-0.48041">
        <ele>213.6</ele>
      </trkpt>
      <trkpt lat="48.84982" lon="-0.48086">
        <ele>213</ele>
      </trkpt>
      <trkpt lat="48.84982" lon="-0.48132">
        <ele>214.4</ele>
      </trkpt>
      <trkpt lat="48.8498" lon="-0.48162">
        <ele>215.1</ele>
      </trkpt>
      <trkpt lat="48.84971" lon="-0.48201">
        <ele>215</ele>
      </trkpt>
      <trkpt lat="48.8495" lon="-0.48272">
        <ele>214.3</ele>
      </trkpt>
      <trkpt lat="48.84931" lon="-0.4834">
        <ele>214.3</ele>
      </trkpt>
      <trkpt lat="48.8492" lon="-0.4841">
        <ele>213.3</ele>
      </trkpt>
      <trkpt lat="48.84915" lon="-0.48523">
        <ele>211.6</ele>
      </trkpt>
      <trkpt lat="48.84915" lon="-0.48562">
        <ele>211.1</ele>
      </trkpt>
      <trkpt lat="48.84917" lon="-0.48598">
        <ele>210</ele>
      </trkpt>
      <trkpt lat="48.84957" lon="-0.48726">
        <ele>204.7</ele>
      </trkpt>
      <trkpt lat="48.84961" lon="-0.48747">
        <ele>203.9</ele>
      </trkpt>
      <trkpt lat="48.84966" lon="-0.48783">
        <ele>202.7</ele>
      </trkpt>
      <trkpt lat="48.84974" lon="-0.48913">
        <ele>200.1</ele>
      </trkpt>
      <trkpt lat="48.84993" lon="-0.49066">
        <ele>202.4</ele>
      </trkpt>
      <trkpt lat="48.84996" lon="-0.49107">
        <ele>203.2</ele>
      </trkpt>
      <trkpt lat="48.85002" lon="-0.4915">
        <ele>204.2</ele>
      </trkpt>
      <trkpt lat="48.85008" lon="-0.49174">
        <ele>204.5</ele>
      </trkpt>
      <trkpt lat="48.8501" lon="-0.49219">
        <ele>203.6</ele>
      </trkpt>
      <trkpt lat="48.85017" lon="-0.49255">
        <ele>203</ele>
      </trkpt>
      <trkpt lat="48.85023" lon="-0.49293">
        <ele>200.1</ele>
      </trkpt>
      <trkpt lat="48.85063" lon="-0.49401">
        <ele>197.4</ele>
      </trkpt>
      <trkpt lat="48.85067" lon="-0.49417">
        <ele>197</ele>
      </trkpt>
      <trkpt lat="48.85067" lon="-0.49472">
        <ele>195.9</ele>
      </trkpt>
      <trkpt lat="48.8506" lon="-0.4965">
        <ele>193.1</ele>
      </trkpt>
      <trkpt lat="48.85061" lon="-0.49716">
        <ele>190.9</ele>
      </trkpt>
      <trkpt lat="48.85063" lon="-0.49744">
        <ele>189.8</ele>
      </trkpt>
      <trkpt lat="48.8506" lon="-0.49765">
        <ele>188.7</ele>
      </trkpt>
      <trkpt lat="48.8506" lon="-0.49793">
        <ele>187.4</ele>
      </trkpt>
      <trkpt lat="48.85063" lon="-0.49886">
        <ele>184.4</ele>
      </trkpt>
      <trkpt lat="48.85061" lon="-0.49916">
        <ele>183.7</ele>
      </trkpt>
      <trkpt lat="48.85027" lon="-0.50037">
        <ele>183.6</ele>
      </trkpt>
      <trkpt lat="48.84996" lon="-0.5016">
        <ele>183.1</ele>
      </trkpt>
      <trkpt lat="48.84991" lon="-0.50201">
        <ele>181.4</ele>
      </trkpt>
      <trkpt lat="48.84973" lon="-0.50306">
        <ele>177.4</ele>
      </trkpt>
      <trkpt lat="48.84934" lon="-0.50488">
        <ele>166.9</ele>
      </trkpt>
      <trkpt lat="48.8492" lon="-0.50537">
        <ele>165.6</ele>
      </trkpt>
      <trkpt lat="48.84918" lon="-0.50537">
        <ele>165.9</ele>
      </trkpt>
      <trkpt lat="48.84896" lon="-0.50658">
        <ele>158.7</ele>
      </trkpt>
      <trkpt lat="48.84893" lon="-0.50706">
        <ele>155</ele>
      </trkpt>
      <trkpt lat="48.84898" lon="-0.50774">
        <ele>147.8</ele>
      </trkpt>
      <trkpt lat="48.84898" lon="-0.5082">
        <ele>144.1</ele>
      </trkpt>
      <trkpt lat="48.84895" lon="-0.50856">
        <ele>141.3</ele>
      </trkpt>
      <trkpt lat="48.84894" lon="-0.50922">
        <ele>134.1</ele>
      </trkpt>
      <trkpt lat="48.84897" lon="-0.50967">
        <ele>129</ele>
      </trkpt>
      <trkpt lat="48.84907" lon="-0.51014">
        <ele>124.1</ele>
      </trkpt>
      <trkpt lat="48.84981" lon="-0.51273">
        <ele>98.2</ele>
      </trkpt>
      <trkpt lat="48.85002" lon="-0.51342">
        <ele>93.2</ele>
      </trkpt>
      <trkpt lat="48.85017" lon="-0.51404">
        <ele>88.1</ele>
      </trkpt>
      <trkpt lat="48.85042" lon="-0.5146">
        <ele>84.7</ele>
      </trkpt>
      <trkpt lat="48.85048" lon="-0.51485">
        <ele>83.9</ele>
      </trkpt>
      <trkpt lat="48.85058" lon="-0.51549">
        <ele>81.1</ele>
      </trkpt>
      <trkpt lat="48.85065" lon="-0.51572">
        <ele>80.3</ele>
      </trkpt>
      <trkpt lat="48.85068" lon="-0.51604">
        <ele>79</ele>
      </trkpt>
      <trkpt lat="48.85085" lon="-0.51706">
        <ele>76.5</ele>
      </trkpt>
      <trkpt lat="48.8503" lon="-0.51809">
        <ele>74.9</ele>
      </trkpt>
      <trkpt lat="48.85023" lon="-0.51848">
        <ele>74.7</ele>
      </trkpt>
      <trkpt lat="48.85017" lon="-0.51919">
        <ele>74.8</ele>
      </trkpt>
      <trkpt lat="48.85008" lon="-0.51968">
        <ele>75.5</ele>
      </trkpt>
      <trkpt lat="48.85002" lon="-0.51991">
        <ele>75.8</ele>
      </trkpt>
      <trkpt lat="48.84982" lon="-0.52047">
        <ele>77.4</ele>
      </trkpt>
      <trkpt lat="48.84975" lon="-0.52074">
        <ele>77.9</ele>
      </trkpt>
      <trkpt lat="48.84974" lon="-0.52087">
        <ele>78.1</ele>
      </trkpt>
      <trkpt lat="48.84978" lon="-0.52112">
        <ele>78.4</ele>
      </trkpt>
      <trkpt lat="48.85003" lon="-0.5215">
        <ele>80.1</ele>
      </trkpt>
      <trkpt lat="48.85025" lon="-0.52189">
        <ele>82.3</ele>
      </trkpt>
      <trkpt lat="48.85098" lon="-0.52354">
        <ele>79.3</ele>
      </trkpt>
      <trkpt lat="48.85109" lon="-0.52354">
        <ele>80.4</ele>
      </trkpt>
      <trkpt lat="48.85127" lon="-0.52344">
        <ele>82</ele>
      </trkpt>
      <trkpt lat="48.85281" lon="-0.52297">
        <ele>94.7</ele>
      </trkpt>
      <trkpt lat="48.85339" lon="-0.52283">
        <ele>99</ele>
      </trkpt>
      <trkpt lat="48.85387" lon="-0.52268">
        <ele>102.8</ele>
      </trkpt>
      <trkpt lat="48.85474" lon="-0.52247">
        <ele>105.3</ele>
      </trkpt>
      <trkpt lat="48.85497" lon="-0.5224">
        <ele>106.1</ele>
      </trkpt>
      <trkpt lat="48.85508" lon="-0.52234">
        <ele>106.9</ele>
      </trkpt>
      <trkpt lat="48.85567" lon="-0.52175">
        <ele>109.1</ele>
      </trkpt>
      <trkpt lat="48.85584" lon="-0.52164">
        <ele>108.6</ele>
      </trkpt>
      <trkpt lat="48.85635" lon="-0.52116">
        <ele>114.5</ele>
      </trkpt>
      <trkpt lat="48.85654" lon="-0.52105">
        <ele>114.5</ele>
      </trkpt>
      <trkpt lat="48.85693" lon="-0.52104">
        <ele>113.5</ele>
      </trkpt>
      <trkpt lat="48.85709" lon="-0.52093">
        <ele>113.7</ele>
      </trkpt>
      <trkpt lat="48.85723" lon="-0.52089">
        <ele>113.5</ele>
      </trkpt>
      <trkpt lat="48.8573" lon="-0.52089">
        <ele>113.4</ele>
      </trkpt>
      <trkpt lat="48.85754" lon="-0.52098">
        <ele>113.1</ele>
      </trkpt>
      <trkpt lat="48.85765" lon="-0.52105">
        <ele>113.4</ele>
      </trkpt>
      <trkpt lat="48.85806" lon="-0.52143">
        <ele>114.3</ele>
      </trkpt>
      <trkpt lat="48.85793" lon="-0.5217">
        <ele>114.2</ele>
      </trkpt>
      <trkpt lat="48.85783" lon="-0.52186">
        <ele>115.2</ele>
      </trkpt>
      <trkpt lat="48.85761" lon="-0.52177">
        <ele>114.1</ele>
      </trkpt>
      <trkpt lat="48.85729" lon="-0.52177">
        <ele>113.2</ele>
      </trkpt>
      <trkpt lat="48.85696" lon="-0.52199">
        <ele>114.7</ele>
      </trkpt>
      <trkpt lat="48.85685" lon="-0.52214">
        <ele>116.1</ele>
      </trkpt>
      <trkpt lat="48.85674" lon="-0.52238">
        <ele>118.6</ele>
      </trkpt>
      <trkpt lat="48.85665" lon="-0.52274">
        <ele>121.6</ele>
      </trkpt>
      <trkpt lat="48.8566" lon="-0.52311">
        <ele>123.6</ele>
      </trkpt>
      <trkpt lat="48.85661" lon="-0.52317">
        <ele>124.2</ele>
      </trkpt>
      <trkpt lat="48.8567" lon="-0.52325">
        <ele>125.5</ele>
      </trkpt>
      <trkpt lat="48.85711" lon="-0.52342">
        <ele>127.8</ele>
      </trkpt>
      <trkpt lat="48.85722" lon="-0.52342">
        <ele>128.1</ele>
      </trkpt>
      <trkpt lat="48.85754" lon="-0.52354">
        <ele>129.2</ele>
      </trkpt>
      <trkpt lat="48.85775" lon="-0.52368">
        <ele>129.3</ele>
      </trkpt>
      <trkpt lat="48.85826" lon="-0.52394">
        <ele>130.6</ele>
      </trkpt>
      <trkpt lat="48.85822" lon="-0.52482">
        <ele>132.8</ele>
      </trkpt>
      <trkpt lat="48.85819" lon="-0.52617">
        <ele>136.2</ele>
      </trkpt>
      <trkpt lat="48.85819" lon="-0.52692">
        <ele>139.2</ele>
      </trkpt>
      <trkpt lat="48.85811" lon="-0.52737">
        <ele>139.8</ele>
      </trkpt>
      <trkpt lat="48.85795" lon="-0.5279">
        <ele>139.8</ele>
      </trkpt>
      <trkpt lat="48.85783" lon="-0.52831">
        <ele>139.7</ele>
      </trkpt>
      <trkpt lat="48.85748" lon="-0.52998">
        <ele>141.9</ele>
      </trkpt>
      <trkpt lat="48.85739" lon="-0.53086">
        <ele>141.5</ele>
      </trkpt>
      <trkpt lat="48.85738" lon="-0.53156">
        <ele>140.7</ele>
      </trkpt>
      <trkpt lat="48.8573" lon="-0.53288">
        <ele>139.4</ele>
      </trkpt>
      <trkpt lat="48.85732" lon="-0.53355">
        <ele>138.1</ele>
      </trkpt>
      <trkpt lat="48.85726" lon="-0.53409">
        <ele>136.9</ele>
      </trkpt>
      <trkpt lat="48.85714" lon="-0.53464">
        <ele>136.5</ele>
      </trkpt>
      <trkpt lat="48.85703" lon="-0.53493">
        <ele>135.6</ele>
      </trkpt>
      <trkpt lat="48.85688" lon="-0.53517">
        <ele>134.7</ele>
      </trkpt>
      <trkpt lat="48.8566" lon="-0.53555">
        <ele>133.5</ele>
      </trkpt>
      <trkpt lat="48.85626" lon="-0.53626">
        <ele>131.6</ele>
      </trkpt>
      <trkpt lat="48.856" lon="-0.53661">
        <ele>129.2</ele>
      </trkpt>
      <trkpt lat="48.85578" lon="-0.53698">
        <ele>127.4</ele>
      </trkpt>
      <trkpt lat="48.85561" lon="-0.53743">
        <ele>127</ele>
      </trkpt>
      <trkpt lat="48.85538" lon="-0.53811">
        <ele>126.8</ele>
      </trkpt>
      <trkpt lat="48.855" lon="-0.53953">
        <ele>127</ele>
      </trkpt>
      <trkpt lat="48.85488" lon="-0.5399">
        <ele>126.1</ele>
      </trkpt>
      <trkpt lat="48.8546" lon="-0.54056">
        <ele>125.2</ele>
      </trkpt>
      <trkpt lat="48.85439" lon="-0.54099">
        <ele>123.9</ele>
      </trkpt>
      <trkpt lat="48.85418" lon="-0.5417">
        <ele>122.2</ele>
      </trkpt>
      <trkpt lat="48.85397" lon="-0.54231">
        <ele>121.1</ele>
      </trkpt>
      <trkpt lat="48.85372" lon="-0.54332">
        <ele>118.9</ele>
      </trkpt>
      <trkpt lat="48.85355" lon="-0.54429">
        <ele>113.1</ele>
      </trkpt>
      <trkpt lat="48.85294" lon="-0.54533">
        <ele>106.7</ele>
      </trkpt>
      <trkpt lat="48.85318" lon="-0.54577">
        <ele>107.3</ele>
      </trkpt>
      <trkpt lat="48.85225" lon="-0.54689">
        <ele>97.8</ele>
      </trkpt>
      <trkpt lat="48.85033" lon="-0.54916">
        <ele>80.8</ele>
      </trkpt>
      <trkpt lat="48.8495" lon="-0.55006">
        <ele>79.7</ele>
      </trkpt>
      <trkpt lat="48.84895" lon="-0.55068">
        <ele>81.1</ele>
      </trkpt>
      <trkpt lat="48.84896" lon="-0.5508">
        <ele>81.2</ele>
      </trkpt>
      <trkpt lat="48.84895" lon="-0.55085">
        <ele>81.3</ele>
      </trkpt>
      <trkpt lat="48.84892" lon="-0.5509">
        <ele>81.4</ele>
      </trkpt>
      <trkpt lat="48.84888" lon="-0.55093">
        <ele>81.5</ele>
      </trkpt>
      <trkpt lat="48.8489" lon="-0.55104">
        <ele>81.7</ele>
      </trkpt>
      <trkpt lat="48.84925" lon="-0.55311">
        <ele>86.1</ele>
      </trkpt>
      <trkpt lat="48.84958" lon="-0.55495">
        <ele>87.9</ele>
      </trkpt>
      <trkpt lat="48.84969" lon="-0.55528">
        <ele>86.6</ele>
      </trkpt>
      <trkpt lat="48.84978" lon="-0.55543">
        <ele>85.3</ele>
      </trkpt>
      <trkpt lat="48.84971" lon="-0.55551">
        <ele>86.5</ele>
      </trkpt>
      <trkpt lat="48.84971" lon="-0.55564">
        <ele>86.6</ele>
      </trkpt>
      <trkpt lat="48.84976" lon="-0.55574">
        <ele>85.9</ele>
      </trkpt>
      <trkpt lat="48.84983" lon="-0.55576">
        <ele>84.8</ele>
      </trkpt>
      <trkpt lat="48.84983" lon="-0.55613">
        <ele>85.2</ele>
      </trkpt>
      <trkpt lat="48.84985" lon="-0.55635">
        <ele>85.1</ele>
      </trkpt>
      <trkpt lat="48.85029" lon="-0.5588">
        <ele>87.8</ele>
      </trkpt>
      <trkpt lat="48.85039" lon="-0.5588">
        <ele>88.1</ele>
      </trkpt>
      <trkpt lat="48.85099" lon="-0.55899">
        <ele>90.1</ele>
      </trkpt>
      <trkpt lat="48.85134" lon="-0.55918">
        <ele>89.6</ele>
      </trkpt>
      <trkpt lat="48.85167" lon="-0.55947">
        <ele>89.8</ele>
      </trkpt>
      <trkpt lat="48.85215" lon="-0.55992">
        <ele>90.1</ele>
      </trkpt>
      <trkpt lat="48.8527" lon="-0.56045">
        <ele>89.2</ele>
      </trkpt>
      <trkpt lat="48.85294" lon="-0.56078">
        <ele>88.6</ele>
      </trkpt>
      <trkpt lat="48.85314" lon="-0.56095">
        <ele>88.3</ele>
      </trkpt>
      <trkpt lat="48.85335" lon="-0.56108">
        <ele>88</ele>
      </trkpt>
      <trkpt lat="48.85351" lon="-0.56113">
        <ele>88.3</ele>
      </trkpt>
      <trkpt lat="48.85421" lon="-0.56125">
        <ele>88.3</ele>
      </trkpt>
      <trkpt lat="48.85449" lon="-0.56133">
        <ele>88</ele>
      </trkpt>
      <trkpt lat="48.85476" lon="-0.56139">
        <ele>87.3</ele>
      </trkpt>
      <trkpt lat="48.85548" lon="-0.56167">
        <ele>87.4</ele>
      </trkpt>
      <trkpt lat="48.85579" lon="-0.56185">
        <ele>87.7</ele>
      </trkpt>
      <trkpt lat="48.85588" lon="-0.56199">
        <ele>88.2</ele>
      </trkpt>
      <trkpt lat="48.85594" lon="-0.56214">
        <ele>89</ele>
      </trkpt>
      <trkpt lat="48.85604" lon="-0.56274">
        <ele>92.6</ele>
      </trkpt>
      <trkpt lat="48.85605" lon="-0.56301">
        <ele>94.4</ele>
      </trkpt>
      <trkpt lat="48.85606" lon="-0.56353">
        <ele>97.4</ele>
      </trkpt>
      <trkpt lat="48.85602" lon="-0.56398">
        <ele>99.4</ele>
      </trkpt>
      <trkpt lat="48.85589" lon="-0.56491">
        <ele>105.3</ele>
      </trkpt>
      <trkpt lat="48.8559" lon="-0.56511">
        <ele>106.4</ele>
      </trkpt>
      <trkpt lat="48.85604" lon="-0.56537">
        <ele>107.3</ele>
      </trkpt>
      <trkpt lat="48.85694" lon="-0.56683">
        <ele>113.6</ele>
      </trkpt>
      <trkpt lat="48.85812" lon="-0.56877">
        <ele>124.8</ele>
      </trkpt>
      <trkpt lat="48.85833" lon="-0.56903">
        <ele>126.3</ele>
      </trkpt>
      <trkpt lat="48.85851" lon="-0.56918">
        <ele>126.4</ele>
      </trkpt>
      <trkpt lat="48.85874" lon="-0.56933">
        <ele>126</ele>
      </trkpt>
      <trkpt lat="48.8597" lon="-0.56981">
        <ele>119.2</ele>
      </trkpt>
      <trkpt lat="48.85984" lon="-0.56995">
        <ele>117.7</ele>
      </trkpt>
      <trkpt lat="48.85994" lon="-0.57011">
        <ele>116.4</ele>
      </trkpt>
      <trkpt lat="48.86002" lon="-0.57031">
        <ele>114.6</ele>
      </trkpt>
      <trkpt lat="48.86025" lon="-0.57071">
        <ele>107.5</ele>
      </trkpt>
      <trkpt lat="48.86045" lon="-0.57112">
        <ele>102.5</ele>
      </trkpt>
      <trkpt lat="48.8607" lon="-0.57153">
        <ele>98.1</ele>
      </trkpt>
      <trkpt lat="48.86075" lon="-0.57159">
        <ele>97.3</ele>
      </trkpt>
      <trkpt lat="48.86086" lon="-0.57168">
        <ele>95.7</ele>
      </trkpt>
      <trkpt lat="48.86104" lon="-0.57171">
        <ele>94</ele>
      </trkpt>
      <trkpt lat="48.86135" lon="-0.57165">
        <ele>91</ele>
      </trkpt>
      <trkpt lat="48.8615" lon="-0.57168">
        <ele>89.6</ele>
      </trkpt>
      <trkpt lat="48.86171" lon="-0.57186">
        <ele>89.2</ele>
      </trkpt>
      <trkpt lat="48.86176" lon="-0.57193">
        <ele>89.7</ele>
      </trkpt>
      <trkpt lat="48.86181" lon="-0.57188">
        <ele>89.4</ele>
      </trkpt>
      <trkpt lat="48.86207" lon="-0.57187">
        <ele>89.4</ele>
      </trkpt>
      <trkpt lat="48.86257" lon="-0.5718">
        <ele>89.2</ele>
      </trkpt>
      <trkpt lat="48.86279" lon="-0.57172">
        <ele>88.8</ele>
      </trkpt>
      <trkpt lat="48.86303" lon="-0.57165">
        <ele>88.6</ele>
      </trkpt>
      <trkpt lat="48.86339" lon="-0.57161">
        <ele>89</ele>
      </trkpt>
      <trkpt lat="48.86353" lon="-0.57197">
        <ele>91.7</ele>
      </trkpt>
      <trkpt lat="48.86357" lon="-0.57213">
        <ele>93</ele>
      </trkpt>
      <trkpt lat="48.86372" lon="-0.5722">
        <ele>93.5</ele>
      </trkpt>
      <trkpt lat="48.86388" lon="-0.57231">
        <ele>94.2</ele>
      </trkpt>
      <trkpt lat="48.86397" lon="-0.57237">
        <ele>94.5</ele>
      </trkpt>
      <trkpt lat="48.86415" lon="-0.57241">
        <ele>94.6</ele>
      </trkpt>
      <trkpt lat="48.8643" lon="-0.57247">
        <ele>94.5</ele>
      </trkpt>
      <trkpt lat="48.86455" lon="-0.57261">
        <ele>94.7</ele>
      </trkpt>
      <trkpt lat="48.86475" lon="-0.57266">
        <ele>94.4</ele>
      </trkpt>
      <trkpt lat="48.86507" lon="-0.57263">
        <ele>93.8</ele>
      </trkpt>
      <trkpt lat="48.86528" lon="-0.57253">
        <ele>93.8</ele>
      </trkpt>
      <trkpt lat="48.86537" lon="-0.57245">
        <ele>93.9</ele>
      </trkpt>
      <trkpt lat="48.86549" lon="-0.57244">
        <ele>94.2</ele>
      </trkpt>
      <trkpt lat="48.86555" lon="-0.57246">
        <ele>94.3</ele>
      </trkpt>
      <trkpt lat="48.86591" lon="-0.57271">
        <ele>95.8</ele>
      </trkpt>
      <trkpt lat="48.86623" lon="-0.57286">
        <ele>98.5</ele>
      </trkpt>
      <trkpt lat="48.8664" lon="-0.57296">
        <ele>100</ele>
      </trkpt>
      <trkpt lat="48.86687" lon="-0.57319">
        <ele>103.9</ele>
      </trkpt>
      <trkpt lat="48.86711" lon="-0.57337">
        <ele>105.8</ele>
      </trkpt>
      <trkpt lat="48.8674" lon="-0.57366">
        <ele>108.2</ele>
      </trkpt>
      <trkpt lat="48.86772" lon="-0.57404">
        <ele>109.4</ele>
      </trkpt>
      <trkpt lat="48.86809" lon="-0.57453">
        <ele>107.7</ele>
      </trkpt>
      <trkpt lat="48.86813" lon="-0.57462">
        <ele>107.2</ele>
      </trkpt>
      <trkpt lat="48.86816" lon="-0.57473">
        <ele>106.7</ele>
      </trkpt>
      <trkpt lat="48.86818" lon="-0.57507">
        <ele>105.5</ele>
      </trkpt>
      <trkpt lat="48.8679" lon="-0.57584">
        <ele>106.8</ele>
      </trkpt>
      <trkpt lat="48.86784" lon="-0.57605">
        <ele>107.4</ele>
      </trkpt>
      <trkpt lat="48.86767" lon="-0.57685">
        <ele>110.5</ele>
      </trkpt>
      <trkpt lat="48.8673" lon="-0.57878">
        <ele>113.4</ele>
      </trkpt>
      <trkpt lat="48.86719" lon="-0.57924">
        <ele>113.3</ele>
      </trkpt>
      <trkpt lat="48.86654" lon="-0.58125">
        <ele>115.9</ele>
      </trkpt>
      <trkpt lat="48.8661" lon="-0.58214">
        <ele>119.1</ele>
      </trkpt>
      <trkpt lat="48.86607" lon="-0.58219">
        <ele>119.4</ele>
      </trkpt>
      <trkpt lat="48.86606" lon="-0.58233">
        <ele>119.4</ele>
      </trkpt>
      <trkpt lat="48.86608" lon="-0.58242">
        <ele>119.1</ele>
      </trkpt>
      <trkpt lat="48.86638" lon="-0.58292">
        <ele>114.2</ele>
      </trkpt>
      <trkpt lat="48.86654" lon="-0.58331">
        <ele>111.4</ele>
      </trkpt>
      <trkpt lat="48.86661" lon="-0.5836">
        <ele>109</ele>
      </trkpt>
      <trkpt lat="48.86664" lon="-0.58391">
        <ele>106.8</ele>
      </trkpt>
      <trkpt lat="48.86662" lon="-0.58511">
        <ele>101.5</ele>
      </trkpt>
      <trkpt lat="48.8666" lon="-0.58529">
        <ele>101.6</ele>
      </trkpt>
      <trkpt lat="48.86648" lon="-0.58567">
        <ele>103</ele>
      </trkpt>
      <trkpt lat="48.86647" lon="-0.58583">
        <ele>103.1</ele>
      </trkpt>
      <trkpt lat="48.86648" lon="-0.58598">
        <ele>103.9</ele>
      </trkpt>
      <trkpt lat="48.86683" lon="-0.58717">
        <ele>107.8</ele>
      </trkpt>
      <trkpt lat="48.86713" lon="-0.58849">
        <ele>109.2</ele>
      </trkpt>
      <trkpt lat="48.86738" lon="-0.58937">
        <ele>102.8</ele>
      </trkpt>
      <trkpt lat="48.86796" lon="-0.59108">
        <ele>103.1</ele>
      </trkpt>
      <trkpt lat="48.86799" lon="-0.59122">
        <ele>104.4</ele>
      </trkpt>
      <trkpt lat="48.86849" lon="-0.59164">
        <ele>103.9</ele>
      </trkpt>
      <trkpt lat="48.86895" lon="-0.59178">
        <ele>103.3</ele>
      </trkpt>
      <trkpt lat="48.86961" lon="-0.59199">
        <ele>103.5</ele>
      </trkpt>
      <trkpt lat="48.86955" lon="-0.59279">
        <ele>109.8</ele>
      </trkpt>
      <trkpt lat="48.86958" lon="-0.5937">
        <ele>112.4</ele>
      </trkpt>
      <trkpt lat="48.8697" lon="-0.59361">
        <ele>112.4</ele>
      </trkpt>
      <trkpt lat="48.86981" lon="-0.59348">
        <ele>112</ele>
      </trkpt>
      <trkpt lat="48.87004" lon="-0.59302">
        <ele>110.2</ele>
      </trkpt>
      <trkpt lat="48.87026" lon="-0.59268">
        <ele>111.8</ele>
      </trkpt>
      <trkpt lat="48.87045" lon="-0.59256">
        <ele>113.9</ele>
      </trkpt>
      <trkpt lat="48.87087" lon="-0.59245">
        <ele>118.4</ele>
      </trkpt>
      <trkpt lat="48.87125" lon="-0.5923">
        <ele>119.2</ele>
      </trkpt>
      <trkpt lat="48.87144" lon="-0.59224">
        <ele>120.1</ele>
      </trkpt>
      <trkpt lat="48.87201" lon="-0.59175">
        <ele>119.6</ele>
      </trkpt>
      <trkpt lat="48.8728" lon="-0.59144">
        <ele>122.1</ele>
      </trkpt>
      <trkpt lat="48.87286" lon="-0.59141">
        <ele>122.1</ele>
      </trkpt>
      <trkpt lat="48.8729" lon="-0.59131">
        <ele>121.4</ele>
      </trkpt>
      <trkpt lat="48.87294" lon="-0.59134">
        <ele>121.9</ele>
      </trkpt>
      <trkpt lat="48.87336" lon="-0.59189">
        <ele>127.4</ele>
      </trkpt>
      <trkpt lat="48.87465" lon="-0.59396">
        <ele>133.7</ele>
      </trkpt>
      <trkpt lat="48.87529" lon="-0.5936">
        <ele>128.9</ele>
      </trkpt>
      <trkpt lat="48.87543" lon="-0.5959">
        <ele>123.5</ele>
      </trkpt>
      <trkpt lat="48.87543" lon="-0.59609">
        <ele>123.7</ele>
      </trkpt>
      <trkpt lat="48.87582" lon="-0.59562">
        <ele>119.9</ele>
      </trkpt>
      <trkpt lat="48.87596" lon="-0.59537">
        <ele>117.8</ele>
      </trkpt>
      <trkpt lat="48.87604" lon="-0.59508">
        <ele>116.9</ele>
      </trkpt>
      <trkpt lat="48.87615" lon="-0.59376">
        <ele>116.1</ele>
      </trkpt>
      <trkpt lat="48.87624" lon="-0.59326">
        <ele>114.1</ele>
      </trkpt>
      <trkpt lat="48.87632" lon="-0.59298">
        <ele>111.6</ele>
      </trkpt>
      <trkpt lat="48.87644" lon="-0.59262">
        <ele>108</ele>
      </trkpt>
      <trkpt lat="48.87651" lon="-0.59247">
        <ele>105.9</ele>
      </trkpt>
      <trkpt lat="48.87679" lon="-0.592">
        <ele>101.1</ele>
      </trkpt>
      <trkpt lat="48.87688" lon="-0.59188">
        <ele>100.9</ele>
      </trkpt>
      <trkpt lat="48.87702" lon="-0.59174">
        <ele>100.6</ele>
      </trkpt>
      <trkpt lat="48.87704" lon="-0.59184">
        <ele>100.6</ele>
      </trkpt>
      <trkpt lat="48.87709" lon="-0.59194">
        <ele>100.5</ele>
      </trkpt>
      <trkpt lat="48.87756" lon="-0.59272">
        <ele>99.7</ele>
      </trkpt>
      <trkpt lat="48.87772" lon="-0.59304">
        <ele>102</ele>
      </trkpt>
      <trkpt lat="48.87771" lon="-0.59329">
        <ele>103.3</ele>
      </trkpt>
      <trkpt lat="48.87772" lon="-0.59348">
        <ele>103.8</ele>
      </trkpt>
      <trkpt lat="48.87771" lon="-0.59329">
        <ele>103.3</ele>
      </trkpt>
      <trkpt lat="48.87772" lon="-0.59304">
        <ele>102</ele>
      </trkpt>
      <trkpt lat="48.87788" lon="-0.59348">
        <ele>105.8</ele>
      </trkpt>
      <trkpt lat="48.8786" lon="-0.59449">
        <ele>117.5</ele>
      </trkpt>
      <trkpt lat="48.87977" lon="-0.59541">
        <ele>134.2</ele>
      </trkpt>
      <trkpt lat="48.87991" lon="-0.59527">
        <ele>135.6</ele>
      </trkpt>
      <trkpt lat="48.88052" lon="-0.59427">
        <ele>141.1</ele>
      </trkpt>
      <trkpt lat="48.88068" lon="-0.59405">
        <ele>142.1</ele>
      </trkpt>
      <trkpt lat="48.88082" lon="-0.5939">
        <ele>143.2</ele>
      </trkpt>
      <trkpt lat="48.88099" lon="-0.59379">
        <ele>144.5</ele>
      </trkpt>
      <trkpt lat="48.88143" lon="-0.59361">
        <ele>148.6</ele>
      </trkpt>
      <trkpt lat="48.88196" lon="-0.59353">
        <ele>148.9</ele>
      </trkpt>
      <trkpt lat="48.88229" lon="-0.5935">
        <ele>146.3</ele>
      </trkpt>
      <trkpt lat="48.88238" lon="-0.59353">
        <ele>145.8</ele>
      </trkpt>
      <trkpt lat="48.88249" lon="-0.59361">
        <ele>145.4</ele>
      </trkpt>
      <trkpt lat="48.88272" lon="-0.59381">
        <ele>145.2</ele>
      </trkpt>
      <trkpt lat="48.88285" lon="-0.5939">
        <ele>145.2</ele>
      </trkpt>
      <trkpt lat="48.883" lon="-0.59395">
        <ele>145</ele>
      </trkpt>
      <trkpt lat="48.88321" lon="-0.59398">
        <ele>144.5</ele>
      </trkpt>
      <trkpt lat="48.88342" lon="-0.59399">
        <ele>143.2</ele>
      </trkpt>
      <trkpt lat="48.88355" lon="-0.59402">
        <ele>142.2</ele>
      </trkpt>
      <trkpt lat="48.88379" lon="-0.59415">
        <ele>140.5</ele>
      </trkpt>
      <trkpt lat="48.88414" lon="-0.59476">
        <ele>137.9</ele>
      </trkpt>
      <trkpt lat="48.88435" lon="-0.59534">
        <ele>137</ele>
      </trkpt>
      <trkpt lat="48.88443" lon="-0.59545">
        <ele>136.7</ele>
      </trkpt>
      <trkpt lat="48.88449" lon="-0.59549">
        <ele>136.5</ele>
      </trkpt>
      <trkpt lat="48.88467" lon="-0.59541">
        <ele>136</ele>
      </trkpt>
      <trkpt lat="48.8848" lon="-0.59529">
        <ele>135.6</ele>
      </trkpt>
      <trkpt lat="48.88489" lon="-0.59525">
        <ele>135.4</ele>
      </trkpt>
      <trkpt lat="48.88497" lon="-0.59526">
        <ele>135.1</ele>
      </trkpt>
      <trkpt lat="48.88504" lon="-0.59531">
        <ele>135.4</ele>
      </trkpt>
      <trkpt lat="48.88516" lon="-0.5955">
        <ele>136.7</ele>
      </trkpt>
      <trkpt lat="48.88521" lon="-0.5955">
        <ele>137.2</ele>
      </trkpt>
      <trkpt lat="48.88589" lon="-0.59603">
        <ele>146.9</ele>
      </trkpt>
      <trkpt lat="48.88593" lon="-0.59611">
        <ele>147.8</ele>
      </trkpt>
      <trkpt lat="48.88608" lon="-0.59615">
        <ele>149.5</ele>
      </trkpt>
      <trkpt lat="48.88616" lon="-0.59619">
        <ele>150.5</ele>
      </trkpt>
      <trkpt lat="48.88826" lon="-0.59828">
        <ele>166.6</ele>
      </trkpt>
      <trkpt lat="48.88954" lon="-0.60011">
        <ele>170</ele>
      </trkpt>
      <trkpt lat="48.89002" lon="-0.60059">
        <ele>170.6</ele>
      </trkpt>
      <trkpt lat="48.89066" lon="-0.60054">
        <ele>167.8</ele>
      </trkpt>
      <trkpt lat="48.89108" lon="-0.60117">
        <ele>166.1</ele>
      </trkpt>
      <trkpt lat="48.89134" lon="-0.60148">
        <ele>165.7</ele>
      </trkpt>
      <trkpt lat="48.89211" lon="-0.60158">
        <ele>165.6</ele>
      </trkpt>
      <trkpt lat="48.8922" lon="-0.60141">
        <ele>164.9</ele>
      </trkpt>
      <trkpt lat="48.8923" lon="-0.60138">
        <ele>165.1</ele>
      </trkpt>
      <trkpt lat="48.89242" lon="-0.60139">
        <ele>165.5</ele>
      </trkpt>
      <trkpt lat="48.89278" lon="-0.60149">
        <ele>168.6</ele>
      </trkpt>
      <trkpt lat="48.89336" lon="-0.6017">
        <ele>174.3</ele>
      </trkpt>
      <trkpt lat="48.89365" lon="-0.60183">
        <ele>177.3</ele>
      </trkpt>
      <trkpt lat="48.89453" lon="-0.60232">
        <ele>185.9</ele>
      </trkpt>
      <trkpt lat="48.8953" lon="-0.6029">
        <ele>190.9</ele>
      </trkpt>
      <trkpt lat="48.89536" lon="-0.60291">
        <ele>191.2</ele>
      </trkpt>
      <trkpt lat="48.89543" lon="-0.60303">
        <ele>191.7</ele>
      </trkpt>
      <trkpt lat="48.89584" lon="-0.60343">
        <ele>194.2</ele>
      </trkpt>
      <trkpt lat="48.89621" lon="-0.60373">
        <ele>195.8</ele>
      </trkpt>
      <trkpt lat="48.89796" lon="-0.60471">
        <ele>198.8</ele>
      </trkpt>
      <trkpt lat="48.89803" lon="-0.60476">
        <ele>198.9</ele>
      </trkpt>
      <trkpt lat="48.89818" lon="-0.60491">
        <ele>199</ele>
      </trkpt>
      <trkpt lat="48.89835" lon="-0.60515">
        <ele>199</ele>
      </trkpt>
      <trkpt lat="48.89933" lon="-0.60656">
        <ele>196.5</ele>
      </trkpt>
      <trkpt lat="48.8995" lon="-0.60677">
        <ele>196.5</ele>
      </trkpt>
      <trkpt lat="48.90008" lon="-0.6073">
        <ele>199.3</ele>
      </trkpt>
      <trkpt lat="48.90011" lon="-0.6073">
        <ele>199.5</ele>
      </trkpt>
      <trkpt lat="48.90023" lon="-0.60722">
        <ele>199.7</ele>
      </trkpt>
      <trkpt lat="48.90045" lon="-0.60712">
        <ele>200.4</ele>
      </trkpt>
      <trkpt lat="48.90073" lon="-0.60696">
        <ele>201.1</ele>
      </trkpt>
      <trkpt lat="48.90127" lon="-0.60653">
        <ele>205.5</ele>
      </trkpt>
      <trkpt lat="48.90145" lon="-0.60642">
        <ele>207.6</ele>
      </trkpt>
      <trkpt lat="48.90155" lon="-0.60641">
        <ele>209.2</ele>
      </trkpt>
      <trkpt lat="48.9018" lon="-0.60625">
        <ele>211.9</ele>
      </trkpt>
      <trkpt lat="48.90187" lon="-0.60619">
        <ele>212.5</ele>
      </trkpt>
      <trkpt lat="48.90202" lon="-0.60602">
        <ele>213.5</ele>
      </trkpt>
      <trkpt lat="48.90214" lon="-0.60584">
        <ele>214.1</ele>
      </trkpt>
      <trkpt lat="48.90229" lon="-0.60545">
        <ele>214.1</ele>
      </trkpt>
      <trkpt lat="48.9024" lon="-0.60497">
        <ele>213.5</ele>
      </trkpt>
      <trkpt lat="48.90248" lon="-0.6048">
        <ele>213.6</ele>
      </trkpt>
      <trkpt lat="48.90254" lon="-0.60478">
        <ele>214</ele>
      </trkpt>
      <trkpt lat="48.90272" lon="-0.60484">
        <ele>214.1</ele>
      </trkpt>
      <trkpt lat="48.90355" lon="-0.60517">
        <ele>213.5</ele>
      </trkpt>
      <trkpt lat="48.90383" lon="-0.60538">
        <ele>212.7</ele>
      </trkpt>
      <trkpt lat="48.90426" lon="-0.60559">
        <ele>210.9</ele>
      </trkpt>
      <trkpt lat="48.90434" lon="-0.60561">
        <ele>210.5</ele>
      </trkpt>
      <trkpt lat="48.90453" lon="-0.60561">
        <ele>209.4</ele>
      </trkpt>
      <trkpt lat="48.90496" lon="-0.60549">
        <ele>205.4</ele>
      </trkpt>
      <trkpt lat="48.90507" lon="-0.6054">
        <ele>202</ele>
      </trkpt>
      <trkpt lat="48.90516" lon="-0.60536">
        <ele>199.5</ele>
      </trkpt>
      <trkpt lat="48.90612" lon="-0.60667">
        <ele>195.5</ele>
      </trkpt>
      <trkpt lat="48.90631" lon="-0.6071">
        <ele>196</ele>
      </trkpt>
      <trkpt lat="48.90636" lon="-0.60716">
        <ele>195.8</ele>
      </trkpt>
      <trkpt lat="48.90648" lon="-0.60723">
        <ele>195.1</ele>
      </trkpt>
      <trkpt lat="48.90665" lon="-0.6074">
        <ele>195.1</ele>
      </trkpt>
      <trkpt lat="48.90682" lon="-0.60753">
        <ele>195.4</ele>
      </trkpt>
      <trkpt lat="48.907" lon="-0.6077">
        <ele>195.9</ele>
      </trkpt>
      <trkpt lat="48.90719" lon="-0.60793">
        <ele>197</ele>
      </trkpt>
      <trkpt lat="48.90724" lon="-0.60814">
        <ele>198.7</ele>
      </trkpt>
      <trkpt lat="48.9075" lon="-0.60889">
        <ele>204.4</ele>
      </trkpt>
      <trkpt lat="48.90758" lon="-0.60901">
        <ele>204.3</ele>
      </trkpt>
      <trkpt lat="48.90764" lon="-0.60906">
        <ele>204</ele>
      </trkpt>
      <trkpt lat="48.90778" lon="-0.60909">
        <ele>202.2</ele>
      </trkpt>
      <trkpt lat="48.90785" lon="-0.60915">
        <ele>201.8</ele>
      </trkpt>
      <trkpt lat="48.90794" lon="-0.60933">
        <ele>201.9</ele>
      </trkpt>
      <trkpt lat="48.90814" lon="-0.60967">
        <ele>200.8</ele>
      </trkpt>
      <trkpt lat="48.90829" lon="-0.60983">
        <ele>199</ele>
      </trkpt>
      <trkpt lat="48.90857" lon="-0.61001">
        <ele>193.1</ele>
      </trkpt>
      <trkpt lat="48.9087" lon="-0.61003">
        <ele>190</ele>
      </trkpt>
      <trkpt lat="48.90904" lon="-0.61003">
        <ele>181.5</ele>
      </trkpt>
      <trkpt lat="48.90912" lon="-0.60964">
        <ele>176.6</ele>
      </trkpt>
      <trkpt lat="48.90922" lon="-0.6096">
        <ele>173.8</ele>
      </trkpt>
      <trkpt lat="48.90928" lon="-0.6091">
        <ele>167.9</ele>
      </trkpt>
      <trkpt lat="48.90954" lon="-0.60882">
        <ele>157.7</ele>
      </trkpt>
      <trkpt lat="48.90943" lon="-0.60803">
        <ele>151.9</ele>
      </trkpt>
      <trkpt lat="48.9101" lon="-0.60752">
        <ele>136.6</ele>
      </trkpt>
      <trkpt lat="48.91014" lon="-0.6066">
        <ele>132.3</ele>
      </trkpt>
      <trkpt lat="48.91018" lon="-0.60589">
        <ele>135.5</ele>
      </trkpt>
      <trkpt lat="48.91016" lon="-0.6054">
        <ele>138.2</ele>
      </trkpt>
      <trkpt lat="48.9101" lon="-0.6051">
        <ele>138.7</ele>
      </trkpt>
      <trkpt lat="48.90957" lon="-0.6028">
        <ele>138</ele>
      </trkpt>
      <trkpt lat="48.90947" lon="-0.60235">
        <ele>136</ele>
      </trkpt>
      <trkpt lat="48.90944" lon="-0.602">
        <ele>134.7</ele>
      </trkpt>
      <trkpt lat="48.90945" lon="-0.60183">
        <ele>134.7</ele>
      </trkpt>
      <trkpt lat="48.9095" lon="-0.60156">
        <ele>135</ele>
      </trkpt>
      <trkpt lat="48.90955" lon="-0.60139">
        <ele>135</ele>
      </trkpt>
      <trkpt lat="48.90965" lon="-0.60115">
        <ele>135.2</ele>
      </trkpt>
      <trkpt lat="48.90971" lon="-0.60104">
        <ele>135.2</ele>
      </trkpt>
      <trkpt lat="48.90987" lon="-0.60083">
        <ele>135.3</ele>
      </trkpt>
      <trkpt lat="48.91011" lon="-0.60058">
        <ele>134.6</ele>
      </trkpt>
      <trkpt lat="48.91031" lon="-0.60065">
        <ele>137.3</ele>
      </trkpt>
      <trkpt lat="48.9104" lon="-0.60065">
        <ele>138.2</ele>
      </trkpt>
      <trkpt lat="48.91067" lon="-0.6006">
        <ele>139.7</ele>
      </trkpt>
      <trkpt lat="48.91038" lon="-0.6008">
        <ele>140.2</ele>
      </trkpt>
      <trkpt lat="48.91025" lon="-0.60098">
        <ele>141.7</ele>
      </trkpt>
      <trkpt lat="48.91009" lon="-0.60128">
        <ele>143.8</ele>
      </trkpt>
      <trkpt lat="48.91" lon="-0.60152">
        <ele>145.2</ele>
      </trkpt>
      <trkpt lat="48.90999" lon="-0.60168">
        <ele>146.7</ele>
      </trkpt>
      <trkpt lat="48.91" lon="-0.60188">
        <ele>147.4</ele>
      </trkpt>
      <trkpt lat="48.91017" lon="-0.60268">
        <ele>152.8</ele>
      </trkpt>
      <trkpt lat="48.91026" lon="-0.60306">
        <ele>155.1</ele>
      </trkpt>
      <trkpt lat="48.91044" lon="-0.6035">
        <ele>159.2</ele>
      </trkpt>
      <trkpt lat="48.91054" lon="-0.60369">
        <ele>161.6</ele>
      </trkpt>
      <trkpt lat="48.91089" lon="-0.60398">
        <ele>170.6</ele>
      </trkpt>
      <trkpt lat="48.9124" lon="-0.60476">
        <ele>193.1</ele>
      </trkpt>
      <trkpt lat="48.91245" lon="-0.60483">
        <ele>193.9</ele>
      </trkpt>
      <trkpt lat="48.91268" lon="-0.60575">
        <ele>194.5</ele>
      </trkpt>
      <trkpt lat="48.91281" lon="-0.60617">
        <ele>194.5</ele>
      </trkpt>
      <trkpt lat="48.91294" lon="-0.60645">
        <ele>195.1</ele>
      </trkpt>
      <trkpt lat="48.91305" lon="-0.60666">
        <ele>196</ele>
      </trkpt>
      <trkpt lat="48.91315" lon="-0.60675">
        <ele>196.4</ele>
      </trkpt>
      <trkpt lat="48.91409" lon="-0.60707">
        <ele>199.3</ele>
      </trkpt>
      <trkpt lat="48.91448" lon="-0.60724">
        <ele>198.3</ele>
      </trkpt>
      <trkpt lat="48.91464" lon="-0.60735">
        <ele>197.9</ele>
      </trkpt>
      <trkpt lat="48.915" lon="-0.60778">
        <ele>198</ele>
      </trkpt>
      <trkpt lat="48.91514" lon="-0.60791">
        <ele>198.6</ele>
      </trkpt>
      <trkpt lat="48.91542" lon="-0.60809">
        <ele>199.1</ele>
      </trkpt>
      <trkpt lat="48.91545" lon="-0.60827">
        <ele>199.4</ele>
      </trkpt>
      <trkpt lat="48.91562" lon="-0.60888">
        <ele>200.6</ele>
      </trkpt>
      <trkpt lat="48.91567" lon="-0.60902">
        <ele>200.8</ele>
      </trkpt>
      <trkpt lat="48.91569" lon="-0.60918">
        <ele>201.2</ele>
      </trkpt>
      <trkpt lat="48.91573" lon="-0.60926">
        <ele>201.1</ele>
      </trkpt>
      <trkpt lat="48.91627" lon="-0.60977">
        <ele>200.6</ele>
      </trkpt>
      <trkpt lat="48.91667" lon="-0.61024">
        <ele>200.6</ele>
      </trkpt>
      <trkpt lat="48.91689" lon="-0.61046">
        <ele>201.2</ele>
      </trkpt>
      <trkpt lat="48.91706" lon="-0.61058">
        <ele>201.5</ele>
      </trkpt>
      <trkpt lat="48.91714" lon="-0.61059">
        <ele>201.6</ele>
      </trkpt>
      <trkpt lat="48.91733" lon="-0.61054">
        <ele>201.6</ele>
      </trkpt>
      <trkpt lat="48.91779" lon="-0.61184">
        <ele>200.2</ele>
      </trkpt>
      <trkpt lat="48.91818" lon="-0.61323">
        <ele>192.5</ele>
      </trkpt>
      <trkpt lat="48.91824" lon="-0.61353">
        <ele>190.2</ele>
      </trkpt>
      <trkpt lat="48.91834" lon="-0.61501">
        <ele>178</ele>
      </trkpt>
      <trkpt lat="48.91832" lon="-0.61571">
        <ele>169.6</ele>
      </trkpt>
      <trkpt lat="48.91821" lon="-0.61626">
        <ele>172.4</ele>
      </trkpt>
      <trkpt lat="48.91829" lon="-0.61621">
        <ele>172.3</ele>
      </trkpt>
      <trkpt lat="48.91845" lon="-0.61618">
        <ele>173.2</ele>
      </trkpt>
      <trkpt lat="48.91864" lon="-0.61618">
        <ele>175.1</ele>
      </trkpt>
      <trkpt lat="48.91882" lon="-0.61624">
        <ele>177</ele>
      </trkpt>
      <trkpt lat="48.91907" lon="-0.61645">
        <ele>179.5</ele>
      </trkpt>
      <trkpt lat="48.91916" lon="-0.61658">
        <ele>180</ele>
      </trkpt>
      <trkpt lat="48.9193" lon="-0.61672">
        <ele>181.3</ele>
      </trkpt>
      <trkpt lat="48.91947" lon="-0.61716">
        <ele>186.4</ele>
      </trkpt>
      <trkpt lat="48.91976" lon="-0.61743">
        <ele>188.8</ele>
      </trkpt>
      <trkpt lat="48.9198" lon="-0.6175">
        <ele>189.2</ele>
      </trkpt>
      <trkpt lat="48.91988" lon="-0.61765">
        <ele>190.2</ele>
      </trkpt>
      <trkpt lat="48.92" lon="-0.61799">
        <ele>192.6</ele>
      </trkpt>
      <trkpt lat="48.92041" lon="-0.61869">
        <ele>198.6</ele>
      </trkpt>
      <trkpt lat="48.92051" lon="-0.61889">
        <ele>200.1</ele>
      </trkpt>
      <trkpt lat="48.92084" lon="-0.61979">
        <ele>203.5</ele>
      </trkpt>
      <trkpt lat="48.92142" lon="-0.62108">
        <ele>205</ele>
      </trkpt>
      <trkpt lat="48.9212" lon="-0.62152">
        <ele>203.9</ele>
      </trkpt>
      <trkpt lat="48.92095" lon="-0.62211">
        <ele>203</ele>
      </trkpt>
      <trkpt lat="48.92074" lon="-0.62257">
        <ele>203.1</ele>
      </trkpt>
      <trkpt lat="48.92065" lon="-0.62283">
        <ele>202.7</ele>
      </trkpt>
      <trkpt lat="48.92029" lon="-0.62339">
        <ele>203.2</ele>
      </trkpt>
      <trkpt lat="48.91961" lon="-0.62423">
        <ele>204.2</ele>
      </trkpt>
      <trkpt lat="48.91956" lon="-0.62437">
        <ele>204</ele>
      </trkpt>
      <trkpt lat="48.91957" lon="-0.62467">
        <ele>203.1</ele>
      </trkpt>
      <trkpt lat="48.91961" lon="-0.62483">
        <ele>202.5</ele>
      </trkpt>
      <trkpt lat="48.9198" lon="-0.62517">
        <ele>200.4</ele>
      </trkpt>
      <trkpt lat="48.92002" lon="-0.62536">
        <ele>198.3</ele>
      </trkpt>
      <trkpt lat="48.92008" lon="-0.62545">
        <ele>197.2</ele>
      </trkpt>
      <trkpt lat="48.9203" lon="-0.62587">
        <ele>193</ele>
      </trkpt>
      <trkpt lat="48.92065" lon="-0.62654">
        <ele>187.3</ele>
      </trkpt>
      <trkpt lat="48.92104" lon="-0.62615">
        <ele>186.3</ele>
      </trkpt>
      <trkpt lat="48.92121" lon="-0.62602">
        <ele>184.9</ele>
      </trkpt>
      <trkpt lat="48.92202" lon="-0.62565">
        <ele>181.8</ele>
      </trkpt>
      <trkpt lat="48.92219" lon="-0.62561">
        <ele>182.2</ele>
      </trkpt>
      <trkpt lat="48.92189" lon="-0.62654">
        <ele>180.6</ele>
      </trkpt>
      <trkpt lat="48.92232" lon="-0.62659">
        <ele>183.5</ele>
      </trkpt>
      <trkpt lat="48.92236" lon="-0.6266">
        <ele>183.8</ele>
      </trkpt>
      <trkpt lat="48.92268" lon="-0.62675">
        <ele>186.6</ele>
      </trkpt>
      <trkpt lat="48.9227" lon="-0.62673">
        <ele>187</ele>
      </trkpt>
      <trkpt lat="48.92295" lon="-0.62665">
        <ele>189.7</ele>
      </trkpt>
      <trkpt lat="48.92299" lon="-0.62661">
        <ele>189.9</ele>
      </trkpt>
      <trkpt lat="48.92316" lon="-0.62676">
        <ele>191.9</ele>
      </trkpt>
      <trkpt lat="48.92329" lon="-0.62698">
        <ele>192.7</ele>
      </trkpt>
      <trkpt lat="48.92336" lon="-0.62715">
        <ele>193.2</ele>
      </trkpt>
      <trkpt lat="48.92348" lon="-0.62752">
        <ele>193.8</ele>
      </trkpt>
      <trkpt lat="48.92351" lon="-0.62755">
        <ele>194.1</ele>
      </trkpt>
      <trkpt lat="48.92364" lon="-0.62761">
        <ele>195.6</ele>
      </trkpt>
      <trkpt lat="48.92381" lon="-0.62761">
        <ele>197.7</ele>
      </trkpt>
      <trkpt lat="48.9239" lon="-0.62769">
        <ele>198.7</ele>
      </trkpt>
      <trkpt lat="48.92394" lon="-0.62777">
        <ele>199.2</ele>
      </trkpt>
      <trkpt lat="48.92407" lon="-0.62826">
        <ele>200.8</ele>
      </trkpt>
      <trkpt lat="48.9242" lon="-0.62887">
        <ele>202.9</ele>
      </trkpt>
      <trkpt lat="48.92432" lon="-0.62987">
        <ele>205</ele>
      </trkpt>
      <trkpt lat="48.92442" lon="-0.62998">
        <ele>205.8</ele>
      </trkpt>
      <trkpt lat="48.92401" lon="-0.63029">
        <ele>203.4</ele>
      </trkpt>
      <trkpt lat="48.92388" lon="-0.63037">
        <ele>203.1</ele>
      </trkpt>
      <trkpt lat="48.92377" lon="-0.63041">
        <ele>202.8</ele>
      </trkpt>
      <trkpt lat="48.92366" lon="-0.63043">
        <ele>202.5</ele>
      </trkpt>
      <trkpt lat="48.92355" lon="-0.63043">
        <ele>202.2</ele>
      </trkpt>
      <trkpt lat="48.92344" lon="-0.63041">
        <ele>201.8</ele>
      </trkpt>
      <trkpt lat="48.92324" lon="-0.6303">
        <ele>200.9</ele>
      </trkpt>
      <trkpt lat="48.92324" lon="-0.63044">
        <ele>201.4</ele>
      </trkpt>
      <trkpt lat="48.92332" lon="-0.6309">
        <ele>202.8</ele>
      </trkpt>
      <trkpt lat="48.92317" lon="-0.63095">
        <ele>202.6</ele>
      </trkpt>
      <trkpt lat="48.92261" lon="-0.63107">
        <ele>202.5</ele>
      </trkpt>
      <trkpt lat="48.92213" lon="-0.63111">
        <ele>203.6</ele>
      </trkpt>
      <trkpt lat="48.92185" lon="-0.63117">
        <ele>204.4</ele>
      </trkpt>
      <trkpt lat="48.92122" lon="-0.63142">
        <ele>202</ele>
      </trkpt>
      <trkpt lat="48.92106" lon="-0.63156">
        <ele>201.3</ele>
      </trkpt>
      <trkpt lat="48.92061" lon="-0.63203">
        <ele>200</ele>
      </trkpt>
      <trkpt lat="48.92032" lon="-0.63228">
        <ele>199.5</ele>
      </trkpt>
      <trkpt lat="48.92013" lon="-0.63238">
        <ele>199</ele>
      </trkpt>
      <trkpt lat="48.91982" lon="-0.63247">
        <ele>196.6</ele>
      </trkpt>
      <trkpt lat="48.91914" lon="-0.63278">
        <ele>191</ele>
      </trkpt>
      <trkpt lat="48.91892" lon="-0.63303">
        <ele>189.4</ele>
      </trkpt>
      <trkpt lat="48.9186" lon="-0.63318">
        <ele>185.3</ele>
      </trkpt>
      <trkpt lat="48.91853" lon="-0.63325">
        <ele>184.9</ele>
      </trkpt>
      <trkpt lat="48.91846" lon="-0.63333">
        <ele>185.1</ele>
      </trkpt>
      <trkpt lat="48.91824" lon="-0.63348">
        <ele>181.3</ele>
      </trkpt>
      <trkpt lat="48.91813" lon="-0.63354">
        <ele>178.9</ele>
      </trkpt>
      <trkpt lat="48.91798" lon="-0.63358">
        <ele>175.3</ele>
      </trkpt>
      <trkpt lat="48.91785" lon="-0.63367">
        <ele>172.3</ele>
      </trkpt>
      <trkpt lat="48.91779" lon="-0.63378">
        <ele>170.9</ele>
      </trkpt>
      <trkpt lat="48.91774" lon="-0.63396">
        <ele>170.2</ele>
      </trkpt>
      <trkpt lat="48.91773" lon="-0.63426">
        <ele>169.6</ele>
      </trkpt>
      <trkpt lat="48.91779" lon="-0.63488">
        <ele>166.5</ele>
      </trkpt>
      <trkpt lat="48.91796" lon="-0.63587">
        <ele>161.4</ele>
      </trkpt>
      <trkpt lat="48.91798" lon="-0.63637">
        <ele>158.3</ele>
      </trkpt>
      <trkpt lat="48.91796" lon="-0.63653">
        <ele>156.6</ele>
      </trkpt>
      <trkpt lat="48.9179" lon="-0.6367">
        <ele>153.9</ele>
      </trkpt>
      <trkpt lat="48.918" lon="-0.63721">
        <ele>153.7</ele>
      </trkpt>
      <trkpt lat="48.91804" lon="-0.63756">
        <ele>152.6</ele>
      </trkpt>
      <trkpt lat="48.91801" lon="-0.6379">
        <ele>149.7</ele>
      </trkpt>
      <trkpt lat="48.91794" lon="-0.63817">
        <ele>146.7</ele>
      </trkpt>
      <trkpt lat="48.91779" lon="-0.63843">
        <ele>143.1</ele>
      </trkpt>
      <trkpt lat="48.91766" lon="-0.63859">
        <ele>140.9</ele>
      </trkpt>
      <trkpt lat="48.91814" lon="-0.63947">
        <ele>141.9</ele>
      </trkpt>
      <trkpt lat="48.91829" lon="-0.63983">
        <ele>142.1</ele>
      </trkpt>
      <trkpt lat="48.91824" lon="-0.63991">
        <ele>141.8</ele>
      </trkpt>
      <trkpt lat="48.91818" lon="-0.64007">
        <ele>142.3</ele>
      </trkpt>
      <trkpt lat="48.91814" lon="-0.64029">
        <ele>144</ele>
      </trkpt>
      <trkpt lat="48.91813" lon="-0.64039">
        <ele>144.8</ele>
      </trkpt>
      <trkpt lat="48.91814" lon="-0.64075">
        <ele>147.9</ele>
      </trkpt>
      <trkpt lat="48.91816" lon="-0.64084">
        <ele>148.9</ele>
      </trkpt>
      <trkpt lat="48.91823" lon="-0.64101">
        <ele>151.5</ele>
      </trkpt>
      <trkpt lat="48.91827" lon="-0.64123">
        <ele>154.9</ele>
      </trkpt>
      <trkpt lat="48.91839" lon="-0.64147">
        <ele>159</ele>
      </trkpt>
      <trkpt lat="48.91864" lon="-0.6419">
        <ele>164.3</ele>
      </trkpt>
      <trkpt lat="48.91882" lon="-0.6421">
        <ele>167.2</ele>
      </trkpt>
      <trkpt lat="48.91915" lon="-0.64244">
        <ele>173.9</ele>
      </trkpt>
      <trkpt lat="48.91948" lon="-0.64283">
        <ele>176.9</ele>
      </trkpt>
      <trkpt lat="48.91971" lon="-0.64312">
        <ele>179.6</ele>
      </trkpt>
      <trkpt lat="48.91978" lon="-0.64326">
        <ele>181.1</ele>
      </trkpt>
      <trkpt lat="48.91985" lon="-0.64347">
        <ele>181.8</ele>
      </trkpt>
      <trkpt lat="48.92031" lon="-0.64588">
        <ele>179.2</ele>
      </trkpt>
      <trkpt lat="48.92044" lon="-0.64712">
        <ele>186.4</ele>
      </trkpt>
      <trkpt lat="48.92059" lon="-0.64808">
        <ele>194.9</ele>
      </trkpt>
      <trkpt lat="48.92092" lon="-0.64945">
        <ele>203.6</ele>
      </trkpt>
      <trkpt lat="48.921" lon="-0.64989">
        <ele>205.3</ele>
      </trkpt>
      <trkpt lat="48.92108" lon="-0.65072">
        <ele>209.5</ele>
      </trkpt>
      <trkpt lat="48.92115" lon="-0.65097">
        <ele>210.6</ele>
      </trkpt>
      <trkpt lat="48.92133" lon="-0.6518">
        <ele>215.1</ele>
      </trkpt>
      <trkpt lat="48.92152" lon="-0.65284">
        <ele>220.4</ele>
      </trkpt>
      <trkpt lat="48.92152" lon="-0.65302">
        <ele>221.1</ele>
      </trkpt>
      <trkpt lat="48.92148" lon="-0.65315">
        <ele>221.7</ele>
      </trkpt>
      <trkpt lat="48.92156" lon="-0.65381">
        <ele>222.3</ele>
      </trkpt>
      <trkpt lat="48.92156" lon="-0.65401">
        <ele>222.4</ele>
      </trkpt>
      <trkpt lat="48.92155" lon="-0.65421">
        <ele>222.4</ele>
      </trkpt>
      <trkpt lat="48.92147" lon="-0.65465">
        <ele>222.1</ele>
      </trkpt>
      <trkpt lat="48.92126" lon="-0.65527">
        <ele>222.3</ele>
      </trkpt>
      <trkpt lat="48.92124" lon="-0.65544">
        <ele>222.3</ele>
      </trkpt>
      <trkpt lat="48.92122" lon="-0.65615">
        <ele>222.3</ele>
      </trkpt>
      <trkpt lat="48.92124" lon="-0.65632">
        <ele>222.3</ele>
      </trkpt>
      <trkpt lat="48.92184" lon="-0.65632">
        <ele>219.9</ele>
      </trkpt>
      <trkpt lat="48.92196" lon="-0.65618">
        <ele>219.2</ele>
      </trkpt>
      <trkpt lat="48.92218" lon="-0.65602">
        <ele>217.9</ele>
      </trkpt>
      <trkpt lat="48.92283" lon="-0.65566">
        <ele>212.4</ele>
      </trkpt>
      <trkpt lat="48.923" lon="-0.6556">
        <ele>210.7</ele>
      </trkpt>
      <trkpt lat="48.92317" lon="-0.65565">
        <ele>209.5</ele>
      </trkpt>
      <trkpt lat="48.92327" lon="-0.65573">
        <ele>209</ele>
      </trkpt>
      <trkpt lat="48.92334" lon="-0.65583">
        <ele>209</ele>
      </trkpt>
      <trkpt lat="48.92373" lon="-0.65609">
        <ele>210.7</ele>
      </trkpt>
      <trkpt lat="48.92378" lon="-0.6561">
        <ele>210.9</ele>
      </trkpt>
      <trkpt lat="48.9239" lon="-0.6561">
        <ele>211.4</ele>
      </trkpt>
      <trkpt lat="48.92427" lon="-0.65603">
        <ele>212.8</ele>
      </trkpt>
      <trkpt lat="48.92462" lon="-0.656">
        <ele>214.8</ele>
      </trkpt>
      <trkpt lat="48.9254" lon="-0.65608">
        <ele>217.8</ele>
      </trkpt>
      <trkpt lat="48.92637" lon="-0.65566">
        <ele>216.9</ele>
      </trkpt>
      <trkpt lat="48.92649" lon="-0.65563">
        <ele>216.4</ele>
      </trkpt>
      <trkpt lat="48.92663" lon="-0.65562">
        <ele>215.9</ele>
      </trkpt>
      <trkpt lat="48.9268" lon="-0.65566">
        <ele>215.2</ele>
      </trkpt>
      <trkpt lat="48.92724" lon="-0.65588">
        <ele>213.2</ele>
      </trkpt>
      <trkpt lat="48.92733" lon="-0.65598">
        <ele>212.7</ele>
      </trkpt>
      <trkpt lat="48.92749" lon="-0.65583">
        <ele>212</ele>
      </trkpt>
      <trkpt lat="48.9278" lon="-0.65561">
        <ele>211.8</ele>
      </trkpt>
      <trkpt lat="48.92815" lon="-0.65549">
        <ele>211.9</ele>
      </trkpt>
      <trkpt lat="48.92849" lon="-0.65546">
        <ele>212.8</ele>
      </trkpt>
      <trkpt lat="48.92861" lon="-0.65591">
        <ele>212.2</ele>
      </trkpt>
      <trkpt lat="48.92885" lon="-0.65658">
        <ele>211.5</ele>
      </trkpt>
      <trkpt lat="48.9289" lon="-0.6568">
        <ele>211</ele>
      </trkpt>
      <trkpt lat="48.92904" lon="-0.65744">
        <ele>209.2</ele>
      </trkpt>
      <trkpt lat="48.92915" lon="-0.65771">
        <ele>208.5</ele>
      </trkpt>
      <trkpt lat="48.92944" lon="-0.65857">
        <ele>209.7</ele>
      </trkpt>
      <trkpt lat="48.92959" lon="-0.6589">
        <ele>210.1</ele>
      </trkpt>
      <trkpt lat="48.92978" lon="-0.65956">
        <ele>208.8</ele>
      </trkpt>
      <trkpt lat="48.92994" lon="-0.66029">
        <ele>205.9</ele>
      </trkpt>
      <trkpt lat="48.92998" lon="-0.66063">
        <ele>204.1</ele>
      </trkpt>
      <trkpt lat="48.92997" lon="-0.6607">
        <ele>203.6</ele>
      </trkpt>
      <trkpt lat="48.92993" lon="-0.66077">
        <ele>203</ele>
      </trkpt>
      <trkpt lat="48.92968" lon="-0.66092">
        <ele>201.3</ele>
      </trkpt>
      <trkpt lat="48.92943" lon="-0.66105">
        <ele>199.9</ele>
      </trkpt>
      <trkpt lat="48.92937" lon="-0.6611">
        <ele>199.6</ele>
      </trkpt>
      <trkpt lat="48.92935" lon="-0.66122">
        <ele>199.3</ele>
      </trkpt>
      <trkpt lat="48.92943" lon="-0.66261">
        <ele>196</ele>
      </trkpt>
      <trkpt lat="48.92938" lon="-0.66302">
        <ele>194.8</ele>
      </trkpt>
      <trkpt lat="48.92942" lon="-0.66343">
        <ele>193.8</ele>
      </trkpt>
      <trkpt lat="48.92948" lon="-0.66375">
        <ele>193.1</ele>
      </trkpt>
      <trkpt lat="48.9296" lon="-0.66414">
        <ele>192</ele>
      </trkpt>
      <trkpt lat="48.9299" lon="-0.66486">
        <ele>189.1</ele>
      </trkpt>
      <trkpt lat="48.92998" lon="-0.66511">
        <ele>188</ele>
      </trkpt>
      <trkpt lat="48.93001" lon="-0.66528">
        <ele>187.7</ele>
      </trkpt>
      <trkpt lat="48.92999" lon="-0.66556">
        <ele>187.4</ele>
      </trkpt>
      <trkpt lat="48.9299" lon="-0.66565">
        <ele>188</ele>
      </trkpt>
      <trkpt lat="48.92982" lon="-0.6658">
        <ele>188.5</ele>
      </trkpt>
      <trkpt lat="48.92976" lon="-0.6664">
        <ele>188.4</ele>
      </trkpt>
      <trkpt lat="48.92952" lon="-0.66743">
        <ele>188.5</ele>
      </trkpt>
      <trkpt lat="48.92943" lon="-0.66792">
        <ele>188.2</ele>
      </trkpt>
      <trkpt lat="48.92905" lon="-0.66913">
        <ele>191.4</ele>
      </trkpt>
      <trkpt lat="48.92898" lon="-0.66953">
        <ele>191.3</ele>
      </trkpt>
      <trkpt lat="48.92901" lon="-0.66986">
        <ele>190.1</ele>
      </trkpt>
      <trkpt lat="48.92917" lon="-0.6704">
        <ele>186.5</ele>
      </trkpt>
      <trkpt lat="48.92928" lon="-0.67062">
        <ele>184.2</ele>
      </trkpt>
      <trkpt lat="48.92962" lon="-0.67118">
        <ele>177.9</ele>
      </trkpt>
      <trkpt lat="48.92967" lon="-0.67141">
        <ele>176.9</ele>
      </trkpt>
      <trkpt lat="48.9297" lon="-0.6718">
        <ele>175.6</ele>
      </trkpt>
      <trkpt lat="48.92972" lon="-0.67292">
        <ele>168.7</ele>
      </trkpt>
      <trkpt lat="48.92974" lon="-0.673">
        <ele>167.9</ele>
      </trkpt>
      <trkpt lat="48.92993" lon="-0.67313">
        <ele>166.2</ele>
      </trkpt>
      <trkpt lat="48.92961" lon="-0.67464">
        <ele>168.3</ele>
      </trkpt>
      <trkpt lat="48.92947" lon="-0.67487">
        <ele>168.5</ele>
      </trkpt>
      <trkpt lat="48.92841" lon="-0.67723">
        <ele>170</ele>
      </trkpt>
      <trkpt lat="48.92822" lon="-0.67758">
        <ele>170.2</ele>
      </trkpt>
      <trkpt lat="48.92806" lon="-0.67784">
        <ele>172</ele>
      </trkpt>
      <trkpt lat="48.9276" lon="-0.67855">
        <ele>172.6</ele>
      </trkpt>
      <trkpt lat="48.92696" lon="-0.67938">
        <ele>171.9</ele>
      </trkpt>
      <trkpt lat="48.92687" lon="-0.67948">
        <ele>171.7</ele>
      </trkpt>
      <trkpt lat="48.9268" lon="-0.67953">
        <ele>171.1</ele>
      </trkpt>
      <trkpt lat="48.9267" lon="-0.67958">
        <ele>170</ele>
      </trkpt>
      <trkpt lat="48.92653" lon="-0.67959">
        <ele>169</ele>
      </trkpt>
      <trkpt lat="48.92643" lon="-0.67962">
        <ele>169</ele>
      </trkpt>
      <trkpt lat="48.92633" lon="-0.67972">
        <ele>169</ele>
      </trkpt>
      <trkpt lat="48.92624" lon="-0.67989">
        <ele>169</ele>
      </trkpt>
      <trkpt lat="48.92562" lon="-0.68068">
        <ele>168.6</ele>
      </trkpt>
      <trkpt lat="48.92524" lon="-0.6811">
        <ele>172</ele>
      </trkpt>
      <trkpt lat="48.92512" lon="-0.68116">
        <ele>172.2</ele>
      </trkpt>
      <trkpt lat="48.92502" lon="-0.68117">
        <ele>171.5</ele>
      </trkpt>
      <trkpt lat="48.92489" lon="-0.68115">
        <ele>171.3</ele>
      </trkpt>
      <trkpt lat="48.92453" lon="-0.68105">
        <ele>170</ele>
      </trkpt>
      <trkpt lat="48.92427" lon="-0.68094">
        <ele>168.2</ele>
      </trkpt>
      <trkpt lat="48.92406" lon="-0.68076">
        <ele>166.7</ele>
      </trkpt>
      <trkpt lat="48.92386" lon="-0.68062">
        <ele>167.4</ele>
      </trkpt>
      <trkpt lat="48.92364" lon="-0.68052">
        <ele>168</ele>
      </trkpt>
      <trkpt lat="48.92358" lon="-0.68051">
        <ele>168.4</ele>
      </trkpt>
      <trkpt lat="48.92329" lon="-0.68054">
        <ele>170.8</ele>
      </trkpt>
      <trkpt lat="48.92299" lon="-0.68055">
        <ele>171.1</ele>
      </trkpt>
      <trkpt lat="48.92257" lon="-0.68052">
        <ele>170.7</ele>
      </trkpt>
      <trkpt lat="48.92197" lon="-0.68041">
        <ele>167</ele>
      </trkpt>
      <trkpt lat="48.9218" lon="-0.68036">
        <ele>165.8</ele>
      </trkpt>
      <trkpt lat="48.92164" lon="-0.68027">
        <ele>164.6</ele>
      </trkpt>
      <trkpt lat="48.92144" lon="-0.6802">
        <ele>163.9</ele>
      </trkpt>
      <trkpt lat="48.92134" lon="-0.68019">
        <ele>163.8</ele>
      </trkpt>
      <trkpt lat="48.92125" lon="-0.68022">
        <ele>164.1</ele>
      </trkpt>
      <trkpt lat="48.92118" lon="-0.68031">
        <ele>164.7</ele>
      </trkpt>
      <trkpt lat="48.9209" lon="-0.68093">
        <ele>167.8</ele>
      </trkpt>
      <trkpt lat="48.92076" lon="-0.68116">
        <ele>168.7</ele>
      </trkpt>
      <trkpt lat="48.92071" lon="-0.68132">
        <ele>169.4</ele>
      </trkpt>
      <trkpt lat="48.92063" lon="-0.68212">
        <ele>171.7</ele>
      </trkpt>
      <trkpt lat="48.92075" lon="-0.68244">
        <ele>173.2</ele>
      </trkpt>
      <trkpt lat="48.92088" lon="-0.68258">
        <ele>174.3</ele>
      </trkpt>
      <trkpt lat="48.92086" lon="-0.68376">
        <ele>173.8</ele>
      </trkpt>
      <trkpt lat="48.92091" lon="-0.6844">
        <ele>175.4</ele>
      </trkpt>
      <trkpt lat="48.9209" lon="-0.68458">
        <ele>176.3</ele>
      </trkpt>
      <trkpt lat="48.92125" lon="-0.68483">
        <ele>182.8</ele>
      </trkpt>
      <trkpt lat="48.92141" lon="-0.68505">
        <ele>186.5</ele>
      </trkpt>
      <trkpt lat="48.9216" lon="-0.68537">
        <ele>190.9</ele>
      </trkpt>
      <trkpt lat="48.9217" lon="-0.68547">
        <ele>192.8</ele>
      </trkpt>
      <trkpt lat="48.92214" lon="-0.6858">
        <ele>201.8</ele>
      </trkpt>
      <trkpt lat="48.92225" lon="-0.68591">
        <ele>204</ele>
      </trkpt>
      <trkpt lat="48.92233" lon="-0.68606">
        <ele>206</ele>
      </trkpt>
      <trkpt lat="48.92244" lon="-0.68635">
        <ele>208.9</ele>
      </trkpt>
      <trkpt lat="48.92259" lon="-0.6868">
        <ele>212</ele>
      </trkpt>
      <trkpt lat="48.92274" lon="-0.68698">
        <ele>213.7</ele>
      </trkpt>
      <trkpt lat="48.92413" lon="-0.68842">
        <ele>224.2</ele>
      </trkpt>
      <trkpt lat="48.92425" lon="-0.68858">
        <ele>224</ele>
      </trkpt>
      <trkpt lat="48.92457" lon="-0.68914">
        <ele>222.1</ele>
      </trkpt>
      <trkpt lat="48.9249" lon="-0.68951">
        <ele>220.4</ele>
      </trkpt>
      <trkpt lat="48.92575" lon="-0.69024">
        <ele>221.3</ele>
      </trkpt>
      <trkpt lat="48.92589" lon="-0.69033">
        <ele>221.5</ele>
      </trkpt>
      <trkpt lat="48.92625" lon="-0.69043">
        <ele>221.4</ele>
      </trkpt>
      <trkpt lat="48.92644" lon="-0.69054">
        <ele>221.4</ele>
      </trkpt>
      <trkpt lat="48.92667" lon="-0.69115">
        <ele>221</ele>
      </trkpt>
      <trkpt lat="48.92813" lon="-0.69442">
        <ele>239.9</ele>
      </trkpt>
      <trkpt lat="48.92819" lon="-0.69446">
        <ele>240.4</ele>
      </trkpt>
      <trkpt lat="48.92822" lon="-0.69454">
        <ele>240.7</ele>
      </trkpt>
      <trkpt lat="48.92827" lon="-0.69484">
        <ele>241.3</ele>
      </trkpt>
      <trkpt lat="48.92839" lon="-0.69531">
        <ele>241.5</ele>
      </trkpt>
      <trkpt lat="48.92915" lon="-0.69764">
        <ele>246.1</ele>
      </trkpt>
      <trkpt lat="48.92936" lon="-0.69812">
        <ele>250.3</ele>
      </trkpt>
      <trkpt lat="48.92972" lon="-0.69881">
        <ele>256</ele>
      </trkpt>
      <trkpt lat="48.9298" lon="-0.69891">
        <ele>257.2</ele>
      </trkpt>
      <trkpt lat="48.92974" lon="-0.69916">
        <ele>255.9</ele>
      </trkpt>
      <trkpt lat="48.9296" lon="-0.70037">
        <ele>249.8</ele>
      </trkpt>
      <trkpt lat="48.92967" lon="-0.7004">
        <ele>250.9</ele>
      </trkpt>
      <trkpt lat="48.92972" lon="-0.70044">
        <ele>251.5</ele>
      </trkpt>
      <trkpt lat="48.92976" lon="-0.70059">
        <ele>251.8</ele>
      </trkpt>
      <trkpt lat="48.93001" lon="-0.70257">
        <ele>251</ele>
      </trkpt>
      <trkpt lat="48.93016" lon="-0.70389">
        <ele>250.7</ele>
      </trkpt>
      <trkpt lat="48.93027" lon="-0.7052">
        <ele>251</ele>
      </trkpt>
      <trkpt lat="48.93055" lon="-0.70552">
        <ele>256.7</ele>
      </trkpt>
      <trkpt lat="48.93104" lon="-0.70741">
        <ele>258.9</ele>
      </trkpt>
      <trkpt lat="48.93194" lon="-0.70885">
        <ele>265.8</ele>
      </trkpt>
      <trkpt lat="48.9322" lon="-0.71105">
        <ele>265.9</ele>
      </trkpt>
      <trkpt lat="48.93238" lon="-0.71285">
        <ele>270.2</ele>
      </trkpt>
      <trkpt lat="48.9324" lon="-0.71358">
        <ele>272.1</ele>
      </trkpt>
      <trkpt lat="48.93252" lon="-0.71515">
        <ele>274.1</ele>
      </trkpt>
      <trkpt lat="48.93261" lon="-0.7159">
        <ele>273.9</ele>
      </trkpt>
      <trkpt lat="48.93267" lon="-0.71664">
        <ele>271.7</ele>
      </trkpt>
      <trkpt lat="48.93281" lon="-0.71917">
        <ele>272.9</ele>
      </trkpt>
      <trkpt lat="48.93296" lon="-0.7212">
        <ele>276.2</ele>
      </trkpt>
      <trkpt lat="48.93319" lon="-0.72334">
        <ele>275.8</ele>
      </trkpt>
      <trkpt lat="48.9334" lon="-0.72547">
        <ele>280.1</ele>
      </trkpt>
      <trkpt lat="48.93352" lon="-0.72637">
        <ele>279.7</ele>
      </trkpt>
      <trkpt lat="48.93358" lon="-0.72715">
        <ele>279.4</ele>
      </trkpt>
      <trkpt lat="48.93362" lon="-0.72784">
        <ele>280.4</ele>
      </trkpt>
      <trkpt lat="48.93363" lon="-0.72876">
        <ele>281.4</ele>
      </trkpt>
      <trkpt lat="48.93356" lon="-0.72999">
        <ele>282.8</ele>
      </trkpt>
      <trkpt lat="48.93354" lon="-0.73146">
        <ele>283.8</ele>
      </trkpt>
      <trkpt lat="48.93348" lon="-0.73193">
        <ele>284.5</ele>
      </trkpt>
      <trkpt lat="48.93351" lon="-0.73245">
        <ele>285.7</ele>
      </trkpt>
      <trkpt lat="48.93354" lon="-0.73392">
        <ele>288.5</ele>
      </trkpt>
      <trkpt lat="48.9336" lon="-0.73455">
        <ele>288</ele>
      </trkpt>
      <trkpt lat="48.93375" lon="-0.73547">
        <ele>287.7</ele>
      </trkpt>
      <trkpt lat="48.93384" lon="-0.73591">
        <ele>287.8</ele>
      </trkpt>
      <trkpt lat="48.93406" lon="-0.73687">
        <ele>287.9</ele>
      </trkpt>
      <trkpt lat="48.93415" lon="-0.73779">
        <ele>287.7</ele>
      </trkpt>
      <trkpt lat="48.93414" lon="-0.73831">
        <ele>287.4</ele>
      </trkpt>
      <trkpt lat="48.9342" lon="-0.73958">
        <ele>286.3</ele>
      </trkpt>
      <trkpt lat="48.93426" lon="-0.74038">
        <ele>284.3</ele>
      </trkpt>
      <trkpt lat="48.93425" lon="-0.74276">
        <ele>284.7</ele>
      </trkpt>
      <trkpt lat="48.93432" lon="-0.74409">
        <ele>283.5</ele>
      </trkpt>
      <trkpt lat="48.93445" lon="-0.74558">
        <ele>284</ele>
      </trkpt>
      <trkpt lat="48.93475" lon="-0.74795">
        <ele>278.8</ele>
      </trkpt>
      <trkpt lat="48.93494" lon="-0.74921">
        <ele>276.7</ele>
      </trkpt>
      <trkpt lat="48.93514" lon="-0.75071">
        <ele>273.1</ele>
      </trkpt>
      <trkpt lat="48.93516" lon="-0.75207">
        <ele>273.3</ele>
      </trkpt>
      <trkpt lat="48.93516" lon="-0.753">
        <ele>274.3</ele>
      </trkpt>
      <trkpt lat="48.93502" lon="-0.75324">
        <ele>273.9</ele>
      </trkpt>
      <trkpt lat="48.93488" lon="-0.75356">
        <ele>271.2</ele>
      </trkpt>
      <trkpt lat="48.9348" lon="-0.75383">
        <ele>269.9</ele>
      </trkpt>
      <trkpt lat="48.93475" lon="-0.75412">
        <ele>269.1</ele>
      </trkpt>
      <trkpt lat="48.9346" lon="-0.75594">
        <ele>264.2</ele>
      </trkpt>
      <trkpt lat="48.93451" lon="-0.75721">
        <ele>260.6</ele>
      </trkpt>
      <trkpt lat="48.93445" lon="-0.75771">
        <ele>259.2</ele>
      </trkpt>
      <trkpt lat="48.93409" lon="-0.75948">
        <ele>252.5</ele>
      </trkpt>
      <trkpt lat="48.93405" lon="-0.75963">
        <ele>251.3</ele>
      </trkpt>
      <trkpt lat="48.93395" lon="-0.75986">
        <ele>248.8</ele>
      </trkpt>
      <trkpt lat="48.93384" lon="-0.76005">
        <ele>246.3</ele>
      </trkpt>
      <trkpt lat="48.93377" lon="-0.76012">
        <ele>245</ele>
      </trkpt>
      <trkpt lat="48.93389" lon="-0.76079">
        <ele>247.7</ele>
      </trkpt>
      <trkpt lat="48.93409" lon="-0.76273">
        <ele>248.2</ele>
      </trkpt>
      <trkpt lat="48.93431" lon="-0.76505">
        <ele>245.9</ele>
      </trkpt>
      <trkpt lat="48.93433" lon="-0.76571">
        <ele>246.3</ele>
      </trkpt>
      <trkpt lat="48.93438" lon="-0.76609">
        <ele>248.4</ele>
      </trkpt>
      <trkpt lat="48.93445" lon="-0.76631">
        <ele>250.7</ele>
      </trkpt>
      <trkpt lat="48.9345" lon="-0.76661">
        <ele>253</ele>
      </trkpt>
      <trkpt lat="48.93453" lon="-0.76718">
        <ele>253.7</ele>
      </trkpt>
      <trkpt lat="48.93451" lon="-0.76972">
        <ele>252.8</ele>
      </trkpt>
      <trkpt lat="48.93448" lon="-0.77009">
        <ele>252.4</ele>
      </trkpt>
      <trkpt lat="48.93446" lon="-0.77082">
        <ele>251</ele>
      </trkpt>
      <trkpt lat="48.93436" lon="-0.77194">
        <ele>249</ele>
      </trkpt>
      <trkpt lat="48.93431" lon="-0.77239">
        <ele>248</ele>
      </trkpt>
      <trkpt lat="48.93431" lon="-0.77256">
        <ele>247.8</ele>
      </trkpt>
      <trkpt lat="48.9344" lon="-0.773">
        <ele>248.8</ele>
      </trkpt>
      <trkpt lat="48.93444" lon="-0.77364">
        <ele>247.9</ele>
      </trkpt>
      <trkpt lat="48.93443" lon="-0.77493">
        <ele>244.3</ele>
      </trkpt>
      <trkpt lat="48.9345" lon="-0.77523">
        <ele>246.3</ele>
      </trkpt>
      <trkpt lat="48.93457" lon="-0.77542">
        <ele>248</ele>
      </trkpt>
      <trkpt lat="48.93475" lon="-0.77582">
        <ele>252.2</ele>
      </trkpt>
      <trkpt lat="48.93479" lon="-0.77601">
        <ele>252.2</ele>
      </trkpt>
      <trkpt lat="48.93481" lon="-0.77627">
        <ele>251.1</ele>
      </trkpt>
      <trkpt lat="48.93481" lon="-0.77656">
        <ele>249.4</ele>
      </trkpt>
      <trkpt lat="48.93491" lon="-0.77689">
        <ele>249.7</ele>
      </trkpt>
      <trkpt lat="48.9351" lon="-0.77744">
        <ele>251.6</ele>
      </trkpt>
      <trkpt lat="48.93521" lon="-0.77789">
        <ele>252</ele>
      </trkpt>
      <trkpt lat="48.93524" lon="-0.77807">
        <ele>252</ele>
      </trkpt>
      <trkpt lat="48.93527" lon="-0.77841">
        <ele>251.1</ele>
      </trkpt>
      <trkpt lat="48.93533" lon="-0.77933">
        <ele>247.5</ele>
      </trkpt>
      <trkpt lat="48.93535" lon="-0.77993">
        <ele>246.9</ele>
      </trkpt>
      <trkpt lat="48.93535" lon="-0.78072">
        <ele>245.1</ele>
      </trkpt>
      <trkpt lat="48.9354" lon="-0.78186">
        <ele>246.6</ele>
      </trkpt>
      <trkpt lat="48.9354" lon="-0.78227">
        <ele>245.7</ele>
      </trkpt>
      <trkpt lat="48.93536" lon="-0.78316">
        <ele>243</ele>
      </trkpt>
      <trkpt lat="48.93541" lon="-0.78322">
        <ele>244.1</ele>
      </trkpt>
      <trkpt lat="48.93555" lon="-0.78363">
        <ele>246.2</ele>
      </trkpt>
      <trkpt lat="48.93568" lon="-0.78408">
        <ele>247.8</ele>
      </trkpt>
      <trkpt lat="48.93555" lon="-0.78363">
        <ele>246.2</ele>
      </trkpt>
      <trkpt lat="48.93554" lon="-0.78367">
        <ele>245.9</ele>
      </trkpt>
      <trkpt lat="48.93554" lon="-0.7844">
        <ele>244.1</ele>
      </trkpt>
      <trkpt lat="48.93556" lon="-0.78557">
        <ele>240.6</ele>
      </trkpt>
      <trkpt lat="48.93577" lon="-0.78724">
        <ele>234.5</ele>
      </trkpt>
      <trkpt lat="48.936" lon="-0.78834">
        <ele>229.7</ele>
      </trkpt>
      <trkpt lat="48.93637" lon="-0.78965">
        <ele>222.7</ele>
      </trkpt>
      <trkpt lat="48.93685" lon="-0.7912">
        <ele>210.1</ele>
      </trkpt>
      <trkpt lat="48.93688" lon="-0.79157">
        <ele>205.7</ele>
      </trkpt>
      <trkpt lat="48.93693" lon="-0.79382">
        <ele>176.8</ele>
      </trkpt>
      <trkpt lat="48.93696" lon="-0.7948">
        <ele>164</ele>
      </trkpt>
      <trkpt lat="48.93698" lon="-0.79507">
        <ele>160.8</ele>
      </trkpt>
      <trkpt lat="48.937" lon="-0.79516">
        <ele>160.2</ele>
      </trkpt>
      <trkpt lat="48.93702" lon="-0.79522">
        <ele>159.7</ele>
      </trkpt>
      <trkpt lat="48.9371" lon="-0.79534">
        <ele>158.9</ele>
      </trkpt>
      <trkpt lat="48.93717" lon="-0.79541">
        <ele>158.3</ele>
      </trkpt>
      <trkpt lat="48.93748" lon="-0.79561">
        <ele>156.9</ele>
      </trkpt>
      <trkpt lat="48.93759" lon="-0.79587">
        <ele>155.2</ele>
      </trkpt>
      <trkpt lat="48.93744" lon="-0.79609">
        <ele>155.1</ele>
      </trkpt>
      <trkpt lat="48.93727" lon="-0.79629">
        <ele>155.5</ele>
      </trkpt>
      <trkpt lat="48.93718" lon="-0.79635">
        <ele>155.7</ele>
      </trkpt>
      <trkpt lat="48.93705" lon="-0.79637">
        <ele>156</ele>
      </trkpt>
      <trkpt lat="48.9369" lon="-0.79634">
        <ele>156.3</ele>
      </trkpt>
      <trkpt lat="48.93664" lon="-0.79619">
        <ele>156.4</ele>
      </trkpt>
      <trkpt lat="48.93626" lon="-0.7959">
        <ele>156.8</ele>
      </trkpt>
      <trkpt lat="48.93614" lon="-0.79583">
        <ele>156.9</ele>
      </trkpt>
      <trkpt lat="48.93601" lon="-0.7958">
        <ele>157.4</ele>
      </trkpt>
      <trkpt lat="48.93581" lon="-0.79582">
        <ele>158</ele>
      </trkpt>
      <trkpt lat="48.93572" lon="-0.79587">
        <ele>158.3</ele>
      </trkpt>
      <trkpt lat="48.93566" lon="-0.79593">
        <ele>158.8</ele>
      </trkpt>
      <trkpt lat="48.93563" lon="-0.79602">
        <ele>159.4</ele>
      </trkpt>
      <trkpt lat="48.93557" lon="-0.79668">
        <ele>164</ele>
      </trkpt>
      <trkpt lat="48.93547" lon="-0.79703">
        <ele>165.5</ele>
      </trkpt>
      <trkpt lat="48.93536" lon="-0.79725">
        <ele>166.3</ele>
      </trkpt>
      <trkpt lat="48.93533" lon="-0.79742">
        <ele>166.8</ele>
      </trkpt>
      <trkpt lat="48.93538" lon="-0.79788">
        <ele>169</ele>
      </trkpt>
      <trkpt lat="48.93541" lon="-0.79855">
        <ele>172.8</ele>
      </trkpt>
      <trkpt lat="48.93547" lon="-0.79879">
        <ele>174.3</ele>
      </trkpt>
      <trkpt lat="48.93563" lon="-0.79877">
        <ele>174.4</ele>
      </trkpt>
      <trkpt lat="48.93582" lon="-0.79881">
        <ele>174.8</ele>
      </trkpt>
      <trkpt lat="48.9365" lon="-0.79899">
        <ele>174.8</ele>
      </trkpt>
      <trkpt lat="48.93667" lon="-0.79901">
        <ele>174.7</ele>
      </trkpt>
      <trkpt lat="48.93694" lon="-0.79894">
        <ele>174</ele>
      </trkpt>
      <trkpt lat="48.93727" lon="-0.7989">
        <ele>173.5</ele>
      </trkpt>
      <trkpt lat="48.9379" lon="-0.79878">
        <ele>177</ele>
      </trkpt>
      <trkpt lat="48.9382" lon="-0.79876">
        <ele>180.2</ele>
      </trkpt>
      <trkpt lat="48.93842" lon="-0.79867">
        <ele>181.7</ele>
      </trkpt>
      <trkpt lat="48.93873" lon="-0.79847">
        <ele>185.5</ele>
      </trkpt>
      <trkpt lat="48.93928" lon="-0.79793">
        <ele>188.5</ele>
      </trkpt>
      <trkpt lat="48.93968" lon="-0.79774">
        <ele>189.5</ele>
      </trkpt>
      <trkpt lat="48.93979" lon="-0.79772">
        <ele>190.2</ele>
      </trkpt>
      <trkpt lat="48.94076" lon="-0.79789">
        <ele>193.4</ele>
      </trkpt>
      <trkpt lat="48.94086" lon="-0.79808">
        <ele>193.6</ele>
      </trkpt>
      <trkpt lat="48.94086" lon="-0.79822">
        <ele>194.1</ele>
      </trkpt>
      <trkpt lat="48.94066" lon="-0.7983">
        <ele>195.5</ele>
      </trkpt>
      <trkpt lat="48.94056" lon="-0.79837">
        <ele>196.2</ele>
      </trkpt>
      <trkpt lat="48.94046" lon="-0.79844">
        <ele>197</ele>
      </trkpt>
      <trkpt lat="48.94007" lon="-0.79879">
        <ele>201.5</ele>
      </trkpt>
      <trkpt lat="48.93979" lon="-0.79896">
        <ele>202.6</ele>
      </trkpt>
      <trkpt lat="48.93973" lon="-0.79904">
        <ele>203.2</ele>
      </trkpt>
      <trkpt lat="48.9398" lon="-0.79944">
        <ele>206.7</ele>
      </trkpt>
      <trkpt lat="48.93978" lon="-0.79952">
        <ele>207.4</ele>
      </trkpt>
      <trkpt lat="48.93973" lon="-0.7996">
        <ele>208.1</ele>
      </trkpt>
      <trkpt lat="48.93902" lon="-0.8003">
        <ele>215.2</ele>
      </trkpt>
      <trkpt lat="48.9389" lon="-0.80044">
        <ele>215.3</ele>
      </trkpt>
      <trkpt lat="48.93872" lon="-0.80073">
        <ele>216.7</ele>
      </trkpt>
      <trkpt lat="48.93857" lon="-0.80112">
        <ele>220.9</ele>
      </trkpt>
      <trkpt lat="48.93846" lon="-0.80168">
        <ele>228.7</ele>
      </trkpt>
      <trkpt lat="48.93841" lon="-0.80275">
        <ele>236.5</ele>
      </trkpt>
      <trkpt lat="48.93837" lon="-0.8031">
        <ele>238</ele>
      </trkpt>
      <trkpt lat="48.93815" lon="-0.80412">
        <ele>237.6</ele>
      </trkpt>
      <trkpt lat="48.93801" lon="-0.80527">
        <ele>241.7</ele>
      </trkpt>
      <trkpt lat="48.93799" lon="-0.80567">
        <ele>244.3</ele>
      </trkpt>
      <trkpt lat="48.93797" lon="-0.80678">
        <ele>248.3</ele>
      </trkpt>
      <trkpt lat="48.93784" lon="-0.80738">
        <ele>248.8</ele>
      </trkpt>
      <trkpt lat="48.93778" lon="-0.80774">
        <ele>249.5</ele>
      </trkpt>
      <trkpt lat="48.93776" lon="-0.80811">
        <ele>250.2</ele>
      </trkpt>
      <trkpt lat="48.93781" lon="-0.80988">
        <ele>256.1</ele>
      </trkpt>
      <trkpt lat="48.93788" lon="-0.81029">
        <ele>256.9</ele>
      </trkpt>
      <trkpt lat="48.93802" lon="-0.81088">
        <ele>257.6</ele>
      </trkpt>
      <trkpt lat="48.93831" lon="-0.81253">
        <ele>257.6</ele>
      </trkpt>
      <trkpt lat="48.93843" lon="-0.81343">
        <ele>252.9</ele>
      </trkpt>
      <trkpt lat="48.93856" lon="-0.81574">
        <ele>247.8</ele>
      </trkpt>
      <trkpt lat="48.93858" lon="-0.81658">
        <ele>245.8</ele>
      </trkpt>
      <trkpt lat="48.93877" lon="-0.8189">
        <ele>241</ele>
      </trkpt>
      <trkpt lat="48.93876" lon="-0.81911">
        <ele>239.9</ele>
      </trkpt>
      <trkpt lat="48.93878" lon="-0.82006">
        <ele>241.1</ele>
      </trkpt>
      <trkpt lat="48.93874" lon="-0.82087">
        <ele>241.3</ele>
      </trkpt>
      <trkpt lat="48.93844" lon="-0.82493">
        <ele>229.4</ele>
      </trkpt>
      <trkpt lat="48.93839" lon="-0.82527">
        <ele>227.6</ele>
      </trkpt>
      <trkpt lat="48.93855" lon="-0.83059">
        <ele>228.8</ele>
      </trkpt>
      <trkpt lat="48.93862" lon="-0.83389">
        <ele>217.6</ele>
      </trkpt>
      <trkpt lat="48.94024" lon="-0.83793">
        <ele>212.5</ele>
      </trkpt>
      <trkpt lat="48.94056" lon="-0.83811">
        <ele>215.2</ele>
      </trkpt>
      <trkpt lat="48.94069" lon="-0.83818">
        <ele>216.3</ele>
      </trkpt>
      <trkpt lat="48.94079" lon="-0.83819">
        <ele>217.6</ele>
      </trkpt>
      <trkpt lat="48.94059" lon="-0.84153">
        <ele>197.2</ele>
      </trkpt>
      <trkpt lat="48.93829" lon="-0.8438">
        <ele>173.7</ele>
      </trkpt>
      <trkpt lat="48.93829" lon="-0.8438">
        <ele>173.7</ele>
      </trkpt>
      <trkpt lat="48.93829" lon="-0.8438">
        <ele>173.7</ele>
      </trkpt>
      <trkpt lat="48.93829" lon="-0.8438">
        <ele>173.7</ele>
      </trkpt>
      <trkpt lat="48.93816" lon="-0.84387">
        <ele>172.9</ele>
      </trkpt>
      <trkpt lat="48.93856" lon="-0.84507">
        <ele>171.5</ele>
      </trkpt>
      <trkpt lat="48.93934" lon="-0.8473">
        <ele>161.7</ele>
      </trkpt>
      <trkpt lat="48.94002" lon="-0.84936">
        <ele>159.2</ele>
      </trkpt>
      <trkpt lat="48.94028" lon="-0.85024">
        <ele>158.1</ele>
      </trkpt>
      <trkpt lat="48.94044" lon="-0.85077">
        <ele>156.6</ele>
      </trkpt>
      <trkpt lat="48.94115" lon="-0.85284">
        <ele>158.5</ele>
      </trkpt>
      <trkpt lat="48.94137" lon="-0.85351">
        <ele>159.9</ele>
      </trkpt>
      <trkpt lat="48.94146" lon="-0.85389">
        <ele>161.2</ele>
      </trkpt>
      <trkpt lat="48.94152" lon="-0.85423">
        <ele>162.2</ele>
      </trkpt>
      <trkpt lat="48.94155" lon="-0.8547">
        <ele>163.3</ele>
      </trkpt>
      <trkpt lat="48.94153" lon="-0.85568">
        <ele>164.6</ele>
      </trkpt>
      <trkpt lat="48.94149" lon="-0.85816">
        <ele>167.5</ele>
      </trkpt>
      <trkpt lat="48.94162" lon="-0.85819">
        <ele>168.5</ele>
      </trkpt>
      <trkpt lat="48.94201" lon="-0.85829">
        <ele>171.4</ele>
      </trkpt>
      <trkpt lat="48.94227" lon="-0.85833">
        <ele>173.3</ele>
      </trkpt>
      <trkpt lat="48.94247" lon="-0.85829">
        <ele>174.8</ele>
      </trkpt>
      <trkpt lat="48.94285" lon="-0.85809">
        <ele>173.1</ele>
      </trkpt>
      <trkpt lat="48.943" lon="-0.85808">
        <ele>172.3</ele>
      </trkpt>
      <trkpt lat="48.9437" lon="-0.85828">
        <ele>168.7</ele>
      </trkpt>
      <trkpt lat="48.9438" lon="-0.85829">
        <ele>168</ele>
      </trkpt>
      <trkpt lat="48.9438" lon="-0.85858">
        <ele>167.6</ele>
      </trkpt>
      <trkpt lat="48.94396" lon="-0.85899">
        <ele>165.2</ele>
      </trkpt>
      <trkpt lat="48.94409" lon="-0.85927">
        <ele>163</ele>
      </trkpt>
      <trkpt lat="48.94431" lon="-0.86">
        <ele>159.3</ele>
      </trkpt>
      <trkpt lat="48.94452" lon="-0.86051">
        <ele>157.8</ele>
      </trkpt>
      <trkpt lat="48.94471" lon="-0.86083">
        <ele>157.3</ele>
      </trkpt>
      <trkpt lat="48.94501" lon="-0.86121">
        <ele>154.2</ele>
      </trkpt>
      <trkpt lat="48.94506" lon="-0.86125">
        <ele>154</ele>
      </trkpt>
      <trkpt lat="48.94569" lon="-0.86173">
        <ele>152.8</ele>
      </trkpt>
      <trkpt lat="48.94594" lon="-0.86189">
        <ele>152.1</ele>
      </trkpt>
      <trkpt lat="48.94665" lon="-0.86227">
        <ele>152.1</ele>
      </trkpt>
      <trkpt lat="48.94716" lon="-0.86236">
        <ele>152.2</ele>
      </trkpt>
      <trkpt lat="48.94746" lon="-0.86237">
        <ele>152.7</ele>
      </trkpt>
      <trkpt lat="48.948" lon="-0.86235">
        <ele>154.3</ele>
      </trkpt>
      <trkpt lat="48.94891" lon="-0.8624">
        <ele>151.4</ele>
      </trkpt>
      <trkpt lat="48.94915" lon="-0.86238">
        <ele>150.1</ele>
      </trkpt>
      <trkpt lat="48.94944" lon="-0.86249">
        <ele>145.8</ele>
      </trkpt>
      <trkpt lat="48.94956" lon="-0.86255">
        <ele>143.7</ele>
      </trkpt>
      <trkpt lat="48.95001" lon="-0.86278">
        <ele>134.6</ele>
      </trkpt>
      <trkpt lat="48.95005" lon="-0.86275">
        <ele>134.2</ele>
      </trkpt>
      <trkpt lat="48.95033" lon="-0.86226">
        <ele>134</ele>
      </trkpt>
      <trkpt lat="48.95036" lon="-0.86227">
        <ele>133.2</ele>
      </trkpt>
      <trkpt lat="48.95036" lon="-0.86234">
        <ele>132.2</ele>
      </trkpt>
      <trkpt lat="48.95013" lon="-0.86323">
        <ele>125</ele>
      </trkpt>
      <trkpt lat="48.95001" lon="-0.86348">
        <ele>123.2</ele>
      </trkpt>
      <trkpt lat="48.94999" lon="-0.86353">
        <ele>122.3</ele>
      </trkpt>
      <trkpt lat="48.95" lon="-0.86355">
        <ele>121.7</ele>
      </trkpt>
      <trkpt lat="48.95041" lon="-0.86333">
        <ele>116.2</ele>
      </trkpt>
      <trkpt lat="48.95054" lon="-0.86352">
        <ele>109.8</ele>
      </trkpt>
      <trkpt lat="48.95084" lon="-0.86374">
        <ele>100.6</ele>
      </trkpt>
      <trkpt lat="48.95094" lon="-0.86374">
        <ele>99.8</ele>
      </trkpt>
      <trkpt lat="48.95123" lon="-0.86398">
        <ele>96.6</ele>
      </trkpt>
      <trkpt lat="48.95131" lon="-0.86413">
        <ele>96.1</ele>
      </trkpt>
      <trkpt lat="48.95136" lon="-0.86441">
        <ele>96.6</ele>
      </trkpt>
      <trkpt lat="48.95147" lon="-0.86463">
        <ele>98.2</ele>
      </trkpt>
      <trkpt lat="48.95164" lon="-0.86478">
        <ele>100.8</ele>
      </trkpt>
      <trkpt lat="48.95168" lon="-0.86481">
        <ele>101.7</ele>
      </trkpt>
      <trkpt lat="48.9514" lon="-0.86556">
        <ele>101.1</ele>
      </trkpt>
      <trkpt lat="48.95119" lon="-0.86624">
        <ele>101</ele>
      </trkpt>
      <trkpt lat="48.95106" lon="-0.86654">
        <ele>99.8</ele>
      </trkpt>
      <trkpt lat="48.95098" lon="-0.86674">
        <ele>99.2</ele>
      </trkpt>
      <trkpt lat="48.95051" lon="-0.86771">
        <ele>97.7</ele>
      </trkpt>
      <trkpt lat="48.95044" lon="-0.86789">
        <ele>98</ele>
      </trkpt>
      <trkpt lat="48.95024" lon="-0.86827">
        <ele>97</ele>
      </trkpt>
      <trkpt lat="48.95016" lon="-0.86848">
        <ele>97.9</ele>
      </trkpt>
      <trkpt lat="48.94995" lon="-0.86876">
        <ele>96.8</ele>
      </trkpt>
      <trkpt lat="48.94963" lon="-0.86953">
        <ele>97.3</ele>
      </trkpt>
      <trkpt lat="48.94963" lon="-0.86977">
        <ele>99.1</ele>
      </trkpt>
      <trkpt lat="48.94959" lon="-0.87">
        <ele>99.6</ele>
      </trkpt>
      <trkpt lat="48.94949" lon="-0.87035">
        <ele>97.2</ele>
      </trkpt>
      <trkpt lat="48.94941" lon="-0.87095">
        <ele>95.9</ele>
      </trkpt>
      <trkpt lat="48.94936" lon="-0.87154">
        <ele>95.1</ele>
      </trkpt>
      <trkpt lat="48.94946" lon="-0.87212">
        <ele>98.2</ele>
      </trkpt>
      <trkpt lat="48.94959" lon="-0.87315">
        <ele>97.8</ele>
      </trkpt>
      <trkpt lat="48.94955" lon="-0.87334">
        <ele>95.7</ele>
      </trkpt>
      <trkpt lat="48.94947" lon="-0.87363">
        <ele>92.8</ele>
      </trkpt>
      <trkpt lat="48.94944" lon="-0.87383">
        <ele>91.6</ele>
      </trkpt>
      <trkpt lat="48.94939" lon="-0.87492">
        <ele>96.4</ele>
      </trkpt>
      <trkpt lat="48.94933" lon="-0.87517">
        <ele>97.2</ele>
      </trkpt>
      <trkpt lat="48.94929" lon="-0.87531">
        <ele>97.7</ele>
      </trkpt>
      <trkpt lat="48.94915" lon="-0.87566">
        <ele>98</ele>
      </trkpt>
      <trkpt lat="48.94862" lon="-0.87676">
        <ele>98.6</ele>
      </trkpt>
      <trkpt lat="48.9485" lon="-0.87694">
        <ele>98.6</ele>
      </trkpt>
      <trkpt lat="48.94836" lon="-0.87715">
        <ele>98.8</ele>
      </trkpt>
      <trkpt lat="48.948" lon="-0.87757">
        <ele>97.6</ele>
      </trkpt>
      <trkpt lat="48.94777" lon="-0.87788">
        <ele>94.8</ele>
      </trkpt>
      <trkpt lat="48.94728" lon="-0.87837">
        <ele>88.3</ele>
      </trkpt>
      <trkpt lat="48.94706" lon="-0.87861">
        <ele>87.1</ele>
      </trkpt>
      <trkpt lat="48.94694" lon="-0.87891">
        <ele>86.1</ele>
      </trkpt>
      <trkpt lat="48.94686" lon="-0.87921">
        <ele>85.1</ele>
      </trkpt>
      <trkpt lat="48.94683" lon="-0.87951">
        <ele>83.4</ele>
      </trkpt>
      <trkpt lat="48.94691" lon="-0.87997">
        <ele>83</ele>
      </trkpt>
      <trkpt lat="48.94735" lon="-0.88112">
        <ele>81.9</ele>
      </trkpt>
      <trkpt lat="48.94823" lon="-0.88312">
        <ele>81.8</ele>
      </trkpt>
      <trkpt lat="48.94892" lon="-0.88406">
        <ele>86.5</ele>
      </trkpt>
      <trkpt lat="48.94898" lon="-0.88415">
        <ele>86.5</ele>
      </trkpt>
      <trkpt lat="48.94909" lon="-0.88464">
        <ele>86.9</ele>
      </trkpt>
      <trkpt lat="48.94906" lon="-0.88575">
        <ele>87.2</ele>
      </trkpt>
      <trkpt lat="48.94908" lon="-0.88603">
        <ele>88</ele>
      </trkpt>
      <trkpt lat="48.94906" lon="-0.88674">
        <ele>89</ele>
      </trkpt>
      <trkpt lat="48.949" lon="-0.8878">
        <ele>89.2</ele>
      </trkpt>
      <trkpt lat="48.94882" lon="-0.88921">
        <ele>83.7</ele>
      </trkpt>
      <trkpt lat="48.9488" lon="-0.88953">
        <ele>82.4</ele>
      </trkpt>
      <trkpt lat="48.94856" lon="-0.88939">
        <ele>79</ele>
      </trkpt>
      <trkpt lat="48.94885" lon="-0.89105">
        <ele>85.5</ele>
      </trkpt>
      <trkpt lat="48.94917" lon="-0.89229">
        <ele>85.8</ele>
      </trkpt>
      <trkpt lat="48.94936" lon="-0.89284">
        <ele>86.5</ele>
      </trkpt>
      <trkpt lat="48.94947" lon="-0.89307">
        <ele>86.9</ele>
      </trkpt>
      <trkpt lat="48.94959" lon="-0.89329">
        <ele>87.1</ele>
      </trkpt>
      <trkpt lat="48.94983" lon="-0.89362">
        <ele>88.3</ele>
      </trkpt>
      <trkpt lat="48.94954" lon="-0.8942">
        <ele>77.1</ele>
      </trkpt>
      <trkpt lat="48.94935" lon="-0.89444">
        <ele>75.8</ele>
      </trkpt>
      <trkpt lat="48.94891" lon="-0.89524">
        <ele>77.8</ele>
      </trkpt>
      <trkpt lat="48.94871" lon="-0.89601">
        <ele>80</ele>
      </trkpt>
      <trkpt lat="48.94885" lon="-0.89614">
        <ele>80.5</ele>
      </trkpt>
      <trkpt lat="48.94903" lon="-0.89634">
        <ele>81.2</ele>
      </trkpt>
      <trkpt lat="48.94929" lon="-0.89653">
        <ele>80.3</ele>
      </trkpt>
      <trkpt lat="48.94929" lon="-0.89693">
        <ele>80.4</ele>
      </trkpt>
      <trkpt lat="48.94924" lon="-0.8973">
        <ele>80.5</ele>
      </trkpt>
      <trkpt lat="48.94919" lon="-0.89754">
        <ele>80.5</ele>
      </trkpt>
      <trkpt lat="48.94907" lon="-0.89791">
        <ele>80.3</ele>
      </trkpt>
      <trkpt lat="48.94886" lon="-0.89835">
        <ele>82.9</ele>
      </trkpt>
      <trkpt lat="48.9487" lon="-0.89869">
        <ele>84.1</ele>
      </trkpt>
      <trkpt lat="48.94771" lon="-0.90028">
        <ele>86</ele>
      </trkpt>
      <trkpt lat="48.94735" lon="-0.90108">
        <ele>84.1</ele>
      </trkpt>
      <trkpt lat="48.94725" lon="-0.90139">
        <ele>83.8</ele>
      </trkpt>
      <trkpt lat="48.94717" lon="-0.90174">
        <ele>83</ele>
      </trkpt>
      <trkpt lat="48.94699" lon="-0.90236">
        <ele>84.4</ele>
      </trkpt>
      <trkpt lat="48.94683" lon="-0.90301">
        <ele>83.7</ele>
      </trkpt>
      <trkpt lat="48.94654" lon="-0.90353">
        <ele>86.6</ele>
      </trkpt>
      <trkpt lat="48.94648" lon="-0.90397">
        <ele>84.5</ele>
      </trkpt>
      <trkpt lat="48.94616" lon="-0.90466">
        <ele>87.1</ele>
      </trkpt>
      <trkpt lat="48.94604" lon="-0.90521">
        <ele>84.9</ele>
      </trkpt>
      <trkpt lat="48.94588" lon="-0.90563">
        <ele>84.1</ele>
      </trkpt>
      <trkpt lat="48.94583" lon="-0.90581">
        <ele>83.2</ele>
      </trkpt>
      <trkpt lat="48.94551" lon="-0.90711">
        <ele>90.1</ele>
      </trkpt>
      <trkpt lat="48.9455" lon="-0.90804">
        <ele>90.4</ele>
      </trkpt>
      <trkpt lat="48.94587" lon="-0.91172">
        <ele>88.4</ele>
      </trkpt>
      <trkpt lat="48.94591" lon="-0.91209">
        <ele>88.7</ele>
      </trkpt>
      <trkpt lat="48.9459" lon="-0.9126">
        <ele>89.7</ele>
      </trkpt>
      <trkpt lat="48.94591" lon="-0.91329">
        <ele>88.8</ele>
      </trkpt>
      <trkpt lat="48.94601" lon="-0.9139">
        <ele>87.8</ele>
      </trkpt>
      <trkpt lat="48.94599" lon="-0.91395">
        <ele>88.3</ele>
      </trkpt>
      <trkpt lat="48.94598" lon="-0.91419">
        <ele>88.7</ele>
      </trkpt>
      <trkpt lat="48.94598" lon="-0.91472">
        <ele>87</ele>
      </trkpt>
      <trkpt lat="48.94597" lon="-0.91478">
        <ele>87</ele>
      </trkpt>
      <trkpt lat="48.94595" lon="-0.91481">
        <ele>87.3</ele>
      </trkpt>
      <trkpt lat="48.94594" lon="-0.91517">
        <ele>85.4</ele>
      </trkpt>
      <trkpt lat="48.94589" lon="-0.91555">
        <ele>82.4</ele>
      </trkpt>
      <trkpt lat="48.94576" lon="-0.91574">
        <ele>83.1</ele>
      </trkpt>
      <trkpt lat="48.94532" lon="-0.91599">
        <ele>90.6</ele>
      </trkpt>
      <trkpt lat="48.94475" lon="-0.91622">
        <ele>98</ele>
      </trkpt>
      <trkpt lat="48.94459" lon="-0.91633">
        <ele>98.8</ele>
      </trkpt>
      <trkpt lat="48.94264" lon="-0.91828">
        <ele>91.4</ele>
      </trkpt>
      <trkpt lat="48.94244" lon="-0.91844">
        <ele>90.5</ele>
      </trkpt>
      <trkpt lat="48.94217" lon="-0.91845">
        <ele>92.9</ele>
      </trkpt>
      <trkpt lat="48.94179" lon="-0.91841">
        <ele>97.4</ele>
      </trkpt>
      <trkpt lat="48.94155" lon="-0.91835">
        <ele>100</ele>
      </trkpt>
      <trkpt lat="48.94137" lon="-0.91826">
        <ele>102.2</ele>
      </trkpt>
      <trkpt lat="48.94123" lon="-0.91814">
        <ele>104.8</ele>
      </trkpt>
      <trkpt lat="48.94065" lon="-0.91754">
        <ele>114.9</ele>
      </trkpt>
      <trkpt lat="48.94047" lon="-0.91731">
        <ele>117.5</ele>
      </trkpt>
      <trkpt lat="48.94029" lon="-0.91704">
        <ele>120.7</ele>
      </trkpt>
      <trkpt lat="48.94013" lon="-0.91683">
        <ele>123</ele>
      </trkpt>
      <trkpt lat="48.93992" lon="-0.9166">
        <ele>124.7</ele>
      </trkpt>
      <trkpt lat="48.93952" lon="-0.91625">
        <ele>124.2</ele>
      </trkpt>
      <trkpt lat="48.93937" lon="-0.91615">
        <ele>124</ele>
      </trkpt>
      <trkpt lat="48.93904" lon="-0.91609">
        <ele>123</ele>
      </trkpt>
      <trkpt lat="48.93879" lon="-0.916">
        <ele>124.4</ele>
      </trkpt>
      <trkpt lat="48.93853" lon="-0.91593">
        <ele>125.5</ele>
      </trkpt>
      <trkpt lat="48.93835" lon="-0.91582">
        <ele>127.1</ele>
      </trkpt>
      <trkpt lat="48.93817" lon="-0.91558">
        <ele>129.2</ele>
      </trkpt>
      <trkpt lat="48.93804" lon="-0.91535">
        <ele>131</ele>
      </trkpt>
      <trkpt lat="48.93802" lon="-0.91535">
        <ele>131</ele>
      </trkpt>
      <trkpt lat="48.93819" lon="-0.91398">
        <ele>138.9</ele>
      </trkpt>
      <trkpt lat="48.93677" lon="-0.91405">
        <ele>136.9</ele>
      </trkpt>
      <trkpt lat="48.93652" lon="-0.91361">
        <ele>136.9</ele>
      </trkpt>
      <trkpt lat="48.93596" lon="-0.91301">
        <ele>134.3</ele>
      </trkpt>
      <trkpt lat="48.93591" lon="-0.91163">
        <ele>130</ele>
      </trkpt>
      <trkpt lat="48.93542" lon="-0.91103">
        <ele>131.1</ele>
      </trkpt>
      <trkpt lat="48.93473" lon="-0.91278">
        <ele>137.2</ele>
      </trkpt>
      <trkpt lat="48.93411" lon="-0.91657">
        <ele>139.4</ele>
      </trkpt>
      <trkpt lat="48.93382" lon="-0.91872">
        <ele>134</ele>
      </trkpt>
      <trkpt lat="48.93377" lon="-0.9189">
        <ele>133.6</ele>
      </trkpt>
      <trkpt lat="48.93183" lon="-0.91793">
        <ele>152</ele>
      </trkpt>
      <trkpt lat="48.93026" lon="-0.91721">
        <ele>152.2</ele>
      </trkpt>
      <trkpt lat="48.93007" lon="-0.91713">
        <ele>151.8</ele>
      </trkpt>
      <trkpt lat="48.93006" lon="-0.91719">
        <ele>152.1</ele>
      </trkpt>
      <trkpt lat="48.92997" lon="-0.91734">
        <ele>152.9</ele>
      </trkpt>
      <trkpt lat="48.92983" lon="-0.91747">
        <ele>153.2</ele>
      </trkpt>
      <trkpt lat="48.92974" lon="-0.91768">
        <ele>154.1</ele>
      </trkpt>
      <trkpt lat="48.92949" lon="-0.919">
        <ele>160.6</ele>
      </trkpt>
      <trkpt lat="48.92946" lon="-0.91935">
        <ele>162.2</ele>
      </trkpt>
      <trkpt lat="48.92954" lon="-0.91992">
        <ele>164.7</ele>
      </trkpt>
      <trkpt lat="48.92955" lon="-0.92025">
        <ele>165.9</ele>
      </trkpt>
      <trkpt lat="48.92953" lon="-0.92051">
        <ele>166.8</ele>
      </trkpt>
      <trkpt lat="48.92933" lon="-0.92204">
        <ele>171.5</ele>
      </trkpt>
      <trkpt lat="48.92929" lon="-0.92251">
        <ele>172.2</ele>
      </trkpt>
      <trkpt lat="48.9293" lon="-0.92277">
        <ele>173.1</ele>
      </trkpt>
      <trkpt lat="48.92942" lon="-0.92323">
        <ele>174.7</ele>
      </trkpt>
      <trkpt lat="48.92952" lon="-0.92325">
        <ele>174.7</ele>
      </trkpt>
      <trkpt lat="48.93055" lon="-0.9237">
        <ele>173.9</ele>
      </trkpt>
      <trkpt lat="48.93092" lon="-0.92383">
        <ele>173.1</ele>
      </trkpt>
      <trkpt lat="48.93126" lon="-0.9239">
        <ele>171.6</ele>
      </trkpt>
      <trkpt lat="48.93208" lon="-0.92402">
        <ele>167</ele>
      </trkpt>
      <trkpt lat="48.93211" lon="-0.92419">
        <ele>166.9</ele>
      </trkpt>
      <trkpt lat="48.93224" lon="-0.92652">
        <ele>170.2</ele>
      </trkpt>
      <trkpt lat="48.9323" lon="-0.92695">
        <ele>170.2</ele>
      </trkpt>
      <trkpt lat="48.93244" lon="-0.92833">
        <ele>171.6</ele>
      </trkpt>
      <trkpt lat="48.93244" lon="-0.92848">
        <ele>171.1</ele>
      </trkpt>
      <trkpt lat="48.93257" lon="-0.92916">
        <ele>169.5</ele>
      </trkpt>
      <trkpt lat="48.93271" lon="-0.92961">
        <ele>168.2</ele>
      </trkpt>
      <trkpt lat="48.93281" lon="-0.93001">
        <ele>166.8</ele>
      </trkpt>
      <trkpt lat="48.93279" lon="-0.93086">
        <ele>162.7</ele>
      </trkpt>
      <trkpt lat="48.93272" lon="-0.93177">
        <ele>161.2</ele>
      </trkpt>
      <trkpt lat="48.93263" lon="-0.93233">
        <ele>161.7</ele>
      </trkpt>
      <trkpt lat="48.93254" lon="-0.9327">
        <ele>162.9</ele>
      </trkpt>
      <trkpt lat="48.93239" lon="-0.93321">
        <ele>162.1</ele>
      </trkpt>
      <trkpt lat="48.93204" lon="-0.934">
        <ele>157.4</ele>
      </trkpt>
      <trkpt lat="48.9318" lon="-0.93472">
        <ele>155.2</ele>
      </trkpt>
      <trkpt lat="48.93185" lon="-0.93477">
        <ele>155.5</ele>
      </trkpt>
      <trkpt lat="48.93188" lon="-0.93492">
        <ele>155.8</ele>
      </trkpt>
      <trkpt lat="48.93192" lon="-0.93549">
        <ele>155</ele>
      </trkpt>
      <trkpt lat="48.93207" lon="-0.93595">
        <ele>154.3</ele>
      </trkpt>
      <trkpt lat="48.93207" lon="-0.93635">
        <ele>155</ele>
      </trkpt>
      <trkpt lat="48.93187" lon="-0.93725">
        <ele>157.1</ele>
      </trkpt>
      <trkpt lat="48.93168" lon="-0.93743">
        <ele>158.8</ele>
      </trkpt>
      <trkpt lat="48.93148" lon="-0.93768">
        <ele>156.2</ele>
      </trkpt>
      <trkpt lat="48.93137" lon="-0.93784">
        <ele>154.9</ele>
      </trkpt>
      <trkpt lat="48.93072" lon="-0.93921">
        <ele>151</ele>
      </trkpt>
      <trkpt lat="48.93031" lon="-0.94009">
        <ele>146.6</ele>
      </trkpt>
      <trkpt lat="48.9297" lon="-0.94164">
        <ele>139.8</ele>
      </trkpt>
      <trkpt lat="48.92947" lon="-0.94221">
        <ele>134.9</ele>
      </trkpt>
      <trkpt lat="48.92935" lon="-0.94254">
        <ele>132.1</ele>
      </trkpt>
      <trkpt lat="48.92929" lon="-0.94282">
        <ele>130.3</ele>
      </trkpt>
      <trkpt lat="48.92921" lon="-0.94381">
        <ele>126.6</ele>
      </trkpt>
      <trkpt lat="48.92917" lon="-0.94406">
        <ele>124.4</ele>
      </trkpt>
      <trkpt lat="48.92913" lon="-0.94415">
        <ele>123.3</ele>
      </trkpt>
      <trkpt lat="48.92907" lon="-0.94423">
        <ele>121.7</ele>
      </trkpt>
      <trkpt lat="48.92893" lon="-0.94432">
        <ele>118.5</ele>
      </trkpt>
      <trkpt lat="48.92884" lon="-0.94433">
        <ele>116.8</ele>
      </trkpt>
      <trkpt lat="48.92869" lon="-0.94428">
        <ele>114.6</ele>
      </trkpt>
      <trkpt lat="48.92861" lon="-0.9442">
        <ele>113.8</ele>
      </trkpt>
      <trkpt lat="48.92855" lon="-0.9441">
        <ele>112.9</ele>
      </trkpt>
      <trkpt lat="48.92837" lon="-0.94353">
        <ele>109.8</ele>
      </trkpt>
      <trkpt lat="48.92833" lon="-0.94347">
        <ele>109</ele>
      </trkpt>
      <trkpt lat="48.92829" lon="-0.94346">
        <ele>108.8</ele>
      </trkpt>
      <trkpt lat="48.92824" lon="-0.94349">
        <ele>108.6</ele>
      </trkpt>
      <trkpt lat="48.92817" lon="-0.94366">
        <ele>108.3</ele>
      </trkpt>
      <trkpt lat="48.92808" lon="-0.94404">
        <ele>107.6</ele>
      </trkpt>
      <trkpt lat="48.92802" lon="-0.9442">
        <ele>107</ele>
      </trkpt>
      <trkpt lat="48.92805" lon="-0.94428">
        <ele>106.9</ele>
      </trkpt>
      <trkpt lat="48.92808" lon="-0.9445">
        <ele>106.1</ele>
      </trkpt>
      <trkpt lat="48.92801" lon="-0.94633">
        <ele>102.2</ele>
      </trkpt>
      <trkpt lat="48.9282" lon="-0.94641">
        <ele>102.3</ele>
      </trkpt>
      <trkpt lat="48.92875" lon="-0.94672">
        <ele>101.3</ele>
      </trkpt>
      <trkpt lat="48.92958" lon="-0.947">
        <ele>102.2</ele>
      </trkpt>
      <trkpt lat="48.92997" lon="-0.94708">
        <ele>102.5</ele>
      </trkpt>
      <trkpt lat="48.93089" lon="-0.94737">
        <ele>102.8</ele>
      </trkpt>
      <trkpt lat="48.93108" lon="-0.94749">
        <ele>102.4</ele>
      </trkpt>
      <trkpt lat="48.93142" lon="-0.94776">
        <ele>108.9</ele>
      </trkpt>
      <trkpt lat="48.93158" lon="-0.94786">
        <ele>110.6</ele>
      </trkpt>
      <trkpt lat="48.93167" lon="-0.94789">
        <ele>110.9</ele>
      </trkpt>
      <trkpt lat="48.93186" lon="-0.94793">
        <ele>110.6</ele>
      </trkpt>
      <trkpt lat="48.93217" lon="-0.94791">
        <ele>108.7</ele>
      </trkpt>
      <trkpt lat="48.93232" lon="-0.94793">
        <ele>108.1</ele>
      </trkpt>
      <trkpt lat="48.93261" lon="-0.94801">
        <ele>107.5</ele>
      </trkpt>
      <trkpt lat="48.93276" lon="-0.94808">
        <ele>106.7</ele>
      </trkpt>
      <trkpt lat="48.93296" lon="-0.94826">
        <ele>106.8</ele>
      </trkpt>
      <trkpt lat="48.93302" lon="-0.94846">
        <ele>107.8</ele>
      </trkpt>
      <trkpt lat="48.933" lon="-0.94922">
        <ele>113.6</ele>
      </trkpt>
      <trkpt lat="48.93296" lon="-0.9497">
        <ele>115.6</ele>
      </trkpt>
      <trkpt lat="48.93255" lon="-0.95132">
        <ele>121.3</ele>
      </trkpt>
      <trkpt lat="48.93249" lon="-0.95141">
        <ele>121.8</ele>
      </trkpt>
      <trkpt lat="48.93244" lon="-0.95164">
        <ele>122.7</ele>
      </trkpt>
      <trkpt lat="48.93232" lon="-0.95222">
        <ele>125</ele>
      </trkpt>
      <trkpt lat="48.93217" lon="-0.9532">
        <ele>128.7</ele>
      </trkpt>
      <trkpt lat="48.932" lon="-0.95359">
        <ele>131.7</ele>
      </trkpt>
      <trkpt lat="48.93148" lon="-0.95463">
        <ele>140.5</ele>
      </trkpt>
      <trkpt lat="48.93134" lon="-0.955">
        <ele>143.8</ele>
      </trkpt>
      <trkpt lat="48.93066" lon="-0.95688">
        <ele>158.1</ele>
      </trkpt>
      <trkpt lat="48.93058" lon="-0.95739">
        <ele>158.7</ele>
      </trkpt>
      <trkpt lat="48.93045" lon="-0.95829">
        <ele>160</ele>
      </trkpt>
      <trkpt lat="48.93016" lon="-0.95975">
        <ele>167.5</ele>
      </trkpt>
      <trkpt lat="48.92945" lon="-0.96384">
        <ele>173.8</ele>
      </trkpt>
      <trkpt lat="48.92899" lon="-0.96634">
        <ele>169.8</ele>
      </trkpt>
      <trkpt lat="48.92876" lon="-0.9677">
        <ele>168.7</ele>
      </trkpt>
      <trkpt lat="48.92845" lon="-0.96934">
        <ele>169.2</ele>
      </trkpt>
      <trkpt lat="48.92798" lon="-0.97198">
        <ele>170.8</ele>
      </trkpt>
      <trkpt lat="48.92795" lon="-0.97226">
        <ele>172.5</ele>
      </trkpt>
      <trkpt lat="48.92768" lon="-0.97381">
        <ele>182.7</ele>
      </trkpt>
      <trkpt lat="48.92761" lon="-0.97428">
        <ele>185.8</ele>
      </trkpt>
      <trkpt lat="48.92707" lon="-0.97644">
        <ele>190.8</ele>
      </trkpt>
      <trkpt lat="48.92699" lon="-0.97684">
        <ele>192.3</ele>
      </trkpt>
      <trkpt lat="48.92671" lon="-0.97775">
        <ele>197.1</ele>
      </trkpt>
      <trkpt lat="48.92666" lon="-0.97799">
        <ele>198.1</ele>
      </trkpt>
      <trkpt lat="48.92663" lon="-0.97824">
        <ele>198.6</ele>
      </trkpt>
      <trkpt lat="48.92663" lon="-0.97914">
        <ele>199.4</ele>
      </trkpt>
      <trkpt lat="48.92661" lon="-0.98127">
        <ele>194.6</ele>
      </trkpt>
      <trkpt lat="48.92653" lon="-0.98211">
        <ele>191.3</ele>
      </trkpt>
      <trkpt lat="48.92645" lon="-0.98253">
        <ele>190.7</ele>
      </trkpt>
      <trkpt lat="48.9263" lon="-0.98304">
        <ele>189.1</ele>
      </trkpt>
      <trkpt lat="48.92596" lon="-0.98391">
        <ele>187.2</ele>
      </trkpt>
      <trkpt lat="48.92592" lon="-0.98409">
        <ele>187.1</ele>
      </trkpt>
      <trkpt lat="48.9259" lon="-0.98431">
        <ele>187</ele>
      </trkpt>
      <trkpt lat="48.92589" lon="-0.98458">
        <ele>187</ele>
      </trkpt>
      <trkpt lat="48.92591" lon="-0.98484">
        <ele>186.9</ele>
      </trkpt>
      <trkpt lat="48.92606" lon="-0.98571">
        <ele>184.7</ele>
      </trkpt>
      <trkpt lat="48.92606" lon="-0.98585">
        <ele>184.4</ele>
      </trkpt>
      <trkpt lat="48.92586" lon="-0.98699">
        <ele>183.8</ele>
      </trkpt>
      <trkpt lat="48.92584" lon="-0.98732">
        <ele>182</ele>
      </trkpt>
      <trkpt lat="48.92583" lon="-0.98771">
        <ele>180.5</ele>
      </trkpt>
      <trkpt lat="48.9259" lon="-0.98859">
        <ele>178.1</ele>
      </trkpt>
      <trkpt lat="48.92597" lon="-0.98917">
        <ele>176.5</ele>
      </trkpt>
      <trkpt lat="48.92596" lon="-0.98961">
        <ele>177.9</ele>
      </trkpt>
      <trkpt lat="48.92589" lon="-0.9902">
        <ele>180.7</ele>
      </trkpt>
      <trkpt lat="48.92586" lon="-0.99058">
        <ele>181.9</ele>
      </trkpt>
      <trkpt lat="48.92589" lon="-0.99127">
        <ele>182.7</ele>
      </trkpt>
      <trkpt lat="48.92586" lon="-0.99182">
        <ele>183.7</ele>
      </trkpt>
      <trkpt lat="48.92581" lon="-0.99204">
        <ele>184.3</ele>
      </trkpt>
      <trkpt lat="48.92571" lon="-0.99232">
        <ele>184.2</ele>
      </trkpt>
      <trkpt lat="48.92562" lon="-0.99254">
        <ele>184.3</ele>
      </trkpt>
      <trkpt lat="48.92559" lon="-0.99257">
        <ele>184.2</ele>
      </trkpt>
      <trkpt lat="48.92545" lon="-0.99319">
        <ele>184.8</ele>
      </trkpt>
      <trkpt lat="48.92537" lon="-0.99367">
        <ele>184.9</ele>
      </trkpt>
      <trkpt lat="48.92516" lon="-0.99448">
        <ele>186.6</ele>
      </trkpt>
      <trkpt lat="48.92509" lon="-0.99479">
        <ele>187.7</ele>
      </trkpt>
      <trkpt lat="48.92492" lon="-0.99537">
        <ele>189.2</ele>
      </trkpt>
      <trkpt lat="48.92482" lon="-0.99583">
        <ele>190.1</ele>
      </trkpt>
      <trkpt lat="48.92464" lon="-0.99639">
        <ele>189.5</ele>
      </trkpt>
      <trkpt lat="48.92447" lon="-0.99703">
        <ele>189.4</ele>
      </trkpt>
      <trkpt lat="48.92424" lon="-0.99803">
        <ele>189.8</ele>
      </trkpt>
      <trkpt lat="48.92405" lon="-0.99878">
        <ele>188.8</ele>
      </trkpt>
      <trkpt lat="48.9239" lon="-0.99953">
        <ele>187.1</ele>
      </trkpt>
      <trkpt lat="48.92383" lon="-1.00015">
        <ele>186</ele>
      </trkpt>
      <trkpt lat="48.92371" lon="-1.00079">
        <ele>184.5</ele>
      </trkpt>
      <trkpt lat="48.92359" lon="-1.00175">
        <ele>184.1</ele>
      </trkpt>
      <trkpt lat="48.92327" lon="-1.00391">
        <ele>179.9</ele>
      </trkpt>
      <trkpt lat="48.92319" lon="-1.00434">
        <ele>178.3</ele>
      </trkpt>
      <trkpt lat="48.92284" lon="-1.00578">
        <ele>174.8</ele>
      </trkpt>
      <trkpt lat="48.92262" lon="-1.00682">
        <ele>172.1</ele>
      </trkpt>
      <trkpt lat="48.92236" lon="-1.00794">
        <ele>164.9</ele>
      </trkpt>
      <trkpt lat="48.9223" lon="-1.00814">
        <ele>162.9</ele>
      </trkpt>
      <trkpt lat="48.92208" lon="-1.00873">
        <ele>157.9</ele>
      </trkpt>
      <trkpt lat="48.92198" lon="-1.00904">
        <ele>155.8</ele>
      </trkpt>
      <trkpt lat="48.92184" lon="-1.00959">
        <ele>148.5</ele>
      </trkpt>
      <trkpt lat="48.9218" lon="-1.00986">
        <ele>144.4</ele>
      </trkpt>
      <trkpt lat="48.92248" lon="-1.0116">
        <ele>122.5</ele>
      </trkpt>
      <trkpt lat="48.92275" lon="-1.01187">
        <ele>119.1</ele>
      </trkpt>
      <trkpt lat="48.92297" lon="-1.01209">
        <ele>117.4</ele>
      </trkpt>
      <trkpt lat="48.92305" lon="-1.01212">
        <ele>118</ele>
      </trkpt>
      <trkpt lat="48.92312" lon="-1.01213">
        <ele>118.6</ele>
      </trkpt>
      <trkpt lat="48.92346" lon="-1.01209">
        <ele>120.4</ele>
      </trkpt>
      <trkpt lat="48.92369" lon="-1.01205">
        <ele>118.8</ele>
      </trkpt>
      <trkpt lat="48.92391" lon="-1.01204">
        <ele>116.9</ele>
      </trkpt>
      <trkpt lat="48.92402" lon="-1.01205">
        <ele>116</ele>
      </trkpt>
      <trkpt lat="48.92423" lon="-1.01211">
        <ele>113.7</ele>
      </trkpt>
      <trkpt lat="48.9246" lon="-1.01226">
        <ele>108.8</ele>
      </trkpt>
      <trkpt lat="48.9248" lon="-1.01236">
        <ele>106</ele>
      </trkpt>
      <trkpt lat="48.92517" lon="-1.01259">
        <ele>101.3</ele>
      </trkpt>
      <trkpt lat="48.92565" lon="-1.01294">
        <ele>95.7</ele>
      </trkpt>
      <trkpt lat="48.92616" lon="-1.0134">
        <ele>88.7</ele>
      </trkpt>
      <trkpt lat="48.92663" lon="-1.01373">
        <ele>82.1</ele>
      </trkpt>
      <trkpt lat="48.92701" lon="-1.01396">
        <ele>79.1</ele>
      </trkpt>
      <trkpt lat="48.92719" lon="-1.01413">
        <ele>77.6</ele>
      </trkpt>
      <trkpt lat="48.92736" lon="-1.01432">
        <ele>76.5</ele>
      </trkpt>
      <trkpt lat="48.92758" lon="-1.01462">
        <ele>75.6</ele>
      </trkpt>
      <trkpt lat="48.92791" lon="-1.01522">
        <ele>75.3</ele>
      </trkpt>
      <trkpt lat="48.92801" lon="-1.01535">
        <ele>75</ele>
      </trkpt>
      <trkpt lat="48.92832" lon="-1.01562">
        <ele>74.2</ele>
      </trkpt>
      <trkpt lat="48.92867" lon="-1.01588">
        <ele>75</ele>
      </trkpt>
      <trkpt lat="48.92883" lon="-1.01597">
        <ele>76</ele>
      </trkpt>
      <trkpt lat="48.9289" lon="-1.01598">
        <ele>76.6</ele>
      </trkpt>
      <trkpt lat="48.9291" lon="-1.01597">
        <ele>78.6</ele>
      </trkpt>
      <trkpt lat="48.92946" lon="-1.01607">
        <ele>78.3</ele>
      </trkpt>
      <trkpt lat="48.9296" lon="-1.01607">
        <ele>78.2</ele>
      </trkpt>
      <trkpt lat="48.92993" lon="-1.01603">
        <ele>78.1</ele>
      </trkpt>
      <trkpt lat="48.9302" lon="-1.01602">
        <ele>79.1</ele>
      </trkpt>
      <trkpt lat="48.93041" lon="-1.0161">
        <ele>80</ele>
      </trkpt>
      <trkpt lat="48.93058" lon="-1.01628">
        <ele>80.8</ele>
      </trkpt>
      <trkpt lat="48.93134" lon="-1.01776">
        <ele>84.9</ele>
      </trkpt>
      <trkpt lat="48.93402" lon="-1.0226">
        <ele>61.9</ele>
      </trkpt>
      <trkpt lat="48.93479" lon="-1.02357">
        <ele>55</ele>
      </trkpt>
      <trkpt lat="48.93513" lon="-1.02397">
        <ele>52.5</ele>
      </trkpt>
      <trkpt lat="48.93542" lon="-1.02425">
        <ele>50.7</ele>
      </trkpt>
      <trkpt lat="48.93579" lon="-1.02468">
        <ele>49.4</ele>
      </trkpt>
      <trkpt lat="48.93594" lon="-1.02493">
        <ele>48.8</ele>
      </trkpt>
      <trkpt lat="48.93599" lon="-1.02508">
        <ele>48.5</ele>
      </trkpt>
      <trkpt lat="48.93602" lon="-1.02537">
        <ele>48.2</ele>
      </trkpt>
      <trkpt lat="48.93601" lon="-1.02556">
        <ele>48</ele>
      </trkpt>
      <trkpt lat="48.93587" lon="-1.02663">
        <ele>46.1</ele>
      </trkpt>
      <trkpt lat="48.93572" lon="-1.02736">
        <ele>46</ele>
      </trkpt>
      <trkpt lat="48.93548" lon="-1.02835">
        <ele>48.9</ele>
      </trkpt>
      <trkpt lat="48.93544" lon="-1.02874">
        <ele>49.6</ele>
      </trkpt>
      <trkpt lat="48.93543" lon="-1.02916">
        <ele>50.4</ele>
      </trkpt>
      <trkpt lat="48.93548" lon="-1.02954">
        <ele>51.9</ele>
      </trkpt>
      <trkpt lat="48.93556" lon="-1.02983">
        <ele>52.5</ele>
      </trkpt>
      <trkpt lat="48.93568" lon="-1.03014">
        <ele>52.9</ele>
      </trkpt>
      <trkpt lat="48.93575" lon="-1.03039">
        <ele>53.5</ele>
      </trkpt>
      <trkpt lat="48.93586" lon="-1.0306">
        <ele>53.6</ele>
      </trkpt>
      <trkpt lat="48.93601" lon="-1.03083">
        <ele>53.3</ele>
      </trkpt>
      <trkpt lat="48.93617" lon="-1.03117">
        <ele>51.5</ele>
      </trkpt>
      <trkpt lat="48.93629" lon="-1.0317">
        <ele>50.1</ele>
      </trkpt>
      <trkpt lat="48.93654" lon="-1.03316">
        <ele>51.1</ele>
      </trkpt>
      <trkpt lat="48.93663" lon="-1.03341">
        <ele>52.3</ele>
      </trkpt>
      <trkpt lat="48.93655" lon="-1.03347">
        <ele>52.5</ele>
      </trkpt>
      <trkpt lat="48.93645" lon="-1.03362">
        <ele>52.9</ele>
      </trkpt>
      <trkpt lat="48.93637" lon="-1.03382">
        <ele>53.5</ele>
      </trkpt>
      <trkpt lat="48.93626" lon="-1.03424">
        <ele>54.8</ele>
      </trkpt>
      <trkpt lat="48.9362" lon="-1.03486">
        <ele>57.2</ele>
      </trkpt>
      <trkpt lat="48.93616" lon="-1.03578">
        <ele>60.6</ele>
      </trkpt>
      <trkpt lat="48.93607" lon="-1.03626">
        <ele>63.1</ele>
      </trkpt>
      <trkpt lat="48.93636" lon="-1.03673">
        <ele>66.5</ele>
      </trkpt>
      <trkpt lat="48.93693" lon="-1.03747">
        <ele>71.2</ele>
      </trkpt>
      <trkpt lat="48.93722" lon="-1.03797">
        <ele>74.3</ele>
      </trkpt>
      <trkpt lat="48.9373" lon="-1.03817">
        <ele>75.3</ele>
      </trkpt>
      <trkpt lat="48.93739" lon="-1.03849">
        <ele>77</ele>
      </trkpt>
      <trkpt lat="48.93752" lon="-1.03946">
        <ele>83</ele>
      </trkpt>
      <trkpt lat="48.93792" lon="-1.04126">
        <ele>95.3</ele>
      </trkpt>
      <trkpt lat="48.93806" lon="-1.04173">
        <ele>97.4</ele>
      </trkpt>
      <trkpt lat="48.93816" lon="-1.04196">
        <ele>98.1</ele>
      </trkpt>
      <trkpt lat="48.939" lon="-1.04391">
        <ele>103.9</ele>
      </trkpt>
      <trkpt lat="48.93915" lon="-1.04431">
        <ele>105.2</ele>
      </trkpt>
      <trkpt lat="48.93926" lon="-1.04468">
        <ele>106.6</ele>
      </trkpt>
      <trkpt lat="48.93973" lon="-1.04651">
        <ele>107.8</ele>
      </trkpt>
      <trkpt lat="48.94049" lon="-1.04881">
        <ele>104</ele>
      </trkpt>
      <trkpt lat="48.94067" lon="-1.04927">
        <ele>103.5</ele>
      </trkpt>
      <trkpt lat="48.94079" lon="-1.04945">
        <ele>103.5</ele>
      </trkpt>
      <trkpt lat="48.94093" lon="-1.04962">
        <ele>103.2</ele>
      </trkpt>
      <trkpt lat="48.94117" lon="-1.04983">
        <ele>102.6</ele>
      </trkpt>
      <trkpt lat="48.94149" lon="-1.05018">
        <ele>102</ele>
      </trkpt>
      <trkpt lat="48.94156" lon="-1.05034">
        <ele>102.1</ele>
      </trkpt>
      <trkpt lat="48.9416" lon="-1.05051">
        <ele>102.4</ele>
      </trkpt>
      <trkpt lat="48.94164" lon="-1.05074">
        <ele>102.8</ele>
      </trkpt>
      <trkpt lat="48.94165" lon="-1.05124">
        <ele>104</ele>
      </trkpt>
      <trkpt lat="48.94169" lon="-1.05143">
        <ele>104.4</ele>
      </trkpt>
      <trkpt lat="48.94168" lon="-1.05143">
        <ele>104.4</ele>
      </trkpt>
      <trkpt lat="48.94169" lon="-1.05146">
        <ele>104.5</ele>
      </trkpt>
      <trkpt lat="48.94158" lon="-1.0516">
        <ele>104.7</ele>
      </trkpt>
      <trkpt lat="48.94152" lon="-1.05175">
        <ele>104.5</ele>
      </trkpt>
      <trkpt lat="48.94141" lon="-1.05202">
        <ele>103.8</ele>
      </trkpt>
      <trkpt lat="48.94125" lon="-1.05243">
        <ele>102.6</ele>
      </trkpt>
      <trkpt lat="48.94115" lon="-1.05279">
        <ele>101.8</ele>
      </trkpt>
      <trkpt lat="48.94102" lon="-1.05331">
        <ele>100.7</ele>
      </trkpt>
      <trkpt lat="48.94092" lon="-1.05386">
        <ele>99.1</ele>
      </trkpt>
      <trkpt lat="48.94082" lon="-1.05457">
        <ele>98</ele>
      </trkpt>
      <trkpt lat="48.94075" lon="-1.055">
        <ele>97.5</ele>
      </trkpt>
      <trkpt lat="48.94066" lon="-1.05547">
        <ele>97.1</ele>
      </trkpt>
      <trkpt lat="48.94051" lon="-1.05609">
        <ele>96.7</ele>
      </trkpt>
      <trkpt lat="48.94041" lon="-1.0566">
        <ele>97.3</ele>
      </trkpt>
      <trkpt lat="48.94034" lon="-1.057">
        <ele>99</ele>
      </trkpt>
      <trkpt lat="48.94027" lon="-1.05744">
        <ele>101.2</ele>
      </trkpt>
      <trkpt lat="48.94017" lon="-1.05794">
        <ele>101.6</ele>
      </trkpt>
      <trkpt lat="48.94005" lon="-1.05842">
        <ele>100.9</ele>
      </trkpt>
      <trkpt lat="48.93988" lon="-1.05897">
        <ele>98.8</ele>
      </trkpt>
      <trkpt lat="48.93958" lon="-1.05972">
        <ele>93.6</ele>
      </trkpt>
      <trkpt lat="48.93933" lon="-1.06037">
        <ele>89.2</ele>
      </trkpt>
      <trkpt lat="48.93925" lon="-1.0606">
        <ele>87.7</ele>
      </trkpt>
      <trkpt lat="48.93919" lon="-1.06084">
        <ele>86.5</ele>
      </trkpt>
      <trkpt lat="48.93917" lon="-1.06107">
        <ele>85.8</ele>
      </trkpt>
      <trkpt lat="48.93916" lon="-1.06141">
        <ele>85.2</ele>
      </trkpt>
      <trkpt lat="48.93916" lon="-1.06174">
        <ele>84.8</ele>
      </trkpt>
      <trkpt lat="48.93916" lon="-1.0621">
        <ele>83.9</ele>
      </trkpt>
      <trkpt lat="48.9392" lon="-1.06241">
        <ele>83.8</ele>
      </trkpt>
      <trkpt lat="48.93925" lon="-1.06259">
        <ele>84.3</ele>
      </trkpt>
      <trkpt lat="48.93928" lon="-1.06267">
        <ele>84.7</ele>
      </trkpt>
      <trkpt lat="48.93931" lon="-1.06272">
        <ele>85</ele>
      </trkpt>
      <trkpt lat="48.93933" lon="-1.06276">
        <ele>85.3</ele>
      </trkpt>
      <trkpt lat="48.93927" lon="-1.06293">
        <ele>83.7</ele>
      </trkpt>
      <trkpt lat="48.93907" lon="-1.06374">
        <ele>81.4</ele>
      </trkpt>
      <trkpt lat="48.93913" lon="-1.06386">
        <ele>81.6</ele>
      </trkpt>
      <trkpt lat="48.93916" lon="-1.06397">
        <ele>81.7</ele>
      </trkpt>
      <trkpt lat="48.93916" lon="-1.06412">
        <ele>81.9</ele>
      </trkpt>
      <trkpt lat="48.93913" lon="-1.06438">
        <ele>82.7</ele>
      </trkpt>
      <trkpt lat="48.93911" lon="-1.06458">
        <ele>83.3</ele>
      </trkpt>
      <trkpt lat="48.93911" lon="-1.06475">
        <ele>83.9</ele>
      </trkpt>
      <trkpt lat="48.93913" lon="-1.06506">
        <ele>84.8</ele>
      </trkpt>
      <trkpt lat="48.93918" lon="-1.06547">
        <ele>84.6</ele>
      </trkpt>
      <trkpt lat="48.93924" lon="-1.06573">
        <ele>85.3</ele>
      </trkpt>
      <trkpt lat="48.93929" lon="-1.06597">
        <ele>85.8</ele>
      </trkpt>
      <trkpt lat="48.93941" lon="-1.06647">
        <ele>86.3</ele>
      </trkpt>
      <trkpt lat="48.93948" lon="-1.06682">
        <ele>87.1</ele>
      </trkpt>
      <trkpt lat="48.93954" lon="-1.06714">
        <ele>88.6</ele>
      </trkpt>
      <trkpt lat="48.93958" lon="-1.06739">
        <ele>89.7</ele>
      </trkpt>
      <trkpt lat="48.9396" lon="-1.0676">
        <ele>90.6</ele>
      </trkpt>
      <trkpt lat="48.93961" lon="-1.06787">
        <ele>91.5</ele>
      </trkpt>
      <trkpt lat="48.9396" lon="-1.06819">
        <ele>92.4</ele>
      </trkpt>
      <trkpt lat="48.9396" lon="-1.06832">
        <ele>92.8</ele>
      </trkpt>
      <trkpt lat="48.93962" lon="-1.06857">
        <ele>93.1</ele>
      </trkpt>
      <trkpt lat="48.93965" lon="-1.06882">
        <ele>93.6</ele>
      </trkpt>
      <trkpt lat="48.93969" lon="-1.06915">
        <ele>94.1</ele>
      </trkpt>
      <trkpt lat="48.93977" lon="-1.06963">
        <ele>94.6</ele>
      </trkpt>
      <trkpt lat="48.93981" lon="-1.06984">
        <ele>94.7</ele>
      </trkpt>
      <trkpt lat="48.93986" lon="-1.0702">
        <ele>94.8</ele>
      </trkpt>
      <trkpt lat="48.93992" lon="-1.07045">
        <ele>95.1</ele>
      </trkpt>
      <trkpt lat="48.93998" lon="-1.07069">
        <ele>95.2</ele>
      </trkpt>
      <trkpt lat="48.94001" lon="-1.07085">
        <ele>95.2</ele>
      </trkpt>
      <trkpt lat="48.94002" lon="-1.07109">
        <ele>95.8</ele>
      </trkpt>
      <trkpt lat="48.94" lon="-1.07146">
        <ele>95.7</ele>
      </trkpt>
      <trkpt lat="48.94" lon="-1.07176">
        <ele>95.4</ele>
      </trkpt>
      <trkpt lat="48.94001" lon="-1.07204">
        <ele>93.9</ele>
      </trkpt>
      <trkpt lat="48.94003" lon="-1.07226">
        <ele>93.1</ele>
      </trkpt>
      <trkpt lat="48.94011" lon="-1.07247">
        <ele>93.4</ele>
      </trkpt>
      <trkpt lat="48.94019" lon="-1.07268">
        <ele>94.1</ele>
      </trkpt>
      <trkpt lat="48.94034" lon="-1.0729">
        <ele>95.5</ele>
      </trkpt>
      <trkpt lat="48.9405" lon="-1.07309">
        <ele>96.3</ele>
      </trkpt>
      <trkpt lat="48.94069" lon="-1.07332">
        <ele>96</ele>
      </trkpt>
      <trkpt lat="48.94081" lon="-1.07348">
        <ele>95.8</ele>
      </trkpt>
      <trkpt lat="48.94092" lon="-1.07362">
        <ele>96</ele>
      </trkpt>
      <trkpt lat="48.94104" lon="-1.07378">
        <ele>96.3</ele>
      </trkpt>
      <trkpt lat="48.94122" lon="-1.07392">
        <ele>97.1</ele>
      </trkpt>
      <trkpt lat="48.94127" lon="-1.07398">
        <ele>97.1</ele>
      </trkpt>
      <trkpt lat="48.9413" lon="-1.07401">
        <ele>97.1</ele>
      </trkpt>
      <trkpt lat="48.9414" lon="-1.07414">
        <ele>96.7</ele>
      </trkpt>
      <trkpt lat="48.94148" lon="-1.07435">
        <ele>96.8</ele>
      </trkpt>
      <trkpt lat="48.94151" lon="-1.07441">
        <ele>96.8</ele>
      </trkpt>
      <trkpt lat="48.94155" lon="-1.07454">
        <ele>96.6</ele>
      </trkpt>
      <trkpt lat="48.94166" lon="-1.07478">
        <ele>96</ele>
      </trkpt>
      <trkpt lat="48.94174" lon="-1.07496">
        <ele>96.2</ele>
      </trkpt>
      <trkpt lat="48.94185" lon="-1.07514">
        <ele>97.7</ele>
      </trkpt>
      <trkpt lat="48.94197" lon="-1.07529">
        <ele>99.6</ele>
      </trkpt>
      <trkpt lat="48.94202" lon="-1.07541">
        <ele>100.4</ele>
      </trkpt>
      <trkpt lat="48.94208" lon="-1.07553">
        <ele>101.2</ele>
      </trkpt>
      <trkpt lat="48.94203" lon="-1.07561">
        <ele>100.6</ele>
      </trkpt>
      <trkpt lat="48.94199" lon="-1.0757">
        <ele>100.2</ele>
      </trkpt>
      <trkpt lat="48.94198" lon="-1.07578">
        <ele>100</ele>
      </trkpt>
      <trkpt lat="48.94197" lon="-1.07587">
        <ele>100.1</ele>
      </trkpt>
      <trkpt lat="48.94198" lon="-1.07599">
        <ele>100.8</ele>
      </trkpt>
      <trkpt lat="48.94201" lon="-1.07629">
        <ele>102.5</ele>
      </trkpt>
      <trkpt lat="48.94205" lon="-1.07654">
        <ele>103.9</ele>
      </trkpt>
      <trkpt lat="48.94205" lon="-1.07681">
        <ele>104.6</ele>
      </trkpt>
      <trkpt lat="48.94204" lon="-1.07698">
        <ele>104.6</ele>
      </trkpt>
      <trkpt lat="48.94203" lon="-1.07709">
        <ele>104.4</ele>
      </trkpt>
      <trkpt lat="48.94203" lon="-1.07743">
        <ele>104.7</ele>
      </trkpt>
      <trkpt lat="48.94205" lon="-1.07755">
        <ele>105</ele>
      </trkpt>
      <trkpt lat="48.94209" lon="-1.07771">
        <ele>105.7</ele>
      </trkpt>
      <trkpt lat="48.94216" lon="-1.07789">
        <ele>106.6</ele>
      </trkpt>
      <trkpt lat="48.94222" lon="-1.07811">
        <ele>107.3</ele>
      </trkpt>
      <trkpt lat="48.94226" lon="-1.07831">
        <ele>107.7</ele>
      </trkpt>
      <trkpt lat="48.94229" lon="-1.07855">
        <ele>108</ele>
      </trkpt>
      <trkpt lat="48.94232" lon="-1.0789">
        <ele>108.4</ele>
      </trkpt>
      <trkpt lat="48.94231" lon="-1.07913">
        <ele>108.4</ele>
      </trkpt>
      <trkpt lat="48.94219" lon="-1.08023">
        <ele>111.1</ele>
      </trkpt>
      <trkpt lat="48.94213" lon="-1.08071">
        <ele>111.1</ele>
      </trkpt>
      <trkpt lat="48.94201" lon="-1.08143">
        <ele>111.9</ele>
      </trkpt>
      <trkpt lat="48.94185" lon="-1.08215">
        <ele>111.8</ele>
      </trkpt>
      <trkpt lat="48.94171" lon="-1.08259">
        <ele>110.7</ele>
      </trkpt>
      <trkpt lat="48.94164" lon="-1.08274">
        <ele>110.9</ele>
      </trkpt>
      <trkpt lat="48.94147" lon="-1.08311">
        <ele>112.3</ele>
      </trkpt>
      <trkpt lat="48.94131" lon="-1.08364">
        <ele>112.8</ele>
      </trkpt>
      <trkpt lat="48.94122" lon="-1.0841">
        <ele>113.3</ele>
      </trkpt>
      <trkpt lat="48.94119" lon="-1.08428">
        <ele>113.6</ele>
      </trkpt>
      <trkpt lat="48.94112" lon="-1.08445">
        <ele>113.4</ele>
      </trkpt>
      <trkpt lat="48.94104" lon="-1.08472">
        <ele>113.8</ele>
      </trkpt>
      <trkpt lat="48.94097" lon="-1.08506">
        <ele>114.7</ele>
      </trkpt>
      <trkpt lat="48.94097" lon="-1.08508">
        <ele>114.8</ele>
      </trkpt>
      <trkpt lat="48.94094" lon="-1.08542">
        <ele>116.3</ele>
      </trkpt>
      <trkpt lat="48.94093" lon="-1.0857">
        <ele>117.8</ele>
      </trkpt>
      <trkpt lat="48.94088" lon="-1.08601">
        <ele>118.2</ele>
      </trkpt>
      <trkpt lat="48.94081" lon="-1.08634">
        <ele>118.3</ele>
      </trkpt>
      <trkpt lat="48.94077" lon="-1.08665">
        <ele>119.3</ele>
      </trkpt>
      <trkpt lat="48.94076" lon="-1.08702">
        <ele>119.7</ele>
      </trkpt>
      <trkpt lat="48.94074" lon="-1.08739">
        <ele>120.2</ele>
      </trkpt>
      <trkpt lat="48.94074" lon="-1.0878">
        <ele>121.7</ele>
      </trkpt>
      <trkpt lat="48.94075" lon="-1.08814">
        <ele>123.3</ele>
      </trkpt>
      <trkpt lat="48.94079" lon="-1.08871">
        <ele>124.1</ele>
      </trkpt>
      <trkpt lat="48.94078" lon="-1.08902">
        <ele>124.1</ele>
      </trkpt>
      <trkpt lat="48.94077" lon="-1.08919">
        <ele>124.2</ele>
      </trkpt>
      <trkpt lat="48.9407" lon="-1.08939">
        <ele>125.4</ele>
      </trkpt>
      <trkpt lat="48.94056" lon="-1.0898">
        <ele>126.9</ele>
      </trkpt>
      <trkpt lat="48.94045" lon="-1.09006">
        <ele>127.5</ele>
      </trkpt>
      <trkpt lat="48.94031" lon="-1.09032">
        <ele>128.8</ele>
      </trkpt>
      <trkpt lat="48.93996" lon="-1.09092">
        <ele>130.4</ele>
      </trkpt>
      <trkpt lat="48.93971" lon="-1.09128">
        <ele>135.1</ele>
      </trkpt>
      <trkpt lat="48.93956" lon="-1.09151">
        <ele>136</ele>
      </trkpt>
      <trkpt lat="48.93947" lon="-1.09162">
        <ele>135.8</ele>
      </trkpt>
      <trkpt lat="48.93915" lon="-1.0919">
        <ele>135.4</ele>
      </trkpt>
      <trkpt lat="48.93895" lon="-1.0921">
        <ele>135.3</ele>
      </trkpt>
      <trkpt lat="48.93885" lon="-1.09223">
        <ele>134.8</ele>
      </trkpt>
      <trkpt lat="48.93869" lon="-1.09246">
        <ele>132.9</ele>
      </trkpt>
      <trkpt lat="48.93862" lon="-1.0926">
        <ele>132.1</ele>
      </trkpt>
      <trkpt lat="48.93858" lon="-1.09272">
        <ele>131.9</ele>
      </trkpt>
      <trkpt lat="48.93854" lon="-1.09294">
        <ele>132</ele>
      </trkpt>
      <trkpt lat="48.9385" lon="-1.09354">
        <ele>133.9</ele>
      </trkpt>
      <trkpt lat="48.93849" lon="-1.0937">
        <ele>134.6</ele>
      </trkpt>
      <trkpt lat="48.93844" lon="-1.09385">
        <ele>135</ele>
      </trkpt>
      <trkpt lat="48.93842" lon="-1.09398">
        <ele>135.6</ele>
      </trkpt>
      <trkpt lat="48.93842" lon="-1.09412">
        <ele>136.3</ele>
      </trkpt>
      <trkpt lat="48.93845" lon="-1.09433">
        <ele>137.3</ele>
      </trkpt>
      <trkpt lat="48.93855" lon="-1.0947">
        <ele>139.3</ele>
      </trkpt>
      <trkpt lat="48.93861" lon="-1.09482">
        <ele>140.3</ele>
      </trkpt>
      <trkpt lat="48.93882" lon="-1.09511">
        <ele>143.7</ele>
      </trkpt>
      <trkpt lat="48.93887" lon="-1.09522">
        <ele>144.5</ele>
      </trkpt>
      <trkpt lat="48.93919" lon="-1.09612">
        <ele>148.2</ele>
      </trkpt>
      <trkpt lat="48.9393" lon="-1.0965">
        <ele>149.3</ele>
      </trkpt>
      <trkpt lat="48.93934" lon="-1.09671">
        <ele>149.8</ele>
      </trkpt>
      <trkpt lat="48.93938" lon="-1.09706">
        <ele>149.4</ele>
      </trkpt>
      <trkpt lat="48.93941" lon="-1.09736">
        <ele>149.2</ele>
      </trkpt>
      <trkpt lat="48.93947" lon="-1.0977">
        <ele>149.7</ele>
      </trkpt>
      <trkpt lat="48.93953" lon="-1.09797">
        <ele>150.4</ele>
      </trkpt>
      <trkpt lat="48.93965" lon="-1.09835">
        <ele>151.7</ele>
      </trkpt>
      <trkpt lat="48.93972" lon="-1.09862">
        <ele>152.5</ele>
      </trkpt>
      <trkpt lat="48.93987" lon="-1.09891">
        <ele>153.1</ele>
      </trkpt>
      <trkpt lat="48.94002" lon="-1.09922">
        <ele>153.1</ele>
      </trkpt>
      <trkpt lat="48.94007" lon="-1.09935">
        <ele>153.3</ele>
      </trkpt>
      <trkpt lat="48.94011" lon="-1.09945">
        <ele>153.5</ele>
      </trkpt>
      <trkpt lat="48.9402" lon="-1.09989">
        <ele>153.6</ele>
      </trkpt>
      <trkpt lat="48.94023" lon="-1.10018">
        <ele>153.9</ele>
      </trkpt>
      <trkpt lat="48.94022" lon="-1.10042">
        <ele>153.7</ele>
      </trkpt>
      <trkpt lat="48.94019" lon="-1.10089">
        <ele>153.4</ele>
      </trkpt>
      <trkpt lat="48.94009" lon="-1.10161">
        <ele>153.4</ele>
      </trkpt>
      <trkpt lat="48.94011" lon="-1.1021">
        <ele>154.2</ele>
      </trkpt>
      <trkpt lat="48.94012" lon="-1.10233">
        <ele>154.6</ele>
      </trkpt>
      <trkpt lat="48.94015" lon="-1.1026">
        <ele>155.4</ele>
      </trkpt>
      <trkpt lat="48.94019" lon="-1.10278">
        <ele>156</ele>
      </trkpt>
      <trkpt lat="48.94023" lon="-1.10295">
        <ele>156.7</ele>
      </trkpt>
      <trkpt lat="48.94043" lon="-1.10348">
        <ele>159</ele>
      </trkpt>
      <trkpt lat="48.94076" lon="-1.10439">
        <ele>160.7</ele>
      </trkpt>
      <trkpt lat="48.94087" lon="-1.10468">
        <ele>161.3</ele>
      </trkpt>
      <trkpt lat="48.94097" lon="-1.10511">
        <ele>162.5</ele>
      </trkpt>
      <trkpt lat="48.94101" lon="-1.10551">
        <ele>164.2</ele>
      </trkpt>
      <trkpt lat="48.94102" lon="-1.10588">
        <ele>165.6</ele>
      </trkpt>
      <trkpt lat="48.94107" lon="-1.10603">
        <ele>166.8</ele>
      </trkpt>
      <trkpt lat="48.94113" lon="-1.10598">
        <ele>167</ele>
      </trkpt>
      <trkpt lat="48.94124" lon="-1.1059">
        <ele>167.2</ele>
      </trkpt>
      <trkpt lat="48.94137" lon="-1.10579">
        <ele>167.7</ele>
      </trkpt>
      <trkpt lat="48.94158" lon="-1.10564">
        <ele>168.9</ele>
      </trkpt>
      <trkpt lat="48.94208" lon="-1.10532">
        <ele>172.9</ele>
      </trkpt>
      <trkpt lat="48.94249" lon="-1.10506">
        <ele>176.9</ele>
      </trkpt>
      <trkpt lat="48.94269" lon="-1.10492">
        <ele>177.8</ele>
      </trkpt>
      <trkpt lat="48.94275" lon="-1.10489">
        <ele>178.1</ele>
      </trkpt>
      <trkpt lat="48.94279" lon="-1.10484">
        <ele>178.3</ele>
      </trkpt>
      <trkpt lat="48.94277" lon="-1.10497">
        <ele>178</ele>
      </trkpt>
      <trkpt lat="48.94281" lon="-1.10539">
        <ele>178.3</ele>
      </trkpt>
      <trkpt lat="48.94284" lon="-1.10612">
        <ele>179.2</ele>
      </trkpt>
      <trkpt lat="48.94288" lon="-1.10662">
        <ele>180.3</ele>
      </trkpt>
      <trkpt lat="48.9429" lon="-1.1068">
        <ele>180.4</ele>
      </trkpt>
      <trkpt lat="48.9429" lon="-1.10694">
        <ele>180.5</ele>
      </trkpt>
      <trkpt lat="48.94292" lon="-1.10703">
        <ele>180.5</ele>
      </trkpt>
      <trkpt lat="48.94296" lon="-1.10714">
        <ele>180.6</ele>
      </trkpt>
      <trkpt lat="48.94306" lon="-1.10737">
        <ele>180.7</ele>
      </trkpt>
      <trkpt lat="48.94316" lon="-1.10752">
        <ele>180.8</ele>
      </trkpt>
      <trkpt lat="48.94313" lon="-1.10788">
        <ele>181.4</ele>
      </trkpt>
      <trkpt lat="48.94311" lon="-1.10815">
        <ele>181.9</ele>
      </trkpt>
      <trkpt lat="48.94308" lon="-1.10842">
        <ele>182.3</ele>
      </trkpt>
      <trkpt lat="48.94302" lon="-1.10871">
        <ele>182.9</ele>
      </trkpt>
      <trkpt lat="48.9431" lon="-1.10874">
        <ele>183.3</ele>
      </trkpt>
      <trkpt lat="48.94318" lon="-1.10877">
        <ele>183.8</ele>
      </trkpt>
      <trkpt lat="48.94335" lon="-1.1089">
        <ele>185.1</ele>
      </trkpt>
      <trkpt lat="48.94336" lon="-1.1089">
        <ele>185.1</ele>
      </trkpt>
      <trkpt lat="48.94358" lon="-1.10909">
        <ele>186.5</ele>
      </trkpt>
      <trkpt lat="48.9438" lon="-1.10929">
        <ele>188.4</ele>
      </trkpt>
      <trkpt lat="48.9439" lon="-1.10942">
        <ele>189.6</ele>
      </trkpt>
      <trkpt lat="48.94393" lon="-1.10946">
        <ele>190.1</ele>
      </trkpt>
      <trkpt lat="48.94395" lon="-1.10952">
        <ele>190.5</ele>
      </trkpt>
      <trkpt lat="48.94395" lon="-1.10959">
        <ele>191</ele>
      </trkpt>
      <trkpt lat="48.94395" lon="-1.10963">
        <ele>191.3</ele>
      </trkpt>
      <trkpt lat="48.94394" lon="-1.10972">
        <ele>191.8</ele>
      </trkpt>
      <trkpt lat="48.94393" lon="-1.10977">
        <ele>192.1</ele>
      </trkpt>
      <trkpt lat="48.94394" lon="-1.10984">
        <ele>192.6</ele>
      </trkpt>
      <trkpt lat="48.94397" lon="-1.10993">
        <ele>193.3</ele>
      </trkpt>
      <trkpt lat="48.94407" lon="-1.11025">
        <ele>196.9</ele>
      </trkpt>
      <trkpt lat="48.94409" lon="-1.11037">
        <ele>198.3</ele>
      </trkpt>
      <trkpt lat="48.94409" lon="-1.11044">
        <ele>199.1</ele>
      </trkpt>
      <trkpt lat="48.9441" lon="-1.1105">
        <ele>199.8</ele>
      </trkpt>
      <trkpt lat="48.9441" lon="-1.11057">
        <ele>200.5</ele>
      </trkpt>
      <trkpt lat="48.9441" lon="-1.11069">
        <ele>201.7</ele>
      </trkpt>
      <trkpt lat="48.9441" lon="-1.11081">
        <ele>203</ele>
      </trkpt>
      <trkpt lat="48.9441" lon="-1.11093">
        <ele>204.1</ele>
      </trkpt>
      <trkpt lat="48.9441" lon="-1.11113">
        <ele>205.8</ele>
      </trkpt>
      <trkpt lat="48.94411" lon="-1.11134">
        <ele>207.5</ele>
      </trkpt>
      <trkpt lat="48.9441" lon="-1.11167">
        <ele>210.1</ele>
      </trkpt>
      <trkpt lat="48.9441" lon="-1.11181">
        <ele>210.9</ele>
      </trkpt>
      <trkpt lat="48.9441" lon="-1.11191">
        <ele>211.5</ele>
      </trkpt>
      <trkpt lat="48.94411" lon="-1.11203">
        <ele>212.3</ele>
      </trkpt>
      <trkpt lat="48.94413" lon="-1.1122">
        <ele>213.6</ele>
      </trkpt>
      <trkpt lat="48.94416" lon="-1.11255">
        <ele>216.1</ele>
      </trkpt>
      <trkpt lat="48.94418" lon="-1.11283">
        <ele>217.7</ele>
      </trkpt>
      <trkpt lat="48.94421" lon="-1.11311">
        <ele>219.3</ele>
      </trkpt>
      <trkpt lat="48.94425" lon="-1.11339">
        <ele>220.7</ele>
      </trkpt>
      <trkpt lat="48.9443" lon="-1.11376">
        <ele>221.1</ele>
      </trkpt>
      <trkpt lat="48.94435" lon="-1.11415">
        <ele>221.6</ele>
      </trkpt>
      <trkpt lat="48.94438" lon="-1.11432">
        <ele>221.9</ele>
      </trkpt>
      <trkpt lat="48.9444" lon="-1.11442">
        <ele>222.2</ele>
      </trkpt>
      <trkpt lat="48.94443" lon="-1.11448">
        <ele>222.6</ele>
      </trkpt>
      <trkpt lat="48.94448" lon="-1.11455">
        <ele>223.2</ele>
      </trkpt>
      <trkpt lat="48.94459" lon="-1.11467">
        <ele>224.5</ele>
      </trkpt>
      <trkpt lat="48.94487" lon="-1.11498">
        <ele>228.4</ele>
      </trkpt>
      <trkpt lat="48.94518" lon="-1.11528">
        <ele>231.7</ele>
      </trkpt>
      <trkpt lat="48.94526" lon="-1.11537">
        <ele>232.2</ele>
      </trkpt>
      <trkpt lat="48.94514" lon="-1.11558">
        <ele>232.4</ele>
      </trkpt>
      <trkpt lat="48.94505" lon="-1.11571">
        <ele>232.6</ele>
      </trkpt>
      <trkpt lat="48.94494" lon="-1.11589">
        <ele>232.7</ele>
      </trkpt>
      <trkpt lat="48.94481" lon="-1.11612">
        <ele>233</ele>
      </trkpt>
      <trkpt lat="48.94462" lon="-1.11646">
        <ele>234.4</ele>
      </trkpt>
      <trkpt lat="48.94455" lon="-1.11657">
        <ele>235.2</ele>
      </trkpt>
      <trkpt lat="48.94455" lon="-1.11668">
        <ele>236.1</ele>
      </trkpt>
      <trkpt lat="48.94452" lon="-1.11671">
        <ele>236.3</ele>
      </trkpt>
      <trkpt lat="48.94424" lon="-1.11719">
        <ele>240.2</ele>
      </trkpt>
      <trkpt lat="48.94395" lon="-1.11767">
        <ele>244.2</ele>
      </trkpt>
      <trkpt lat="48.94371" lon="-1.1181">
        <ele>247.8</ele>
      </trkpt>
      <trkpt lat="48.94338" lon="-1.11875">
        <ele>252.5</ele>
      </trkpt>
      <trkpt lat="48.94309" lon="-1.11934">
        <ele>253.6</ele>
      </trkpt>
      <trkpt lat="48.94286" lon="-1.11983">
        <ele>253.9</ele>
      </trkpt>
      <trkpt lat="48.94276" lon="-1.12007">
        <ele>254.1</ele>
      </trkpt>
      <trkpt lat="48.94271" lon="-1.12019">
        <ele>254.2</ele>
      </trkpt>
      <trkpt lat="48.9426" lon="-1.12049">
        <ele>254.1</ele>
      </trkpt>
      <trkpt lat="48.94247" lon="-1.12085">
        <ele>253.6</ele>
      </trkpt>
      <trkpt lat="48.94241" lon="-1.121">
        <ele>253</ele>
      </trkpt>
      <trkpt lat="48.94239" lon="-1.12111">
        <ele>252.9</ele>
      </trkpt>
      <trkpt lat="48.94237" lon="-1.12124">
        <ele>253</ele>
      </trkpt>
      <trkpt lat="48.94235" lon="-1.12146">
        <ele>253.2</ele>
      </trkpt>
      <trkpt lat="48.94231" lon="-1.12192">
        <ele>254.1</ele>
      </trkpt>
      <trkpt lat="48.94227" lon="-1.12253">
        <ele>255.7</ele>
      </trkpt>
      <trkpt lat="48.94221" lon="-1.12309">
        <ele>255.4</ele>
      </trkpt>
      <trkpt lat="48.94215" lon="-1.12364">
        <ele>255.8</ele>
      </trkpt>
      <trkpt lat="48.94208" lon="-1.12435">
        <ele>257.1</ele>
      </trkpt>
      <trkpt lat="48.94205" lon="-1.12464">
        <ele>256.8</ele>
      </trkpt>
      <trkpt lat="48.94202" lon="-1.12485">
        <ele>256.7</ele>
      </trkpt>
      <trkpt lat="48.94201" lon="-1.12505">
        <ele>256.7</ele>
      </trkpt>
      <trkpt lat="48.94201" lon="-1.12517">
        <ele>256.7</ele>
      </trkpt>
      <trkpt lat="48.94201" lon="-1.1254">
        <ele>256.7</ele>
      </trkpt>
      <trkpt lat="48.94203" lon="-1.1256">
        <ele>256.8</ele>
      </trkpt>
      <trkpt lat="48.94204" lon="-1.12584">
        <ele>256.9</ele>
      </trkpt>
      <trkpt lat="48.94208" lon="-1.12635">
        <ele>256.2</ele>
      </trkpt>
      <trkpt lat="48.94214" lon="-1.12717">
        <ele>254.5</ele>
      </trkpt>
      <trkpt lat="48.94219" lon="-1.12766">
        <ele>253.5</ele>
      </trkpt>
      <trkpt lat="48.94221" lon="-1.128">
        <ele>252.8</ele>
      </trkpt>
      <trkpt lat="48.94225" lon="-1.12841">
        <ele>252.1</ele>
      </trkpt>
      <trkpt lat="48.9423" lon="-1.12897">
        <ele>251.9</ele>
      </trkpt>
      <trkpt lat="48.94233" lon="-1.12932">
        <ele>251.7</ele>
      </trkpt>
      <trkpt lat="48.94235" lon="-1.12958">
        <ele>251.5</ele>
      </trkpt>
      <trkpt lat="48.94236" lon="-1.13013">
        <ele>250.3</ele>
      </trkpt>
      <trkpt lat="48.94239" lon="-1.13083">
        <ele>247</ele>
      </trkpt>
      <trkpt lat="48.94239" lon="-1.13121">
        <ele>244.9</ele>
      </trkpt>
      <trkpt lat="48.94238" lon="-1.13168">
        <ele>242.3</ele>
      </trkpt>
      <trkpt lat="48.94237" lon="-1.13226">
        <ele>239.6</ele>
      </trkpt>
      <trkpt lat="48.94232" lon="-1.13356">
        <ele>235.4</ele>
      </trkpt>
      <trkpt lat="48.94229" lon="-1.13394">
        <ele>234</ele>
      </trkpt>
      <trkpt lat="48.94235" lon="-1.13398">
        <ele>234.1</ele>
      </trkpt>
      <trkpt lat="48.9424" lon="-1.13404">
        <ele>234.1</ele>
      </trkpt>
      <trkpt lat="48.94245" lon="-1.13411">
        <ele>234</ele>
      </trkpt>
      <trkpt lat="48.94249" lon="-1.13418">
        <ele>233.9</ele>
      </trkpt>
      <trkpt lat="48.94254" lon="-1.13433">
        <ele>233.5</ele>
      </trkpt>
      <trkpt lat="48.94259" lon="-1.13449">
        <ele>232.9</ele>
      </trkpt>
      <trkpt lat="48.94258" lon="-1.1348">
        <ele>232.6</ele>
      </trkpt>
      <trkpt lat="48.94257" lon="-1.1351">
        <ele>232.5</ele>
      </trkpt>
      <trkpt lat="48.94257" lon="-1.13524">
        <ele>232.7</ele>
      </trkpt>
      <trkpt lat="48.94257" lon="-1.13539">
        <ele>232.8</ele>
      </trkpt>
      <trkpt lat="48.94256" lon="-1.1355">
        <ele>233</ele>
      </trkpt>
      <trkpt lat="48.94256" lon="-1.13561">
        <ele>233.2</ele>
      </trkpt>
      <trkpt lat="48.94254" lon="-1.13572">
        <ele>233.4</ele>
      </trkpt>
      <trkpt lat="48.94252" lon="-1.13586">
        <ele>233.7</ele>
      </trkpt>
      <trkpt lat="48.9425" lon="-1.13603">
        <ele>234</ele>
      </trkpt>
      <trkpt lat="48.9424" lon="-1.13657">
        <ele>233.7</ele>
      </trkpt>
      <trkpt lat="48.94232" lon="-1.13698">
        <ele>233.4</ele>
      </trkpt>
      <trkpt lat="48.94226" lon="-1.13736">
        <ele>233.1</ele>
      </trkpt>
      <trkpt lat="48.94219" lon="-1.13773">
        <ele>233.5</ele>
      </trkpt>
      <trkpt lat="48.94219" lon="-1.13775">
        <ele>233.5</ele>
      </trkpt>
      <trkpt lat="48.94209" lon="-1.13819">
        <ele>234.6</ele>
      </trkpt>
      <trkpt lat="48.94202" lon="-1.13849">
        <ele>235.3</ele>
      </trkpt>
      <trkpt lat="48.94198" lon="-1.1386">
        <ele>235.6</ele>
      </trkpt>
      <trkpt lat="48.94189" lon="-1.13894">
        <ele>236.7</ele>
      </trkpt>
      <trkpt lat="48.94181" lon="-1.13923">
        <ele>237.8</ele>
      </trkpt>
      <trkpt lat="48.94173" lon="-1.13953">
        <ele>238.8</ele>
      </trkpt>
      <trkpt lat="48.94158" lon="-1.1399">
        <ele>239.4</ele>
      </trkpt>
      <trkpt lat="48.94143" lon="-1.1403">
        <ele>237.9</ele>
      </trkpt>
      <trkpt lat="48.94131" lon="-1.14058">
        <ele>237.2</ele>
      </trkpt>
      <trkpt lat="48.94115" lon="-1.14086">
        <ele>237.4</ele>
      </trkpt>
      <trkpt lat="48.94096" lon="-1.14123">
        <ele>238.6</ele>
      </trkpt>
      <trkpt lat="48.94068" lon="-1.14175">
        <ele>240.4</ele>
      </trkpt>
      <trkpt lat="48.94042" lon="-1.1422">
        <ele>242.6</ele>
      </trkpt>
      <trkpt lat="48.94016" lon="-1.14261">
        <ele>246</ele>
      </trkpt>
      <trkpt lat="48.93997" lon="-1.14291">
        <ele>247</ele>
      </trkpt>
      <trkpt lat="48.93987" lon="-1.14309">
        <ele>246.7</ele>
      </trkpt>
      <trkpt lat="48.93982" lon="-1.14319">
        <ele>246.6</ele>
      </trkpt>
      <trkpt lat="48.93978" lon="-1.14326">
        <ele>246.6</ele>
      </trkpt>
      <trkpt lat="48.93975" lon="-1.14337">
        <ele>246.5</ele>
      </trkpt>
      <trkpt lat="48.93971" lon="-1.14353">
        <ele>246.2</ele>
      </trkpt>
      <trkpt lat="48.93968" lon="-1.14366">
        <ele>245.9</ele>
      </trkpt>
      <trkpt lat="48.93963" lon="-1.14383">
        <ele>245.6</ele>
      </trkpt>
      <trkpt lat="48.93951" lon="-1.14422">
        <ele>245.2</ele>
      </trkpt>
      <trkpt lat="48.93934" lon="-1.14474">
        <ele>244.4</ele>
      </trkpt>
      <trkpt lat="48.93917" lon="-1.14532">
        <ele>242.3</ele>
      </trkpt>
      <trkpt lat="48.93907" lon="-1.14561">
        <ele>240.2</ele>
      </trkpt>
      <trkpt lat="48.93897" lon="-1.14586">
        <ele>238.5</ele>
      </trkpt>
      <trkpt lat="48.93891" lon="-1.14601">
        <ele>237.7</ele>
      </trkpt>
      <trkpt lat="48.93886" lon="-1.14615">
        <ele>236.8</ele>
      </trkpt>
      <trkpt lat="48.93882" lon="-1.14629">
        <ele>236</ele>
      </trkpt>
      <trkpt lat="48.93877" lon="-1.14646">
        <ele>234.9</ele>
      </trkpt>
      <trkpt lat="48.93875" lon="-1.14662">
        <ele>233.9</ele>
      </trkpt>
      <trkpt lat="48.93872" lon="-1.14679">
        <ele>232.9</ele>
      </trkpt>
      <trkpt lat="48.93869" lon="-1.14698">
        <ele>232</ele>
      </trkpt>
      <trkpt lat="48.93867" lon="-1.14722">
        <ele>230.9</ele>
      </trkpt>
      <trkpt lat="48.93864" lon="-1.14744">
        <ele>230</ele>
      </trkpt>
      <trkpt lat="48.93862" lon="-1.14761">
        <ele>229.7</ele>
      </trkpt>
      <trkpt lat="48.93863" lon="-1.14777">
        <ele>229.3</ele>
      </trkpt>
      <trkpt lat="48.93855" lon="-1.14779">
        <ele>230.3</ele>
      </trkpt>
      <trkpt lat="48.9385" lon="-1.1478">
        <ele>230.7</ele>
      </trkpt>
      <trkpt lat="48.93841" lon="-1.14803">
        <ele>231.5</ele>
      </trkpt>
      <trkpt lat="48.93823" lon="-1.14835">
        <ele>232</ele>
      </trkpt>
      <trkpt lat="48.93795" lon="-1.1488">
        <ele>232.8</ele>
      </trkpt>
      <trkpt lat="48.93788" lon="-1.14892">
        <ele>233.1</ele>
      </trkpt>
      <trkpt lat="48.93777" lon="-1.14915">
        <ele>233.6</ele>
      </trkpt>
      <trkpt lat="48.93767" lon="-1.14939">
        <ele>235</ele>
      </trkpt>
      <trkpt lat="48.93753" lon="-1.14976">
        <ele>238</ele>
      </trkpt>
      <trkpt lat="48.93735" lon="-1.15022">
        <ele>239.8</ele>
      </trkpt>
      <trkpt lat="48.93718" lon="-1.15059">
        <ele>240.7</ele>
      </trkpt>
      <trkpt lat="48.93701" lon="-1.15094">
        <ele>241.5</ele>
      </trkpt>
      <trkpt lat="48.93695" lon="-1.15106">
        <ele>241.7</ele>
      </trkpt>
      <trkpt lat="48.93675" lon="-1.15144">
        <ele>242.9</ele>
      </trkpt>
      <trkpt lat="48.93659" lon="-1.15173">
        <ele>244.3</ele>
      </trkpt>
      <trkpt lat="48.93642" lon="-1.15199">
        <ele>246.1</ele>
      </trkpt>
      <trkpt lat="48.93622" lon="-1.15227">
        <ele>248.9</ele>
      </trkpt>
      <trkpt lat="48.93611" lon="-1.15244">
        <ele>250.8</ele>
      </trkpt>
      <trkpt lat="48.93601" lon="-1.15259">
        <ele>252.2</ele>
      </trkpt>
      <trkpt lat="48.93592" lon="-1.15277">
        <ele>253.4</ele>
      </trkpt>
      <trkpt lat="48.93583" lon="-1.15298">
        <ele>254.7</ele>
      </trkpt>
      <trkpt lat="48.93572" lon="-1.1532">
        <ele>255.7</ele>
      </trkpt>
      <trkpt lat="48.93559" lon="-1.15342">
        <ele>256.4</ele>
      </trkpt>
      <trkpt lat="48.93544" lon="-1.15366">
        <ele>256.9</ele>
      </trkpt>
      <trkpt lat="48.93518" lon="-1.15401">
        <ele>258.9</ele>
      </trkpt>
      <trkpt lat="48.93485" lon="-1.15446">
        <ele>261.7</ele>
      </trkpt>
      <trkpt lat="48.93445" lon="-1.15502">
        <ele>265.6</ele>
      </trkpt>
      <trkpt lat="48.93407" lon="-1.15554">
        <ele>268.6</ele>
      </trkpt>
      <trkpt lat="48.93386" lon="-1.15581">
        <ele>269.3</ele>
      </trkpt>
      <trkpt lat="48.93352" lon="-1.15621">
        <ele>268.1</ele>
      </trkpt>
      <trkpt lat="48.93324" lon="-1.15656">
        <ele>268</ele>
      </trkpt>
      <trkpt lat="48.93309" lon="-1.15673">
        <ele>267.1</ele>
      </trkpt>
      <trkpt lat="48.93298" lon="-1.15688">
        <ele>266.2</ele>
      </trkpt>
      <trkpt lat="48.93287" lon="-1.15707">
        <ele>265.3</ele>
      </trkpt>
      <trkpt lat="48.93276" lon="-1.15726">
        <ele>264.5</ele>
      </trkpt>
      <trkpt lat="48.93275" lon="-1.1573">
        <ele>264.4</ele>
      </trkpt>
      <trkpt lat="48.9326" lon="-1.1576">
        <ele>263.7</ele>
      </trkpt>
      <trkpt lat="48.93244" lon="-1.15791">
        <ele>263.6</ele>
      </trkpt>
      <trkpt lat="48.9323" lon="-1.15819">
        <ele>263.6</ele>
      </trkpt>
      <trkpt lat="48.93218" lon="-1.1584">
        <ele>263.6</ele>
      </trkpt>
      <trkpt lat="48.93202" lon="-1.15864">
        <ele>263.5</ele>
      </trkpt>
      <trkpt lat="48.93193" lon="-1.15878">
        <ele>263.7</ele>
      </trkpt>
      <trkpt lat="48.93185" lon="-1.15886">
        <ele>264</ele>
      </trkpt>
      <trkpt lat="48.93179" lon="-1.15893">
        <ele>264.3</ele>
      </trkpt>
      <trkpt lat="48.93174" lon="-1.15907">
        <ele>264.5</ele>
      </trkpt>
      <trkpt lat="48.93166" lon="-1.15929">
        <ele>264.9</ele>
      </trkpt>
      <trkpt lat="48.93159" lon="-1.15948">
        <ele>264.9</ele>
      </trkpt>
      <trkpt lat="48.93154" lon="-1.15959">
        <ele>265</ele>
      </trkpt>
      <trkpt lat="48.93154" lon="-1.15973">
        <ele>264.9</ele>
      </trkpt>
      <trkpt lat="48.93154" lon="-1.1598">
        <ele>264.9</ele>
      </trkpt>
      <trkpt lat="48.93153" lon="-1.15989">
        <ele>264.9</ele>
      </trkpt>
      <trkpt lat="48.93151" lon="-1.15999">
        <ele>264.9</ele>
      </trkpt>
      <trkpt lat="48.93145" lon="-1.16031">
        <ele>265.6</ele>
      </trkpt>
      <trkpt lat="48.9314" lon="-1.16053">
        <ele>266</ele>
      </trkpt>
      <trkpt lat="48.93138" lon="-1.16068">
        <ele>266.3</ele>
      </trkpt>
      <trkpt lat="48.93135" lon="-1.16087">
        <ele>266.4</ele>
      </trkpt>
      <trkpt lat="48.93131" lon="-1.16109">
        <ele>265.6</ele>
      </trkpt>
      <trkpt lat="48.93129" lon="-1.16128">
        <ele>264.9</ele>
      </trkpt>
      <trkpt lat="48.93127" lon="-1.16141">
        <ele>264.5</ele>
      </trkpt>
      <trkpt lat="48.93126" lon="-1.16149">
        <ele>264.1</ele>
      </trkpt>
      <trkpt lat="48.93126" lon="-1.16164">
        <ele>263.5</ele>
      </trkpt>
      <trkpt lat="48.93126" lon="-1.16213">
        <ele>261.5</ele>
      </trkpt>
      <trkpt lat="48.93126" lon="-1.16231">
        <ele>260.8</ele>
      </trkpt>
      <trkpt lat="48.93126" lon="-1.16245">
        <ele>260.2</ele>
      </trkpt>
      <trkpt lat="48.93128" lon="-1.16259">
        <ele>259.1</ele>
      </trkpt>
      <trkpt lat="48.9313" lon="-1.16277">
        <ele>257.5</ele>
      </trkpt>
      <trkpt lat="48.93133" lon="-1.16299">
        <ele>255.6</ele>
      </trkpt>
      <trkpt lat="48.93134" lon="-1.16322">
        <ele>253.7</ele>
      </trkpt>
      <trkpt lat="48.93134" lon="-1.16353">
        <ele>251.3</ele>
      </trkpt>
      <trkpt lat="48.93135" lon="-1.16394">
        <ele>248.5</ele>
      </trkpt>
      <trkpt lat="48.93135" lon="-1.16442">
        <ele>245</ele>
      </trkpt>
      <trkpt lat="48.93136" lon="-1.16462">
        <ele>243.4</ele>
      </trkpt>
      <trkpt lat="48.93137" lon="-1.16484">
        <ele>241.6</ele>
      </trkpt>
      <trkpt lat="48.93138" lon="-1.16501">
        <ele>240.3</ele>
      </trkpt>
      <trkpt lat="48.9314" lon="-1.16511">
        <ele>239.3</ele>
      </trkpt>
      <trkpt lat="48.93146" lon="-1.16537">
        <ele>236.8</ele>
      </trkpt>
      <trkpt lat="48.93156" lon="-1.16584">
        <ele>232.4</ele>
      </trkpt>
      <trkpt lat="48.93164" lon="-1.16624">
        <ele>229.2</ele>
      </trkpt>
      <trkpt lat="48.93169" lon="-1.16669">
        <ele>225.7</ele>
      </trkpt>
      <trkpt lat="48.9317" lon="-1.16678">
        <ele>225.2</ele>
      </trkpt>
      <trkpt lat="48.93179" lon="-1.16732">
        <ele>221.9</ele>
      </trkpt>
      <trkpt lat="48.93184" lon="-1.16765">
        <ele>220</ele>
      </trkpt>
      <trkpt lat="48.9319" lon="-1.168">
        <ele>217.8</ele>
      </trkpt>
      <trkpt lat="48.93194" lon="-1.16831">
        <ele>215.8</ele>
      </trkpt>
      <trkpt lat="48.93197" lon="-1.16857">
        <ele>214.5</ele>
      </trkpt>
      <trkpt lat="48.93199" lon="-1.16878">
        <ele>213.5</ele>
      </trkpt>
      <trkpt lat="48.932" lon="-1.16891">
        <ele>213</ele>
      </trkpt>
      <trkpt lat="48.93201" lon="-1.16908">
        <ele>212.3</ele>
      </trkpt>
      <trkpt lat="48.93191" lon="-1.16928">
        <ele>212.2</ele>
      </trkpt>
      <trkpt lat="48.93185" lon="-1.16942">
        <ele>212.1</ele>
      </trkpt>
      <trkpt lat="48.93179" lon="-1.16954">
        <ele>212</ele>
      </trkpt>
      <trkpt lat="48.93191" lon="-1.16961">
        <ele>211.3</ele>
      </trkpt>
      <trkpt lat="48.932" lon="-1.16965">
        <ele>210.7</ele>
      </trkpt>
      <trkpt lat="48.93206" lon="-1.16969">
        <ele>210.3</ele>
      </trkpt>
      <trkpt lat="48.93212" lon="-1.16975">
        <ele>209.9</ele>
      </trkpt>
      <trkpt lat="48.93221" lon="-1.16984">
        <ele>209.4</ele>
      </trkpt>
      <trkpt lat="48.9323" lon="-1.16993">
        <ele>208.9</ele>
      </trkpt>
      <trkpt lat="48.9324" lon="-1.16999">
        <ele>208.4</ele>
      </trkpt>
      <trkpt lat="48.93257" lon="-1.17008">
        <ele>207.3</ele>
      </trkpt>
      <trkpt lat="48.93275" lon="-1.17015">
        <ele>205.6</ele>
      </trkpt>
      <trkpt lat="48.93286" lon="-1.1702">
        <ele>204.5</ele>
      </trkpt>
      <trkpt lat="48.93297" lon="-1.17027">
        <ele>203.4</ele>
      </trkpt>
      <trkpt lat="48.93303" lon="-1.17033">
        <ele>202.8</ele>
      </trkpt>
      <trkpt lat="48.93307" lon="-1.17039">
        <ele>202.3</ele>
      </trkpt>
      <trkpt lat="48.9331" lon="-1.17047">
        <ele>201.8</ele>
      </trkpt>
      <trkpt lat="48.93314" lon="-1.17061">
        <ele>201.2</ele>
      </trkpt>
      <trkpt lat="48.93317" lon="-1.17076">
        <ele>200.6</ele>
      </trkpt>
      <trkpt lat="48.93321" lon="-1.17093">
        <ele>200</ele>
      </trkpt>
      <trkpt lat="48.93338" lon="-1.17146">
        <ele>198.6</ele>
      </trkpt>
      <trkpt lat="48.93348" lon="-1.17173">
        <ele>197.6</ele>
      </trkpt>
      <trkpt lat="48.93352" lon="-1.17181">
        <ele>197.1</ele>
      </trkpt>
      <trkpt lat="48.93354" lon="-1.17184">
        <ele>196.9</ele>
      </trkpt>
      <trkpt lat="48.93397" lon="-1.17283">
        <ele>192.1</ele>
      </trkpt>
      <trkpt lat="48.93399" lon="-1.17287">
        <ele>191.9</ele>
      </trkpt>
      <trkpt lat="48.93409" lon="-1.17311">
        <ele>190.9</ele>
      </trkpt>
      <trkpt lat="48.93417" lon="-1.17336">
        <ele>190</ele>
      </trkpt>
      <trkpt lat="48.93428" lon="-1.17375">
        <ele>188.7</ele>
      </trkpt>
      <trkpt lat="48.93438" lon="-1.17404">
        <ele>188</ele>
      </trkpt>
      <trkpt lat="48.93464" lon="-1.17465">
        <ele>187.8</ele>
      </trkpt>
      <trkpt lat="48.93465" lon="-1.17472">
        <ele>187.8</ele>
      </trkpt>
      <trkpt lat="48.9344" lon="-1.17505">
        <ele>188</ele>
      </trkpt>
      <trkpt lat="48.93433" lon="-1.1751">
        <ele>188</ele>
      </trkpt>
      <trkpt lat="48.93418" lon="-1.17513">
        <ele>188</ele>
      </trkpt>
      <trkpt lat="48.93405" lon="-1.17517">
        <ele>188.6</ele>
      </trkpt>
      <trkpt lat="48.93361" lon="-1.17564">
        <ele>190.3</ele>
      </trkpt>
      <trkpt lat="48.93326" lon="-1.17598">
        <ele>191</ele>
      </trkpt>
      <trkpt lat="48.93312" lon="-1.17608">
        <ele>191.1</ele>
      </trkpt>
      <trkpt lat="48.9327" lon="-1.17634">
        <ele>191</ele>
      </trkpt>
      <trkpt lat="48.9328" lon="-1.17656">
        <ele>190.3</ele>
      </trkpt>
      <trkpt lat="48.93286" lon="-1.17668">
        <ele>190</ele>
      </trkpt>
      <trkpt lat="48.93294" lon="-1.17675">
        <ele>189.8</ele>
      </trkpt>
      <trkpt lat="48.93304" lon="-1.17685">
        <ele>189.6</ele>
      </trkpt>
      <trkpt lat="48.93308" lon="-1.17692">
        <ele>189.5</ele>
      </trkpt>
      <trkpt lat="48.93307" lon="-1.17707">
        <ele>189.2</ele>
      </trkpt>
      <trkpt lat="48.93307" lon="-1.17718">
        <ele>189</ele>
      </trkpt>
      <trkpt lat="48.93311" lon="-1.17726">
        <ele>188.9</ele>
      </trkpt>
      <trkpt lat="48.93313" lon="-1.17735">
        <ele>188.8</ele>
      </trkpt>
      <trkpt lat="48.93317" lon="-1.1775">
        <ele>188.6</ele>
      </trkpt>
      <trkpt lat="48.93337" lon="-1.17782">
        <ele>188.6</ele>
      </trkpt>
      <trkpt lat="48.93344" lon="-1.17794">
        <ele>188.3</ele>
      </trkpt>
      <trkpt lat="48.93352" lon="-1.1781">
        <ele>188.1</ele>
      </trkpt>
      <trkpt lat="48.93361" lon="-1.1783">
        <ele>187.7</ele>
      </trkpt>
      <trkpt lat="48.93372" lon="-1.17855">
        <ele>187.3</ele>
      </trkpt>
      <trkpt lat="48.93389" lon="-1.179">
        <ele>186.8</ele>
      </trkpt>
      <trkpt lat="48.93405" lon="-1.17943">
        <ele>186.6</ele>
      </trkpt>
      <trkpt lat="48.93421" lon="-1.17981">
        <ele>186.2</ele>
      </trkpt>
      <trkpt lat="48.93434" lon="-1.18015">
        <ele>185.5</ele>
      </trkpt>
      <trkpt lat="48.93435" lon="-1.18016">
        <ele>185.5</ele>
      </trkpt>
      <trkpt lat="48.93456" lon="-1.18063">
        <ele>184.4</ele>
      </trkpt>
      <trkpt lat="48.93471" lon="-1.18099">
        <ele>183.7</ele>
      </trkpt>
      <trkpt lat="48.93479" lon="-1.18121">
        <ele>183.2</ele>
      </trkpt>
      <trkpt lat="48.93485" lon="-1.18143">
        <ele>182.7</ele>
      </trkpt>
      <trkpt lat="48.93491" lon="-1.18163">
        <ele>182.2</ele>
      </trkpt>
      <trkpt lat="48.93495" lon="-1.18182">
        <ele>181.7</ele>
      </trkpt>
      <trkpt lat="48.935" lon="-1.182">
        <ele>181.2</ele>
      </trkpt>
      <trkpt lat="48.93504" lon="-1.18214">
        <ele>180.9</ele>
      </trkpt>
      <trkpt lat="48.9351" lon="-1.18228">
        <ele>180.6</ele>
      </trkpt>
      <trkpt lat="48.93515" lon="-1.18241">
        <ele>180.4</ele>
      </trkpt>
      <trkpt lat="48.93534" lon="-1.18277">
        <ele>179.9</ele>
      </trkpt>
      <trkpt lat="48.9355" lon="-1.18303">
        <ele>179.6</ele>
      </trkpt>
      <trkpt lat="48.93568" lon="-1.18329">
        <ele>179.1</ele>
      </trkpt>
      <trkpt lat="48.93573" lon="-1.18338">
        <ele>178.9</ele>
      </trkpt>
      <trkpt lat="48.93576" lon="-1.18343">
        <ele>178.9</ele>
      </trkpt>
      <trkpt lat="48.93585" lon="-1.18362">
        <ele>178.6</ele>
      </trkpt>
      <trkpt lat="48.93595" lon="-1.18385">
        <ele>178.3</ele>
      </trkpt>
      <trkpt lat="48.93608" lon="-1.18416">
        <ele>178</ele>
      </trkpt>
      <trkpt lat="48.93622" lon="-1.18451">
        <ele>177.8</ele>
      </trkpt>
      <trkpt lat="48.9363" lon="-1.18474">
        <ele>177.5</ele>
      </trkpt>
      <trkpt lat="48.93635" lon="-1.1849">
        <ele>177.2</ele>
      </trkpt>
      <trkpt lat="48.93636" lon="-1.18492">
        <ele>177.2</ele>
      </trkpt>
      <trkpt lat="48.93641" lon="-1.18509">
        <ele>176.8</ele>
      </trkpt>
      <trkpt lat="48.93649" lon="-1.18539">
        <ele>176.2</ele>
      </trkpt>
      <trkpt lat="48.93656" lon="-1.18561">
        <ele>175.7</ele>
      </trkpt>
      <trkpt lat="48.93661" lon="-1.18574">
        <ele>175.3</ele>
      </trkpt>
      <trkpt lat="48.93669" lon="-1.18585">
        <ele>175</ele>
      </trkpt>
      <trkpt lat="48.9368" lon="-1.18599">
        <ele>174.9</ele>
      </trkpt>
      <trkpt lat="48.93696" lon="-1.18619">
        <ele>174.7</ele>
      </trkpt>
      <trkpt lat="48.93712" lon="-1.18636">
        <ele>174.6</ele>
      </trkpt>
      <trkpt lat="48.93725" lon="-1.18653">
        <ele>174.4</ele>
      </trkpt>
      <trkpt lat="48.93739" lon="-1.18671">
        <ele>174.3</ele>
      </trkpt>
      <trkpt lat="48.93758" lon="-1.18699">
        <ele>174.3</ele>
      </trkpt>
      <trkpt lat="48.93771" lon="-1.18718">
        <ele>174.4</ele>
      </trkpt>
      <trkpt lat="48.93784" lon="-1.18738">
        <ele>174.4</ele>
      </trkpt>
      <trkpt lat="48.93797" lon="-1.18759">
        <ele>174.6</ele>
      </trkpt>
      <trkpt lat="48.93807" lon="-1.18776">
        <ele>174.7</ele>
      </trkpt>
      <trkpt lat="48.93816" lon="-1.18793">
        <ele>174.8</ele>
      </trkpt>
      <trkpt lat="48.9382" lon="-1.18805">
        <ele>174.9</ele>
      </trkpt>
      <trkpt lat="48.93826" lon="-1.18821">
        <ele>175</ele>
      </trkpt>
      <trkpt lat="48.93836" lon="-1.18858">
        <ele>174.6</ele>
      </trkpt>
      <trkpt lat="48.93844" lon="-1.1889">
        <ele>173.7</ele>
      </trkpt>
      <trkpt lat="48.9385" lon="-1.1891">
        <ele>173.1</ele>
      </trkpt>
      <trkpt lat="48.93856" lon="-1.18929">
        <ele>172.6</ele>
      </trkpt>
      <trkpt lat="48.93862" lon="-1.18944">
        <ele>172.3</ele>
      </trkpt>
      <trkpt lat="48.93869" lon="-1.18961">
        <ele>171.9</ele>
      </trkpt>
      <trkpt lat="48.93883" lon="-1.18992">
        <ele>171</ele>
      </trkpt>
      <trkpt lat="48.93898" lon="-1.19021">
        <ele>170.6</ele>
      </trkpt>
      <trkpt lat="48.93825" lon="-1.19102">
        <ele>174.7</ele>
      </trkpt>
      <trkpt lat="48.93863" lon="-1.19193">
        <ele>172.3</ele>
      </trkpt>
      <trkpt lat="48.93917" lon="-1.19325">
        <ele>170.1</ele>
      </trkpt>
      <trkpt lat="48.93932" lon="-1.19354">
        <ele>169.2</ele>
      </trkpt>
      <trkpt lat="48.93945" lon="-1.19386">
        <ele>168.5</ele>
      </trkpt>
      <trkpt lat="48.93952" lon="-1.19415">
        <ele>168</ele>
      </trkpt>
      <trkpt lat="48.93956" lon="-1.19428">
        <ele>167.9</ele>
      </trkpt>
      <trkpt lat="48.9398" lon="-1.19524">
        <ele>167.7</ele>
      </trkpt>
      <trkpt lat="48.94018" lon="-1.19676">
        <ele>167.8</ele>
      </trkpt>
      <trkpt lat="48.94045" lon="-1.19798">
        <ele>168.2</ele>
      </trkpt>
      <trkpt lat="48.94084" lon="-1.19985">
        <ele>167.2</ele>
      </trkpt>
      <trkpt lat="48.94088" lon="-1.20012">
        <ele>166.9</ele>
      </trkpt>
      <trkpt lat="48.94134" lon="-1.20126">
        <ele>165.5</ele>
      </trkpt>
      <trkpt lat="48.94142" lon="-1.20156">
        <ele>165</ele>
      </trkpt>
      <trkpt lat="48.94149" lon="-1.20202">
        <ele>164.1</ele>
      </trkpt>
      <trkpt lat="48.94153" lon="-1.20227">
        <ele>163.6</ele>
      </trkpt>
      <trkpt lat="48.9417" lon="-1.20295">
        <ele>161.8</ele>
      </trkpt>
      <trkpt lat="48.94186" lon="-1.20362">
        <ele>159.8</ele>
      </trkpt>
      <trkpt lat="48.94204" lon="-1.20418">
        <ele>157.6</ele>
      </trkpt>
      <trkpt lat="48.94228" lon="-1.20496">
        <ele>153.9</ele>
      </trkpt>
      <trkpt lat="48.94239" lon="-1.20527">
        <ele>152.7</ele>
      </trkpt>
      <trkpt lat="48.94246" lon="-1.20544">
        <ele>151.9</ele>
      </trkpt>
      <trkpt lat="48.94257" lon="-1.20566">
        <ele>150.9</ele>
      </trkpt>
      <trkpt lat="48.9427" lon="-1.20589">
        <ele>150.1</ele>
      </trkpt>
      <trkpt lat="48.9429" lon="-1.2061">
        <ele>150</ele>
      </trkpt>
      <trkpt lat="48.943" lon="-1.20626">
        <ele>149.9</ele>
      </trkpt>
      <trkpt lat="48.94315" lon="-1.20656">
        <ele>149.7</ele>
      </trkpt>
      <trkpt lat="48.94321" lon="-1.20669">
        <ele>149.7</ele>
      </trkpt>
      <trkpt lat="48.94329" lon="-1.20691">
        <ele>149.3</ele>
      </trkpt>
      <trkpt lat="48.94335" lon="-1.20709">
        <ele>149</ele>
      </trkpt>
      <trkpt lat="48.94371" lon="-1.20831">
        <ele>149.4</ele>
      </trkpt>
      <trkpt lat="48.94395" lon="-1.20911">
        <ele>150.9</ele>
      </trkpt>
      <trkpt lat="48.94396" lon="-1.20917">
        <ele>151</ele>
      </trkpt>
      <trkpt lat="48.94402" lon="-1.20935">
        <ele>150.6</ele>
      </trkpt>
      <trkpt lat="48.94413" lon="-1.20972">
        <ele>149.7</ele>
      </trkpt>
      <trkpt lat="48.94416" lon="-1.20979">
        <ele>149.5</ele>
      </trkpt>
      <trkpt lat="48.94419" lon="-1.20982">
        <ele>149.4</ele>
      </trkpt>
      <trkpt lat="48.94424" lon="-1.21">
        <ele>148.8</ele>
      </trkpt>
      <trkpt lat="48.94433" lon="-1.21025">
        <ele>148.1</ele>
      </trkpt>
      <trkpt lat="48.94442" lon="-1.21057">
        <ele>147.2</ele>
      </trkpt>
      <trkpt lat="48.94455" lon="-1.21107">
        <ele>146.8</ele>
      </trkpt>
      <trkpt lat="48.94459" lon="-1.2112">
        <ele>147</ele>
      </trkpt>
      <trkpt lat="48.94463" lon="-1.21132">
        <ele>147.2</ele>
      </trkpt>
      <trkpt lat="48.94468" lon="-1.2115">
        <ele>147.6</ele>
      </trkpt>
      <trkpt lat="48.9447" lon="-1.21165">
        <ele>147.9</ele>
      </trkpt>
      <trkpt lat="48.94472" lon="-1.21177">
        <ele>148.4</ele>
      </trkpt>
      <trkpt lat="48.94473" lon="-1.21186">
        <ele>148.8</ele>
      </trkpt>
      <trkpt lat="48.94474" lon="-1.21201">
        <ele>149.5</ele>
      </trkpt>
      <trkpt lat="48.94479" lon="-1.21233">
        <ele>151</ele>
      </trkpt>
      <trkpt lat="48.9449" lon="-1.21299">
        <ele>153.6</ele>
      </trkpt>
      <trkpt lat="48.9449" lon="-1.213">
        <ele>153.7</ele>
      </trkpt>
      <trkpt lat="48.94503" lon="-1.2137">
        <ele>156.3</ele>
      </trkpt>
      <trkpt lat="48.94506" lon="-1.21388">
        <ele>157</ele>
      </trkpt>
      <trkpt lat="48.94512" lon="-1.21404">
        <ele>157.6</ele>
      </trkpt>
      <trkpt lat="48.94515" lon="-1.21417">
        <ele>158</ele>
      </trkpt>
      <trkpt lat="48.94523" lon="-1.21455">
        <ele>158.7</ele>
      </trkpt>
      <trkpt lat="48.94534" lon="-1.21501">
        <ele>159.8</ele>
      </trkpt>
      <trkpt lat="48.94542" lon="-1.21533">
        <ele>160.4</ele>
      </trkpt>
      <trkpt lat="48.94547" lon="-1.21553">
        <ele>160.8</ele>
      </trkpt>
      <trkpt lat="48.94554" lon="-1.21574">
        <ele>161.2</ele>
      </trkpt>
      <trkpt lat="48.94561" lon="-1.21594">
        <ele>161.7</ele>
      </trkpt>
      <trkpt lat="48.94568" lon="-1.2161">
        <ele>162.3</ele>
      </trkpt>
      <trkpt lat="48.94578" lon="-1.21631">
        <ele>163</ele>
      </trkpt>
      <trkpt lat="48.94589" lon="-1.2165">
        <ele>163.7</ele>
      </trkpt>
      <trkpt lat="48.94604" lon="-1.21675">
        <ele>164.4</ele>
      </trkpt>
      <trkpt lat="48.94618" lon="-1.21695">
        <ele>164.7</ele>
      </trkpt>
      <trkpt lat="48.94636" lon="-1.2172">
        <ele>164.7</ele>
      </trkpt>
      <trkpt lat="48.94654" lon="-1.21743">
        <ele>164.4</ele>
      </trkpt>
      <trkpt lat="48.94667" lon="-1.21759">
        <ele>164</ele>
      </trkpt>
      <trkpt lat="48.9468" lon="-1.21772">
        <ele>164</ele>
      </trkpt>
      <trkpt lat="48.94696" lon="-1.21789">
        <ele>163.8</ele>
      </trkpt>
      <trkpt lat="48.9471" lon="-1.21803">
        <ele>163.7</ele>
      </trkpt>
      <trkpt lat="48.94723" lon="-1.21815">
        <ele>163.5</ele>
      </trkpt>
      <trkpt lat="48.94742" lon="-1.21832">
        <ele>163.1</ele>
      </trkpt>
      <trkpt lat="48.94753" lon="-1.21841">
        <ele>162.8</ele>
      </trkpt>
      <trkpt lat="48.94766" lon="-1.21852">
        <ele>162.2</ele>
      </trkpt>
      <trkpt lat="48.94779" lon="-1.21862">
        <ele>161.4</ele>
      </trkpt>
      <trkpt lat="48.94794" lon="-1.21872">
        <ele>160.4</ele>
      </trkpt>
      <trkpt lat="48.94798" lon="-1.21875">
        <ele>160.1</ele>
      </trkpt>
      <trkpt lat="48.9481" lon="-1.21883">
        <ele>159.3</ele>
      </trkpt>
      <trkpt lat="48.94826" lon="-1.21893">
        <ele>158</ele>
      </trkpt>
      <trkpt lat="48.9484" lon="-1.21901">
        <ele>156.7</ele>
      </trkpt>
      <trkpt lat="48.94849" lon="-1.21904">
        <ele>155.9</ele>
      </trkpt>
      <trkpt lat="48.94856" lon="-1.21906">
        <ele>155.3</ele>
      </trkpt>
      <trkpt lat="48.94866" lon="-1.2191">
        <ele>154.4</ele>
      </trkpt>
      <trkpt lat="48.94874" lon="-1.21913">
        <ele>153.6</ele>
      </trkpt>
      <trkpt lat="48.94882" lon="-1.21916">
        <ele>152.9</ele>
      </trkpt>
      <trkpt lat="48.94891" lon="-1.21919">
        <ele>152.2</ele>
      </trkpt>
      <trkpt lat="48.94899" lon="-1.21922">
        <ele>151.4</ele>
      </trkpt>
      <trkpt lat="48.94906" lon="-1.21925">
        <ele>150.9</ele>
      </trkpt>
      <trkpt lat="48.94908" lon="-1.21926">
        <ele>150.6</ele>
      </trkpt>
      <trkpt lat="48.94914" lon="-1.21929">
        <ele>150.1</ele>
      </trkpt>
      <trkpt lat="48.94922" lon="-1.21933">
        <ele>149.5</ele>
      </trkpt>
      <trkpt lat="48.94928" lon="-1.21938">
        <ele>149</ele>
      </trkpt>
      <trkpt lat="48.94933" lon="-1.21941">
        <ele>148.7</ele>
      </trkpt>
      <trkpt lat="48.94939" lon="-1.21947">
        <ele>148.2</ele>
      </trkpt>
      <trkpt lat="48.94947" lon="-1.21955">
        <ele>147.5</ele>
      </trkpt>
      <trkpt lat="48.94967" lon="-1.21976">
        <ele>145.9</ele>
      </trkpt>
      <trkpt lat="48.9497" lon="-1.2198">
        <ele>145.5</ele>
      </trkpt>
      <trkpt lat="48.94959" lon="-1.22013">
        <ele>145.9</ele>
      </trkpt>
      <trkpt lat="48.94954" lon="-1.22027">
        <ele>146.2</ele>
      </trkpt>
      <trkpt lat="48.94943" lon="-1.2206">
        <ele>147.2</ele>
      </trkpt>
      <trkpt lat="48.94937" lon="-1.22074">
        <ele>147.7</ele>
      </trkpt>
      <trkpt lat="48.9493" lon="-1.2209">
        <ele>148.4</ele>
      </trkpt>
      <trkpt lat="48.94926" lon="-1.22099">
        <ele>148.7</ele>
      </trkpt>
      <trkpt lat="48.94921" lon="-1.22107">
        <ele>149</ele>
      </trkpt>
      <trkpt lat="48.94917" lon="-1.22112">
        <ele>149.3</ele>
      </trkpt>
      <trkpt lat="48.94912" lon="-1.22118">
        <ele>149.7</ele>
      </trkpt>
      <trkpt lat="48.94905" lon="-1.22124">
        <ele>150.4</ele>
      </trkpt>
      <trkpt lat="48.94898" lon="-1.22129">
        <ele>151</ele>
      </trkpt>
      <trkpt lat="48.94888" lon="-1.22137">
        <ele>151.8</ele>
      </trkpt>
      <trkpt lat="48.9488" lon="-1.22145">
        <ele>152.5</ele>
      </trkpt>
      <trkpt lat="48.94874" lon="-1.22151">
        <ele>152.9</ele>
      </trkpt>
      <trkpt lat="48.94868" lon="-1.2216">
        <ele>153.4</ele>
      </trkpt>
      <trkpt lat="48.94862" lon="-1.22169">
        <ele>153.8</ele>
      </trkpt>
      <trkpt lat="48.94855" lon="-1.22177">
        <ele>154.3</ele>
      </trkpt>
      <trkpt lat="48.94849" lon="-1.22185">
        <ele>154.8</ele>
      </trkpt>
      <trkpt lat="48.94845" lon="-1.22193">
        <ele>155.1</ele>
      </trkpt>
      <trkpt lat="48.94838" lon="-1.222">
        <ele>155.7</ele>
      </trkpt>
      <trkpt lat="48.94827" lon="-1.2221">
        <ele>156.2</ele>
      </trkpt>
      <trkpt lat="48.9481" lon="-1.22226">
        <ele>156.5</ele>
      </trkpt>
      <trkpt lat="48.94796" lon="-1.2224">
        <ele>156.9</ele>
      </trkpt>
      <trkpt lat="48.94786" lon="-1.22248">
        <ele>157.3</ele>
      </trkpt>
      <trkpt lat="48.94777" lon="-1.22255">
        <ele>157.6</ele>
      </trkpt>
      <trkpt lat="48.94769" lon="-1.2226">
        <ele>158</ele>
      </trkpt>
      <trkpt lat="48.94763" lon="-1.22263">
        <ele>158.3</ele>
      </trkpt>
      <trkpt lat="48.94758" lon="-1.22265">
        <ele>158.5</ele>
      </trkpt>
      <trkpt lat="48.94753" lon="-1.22266">
        <ele>158.8</ele>
      </trkpt>
      <trkpt lat="48.94754" lon="-1.22305">
        <ele>158.7</ele>
      </trkpt>
      <trkpt lat="48.94756" lon="-1.22367">
        <ele>159.3</ele>
      </trkpt>
      <trkpt lat="48.94759" lon="-1.22401">
        <ele>159.9</ele>
      </trkpt>
      <trkpt lat="48.94762" lon="-1.22429">
        <ele>160.2</ele>
      </trkpt>
      <trkpt lat="48.94765" lon="-1.22488">
        <ele>160.9</ele>
      </trkpt>
      <trkpt lat="48.94769" lon="-1.22543">
        <ele>160.3</ele>
      </trkpt>
      <trkpt lat="48.94771" lon="-1.22576">
        <ele>159.8</ele>
      </trkpt>
      <trkpt lat="48.94774" lon="-1.22626">
        <ele>159.5</ele>
      </trkpt>
      <trkpt lat="48.94778" lon="-1.22666">
        <ele>159.3</ele>
      </trkpt>
      <trkpt lat="48.94781" lon="-1.22695">
        <ele>159</ele>
      </trkpt>
      <trkpt lat="48.94784" lon="-1.22727">
        <ele>158.7</ele>
      </trkpt>
      <trkpt lat="48.94783" lon="-1.2274">
        <ele>158.5</ele>
      </trkpt>
      <trkpt lat="48.94782" lon="-1.22756">
        <ele>158.4</ele>
      </trkpt>
      <trkpt lat="48.94779" lon="-1.22778">
        <ele>158.4</ele>
      </trkpt>
      <trkpt lat="48.94774" lon="-1.22806">
        <ele>158.3</ele>
      </trkpt>
      <trkpt lat="48.94769" lon="-1.22835">
        <ele>158.2</ele>
      </trkpt>
      <trkpt lat="48.94763" lon="-1.22866">
        <ele>158.1</ele>
      </trkpt>
      <trkpt lat="48.94758" lon="-1.22884">
        <ele>158</ele>
      </trkpt>
      <trkpt lat="48.94754" lon="-1.22904">
        <ele>158</ele>
      </trkpt>
      <trkpt lat="48.94749" lon="-1.22919">
        <ele>157.9</ele>
      </trkpt>
      <trkpt lat="48.94742" lon="-1.22936">
        <ele>157.6</ele>
      </trkpt>
      <trkpt lat="48.94732" lon="-1.22961">
        <ele>157.2</ele>
      </trkpt>
      <trkpt lat="48.94725" lon="-1.22979">
        <ele>156.9</ele>
      </trkpt>
      <trkpt lat="48.94719" lon="-1.23">
        <ele>156.6</ele>
      </trkpt>
      <trkpt lat="48.94713" lon="-1.23023">
        <ele>156.8</ele>
      </trkpt>
      <trkpt lat="48.94709" lon="-1.23045">
        <ele>157</ele>
      </trkpt>
      <trkpt lat="48.94704" lon="-1.23075">
        <ele>157.3</ele>
      </trkpt>
      <trkpt lat="48.94695" lon="-1.23112">
        <ele>157.2</ele>
      </trkpt>
      <trkpt lat="48.94683" lon="-1.23162">
        <ele>157</ele>
      </trkpt>
      <trkpt lat="48.94669" lon="-1.23209">
        <ele>156.5</ele>
      </trkpt>
      <trkpt lat="48.9466" lon="-1.23231">
        <ele>156</ele>
      </trkpt>
      <trkpt lat="48.94669" lon="-1.23244">
        <ele>156</ele>
      </trkpt>
      <trkpt lat="48.94679" lon="-1.23255">
        <ele>155.6</ele>
      </trkpt>
      <trkpt lat="48.94695" lon="-1.23271">
        <ele>154.8</ele>
      </trkpt>
      <trkpt lat="48.94719" lon="-1.23297">
        <ele>153.6</ele>
      </trkpt>
      <trkpt lat="48.94738" lon="-1.23316">
        <ele>152.7</ele>
      </trkpt>
      <trkpt lat="48.94765" lon="-1.23344">
        <ele>151.2</ele>
      </trkpt>
      <trkpt lat="48.94786" lon="-1.23365">
        <ele>150.3</ele>
      </trkpt>
      <trkpt lat="48.94798" lon="-1.23376">
        <ele>149.8</ele>
      </trkpt>
      <trkpt lat="48.94809" lon="-1.23385">
        <ele>149.5</ele>
      </trkpt>
      <trkpt lat="48.94818" lon="-1.23394">
        <ele>149.3</ele>
      </trkpt>
      <trkpt lat="48.94832" lon="-1.23406">
        <ele>149</ele>
      </trkpt>
      <trkpt lat="48.94848" lon="-1.23424">
        <ele>148.7</ele>
      </trkpt>
      <trkpt lat="48.94865" lon="-1.23441">
        <ele>148.1</ele>
      </trkpt>
      <trkpt lat="48.94878" lon="-1.23455">
        <ele>147.8</ele>
      </trkpt>
      <trkpt lat="48.94891" lon="-1.2347">
        <ele>147.5</ele>
      </trkpt>
      <trkpt lat="48.94905" lon="-1.23489">
        <ele>147.2</ele>
      </trkpt>
      <trkpt lat="48.94918" lon="-1.23506">
        <ele>146.5</ele>
      </trkpt>
      <trkpt lat="48.94923" lon="-1.23515">
        <ele>145.3</ele>
      </trkpt>
      <trkpt lat="48.94928" lon="-1.23524">
        <ele>144.3</ele>
      </trkpt>
      <trkpt lat="48.94931" lon="-1.23532">
        <ele>143.4</ele>
      </trkpt>
      <trkpt lat="48.94934" lon="-1.23541">
        <ele>142.6</ele>
      </trkpt>
      <trkpt lat="48.94934" lon="-1.23549">
        <ele>142</ele>
      </trkpt>
      <trkpt lat="48.94934" lon="-1.2355">
        <ele>142</ele>
      </trkpt>
      <trkpt lat="48.94933" lon="-1.23555">
        <ele>141.8</ele>
      </trkpt>
      <trkpt lat="48.94931" lon="-1.23561">
        <ele>141.5</ele>
      </trkpt>
      <trkpt lat="48.94926" lon="-1.23569">
        <ele>141.3</ele>
      </trkpt>
      <trkpt lat="48.94915" lon="-1.23584">
        <ele>141</ele>
      </trkpt>
      <trkpt lat="48.94903" lon="-1.23601">
        <ele>140.5</ele>
      </trkpt>
      <trkpt lat="48.94892" lon="-1.2362">
        <ele>140</ele>
      </trkpt>
      <trkpt lat="48.94878" lon="-1.23639">
        <ele>139.6</ele>
      </trkpt>
      <trkpt lat="48.94868" lon="-1.23657">
        <ele>139.4</ele>
      </trkpt>
      <trkpt lat="48.94858" lon="-1.23675">
        <ele>139</ele>
      </trkpt>
      <trkpt lat="48.94843" lon="-1.23699">
        <ele>138.2</ele>
      </trkpt>
      <trkpt lat="48.94831" lon="-1.23718">
        <ele>137.4</ele>
      </trkpt>
      <trkpt lat="48.94822" lon="-1.23732">
        <ele>136.6</ele>
      </trkpt>
      <trkpt lat="48.94817" lon="-1.2374">
        <ele>136.1</ele>
      </trkpt>
      <trkpt lat="48.94811" lon="-1.23751">
        <ele>135.5</ele>
      </trkpt>
      <trkpt lat="48.94806" lon="-1.23762">
        <ele>135.2</ele>
      </trkpt>
      <trkpt lat="48.94802" lon="-1.23774">
        <ele>134.9</ele>
      </trkpt>
      <trkpt lat="48.948" lon="-1.23785">
        <ele>134.5</ele>
      </trkpt>
      <trkpt lat="48.94798" lon="-1.23797">
        <ele>134.2</ele>
      </trkpt>
      <trkpt lat="48.94796" lon="-1.23811">
        <ele>133.9</ele>
      </trkpt>
      <trkpt lat="48.94795" lon="-1.23823">
        <ele>133.6</ele>
      </trkpt>
      <trkpt lat="48.94795" lon="-1.23835">
        <ele>133.3</ele>
      </trkpt>
      <trkpt lat="48.94795" lon="-1.23844">
        <ele>133.4</ele>
      </trkpt>
      <trkpt lat="48.94797" lon="-1.2386">
        <ele>133.6</ele>
      </trkpt>
      <trkpt lat="48.94798" lon="-1.23867">
        <ele>133.6</ele>
      </trkpt>
      <trkpt lat="48.94799" lon="-1.23869">
        <ele>133.6</ele>
      </trkpt>
      <trkpt lat="48.948" lon="-1.23881">
        <ele>133.7</ele>
      </trkpt>
      <trkpt lat="48.94794" lon="-1.23872">
        <ele>134.2</ele>
      </trkpt>
      <trkpt lat="48.94778" lon="-1.23855">
        <ele>135.3</ele>
      </trkpt>
      <trkpt lat="48.94772" lon="-1.23844">
        <ele>135.5</ele>
      </trkpt>
      <trkpt lat="48.94767" lon="-1.23833">
        <ele>135.6</ele>
      </trkpt>
      <trkpt lat="48.94755" lon="-1.23815">
        <ele>136.7</ele>
      </trkpt>
      <trkpt lat="48.94744" lon="-1.23801">
        <ele>137.6</ele>
      </trkpt>
      <trkpt lat="48.94736" lon="-1.23793">
        <ele>138.3</ele>
      </trkpt>
      <trkpt lat="48.9473" lon="-1.23787">
        <ele>138.9</ele>
      </trkpt>
      <trkpt lat="48.94723" lon="-1.23782">
        <ele>139.7</ele>
      </trkpt>
      <trkpt lat="48.9472" lon="-1.23779">
        <ele>140</ele>
      </trkpt>
      <trkpt lat="48.94717" lon="-1.23773">
        <ele>140.3</ele>
      </trkpt>
      <trkpt lat="48.94715" lon="-1.23767">
        <ele>140.6</ele>
      </trkpt>
      <trkpt lat="48.94713" lon="-1.23761">
        <ele>140.9</ele>
      </trkpt>
      <trkpt lat="48.94696" lon="-1.23739">
        <ele>143.3</ele>
      </trkpt>
      <trkpt lat="48.94679" lon="-1.23719">
        <ele>145.7</ele>
      </trkpt>
      <trkpt lat="48.9466" lon="-1.23695">
        <ele>147.5</ele>
      </trkpt>
      <trkpt lat="48.94617" lon="-1.23651">
        <ele>149.3</ele>
      </trkpt>
      <trkpt lat="48.94616" lon="-1.23682">
        <ele>149.2</ele>
      </trkpt>
      <trkpt lat="48.94615" lon="-1.23726">
        <ele>149.1</ele>
      </trkpt>
      <trkpt lat="48.94617" lon="-1.23785">
        <ele>148.4</ele>
      </trkpt>
      <trkpt lat="48.94617" lon="-1.23819">
        <ele>147.8</ele>
      </trkpt>
      <trkpt lat="48.94618" lon="-1.23861">
        <ele>147.3</ele>
      </trkpt>
      <trkpt lat="48.94618" lon="-1.23887">
        <ele>147.1</ele>
      </trkpt>
      <trkpt lat="48.94618" lon="-1.23915">
        <ele>146.9</ele>
      </trkpt>
      <trkpt lat="48.94617" lon="-1.23939">
        <ele>146.7</ele>
      </trkpt>
      <trkpt lat="48.94616" lon="-1.23952">
        <ele>146.6</ele>
      </trkpt>
      <trkpt lat="48.94616" lon="-1.23974">
        <ele>146.4</ele>
      </trkpt>
      <trkpt lat="48.94615" lon="-1.2398">
        <ele>146.3</ele>
      </trkpt>
      <trkpt lat="48.94613" lon="-1.23992">
        <ele>146.3</ele>
      </trkpt>
      <trkpt lat="48.94614" lon="-1.24001">
        <ele>146.1</ele>
      </trkpt>
      <trkpt lat="48.94617" lon="-1.24048">
        <ele>143.9</ele>
      </trkpt>
      <trkpt lat="48.9462" lon="-1.24103">
        <ele>141.6</ele>
      </trkpt>
      <trkpt lat="48.94623" lon="-1.2414">
        <ele>140.4</ele>
      </trkpt>
      <trkpt lat="48.94624" lon="-1.24154">
        <ele>139.9</ele>
      </trkpt>
      <trkpt lat="48.94625" lon="-1.24175">
        <ele>139.3</ele>
      </trkpt>
      <trkpt lat="48.94628" lon="-1.24208">
        <ele>138.7</ele>
      </trkpt>
      <trkpt lat="48.94628" lon="-1.24227">
        <ele>138.3</ele>
      </trkpt>
      <trkpt lat="48.9463" lon="-1.24254">
        <ele>137.8</ele>
      </trkpt>
      <trkpt lat="48.94644" lon="-1.24245">
        <ele>137.6</ele>
      </trkpt>
      <trkpt lat="48.94662" lon="-1.24234">
        <ele>137.3</ele>
      </trkpt>
      <trkpt lat="48.94685" lon="-1.24217">
        <ele>136</ele>
      </trkpt>
      <trkpt lat="48.9469" lon="-1.24226">
        <ele>135.4</ele>
      </trkpt>
      <trkpt lat="48.94706" lon="-1.24234">
        <ele>133.8</ele>
      </trkpt>
      <trkpt lat="48.94735" lon="-1.24249">
        <ele>130.5</ele>
      </trkpt>
      <trkpt lat="48.94758" lon="-1.2426">
        <ele>128</ele>
      </trkpt>
      <trkpt lat="48.94773" lon="-1.24268">
        <ele>126.6</ele>
      </trkpt>
      <trkpt lat="48.94782" lon="-1.24273">
        <ele>125.8</ele>
      </trkpt>
      <trkpt lat="48.94795" lon="-1.24281">
        <ele>124.7</ele>
      </trkpt>
      <trkpt lat="48.9481" lon="-1.24293">
        <ele>123.2</ele>
      </trkpt>
      <trkpt lat="48.94823" lon="-1.24305">
        <ele>121.9</ele>
      </trkpt>
      <trkpt lat="48.94843" lon="-1.24324">
        <ele>120.1</ele>
      </trkpt>
      <trkpt lat="48.94849" lon="-1.24329">
        <ele>119.6</ele>
      </trkpt>
      <trkpt lat="48.94853" lon="-1.24329">
        <ele>119.5</ele>
      </trkpt>
      <trkpt lat="48.94864" lon="-1.24326">
        <ele>119.2</ele>
      </trkpt>
      <trkpt lat="48.94874" lon="-1.24323">
        <ele>119</ele>
      </trkpt>
      <trkpt lat="48.94884" lon="-1.24321">
        <ele>118.8</ele>
      </trkpt>
      <trkpt lat="48.94893" lon="-1.24319">
        <ele>118.5</ele>
      </trkpt>
      <trkpt lat="48.94902" lon="-1.24319">
        <ele>118.2</ele>
      </trkpt>
      <trkpt lat="48.94911" lon="-1.24318">
        <ele>117.9</ele>
      </trkpt>
      <trkpt lat="48.94923" lon="-1.24316">
        <ele>117.9</ele>
      </trkpt>
      <trkpt lat="48.94934" lon="-1.24313">
        <ele>118</ele>
      </trkpt>
      <trkpt lat="48.94946" lon="-1.24311">
        <ele>118.2</ele>
      </trkpt>
      <trkpt lat="48.94958" lon="-1.24309">
        <ele>118.2</ele>
      </trkpt>
      <trkpt lat="48.94974" lon="-1.24307">
        <ele>118.3</ele>
      </trkpt>
      <trkpt lat="48.94984" lon="-1.24305">
        <ele>118.3</ele>
      </trkpt>
      <trkpt lat="48.95002" lon="-1.24303">
        <ele>118.3</ele>
      </trkpt>
      <trkpt lat="48.95024" lon="-1.243">
        <ele>118.1</ele>
      </trkpt>
      <trkpt lat="48.95046" lon="-1.24297">
        <ele>117.9</ele>
      </trkpt>
      <trkpt lat="48.95068" lon="-1.24292">
        <ele>117.7</ele>
      </trkpt>
      <trkpt lat="48.95085" lon="-1.24287">
        <ele>117.5</ele>
      </trkpt>
      <trkpt lat="48.9509" lon="-1.24286">
        <ele>117.5</ele>
      </trkpt>
      <trkpt lat="48.95103" lon="-1.24284">
        <ele>117.4</ele>
      </trkpt>
      <trkpt lat="48.95114" lon="-1.24282">
        <ele>117.3</ele>
      </trkpt>
      <trkpt lat="48.95155" lon="-1.24277">
        <ele>116.8</ele>
      </trkpt>
      <trkpt lat="48.9519" lon="-1.24271">
        <ele>116.7</ele>
      </trkpt>
      <trkpt lat="48.95191" lon="-1.24271">
        <ele>116.7</ele>
      </trkpt>
      <trkpt lat="48.95236" lon="-1.24268">
        <ele>116.6</ele>
      </trkpt>
      <trkpt lat="48.95243" lon="-1.24267">
        <ele>116.6</ele>
      </trkpt>
      <trkpt lat="48.95248" lon="-1.24264">
        <ele>116.7</ele>
      </trkpt>
      <trkpt lat="48.95253" lon="-1.24258">
        <ele>116.8</ele>
      </trkpt>
      <trkpt lat="48.95257" lon="-1.24255">
        <ele>116.8</ele>
      </trkpt>
      <trkpt lat="48.95261" lon="-1.24254">
        <ele>116.8</ele>
      </trkpt>
      <trkpt lat="48.95264" lon="-1.24257">
        <ele>116.7</ele>
      </trkpt>
      <trkpt lat="48.95267" lon="-1.24261">
        <ele>116.5</ele>
      </trkpt>
      <trkpt lat="48.95272" lon="-1.24272">
        <ele>116.1</ele>
      </trkpt>
      <trkpt lat="48.95291" lon="-1.24337">
        <ele>114</ele>
      </trkpt>
      <trkpt lat="48.95307" lon="-1.24389">
        <ele>113.2</ele>
      </trkpt>
      <trkpt lat="48.95331" lon="-1.24444">
        <ele>112</ele>
      </trkpt>
      <trkpt lat="48.9537" lon="-1.24538">
        <ele>108.2</ele>
      </trkpt>
      <trkpt lat="48.95378" lon="-1.24553">
        <ele>107.9</ele>
      </trkpt>
      <trkpt lat="48.95385" lon="-1.2459">
        <ele>107.7</ele>
      </trkpt>
      <trkpt lat="48.95386" lon="-1.24596">
        <ele>107.6</ele>
      </trkpt>
      <trkpt lat="48.95401" lon="-1.247">
        <ele>105.8</ele>
      </trkpt>
      <trkpt lat="48.9541" lon="-1.2475">
        <ele>104</ele>
      </trkpt>
      <trkpt lat="48.95418" lon="-1.24784">
        <ele>103.2</ele>
      </trkpt>
      <trkpt lat="48.95428" lon="-1.24816">
        <ele>102.1</ele>
      </trkpt>
      <trkpt lat="48.95465" lon="-1.24891">
        <ele>99.6</ele>
      </trkpt>
      <trkpt lat="48.95488" lon="-1.24943">
        <ele>98.4</ele>
      </trkpt>
      <trkpt lat="48.955" lon="-1.24981">
        <ele>97.5</ele>
      </trkpt>
      <trkpt lat="48.95501" lon="-1.24982">
        <ele>97.4</ele>
      </trkpt>
      <trkpt lat="48.95503" lon="-1.24986">
        <ele>97.3</ele>
      </trkpt>
      <trkpt lat="48.95513" lon="-1.25019">
        <ele>96.3</ele>
      </trkpt>
      <trkpt lat="48.95524" lon="-1.25068">
        <ele>95.3</ele>
      </trkpt>
      <trkpt lat="48.95528" lon="-1.25091">
        <ele>94.9</ele>
      </trkpt>
      <trkpt lat="48.95529" lon="-1.25102">
        <ele>94.7</ele>
      </trkpt>
      <trkpt lat="48.95528" lon="-1.25111">
        <ele>94.6</ele>
      </trkpt>
      <trkpt lat="48.95527" lon="-1.25118">
        <ele>94.4</ele>
      </trkpt>
      <trkpt lat="48.95526" lon="-1.25129">
        <ele>94.2</ele>
      </trkpt>
      <trkpt lat="48.95525" lon="-1.25139">
        <ele>94.1</ele>
      </trkpt>
      <trkpt lat="48.95524" lon="-1.25145">
        <ele>94</ele>
      </trkpt>
      <trkpt lat="48.95524" lon="-1.25147">
        <ele>93.9</ele>
      </trkpt>
      <trkpt lat="48.95524" lon="-1.2515">
        <ele>93.9</ele>
      </trkpt>
      <trkpt lat="48.95525" lon="-1.25153">
        <ele>93.8</ele>
      </trkpt>
      <trkpt lat="48.95527" lon="-1.25159">
        <ele>93.8</ele>
      </trkpt>
      <trkpt lat="48.95538" lon="-1.25183">
        <ele>93.6</ele>
      </trkpt>
      <trkpt lat="48.95548" lon="-1.25207">
        <ele>93.4</ele>
      </trkpt>
      <trkpt lat="48.95557" lon="-1.25232">
        <ele>93.3</ele>
      </trkpt>
      <trkpt lat="48.95565" lon="-1.25258">
        <ele>93.3</ele>
      </trkpt>
      <trkpt lat="48.95571" lon="-1.25286">
        <ele>93.2</ele>
      </trkpt>
      <trkpt lat="48.95577" lon="-1.25309">
        <ele>93.1</ele>
      </trkpt>
      <trkpt lat="48.95585" lon="-1.25344">
        <ele>93</ele>
      </trkpt>
      <trkpt lat="48.95593" lon="-1.25379">
        <ele>93.1</ele>
      </trkpt>
      <trkpt lat="48.95596" lon="-1.25406">
        <ele>93</ele>
      </trkpt>
      <trkpt lat="48.95603" lon="-1.254">
        <ele>93.1</ele>
      </trkpt>
      <trkpt lat="48.9564" lon="-1.25364">
        <ele>93.9</ele>
      </trkpt>
      <trkpt lat="48.95671" lon="-1.25333">
        <ele>94.9</ele>
      </trkpt>
      <trkpt lat="48.95704" lon="-1.25298">
        <ele>94.3</ele>
      </trkpt>
      <trkpt lat="48.95735" lon="-1.25261">
        <ele>94.1</ele>
      </trkpt>
      <trkpt lat="48.95762" lon="-1.25227">
        <ele>94</ele>
      </trkpt>
      <trkpt lat="48.95786" lon="-1.25196">
        <ele>94.3</ele>
      </trkpt>
      <trkpt lat="48.95808" lon="-1.25165">
        <ele>94.7</ele>
      </trkpt>
      <trkpt lat="48.95827" lon="-1.25138">
        <ele>95.3</ele>
      </trkpt>
      <trkpt lat="48.95845" lon="-1.25108">
        <ele>95.6</ele>
      </trkpt>
      <trkpt lat="48.95861" lon="-1.25079">
        <ele>95.7</ele>
      </trkpt>
      <trkpt lat="48.95886" lon="-1.25026">
        <ele>95.2</ele>
      </trkpt>
      <trkpt lat="48.95918" lon="-1.24963">
        <ele>94.9</ele>
      </trkpt>
      <trkpt lat="48.9596" lon="-1.24878">
        <ele>94.4</ele>
      </trkpt>
      <trkpt lat="48.95992" lon="-1.24812">
        <ele>93.6</ele>
      </trkpt>
      <trkpt lat="48.95994" lon="-1.24808">
        <ele>93.6</ele>
      </trkpt>
      <trkpt lat="48.96028" lon="-1.24725">
        <ele>94.4</ele>
      </trkpt>
      <trkpt lat="48.96049" lon="-1.24738">
        <ele>93.7</ele>
      </trkpt>
      <trkpt lat="48.96084" lon="-1.24763">
        <ele>92.7</ele>
      </trkpt>
      <trkpt lat="48.96104" lon="-1.24777">
        <ele>92.5</ele>
      </trkpt>
      <trkpt lat="48.96162" lon="-1.24807">
        <ele>92.9</ele>
      </trkpt>
      <trkpt lat="48.9621" lon="-1.2483">
        <ele>92.5</ele>
      </trkpt>
      <trkpt lat="48.96283" lon="-1.24862">
        <ele>89.4</ele>
      </trkpt>
      <trkpt lat="48.96321" lon="-1.24874">
        <ele>87.5</ele>
      </trkpt>
      <trkpt lat="48.96342" lon="-1.24875">
        <ele>87</ele>
      </trkpt>
      <trkpt lat="48.96356" lon="-1.24901">
        <ele>87.2</ele>
      </trkpt>
      <trkpt lat="48.96362" lon="-1.24928">
        <ele>87.3</ele>
      </trkpt>
      <trkpt lat="48.96369" lon="-1.24951">
        <ele>87.5</ele>
      </trkpt>
      <trkpt lat="48.9638" lon="-1.24972">
        <ele>88</ele>
      </trkpt>
      <trkpt lat="48.96421" lon="-1.25039">
        <ele>90.6</ele>
      </trkpt>
      <trkpt lat="48.96438" lon="-1.25066">
        <ele>91.4</ele>
      </trkpt>
      <trkpt lat="48.96453" lon="-1.25084">
        <ele>92.3</ele>
      </trkpt>
      <trkpt lat="48.96466" lon="-1.25097">
        <ele>93</ele>
      </trkpt>
      <trkpt lat="48.96476" lon="-1.25103">
        <ele>93.4</ele>
      </trkpt>
      <trkpt lat="48.96485" lon="-1.25127">
        <ele>94.1</ele>
      </trkpt>
      <trkpt lat="48.9649" lon="-1.25139">
        <ele>94.4</ele>
      </trkpt>
      <trkpt lat="48.965" lon="-1.25164">
        <ele>95</ele>
      </trkpt>
      <trkpt lat="48.96517" lon="-1.25198">
        <ele>95.9</ele>
      </trkpt>
      <trkpt lat="48.96554" lon="-1.25135">
        <ele>95.4</ele>
      </trkpt>
      <trkpt lat="48.96577" lon="-1.251">
        <ele>94.6</ele>
      </trkpt>
      <trkpt lat="48.96596" lon="-1.2506">
        <ele>94.4</ele>
      </trkpt>
      <trkpt lat="48.96605" lon="-1.2503">
        <ele>94.5</ele>
      </trkpt>
      <trkpt lat="48.96626" lon="-1.24949">
        <ele>96.9</ele>
      </trkpt>
      <trkpt lat="48.96648" lon="-1.2487">
        <ele>101.1</ele>
      </trkpt>
      <trkpt lat="48.96675" lon="-1.24767">
        <ele>103.7</ele>
      </trkpt>
      <trkpt lat="48.9669" lon="-1.24715">
        <ele>104.2</ele>
      </trkpt>
      <trkpt lat="48.9671" lon="-1.24665">
        <ele>105.6</ele>
      </trkpt>
      <trkpt lat="48.96722" lon="-1.2463">
        <ele>105.9</ele>
      </trkpt>
      <trkpt lat="48.96755" lon="-1.24541">
        <ele>105.7</ele>
      </trkpt>
      <trkpt lat="48.96788" lon="-1.24452">
        <ele>105</ele>
      </trkpt>
      <trkpt lat="48.9682" lon="-1.24383">
        <ele>105</ele>
      </trkpt>
      <trkpt lat="48.96824" lon="-1.24354">
        <ele>104.8</ele>
      </trkpt>
      <trkpt lat="48.96844" lon="-1.24317">
        <ele>105.3</ele>
      </trkpt>
      <trkpt lat="48.96871" lon="-1.24256">
        <ele>106.3</ele>
      </trkpt>
      <trkpt lat="48.96903" lon="-1.24188">
        <ele>105.7</ele>
      </trkpt>
      <trkpt lat="48.96923" lon="-1.24148">
        <ele>105</ele>
      </trkpt>
      <trkpt lat="48.96931" lon="-1.2413">
        <ele>105.1</ele>
      </trkpt>
      <trkpt lat="48.9694" lon="-1.24112">
        <ele>105.4</ele>
      </trkpt>
      <trkpt lat="48.96948" lon="-1.24098">
        <ele>105.6</ele>
      </trkpt>
      <trkpt lat="48.96955" lon="-1.24086">
        <ele>105.8</ele>
      </trkpt>
      <trkpt lat="48.96964" lon="-1.24073">
        <ele>106.2</ele>
      </trkpt>
      <trkpt lat="48.96971" lon="-1.24063">
        <ele>106.5</ele>
      </trkpt>
      <trkpt lat="48.96981" lon="-1.2405">
        <ele>106.9</ele>
      </trkpt>
      <trkpt lat="48.96994" lon="-1.24033">
        <ele>107.4</ele>
      </trkpt>
      <trkpt lat="48.97013" lon="-1.2401">
        <ele>107.8</ele>
      </trkpt>
      <trkpt lat="48.97026" lon="-1.23995">
        <ele>108.2</ele>
      </trkpt>
      <trkpt lat="48.9704" lon="-1.2398">
        <ele>108.7</ele>
      </trkpt>
      <trkpt lat="48.97052" lon="-1.23968">
        <ele>109.1</ele>
      </trkpt>
      <trkpt lat="48.97083" lon="-1.23943">
        <ele>110.3</ele>
      </trkpt>
      <trkpt lat="48.97119" lon="-1.23915">
        <ele>111.2</ele>
      </trkpt>
      <trkpt lat="48.97133" lon="-1.23904">
        <ele>111.5</ele>
      </trkpt>
      <trkpt lat="48.97147" lon="-1.23892">
        <ele>111.8</ele>
      </trkpt>
      <trkpt lat="48.97163" lon="-1.23878">
        <ele>111.9</ele>
      </trkpt>
      <trkpt lat="48.97172" lon="-1.23869">
        <ele>112</ele>
      </trkpt>
      <trkpt lat="48.97181" lon="-1.23858">
        <ele>112</ele>
      </trkpt>
      <trkpt lat="48.97194" lon="-1.23843">
        <ele>112</ele>
      </trkpt>
      <trkpt lat="48.9721" lon="-1.23824">
        <ele>112</ele>
      </trkpt>
      <trkpt lat="48.97232" lon="-1.23798">
        <ele>112.6</ele>
      </trkpt>
      <trkpt lat="48.97263" lon="-1.23764">
        <ele>113.3</ele>
      </trkpt>
      <trkpt lat="48.97304" lon="-1.23721">
        <ele>113.9</ele>
      </trkpt>
      <trkpt lat="48.97307" lon="-1.23718">
        <ele>114</ele>
      </trkpt>
      <trkpt lat="48.97346" lon="-1.23675">
        <ele>114.4</ele>
      </trkpt>
      <trkpt lat="48.97384" lon="-1.23634">
        <ele>114.5</ele>
      </trkpt>
      <trkpt lat="48.97404" lon="-1.23613">
        <ele>114.9</ele>
      </trkpt>
      <trkpt lat="48.97417" lon="-1.23593">
        <ele>115.1</ele>
      </trkpt>
      <trkpt lat="48.97444" lon="-1.23525">
        <ele>116.3</ele>
      </trkpt>
      <trkpt lat="48.97473" lon="-1.23449">
        <ele>117.9</ele>
      </trkpt>
      <trkpt lat="48.97503" lon="-1.23373">
        <ele>119.1</ele>
      </trkpt>
      <trkpt lat="48.97532" lon="-1.23287">
        <ele>121.5</ele>
      </trkpt>
      <trkpt lat="48.97538" lon="-1.23267">
        <ele>122.3</ele>
      </trkpt>
      <trkpt lat="48.97544" lon="-1.2325">
        <ele>123.1</ele>
      </trkpt>
      <trkpt lat="48.97566" lon="-1.23204">
        <ele>125.2</ele>
      </trkpt>
      <trkpt lat="48.97609" lon="-1.23123">
        <ele>127.1</ele>
      </trkpt>
      <trkpt lat="48.97639" lon="-1.23056">
        <ele>126.8</ele>
      </trkpt>
      <trkpt lat="48.97653" lon="-1.23021">
        <ele>126.7</ele>
      </trkpt>
      <trkpt lat="48.97676" lon="-1.22956">
        <ele>126.6</ele>
      </trkpt>
      <trkpt lat="48.97714" lon="-1.22975">
        <ele>127.3</ele>
      </trkpt>
      <trkpt lat="48.97779" lon="-1.23006">
        <ele>128.2</ele>
      </trkpt>
      <trkpt lat="48.97839" lon="-1.23039">
        <ele>128.1</ele>
      </trkpt>
      <trkpt lat="48.97878" lon="-1.23056">
        <ele>128</ele>
      </trkpt>
      <trkpt lat="48.979" lon="-1.23063">
        <ele>128.1</ele>
      </trkpt>
      <trkpt lat="48.97899" lon="-1.23073">
        <ele>127.9</ele>
      </trkpt>
      <trkpt lat="48.97895" lon="-1.23124">
        <ele>127.4</ele>
      </trkpt>
      <trkpt lat="48.97892" lon="-1.23152">
        <ele>127.1</ele>
      </trkpt>
      <trkpt lat="48.97941" lon="-1.2318">
        <ele>127.2</ele>
      </trkpt>
      <trkpt lat="48.9797" lon="-1.23197">
        <ele>127.2</ele>
      </trkpt>
      <trkpt lat="48.97983" lon="-1.23204">
        <ele>127.1</ele>
      </trkpt>
      <trkpt lat="48.97995" lon="-1.23208">
        <ele>127</ele>
      </trkpt>
      <trkpt lat="48.98006" lon="-1.2321">
        <ele>126.8</ele>
      </trkpt>
      <trkpt lat="48.98017" lon="-1.2321">
        <ele>126.5</ele>
      </trkpt>
      <trkpt lat="48.98027" lon="-1.23208">
        <ele>126.2</ele>
      </trkpt>
      <trkpt lat="48.98046" lon="-1.23201">
        <ele>125.8</ele>
      </trkpt>
      <trkpt lat="48.98077" lon="-1.23186">
        <ele>125</ele>
      </trkpt>
      <trkpt lat="48.98084" lon="-1.23182">
        <ele>124.8</ele>
      </trkpt>
      <trkpt lat="48.98107" lon="-1.23172">
        <ele>123.5</ele>
      </trkpt>
      <trkpt lat="48.98126" lon="-1.23163">
        <ele>122.4</ele>
      </trkpt>
      <trkpt lat="48.98156" lon="-1.23153">
        <ele>120.2</ele>
      </trkpt>
      <trkpt lat="48.98188" lon="-1.23142">
        <ele>118.7</ele>
      </trkpt>
      <trkpt lat="48.9819" lon="-1.23141">
        <ele>118.6</ele>
      </trkpt>
      <trkpt lat="48.98236" lon="-1.23125">
        <ele>117.3</ele>
      </trkpt>
      <trkpt lat="48.98262" lon="-1.23117">
        <ele>116.5</ele>
      </trkpt>
      <trkpt lat="48.9828" lon="-1.2311">
        <ele>115.9</ele>
      </trkpt>
      <trkpt lat="48.98316" lon="-1.23093">
        <ele>114.6</ele>
      </trkpt>
      <trkpt lat="48.98348" lon="-1.23077">
        <ele>113.8</ele>
      </trkpt>
      <trkpt lat="48.9837" lon="-1.23067">
        <ele>113.4</ele>
      </trkpt>
      <trkpt lat="48.98389" lon="-1.23057">
        <ele>113</ele>
      </trkpt>
      <trkpt lat="48.98396" lon="-1.23055">
        <ele>112.9</ele>
      </trkpt>
      <trkpt lat="48.98405" lon="-1.23056">
        <ele>112.8</ele>
      </trkpt>
      <trkpt lat="48.98412" lon="-1.23057">
        <ele>112.7</ele>
      </trkpt>
      <trkpt lat="48.98424" lon="-1.2306">
        <ele>112.5</ele>
      </trkpt>
      <trkpt lat="48.98453" lon="-1.23071">
        <ele>112</ele>
      </trkpt>
      <trkpt lat="48.98466" lon="-1.23077">
        <ele>111.7</ele>
      </trkpt>
      <trkpt lat="48.9848" lon="-1.23085">
        <ele>111.5</ele>
      </trkpt>
      <trkpt lat="48.98491" lon="-1.23094">
        <ele>111.2</ele>
      </trkpt>
      <trkpt lat="48.98515" lon="-1.23116">
        <ele>110.4</ele>
      </trkpt>
      <trkpt lat="48.98544" lon="-1.23142">
        <ele>109</ele>
      </trkpt>
      <trkpt lat="48.98557" lon="-1.23156">
        <ele>108.3</ele>
      </trkpt>
      <trkpt lat="48.9856" lon="-1.23163">
        <ele>108.1</ele>
      </trkpt>
      <trkpt lat="48.98561" lon="-1.23166">
        <ele>108.1</ele>
      </trkpt>
      <trkpt lat="48.98561" lon="-1.23172">
        <ele>108.1</ele>
      </trkpt>
      <trkpt lat="48.9856" lon="-1.23181">
        <ele>108.1</ele>
      </trkpt>
      <trkpt lat="48.98555" lon="-1.23199">
        <ele>108.4</ele>
      </trkpt>
      <trkpt lat="48.98552" lon="-1.2321">
        <ele>108.5</ele>
      </trkpt>
      <trkpt lat="48.98551" lon="-1.23216">
        <ele>108.5</ele>
      </trkpt>
      <trkpt lat="48.98552" lon="-1.23224">
        <ele>108.5</ele>
      </trkpt>
      <trkpt lat="48.98555" lon="-1.23235">
        <ele>108.4</ele>
      </trkpt>
      <trkpt lat="48.98562" lon="-1.23248">
        <ele>108</ele>
      </trkpt>
      <trkpt lat="48.98576" lon="-1.23273">
        <ele>107.8</ele>
      </trkpt>
      <trkpt lat="48.98592" lon="-1.23294">
        <ele>108</ele>
      </trkpt>
      <trkpt lat="48.98599" lon="-1.23302">
        <ele>108.1</ele>
      </trkpt>
      <trkpt lat="48.98606" lon="-1.23309">
        <ele>108.2</ele>
      </trkpt>
      <trkpt lat="48.9862" lon="-1.2332">
        <ele>108.3</ele>
      </trkpt>
      <trkpt lat="48.98642" lon="-1.23338">
        <ele>108.4</ele>
      </trkpt>
      <trkpt lat="48.98665" lon="-1.23356">
        <ele>108.6</ele>
      </trkpt>
      <trkpt lat="48.98706" lon="-1.23388">
        <ele>108.8</ele>
      </trkpt>
      <trkpt lat="48.98723" lon="-1.23401">
        <ele>108.9</ele>
      </trkpt>
      <trkpt lat="48.98735" lon="-1.23409">
        <ele>109</ele>
      </trkpt>
      <trkpt lat="48.98745" lon="-1.23415">
        <ele>109</ele>
      </trkpt>
      <trkpt lat="48.98775" lon="-1.23429">
        <ele>108.6</ele>
      </trkpt>
      <trkpt lat="48.98788" lon="-1.23436">
        <ele>108.2</ele>
      </trkpt>
      <trkpt lat="48.98807" lon="-1.23449">
        <ele>107.5</ele>
      </trkpt>
      <trkpt lat="48.98815" lon="-1.23456">
        <ele>107.1</ele>
      </trkpt>
      <trkpt lat="48.98823" lon="-1.23466">
        <ele>106.6</ele>
      </trkpt>
      <trkpt lat="48.98821" lon="-1.23471">
        <ele>106.5</ele>
      </trkpt>
      <trkpt lat="48.98817" lon="-1.23477">
        <ele>106.4</ele>
      </trkpt>
      <trkpt lat="48.98811" lon="-1.23491">
        <ele>106.3</ele>
      </trkpt>
      <trkpt lat="48.98806" lon="-1.23505">
        <ele>106.3</ele>
      </trkpt>
      <trkpt lat="48.98802" lon="-1.23522">
        <ele>106.2</ele>
      </trkpt>
      <trkpt lat="48.98797" lon="-1.23541">
        <ele>106.3</ele>
      </trkpt>
      <trkpt lat="48.98793" lon="-1.23551">
        <ele>106.3</ele>
      </trkpt>
      <trkpt lat="48.98788" lon="-1.23562">
        <ele>106.4</ele>
      </trkpt>
      <trkpt lat="48.98777" lon="-1.2358">
        <ele>106.7</ele>
      </trkpt>
      <trkpt lat="48.98769" lon="-1.23594">
        <ele>107</ele>
      </trkpt>
      <trkpt lat="48.98761" lon="-1.2361">
        <ele>107.2</ele>
      </trkpt>
      <trkpt lat="48.98755" lon="-1.23623">
        <ele>107.4</ele>
      </trkpt>
      <trkpt lat="48.9875" lon="-1.23636">
        <ele>107.4</ele>
      </trkpt>
      <trkpt lat="48.98744" lon="-1.23652">
        <ele>107.5</ele>
      </trkpt>
      <trkpt lat="48.98736" lon="-1.23668">
        <ele>107.7</ele>
      </trkpt>
      <trkpt lat="48.98729" lon="-1.23679">
        <ele>108</ele>
      </trkpt>
      <trkpt lat="48.98722" lon="-1.2369">
        <ele>108.2</ele>
      </trkpt>
      <trkpt lat="48.98714" lon="-1.23703">
        <ele>108.5</ele>
      </trkpt>
      <trkpt lat="48.987" lon="-1.2372">
        <ele>109</ele>
      </trkpt>
      <trkpt lat="48.98699" lon="-1.23721">
        <ele>109</ele>
      </trkpt>
      <trkpt lat="48.98692" lon="-1.2373">
        <ele>109.2</ele>
      </trkpt>
      <trkpt lat="48.98687" lon="-1.23743">
        <ele>109.3</ele>
      </trkpt>
      <trkpt lat="48.98681" lon="-1.23753">
        <ele>109.5</ele>
      </trkpt>
      <trkpt lat="48.9867" lon="-1.23769">
        <ele>109.9</ele>
      </trkpt>
      <trkpt lat="48.9866" lon="-1.23782">
        <ele>110.3</ele>
      </trkpt>
      <trkpt lat="48.9865" lon="-1.23797">
        <ele>110.6</ele>
      </trkpt>
      <trkpt lat="48.98635" lon="-1.23814">
        <ele>111.1</ele>
      </trkpt>
      <trkpt lat="48.98624" lon="-1.23826">
        <ele>111.5</ele>
      </trkpt>
      <trkpt lat="48.9861" lon="-1.23841">
        <ele>112.1</ele>
      </trkpt>
      <trkpt lat="48.98602" lon="-1.23849">
        <ele>112.5</ele>
      </trkpt>
      <trkpt lat="48.98596" lon="-1.23858">
        <ele>112.9</ele>
      </trkpt>
      <trkpt lat="48.98588" lon="-1.23872">
        <ele>113.3</ele>
      </trkpt>
      <trkpt lat="48.9858" lon="-1.23888">
        <ele>113.8</ele>
      </trkpt>
      <trkpt lat="48.98542" lon="-1.2395">
        <ele>116.3</ele>
      </trkpt>
      <trkpt lat="48.98535" lon="-1.23963">
        <ele>116.9</ele>
      </trkpt>
      <trkpt lat="48.98527" lon="-1.23979">
        <ele>117.8</ele>
      </trkpt>
      <trkpt lat="48.98522" lon="-1.23995">
        <ele>118.6</ele>
      </trkpt>
      <trkpt lat="48.98516" lon="-1.24012">
        <ele>119.4</ele>
      </trkpt>
      <trkpt lat="48.98511" lon="-1.24031">
        <ele>120.1</ele>
      </trkpt>
      <trkpt lat="48.98506" lon="-1.24047">
        <ele>120.7</ele>
      </trkpt>
      <trkpt lat="48.98502" lon="-1.24063">
        <ele>121.4</ele>
      </trkpt>
      <trkpt lat="48.98499" lon="-1.24073">
        <ele>121.8</ele>
      </trkpt>
      <trkpt lat="48.98498" lon="-1.24084">
        <ele>122.1</ele>
      </trkpt>
      <trkpt lat="48.98501" lon="-1.24092">
        <ele>122.4</ele>
      </trkpt>
      <trkpt lat="48.98505" lon="-1.24101">
        <ele>122.6</ele>
      </trkpt>
      <trkpt lat="48.98505" lon="-1.24112">
        <ele>123.1</ele>
      </trkpt>
      <trkpt lat="48.98503" lon="-1.24124">
        <ele>123.8</ele>
      </trkpt>
      <trkpt lat="48.98496" lon="-1.24149">
        <ele>125.1</ele>
      </trkpt>
      <trkpt lat="48.9849" lon="-1.2417">
        <ele>125.8</ele>
      </trkpt>
      <trkpt lat="48.98478" lon="-1.24217">
        <ele>126.7</ele>
      </trkpt>
      <trkpt lat="48.9848" lon="-1.2423">
        <ele>127</ele>
      </trkpt>
      <trkpt lat="48.98482" lon="-1.24241">
        <ele>127.3</ele>
      </trkpt>
      <trkpt lat="48.98484" lon="-1.24249">
        <ele>127.6</ele>
      </trkpt>
      <trkpt lat="48.98482" lon="-1.24266">
        <ele>127.5</ele>
      </trkpt>
      <trkpt lat="48.98478" lon="-1.24283">
        <ele>127.4</ele>
      </trkpt>
      <trkpt lat="48.98474" lon="-1.24301">
        <ele>127.3</ele>
      </trkpt>
      <trkpt lat="48.98467" lon="-1.24324">
        <ele>127.4</ele>
      </trkpt>
      <trkpt lat="48.98462" lon="-1.24345">
        <ele>127.7</ele>
      </trkpt>
      <trkpt lat="48.98458" lon="-1.24365">
        <ele>128.3</ele>
      </trkpt>
      <trkpt lat="48.98451" lon="-1.24384">
        <ele>128.8</ele>
      </trkpt>
      <trkpt lat="48.98444" lon="-1.24405">
        <ele>129.4</ele>
      </trkpt>
      <trkpt lat="48.98437" lon="-1.24425">
        <ele>130</ele>
      </trkpt>
      <trkpt lat="48.9843" lon="-1.24445">
        <ele>130.7</ele>
      </trkpt>
      <trkpt lat="48.98423" lon="-1.24466">
        <ele>131.6</ele>
      </trkpt>
      <trkpt lat="48.98414" lon="-1.24483">
        <ele>132.4</ele>
      </trkpt>
      <trkpt lat="48.98407" lon="-1.24501">
        <ele>132.8</ele>
      </trkpt>
      <trkpt lat="48.98401" lon="-1.24519">
        <ele>132.4</ele>
      </trkpt>
      <trkpt lat="48.98392" lon="-1.24536">
        <ele>132</ele>
      </trkpt>
      <trkpt lat="48.98397" lon="-1.24542">
        <ele>132</ele>
      </trkpt>
      <trkpt lat="48.9841" lon="-1.24555">
        <ele>132.2</ele>
      </trkpt>
      <trkpt lat="48.98425" lon="-1.24566">
        <ele>131.9</ele>
      </trkpt>
      <trkpt lat="48.98444" lon="-1.24584">
        <ele>131</ele>
      </trkpt>
      <trkpt lat="48.9847" lon="-1.24611">
        <ele>129.6</ele>
      </trkpt>
      <trkpt lat="48.98493" lon="-1.24644">
        <ele>128.5</ele>
      </trkpt>
      <trkpt lat="48.98497" lon="-1.24643">
        <ele>128.4</ele>
      </trkpt>
      <trkpt lat="48.98502" lon="-1.24645">
        <ele>128.2</ele>
      </trkpt>
      <trkpt lat="48.98516" lon="-1.24656">
        <ele>127.9</ele>
      </trkpt>
      <trkpt lat="48.98532" lon="-1.2467">
        <ele>127.6</ele>
      </trkpt>
      <trkpt lat="48.98535" lon="-1.24672">
        <ele>127.6</ele>
      </trkpt>
      <trkpt lat="48.98554" lon="-1.24689">
        <ele>127.7</ele>
      </trkpt>
      <trkpt lat="48.9857" lon="-1.24702">
        <ele>127.9</ele>
      </trkpt>
      <trkpt lat="48.98575" lon="-1.24704">
        <ele>127.9</ele>
      </trkpt>
      <trkpt lat="48.98578" lon="-1.24704">
        <ele>127.9</ele>
      </trkpt>
      <trkpt lat="48.98597" lon="-1.24725">
        <ele>127.8</ele>
      </trkpt>
      <trkpt lat="48.9862" lon="-1.24752">
        <ele>127.2</ele>
      </trkpt>
      <trkpt lat="48.98655" lon="-1.24791">
        <ele>124.6</ele>
      </trkpt>
      <trkpt lat="48.98662" lon="-1.24801">
        <ele>124</ele>
      </trkpt>
      <trkpt lat="48.98677" lon="-1.24837">
        <ele>121.7</ele>
      </trkpt>
      <trkpt lat="48.98692" lon="-1.24881">
        <ele>118</ele>
      </trkpt>
      <trkpt lat="48.98729" lon="-1.24988">
        <ele>112.4</ele>
      </trkpt>
      <trkpt lat="48.98744" lon="-1.2503">
        <ele>111.4</ele>
      </trkpt>
      <trkpt lat="48.9876" lon="-1.25071">
        <ele>111.1</ele>
      </trkpt>
      <trkpt lat="48.98771" lon="-1.25087">
        <ele>111.4</ele>
      </trkpt>
      <trkpt lat="48.98792" lon="-1.25115">
        <ele>113</ele>
      </trkpt>
      <trkpt lat="48.9881" lon="-1.25133">
        <ele>114.1</ele>
      </trkpt>
      <trkpt lat="48.98837" lon="-1.2515">
        <ele>115.3</ele>
      </trkpt>
      <trkpt lat="48.98858" lon="-1.2516">
        <ele>116.6</ele>
      </trkpt>
      <trkpt lat="48.98885" lon="-1.25172">
        <ele>118</ele>
      </trkpt>
      <trkpt lat="48.98909" lon="-1.25181">
        <ele>118.9</ele>
      </trkpt>
      <trkpt lat="48.98922" lon="-1.25187">
        <ele>119.3</ele>
      </trkpt>
      <trkpt lat="48.98943" lon="-1.252">
        <ele>120</ele>
      </trkpt>
      <trkpt lat="48.9897" lon="-1.25214">
        <ele>120.9</ele>
      </trkpt>
      <trkpt lat="48.9897" lon="-1.25216">
        <ele>121</ele>
      </trkpt>
      <trkpt lat="48.98971" lon="-1.25221">
        <ele>121.2</ele>
      </trkpt>
      <trkpt lat="48.98975" lon="-1.25228">
        <ele>121.5</ele>
      </trkpt>
      <trkpt lat="48.99008" lon="-1.25241">
        <ele>122.6</ele>
      </trkpt>
      <trkpt lat="48.99048" lon="-1.25261">
        <ele>122.6</ele>
      </trkpt>
      <trkpt lat="48.99089" lon="-1.2528">
        <ele>122.6</ele>
      </trkpt>
      <trkpt lat="48.99113" lon="-1.25292">
        <ele>122.3</ele>
      </trkpt>
      <trkpt lat="48.99146" lon="-1.25305">
        <ele>122.1</ele>
      </trkpt>
      <trkpt lat="48.99168" lon="-1.25317">
        <ele>122.2</ele>
      </trkpt>
      <trkpt lat="48.99257" lon="-1.25369">
        <ele>120.9</ele>
      </trkpt>
      <trkpt lat="48.99356" lon="-1.25423">
        <ele>123.4</ele>
      </trkpt>
      <trkpt lat="48.99388" lon="-1.2544">
        <ele>124.4</ele>
      </trkpt>
      <trkpt lat="48.99401" lon="-1.25443">
        <ele>124.7</ele>
      </trkpt>
      <trkpt lat="48.99406" lon="-1.25446">
        <ele>124.9</ele>
      </trkpt>
      <trkpt lat="48.99423" lon="-1.2546">
        <ele>125.5</ele>
      </trkpt>
      <trkpt lat="48.9944" lon="-1.25474">
        <ele>126.1</ele>
      </trkpt>
      <trkpt lat="48.99455" lon="-1.25494">
        <ele>126.8</ele>
      </trkpt>
      <trkpt lat="48.99476" lon="-1.25532">
        <ele>126.9</ele>
      </trkpt>
      <trkpt lat="48.9951" lon="-1.25581">
        <ele>127</ele>
      </trkpt>
      <trkpt lat="48.99525" lon="-1.25604">
        <ele>126.8</ele>
      </trkpt>
      <trkpt lat="48.99542" lon="-1.25624">
        <ele>126.8</ele>
      </trkpt>
      <trkpt lat="48.99547" lon="-1.25631">
        <ele>126.8</ele>
      </trkpt>
      <trkpt lat="48.99552" lon="-1.2564">
        <ele>126.7</ele>
      </trkpt>
      <trkpt lat="48.99558" lon="-1.25652">
        <ele>126.7</ele>
      </trkpt>
      <trkpt lat="48.99568" lon="-1.25674">
        <ele>126.8</ele>
      </trkpt>
      <trkpt lat="48.99578" lon="-1.25692">
        <ele>126.9</ele>
      </trkpt>
      <trkpt lat="48.99573" lon="-1.25701">
        <ele>126.9</ele>
      </trkpt>
      <trkpt lat="48.99563" lon="-1.25724">
        <ele>126.8</ele>
      </trkpt>
      <trkpt lat="48.99558" lon="-1.25739">
        <ele>126.7</ele>
      </trkpt>
      <trkpt lat="48.99551" lon="-1.25761">
        <ele>126.5</ele>
      </trkpt>
      <trkpt lat="48.99547" lon="-1.25779">
        <ele>126.3</ele>
      </trkpt>
      <trkpt lat="48.9956" lon="-1.25799">
        <ele>126.4</ele>
      </trkpt>
      <trkpt lat="48.99569" lon="-1.25809">
        <ele>126.6</ele>
      </trkpt>
      <trkpt lat="48.99588" lon="-1.25824">
        <ele>127.1</ele>
      </trkpt>
      <trkpt lat="48.99592" lon="-1.25829">
        <ele>127.2</ele>
      </trkpt>
      <trkpt lat="48.99596" lon="-1.25837">
        <ele>127.3</ele>
      </trkpt>
      <trkpt lat="48.9962" lon="-1.25904">
        <ele>128.3</ele>
      </trkpt>
      <trkpt lat="48.99632" lon="-1.25938">
        <ele>128.6</ele>
      </trkpt>
      <trkpt lat="48.99653" lon="-1.25997">
        <ele>128.8</ele>
      </trkpt>
      <trkpt lat="48.99659" lon="-1.26014">
        <ele>128.9</ele>
      </trkpt>
      <trkpt lat="48.99667" lon="-1.26038">
        <ele>129</ele>
      </trkpt>
      <trkpt lat="48.99687" lon="-1.26093">
        <ele>130.1</ele>
      </trkpt>
      <trkpt lat="48.99711" lon="-1.26161">
        <ele>132.1</ele>
      </trkpt>
      <trkpt lat="48.99726" lon="-1.26196">
        <ele>133</ele>
      </trkpt>
      <trkpt lat="48.99734" lon="-1.26213">
        <ele>133.4</ele>
      </trkpt>
      <trkpt lat="48.99739" lon="-1.26223">
        <ele>133.7</ele>
      </trkpt>
      <trkpt lat="48.99741" lon="-1.26225">
        <ele>133.7</ele>
      </trkpt>
      <trkpt lat="48.9975" lon="-1.26237">
        <ele>134</ele>
      </trkpt>
      <trkpt lat="48.99769" lon="-1.26259">
        <ele>134</ele>
      </trkpt>
      <trkpt lat="48.99787" lon="-1.26281">
        <ele>133.9</ele>
      </trkpt>
      <trkpt lat="48.99802" lon="-1.26301">
        <ele>133.8</ele>
      </trkpt>
      <trkpt lat="48.99806" lon="-1.26308">
        <ele>133.8</ele>
      </trkpt>
      <trkpt lat="48.99847" lon="-1.26283">
        <ele>134.5</ele>
      </trkpt>
      <trkpt lat="48.99875" lon="-1.26268">
        <ele>134.7</ele>
      </trkpt>
      <trkpt lat="48.99879" lon="-1.26268">
        <ele>134.7</ele>
      </trkpt>
      <trkpt lat="48.99884" lon="-1.2627">
        <ele>134.6</ele>
      </trkpt>
      <trkpt lat="48.99891" lon="-1.26277">
        <ele>134.5</ele>
      </trkpt>
      <trkpt lat="48.99919" lon="-1.26315">
        <ele>133.3</ele>
      </trkpt>
      <trkpt lat="48.99931" lon="-1.26331">
        <ele>132.2</ele>
      </trkpt>
      <trkpt lat="48.99939" lon="-1.2634">
        <ele>131.4</ele>
      </trkpt>
      <trkpt lat="48.99945" lon="-1.26345">
        <ele>130.8</ele>
      </trkpt>
      <trkpt lat="48.99952" lon="-1.26348">
        <ele>130.2</ele>
      </trkpt>
      <trkpt lat="48.99961" lon="-1.2635">
        <ele>129.6</ele>
      </trkpt>
      <trkpt lat="48.99969" lon="-1.2635">
        <ele>129.2</ele>
      </trkpt>
      <trkpt lat="48.99979" lon="-1.26346">
        <ele>128.8</ele>
      </trkpt>
      <trkpt lat="48.99987" lon="-1.26339">
        <ele>128.6</ele>
      </trkpt>
      <trkpt lat="48.99988" lon="-1.26338">
        <ele>128.6</ele>
      </trkpt>
      <trkpt lat="49.00004" lon="-1.26323">
        <ele>128.1</ele>
      </trkpt>
      <trkpt lat="49.00013" lon="-1.26318">
        <ele>127.6</ele>
      </trkpt>
      <trkpt lat="49.00034" lon="-1.26309">
        <ele>126.1</ele>
      </trkpt>
      <trkpt lat="49.00057" lon="-1.26305">
        <ele>124.2</ele>
      </trkpt>
      <trkpt lat="49.00073" lon="-1.26347">
        <ele>122.4</ele>
      </trkpt>
      <trkpt lat="49.00081" lon="-1.26366">
        <ele>121.4</ele>
      </trkpt>
      <trkpt lat="49.00086" lon="-1.26379">
        <ele>120.7</ele>
      </trkpt>
      <trkpt lat="49.00093" lon="-1.26403">
        <ele>119.5</ele>
      </trkpt>
      <trkpt lat="49.00097" lon="-1.26417">
        <ele>118.8</ele>
      </trkpt>
      <trkpt lat="49.00101" lon="-1.26425">
        <ele>118.5</ele>
      </trkpt>
      <trkpt lat="49.00104" lon="-1.26428">
        <ele>118.2</ele>
      </trkpt>
      <trkpt lat="49.00112" lon="-1.26431">
        <ele>117.6</ele>
      </trkpt>
      <trkpt lat="49.00159" lon="-1.2643">
        <ele>113.8</ele>
      </trkpt>
      <trkpt lat="49.00188" lon="-1.26431">
        <ele>111.9</ele>
      </trkpt>
      <trkpt lat="49.00212" lon="-1.26438">
        <ele>110.5</ele>
      </trkpt>
      <trkpt lat="49.00243" lon="-1.26446">
        <ele>108.8</ele>
      </trkpt>
      <trkpt lat="49.00257" lon="-1.2645">
        <ele>108.3</ele>
      </trkpt>
      <trkpt lat="49.00272" lon="-1.26457">
        <ele>108.1</ele>
      </trkpt>
      <trkpt lat="49.00299" lon="-1.26476">
        <ele>107.7</ele>
      </trkpt>
      <trkpt lat="49.00302" lon="-1.26471">
        <ele>107.6</ele>
      </trkpt>
      <trkpt lat="49.00309" lon="-1.26464">
        <ele>107.5</ele>
      </trkpt>
      <trkpt lat="49.00322" lon="-1.26457">
        <ele>107.2</ele>
      </trkpt>
      <trkpt lat="49.00345" lon="-1.26444">
        <ele>106.8</ele>
      </trkpt>
      <trkpt lat="49.00373" lon="-1.26431">
        <ele>106.1</ele>
      </trkpt>
      <trkpt lat="49.0039" lon="-1.26424">
        <ele>105.7</ele>
      </trkpt>
      <trkpt lat="49.00401" lon="-1.2642">
        <ele>105.4</ele>
      </trkpt>
      <trkpt lat="49.00416" lon="-1.26418">
        <ele>105</ele>
      </trkpt>
      <trkpt lat="49.00438" lon="-1.26413">
        <ele>104.1</ele>
      </trkpt>
      <trkpt lat="49.00453" lon="-1.2641">
        <ele>103.5</ele>
      </trkpt>
      <trkpt lat="49.00482" lon="-1.264">
        <ele>102.2</ele>
      </trkpt>
      <trkpt lat="49.00563" lon="-1.26371">
        <ele>99.1</ele>
      </trkpt>
      <trkpt lat="49.00576" lon="-1.26367">
        <ele>98.6</ele>
      </trkpt>
      <trkpt lat="49.00585" lon="-1.26365">
        <ele>98.3</ele>
      </trkpt>
      <trkpt lat="49.00588" lon="-1.26365">
        <ele>98.2</ele>
      </trkpt>
      <trkpt lat="49.00596" lon="-1.26364">
        <ele>97.9</ele>
      </trkpt>
      <trkpt lat="49.00603" lon="-1.26365">
        <ele>97.6</ele>
      </trkpt>
      <trkpt lat="49.00612" lon="-1.26366">
        <ele>97.2</ele>
      </trkpt>
      <trkpt lat="49.00622" lon="-1.26366">
        <ele>96.8</ele>
      </trkpt>
      <trkpt lat="49.00631" lon="-1.26364">
        <ele>96.4</ele>
      </trkpt>
      <trkpt lat="49.00643" lon="-1.26361">
        <ele>95.9</ele>
      </trkpt>
      <trkpt lat="49.0066" lon="-1.26353">
        <ele>95.3</ele>
      </trkpt>
      <trkpt lat="49.00666" lon="-1.26351">
        <ele>95</ele>
      </trkpt>
      <trkpt lat="49.00699" lon="-1.26333">
        <ele>94.2</ele>
      </trkpt>
      <trkpt lat="49.00721" lon="-1.26322">
        <ele>93.7</ele>
      </trkpt>
      <trkpt lat="49.00736" lon="-1.26317">
        <ele>93.5</ele>
      </trkpt>
      <trkpt lat="49.00769" lon="-1.26305">
        <ele>92.7</ele>
      </trkpt>
      <trkpt lat="49.00797" lon="-1.26294">
        <ele>91.8</ele>
      </trkpt>
      <trkpt lat="49.00821" lon="-1.26285">
        <ele>91</ele>
      </trkpt>
      <trkpt lat="49.00849" lon="-1.26272">
        <ele>90.6</ele>
      </trkpt>
      <trkpt lat="49.00865" lon="-1.26266">
        <ele>90.7</ele>
      </trkpt>
      <trkpt lat="49.0088" lon="-1.26261">
        <ele>90.7</ele>
      </trkpt>
      <trkpt lat="49.00893" lon="-1.26258">
        <ele>90.8</ele>
      </trkpt>
      <trkpt lat="49.00906" lon="-1.26257">
        <ele>90.8</ele>
      </trkpt>
      <trkpt lat="49.00928" lon="-1.26255">
        <ele>90.5</ele>
      </trkpt>
      <trkpt lat="49.00945" lon="-1.26254">
        <ele>90.2</ele>
      </trkpt>
      <trkpt lat="49.00964" lon="-1.2625">
        <ele>89.9</ele>
      </trkpt>
      <trkpt lat="49.00985" lon="-1.26245">
        <ele>89.5</ele>
      </trkpt>
      <trkpt lat="49.01004" lon="-1.26238">
        <ele>89.1</ele>
      </trkpt>
      <trkpt lat="49.01043" lon="-1.2622">
        <ele>88</ele>
      </trkpt>
      <trkpt lat="49.0107" lon="-1.26208">
        <ele>87.1</ele>
      </trkpt>
      <trkpt lat="49.01089" lon="-1.26198">
        <ele>86.4</ele>
      </trkpt>
      <trkpt lat="49.01103" lon="-1.2619">
        <ele>86</ele>
      </trkpt>
      <trkpt lat="49.0111" lon="-1.26184">
        <ele>85.8</ele>
      </trkpt>
      <trkpt lat="49.01113" lon="-1.26171">
        <ele>85.9</ele>
      </trkpt>
      <trkpt lat="49.01111" lon="-1.26141">
        <ele>85.8</ele>
      </trkpt>
      <trkpt lat="49.01109" lon="-1.26106">
        <ele>85.6</ele>
      </trkpt>
      <trkpt lat="49.01106" lon="-1.26065">
        <ele>85.2</ele>
      </trkpt>
      <trkpt lat="49.01103" lon="-1.25991">
        <ele>84.2</ele>
      </trkpt>
      <trkpt lat="49.01102" lon="-1.25959">
        <ele>83.7</ele>
      </trkpt>
      <trkpt lat="49.01103" lon="-1.25926">
        <ele>83.2</ele>
      </trkpt>
      <trkpt lat="49.01109" lon="-1.25895">
        <ele>81.6</ele>
      </trkpt>
      <trkpt lat="49.01117" lon="-1.25864">
        <ele>79.7</ele>
      </trkpt>
      <trkpt lat="49.01126" lon="-1.25845">
        <ele>78.5</ele>
      </trkpt>
      <trkpt lat="49.01137" lon="-1.25833">
        <ele>77.7</ele>
      </trkpt>
      <trkpt lat="49.01146" lon="-1.25811">
        <ele>77.4</ele>
      </trkpt>
      <trkpt lat="49.0115" lon="-1.25784">
        <ele>77.3</ele>
      </trkpt>
      <trkpt lat="49.0115" lon="-1.25754">
        <ele>77.2</ele>
      </trkpt>
      <trkpt lat="49.01149" lon="-1.25725">
        <ele>78.7</ele>
      </trkpt>
      <trkpt lat="49.01147" lon="-1.25724">
        <ele>78.7</ele>
      </trkpt>
      <trkpt lat="49.0116" lon="-1.25676">
        <ele>81.4</ele>
      </trkpt>
      <trkpt lat="49.01171" lon="-1.2564">
        <ele>83.7</ele>
      </trkpt>
      <trkpt lat="49.01179" lon="-1.25614">
        <ele>85.3</ele>
      </trkpt>
      <trkpt lat="49.01182" lon="-1.25587">
        <ele>86.8</ele>
      </trkpt>
      <trkpt lat="49.01183" lon="-1.25559">
        <ele>88.6</ele>
      </trkpt>
      <trkpt lat="49.01184" lon="-1.25525">
        <ele>90.8</ele>
      </trkpt>
      <trkpt lat="49.01187" lon="-1.25499">
        <ele>92.6</ele>
      </trkpt>
      <trkpt lat="49.01194" lon="-1.25471">
        <ele>95</ele>
      </trkpt>
      <trkpt lat="49.012" lon="-1.25454">
        <ele>96.4</ele>
      </trkpt>
      <trkpt lat="49.01202" lon="-1.25432">
        <ele>98.2</ele>
      </trkpt>
      <trkpt lat="49.01198" lon="-1.25411">
        <ele>99.5</ele>
      </trkpt>
      <trkpt lat="49.01185" lon="-1.25365">
        <ele>100.8</ele>
      </trkpt>
      <trkpt lat="49.01168" lon="-1.25316">
        <ele>101.8</ele>
      </trkpt>
      <trkpt lat="49.01147" lon="-1.25274">
        <ele>101.7</ele>
      </trkpt>
      <trkpt lat="49.01144" lon="-1.25268">
        <ele>101.7</ele>
      </trkpt>
      <trkpt lat="49.01115" lon="-1.25197">
        <ele>101.7</ele>
      </trkpt>
      <trkpt lat="49.01085" lon="-1.25112">
        <ele>104.2</ele>
      </trkpt>
      <trkpt lat="49.01055" lon="-1.25022">
        <ele>105.7</ele>
      </trkpt>
      <trkpt lat="49.01042" lon="-1.24979">
        <ele>107.2</ele>
      </trkpt>
      <trkpt lat="49.01039" lon="-1.24948">
        <ele>108.5</ele>
      </trkpt>
      <trkpt lat="49.01069" lon="-1.24932">
        <ele>107.3</ele>
      </trkpt>
      <trkpt lat="49.01101" lon="-1.2491">
        <ele>105.2</ele>
      </trkpt>
      <trkpt lat="49.01127" lon="-1.24892">
        <ele>102.8</ele>
      </trkpt>
      <trkpt lat="49.01154" lon="-1.24869">
        <ele>100.5</ele>
      </trkpt>
      <trkpt lat="49.01185" lon="-1.24825">
        <ele>98.1</ele>
      </trkpt>
      <trkpt lat="49.01229" lon="-1.2477">
        <ele>93.1</ele>
      </trkpt>
      <trkpt lat="49.01262" lon="-1.24728">
        <ele>89.9</ele>
      </trkpt>
      <trkpt lat="49.01286" lon="-1.24697">
        <ele>88.5</ele>
      </trkpt>
      <trkpt lat="49.01299" lon="-1.2467">
        <ele>87.5</ele>
      </trkpt>
      <trkpt lat="49.01307" lon="-1.24637">
        <ele>86.6</ele>
      </trkpt>
      <trkpt lat="49.0131" lon="-1.2461">
        <ele>86.3</ele>
      </trkpt>
      <trkpt lat="49.0131" lon="-1.24578">
        <ele>86.2</ele>
      </trkpt>
      <trkpt lat="49.01309" lon="-1.24533">
        <ele>85.1</ele>
      </trkpt>
      <trkpt lat="49.0131" lon="-1.24506">
        <ele>84.2</ele>
      </trkpt>
      <trkpt lat="49.01314" lon="-1.24485">
        <ele>83.3</ele>
      </trkpt>
      <trkpt lat="49.0132" lon="-1.24472">
        <ele>82.2</ele>
      </trkpt>
      <trkpt lat="49.01323" lon="-1.24466">
        <ele>81.6</ele>
      </trkpt>
      <trkpt lat="49.0134" lon="-1.24447">
        <ele>79.3</ele>
      </trkpt>
      <trkpt lat="49.01362" lon="-1.24421">
        <ele>77.3</ele>
      </trkpt>
      <trkpt lat="49.01373" lon="-1.24409">
        <ele>76.5</ele>
      </trkpt>
      <trkpt lat="49.01376" lon="-1.24407">
        <ele>76.3</ele>
      </trkpt>
      <trkpt lat="49.01382" lon="-1.24404">
        <ele>75.9</ele>
      </trkpt>
      <trkpt lat="49.0139" lon="-1.244">
        <ele>75.3</ele>
      </trkpt>
      <trkpt lat="49.01392" lon="-1.24399">
        <ele>75.2</ele>
      </trkpt>
      <trkpt lat="49.01409" lon="-1.24395">
        <ele>74.2</ele>
      </trkpt>
      <trkpt lat="49.01428" lon="-1.24392">
        <ele>74</ele>
      </trkpt>
      <trkpt lat="49.01465" lon="-1.24388">
        <ele>74.8</ele>
      </trkpt>
      <trkpt lat="49.01487" lon="-1.24385">
        <ele>75.4</ele>
      </trkpt>
      <trkpt lat="49.0149" lon="-1.24383">
        <ele>75.5</ele>
      </trkpt>
      <trkpt lat="49.01494" lon="-1.2438">
        <ele>75.7</ele>
      </trkpt>
      <trkpt lat="49.01501" lon="-1.24382">
        <ele>75.9</ele>
      </trkpt>
      <trkpt lat="49.01513" lon="-1.24386">
        <ele>76.8</ele>
      </trkpt>
      <trkpt lat="49.01522" lon="-1.24394">
        <ele>77.2</ele>
      </trkpt>
      <trkpt lat="49.01531" lon="-1.24415">
        <ele>77.3</ele>
      </trkpt>
      <trkpt lat="49.01541" lon="-1.24436">
        <ele>77.7</ele>
      </trkpt>
      <trkpt lat="49.01547" lon="-1.24451">
        <ele>78</ele>
      </trkpt>
      <trkpt lat="49.01552" lon="-1.2448">
        <ele>78</ele>
      </trkpt>
      <trkpt lat="49.01566" lon="-1.24532">
        <ele>79</ele>
      </trkpt>
      <trkpt lat="49.01571" lon="-1.2455">
        <ele>79.5</ele>
      </trkpt>
      <trkpt lat="49.01579" lon="-1.2459">
        <ele>80.8</ele>
      </trkpt>
      <trkpt lat="49.01583" lon="-1.24628">
        <ele>82.6</ele>
      </trkpt>
      <trkpt lat="49.01584" lon="-1.24665">
        <ele>84</ele>
      </trkpt>
      <trkpt lat="49.01584" lon="-1.24668">
        <ele>84.1</ele>
      </trkpt>
      <trkpt lat="49.01586" lon="-1.24694">
        <ele>84.1</ele>
      </trkpt>
      <trkpt lat="49.01591" lon="-1.2472">
        <ele>84.5</ele>
      </trkpt>
      <trkpt lat="49.01599" lon="-1.24742">
        <ele>85.6</ele>
      </trkpt>
      <trkpt lat="49.01609" lon="-1.24761">
        <ele>86.7</ele>
      </trkpt>
      <trkpt lat="49.01622" lon="-1.24784">
        <ele>88.1</ele>
      </trkpt>
      <trkpt lat="49.01622" lon="-1.24818">
        <ele>87.3</ele>
      </trkpt>
      <trkpt lat="49.01625" lon="-1.24846">
        <ele>86.8</ele>
      </trkpt>
      <trkpt lat="49.0163" lon="-1.24876">
        <ele>86</ele>
      </trkpt>
      <trkpt lat="49.01637" lon="-1.24911">
        <ele>85.3</ele>
      </trkpt>
      <trkpt lat="49.01643" lon="-1.2494">
        <ele>84.8</ele>
      </trkpt>
      <trkpt lat="49.0165" lon="-1.24975">
        <ele>84</ele>
      </trkpt>
      <trkpt lat="49.01658" lon="-1.25015">
        <ele>83.1</ele>
      </trkpt>
      <trkpt lat="49.01664" lon="-1.25058">
        <ele>81.9</ele>
      </trkpt>
      <trkpt lat="49.01669" lon="-1.25102">
        <ele>80.6</ele>
      </trkpt>
      <trkpt lat="49.01671" lon="-1.25141">
        <ele>79.2</ele>
      </trkpt>
      <trkpt lat="49.01672" lon="-1.25174">
        <ele>78.2</ele>
      </trkpt>
      <trkpt lat="49.0167" lon="-1.25205">
        <ele>78.2</ele>
      </trkpt>
      <trkpt lat="49.0167" lon="-1.25236">
        <ele>78.4</ele>
      </trkpt>
      <trkpt lat="49.01669" lon="-1.25263">
        <ele>79.6</ele>
      </trkpt>
      <trkpt lat="49.0167" lon="-1.25291">
        <ele>82.1</ele>
      </trkpt>
      <trkpt lat="49.01674" lon="-1.25312">
        <ele>84.7</ele>
      </trkpt>
      <trkpt lat="49.01676" lon="-1.2533">
        <ele>86.7</ele>
      </trkpt>
      <trkpt lat="49.01675" lon="-1.25352">
        <ele>87</ele>
      </trkpt>
      <trkpt lat="49.01672" lon="-1.25379">
        <ele>86.7</ele>
      </trkpt>
      <trkpt lat="49.01664" lon="-1.25416">
        <ele>85.4</ele>
      </trkpt>
      <trkpt lat="49.0165" lon="-1.25468">
        <ele>84</ele>
      </trkpt>
      <trkpt lat="49.01636" lon="-1.25503">
        <ele>82.3</ele>
      </trkpt>
      <trkpt lat="49.0162" lon="-1.25534">
        <ele>80.1</ele>
      </trkpt>
      <trkpt lat="49.01604" lon="-1.25561">
        <ele>78</ele>
      </trkpt>
      <trkpt lat="49.0159" lon="-1.25593">
        <ele>76.6</ele>
      </trkpt>
      <trkpt lat="49.01578" lon="-1.25632">
        <ele>76.8</ele>
      </trkpt>
      <trkpt lat="49.01568" lon="-1.25667">
        <ele>77.5</ele>
      </trkpt>
      <trkpt lat="49.01565" lon="-1.25695">
        <ele>76.6</ele>
      </trkpt>
      <trkpt lat="49.01567" lon="-1.25722">
        <ele>76.2</ele>
      </trkpt>
      <trkpt lat="49.01574" lon="-1.25749">
        <ele>76.3</ele>
      </trkpt>
      <trkpt lat="49.01581" lon="-1.25773">
        <ele>76.6</ele>
      </trkpt>
      <trkpt lat="49.01585" lon="-1.25799">
        <ele>76.6</ele>
      </trkpt>
      <trkpt lat="49.01586" lon="-1.25807">
        <ele>76.7</ele>
      </trkpt>
      <trkpt lat="49.01588" lon="-1.25821">
        <ele>76.8</ele>
      </trkpt>
      <trkpt lat="49.0159" lon="-1.25834">
        <ele>77</ele>
      </trkpt>
      <trkpt lat="49.01593" lon="-1.2586">
        <ele>77.3</ele>
      </trkpt>
      <trkpt lat="49.01599" lon="-1.25894">
        <ele>78.1</ele>
      </trkpt>
      <trkpt lat="49.01606" lon="-1.25926">
        <ele>78.9</ele>
      </trkpt>
      <trkpt lat="49.01614" lon="-1.25954">
        <ele>79.4</ele>
      </trkpt>
      <trkpt lat="49.01623" lon="-1.25989">
        <ele>79.9</ele>
      </trkpt>
      <trkpt lat="49.01631" lon="-1.26022">
        <ele>81</ele>
      </trkpt>
      <trkpt lat="49.01638" lon="-1.26048">
        <ele>81.9</ele>
      </trkpt>
      <trkpt lat="49.01643" lon="-1.26079">
        <ele>82.3</ele>
      </trkpt>
      <trkpt lat="49.01645" lon="-1.26105">
        <ele>83.1</ele>
      </trkpt>
      <trkpt lat="49.01645" lon="-1.26135">
        <ele>83.5</ele>
      </trkpt>
      <trkpt lat="49.01644" lon="-1.26173">
        <ele>84.1</ele>
      </trkpt>
      <trkpt lat="49.01642" lon="-1.26228">
        <ele>83.7</ele>
      </trkpt>
      <trkpt lat="49.01641" lon="-1.26278">
        <ele>82.8</ele>
      </trkpt>
      <trkpt lat="49.01638" lon="-1.26325">
        <ele>81.3</ele>
      </trkpt>
      <trkpt lat="49.01637" lon="-1.26332">
        <ele>81.1</ele>
      </trkpt>
      <trkpt lat="49.01636" lon="-1.26371">
        <ele>80.9</ele>
      </trkpt>
      <trkpt lat="49.01635" lon="-1.26408">
        <ele>80.9</ele>
      </trkpt>
      <trkpt lat="49.01636" lon="-1.26436">
        <ele>80.1</ele>
      </trkpt>
      <trkpt lat="49.01642" lon="-1.26463">
        <ele>79.5</ele>
      </trkpt>
      <trkpt lat="49.01649" lon="-1.26496">
        <ele>78.3</ele>
      </trkpt>
      <trkpt lat="49.01657" lon="-1.2653">
        <ele>77.5</ele>
      </trkpt>
      <trkpt lat="49.01665" lon="-1.26564">
        <ele>76.1</ele>
      </trkpt>
      <trkpt lat="49.01672" lon="-1.26603">
        <ele>75.2</ele>
      </trkpt>
      <trkpt lat="49.01688" lon="-1.26767">
        <ele>73.3</ele>
      </trkpt>
      <trkpt lat="49.01687" lon="-1.26782">
        <ele>73.3</ele>
      </trkpt>
      <trkpt lat="49.01686" lon="-1.26792">
        <ele>73.3</ele>
      </trkpt>
      <trkpt lat="49.01681" lon="-1.26808">
        <ele>73</ele>
      </trkpt>
      <trkpt lat="49.01773" lon="-1.26821">
        <ele>80.6</ele>
      </trkpt>
      <trkpt lat="49.01845" lon="-1.26821">
        <ele>88.9</ele>
      </trkpt>
      <trkpt lat="49.01884" lon="-1.26819">
        <ele>92.2</ele>
      </trkpt>
      <trkpt lat="49.01969" lon="-1.26815">
        <ele>97.6</ele>
      </trkpt>
      <trkpt lat="49.02012" lon="-1.26805">
        <ele>99.7</ele>
      </trkpt>
      <trkpt lat="49.02014" lon="-1.26807">
        <ele>99.8</ele>
      </trkpt>
      <trkpt lat="49.02017" lon="-1.26808">
        <ele>99.8</ele>
      </trkpt>
      <trkpt lat="49.02024" lon="-1.26809">
        <ele>100</ele>
      </trkpt>
      <trkpt lat="49.02036" lon="-1.26809">
        <ele>100.4</ele>
      </trkpt>
      <trkpt lat="49.02066" lon="-1.26802">
        <ele>101.5</ele>
      </trkpt>
      <trkpt lat="49.02103" lon="-1.26792">
        <ele>102.7</ele>
      </trkpt>
      <trkpt lat="49.02147" lon="-1.26769">
        <ele>104.5</ele>
      </trkpt>
      <trkpt lat="49.02178" lon="-1.26752">
        <ele>106.3</ele>
      </trkpt>
      <trkpt lat="49.02178" lon="-1.26759">
        <ele>105.9</ele>
      </trkpt>
      <trkpt lat="49.02179" lon="-1.26769">
        <ele>105.4</ele>
      </trkpt>
      <trkpt lat="49.02184" lon="-1.26788">
        <ele>104.5</ele>
      </trkpt>
      <trkpt lat="49.02191" lon="-1.26813">
        <ele>103.5</ele>
      </trkpt>
      <trkpt lat="49.02198" lon="-1.26836">
        <ele>102.8</ele>
      </trkpt>
      <trkpt lat="49.02208" lon="-1.26864">
        <ele>102.5</ele>
      </trkpt>
      <trkpt lat="49.0222" lon="-1.26897">
        <ele>102.4</ele>
      </trkpt>
      <trkpt lat="49.02224" lon="-1.26907">
        <ele>102.4</ele>
      </trkpt>
      <trkpt lat="49.02227" lon="-1.26913">
        <ele>102.4</ele>
      </trkpt>
      <trkpt lat="49.0223" lon="-1.26921">
        <ele>102.5</ele>
      </trkpt>
      <trkpt lat="49.02236" lon="-1.2693">
        <ele>102.8</ele>
      </trkpt>
      <trkpt lat="49.02246" lon="-1.26945">
        <ele>103.3</ele>
      </trkpt>
      <trkpt lat="49.02258" lon="-1.26963">
        <ele>104.1</ele>
      </trkpt>
      <trkpt lat="49.02274" lon="-1.2699">
        <ele>105.2</ele>
      </trkpt>
      <trkpt lat="49.02285" lon="-1.27008">
        <ele>105.7</ele>
      </trkpt>
      <trkpt lat="49.02295" lon="-1.27023">
        <ele>106.1</ele>
      </trkpt>
      <trkpt lat="49.02313" lon="-1.27054">
        <ele>106.8</ele>
      </trkpt>
      <trkpt lat="49.0232" lon="-1.2707">
        <ele>107.1</ele>
      </trkpt>
      <trkpt lat="49.02326" lon="-1.27083">
        <ele>107.4</ele>
      </trkpt>
      <trkpt lat="49.02331" lon="-1.27095">
        <ele>107.5</ele>
      </trkpt>
      <trkpt lat="49.02334" lon="-1.27103">
        <ele>107.6</ele>
      </trkpt>
      <trkpt lat="49.02338" lon="-1.27115">
        <ele>107.6</ele>
      </trkpt>
      <trkpt lat="49.02342" lon="-1.27135">
        <ele>107.5</ele>
      </trkpt>
      <trkpt lat="49.02348" lon="-1.27168">
        <ele>107.2</ele>
      </trkpt>
      <trkpt lat="49.02353" lon="-1.27198">
        <ele>106.6</ele>
      </trkpt>
      <trkpt lat="49.02356" lon="-1.27213">
        <ele>106.3</ele>
      </trkpt>
      <trkpt lat="49.02361" lon="-1.27238">
        <ele>105.8</ele>
      </trkpt>
      <trkpt lat="49.02368" lon="-1.27271">
        <ele>104.8</ele>
      </trkpt>
      <trkpt lat="49.02373" lon="-1.27287">
        <ele>104.3</ele>
      </trkpt>
      <trkpt lat="49.02375" lon="-1.27293">
        <ele>104.2</ele>
      </trkpt>
      <trkpt lat="49.02452" lon="-1.27266">
        <ele>113.7</ele>
      </trkpt>
      <trkpt lat="49.02481" lon="-1.27256">
        <ele>117.5</ele>
      </trkpt>
      <trkpt lat="49.02509" lon="-1.27252">
        <ele>120.6</ele>
      </trkpt>
      <trkpt lat="49.02537" lon="-1.27247">
        <ele>122.6</ele>
      </trkpt>
      <trkpt lat="49.02537" lon="-1.27264">
        <ele>122.5</ele>
      </trkpt>
      <trkpt lat="49.02539" lon="-1.27274">
        <ele>122.5</ele>
      </trkpt>
      <trkpt lat="49.02542" lon="-1.27283">
        <ele>122.6</ele>
      </trkpt>
      <trkpt lat="49.02547" lon="-1.27289">
        <ele>123</ele>
      </trkpt>
      <trkpt lat="49.02565" lon="-1.27296">
        <ele>124.4</ele>
      </trkpt>
      <trkpt lat="49.02591" lon="-1.27302">
        <ele>126.7</ele>
      </trkpt>
      <trkpt lat="49.02602" lon="-1.27295">
        <ele>127.6</ele>
      </trkpt>
      <trkpt lat="49.02613" lon="-1.27286">
        <ele>128.4</ele>
      </trkpt>
      <trkpt lat="49.02625" lon="-1.2728">
        <ele>129.4</ele>
      </trkpt>
      <trkpt lat="49.02645" lon="-1.27274">
        <ele>130.9</ele>
      </trkpt>
      <trkpt lat="49.02662" lon="-1.27271">
        <ele>132.1</ele>
      </trkpt>
      <trkpt lat="49.02695" lon="-1.27267">
        <ele>133.2</ele>
      </trkpt>
      <trkpt lat="49.02734" lon="-1.27262">
        <ele>134.4</ele>
      </trkpt>
      <trkpt lat="49.02737" lon="-1.27237">
        <ele>134.7</ele>
      </trkpt>
      <trkpt lat="49.02739" lon="-1.27214">
        <ele>135</ele>
      </trkpt>
      <trkpt lat="49.02764" lon="-1.27223">
        <ele>135</ele>
      </trkpt>
      <trkpt lat="49.02795" lon="-1.27231">
        <ele>134.1</ele>
      </trkpt>
      <trkpt lat="49.02801" lon="-1.27232">
        <ele>134</ele>
      </trkpt>
      <trkpt lat="49.02826" lon="-1.27236">
        <ele>133.4</ele>
      </trkpt>
      <trkpt lat="49.02834" lon="-1.27239">
        <ele>133</ele>
      </trkpt>
      <trkpt lat="49.02839" lon="-1.27243">
        <ele>132.4</ele>
      </trkpt>
      <trkpt lat="49.02842" lon="-1.27253">
        <ele>131.9</ele>
      </trkpt>
      <trkpt lat="49.02844" lon="-1.2727">
        <ele>131.3</ele>
      </trkpt>
      <trkpt lat="49.02849" lon="-1.27321">
        <ele>129.5</ele>
      </trkpt>
      <trkpt lat="49.02857" lon="-1.2738">
        <ele>126.8</ele>
      </trkpt>
      <trkpt lat="49.02858" lon="-1.27389">
        <ele>126.4</ele>
      </trkpt>
      <trkpt lat="49.0286" lon="-1.27411">
        <ele>125.6</ele>
      </trkpt>
      <trkpt lat="49.02862" lon="-1.27502">
        <ele>124.2</ele>
      </trkpt>
      <trkpt lat="49.02863" lon="-1.27608">
        <ele>122.1</ele>
      </trkpt>
      <trkpt lat="49.02864" lon="-1.27646">
        <ele>120.5</ele>
      </trkpt>
      <trkpt lat="49.02864" lon="-1.27647">
        <ele>120.5</ele>
      </trkpt>
      <trkpt lat="49.02862" lon="-1.27691">
        <ele>119.1</ele>
      </trkpt>
      <trkpt lat="49.02864" lon="-1.27711">
        <ele>118.1</ele>
      </trkpt>
      <trkpt lat="49.02867" lon="-1.27722">
        <ele>117.5</ele>
      </trkpt>
      <trkpt lat="49.02887" lon="-1.27813">
        <ele>115</ele>
      </trkpt>
      <trkpt lat="49.02903" lon="-1.279">
        <ele>111.3</ele>
      </trkpt>
      <trkpt lat="49.02908" lon="-1.27922">
        <ele>110</ele>
      </trkpt>
      <trkpt lat="49.02909" lon="-1.27932">
        <ele>109.5</ele>
      </trkpt>
      <trkpt lat="49.0291" lon="-1.2795">
        <ele>108.7</ele>
      </trkpt>
      <trkpt lat="49.0291" lon="-1.27961">
        <ele>108.3</ele>
      </trkpt>
      <trkpt lat="49.0291" lon="-1.27982">
        <ele>107.6</ele>
      </trkpt>
      <trkpt lat="49.029" lon="-1.27988">
        <ele>108.6</ele>
      </trkpt>
      <trkpt lat="49.02902" lon="-1.27995">
        <ele>108.1</ele>
      </trkpt>
      <trkpt lat="49.02904" lon="-1.28">
        <ele>107.6</ele>
      </trkpt>
      <trkpt lat="49.02906" lon="-1.28006">
        <ele>107.4</ele>
      </trkpt>
      <trkpt lat="49.02904" lon="-1.28044">
        <ele>107.4</ele>
      </trkpt>
      <trkpt lat="49.02903" lon="-1.28078">
        <ele>107.2</ele>
      </trkpt>
      <trkpt lat="49.02901" lon="-1.28124">
        <ele>107.2</ele>
      </trkpt>
      <trkpt lat="49.02897" lon="-1.28155">
        <ele>107.4</ele>
      </trkpt>
      <trkpt lat="49.02892" lon="-1.28205">
        <ele>106.6</ele>
      </trkpt>
      <trkpt lat="49.0289" lon="-1.28232">
        <ele>105.8</ele>
      </trkpt>
      <trkpt lat="49.02885" lon="-1.28234">
        <ele>106.2</ele>
      </trkpt>
      <trkpt lat="49.02882" lon="-1.28252">
        <ele>105.8</ele>
      </trkpt>
      <trkpt lat="49.0288" lon="-1.28273">
        <ele>105.7</ele>
      </trkpt>
      <trkpt lat="49.02878" lon="-1.28301">
        <ele>105.3</ele>
      </trkpt>
      <trkpt lat="49.02875" lon="-1.28327">
        <ele>105.2</ele>
      </trkpt>
      <trkpt lat="49.02868" lon="-1.2837">
        <ele>104.2</ele>
      </trkpt>
      <trkpt lat="49.02858" lon="-1.2842">
        <ele>103.2</ele>
      </trkpt>
      <trkpt lat="49.02854" lon="-1.28421">
        <ele>103.5</ele>
      </trkpt>
      <trkpt lat="49.02847" lon="-1.28425">
        <ele>104.1</ele>
      </trkpt>
      <trkpt lat="49.02836" lon="-1.28435">
        <ele>104.8</ele>
      </trkpt>
      <trkpt lat="49.02783" lon="-1.28491">
        <ele>108</ele>
      </trkpt>
      <trkpt lat="49.02768" lon="-1.28507">
        <ele>108.6</ele>
      </trkpt>
      <trkpt lat="49.02754" lon="-1.28522">
        <ele>109</ele>
      </trkpt>
      <trkpt lat="49.02746" lon="-1.2853">
        <ele>109.5</ele>
      </trkpt>
      <trkpt lat="49.02756" lon="-1.28569">
        <ele>105.4</ele>
      </trkpt>
      <trkpt lat="49.0276" lon="-1.28594">
        <ele>102.9</ele>
      </trkpt>
      <trkpt lat="49.02766" lon="-1.2862">
        <ele>100.2</ele>
      </trkpt>
      <trkpt lat="49.02769" lon="-1.28639">
        <ele>98.3</ele>
      </trkpt>
      <trkpt lat="49.0277" lon="-1.28649">
        <ele>97.4</ele>
      </trkpt>
      <trkpt lat="49.02761" lon="-1.28663">
        <ele>97.3</ele>
      </trkpt>
      <trkpt lat="49.02736" lon="-1.28701">
        <ele>97.2</ele>
      </trkpt>
      <trkpt lat="49.02692" lon="-1.2876">
        <ele>97.1</ele>
      </trkpt>
      <trkpt lat="49.02667" lon="-1.28795">
        <ele>95.6</ele>
      </trkpt>
      <trkpt lat="49.02649" lon="-1.28822">
        <ele>93.8</ele>
      </trkpt>
      <trkpt lat="49.02634" lon="-1.28848">
        <ele>92.6</ele>
      </trkpt>
      <trkpt lat="49.02614" lon="-1.28876">
        <ele>92.3</ele>
      </trkpt>
      <trkpt lat="49.02606" lon="-1.28883">
        <ele>92.3</ele>
      </trkpt>
      <trkpt lat="49.02599" lon="-1.28889">
        <ele>92.2</ele>
      </trkpt>
      <trkpt lat="49.02586" lon="-1.28894">
        <ele>92.5</ele>
      </trkpt>
      <trkpt lat="49.02584" lon="-1.28896">
        <ele>92.5</ele>
      </trkpt>
      <trkpt lat="49.02577" lon="-1.28901">
        <ele>92.1</ele>
      </trkpt>
      <trkpt lat="49.02559" lon="-1.28886">
        <ele>93.1</ele>
      </trkpt>
      <trkpt lat="49.02522" lon="-1.28853">
        <ele>95</ele>
      </trkpt>
      <trkpt lat="49.02511" lon="-1.28886">
        <ele>92.9</ele>
      </trkpt>
      <trkpt lat="49.02494" lon="-1.28936">
        <ele>92.6</ele>
      </trkpt>
      <trkpt lat="49.02486" lon="-1.28956">
        <ele>94.2</ele>
      </trkpt>
      <trkpt lat="49.02476" lon="-1.28954">
        <ele>93.7</ele>
      </trkpt>
      <trkpt lat="49.02452" lon="-1.28947">
        <ele>92</ele>
      </trkpt>
      <trkpt lat="49.0244" lon="-1.2896">
        <ele>93</ele>
      </trkpt>
      <trkpt lat="49.02427" lon="-1.28972">
        <ele>94</ele>
      </trkpt>
      <trkpt lat="49.02413" lon="-1.28988">
        <ele>95.2</ele>
      </trkpt>
      <trkpt lat="49.02397" lon="-1.29012">
        <ele>96.6</ele>
      </trkpt>
      <trkpt lat="49.02385" lon="-1.29034">
        <ele>98.9</ele>
      </trkpt>
      <trkpt lat="49.02379" lon="-1.29056">
        <ele>101.8</ele>
      </trkpt>
      <trkpt lat="49.02377" lon="-1.29061">
        <ele>102.5</ele>
      </trkpt>
      <trkpt lat="49.02373" lon="-1.29084">
        <ele>105.7</ele>
      </trkpt>
      <trkpt lat="49.02366" lon="-1.29134">
        <ele>108.6</ele>
      </trkpt>
      <trkpt lat="49.02359" lon="-1.29161">
        <ele>110</ele>
      </trkpt>
      <trkpt lat="49.02355" lon="-1.29184">
        <ele>110.9</ele>
      </trkpt>
      <trkpt lat="49.02351" lon="-1.2922">
        <ele>112.5</ele>
      </trkpt>
      <trkpt lat="49.02348" lon="-1.29258">
        <ele>114.2</ele>
      </trkpt>
      <trkpt lat="49.02346" lon="-1.29301">
        <ele>116.1</ele>
      </trkpt>
      <trkpt lat="49.02344" lon="-1.29335">
        <ele>117.5</ele>
      </trkpt>
      <trkpt lat="49.02344" lon="-1.29363">
        <ele>119.5</ele>
      </trkpt>
      <trkpt lat="49.02348" lon="-1.29382">
        <ele>121.4</ele>
      </trkpt>
      <trkpt lat="49.02354" lon="-1.29399">
        <ele>123.2</ele>
      </trkpt>
      <trkpt lat="49.02356" lon="-1.29419">
        <ele>124.8</ele>
      </trkpt>
      <trkpt lat="49.02355" lon="-1.2945">
        <ele>125.5</ele>
      </trkpt>
      <trkpt lat="49.02354" lon="-1.29482">
        <ele>126.3</ele>
      </trkpt>
      <trkpt lat="49.02354" lon="-1.29513">
        <ele>127</ele>
      </trkpt>
      <trkpt lat="49.02358" lon="-1.29534">
        <ele>128</ele>
      </trkpt>
      <trkpt lat="49.02367" lon="-1.29556">
        <ele>129.3</ele>
      </trkpt>
      <trkpt lat="49.02376" lon="-1.29573">
        <ele>130.4</ele>
      </trkpt>
      <trkpt lat="49.02381" lon="-1.29593">
        <ele>131.3</ele>
      </trkpt>
      <trkpt lat="49.02382" lon="-1.29618">
        <ele>132.3</ele>
      </trkpt>
      <trkpt lat="49.02381" lon="-1.2963">
        <ele>132.6</ele>
      </trkpt>
      <trkpt lat="49.0238" lon="-1.29644">
        <ele>133</ele>
      </trkpt>
      <trkpt lat="49.0237" lon="-1.29683">
        <ele>133.9</ele>
      </trkpt>
      <trkpt lat="49.02364" lon="-1.29708">
        <ele>134.6</ele>
      </trkpt>
      <trkpt lat="49.0236" lon="-1.29741">
        <ele>135.9</ele>
      </trkpt>
      <trkpt lat="49.0236" lon="-1.2977">
        <ele>136.3</ele>
      </trkpt>
      <trkpt lat="49.0236" lon="-1.29803">
        <ele>136.3</ele>
      </trkpt>
      <trkpt lat="49.02365" lon="-1.29831">
        <ele>136.4</ele>
      </trkpt>
      <trkpt lat="49.02371" lon="-1.29858">
        <ele>136.3</ele>
      </trkpt>
      <trkpt lat="49.02377" lon="-1.29886">
        <ele>136.2</ele>
      </trkpt>
      <trkpt lat="49.02384" lon="-1.29916">
        <ele>135.8</ele>
      </trkpt>
      <trkpt lat="49.02389" lon="-1.29942">
        <ele>135.9</ele>
      </trkpt>
      <trkpt lat="49.02391" lon="-1.2995">
        <ele>135.9</ele>
      </trkpt>
      <trkpt lat="49.02376" lon="-1.29976">
        <ele>136.7</ele>
      </trkpt>
      <trkpt lat="49.02363" lon="-1.30009">
        <ele>137.7</ele>
      </trkpt>
      <trkpt lat="49.02354" lon="-1.3005">
        <ele>138.9</ele>
      </trkpt>
      <trkpt lat="49.02342" lon="-1.30106">
        <ele>140.6</ele>
      </trkpt>
      <trkpt lat="49.02333" lon="-1.30147">
        <ele>141.7</ele>
      </trkpt>
      <trkpt lat="49.02325" lon="-1.30192">
        <ele>141.7</ele>
      </trkpt>
      <trkpt lat="49.02319" lon="-1.30233">
        <ele>142.3</ele>
      </trkpt>
      <trkpt lat="49.02316" lon="-1.30259">
        <ele>142.7</ele>
      </trkpt>
      <trkpt lat="49.02313" lon="-1.30286">
        <ele>142.8</ele>
      </trkpt>
      <trkpt lat="49.02307" lon="-1.30318">
        <ele>143.1</ele>
      </trkpt>
      <trkpt lat="49.02293" lon="-1.30376">
        <ele>143</ele>
      </trkpt>
      <trkpt lat="49.02283" lon="-1.30424">
        <ele>142.9</ele>
      </trkpt>
      <trkpt lat="49.02277" lon="-1.30468">
        <ele>142.4</ele>
      </trkpt>
      <trkpt lat="49.02271" lon="-1.30517">
        <ele>142</ele>
      </trkpt>
      <trkpt lat="49.02263" lon="-1.30577">
        <ele>141.6</ele>
      </trkpt>
      <trkpt lat="49.02261" lon="-1.30603">
        <ele>141.4</ele>
      </trkpt>
      <trkpt lat="49.02264" lon="-1.30616">
        <ele>141.1</ele>
      </trkpt>
      <trkpt lat="49.02269" lon="-1.30627">
        <ele>140.8</ele>
      </trkpt>
      <trkpt lat="49.02257" lon="-1.30673">
        <ele>140.7</ele>
      </trkpt>
      <trkpt lat="49.02246" lon="-1.30713">
        <ele>140.9</ele>
      </trkpt>
      <trkpt lat="49.02228" lon="-1.30788">
        <ele>140.5</ele>
      </trkpt>
      <trkpt lat="49.0222" lon="-1.30819">
        <ele>140.3</ele>
      </trkpt>
      <trkpt lat="49.02178" lon="-1.30993">
        <ele>140.4</ele>
      </trkpt>
      <trkpt lat="49.02176" lon="-1.31005">
        <ele>140.5</ele>
      </trkpt>
      <trkpt lat="49.02168" lon="-1.31044">
        <ele>140.4</ele>
      </trkpt>
      <trkpt lat="49.02164" lon="-1.31069">
        <ele>139.9</ele>
      </trkpt>
      <trkpt lat="49.0216" lon="-1.3111">
        <ele>139.5</ele>
      </trkpt>
      <trkpt lat="49.02158" lon="-1.31127">
        <ele>139.5</ele>
      </trkpt>
      <trkpt lat="49.02156" lon="-1.31147">
        <ele>139.4</ele>
      </trkpt>
      <trkpt lat="49.02156" lon="-1.31172">
        <ele>139.4</ele>
      </trkpt>
      <trkpt lat="49.0217" lon="-1.31176">
        <ele>139.4</ele>
      </trkpt>
      <trkpt lat="49.02176" lon="-1.31179">
        <ele>138.7</ele>
      </trkpt>
      <trkpt lat="49.02178" lon="-1.31182">
        <ele>138.3</ele>
      </trkpt>
      <trkpt lat="49.02182" lon="-1.31195">
        <ele>137.6</ele>
      </trkpt>
      <trkpt lat="49.02186" lon="-1.31215">
        <ele>136.5</ele>
      </trkpt>
      <trkpt lat="49.02191" lon="-1.31235">
        <ele>135.3</ele>
      </trkpt>
      <trkpt lat="49.02194" lon="-1.31247">
        <ele>134.5</ele>
      </trkpt>
      <trkpt lat="49.022" lon="-1.31262">
        <ele>133.4</ele>
      </trkpt>
      <trkpt lat="49.02214" lon="-1.31292">
        <ele>130.9</ele>
      </trkpt>
      <trkpt lat="49.02232" lon="-1.31336">
        <ele>127.5</ele>
      </trkpt>
      <trkpt lat="49.02259" lon="-1.3139">
        <ele>122.1</ele>
      </trkpt>
      <trkpt lat="49.02261" lon="-1.31395">
        <ele>121.6</ele>
      </trkpt>
      <trkpt lat="49.02282" lon="-1.31438">
        <ele>116.6</ele>
      </trkpt>
      <trkpt lat="49.02295" lon="-1.31456">
        <ele>113.7</ele>
      </trkpt>
      <trkpt lat="49.02319" lon="-1.31478">
        <ele>109.5</ele>
      </trkpt>
      <trkpt lat="49.02333" lon="-1.31494">
        <ele>107.2</ele>
      </trkpt>
      <trkpt lat="49.02353" lon="-1.31527">
        <ele>104.4</ele>
      </trkpt>
      <trkpt lat="49.02379" lon="-1.31567">
        <ele>101.7</ele>
      </trkpt>
      <trkpt lat="49.02386" lon="-1.31575">
        <ele>101.3</ele>
      </trkpt>
      <trkpt lat="49.02391" lon="-1.31577">
        <ele>101</ele>
      </trkpt>
      <trkpt lat="49.02414" lon="-1.31586">
        <ele>100</ele>
      </trkpt>
      <trkpt lat="49.02435" lon="-1.31595">
        <ele>100.5</ele>
      </trkpt>
      <trkpt lat="49.02453" lon="-1.31608">
        <ele>101.1</ele>
      </trkpt>
      <trkpt lat="49.02482" lon="-1.31635">
        <ele>102.6</ele>
      </trkpt>
      <trkpt lat="49.02501" lon="-1.31653">
        <ele>103.9</ele>
      </trkpt>
      <trkpt lat="49.0252" lon="-1.31674">
        <ele>104.4</ele>
      </trkpt>
      <trkpt lat="49.02528" lon="-1.31689">
        <ele>104.7</ele>
      </trkpt>
      <trkpt lat="49.02538" lon="-1.31709">
        <ele>105.1</ele>
      </trkpt>
      <trkpt lat="49.0255" lon="-1.31738">
        <ele>105.9</ele>
      </trkpt>
      <trkpt lat="49.02565" lon="-1.31787">
        <ele>106.8</ele>
      </trkpt>
      <trkpt lat="49.02573" lon="-1.31817">
        <ele>107.3</ele>
      </trkpt>
      <trkpt lat="49.02575" lon="-1.31823">
        <ele>107.4</ele>
      </trkpt>
      <trkpt lat="49.02586" lon="-1.31868">
        <ele>107.2</ele>
      </trkpt>
      <trkpt lat="49.02599" lon="-1.31909">
        <ele>106.5</ele>
      </trkpt>
      <trkpt lat="49.02608" lon="-1.31933">
        <ele>106.1</ele>
      </trkpt>
      <trkpt lat="49.02617" lon="-1.31957">
        <ele>105.7</ele>
      </trkpt>
      <trkpt lat="49.02624" lon="-1.31969">
        <ele>105.7</ele>
      </trkpt>
      <trkpt lat="49.02644" lon="-1.31993">
        <ele>106</ele>
      </trkpt>
      <trkpt lat="49.02659" lon="-1.32012">
        <ele>106.3</ele>
      </trkpt>
      <trkpt lat="49.02669" lon="-1.3203">
        <ele>106.4</ele>
      </trkpt>
      <trkpt lat="49.02686" lon="-1.32058">
        <ele>106.7</ele>
      </trkpt>
      <trkpt lat="49.02695" lon="-1.32077">
        <ele>106.9</ele>
      </trkpt>
      <trkpt lat="49.02715" lon="-1.32118">
        <ele>106.9</ele>
      </trkpt>
      <trkpt lat="49.02728" lon="-1.32148">
        <ele>106.9</ele>
      </trkpt>
      <trkpt lat="49.02744" lon="-1.3218">
        <ele>107.1</ele>
      </trkpt>
      <trkpt lat="49.02757" lon="-1.32204">
        <ele>106.7</ele>
      </trkpt>
      <trkpt lat="49.0276" lon="-1.32212">
        <ele>106.5</ele>
      </trkpt>
      <trkpt lat="49.02764" lon="-1.32234">
        <ele>105.7</ele>
      </trkpt>
      <trkpt lat="49.02769" lon="-1.32266">
        <ele>104.6</ele>
      </trkpt>
      <trkpt lat="49.02779" lon="-1.32301">
        <ele>103.3</ele>
      </trkpt>
      <trkpt lat="49.02786" lon="-1.32325">
        <ele>102.3</ele>
      </trkpt>
      <trkpt lat="49.02792" lon="-1.32347">
        <ele>101.3</ele>
      </trkpt>
      <trkpt lat="49.02796" lon="-1.32367">
        <ele>100.2</ele>
      </trkpt>
      <trkpt lat="49.02797" lon="-1.32368">
        <ele>100.2</ele>
      </trkpt>
      <trkpt lat="49.02802" lon="-1.32375">
        <ele>99.8</ele>
      </trkpt>
      <trkpt lat="49.02819" lon="-1.32402">
        <ele>98.5</ele>
      </trkpt>
      <trkpt lat="49.02844" lon="-1.32444">
        <ele>96.7</ele>
      </trkpt>
      <trkpt lat="49.02864" lon="-1.32474">
        <ele>96.1</ele>
      </trkpt>
      <trkpt lat="49.02874" lon="-1.3249">
        <ele>95.9</ele>
      </trkpt>
      <trkpt lat="49.02879" lon="-1.325">
        <ele>95.7</ele>
      </trkpt>
      <trkpt lat="49.02906" lon="-1.32555">
        <ele>96</ele>
      </trkpt>
      <trkpt lat="49.02922" lon="-1.32582">
        <ele>96.2</ele>
      </trkpt>
      <trkpt lat="49.0292" lon="-1.32597">
        <ele>95.9</ele>
      </trkpt>
      <trkpt lat="49.02917" lon="-1.32628">
        <ele>95.5</ele>
      </trkpt>
      <trkpt lat="49.02913" lon="-1.32657">
        <ele>94.9</ele>
      </trkpt>
      <trkpt lat="49.0291" lon="-1.32683">
        <ele>94.9</ele>
      </trkpt>
      <trkpt lat="49.02908" lon="-1.32716">
        <ele>95.2</ele>
      </trkpt>
      <trkpt lat="49.02906" lon="-1.32755">
        <ele>95.8</ele>
      </trkpt>
      <trkpt lat="49.02905" lon="-1.3281">
        <ele>97.6</ele>
      </trkpt>
      <trkpt lat="49.02903" lon="-1.32846">
        <ele>98.2</ele>
      </trkpt>
      <trkpt lat="49.02902" lon="-1.32861">
        <ele>98.1</ele>
      </trkpt>
      <trkpt lat="49.02901" lon="-1.32872">
        <ele>98</ele>
      </trkpt>
      <trkpt lat="49.02911" lon="-1.32877">
        <ele>98.3</ele>
      </trkpt>
      <trkpt lat="49.02941" lon="-1.32901">
        <ele>98.2</ele>
      </trkpt>
      <trkpt lat="49.02996" lon="-1.32938">
        <ele>97.8</ele>
      </trkpt>
      <trkpt lat="49.0305" lon="-1.32976">
        <ele>97</ele>
      </trkpt>
      <trkpt lat="49.0309" lon="-1.33005">
        <ele>95.7</ele>
      </trkpt>
      <trkpt lat="49.0313" lon="-1.33032">
        <ele>94.2</ele>
      </trkpt>
      <trkpt lat="49.03178" lon="-1.33065">
        <ele>92.8</ele>
      </trkpt>
      <trkpt lat="49.03215" lon="-1.33092">
        <ele>90.6</ele>
      </trkpt>
      <trkpt lat="49.0322" lon="-1.33095">
        <ele>90.2</ele>
      </trkpt>
      <trkpt lat="49.03225" lon="-1.33096">
        <ele>89.8</ele>
      </trkpt>
      <trkpt lat="49.03231" lon="-1.33092">
        <ele>89.5</ele>
      </trkpt>
      <trkpt lat="49.03237" lon="-1.33085">
        <ele>89</ele>
      </trkpt>
      <trkpt lat="49.03246" lon="-1.33077">
        <ele>88.2</ele>
      </trkpt>
      <trkpt lat="49.03255" lon="-1.33072">
        <ele>87.3</ele>
      </trkpt>
      <trkpt lat="49.03268" lon="-1.33066">
        <ele>85.9</ele>
      </trkpt>
      <trkpt lat="49.03267" lon="-1.3305">
        <ele>85.5</ele>
      </trkpt>
      <trkpt lat="49.03267" lon="-1.33038">
        <ele>85.2</ele>
      </trkpt>
      <trkpt lat="49.03268" lon="-1.3303">
        <ele>84.9</ele>
      </trkpt>
      <trkpt lat="49.03272" lon="-1.33022">
        <ele>84.3</ele>
      </trkpt>
      <trkpt lat="49.0328" lon="-1.33015">
        <ele>83.2</ele>
      </trkpt>
      <trkpt lat="49.0329" lon="-1.33011">
        <ele>82</ele>
      </trkpt>
      <trkpt lat="49.03297" lon="-1.33009">
        <ele>81.2</ele>
      </trkpt>
      <trkpt lat="49.03304" lon="-1.3301">
        <ele>80.5</ele>
      </trkpt>
      <trkpt lat="49.03309" lon="-1.33015">
        <ele>80.1</ele>
      </trkpt>
      <trkpt lat="49.03314" lon="-1.33029">
        <ele>80</ele>
      </trkpt>
      <trkpt lat="49.03317" lon="-1.33043">
        <ele>80.2</ele>
      </trkpt>
      <trkpt lat="49.0332" lon="-1.33064">
        <ele>80.6</ele>
      </trkpt>
      <trkpt lat="49.03324" lon="-1.33083">
        <ele>80.9</ele>
      </trkpt>
      <trkpt lat="49.03329" lon="-1.33099">
        <ele>80.7</ele>
      </trkpt>
      <trkpt lat="49.03338" lon="-1.33116">
        <ele>80.6</ele>
      </trkpt>
      <trkpt lat="49.0335" lon="-1.33145">
        <ele>80.4</ele>
      </trkpt>
      <trkpt lat="49.03355" lon="-1.33172">
        <ele>80.5</ele>
      </trkpt>
      <trkpt lat="49.03363" lon="-1.33194">
        <ele>79.7</ele>
      </trkpt>
      <trkpt lat="49.03373" lon="-1.33203">
        <ele>78.8</ele>
      </trkpt>
      <trkpt lat="49.03395" lon="-1.33206">
        <ele>76.6</ele>
      </trkpt>
      <trkpt lat="49.03407" lon="-1.33206">
        <ele>75.5</ele>
      </trkpt>
      <trkpt lat="49.03414" lon="-1.33203">
        <ele>74.9</ele>
      </trkpt>
      <trkpt lat="49.03424" lon="-1.33195">
        <ele>75.6</ele>
      </trkpt>
      <trkpt lat="49.03451" lon="-1.33184">
        <ele>77.8</ele>
      </trkpt>
      <trkpt lat="49.03467" lon="-1.3318">
        <ele>78.9</ele>
      </trkpt>
      <trkpt lat="49.03481" lon="-1.3318">
        <ele>79.9</ele>
      </trkpt>
      <trkpt lat="49.03487" lon="-1.33184">
        <ele>80.3</ele>
      </trkpt>
      <trkpt lat="49.03492" lon="-1.33192">
        <ele>80.7</ele>
      </trkpt>
      <trkpt lat="49.035" lon="-1.33212">
        <ele>81.5</ele>
      </trkpt>
      <trkpt lat="49.03513" lon="-1.33233">
        <ele>82.2</ele>
      </trkpt>
      <trkpt lat="49.03535" lon="-1.33244">
        <ele>82.8</ele>
      </trkpt>
      <trkpt lat="49.03564" lon="-1.33271">
        <ele>83.6</ele>
      </trkpt>
      <trkpt lat="49.03587" lon="-1.33305">
        <ele>84.1</ele>
      </trkpt>
      <trkpt lat="49.03601" lon="-1.3331">
        <ele>84.3</ele>
      </trkpt>
      <trkpt lat="49.03666" lon="-1.33318">
        <ele>85.2</ele>
      </trkpt>
      <trkpt lat="49.03672" lon="-1.3332">
        <ele>85.1</ele>
      </trkpt>
      <trkpt lat="49.03678" lon="-1.33398">
        <ele>83.3</ele>
      </trkpt>
      <trkpt lat="49.03685" lon="-1.33463">
        <ele>80.2</ele>
      </trkpt>
      <trkpt lat="49.03689" lon="-1.335">
        <ele>78</ele>
      </trkpt>
      <trkpt lat="49.0369" lon="-1.33525">
        <ele>77.1</ele>
      </trkpt>
      <trkpt lat="49.03692" lon="-1.33535">
        <ele>76.7</ele>
      </trkpt>
      <trkpt lat="49.03696" lon="-1.33559">
        <ele>75.9</ele>
      </trkpt>
      <trkpt lat="49.03703" lon="-1.33585">
        <ele>74.9</ele>
      </trkpt>
      <trkpt lat="49.03715" lon="-1.33614">
        <ele>74.3</ele>
      </trkpt>
      <trkpt lat="49.03729" lon="-1.33652">
        <ele>73.8</ele>
      </trkpt>
      <trkpt lat="49.0375" lon="-1.33695">
        <ele>74.3</ele>
      </trkpt>
      <trkpt lat="49.03736" lon="-1.33712">
        <ele>74.1</ele>
      </trkpt>
      <trkpt lat="49.03731" lon="-1.3372">
        <ele>74</ele>
      </trkpt>
      <trkpt lat="49.0373" lon="-1.33726">
        <ele>74</ele>
      </trkpt>
      <trkpt lat="49.0373" lon="-1.33735">
        <ele>74.2</ele>
      </trkpt>
      <trkpt lat="49.03733" lon="-1.33743">
        <ele>74.3</ele>
      </trkpt>
      <trkpt lat="49.03735" lon="-1.33759">
        <ele>74.3</ele>
      </trkpt>
      <trkpt lat="49.03728" lon="-1.33775">
        <ele>73.7</ele>
      </trkpt>
      <trkpt lat="49.03724" lon="-1.33781">
        <ele>73.4</ele>
      </trkpt>
      <trkpt lat="49.03718" lon="-1.33786">
        <ele>73.1</ele>
      </trkpt>
      <trkpt lat="49.03713" lon="-1.3379">
        <ele>72.9</ele>
      </trkpt>
      <trkpt lat="49.03694" lon="-1.33827">
        <ele>71.8</ele>
      </trkpt>
      <trkpt lat="49.03684" lon="-1.33848">
        <ele>71.4</ele>
      </trkpt>
      <trkpt lat="49.03676" lon="-1.33881">
        <ele>71.2</ele>
      </trkpt>
      <trkpt lat="49.0367" lon="-1.33921">
        <ele>70.9</ele>
      </trkpt>
      <trkpt lat="49.03664" lon="-1.33959">
        <ele>70</ele>
      </trkpt>
      <trkpt lat="49.03654" lon="-1.33988">
        <ele>69.3</ele>
      </trkpt>
      <trkpt lat="49.03644" lon="-1.34009">
        <ele>68.9</ele>
      </trkpt>
      <trkpt lat="49.03637" lon="-1.34038">
        <ele>68.5</ele>
      </trkpt>
      <trkpt lat="49.03636" lon="-1.34069">
        <ele>68.2</ele>
      </trkpt>
      <trkpt lat="49.03634" lon="-1.34109">
        <ele>67.8</ele>
      </trkpt>
      <trkpt lat="49.03635" lon="-1.3415">
        <ele>67.5</ele>
      </trkpt>
      <trkpt lat="49.03635" lon="-1.34181">
        <ele>67.4</ele>
      </trkpt>
      <trkpt lat="49.03628" lon="-1.34208">
        <ele>67.3</ele>
      </trkpt>
      <trkpt lat="49.03616" lon="-1.34235">
        <ele>66.9</ele>
      </trkpt>
      <trkpt lat="49.03603" lon="-1.3427">
        <ele>66.5</ele>
      </trkpt>
      <trkpt lat="49.03589" lon="-1.3431">
        <ele>66.2</ele>
      </trkpt>
      <trkpt lat="49.03575" lon="-1.34351">
        <ele>65.5</ele>
      </trkpt>
      <trkpt lat="49.03561" lon="-1.34401">
        <ele>64.2</ele>
      </trkpt>
      <trkpt lat="49.03553" lon="-1.34418">
        <ele>63.6</ele>
      </trkpt>
      <trkpt lat="49.03559" lon="-1.34428">
        <ele>63.9</ele>
      </trkpt>
      <trkpt lat="49.0358" lon="-1.34441">
        <ele>65.1</ele>
      </trkpt>
      <trkpt lat="49.03602" lon="-1.34455">
        <ele>66.3</ele>
      </trkpt>
      <trkpt lat="49.0362" lon="-1.34461">
        <ele>67</ele>
      </trkpt>
      <trkpt lat="49.0363" lon="-1.34456">
        <ele>67.4</ele>
      </trkpt>
      <trkpt lat="49.03642" lon="-1.34436">
        <ele>67.9</ele>
      </trkpt>
      <trkpt lat="49.03651" lon="-1.34425">
        <ele>68.3</ele>
      </trkpt>
      <trkpt lat="49.03665" lon="-1.34426">
        <ele>68.9</ele>
      </trkpt>
      <trkpt lat="49.03684" lon="-1.34432">
        <ele>69.9</ele>
      </trkpt>
      <trkpt lat="49.03703" lon="-1.34445">
        <ele>70.9</ele>
      </trkpt>
      <trkpt lat="49.03723" lon="-1.34456">
        <ele>72</ele>
      </trkpt>
      <trkpt lat="49.03733" lon="-1.3446">
        <ele>72.6</ele>
      </trkpt>
      <trkpt lat="49.03745" lon="-1.34467">
        <ele>73.3</ele>
      </trkpt>
      <trkpt lat="49.03755" lon="-1.34467">
        <ele>73.7</ele>
      </trkpt>
      <trkpt lat="49.03765" lon="-1.3447">
        <ele>74</ele>
      </trkpt>
      <trkpt lat="49.03773" lon="-1.34472">
        <ele>74.2</ele>
      </trkpt>
      <trkpt lat="49.03791" lon="-1.34487">
        <ele>74.8</ele>
      </trkpt>
      <trkpt lat="49.03811" lon="-1.34511">
        <ele>75.2</ele>
      </trkpt>
      <trkpt lat="49.03814" lon="-1.34516">
        <ele>75.2</ele>
      </trkpt>
      <trkpt lat="49.0383" lon="-1.34537">
        <ele>75</ele>
      </trkpt>
      <trkpt lat="49.03848" lon="-1.34573">
        <ele>74.1</ele>
      </trkpt>
      <trkpt lat="49.03874" lon="-1.34628">
        <ele>71.3</ele>
      </trkpt>
      <trkpt lat="49.03896" lon="-1.34689">
        <ele>68.5</ele>
      </trkpt>
      <trkpt lat="49.03908" lon="-1.34732">
        <ele>66.1</ele>
      </trkpt>
      <trkpt lat="49.03841" lon="-1.34801">
        <ele>62.5</ele>
      </trkpt>
      <trkpt lat="49.03706" lon="-1.34988">
        <ele>47.9</ele>
      </trkpt>
      <trkpt lat="49.03794" lon="-1.34957">
        <ele>48.9</ele>
      </trkpt>
      <trkpt lat="49.03866" lon="-1.34953">
        <ele>48.2</ele>
      </trkpt>
      <trkpt lat="49.0395" lon="-1.34978">
        <ele>45.2</ele>
      </trkpt>
      <trkpt lat="49.03972" lon="-1.34989">
        <ele>43.7</ele>
      </trkpt>
      <trkpt lat="49.03983" lon="-1.35004">
        <ele>42.6</ele>
      </trkpt>
      <trkpt lat="49.03987" lon="-1.35035">
        <ele>43.6</ele>
      </trkpt>
      <trkpt lat="49.03988" lon="-1.35058">
        <ele>44.5</ele>
      </trkpt>
      <trkpt lat="49.03991" lon="-1.35076">
        <ele>45</ele>
      </trkpt>
      <trkpt lat="49.03929" lon="-1.35114">
        <ele>49.9</ele>
      </trkpt>
      <trkpt lat="49.03948" lon="-1.3519">
        <ele>54.8</ele>
      </trkpt>
      <trkpt lat="49.03962" lon="-1.35232">
        <ele>56.5</ele>
      </trkpt>
      <trkpt lat="49.03974" lon="-1.35263">
        <ele>57.7</ele>
      </trkpt>
      <trkpt lat="49.03991" lon="-1.35307">
        <ele>59.7</ele>
      </trkpt>
      <trkpt lat="49.04004" lon="-1.35335">
        <ele>61</ele>
      </trkpt>
      <trkpt lat="49.04014" lon="-1.35354">
        <ele>61.7</ele>
      </trkpt>
      <trkpt lat="49.04019" lon="-1.35364">
        <ele>62</ele>
      </trkpt>
      <trkpt lat="49.04025" lon="-1.35374">
        <ele>62.4</ele>
      </trkpt>
      <trkpt lat="49.04026" lon="-1.35378">
        <ele>62.5</ele>
      </trkpt>
      <trkpt lat="49.0403" lon="-1.35388">
        <ele>62.9</ele>
      </trkpt>
      <trkpt lat="49.0403" lon="-1.35411">
        <ele>64</ele>
      </trkpt>
      <trkpt lat="49.04031" lon="-1.35452">
        <ele>65.1</ele>
      </trkpt>
      <trkpt lat="49.04033" lon="-1.35491">
        <ele>66</ele>
      </trkpt>
      <trkpt lat="49.04033" lon="-1.35532">
        <ele>66.7</ele>
      </trkpt>
      <trkpt lat="49.04032" lon="-1.3561">
        <ele>68.1</ele>
      </trkpt>
      <trkpt lat="49.04031" lon="-1.35643">
        <ele>68.8</ele>
      </trkpt>
      <trkpt lat="49.0403" lon="-1.35704">
        <ele>69.4</ele>
      </trkpt>
      <trkpt lat="49.04029" lon="-1.35726">
        <ele>69.4</ele>
      </trkpt>
      <trkpt lat="49.04027" lon="-1.35781">
        <ele>69.2</ele>
      </trkpt>
      <trkpt lat="49.04022" lon="-1.35826">
        <ele>68.6</ele>
      </trkpt>
      <trkpt lat="49.04012" lon="-1.35874">
        <ele>68</ele>
      </trkpt>
      <trkpt lat="49.04003" lon="-1.35915">
        <ele>67.2</ele>
      </trkpt>
      <trkpt lat="49.03993" lon="-1.35956">
        <ele>67</ele>
      </trkpt>
      <trkpt lat="49.03987" lon="-1.35981">
        <ele>66.8</ele>
      </trkpt>
      <trkpt lat="49.03985" lon="-1.35986">
        <ele>66.8</ele>
      </trkpt>
      <trkpt lat="49.03979" lon="-1.3601">
        <ele>66.7</ele>
      </trkpt>
      <trkpt lat="49.03978" lon="-1.36036">
        <ele>67.1</ele>
      </trkpt>
      <trkpt lat="49.03982" lon="-1.3606">
        <ele>67.8</ele>
      </trkpt>
      <trkpt lat="49.03983" lon="-1.36075">
        <ele>68.1</ele>
      </trkpt>
      <trkpt lat="49.03981" lon="-1.36092">
        <ele>68.3</ele>
      </trkpt>
      <trkpt lat="49.03975" lon="-1.36114">
        <ele>68.5</ele>
      </trkpt>
      <trkpt lat="49.03967" lon="-1.36137">
        <ele>68.8</ele>
      </trkpt>
      <trkpt lat="49.03962" lon="-1.36154">
        <ele>69.2</ele>
      </trkpt>
      <trkpt lat="49.03961" lon="-1.36158">
        <ele>69.3</ele>
      </trkpt>
      <trkpt lat="49.03961" lon="-1.36188">
        <ele>69.8</ele>
      </trkpt>
      <trkpt lat="49.03962" lon="-1.36223">
        <ele>70.3</ele>
      </trkpt>
      <trkpt lat="49.0396" lon="-1.36255">
        <ele>70.5</ele>
      </trkpt>
      <trkpt lat="49.03955" lon="-1.36313">
        <ele>69.5</ele>
      </trkpt>
      <trkpt lat="49.03952" lon="-1.36368">
        <ele>69.3</ele>
      </trkpt>
      <trkpt lat="49.03983" lon="-1.36361">
        <ele>71.3</ele>
      </trkpt>
      <trkpt lat="49.03989" lon="-1.36362">
        <ele>71.6</ele>
      </trkpt>
      <trkpt lat="49.03987" lon="-1.36371">
        <ele>71.6</ele>
      </trkpt>
      <trkpt lat="49.03988" lon="-1.36416">
        <ele>72.1</ele>
      </trkpt>
      <trkpt lat="49.03988" lon="-1.36483">
        <ele>70.7</ele>
      </trkpt>
      <trkpt lat="49.03992" lon="-1.36542">
        <ele>69.5</ele>
      </trkpt>
      <trkpt lat="49.03997" lon="-1.36577">
        <ele>69</ele>
      </trkpt>
      <trkpt lat="49.03998" lon="-1.36587">
        <ele>68.7</ele>
      </trkpt>
      <trkpt lat="49.041" lon="-1.36607">
        <ele>69.1</ele>
      </trkpt>
      <trkpt lat="49.04147" lon="-1.36598">
        <ele>69.5</ele>
      </trkpt>
      <trkpt lat="49.04222" lon="-1.36575">
        <ele>70.3</ele>
      </trkpt>
      <trkpt lat="49.04243" lon="-1.36748">
        <ele>65.1</ele>
      </trkpt>
      <trkpt lat="49.04246" lon="-1.36896">
        <ele>56.4</ele>
      </trkpt>
      <trkpt lat="49.04196" lon="-1.37017">
        <ele>49.2</ele>
      </trkpt>
      <trkpt lat="49.04155" lon="-1.37095">
        <ele>44.2</ele>
      </trkpt>
      <trkpt lat="49.04089" lon="-1.37061">
        <ele>41.9</ele>
      </trkpt>
      <trkpt lat="49.04036" lon="-1.37132">
        <ele>43.7</ele>
      </trkpt>
      <trkpt lat="49.03861" lon="-1.37226">
        <ele>38</ele>
      </trkpt>
      <trkpt lat="49.03866" lon="-1.37261">
        <ele>39.3</ele>
      </trkpt>
      <trkpt lat="49.03897" lon="-1.37273">
        <ele>43</ele>
      </trkpt>
      <trkpt lat="49.03897" lon="-1.37273">
        <ele>43</ele>
      </trkpt>
      <trkpt lat="49.03947" lon="-1.37239">
        <ele>46.9</ele>
      </trkpt>
      <trkpt lat="49.04003" lon="-1.37205">
        <ele>49.8</ele>
      </trkpt>
      <trkpt lat="49.0403" lon="-1.3719">
        <ele>49.5</ele>
      </trkpt>
      <trkpt lat="49.04036" lon="-1.3719">
        <ele>49.9</ele>
      </trkpt>
      <trkpt lat="49.04044" lon="-1.37195">
        <ele>51</ele>
      </trkpt>
      <trkpt lat="49.04051" lon="-1.37201">
        <ele>52.4</ele>
      </trkpt>
      <trkpt lat="49.04057" lon="-1.37209">
        <ele>54.2</ele>
      </trkpt>
      <trkpt lat="49.04065" lon="-1.37224">
        <ele>57.4</ele>
      </trkpt>
      <trkpt lat="49.04072" lon="-1.37242">
        <ele>61.3</ele>
      </trkpt>
      <trkpt lat="49.04076" lon="-1.37256">
        <ele>63.6</ele>
      </trkpt>
      <trkpt lat="49.04077" lon="-1.37267">
        <ele>64.3</ele>
      </trkpt>
      <trkpt lat="49.04077" lon="-1.37268">
        <ele>64.4</ele>
      </trkpt>
      <trkpt lat="49.04074" lon="-1.37282">
        <ele>65</ele>
      </trkpt>
      <trkpt lat="49.04057" lon="-1.37326">
        <ele>66.3</ele>
      </trkpt>
      <trkpt lat="49.04013" lon="-1.37437">
        <ele>68.4</ele>
      </trkpt>
      <trkpt lat="49.0401" lon="-1.37458">
        <ele>69.4</ele>
      </trkpt>
      <trkpt lat="49.04012" lon="-1.37485">
        <ele>71.2</ele>
      </trkpt>
      <trkpt lat="49.04016" lon="-1.37506">
        <ele>72.7</ele>
      </trkpt>
      <trkpt lat="49.0403" lon="-1.37563">
        <ele>76.8</ele>
      </trkpt>
      <trkpt lat="49.04043" lon="-1.37617">
        <ele>79</ele>
      </trkpt>
      <trkpt lat="49.04061" lon="-1.37688">
        <ele>79.5</ele>
      </trkpt>
      <trkpt lat="49.04071" lon="-1.37734">
        <ele>79.2</ele>
      </trkpt>
      <trkpt lat="49.04079" lon="-1.3778">
        <ele>79.7</ele>
      </trkpt>
      <trkpt lat="49.04079" lon="-1.37784">
        <ele>79.8</ele>
      </trkpt>
      <trkpt lat="49.04085" lon="-1.37828">
        <ele>80.9</ele>
      </trkpt>
      <trkpt lat="49.04091" lon="-1.37879">
        <ele>81.8</ele>
      </trkpt>
      <trkpt lat="49.041" lon="-1.37947">
        <ele>82.7</ele>
      </trkpt>
      <trkpt lat="49.04108" lon="-1.37986">
        <ele>83.2</ele>
      </trkpt>
      <trkpt lat="49.04122" lon="-1.38032">
        <ele>83.5</ele>
      </trkpt>
      <trkpt lat="49.04134" lon="-1.3807">
        <ele>83.6</ele>
      </trkpt>
      <trkpt lat="49.04091" lon="-1.3812">
        <ele>83.5</ele>
      </trkpt>
      <trkpt lat="49.04066" lon="-1.38146">
        <ele>83.3</ele>
      </trkpt>
      <trkpt lat="49.04048" lon="-1.38162">
        <ele>82.7</ele>
      </trkpt>
      <trkpt lat="49.04042" lon="-1.38166">
        <ele>82.5</ele>
      </trkpt>
      <trkpt lat="49.04017" lon="-1.38185">
        <ele>81.1</ele>
      </trkpt>
      <trkpt lat="49.0399" lon="-1.38208">
        <ele>79.3</ele>
      </trkpt>
      <trkpt lat="49.03964" lon="-1.38232">
        <ele>77.8</ele>
      </trkpt>
      <trkpt lat="49.03943" lon="-1.38253">
        <ele>76.5</ele>
      </trkpt>
      <trkpt lat="49.03926" lon="-1.38278">
        <ele>75.3</ele>
      </trkpt>
      <trkpt lat="49.03901" lon="-1.38309">
        <ele>73.7</ele>
      </trkpt>
      <trkpt lat="49.03919" lon="-1.38301">
        <ele>74.3</ele>
      </trkpt>
      <trkpt lat="49.03942" lon="-1.38294">
        <ele>75.2</ele>
      </trkpt>
      <trkpt lat="49.03952" lon="-1.38299">
        <ele>75.3</ele>
      </trkpt>
      <trkpt lat="49.03956" lon="-1.38303">
        <ele>75.3</ele>
      </trkpt>
      <trkpt lat="49.03958" lon="-1.38308">
        <ele>75.2</ele>
      </trkpt>
      <trkpt lat="49.03964" lon="-1.38335">
        <ele>74.7</ele>
      </trkpt>
      <trkpt lat="49.03971" lon="-1.38357">
        <ele>75.2</ele>
      </trkpt>
      <trkpt lat="49.03979" lon="-1.38378">
        <ele>75.9</ele>
      </trkpt>
      <trkpt lat="49.03982" lon="-1.38383">
        <ele>76.1</ele>
      </trkpt>
      <trkpt lat="49.03982" lon="-1.38393">
        <ele>76.3</ele>
      </trkpt>
      <trkpt lat="49.03987" lon="-1.38406">
        <ele>76.9</ele>
      </trkpt>
      <trkpt lat="49.03994" lon="-1.38423">
        <ele>78</ele>
      </trkpt>
      <trkpt lat="49.03996" lon="-1.38427">
        <ele>78.3</ele>
      </trkpt>
      <trkpt lat="49.04014" lon="-1.38476">
        <ele>82.4</ele>
      </trkpt>
      <trkpt lat="49.04018" lon="-1.38487">
        <ele>83.2</ele>
      </trkpt>
      <trkpt lat="49.04048" lon="-1.38556">
        <ele>86.7</ele>
      </trkpt>
      <trkpt lat="49.04071" lon="-1.38611">
        <ele>88.5</ele>
      </trkpt>
      <trkpt lat="49.04084" lon="-1.38653">
        <ele>89</ele>
      </trkpt>
      <trkpt lat="49.04089" lon="-1.3867">
        <ele>89.2</ele>
      </trkpt>
      <trkpt lat="49.04091" lon="-1.38679">
        <ele>89.4</ele>
      </trkpt>
      <trkpt lat="49.04105" lon="-1.38685">
        <ele>89.8</ele>
      </trkpt>
      <trkpt lat="49.04132" lon="-1.38696">
        <ele>90.3</ele>
      </trkpt>
      <trkpt lat="49.04165" lon="-1.38705">
        <ele>90.5</ele>
      </trkpt>
      <trkpt lat="49.0419" lon="-1.38709">
        <ele>90.2</ele>
      </trkpt>
      <trkpt lat="49.04201" lon="-1.38708">
        <ele>90.1</ele>
      </trkpt>
      <trkpt lat="49.04208" lon="-1.38707">
        <ele>90</ele>
      </trkpt>
      <trkpt lat="49.04217" lon="-1.38706">
        <ele>89.9</ele>
      </trkpt>
      <trkpt lat="49.04227" lon="-1.38704">
        <ele>89.8</ele>
      </trkpt>
      <trkpt lat="49.04246" lon="-1.38695">
        <ele>89.7</ele>
      </trkpt>
      <trkpt lat="49.04259" lon="-1.38691">
        <ele>89.8</ele>
      </trkpt>
      <trkpt lat="49.04275" lon="-1.38688">
        <ele>90</ele>
      </trkpt>
      <trkpt lat="49.04311" lon="-1.38673">
        <ele>90.7</ele>
      </trkpt>
      <trkpt lat="49.04357" lon="-1.38655">
        <ele>91.3</ele>
      </trkpt>
      <trkpt lat="49.04361" lon="-1.38681">
        <ele>91.2</ele>
      </trkpt>
      <trkpt lat="49.04368" lon="-1.38724">
        <ele>90.7</ele>
      </trkpt>
      <trkpt lat="49.0437" lon="-1.38742">
        <ele>90.5</ele>
      </trkpt>
      <trkpt lat="49.04376" lon="-1.38784">
        <ele>89.3</ele>
      </trkpt>
      <trkpt lat="49.0438" lon="-1.38818">
        <ele>88.1</ele>
      </trkpt>
      <trkpt lat="49.0438" lon="-1.38821">
        <ele>88</ele>
      </trkpt>
      <trkpt lat="49.0438" lon="-1.38818">
        <ele>88.1</ele>
      </trkpt>
      <trkpt lat="49.04365" lon="-1.38829">
        <ele>87.5</ele>
      </trkpt>
      <trkpt lat="49.04355" lon="-1.38836">
        <ele>87.2</ele>
      </trkpt>
      <trkpt lat="49.04347" lon="-1.38844">
        <ele>86.9</ele>
      </trkpt>
      <trkpt lat="49.04342" lon="-1.38854">
        <ele>86.6</ele>
      </trkpt>
      <trkpt lat="49.04336" lon="-1.38871">
        <ele>86.1</ele>
      </trkpt>
      <trkpt lat="49.04331" lon="-1.38885">
        <ele>85.7</ele>
      </trkpt>
      <trkpt lat="49.04327" lon="-1.38894">
        <ele>85.4</ele>
      </trkpt>
      <trkpt lat="49.04316" lon="-1.3891">
        <ele>84.8</ele>
      </trkpt>
      <trkpt lat="49.043" lon="-1.38933">
        <ele>83.9</ele>
      </trkpt>
      <trkpt lat="49.04293" lon="-1.38944">
        <ele>83.5</ele>
      </trkpt>
      <trkpt lat="49.04288" lon="-1.38954">
        <ele>83.2</ele>
      </trkpt>
      <trkpt lat="49.04283" lon="-1.38968">
        <ele>82.8</ele>
      </trkpt>
      <trkpt lat="49.04277" lon="-1.38985">
        <ele>82.3</ele>
      </trkpt>
      <trkpt lat="49.04268" lon="-1.38986">
        <ele>81.9</ele>
      </trkpt>
      <trkpt lat="49.04255" lon="-1.38995">
        <ele>81.3</ele>
      </trkpt>
      <trkpt lat="49.04238" lon="-1.39006">
        <ele>80.9</ele>
      </trkpt>
      <trkpt lat="49.04227" lon="-1.3901">
        <ele>80.8</ele>
      </trkpt>
      <trkpt lat="49.04223" lon="-1.39013">
        <ele>80.7</ele>
      </trkpt>
      <trkpt lat="49.04197" lon="-1.39034">
        <ele>79.6</ele>
      </trkpt>
      <trkpt lat="49.04181" lon="-1.39052">
        <ele>78.3</ele>
      </trkpt>
      <trkpt lat="49.04183" lon="-1.39055">
        <ele>78.2</ele>
      </trkpt>
      <trkpt lat="49.04192" lon="-1.39077">
        <ele>77.5</ele>
      </trkpt>
      <trkpt lat="49.042" lon="-1.3909">
        <ele>77.5</ele>
      </trkpt>
      <trkpt lat="49.04209" lon="-1.39104">
        <ele>77.7</ele>
      </trkpt>
      <trkpt lat="49.04218" lon="-1.39115">
        <ele>77.9</ele>
      </trkpt>
      <trkpt lat="49.04236" lon="-1.39133">
        <ele>78.2</ele>
      </trkpt>
      <trkpt lat="49.04236" lon="-1.39131">
        <ele>78.3</ele>
      </trkpt>
      <trkpt lat="49.04238" lon="-1.39123">
        <ele>78.5</ele>
      </trkpt>
      <trkpt lat="49.04236" lon="-1.39131">
        <ele>78.3</ele>
      </trkpt>
      <trkpt lat="49.04236" lon="-1.39133">
        <ele>78.2</ele>
      </trkpt>
      <trkpt lat="49.04232" lon="-1.39148">
        <ele>77.7</ele>
      </trkpt>
      <trkpt lat="49.04223" lon="-1.39176">
        <ele>77</ele>
      </trkpt>
      <trkpt lat="49.04213" lon="-1.39209">
        <ele>76.4</ele>
      </trkpt>
      <trkpt lat="49.04197" lon="-1.39254">
        <ele>75.4</ele>
      </trkpt>
      <trkpt lat="49.04192" lon="-1.39269">
        <ele>75.2</ele>
      </trkpt>
      <trkpt lat="49.04193" lon="-1.39278">
        <ele>75.2</ele>
      </trkpt>
      <trkpt lat="49.04196" lon="-1.39283">
        <ele>75.2</ele>
      </trkpt>
      <trkpt lat="49.04198" lon="-1.39285">
        <ele>75.3</ele>
      </trkpt>
      <trkpt lat="49.04215" lon="-1.39302">
        <ele>76</ele>
      </trkpt>
      <trkpt lat="49.04231" lon="-1.39315">
        <ele>76.5</ele>
      </trkpt>
      <trkpt lat="49.04238" lon="-1.3932">
        <ele>76.7</ele>
      </trkpt>
      <trkpt lat="49.04223" lon="-1.39326">
        <ele>76.1</ele>
      </trkpt>
      <trkpt lat="49.04203" lon="-1.39347">
        <ele>75.3</ele>
      </trkpt>
      <trkpt lat="49.04185" lon="-1.39367">
        <ele>74.7</ele>
      </trkpt>
      <trkpt lat="49.04185" lon="-1.39368">
        <ele>74.7</ele>
      </trkpt>
      <trkpt lat="49.04179" lon="-1.39379">
        <ele>74.4</ele>
      </trkpt>
      <trkpt lat="49.04179" lon="-1.39386">
        <ele>74.4</ele>
      </trkpt>
      <trkpt lat="49.04182" lon="-1.39397">
        <ele>74.5</ele>
      </trkpt>
      <trkpt lat="49.04187" lon="-1.39412">
        <ele>74.7</ele>
      </trkpt>
      <trkpt lat="49.04198" lon="-1.39444">
        <ele>74.5</ele>
      </trkpt>
      <trkpt lat="49.04202" lon="-1.39461">
        <ele>74.2</ele>
      </trkpt>
      <trkpt lat="49.04205" lon="-1.39479">
        <ele>73.9</ele>
      </trkpt>
      <trkpt lat="49.04207" lon="-1.3949">
        <ele>73.7</ele>
      </trkpt>
      <trkpt lat="49.04208" lon="-1.39509">
        <ele>73.4</ele>
      </trkpt>
      <trkpt lat="49.04209" lon="-1.39523">
        <ele>73.2</ele>
      </trkpt>
      <trkpt lat="49.04209" lon="-1.39537">
        <ele>73.1</ele>
      </trkpt>
      <trkpt lat="49.04208" lon="-1.39554">
        <ele>72.8</ele>
      </trkpt>
      <trkpt lat="49.04207" lon="-1.39574">
        <ele>72.6</ele>
      </trkpt>
      <trkpt lat="49.04206" lon="-1.39589">
        <ele>72.3</ele>
      </trkpt>
      <trkpt lat="49.04204" lon="-1.39604">
        <ele>71.8</ele>
      </trkpt>
      <trkpt lat="49.0421" lon="-1.39616">
        <ele>71.5</ele>
      </trkpt>
      <trkpt lat="49.04219" lon="-1.39674">
        <ele>69.8</ele>
      </trkpt>
      <trkpt lat="49.04222" lon="-1.39688">
        <ele>69.3</ele>
      </trkpt>
      <trkpt lat="49.04228" lon="-1.39732">
        <ele>68</ele>
      </trkpt>
      <trkpt lat="49.04232" lon="-1.39751">
        <ele>67.5</ele>
      </trkpt>
      <trkpt lat="49.0424" lon="-1.39771">
        <ele>67</ele>
      </trkpt>
      <trkpt lat="49.04249" lon="-1.39807">
        <ele>65.9</ele>
      </trkpt>
      <trkpt lat="49.04257" lon="-1.39846">
        <ele>64.3</ele>
      </trkpt>
      <trkpt lat="49.04272" lon="-1.39895">
        <ele>62</ele>
      </trkpt>
      <trkpt lat="49.04287" lon="-1.39947">
        <ele>59.9</ele>
      </trkpt>
      <trkpt lat="49.04296" lon="-1.39974">
        <ele>58.9</ele>
      </trkpt>
      <trkpt lat="49.04343" lon="-1.40165">
        <ele>53.7</ele>
      </trkpt>
      <trkpt lat="49.0437" lon="-1.40253">
        <ele>50.2</ele>
      </trkpt>
      <trkpt lat="49.04385" lon="-1.40296">
        <ele>48.9</ele>
      </trkpt>
      <trkpt lat="49.0439" lon="-1.40302">
        <ele>48.7</ele>
      </trkpt>
      <trkpt lat="49.04398" lon="-1.40308">
        <ele>48.4</ele>
      </trkpt>
      <trkpt lat="49.04422" lon="-1.40321">
        <ele>48.2</ele>
      </trkpt>
      <trkpt lat="49.04436" lon="-1.40329">
        <ele>48.7</ele>
      </trkpt>
      <trkpt lat="49.04439" lon="-1.40332">
        <ele>48.8</ele>
      </trkpt>
      <trkpt lat="49.04448" lon="-1.4034">
        <ele>48.9</ele>
      </trkpt>
      <trkpt lat="49.04461" lon="-1.40351">
        <ele>49</ele>
      </trkpt>
      <trkpt lat="49.04477" lon="-1.40368">
        <ele>48.9</ele>
      </trkpt>
      <trkpt lat="49.04487" lon="-1.40378">
        <ele>48.9</ele>
      </trkpt>
      <trkpt lat="49.04498" lon="-1.40385">
        <ele>49.1</ele>
      </trkpt>
      <trkpt lat="49.04517" lon="-1.40394">
        <ele>48.5</ele>
      </trkpt>
      <trkpt lat="49.04528" lon="-1.404">
        <ele>48.1</ele>
      </trkpt>
      <trkpt lat="49.04544" lon="-1.40413">
        <ele>47.1</ele>
      </trkpt>
      <trkpt lat="49.04543" lon="-1.40419">
        <ele>46.8</ele>
      </trkpt>
      <trkpt lat="49.04543" lon="-1.40465">
        <ele>43.8</ele>
      </trkpt>
      <trkpt lat="49.04542" lon="-1.40511">
        <ele>40.4</ele>
      </trkpt>
      <trkpt lat="49.04556" lon="-1.40511">
        <ele>39.6</ele>
      </trkpt>
      <trkpt lat="49.04568" lon="-1.40511">
        <ele>38.8</ele>
      </trkpt>
      <trkpt lat="49.04611" lon="-1.40514">
        <ele>36.9</ele>
      </trkpt>
      <trkpt lat="49.04651" lon="-1.40513">
        <ele>36.1</ele>
      </trkpt>
      <trkpt lat="49.04675" lon="-1.40513">
        <ele>35.6</ele>
      </trkpt>
      <trkpt lat="49.04726" lon="-1.40509">
        <ele>34.3</ele>
      </trkpt>
      <trkpt lat="49.04727" lon="-1.40519">
        <ele>33.7</ele>
      </trkpt>
      <trkpt lat="49.0473" lon="-1.40573">
        <ele>30.4</ele>
      </trkpt>
      <trkpt lat="49.04734" lon="-1.40587">
        <ele>29.6</ele>
      </trkpt>
      <trkpt lat="49.04739" lon="-1.40598">
        <ele>29</ele>
      </trkpt>
      <trkpt lat="49.04744" lon="-1.40608">
        <ele>28.5</ele>
      </trkpt>
      <trkpt lat="49.04757" lon="-1.40622">
        <ele>28.4</ele>
      </trkpt>
      <trkpt lat="49.04786" lon="-1.40653">
        <ele>29.9</ele>
      </trkpt>
      <trkpt lat="49.04787" lon="-1.40653">
        <ele>29.9</ele>
      </trkpt>
      <trkpt lat="49.04814" lon="-1.40682">
        <ele>32</ele>
      </trkpt>
      <trkpt lat="49.04832" lon="-1.40709">
        <ele>32.8</ele>
      </trkpt>
      <trkpt lat="49.04839" lon="-1.40725">
        <ele>33.2</ele>
      </trkpt>
      <trkpt lat="49.04844" lon="-1.40741">
        <ele>33.4</ele>
      </trkpt>
      <trkpt lat="49.04846" lon="-1.40761">
        <ele>33.4</ele>
      </trkpt>
      <trkpt lat="49.04846" lon="-1.40774">
        <ele>33.2</ele>
      </trkpt>
      <trkpt lat="49.04845" lon="-1.40791">
        <ele>32.7</ele>
      </trkpt>
      <trkpt lat="49.04844" lon="-1.40798">
        <ele>32.4</ele>
      </trkpt>
      <trkpt lat="49.0484" lon="-1.40819">
        <ele>31.4</ele>
      </trkpt>
      <trkpt lat="49.04839" lon="-1.40838">
        <ele>31.4</ele>
      </trkpt>
      <trkpt lat="49.0484" lon="-1.40853">
        <ele>32.7</ele>
      </trkpt>
      <trkpt lat="49.04841" lon="-1.40871">
        <ele>34.3</ele>
      </trkpt>
      <trkpt lat="49.0484" lon="-1.40892">
        <ele>35.6</ele>
      </trkpt>
      <trkpt lat="49.04838" lon="-1.40906">
        <ele>36.3</ele>
      </trkpt>
      <trkpt lat="49.04832" lon="-1.4093">
        <ele>37.1</ele>
      </trkpt>
      <trkpt lat="49.04824" lon="-1.40959">
        <ele>38.2</ele>
      </trkpt>
      <trkpt lat="49.04815" lon="-1.4099">
        <ele>38.8</ele>
      </trkpt>
      <trkpt lat="49.04805" lon="-1.41013">
        <ele>38.4</ele>
      </trkpt>
      <trkpt lat="49.04795" lon="-1.41035">
        <ele>38</ele>
      </trkpt>
      <trkpt lat="49.04784" lon="-1.41054">
        <ele>36.9</ele>
      </trkpt>
      <trkpt lat="49.04773" lon="-1.41068">
        <ele>35.4</ele>
      </trkpt>
      <trkpt lat="49.04743" lon="-1.41109">
        <ele>33.2</ele>
      </trkpt>
      <trkpt lat="49.04736" lon="-1.41118">
        <ele>33.4</ele>
      </trkpt>
      <trkpt lat="49.04731" lon="-1.41126">
        <ele>33.5</ele>
      </trkpt>
      <trkpt lat="49.0472" lon="-1.41144">
        <ele>33.8</ele>
      </trkpt>
      <trkpt lat="49.04691" lon="-1.41193">
        <ele>34.5</ele>
      </trkpt>
      <trkpt lat="49.04675" lon="-1.41215">
        <ele>35.6</ele>
      </trkpt>
      <trkpt lat="49.04672" lon="-1.41219">
        <ele>35.8</ele>
      </trkpt>
      <trkpt lat="49.04667" lon="-1.41225">
        <ele>36.2</ele>
      </trkpt>
      <trkpt lat="49.04658" lon="-1.41235">
        <ele>37.2</ele>
      </trkpt>
      <trkpt lat="49.04668" lon="-1.41244">
        <ele>39.1</ele>
      </trkpt>
      <trkpt lat="49.04675" lon="-1.41253">
        <ele>41.3</ele>
      </trkpt>
      <trkpt lat="49.04688" lon="-1.41269">
        <ele>44.6</ele>
      </trkpt>
      <trkpt lat="49.04699" lon="-1.41284">
        <ele>47.3</ele>
      </trkpt>
      <trkpt lat="49.04707" lon="-1.41289">
        <ele>48.4</ele>
      </trkpt>
      <trkpt lat="49.04715" lon="-1.4129">
        <ele>48.8</ele>
      </trkpt>
      <trkpt lat="49.0473" lon="-1.41296">
        <ele>50.1</ele>
      </trkpt>
      <trkpt lat="49.04743" lon="-1.41301">
        <ele>51.1</ele>
      </trkpt>
      <trkpt lat="49.04754" lon="-1.41307">
        <ele>52</ele>
      </trkpt>
      <trkpt lat="49.04762" lon="-1.41314">
        <ele>52.9</ele>
      </trkpt>
      <trkpt lat="49.04767" lon="-1.41317">
        <ele>53.2</ele>
      </trkpt>
      <trkpt lat="49.04778" lon="-1.41317">
        <ele>53.6</ele>
      </trkpt>
      <trkpt lat="49.04783" lon="-1.41314">
        <ele>53.6</ele>
      </trkpt>
      <trkpt lat="49.04787" lon="-1.41304">
        <ele>53.2</ele>
      </trkpt>
      <trkpt lat="49.04796" lon="-1.41296">
        <ele>53.2</ele>
      </trkpt>
      <trkpt lat="49.04806" lon="-1.41291">
        <ele>53.5</ele>
      </trkpt>
      <trkpt lat="49.04816" lon="-1.41291">
        <ele>54.1</ele>
      </trkpt>
      <trkpt lat="49.04821" lon="-1.41292">
        <ele>54.3</ele>
      </trkpt>
      <trkpt lat="49.04829" lon="-1.41293">
        <ele>54.8</ele>
      </trkpt>
      <trkpt lat="49.0484" lon="-1.41294">
        <ele>55.8</ele>
      </trkpt>
      <trkpt lat="49.04851" lon="-1.41297">
        <ele>57.2</ele>
      </trkpt>
      <trkpt lat="49.04863" lon="-1.41299">
        <ele>58.7</ele>
      </trkpt>
      <trkpt lat="49.04873" lon="-1.41301">
        <ele>59.9</ele>
      </trkpt>
      <trkpt lat="49.04883" lon="-1.41303">
        <ele>61.2</ele>
      </trkpt>
      <trkpt lat="49.04889" lon="-1.41304">
        <ele>62</ele>
      </trkpt>
      <trkpt lat="49.04893" lon="-1.41305">
        <ele>62.5</ele>
      </trkpt>
      <trkpt lat="49.04903" lon="-1.41305">
        <ele>63.7</ele>
      </trkpt>
      <trkpt lat="49.04913" lon="-1.41303">
        <ele>64.8</ele>
      </trkpt>
      <trkpt lat="49.04915" lon="-1.41277">
        <ele>64.5</ele>
      </trkpt>
      <trkpt lat="49.04917" lon="-1.41269">
        <ele>64.5</ele>
      </trkpt>
      <trkpt lat="49.04922" lon="-1.41263">
        <ele>64.9</ele>
      </trkpt>
      <trkpt lat="49.04925" lon="-1.41255">
        <ele>65.1</ele>
      </trkpt>
      <trkpt lat="49.04928" lon="-1.41246">
        <ele>65.5</ele>
      </trkpt>
      <trkpt lat="49.0493" lon="-1.41229">
        <ele>66.4</ele>
      </trkpt>
      <trkpt lat="49.04932" lon="-1.41222">
        <ele>66.9</ele>
      </trkpt>
      <trkpt lat="49.04935" lon="-1.4122">
        <ele>67.2</ele>
      </trkpt>
      <trkpt lat="49.04938" lon="-1.41225">
        <ele>67.4</ele>
      </trkpt>
      <trkpt lat="49.04957" lon="-1.41234">
        <ele>69.2</ele>
      </trkpt>
      <trkpt lat="49.04974" lon="-1.4124">
        <ele>70.9</ele>
      </trkpt>
      <trkpt lat="49.04978" lon="-1.4124">
        <ele>71.4</ele>
      </trkpt>
      <trkpt lat="49.04986" lon="-1.41241">
        <ele>72.3</ele>
      </trkpt>
      <trkpt lat="49.04998" lon="-1.41242">
        <ele>73.7</ele>
      </trkpt>
      <trkpt lat="49.05003" lon="-1.41243">
        <ele>74.3</ele>
      </trkpt>
      <trkpt lat="49.05004" lon="-1.41246">
        <ele>74.5</ele>
      </trkpt>
      <trkpt lat="49.05003" lon="-1.41261">
        <ele>74.8</ele>
      </trkpt>
      <trkpt lat="49.05004" lon="-1.41287">
        <ele>75.9</ele>
      </trkpt>
      <trkpt lat="49.05006" lon="-1.41292">
        <ele>76.3</ele>
      </trkpt>
      <trkpt lat="49.05022" lon="-1.41305">
        <ele>78.8</ele>
      </trkpt>
      <trkpt lat="49.0503" lon="-1.41308">
        <ele>79.9</ele>
      </trkpt>
      <trkpt lat="49.05034" lon="-1.41306">
        <ele>80.3</ele>
      </trkpt>
      <trkpt lat="49.05036" lon="-1.41304">
        <ele>80.6</ele>
      </trkpt>
      <trkpt lat="49.05041" lon="-1.41294">
        <ele>81</ele>
      </trkpt>
      <trkpt lat="49.05054" lon="-1.41257">
        <ele>81.9</ele>
      </trkpt>
      <trkpt lat="49.05071" lon="-1.41209">
        <ele>82.9</ele>
      </trkpt>
      <trkpt lat="49.05074" lon="-1.41205">
        <ele>83.1</ele>
      </trkpt>
      <trkpt lat="49.05077" lon="-1.41203">
        <ele>83.5</ele>
      </trkpt>
      <trkpt lat="49.05077" lon="-1.41203">
        <ele>83.5</ele>
      </trkpt>
      <trkpt lat="49.05081" lon="-1.41201">
        <ele>84</ele>
      </trkpt>
      <trkpt lat="49.05087" lon="-1.412">
        <ele>84.7</ele>
      </trkpt>
      <trkpt lat="49.05093" lon="-1.41202">
        <ele>85.8</ele>
      </trkpt>
      <trkpt lat="49.05154" lon="-1.41224">
        <ele>96.3</ele>
      </trkpt>
      <trkpt lat="49.0515" lon="-1.41245">
        <ele>96.2</ele>
      </trkpt>
      <trkpt lat="49.05146" lon="-1.41273">
        <ele>95.6</ele>
      </trkpt>
      <trkpt lat="49.0514" lon="-1.41313">
        <ele>94.6</ele>
      </trkpt>
      <trkpt lat="49.05139" lon="-1.41327">
        <ele>94.3</ele>
      </trkpt>
      <trkpt lat="49.05134" lon="-1.41362">
        <ele>93.8</ele>
      </trkpt>
      <trkpt lat="49.05133" lon="-1.41386">
        <ele>93.8</ele>
      </trkpt>
      <trkpt lat="49.05133" lon="-1.41389">
        <ele>93.8</ele>
      </trkpt>
      <trkpt lat="49.05132" lon="-1.4142">
        <ele>93.9</ele>
      </trkpt>
      <trkpt lat="49.05134" lon="-1.41465">
        <ele>94.4</ele>
      </trkpt>
      <trkpt lat="49.05133" lon="-1.41481">
        <ele>94.4</ele>
      </trkpt>
      <trkpt lat="49.0513" lon="-1.41499">
        <ele>94.3</ele>
      </trkpt>
      <trkpt lat="49.05124" lon="-1.41521">
        <ele>93.4</ele>
      </trkpt>
      <trkpt lat="49.05109" lon="-1.41553">
        <ele>91.6</ele>
      </trkpt>
      <trkpt lat="49.05104" lon="-1.41567">
        <ele>90.8</ele>
      </trkpt>
      <trkpt lat="49.05101" lon="-1.41581">
        <ele>90.4</ele>
      </trkpt>
      <trkpt lat="49.05101" lon="-1.4159">
        <ele>90.3</ele>
      </trkpt>
      <trkpt lat="49.051" lon="-1.41603">
        <ele>90.4</ele>
      </trkpt>
      <trkpt lat="49.05102" lon="-1.41637">
        <ele>90.9</ele>
      </trkpt>
      <trkpt lat="49.05103" lon="-1.4166">
        <ele>91.1</ele>
      </trkpt>
      <trkpt lat="49.05103" lon="-1.41678">
        <ele>91.7</ele>
      </trkpt>
      <trkpt lat="49.051" lon="-1.41696">
        <ele>92.4</ele>
      </trkpt>
      <trkpt lat="49.05099" lon="-1.417">
        <ele>92.5</ele>
      </trkpt>
      <trkpt lat="49.05092" lon="-1.4172">
        <ele>93.1</ele>
      </trkpt>
      <trkpt lat="49.05077" lon="-1.4176">
        <ele>93.8</ele>
      </trkpt>
      <trkpt lat="49.05074" lon="-1.41767">
        <ele>93.9</ele>
      </trkpt>
      <trkpt lat="49.05054" lon="-1.4183">
        <ele>94.7</ele>
      </trkpt>
      <trkpt lat="49.05043" lon="-1.41857">
        <ele>95</ele>
      </trkpt>
      <trkpt lat="49.05042" lon="-1.41862">
        <ele>95</ele>
      </trkpt>
      <trkpt lat="49.05031" lon="-1.41885">
        <ele>95.2</ele>
      </trkpt>
      <trkpt lat="49.05009" lon="-1.41915">
        <ele>95.4</ele>
      </trkpt>
      <trkpt lat="49.04963" lon="-1.41973">
        <ele>94</ele>
      </trkpt>
      <trkpt lat="49.04949" lon="-1.41986">
        <ele>93.8</ele>
      </trkpt>
      <trkpt lat="49.04928" lon="-1.42007">
        <ele>93.7</ele>
      </trkpt>
      <trkpt lat="49.04917" lon="-1.42018">
        <ele>93.5</ele>
      </trkpt>
      <trkpt lat="49.04908" lon="-1.42033">
        <ele>92.9</ele>
      </trkpt>
      <trkpt lat="49.04872" lon="-1.4209">
        <ele>92.6</ele>
      </trkpt>
      <trkpt lat="49.04857" lon="-1.42117">
        <ele>92.6</ele>
      </trkpt>
      <trkpt lat="49.04854" lon="-1.42122">
        <ele>92.6</ele>
      </trkpt>
      <trkpt lat="49.04874" lon="-1.42173">
        <ele>95.6</ele>
      </trkpt>
      <trkpt lat="49.049" lon="-1.42239">
        <ele>99.1</ele>
      </trkpt>
      <trkpt lat="49.04941" lon="-1.42343">
        <ele>97.8</ele>
      </trkpt>
      <trkpt lat="49.04964" lon="-1.42403">
        <ele>94.8</ele>
      </trkpt>
      <trkpt lat="49.04972" lon="-1.42424">
        <ele>93.3</ele>
      </trkpt>
      <trkpt lat="49.05032" lon="-1.42572">
        <ele>77.6</ele>
      </trkpt>
      <trkpt lat="49.05034" lon="-1.42579">
        <ele>77.1</ele>
      </trkpt>
      <trkpt lat="49.05034" lon="-1.42584">
        <ele>76.7</ele>
      </trkpt>
      <trkpt lat="49.05034" lon="-1.42586">
        <ele>76.5</ele>
      </trkpt>
      <trkpt lat="49.05034" lon="-1.42589">
        <ele>76.3</ele>
      </trkpt>
      <trkpt lat="49.051" lon="-1.4276">
        <ele>59.7</ele>
      </trkpt>
      <trkpt lat="49.05109" lon="-1.42758">
        <ele>58.7</ele>
      </trkpt>
      <trkpt lat="49.05116" lon="-1.42757">
        <ele>57.9</ele>
      </trkpt>
      <trkpt lat="49.05123" lon="-1.42764">
        <ele>57.1</ele>
      </trkpt>
      <trkpt lat="49.05123" lon="-1.42778">
        <ele>56.9</ele>
      </trkpt>
      <trkpt lat="49.0514" lon="-1.42781">
        <ele>55.3</ele>
      </trkpt>
      <trkpt lat="49.05175" lon="-1.42843">
        <ele>56.3</ele>
      </trkpt>
      <trkpt lat="49.05174" lon="-1.42849">
        <ele>56.6</ele>
      </trkpt>
      <trkpt lat="49.05176" lon="-1.42855">
        <ele>57.6</ele>
      </trkpt>
      <trkpt lat="49.05182" lon="-1.42848">
        <ele>57.9</ele>
      </trkpt>
      <trkpt lat="49.05207" lon="-1.42815">
        <ele>59.2</ele>
      </trkpt>
      <trkpt lat="49.05228" lon="-1.42786">
        <ele>59.9</ele>
      </trkpt>
      <trkpt lat="49.05241" lon="-1.42771">
        <ele>60.1</ele>
      </trkpt>
      <trkpt lat="49.05254" lon="-1.4276">
        <ele>60.6</ele>
      </trkpt>
      <trkpt lat="49.0527" lon="-1.42749">
        <ele>62.8</ele>
      </trkpt>
      <trkpt lat="49.05288" lon="-1.4274">
        <ele>65.3</ele>
      </trkpt>
      <trkpt lat="49.05304" lon="-1.42736">
        <ele>67.6</ele>
      </trkpt>
      <trkpt lat="49.05332" lon="-1.42737">
        <ele>72.6</ele>
      </trkpt>
      <trkpt lat="49.05342" lon="-1.4274">
        <ele>74.3</ele>
      </trkpt>
      <trkpt lat="49.05353" lon="-1.42746">
        <ele>76.6</ele>
      </trkpt>
      <trkpt lat="49.05366" lon="-1.4276">
        <ele>79.6</ele>
      </trkpt>
      <trkpt lat="49.05368" lon="-1.42763">
        <ele>80.3</ele>
      </trkpt>
      <trkpt lat="49.05375" lon="-1.42767">
        <ele>81.4</ele>
      </trkpt>
      <trkpt lat="49.05396" lon="-1.42768">
        <ele>83.9</ele>
      </trkpt>
      <trkpt lat="49.0541" lon="-1.42767">
        <ele>85.4</ele>
      </trkpt>
      <trkpt lat="49.05419" lon="-1.42766">
        <ele>86.2</ele>
      </trkpt>
      <trkpt lat="49.05431" lon="-1.42748">
        <ele>85.9</ele>
      </trkpt>
      <trkpt lat="49.05442" lon="-1.42752">
        <ele>87.8</ele>
      </trkpt>
      <trkpt lat="49.05433" lon="-1.42767">
        <ele>88.1</ele>
      </trkpt>
      <trkpt lat="49.05442" lon="-1.42752">
        <ele>87.8</ele>
      </trkpt>
      <trkpt lat="49.05431" lon="-1.42748">
        <ele>85.9</ele>
      </trkpt>
      <trkpt lat="49.0542" lon="-1.42733">
        <ele>83.1</ele>
      </trkpt>
      <trkpt lat="49.05409" lon="-1.4271">
        <ele>79.5</ele>
      </trkpt>
      <trkpt lat="49.05396" lon="-1.4269">
        <ele>75.5</ele>
      </trkpt>
      <trkpt lat="49.05396" lon="-1.42684">
        <ele>74.8</ele>
      </trkpt>
      <trkpt lat="49.0541" lon="-1.42661">
        <ele>74.9</ele>
      </trkpt>
      <trkpt lat="49.05443" lon="-1.42607">
        <ele>75.1</ele>
      </trkpt>
      <trkpt lat="49.05467" lon="-1.42567">
        <ele>75.6</ele>
      </trkpt>
      <trkpt lat="49.05479" lon="-1.42551">
        <ele>75.7</ele>
      </trkpt>
      <trkpt lat="49.05486" lon="-1.42542">
        <ele>75.6</ele>
      </trkpt>
      <trkpt lat="49.05504" lon="-1.42521">
        <ele>75.7</ele>
      </trkpt>
      <trkpt lat="49.05521" lon="-1.42506">
        <ele>77.1</ele>
      </trkpt>
      <trkpt lat="49.05533" lon="-1.42493">
        <ele>78.3</ele>
      </trkpt>
      <trkpt lat="49.05545" lon="-1.42485">
        <ele>80.4</ele>
      </trkpt>
      <trkpt lat="49.05553" lon="-1.42485">
        <ele>82.3</ele>
      </trkpt>
      <trkpt lat="49.05561" lon="-1.42487">
        <ele>84.5</ele>
      </trkpt>
      <trkpt lat="49.05569" lon="-1.42486">
        <ele>86.3</ele>
      </trkpt>
      <trkpt lat="49.05577" lon="-1.42483">
        <ele>87.9</ele>
      </trkpt>
      <trkpt lat="49.05583" lon="-1.42482">
        <ele>89.4</ele>
      </trkpt>
      <trkpt lat="49.05604" lon="-1.42453">
        <ele>88.4</ele>
      </trkpt>
      <trkpt lat="49.05676" lon="-1.4237">
        <ele>89.8</ele>
      </trkpt>
      <trkpt lat="49.05693" lon="-1.42348">
        <ele>89.4</ele>
      </trkpt>
      <trkpt lat="49.05702" lon="-1.42336">
        <ele>89.7</ele>
      </trkpt>
      <trkpt lat="49.05718" lon="-1.42318">
        <ele>90.2</ele>
      </trkpt>
      <trkpt lat="49.05743" lon="-1.4229">
        <ele>91.6</ele>
      </trkpt>
      <trkpt lat="49.05786" lon="-1.42254">
        <ele>91.3</ele>
      </trkpt>
      <trkpt lat="49.05837" lon="-1.42209">
        <ele>89.2</ele>
      </trkpt>
      <trkpt lat="49.05864" lon="-1.4219">
        <ele>87.6</ele>
      </trkpt>
      <trkpt lat="49.05874" lon="-1.42191">
        <ele>88.1</ele>
      </trkpt>
      <trkpt lat="49.0588" lon="-1.42192">
        <ele>88.5</ele>
      </trkpt>
      <trkpt lat="49.05886" lon="-1.42199">
        <ele>89.3</ele>
      </trkpt>
      <trkpt lat="49.05891" lon="-1.42207">
        <ele>90.2</ele>
      </trkpt>
      <trkpt lat="49.05893" lon="-1.42216">
        <ele>91.2</ele>
      </trkpt>
      <trkpt lat="49.05894" lon="-1.42227">
        <ele>92.1</ele>
      </trkpt>
      <trkpt lat="49.05894" lon="-1.4223">
        <ele>92.5</ele>
      </trkpt>
      <trkpt lat="49.05892" lon="-1.42261">
        <ele>94.9</ele>
      </trkpt>
      <trkpt lat="49.05884" lon="-1.42331">
        <ele>98.7</ele>
      </trkpt>
      <trkpt lat="49.05885" lon="-1.42353">
        <ele>99.6</ele>
      </trkpt>
      <trkpt lat="49.05889" lon="-1.42361">
        <ele>99.9</ele>
      </trkpt>
      <trkpt lat="49.05898" lon="-1.42365">
        <ele>100</ele>
      </trkpt>
      <trkpt lat="49.05892" lon="-1.42447">
        <ele>102.8</ele>
      </trkpt>
      <trkpt lat="49.05882" lon="-1.42541">
        <ele>104</ele>
      </trkpt>
      <trkpt lat="49.05879" lon="-1.42569">
        <ele>104.4</ele>
      </trkpt>
      <trkpt lat="49.0589" lon="-1.42567">
        <ele>104.7</ele>
      </trkpt>
      <trkpt lat="49.05912" lon="-1.42562">
        <ele>105.3</ele>
      </trkpt>
      <trkpt lat="49.0595" lon="-1.42553">
        <ele>106.2</ele>
      </trkpt>
      <trkpt lat="49.05953" lon="-1.42527">
        <ele>105.8</ele>
      </trkpt>
      <trkpt lat="49.0595" lon="-1.42553">
        <ele>106.2</ele>
      </trkpt>
      <trkpt lat="49.06016" lon="-1.42539">
        <ele>107.8</ele>
      </trkpt>
      <trkpt lat="49.06029" lon="-1.42535">
        <ele>108</ele>
      </trkpt>
      <trkpt lat="49.06061" lon="-1.42525">
        <ele>108.5</ele>
      </trkpt>
      <trkpt lat="49.06063" lon="-1.42525">
        <ele>108.6</ele>
      </trkpt>
      <trkpt lat="49.06104" lon="-1.42514">
        <ele>108.6</ele>
      </trkpt>
      <trkpt lat="49.06112" lon="-1.42514">
        <ele>108.4</ele>
      </trkpt>
      <trkpt lat="49.06122" lon="-1.42515">
        <ele>108.2</ele>
      </trkpt>
      <trkpt lat="49.06129" lon="-1.42517">
        <ele>108.1</ele>
      </trkpt>
      <trkpt lat="49.06136" lon="-1.42522">
        <ele>108.1</ele>
      </trkpt>
      <trkpt lat="49.06143" lon="-1.42531">
        <ele>108.1</ele>
      </trkpt>
      <trkpt lat="49.06145" lon="-1.42535">
        <ele>108.1</ele>
      </trkpt>
      <trkpt lat="49.06149" lon="-1.42543">
        <ele>108.2</ele>
      </trkpt>
      <trkpt lat="49.06152" lon="-1.42556">
        <ele>108.5</ele>
      </trkpt>
      <trkpt lat="49.06154" lon="-1.42568">
        <ele>108.7</ele>
      </trkpt>
      <trkpt lat="49.06155" lon="-1.42581">
        <ele>109</ele>
      </trkpt>
      <trkpt lat="49.06161" lon="-1.42634">
        <ele>109</ele>
      </trkpt>
      <trkpt lat="49.06163" lon="-1.4264">
        <ele>109</ele>
      </trkpt>
      <trkpt lat="49.06165" lon="-1.42642">
        <ele>109</ele>
      </trkpt>
      <trkpt lat="49.06193" lon="-1.42682">
        <ele>109.1</ele>
      </trkpt>
      <trkpt lat="49.06207" lon="-1.42703">
        <ele>108.8</ele>
      </trkpt>
      <trkpt lat="49.06203" lon="-1.42723">
        <ele>108.5</ele>
      </trkpt>
      <trkpt lat="49.06207" lon="-1.42733">
        <ele>108.3</ele>
      </trkpt>
      <trkpt lat="49.06213" lon="-1.4276">
        <ele>107.8</ele>
      </trkpt>
      <trkpt lat="49.06225" lon="-1.42814">
        <ele>107</ele>
      </trkpt>
      <trkpt lat="49.06227" lon="-1.42823">
        <ele>106.9</ele>
      </trkpt>
      <trkpt lat="49.0623" lon="-1.42833">
        <ele>106.8</ele>
      </trkpt>
      <trkpt lat="49.06267" lon="-1.42802">
        <ele>108.4</ele>
      </trkpt>
      <trkpt lat="49.06269" lon="-1.428">
        <ele>108.6</ele>
      </trkpt>
      <trkpt lat="49.06289" lon="-1.42785">
        <ele>109.9</ele>
      </trkpt>
      <trkpt lat="49.06313" lon="-1.42769">
        <ele>111.5</ele>
      </trkpt>
      <trkpt lat="49.06319" lon="-1.42765">
        <ele>112</ele>
      </trkpt>
      <trkpt lat="49.06355" lon="-1.42743">
        <ele>114</ele>
      </trkpt>
      <trkpt lat="49.06395" lon="-1.42723">
        <ele>116.2</ele>
      </trkpt>
      <trkpt lat="49.0644" lon="-1.42702">
        <ele>118.4</ele>
      </trkpt>
      <trkpt lat="49.06465" lon="-1.42689">
        <ele>119.5</ele>
      </trkpt>
      <trkpt lat="49.06481" lon="-1.4268">
        <ele>120.1</ele>
      </trkpt>
      <trkpt lat="49.06494" lon="-1.42672">
        <ele>120.7</ele>
      </trkpt>
      <trkpt lat="49.06499" lon="-1.42689">
        <ele>120.7</ele>
      </trkpt>
      <trkpt lat="49.06502" lon="-1.42696">
        <ele>120.8</ele>
      </trkpt>
      <trkpt lat="49.06506" lon="-1.42703">
        <ele>120.9</ele>
      </trkpt>
      <trkpt lat="49.06511" lon="-1.42707">
        <ele>121.1</ele>
      </trkpt>
      <trkpt lat="49.06512" lon="-1.42707">
        <ele>121.2</ele>
      </trkpt>
      <trkpt lat="49.06523" lon="-1.4271">
        <ele>121.7</ele>
      </trkpt>
      <trkpt lat="49.06571" lon="-1.42714">
        <ele>124.2</ele>
      </trkpt>
      <trkpt lat="49.06582" lon="-1.42714">
        <ele>124.8</ele>
      </trkpt>
      <trkpt lat="49.06593" lon="-1.42714">
        <ele>125.1</ele>
      </trkpt>
      <trkpt lat="49.06591" lon="-1.42738">
        <ele>124.5</ele>
      </trkpt>
      <trkpt lat="49.06591" lon="-1.42751">
        <ele>124.3</ele>
      </trkpt>
      <trkpt lat="49.06592" lon="-1.42762">
        <ele>124.3</ele>
      </trkpt>
      <trkpt lat="49.06595" lon="-1.42788">
        <ele>124.4</ele>
      </trkpt>
      <trkpt lat="49.06601" lon="-1.42828">
        <ele>124.4</ele>
      </trkpt>
      <trkpt lat="49.06604" lon="-1.4285">
        <ele>124.1</ele>
      </trkpt>
      <trkpt lat="49.06605" lon="-1.42863">
        <ele>123.8</ele>
      </trkpt>
      <trkpt lat="49.06606" lon="-1.42873">
        <ele>123.6</ele>
      </trkpt>
      <trkpt lat="49.06605" lon="-1.42881">
        <ele>123.4</ele>
      </trkpt>
      <trkpt lat="49.06604" lon="-1.42888">
        <ele>123.2</ele>
      </trkpt>
      <trkpt lat="49.06601" lon="-1.42894">
        <ele>123</ele>
      </trkpt>
      <trkpt lat="49.06596" lon="-1.42902">
        <ele>122.7</ele>
      </trkpt>
      <trkpt lat="49.0659" lon="-1.42914">
        <ele>122.2</ele>
      </trkpt>
      <trkpt lat="49.06588" lon="-1.42921">
        <ele>122</ele>
      </trkpt>
      <trkpt lat="49.06587" lon="-1.4293">
        <ele>121.6</ele>
      </trkpt>
      <trkpt lat="49.06588" lon="-1.42942">
        <ele>121.2</ele>
      </trkpt>
      <trkpt lat="49.06589" lon="-1.42962">
        <ele>120.6</ele>
      </trkpt>
      <trkpt lat="49.06598" lon="-1.43038">
        <ele>120.5</ele>
      </trkpt>
      <trkpt lat="49.066" lon="-1.43063">
        <ele>121</ele>
      </trkpt>
      <trkpt lat="49.06602" lon="-1.43081">
        <ele>121.4</ele>
      </trkpt>
      <trkpt lat="49.06602" lon="-1.43123">
        <ele>121.8</ele>
      </trkpt>
      <trkpt lat="49.06603" lon="-1.43139">
        <ele>122</ele>
      </trkpt>
      <trkpt lat="49.06604" lon="-1.43153">
        <ele>122.1</ele>
      </trkpt>
      <trkpt lat="49.06606" lon="-1.43162">
        <ele>122.2</ele>
      </trkpt>
      <trkpt lat="49.066" lon="-1.43179">
        <ele>122.2</ele>
      </trkpt>
      <trkpt lat="49.06595" lon="-1.43192">
        <ele>122.1</ele>
      </trkpt>
      <trkpt lat="49.06574" lon="-1.43204">
        <ele>121.5</ele>
      </trkpt>
      <trkpt lat="49.06583" lon="-1.43232">
        <ele>122</ele>
      </trkpt>
      <trkpt lat="49.06586" lon="-1.43243">
        <ele>122</ele>
      </trkpt>
      <trkpt lat="49.06606" lon="-1.43311">
        <ele>120.9</ele>
      </trkpt>
      <trkpt lat="49.06619" lon="-1.43355">
        <ele>120.3</ele>
      </trkpt>
      <trkpt lat="49.06643" lon="-1.4344">
        <ele>118.5</ele>
      </trkpt>
      <trkpt lat="49.06645" lon="-1.43451">
        <ele>118.1</ele>
      </trkpt>
      <trkpt lat="49.06646" lon="-1.43458">
        <ele>117.9</ele>
      </trkpt>
      <trkpt lat="49.06645" lon="-1.43464">
        <ele>117.7</ele>
      </trkpt>
      <trkpt lat="49.06647" lon="-1.43474">
        <ele>117.3</ele>
      </trkpt>
      <trkpt lat="49.06682" lon="-1.43582">
        <ele>115.8</ele>
      </trkpt>
      <trkpt lat="49.06687" lon="-1.43597">
        <ele>115.5</ele>
      </trkpt>
      <trkpt lat="49.06688" lon="-1.43603">
        <ele>115.4</ele>
      </trkpt>
      <trkpt lat="49.06687" lon="-1.43611">
        <ele>115.3</ele>
      </trkpt>
      <trkpt lat="49.06679" lon="-1.4368">
        <ele>114.4</ele>
      </trkpt>
      <trkpt lat="49.06673" lon="-1.43729">
        <ele>113.4</ele>
      </trkpt>
      <trkpt lat="49.06672" lon="-1.43763">
        <ele>112.5</ele>
      </trkpt>
      <trkpt lat="49.06673" lon="-1.43795">
        <ele>111.5</ele>
      </trkpt>
      <trkpt lat="49.06672" lon="-1.43809">
        <ele>111</ele>
      </trkpt>
      <trkpt lat="49.06667" lon="-1.43831">
        <ele>110.1</ele>
      </trkpt>
      <trkpt lat="49.06666" lon="-1.43831">
        <ele>110.1</ele>
      </trkpt>
      <trkpt lat="49.06667" lon="-1.43831">
        <ele>110.1</ele>
      </trkpt>
      <trkpt lat="49.06672" lon="-1.43809">
        <ele>111</ele>
      </trkpt>
      <trkpt lat="49.06674" lon="-1.43827">
        <ele>110.5</ele>
      </trkpt>
      <trkpt lat="49.06679" lon="-1.43858">
        <ele>110.8</ele>
      </trkpt>
      <trkpt lat="49.06687" lon="-1.43882">
        <ele>111.4</ele>
      </trkpt>
      <trkpt lat="49.06696" lon="-1.43903">
        <ele>112.2</ele>
      </trkpt>
      <trkpt lat="49.06712" lon="-1.43935">
        <ele>113.1</ele>
      </trkpt>
      <trkpt lat="49.0673" lon="-1.43966">
        <ele>113.9</ele>
      </trkpt>
      <trkpt lat="49.06714" lon="-1.43983">
        <ele>112.9</ele>
      </trkpt>
      <trkpt lat="49.06699" lon="-1.43996">
        <ele>112</ele>
      </trkpt>
      <trkpt lat="49.06678" lon="-1.4401">
        <ele>110.9</ele>
      </trkpt>
      <trkpt lat="49.06666" lon="-1.44028">
        <ele>110.6</ele>
      </trkpt>
      <trkpt lat="49.06647" lon="-1.44059">
        <ele>110.4</ele>
      </trkpt>
      <trkpt lat="49.0664" lon="-1.44071">
        <ele>110.4</ele>
      </trkpt>
      <trkpt lat="49.06616" lon="-1.44103">
        <ele>109.9</ele>
      </trkpt>
      <trkpt lat="49.06612" lon="-1.44109">
        <ele>109.8</ele>
      </trkpt>
      <trkpt lat="49.06611" lon="-1.44116">
        <ele>109.8</ele>
      </trkpt>
      <trkpt lat="49.0661" lon="-1.44126">
        <ele>110</ele>
      </trkpt>
      <trkpt lat="49.0661" lon="-1.44143">
        <ele>110.2</ele>
      </trkpt>
      <trkpt lat="49.0661" lon="-1.4415">
        <ele>110.3</ele>
      </trkpt>
      <trkpt lat="49.06609" lon="-1.4417">
        <ele>110.6</ele>
      </trkpt>
      <trkpt lat="49.06609" lon="-1.44207">
        <ele>111.6</ele>
      </trkpt>
      <trkpt lat="49.06609" lon="-1.4423">
        <ele>112.3</ele>
      </trkpt>
      <trkpt lat="49.06609" lon="-1.44248">
        <ele>112.8</ele>
      </trkpt>
      <trkpt lat="49.06613" lon="-1.44275">
        <ele>114.3</ele>
      </trkpt>
      <trkpt lat="49.0662" lon="-1.44329">
        <ele>117.4</ele>
      </trkpt>
      <trkpt lat="49.06621" lon="-1.44345">
        <ele>118.2</ele>
      </trkpt>
      <trkpt lat="49.06622" lon="-1.44363">
        <ele>119</ele>
      </trkpt>
      <trkpt lat="49.0662" lon="-1.44371">
        <ele>119.2</ele>
      </trkpt>
      <trkpt lat="49.06617" lon="-1.4437">
        <ele>118.9</ele>
      </trkpt>
      <trkpt lat="49.06615" lon="-1.44371">
        <ele>118.8</ele>
      </trkpt>
      <trkpt lat="49.06615" lon="-1.44371">
        <ele>118.8</ele>
      </trkpt>
      <trkpt lat="49.06617" lon="-1.4437">
        <ele>118.9</ele>
      </trkpt>
      <trkpt lat="49.0662" lon="-1.44371">
        <ele>119.2</ele>
      </trkpt>
      <trkpt lat="49.06623" lon="-1.44372">
        <ele>119.5</ele>
      </trkpt>
      <trkpt lat="49.06628" lon="-1.44376">
        <ele>120</ele>
      </trkpt>
      <trkpt lat="49.06629" lon="-1.44377">
        <ele>120.1</ele>
      </trkpt>
      <trkpt lat="49.06632" lon="-1.4438">
        <ele>120.5</ele>
      </trkpt>
      <trkpt lat="49.06634" lon="-1.44383">
        <ele>120.8</ele>
      </trkpt>
      <trkpt lat="49.06636" lon="-1.44386">
        <ele>121.1</ele>
      </trkpt>
      <trkpt lat="49.0664" lon="-1.44388">
        <ele>121.5</ele>
      </trkpt>
      <trkpt lat="49.06645" lon="-1.44388">
        <ele>121.9</ele>
      </trkpt>
      <trkpt lat="49.0665" lon="-1.44385">
        <ele>122.1</ele>
      </trkpt>
      <trkpt lat="49.06657" lon="-1.44377">
        <ele>122.3</ele>
      </trkpt>
      <trkpt lat="49.06661" lon="-1.44369">
        <ele>122.2</ele>
      </trkpt>
      <trkpt lat="49.06662" lon="-1.44363">
        <ele>122.1</ele>
      </trkpt>
      <trkpt lat="49.06666" lon="-1.44351">
        <ele>121.8</ele>
      </trkpt>
      <trkpt lat="49.06692" lon="-1.44334">
        <ele>122.6</ele>
      </trkpt>
      <trkpt lat="49.06722" lon="-1.44318">
        <ele>123.6</ele>
      </trkpt>
      <trkpt lat="49.06743" lon="-1.44307">
        <ele>124.3</ele>
      </trkpt>
      <trkpt lat="49.06762" lon="-1.4429">
        <ele>124.4</ele>
      </trkpt>
      <trkpt lat="49.06788" lon="-1.44262">
        <ele>124</ele>
      </trkpt>
      <trkpt lat="49.06802" lon="-1.44245">
        <ele>123.6</ele>
      </trkpt>
      <trkpt lat="49.06831" lon="-1.44211">
        <ele>123.1</ele>
      </trkpt>
      <trkpt lat="49.06851" lon="-1.44191">
        <ele>123</ele>
      </trkpt>
      <trkpt lat="49.06877" lon="-1.44176">
        <ele>123.6</ele>
      </trkpt>
      <trkpt lat="49.06883" lon="-1.44182">
        <ele>124.1</ele>
      </trkpt>
      <trkpt lat="49.06894" lon="-1.44171">
        <ele>124.1</ele>
      </trkpt>
      <trkpt lat="49.06936" lon="-1.44158">
        <ele>126.7</ele>
      </trkpt>
      <trkpt lat="49.06996" lon="-1.44151">
        <ele>132.5</ele>
      </trkpt>
      <trkpt lat="49.07014" lon="-1.44148">
        <ele>132.6</ele>
      </trkpt>
      <trkpt lat="49.07024" lon="-1.44147">
        <ele>132.5</ele>
      </trkpt>
      <trkpt lat="49.0705" lon="-1.44146">
        <ele>132.3</ele>
      </trkpt>
      <trkpt lat="49.07052" lon="-1.44145">
        <ele>132.3</ele>
      </trkpt>
      <trkpt lat="49.07057" lon="-1.44141">
        <ele>132.2</ele>
      </trkpt>
      <trkpt lat="49.07066" lon="-1.44136">
        <ele>132.1</ele>
      </trkpt>
      <trkpt lat="49.07075" lon="-1.44133">
        <ele>132.1</ele>
      </trkpt>
      <trkpt lat="49.07119" lon="-1.44128">
        <ele>132</ele>
      </trkpt>
      <trkpt lat="49.07139" lon="-1.44126">
        <ele>132</ele>
      </trkpt>
      <trkpt lat="49.07162" lon="-1.44126">
        <ele>132</ele>
      </trkpt>
      <trkpt lat="49.07182" lon="-1.44124">
        <ele>132</ele>
      </trkpt>
      <trkpt lat="49.07203" lon="-1.44121">
        <ele>132</ele>
      </trkpt>
      <trkpt lat="49.0723" lon="-1.44117">
        <ele>132.1</ele>
      </trkpt>
      <trkpt lat="49.07249" lon="-1.44114">
        <ele>132.3</ele>
      </trkpt>
      <trkpt lat="49.07248" lon="-1.44091">
        <ele>132.8</ele>
      </trkpt>
      <trkpt lat="49.07249" lon="-1.44032">
        <ele>132.4</ele>
      </trkpt>
      <trkpt lat="49.07253" lon="-1.43968">
        <ele>132.4</ele>
      </trkpt>
      <trkpt lat="49.07255" lon="-1.43941">
        <ele>132.7</ele>
      </trkpt>
      <trkpt lat="49.07254" lon="-1.43935">
        <ele>132.7</ele>
      </trkpt>
      <trkpt lat="49.07248" lon="-1.43934">
        <ele>132.8</ele>
      </trkpt>
      <trkpt lat="49.07229" lon="-1.4393">
        <ele>132.8</ele>
      </trkpt>
      <trkpt lat="49.07193" lon="-1.4392">
        <ele>132.9</ele>
      </trkpt>
      <trkpt lat="49.07146" lon="-1.43906">
        <ele>132.5</ele>
      </trkpt>
      <trkpt lat="49.07136" lon="-1.43901">
        <ele>132.3</ele>
      </trkpt>
      <trkpt lat="49.07132" lon="-1.43896">
        <ele>132.1</ele>
      </trkpt>
      <trkpt lat="49.0713" lon="-1.4389">
        <ele>132</ele>
      </trkpt>
      <trkpt lat="49.07131" lon="-1.43883">
        <ele>132</ele>
      </trkpt>
      <trkpt lat="49.07152" lon="-1.43809">
        <ele>132.4</ele>
      </trkpt>
      <trkpt lat="49.07154" lon="-1.43798">
        <ele>132.1</ele>
      </trkpt>
      <trkpt lat="49.07154" lon="-1.43782">
        <ele>131.7</ele>
      </trkpt>
      <trkpt lat="49.07154" lon="-1.43765">
        <ele>131.2</ele>
      </trkpt>
      <trkpt lat="49.07156" lon="-1.43723">
        <ele>130</ele>
      </trkpt>
      <trkpt lat="49.07155" lon="-1.43703">
        <ele>129.5</ele>
      </trkpt>
      <trkpt lat="49.07155" lon="-1.43697">
        <ele>129.4</ele>
      </trkpt>
      <trkpt lat="49.07153" lon="-1.43689">
        <ele>129.1</ele>
      </trkpt>
      <trkpt lat="49.07148" lon="-1.43681">
        <ele>128.7</ele>
      </trkpt>
      <trkpt lat="49.0714" lon="-1.43673">
        <ele>128.2</ele>
      </trkpt>
      <trkpt lat="49.07124" lon="-1.43655">
        <ele>127</ele>
      </trkpt>
      <trkpt lat="49.07103" lon="-1.43629">
        <ele>125.1</ele>
      </trkpt>
      <trkpt lat="49.07096" lon="-1.43617">
        <ele>124.3</ele>
      </trkpt>
      <trkpt lat="49.0709" lon="-1.43607">
        <ele>123.5</ele>
      </trkpt>
      <trkpt lat="49.07085" lon="-1.43596">
        <ele>122.7</ele>
      </trkpt>
      <trkpt lat="49.07074" lon="-1.43569">
        <ele>121.2</ele>
      </trkpt>
      <trkpt lat="49.07069" lon="-1.43558">
        <ele>120.6</ele>
      </trkpt>
      <trkpt lat="49.07082" lon="-1.43548">
        <ele>120.7</ele>
      </trkpt>
      <trkpt lat="49.07099" lon="-1.43535">
        <ele>121.1</ele>
      </trkpt>
      <trkpt lat="49.07106" lon="-1.43529">
        <ele>121.3</ele>
      </trkpt>
      <trkpt lat="49.07116" lon="-1.43524">
        <ele>121.5</ele>
      </trkpt>
      <trkpt lat="49.07137" lon="-1.43513">
        <ele>122.2</ele>
      </trkpt>
      <trkpt lat="49.07163" lon="-1.435">
        <ele>122.8</ele>
      </trkpt>
      <trkpt lat="49.07187" lon="-1.43488">
        <ele>122.8</ele>
      </trkpt>
      <trkpt lat="49.07222" lon="-1.43469">
        <ele>122.4</ele>
      </trkpt>
      <trkpt lat="49.07269" lon="-1.43445">
        <ele>121</ele>
      </trkpt>
      <trkpt lat="49.07294" lon="-1.43432">
        <ele>120.1</ele>
      </trkpt>
      <trkpt lat="49.07295" lon="-1.43431">
        <ele>120</ele>
      </trkpt>
      <trkpt lat="49.07304" lon="-1.43426">
        <ele>119.7</ele>
      </trkpt>
      <trkpt lat="49.07329" lon="-1.43405">
        <ele>118.4</ele>
      </trkpt>
      <trkpt lat="49.07341" lon="-1.43396">
        <ele>118.4</ele>
      </trkpt>
      <trkpt lat="49.07341" lon="-1.43396">
        <ele>118.4</ele>
      </trkpt>
      <trkpt lat="49.07358" lon="-1.43384">
        <ele>118.7</ele>
      </trkpt>
      <trkpt lat="49.07392" lon="-1.43355">
        <ele>119.7</ele>
      </trkpt>
      <trkpt lat="49.07416" lon="-1.43335">
        <ele>121</ele>
      </trkpt>
      <trkpt lat="49.07421" lon="-1.43332">
        <ele>121.5</ele>
      </trkpt>
      <trkpt lat="49.07422" lon="-1.43326">
        <ele>121.5</ele>
      </trkpt>
      <trkpt lat="49.07423" lon="-1.43322">
        <ele>121.6</ele>
      </trkpt>
      <trkpt lat="49.07426" lon="-1.43319">
        <ele>121.9</ele>
      </trkpt>
      <trkpt lat="49.07436" lon="-1.43308">
        <ele>122.8</ele>
      </trkpt>
      <trkpt lat="49.0744" lon="-1.43302">
        <ele>123.1</ele>
      </trkpt>
      <trkpt lat="49.07443" lon="-1.43296">
        <ele>123.3</ele>
      </trkpt>
      <trkpt lat="49.07444" lon="-1.4329">
        <ele>123.2</ele>
      </trkpt>
      <trkpt lat="49.07442" lon="-1.43276">
        <ele>122.7</ele>
      </trkpt>
      <trkpt lat="49.0744" lon="-1.43267">
        <ele>122.3</ele>
      </trkpt>
      <trkpt lat="49.07439" lon="-1.43256">
        <ele>122</ele>
      </trkpt>
      <trkpt lat="49.07441" lon="-1.43249">
        <ele>122</ele>
      </trkpt>
      <trkpt lat="49.07444" lon="-1.43239">
        <ele>122</ele>
      </trkpt>
      <trkpt lat="49.07448" lon="-1.43234">
        <ele>122.2</ele>
      </trkpt>
      <trkpt lat="49.07456" lon="-1.43222">
        <ele>122.5</ele>
      </trkpt>
      <trkpt lat="49.07476" lon="-1.43198">
        <ele>123.3</ele>
      </trkpt>
      <trkpt lat="49.07498" lon="-1.43177">
        <ele>124.2</ele>
      </trkpt>
      <trkpt lat="49.07555" lon="-1.43129">
        <ele>125.4</ele>
      </trkpt>
      <trkpt lat="49.07561" lon="-1.43124">
        <ele>125.4</ele>
      </trkpt>
      <trkpt lat="49.07571" lon="-1.43115">
        <ele>125.3</ele>
      </trkpt>
      <trkpt lat="49.07577" lon="-1.43109">
        <ele>125.2</ele>
      </trkpt>
      <trkpt lat="49.07581" lon="-1.431">
        <ele>124.9</ele>
      </trkpt>
      <trkpt lat="49.07584" lon="-1.43091">
        <ele>124.5</ele>
      </trkpt>
      <trkpt lat="49.07585" lon="-1.43083">
        <ele>124.1</ele>
      </trkpt>
      <trkpt lat="49.07583" lon="-1.43069">
        <ele>123.8</ele>
      </trkpt>
      <trkpt lat="49.07576" lon="-1.43028">
        <ele>123.1</ele>
      </trkpt>
      <trkpt lat="49.07572" lon="-1.4301">
        <ele>122.7</ele>
      </trkpt>
      <trkpt lat="49.07569" lon="-1.42984">
        <ele>122.5</ele>
      </trkpt>
      <trkpt lat="49.07567" lon="-1.42975">
        <ele>122.4</ele>
      </trkpt>
      <trkpt lat="49.07567" lon="-1.42965">
        <ele>122.4</ele>
      </trkpt>
      <trkpt lat="49.07567" lon="-1.42957">
        <ele>122.4</ele>
      </trkpt>
      <trkpt lat="49.0757" lon="-1.42948">
        <ele>122.5</ele>
      </trkpt>
      <trkpt lat="49.07574" lon="-1.42939">
        <ele>122.7</ele>
      </trkpt>
      <trkpt lat="49.07589" lon="-1.4292">
        <ele>123.3</ele>
      </trkpt>
      <trkpt lat="49.07623" lon="-1.42886">
        <ele>124.9</ele>
      </trkpt>
      <trkpt lat="49.07641" lon="-1.42869">
        <ele>126</ele>
      </trkpt>
      <trkpt lat="49.07647" lon="-1.42863">
        <ele>126.4</ele>
      </trkpt>
      <trkpt lat="49.07652" lon="-1.42857">
        <ele>126.7</ele>
      </trkpt>
      <trkpt lat="49.07653" lon="-1.4285">
        <ele>126.9</ele>
      </trkpt>
      <trkpt lat="49.07671" lon="-1.42842">
        <ele>128.5</ele>
      </trkpt>
      <trkpt lat="49.07693" lon="-1.42841">
        <ele>131.3</ele>
      </trkpt>
      <trkpt lat="49.07709" lon="-1.42843">
        <ele>133.4</ele>
      </trkpt>
      <trkpt lat="49.07725" lon="-1.42857">
        <ele>135.2</ele>
      </trkpt>
      <trkpt lat="49.07744" lon="-1.42881">
        <ele>137.1</ele>
      </trkpt>
      <trkpt lat="49.0775" lon="-1.42889">
        <ele>137.6</ele>
      </trkpt>
      <trkpt lat="49.07758" lon="-1.429">
        <ele>138.3</ele>
      </trkpt>
      <trkpt lat="49.07781" lon="-1.42908">
        <ele>140.6</ele>
      </trkpt>
      <trkpt lat="49.0781" lon="-1.42911">
        <ele>143.6</ele>
      </trkpt>
      <trkpt lat="49.07836" lon="-1.42921">
        <ele>145.8</ele>
      </trkpt>
      <trkpt lat="49.07857" lon="-1.42935">
        <ele>145.8</ele>
      </trkpt>
      <trkpt lat="49.07891" lon="-1.42908">
        <ele>150</ele>
      </trkpt>
      <trkpt lat="49.07898" lon="-1.42901">
        <ele>150.9</ele>
      </trkpt>
      <trkpt lat="49.07915" lon="-1.42891">
        <ele>152.7</ele>
      </trkpt>
      <trkpt lat="49.07937" lon="-1.42878">
        <ele>153.3</ele>
      </trkpt>
      <trkpt lat="49.07948" lon="-1.4287">
        <ele>153.7</ele>
      </trkpt>
      <trkpt lat="49.07965" lon="-1.42853">
        <ele>154.7</ele>
      </trkpt>
      <trkpt lat="49.08006" lon="-1.42808">
        <ele>158.2</ele>
      </trkpt>
      <trkpt lat="49.08009" lon="-1.42803">
        <ele>158.5</ele>
      </trkpt>
      <trkpt lat="49.08036" lon="-1.42769">
        <ele>160.2</ele>
      </trkpt>
      <trkpt lat="49.08048" lon="-1.42751">
        <ele>161.1</ele>
      </trkpt>
      <trkpt lat="49.08064" lon="-1.42734">
        <ele>161</ele>
      </trkpt>
      <trkpt lat="49.08106" lon="-1.42688">
        <ele>161.6</ele>
      </trkpt>
      <trkpt lat="49.08155" lon="-1.42639">
        <ele>164.2</ele>
      </trkpt>
      <trkpt lat="49.08191" lon="-1.42604">
        <ele>165.5</ele>
      </trkpt>
      <trkpt lat="49.08201" lon="-1.4259">
        <ele>165.9</ele>
      </trkpt>
      <trkpt lat="49.08204" lon="-1.42585">
        <ele>166.1</ele>
      </trkpt>
      <trkpt lat="49.08234" lon="-1.42534">
        <ele>166.2</ele>
      </trkpt>
      <trkpt lat="49.08259" lon="-1.42483">
        <ele>165.3</ele>
      </trkpt>
      <trkpt lat="49.08266" lon="-1.42469">
        <ele>164.8</ele>
      </trkpt>
      <trkpt lat="49.08277" lon="-1.42461">
        <ele>163.7</ele>
      </trkpt>
      <trkpt lat="49.0827" lon="-1.42529">
        <ele>163.3</ele>
      </trkpt>
      <trkpt lat="49.08262" lon="-1.42602">
        <ele>162.1</ele>
      </trkpt>
      <trkpt lat="49.08261" lon="-1.42616">
        <ele>161.7</ele>
      </trkpt>
      <trkpt lat="49.08258" lon="-1.4264">
        <ele>160.7</ele>
      </trkpt>
      <trkpt lat="49.08259" lon="-1.42647">
        <ele>160.4</ele>
      </trkpt>
      <trkpt lat="49.08274" lon="-1.42738">
        <ele>157.1</ele>
      </trkpt>
      <trkpt lat="49.08283" lon="-1.42797">
        <ele>154.7</ele>
      </trkpt>
      <trkpt lat="49.08291" lon="-1.4287">
        <ele>151.7</ele>
      </trkpt>
      <trkpt lat="49.08291" lon="-1.42906">
        <ele>150.4</ele>
      </trkpt>
      <trkpt lat="49.08292" lon="-1.42933">
        <ele>150.1</ele>
      </trkpt>
      <trkpt lat="49.08296" lon="-1.42951">
        <ele>150.1</ele>
      </trkpt>
      <trkpt lat="49.08314" lon="-1.43022">
        <ele>150.1</ele>
      </trkpt>
      <trkpt lat="49.08325" lon="-1.43073">
        <ele>149.4</ele>
      </trkpt>
      <trkpt lat="49.08346" lon="-1.43167">
        <ele>144.4</ele>
      </trkpt>
      <trkpt lat="49.08354" lon="-1.43197">
        <ele>140.9</ele>
      </trkpt>
      <trkpt lat="49.08354" lon="-1.43211">
        <ele>139.7</ele>
      </trkpt>
      <trkpt lat="49.08355" lon="-1.43241">
        <ele>137</ele>
      </trkpt>
      <trkpt lat="49.08361" lon="-1.43311">
        <ele>130.8</ele>
      </trkpt>
      <trkpt lat="49.08369" lon="-1.43356">
        <ele>126.8</ele>
      </trkpt>
      <trkpt lat="49.08377" lon="-1.43389">
        <ele>123.9</ele>
      </trkpt>
      <trkpt lat="49.08393" lon="-1.43426">
        <ele>120.1</ele>
      </trkpt>
      <trkpt lat="49.0842" lon="-1.43477">
        <ele>115.3</ele>
      </trkpt>
      <trkpt lat="49.0843" lon="-1.43475">
        <ele>115.1</ele>
      </trkpt>
      <trkpt lat="49.08434" lon="-1.43475">
        <ele>115</ele>
      </trkpt>
      <trkpt lat="49.08435" lon="-1.43491">
        <ele>114.1</ele>
      </trkpt>
      <trkpt lat="49.08437" lon="-1.43501">
        <ele>113.5</ele>
      </trkpt>
      <trkpt lat="49.08444" lon="-1.43529">
        <ele>112.4</ele>
      </trkpt>
      <trkpt lat="49.08452" lon="-1.43556">
        <ele>111.4</ele>
      </trkpt>
      <trkpt lat="49.08461" lon="-1.43588">
        <ele>110.4</ele>
      </trkpt>
      <trkpt lat="49.08465" lon="-1.436">
        <ele>110</ele>
      </trkpt>
      <trkpt lat="49.08474" lon="-1.43624">
        <ele>109.5</ele>
      </trkpt>
      <trkpt lat="49.08493" lon="-1.43672">
        <ele>108.9</ele>
      </trkpt>
      <trkpt lat="49.08513" lon="-1.43721">
        <ele>109.5</ele>
      </trkpt>
      <trkpt lat="49.08532" lon="-1.43766">
        <ele>109.7</ele>
      </trkpt>
      <trkpt lat="49.08533" lon="-1.43768">
        <ele>109.7</ele>
      </trkpt>
      <trkpt lat="49.08552" lon="-1.43811">
        <ele>108.9</ele>
      </trkpt>
      <trkpt lat="49.08554" lon="-1.43822">
        <ele>108.7</ele>
      </trkpt>
      <trkpt lat="49.08556" lon="-1.43833">
        <ele>108.3</ele>
      </trkpt>
      <trkpt lat="49.08557" lon="-1.43845">
        <ele>108</ele>
      </trkpt>
      <trkpt lat="49.08555" lon="-1.43855">
        <ele>107.7</ele>
      </trkpt>
      <trkpt lat="49.08554" lon="-1.43862">
        <ele>107.5</ele>
      </trkpt>
      <trkpt lat="49.08551" lon="-1.43871">
        <ele>107.1</ele>
      </trkpt>
      <trkpt lat="49.08546" lon="-1.4388">
        <ele>106.7</ele>
      </trkpt>
      <trkpt lat="49.08536" lon="-1.4389">
        <ele>106.1</ele>
      </trkpt>
      <trkpt lat="49.08525" lon="-1.439">
        <ele>105.4</ele>
      </trkpt>
      <trkpt lat="49.08506" lon="-1.43916">
        <ele>104.3</ele>
      </trkpt>
      <trkpt lat="49.08485" lon="-1.43932">
        <ele>103.4</ele>
      </trkpt>
      <trkpt lat="49.08471" lon="-1.43945">
        <ele>103.2</ele>
      </trkpt>
      <trkpt lat="49.08466" lon="-1.43953">
        <ele>103.2</ele>
      </trkpt>
      <trkpt lat="49.08463" lon="-1.43959">
        <ele>103.2</ele>
      </trkpt>
      <trkpt lat="49.08462" lon="-1.43965">
        <ele>103.3</ele>
      </trkpt>
      <trkpt lat="49.08461" lon="-1.43972">
        <ele>103.3</ele>
      </trkpt>
      <trkpt lat="49.08461" lon="-1.43982">
        <ele>103.3</ele>
      </trkpt>
      <trkpt lat="49.08463" lon="-1.44001">
        <ele>103.4</ele>
      </trkpt>
      <trkpt lat="49.08465" lon="-1.4402">
        <ele>103.8</ele>
      </trkpt>
      <trkpt lat="49.08465" lon="-1.44031">
        <ele>104</ele>
      </trkpt>
      <trkpt lat="49.08465" lon="-1.4404">
        <ele>104.3</ele>
      </trkpt>
      <trkpt lat="49.08462" lon="-1.44058">
        <ele>105</ele>
      </trkpt>
      <trkpt lat="49.0846" lon="-1.44073">
        <ele>105.6</ele>
      </trkpt>
      <trkpt lat="49.08458" lon="-1.44089">
        <ele>106.3</ele>
      </trkpt>
      <trkpt lat="49.08457" lon="-1.44103">
        <ele>107.3</ele>
      </trkpt>
      <trkpt lat="49.08454" lon="-1.44117">
        <ele>108.4</ele>
      </trkpt>
      <trkpt lat="49.08448" lon="-1.44141">
        <ele>110.5</ele>
      </trkpt>
      <trkpt lat="49.08443" lon="-1.44157">
        <ele>112</ele>
      </trkpt>
      <trkpt lat="49.08437" lon="-1.44179">
        <ele>114.2</ele>
      </trkpt>
      <trkpt lat="49.08431" lon="-1.44208">
        <ele>117</ele>
      </trkpt>
      <trkpt lat="49.08425" lon="-1.44247">
        <ele>120.5</ele>
      </trkpt>
      <trkpt lat="49.08419" lon="-1.44283">
        <ele>122.5</ele>
      </trkpt>
      <trkpt lat="49.08409" lon="-1.4434">
        <ele>125.4</ele>
      </trkpt>
      <trkpt lat="49.08405" lon="-1.44363">
        <ele>126.3</ele>
      </trkpt>
      <trkpt lat="49.08403" lon="-1.44374">
        <ele>126.7</ele>
      </trkpt>
      <trkpt lat="49.08398" lon="-1.44424">
        <ele>128.4</ele>
      </trkpt>
      <trkpt lat="49.08398" lon="-1.44433">
        <ele>128.6</ele>
      </trkpt>
      <trkpt lat="49.08398" lon="-1.44438">
        <ele>128.7</ele>
      </trkpt>
      <trkpt lat="49.08399" lon="-1.4444">
        <ele>128.8</ele>
      </trkpt>
      <trkpt lat="49.084" lon="-1.44454">
        <ele>129.1</ele>
      </trkpt>
      <trkpt lat="49.08402" lon="-1.44471">
        <ele>129.5</ele>
      </trkpt>
      <trkpt lat="49.08404" lon="-1.44484">
        <ele>129.8</ele>
      </trkpt>
      <trkpt lat="49.08406" lon="-1.44497">
        <ele>130.1</ele>
      </trkpt>
      <trkpt lat="49.08408" lon="-1.44509">
        <ele>130.1</ele>
      </trkpt>
      <trkpt lat="49.08409" lon="-1.44525">
        <ele>130.1</ele>
      </trkpt>
      <trkpt lat="49.08411" lon="-1.4454">
        <ele>130.1</ele>
      </trkpt>
      <trkpt lat="49.08412" lon="-1.44553">
        <ele>130.1</ele>
      </trkpt>
      <trkpt lat="49.08414" lon="-1.44563">
        <ele>130.1</ele>
      </trkpt>
      <trkpt lat="49.08412" lon="-1.44565">
        <ele>130.1</ele>
      </trkpt>
      <trkpt lat="49.08403" lon="-1.44574">
        <ele>130.3</ele>
      </trkpt>
      <trkpt lat="49.08396" lon="-1.44583">
        <ele>130.5</ele>
      </trkpt>
      <trkpt lat="49.08381" lon="-1.44598">
        <ele>130.7</ele>
      </trkpt>
      <trkpt lat="49.08376" lon="-1.44606">
        <ele>130.8</ele>
      </trkpt>
      <trkpt lat="49.08369" lon="-1.44617">
        <ele>131</ele>
      </trkpt>
      <trkpt lat="49.08361" lon="-1.44629">
        <ele>131.1</ele>
      </trkpt>
      <trkpt lat="49.0835" lon="-1.44647">
        <ele>131.5</ele>
      </trkpt>
      <trkpt lat="49.08344" lon="-1.44659">
        <ele>131.6</ele>
      </trkpt>
      <trkpt lat="49.08335" lon="-1.44675">
        <ele>131.8</ele>
      </trkpt>
      <trkpt lat="49.08332" lon="-1.44681">
        <ele>131.8</ele>
      </trkpt>
      <trkpt lat="49.08325" lon="-1.44696">
        <ele>131.8</ele>
      </trkpt>
      <trkpt lat="49.08316" lon="-1.44714">
        <ele>131.6</ele>
      </trkpt>
      <trkpt lat="49.08308" lon="-1.44731">
        <ele>131.5</ele>
      </trkpt>
      <trkpt lat="49.08299" lon="-1.44749">
        <ele>131.4</ele>
      </trkpt>
      <trkpt lat="49.08296" lon="-1.44757">
        <ele>131.5</ele>
      </trkpt>
      <trkpt lat="49.08302" lon="-1.44766">
        <ele>131.4</ele>
      </trkpt>
      <trkpt lat="49.08313" lon="-1.44777">
        <ele>131.2</ele>
      </trkpt>
      <trkpt lat="49.08323" lon="-1.44787">
        <ele>130.9</ele>
      </trkpt>
      <trkpt lat="49.08332" lon="-1.44794">
        <ele>130.5</ele>
      </trkpt>
      <trkpt lat="49.08343" lon="-1.44804">
        <ele>129.8</ele>
      </trkpt>
      <trkpt lat="49.08351" lon="-1.4481">
        <ele>129.3</ele>
      </trkpt>
      <trkpt lat="49.08351" lon="-1.4481">
        <ele>129.3</ele>
      </trkpt>
      <trkpt lat="49.08359" lon="-1.44817">
        <ele>128.7</ele>
      </trkpt>
      <trkpt lat="49.08365" lon="-1.44822">
        <ele>128.3</ele>
      </trkpt>
      <trkpt lat="49.0837" lon="-1.44827">
        <ele>127.9</ele>
      </trkpt>
      <trkpt lat="49.08376" lon="-1.44831">
        <ele>127.5</ele>
      </trkpt>
      <trkpt lat="49.08378" lon="-1.44833">
        <ele>127.3</ele>
      </trkpt>
      <trkpt lat="49.08381" lon="-1.44836">
        <ele>127.2</ele>
      </trkpt>
      <trkpt lat="49.08386" lon="-1.44839">
        <ele>127</ele>
      </trkpt>
      <trkpt lat="49.08393" lon="-1.44844">
        <ele>126.6</ele>
      </trkpt>
      <trkpt lat="49.08398" lon="-1.44848">
        <ele>126.4</ele>
      </trkpt>
      <trkpt lat="49.08401" lon="-1.44849">
        <ele>126.3</ele>
      </trkpt>
      <trkpt lat="49.08403" lon="-1.4485">
        <ele>126.2</ele>
      </trkpt>
      <trkpt lat="49.08409" lon="-1.44852">
        <ele>125.9</ele>
      </trkpt>
      <trkpt lat="49.08415" lon="-1.44855">
        <ele>125.6</ele>
      </trkpt>
      <trkpt lat="49.08425" lon="-1.4486">
        <ele>125.3</ele>
      </trkpt>
      <trkpt lat="49.08431" lon="-1.44862">
        <ele>125.2</ele>
      </trkpt>
      <trkpt lat="49.08438" lon="-1.44864">
        <ele>125</ele>
      </trkpt>
      <trkpt lat="49.08449" lon="-1.44871">
        <ele>124.6</ele>
      </trkpt>
      <trkpt lat="49.08454" lon="-1.44873">
        <ele>124.4</ele>
      </trkpt>
      <trkpt lat="49.08458" lon="-1.44877">
        <ele>124.3</ele>
      </trkpt>
      <trkpt lat="49.08461" lon="-1.44879">
        <ele>124.2</ele>
      </trkpt>
      <trkpt lat="49.08463" lon="-1.44881">
        <ele>124.1</ele>
      </trkpt>
      <trkpt lat="49.08467" lon="-1.44884">
        <ele>123.9</ele>
      </trkpt>
      <trkpt lat="49.0847" lon="-1.44888">
        <ele>123.8</ele>
      </trkpt>
      <trkpt lat="49.08475" lon="-1.44893">
        <ele>123.5</ele>
      </trkpt>
      <trkpt lat="49.08482" lon="-1.44901">
        <ele>123.1</ele>
      </trkpt>
      <trkpt lat="49.08488" lon="-1.44907">
        <ele>122.8</ele>
      </trkpt>
      <trkpt lat="49.08492" lon="-1.44913">
        <ele>122.5</ele>
      </trkpt>
      <trkpt lat="49.08498" lon="-1.44919">
        <ele>122.1</ele>
      </trkpt>
      <trkpt lat="49.08501" lon="-1.44921">
        <ele>122</ele>
      </trkpt>
      <trkpt lat="49.08503" lon="-1.44924">
        <ele>121.9</ele>
      </trkpt>
      <trkpt lat="49.08508" lon="-1.44929">
        <ele>121.7</ele>
      </trkpt>
      <trkpt lat="49.08517" lon="-1.4494">
        <ele>121.4</ele>
      </trkpt>
      <trkpt lat="49.08523" lon="-1.44946">
        <ele>121.2</ele>
      </trkpt>
      <trkpt lat="49.08528" lon="-1.4495">
        <ele>121</ele>
      </trkpt>
      <trkpt lat="49.08532" lon="-1.44952">
        <ele>120.9</ele>
      </trkpt>
      <trkpt lat="49.08533" lon="-1.44953">
        <ele>120.8</ele>
      </trkpt>
      <trkpt lat="49.08539" lon="-1.44955">
        <ele>120.6</ele>
      </trkpt>
      <trkpt lat="49.08544" lon="-1.44957">
        <ele>120.4</ele>
      </trkpt>
      <trkpt lat="49.0855" lon="-1.44956">
        <ele>120.2</ele>
      </trkpt>
      <trkpt lat="49.08555" lon="-1.44956">
        <ele>120</ele>
      </trkpt>
      <trkpt lat="49.08561" lon="-1.44954">
        <ele>119.8</ele>
      </trkpt>
      <trkpt lat="49.08567" lon="-1.4495">
        <ele>119.6</ele>
      </trkpt>
      <trkpt lat="49.08573" lon="-1.44945">
        <ele>119.4</ele>
      </trkpt>
      <trkpt lat="49.08577" lon="-1.44941">
        <ele>119.2</ele>
      </trkpt>
      <trkpt lat="49.08584" lon="-1.44948">
        <ele>119</ele>
      </trkpt>
      <trkpt lat="49.08593" lon="-1.44955">
        <ele>118.8</ele>
      </trkpt>
      <trkpt lat="49.08602" lon="-1.44965">
        <ele>118.6</ele>
      </trkpt>
      <trkpt lat="49.08605" lon="-1.4497">
        <ele>118.6</ele>
      </trkpt>
      <trkpt lat="49.08608" lon="-1.44974">
        <ele>118.5</ele>
      </trkpt>
      <trkpt lat="49.08617" lon="-1.44978">
        <ele>118.3</ele>
      </trkpt>
      <trkpt lat="49.08624" lon="-1.44984">
        <ele>118.1</ele>
      </trkpt>
      <trkpt lat="49.0863" lon="-1.44991">
        <ele>117.9</ele>
      </trkpt>
      <trkpt lat="49.08637" lon="-1.44998">
        <ele>117.7</ele>
      </trkpt>
      <trkpt lat="49.08643" lon="-1.45005">
        <ele>117.5</ele>
      </trkpt>
      <trkpt lat="49.08648" lon="-1.4501">
        <ele>117.2</ele>
      </trkpt>
      <trkpt lat="49.08653" lon="-1.45018">
        <ele>116.9</ele>
      </trkpt>
      <trkpt lat="49.08659" lon="-1.45028">
        <ele>116.6</ele>
      </trkpt>
      <trkpt lat="49.08665" lon="-1.45037">
        <ele>116.2</ele>
      </trkpt>
      <trkpt lat="49.08672" lon="-1.45047">
        <ele>115.7</ele>
      </trkpt>
      <trkpt lat="49.08678" lon="-1.45057">
        <ele>115.3</ele>
      </trkpt>
      <trkpt lat="49.08685" lon="-1.45066">
        <ele>114.8</ele>
      </trkpt>
      <trkpt lat="49.08688" lon="-1.4507">
        <ele>114.6</ele>
      </trkpt>
      <trkpt lat="49.08698" lon="-1.45085">
        <ele>113.8</ele>
      </trkpt>
      <trkpt lat="49.08704" lon="-1.45093">
        <ele>113.2</ele>
      </trkpt>
      <trkpt lat="49.08713" lon="-1.45103">
        <ele>112.5</ele>
      </trkpt>
      <trkpt lat="49.08718" lon="-1.4511">
        <ele>112</ele>
      </trkpt>
      <trkpt lat="49.08725" lon="-1.45117">
        <ele>111.4</ele>
      </trkpt>
      <trkpt lat="49.08732" lon="-1.45122">
        <ele>110.9</ele>
      </trkpt>
      <trkpt lat="49.08738" lon="-1.45126">
        <ele>110.5</ele>
      </trkpt>
      <trkpt lat="49.08746" lon="-1.45129">
        <ele>110</ele>
      </trkpt>
      <trkpt lat="49.08753" lon="-1.45131">
        <ele>109.6</ele>
      </trkpt>
      <trkpt lat="49.08761" lon="-1.45132">
        <ele>109.3</ele>
      </trkpt>
      <trkpt lat="49.0877" lon="-1.45133">
        <ele>109</ele>
      </trkpt>
      <trkpt lat="49.08777" lon="-1.45133">
        <ele>108.7</ele>
      </trkpt>
      <trkpt lat="49.08787" lon="-1.45134">
        <ele>108.3</ele>
      </trkpt>
      <trkpt lat="49.08795" lon="-1.45136">
        <ele>108</ele>
      </trkpt>
      <trkpt lat="49.08805" lon="-1.45138">
        <ele>107.6</ele>
      </trkpt>
      <trkpt lat="49.08814" lon="-1.45141">
        <ele>107.2</ele>
      </trkpt>
      <trkpt lat="49.08825" lon="-1.45143">
        <ele>106.8</ele>
      </trkpt>
      <trkpt lat="49.08836" lon="-1.45146">
        <ele>106.4</ele>
      </trkpt>
      <trkpt lat="49.08847" lon="-1.45147">
        <ele>106.1</ele>
      </trkpt>
      <trkpt lat="49.08854" lon="-1.45149">
        <ele>105.9</ele>
      </trkpt>
      <trkpt lat="49.08858" lon="-1.4515">
        <ele>105.8</ele>
      </trkpt>
      <trkpt lat="49.0887" lon="-1.45153">
        <ele>105.5</ele>
      </trkpt>
      <trkpt lat="49.0888" lon="-1.45155">
        <ele>105.2</ele>
      </trkpt>
      <trkpt lat="49.08891" lon="-1.45157">
        <ele>104.8</ele>
      </trkpt>
      <trkpt lat="49.08907" lon="-1.45161">
        <ele>104.4</ele>
      </trkpt>
      <trkpt lat="49.08916" lon="-1.45163">
        <ele>104.1</ele>
      </trkpt>
      <trkpt lat="49.08929" lon="-1.45166">
        <ele>103.9</ele>
      </trkpt>
      <trkpt lat="49.08937" lon="-1.45167">
        <ele>103.8</ele>
      </trkpt>
      <trkpt lat="49.0895" lon="-1.45169">
        <ele>103.6</ele>
      </trkpt>
      <trkpt lat="49.08955" lon="-1.45171">
        <ele>103.5</ele>
      </trkpt>
      <trkpt lat="49.08959" lon="-1.45173">
        <ele>103.4</ele>
      </trkpt>
      <trkpt lat="49.08963" lon="-1.45174">
        <ele>103.3</ele>
      </trkpt>
      <trkpt lat="49.08969" lon="-1.45179">
        <ele>103.1</ele>
      </trkpt>
      <trkpt lat="49.08973" lon="-1.45178">
        <ele>103.1</ele>
      </trkpt>
      <trkpt lat="49.08977" lon="-1.45179">
        <ele>103</ele>
      </trkpt>
      <trkpt lat="49.0898" lon="-1.4518">
        <ele>103</ele>
      </trkpt>
      <trkpt lat="49.08986" lon="-1.45182">
        <ele>102.8</ele>
      </trkpt>
      <trkpt lat="49.09006" lon="-1.45186">
        <ele>102.4</ele>
      </trkpt>
      <trkpt lat="49.09026" lon="-1.45191">
        <ele>101.7</ele>
      </trkpt>
      <trkpt lat="49.0905" lon="-1.45198">
        <ele>100.9</ele>
      </trkpt>
      <trkpt lat="49.09066" lon="-1.45202">
        <ele>100.4</ele>
      </trkpt>
      <trkpt lat="49.09097" lon="-1.45211">
        <ele>99.6</ele>
      </trkpt>
      <trkpt lat="49.09104" lon="-1.45214">
        <ele>99.4</ele>
      </trkpt>
      <trkpt lat="49.09111" lon="-1.45217">
        <ele>99.1</ele>
      </trkpt>
      <trkpt lat="49.09122" lon="-1.4522">
        <ele>98.8</ele>
      </trkpt>
      <trkpt lat="49.09133" lon="-1.45221">
        <ele>98.4</ele>
      </trkpt>
      <trkpt lat="49.09144" lon="-1.45224">
        <ele>98.1</ele>
      </trkpt>
      <trkpt lat="49.09156" lon="-1.45227">
        <ele>97.6</ele>
      </trkpt>
      <trkpt lat="49.09167" lon="-1.4523">
        <ele>97.2</ele>
      </trkpt>
      <trkpt lat="49.09178" lon="-1.45234">
        <ele>97.1</ele>
      </trkpt>
      <trkpt lat="49.0919" lon="-1.4524">
        <ele>96.8</ele>
      </trkpt>
      <trkpt lat="49.09204" lon="-1.45245">
        <ele>96.6</ele>
      </trkpt>
      <trkpt lat="49.09216" lon="-1.45248">
        <ele>96.4</ele>
      </trkpt>
      <trkpt lat="49.09228" lon="-1.45251">
        <ele>96.2</ele>
      </trkpt>
      <trkpt lat="49.09242" lon="-1.45256">
        <ele>95.8</ele>
      </trkpt>
      <trkpt lat="49.09255" lon="-1.45259">
        <ele>95.6</ele>
      </trkpt>
      <trkpt lat="49.09268" lon="-1.45262">
        <ele>95.4</ele>
      </trkpt>
      <trkpt lat="49.09282" lon="-1.45264">
        <ele>95.3</ele>
      </trkpt>
      <trkpt lat="49.09294" lon="-1.45264">
        <ele>95.3</ele>
      </trkpt>
      <trkpt lat="49.09307" lon="-1.45263">
        <ele>95.3</ele>
      </trkpt>
      <trkpt lat="49.0932" lon="-1.45261">
        <ele>95.4</ele>
      </trkpt>
      <trkpt lat="49.09325" lon="-1.4526">
        <ele>95.4</ele>
      </trkpt>
      <trkpt lat="49.09332" lon="-1.4526">
        <ele>95.4</ele>
      </trkpt>
      <trkpt lat="49.09342" lon="-1.45257">
        <ele>95.3</ele>
      </trkpt>
      <trkpt lat="49.09352" lon="-1.45256">
        <ele>95</ele>
      </trkpt>
      <trkpt lat="49.09357" lon="-1.45255">
        <ele>94.9</ele>
      </trkpt>
      <trkpt lat="49.09364" lon="-1.45256">
        <ele>94.6</ele>
      </trkpt>
      <trkpt lat="49.09373" lon="-1.45258">
        <ele>94.2</ele>
      </trkpt>
      <trkpt lat="49.09383" lon="-1.45261">
        <ele>93.7</ele>
      </trkpt>
      <trkpt lat="49.09396" lon="-1.45268">
        <ele>93</ele>
      </trkpt>
      <trkpt lat="49.09406" lon="-1.45273">
        <ele>92.5</ele>
      </trkpt>
      <trkpt lat="49.09419" lon="-1.45279">
        <ele>91.8</ele>
      </trkpt>
      <trkpt lat="49.0943" lon="-1.45284">
        <ele>91.1</ele>
      </trkpt>
      <trkpt lat="49.09441" lon="-1.45288">
        <ele>90.3</ele>
      </trkpt>
      <trkpt lat="49.09452" lon="-1.45289">
        <ele>89.7</ele>
      </trkpt>
      <trkpt lat="49.09458" lon="-1.45289">
        <ele>89.4</ele>
      </trkpt>
      <trkpt lat="49.09459" lon="-1.4529">
        <ele>89.3</ele>
      </trkpt>
      <trkpt lat="49.09466" lon="-1.45291">
        <ele>88.9</ele>
      </trkpt>
      <trkpt lat="49.09471" lon="-1.45293">
        <ele>88.5</ele>
      </trkpt>
      <trkpt lat="49.09481" lon="-1.45299">
        <ele>87.9</ele>
      </trkpt>
      <trkpt lat="49.0949" lon="-1.45305">
        <ele>87.2</ele>
      </trkpt>
      <trkpt lat="49.09491" lon="-1.45307">
        <ele>87.1</ele>
      </trkpt>
      <trkpt lat="49.09499" lon="-1.45313">
        <ele>86.5</ele>
      </trkpt>
      <trkpt lat="49.09509" lon="-1.45321">
        <ele>85.6</ele>
      </trkpt>
      <trkpt lat="49.09518" lon="-1.45328">
        <ele>84.6</ele>
      </trkpt>
      <trkpt lat="49.09527" lon="-1.45337">
        <ele>83.6</ele>
      </trkpt>
      <trkpt lat="49.09528" lon="-1.45338">
        <ele>83.5</ele>
      </trkpt>
      <trkpt lat="49.09534" lon="-1.45345">
        <ele>82.8</ele>
      </trkpt>
      <trkpt lat="49.09538" lon="-1.45349">
        <ele>82.5</ele>
      </trkpt>
      <trkpt lat="49.09538" lon="-1.4535">
        <ele>82.4</ele>
      </trkpt>
      <trkpt lat="49.09542" lon="-1.45354">
        <ele>82</ele>
      </trkpt>
      <trkpt lat="49.09548" lon="-1.45361">
        <ele>81.3</ele>
      </trkpt>
      <trkpt lat="49.09555" lon="-1.45367">
        <ele>80.7</ele>
      </trkpt>
      <trkpt lat="49.09562" lon="-1.45371">
        <ele>80.1</ele>
      </trkpt>
      <trkpt lat="49.09571" lon="-1.45374">
        <ele>79.4</ele>
      </trkpt>
      <trkpt lat="49.0958" lon="-1.45378">
        <ele>78.7</ele>
      </trkpt>
      <trkpt lat="49.09588" lon="-1.45382">
        <ele>78.2</ele>
      </trkpt>
      <trkpt lat="49.09595" lon="-1.45385">
        <ele>77.8</ele>
      </trkpt>
      <trkpt lat="49.09599" lon="-1.45386">
        <ele>77.6</ele>
      </trkpt>
      <trkpt lat="49.09607" lon="-1.4539">
        <ele>77.1</ele>
      </trkpt>
      <trkpt lat="49.09617" lon="-1.45393">
        <ele>76.5</ele>
      </trkpt>
      <trkpt lat="49.09625" lon="-1.45393">
        <ele>76.1</ele>
      </trkpt>
      <trkpt lat="49.09634" lon="-1.45394">
        <ele>75.7</ele>
      </trkpt>
      <trkpt lat="49.09643" lon="-1.45394">
        <ele>75.2</ele>
      </trkpt>
      <trkpt lat="49.09651" lon="-1.45393">
        <ele>74.8</ele>
      </trkpt>
      <trkpt lat="49.0966" lon="-1.45391">
        <ele>74.4</ele>
      </trkpt>
      <trkpt lat="49.09667" lon="-1.45386">
        <ele>74</ele>
      </trkpt>
      <trkpt lat="49.09666" lon="-1.45393">
        <ele>74.1</ele>
      </trkpt>
      <trkpt lat="49.09665" lon="-1.45401">
        <ele>74.1</ele>
      </trkpt>
      <trkpt lat="49.09665" lon="-1.45407">
        <ele>74.1</ele>
      </trkpt>
      <trkpt lat="49.09665" lon="-1.45412">
        <ele>74.1</ele>
      </trkpt>
      <trkpt lat="49.09667" lon="-1.4542">
        <ele>73.9</ele>
      </trkpt>
      <trkpt lat="49.0967" lon="-1.45429">
        <ele>73.7</ele>
      </trkpt>
      <trkpt lat="49.09672" lon="-1.4544">
        <ele>73.5</ele>
      </trkpt>
      <trkpt lat="49.09676" lon="-1.45452">
        <ele>73.3</ele>
      </trkpt>
      <trkpt lat="49.09679" lon="-1.45463">
        <ele>73.1</ele>
      </trkpt>
      <trkpt lat="49.09681" lon="-1.45473">
        <ele>72.9</ele>
      </trkpt>
      <trkpt lat="49.09682" lon="-1.45483">
        <ele>72.8</ele>
      </trkpt>
      <trkpt lat="49.09684" lon="-1.455">
        <ele>72.6</ele>
      </trkpt>
      <trkpt lat="49.09687" lon="-1.45524">
        <ele>72.2</ele>
      </trkpt>
      <trkpt lat="49.09688" lon="-1.45531">
        <ele>72.1</ele>
      </trkpt>
      <trkpt lat="49.09689" lon="-1.45542">
        <ele>72</ele>
      </trkpt>
      <trkpt lat="49.09691" lon="-1.45555">
        <ele>71.8</ele>
      </trkpt>
      <trkpt lat="49.09691" lon="-1.45562">
        <ele>71.7</ele>
      </trkpt>
      <trkpt lat="49.09694" lon="-1.45581">
        <ele>71.4</ele>
      </trkpt>
      <trkpt lat="49.09695" lon="-1.45592">
        <ele>71.4</ele>
      </trkpt>
      <trkpt lat="49.09696" lon="-1.45598">
        <ele>71.4</ele>
      </trkpt>
      <trkpt lat="49.09697" lon="-1.45607">
        <ele>71.5</ele>
      </trkpt>
      <trkpt lat="49.09698" lon="-1.45614">
        <ele>71.5</ele>
      </trkpt>
      <trkpt lat="49.09699" lon="-1.45626">
        <ele>71.5</ele>
      </trkpt>
      <trkpt lat="49.097" lon="-1.45631">
        <ele>71.5</ele>
      </trkpt>
      <trkpt lat="49.09702" lon="-1.45648">
        <ele>71.6</ele>
      </trkpt>
      <trkpt lat="49.09704" lon="-1.45665">
        <ele>71.6</ele>
      </trkpt>
      <trkpt lat="49.09706" lon="-1.45682">
        <ele>71.8</ele>
      </trkpt>
      <trkpt lat="49.09707" lon="-1.45698">
        <ele>71.9</ele>
      </trkpt>
      <trkpt lat="49.09708" lon="-1.45703">
        <ele>72</ele>
      </trkpt>
      <trkpt lat="49.09708" lon="-1.45713">
        <ele>72</ele>
      </trkpt>
      <trkpt lat="49.09719" lon="-1.45706">
        <ele>71.6</ele>
      </trkpt>
      <trkpt lat="49.09731" lon="-1.45701">
        <ele>71.1</ele>
      </trkpt>
      <trkpt lat="49.09742" lon="-1.45695">
        <ele>70.6</ele>
      </trkpt>
      <trkpt lat="49.09755" lon="-1.45687">
        <ele>70.1</ele>
      </trkpt>
      <trkpt lat="49.0978" lon="-1.45675">
        <ele>69.4</ele>
      </trkpt>
      <trkpt lat="49.09789" lon="-1.45672">
        <ele>69.1</ele>
      </trkpt>
      <trkpt lat="49.09791" lon="-1.45671">
        <ele>69.1</ele>
      </trkpt>
      <trkpt lat="49.09801" lon="-1.45669">
        <ele>68.8</ele>
      </trkpt>
      <trkpt lat="49.09813" lon="-1.45665">
        <ele>68.5</ele>
      </trkpt>
      <trkpt lat="49.09827" lon="-1.45661">
        <ele>68</ele>
      </trkpt>
      <trkpt lat="49.0984" lon="-1.45656">
        <ele>67.6</ele>
      </trkpt>
      <trkpt lat="49.09855" lon="-1.45651">
        <ele>67.1</ele>
      </trkpt>
      <trkpt lat="49.09869" lon="-1.45647">
        <ele>66.7</ele>
      </trkpt>
      <trkpt lat="49.09883" lon="-1.45643">
        <ele>66.2</ele>
      </trkpt>
      <trkpt lat="49.09883" lon="-1.45659">
        <ele>66.6</ele>
      </trkpt>
      <trkpt lat="49.09884" lon="-1.4567">
        <ele>66.9</ele>
      </trkpt>
      <trkpt lat="49.09885" lon="-1.45679">
        <ele>67.2</ele>
      </trkpt>
      <trkpt lat="49.09886" lon="-1.4569">
        <ele>67.5</ele>
      </trkpt>
      <trkpt lat="49.0989" lon="-1.45703">
        <ele>68</ele>
      </trkpt>
      <trkpt lat="49.09895" lon="-1.45718">
        <ele>68.5</ele>
      </trkpt>
      <trkpt lat="49.09901" lon="-1.45737">
        <ele>69.3</ele>
      </trkpt>
      <trkpt lat="49.09908" lon="-1.45756">
        <ele>70</ele>
      </trkpt>
      <trkpt lat="49.09913" lon="-1.45774">
        <ele>70.3</ele>
      </trkpt>
      <trkpt lat="49.09921" lon="-1.45793">
        <ele>70.5</ele>
      </trkpt>
      <trkpt lat="49.09926" lon="-1.45806">
        <ele>70.6</ele>
      </trkpt>
      <trkpt lat="49.09928" lon="-1.45813">
        <ele>70.7</ele>
      </trkpt>
      <trkpt lat="49.09931" lon="-1.4582">
        <ele>70.8</ele>
      </trkpt>
      <trkpt lat="49.09935" lon="-1.45833">
        <ele>71</ele>
      </trkpt>
      <trkpt lat="49.09938" lon="-1.45843">
        <ele>71.2</ele>
      </trkpt>
      <trkpt lat="49.0994" lon="-1.45846">
        <ele>71.2</ele>
      </trkpt>
      <trkpt lat="49.09944" lon="-1.45861">
        <ele>71.4</ele>
      </trkpt>
      <trkpt lat="49.09947" lon="-1.45876">
        <ele>71.6</ele>
      </trkpt>
      <trkpt lat="49.0995" lon="-1.4589">
        <ele>71.8</ele>
      </trkpt>
      <trkpt lat="49.09952" lon="-1.45904">
        <ele>72</ele>
      </trkpt>
      <trkpt lat="49.09954" lon="-1.45919">
        <ele>72.1</ele>
      </trkpt>
      <trkpt lat="49.09957" lon="-1.45935">
        <ele>72</ele>
      </trkpt>
      <trkpt lat="49.09962" lon="-1.45953">
        <ele>71.9</ele>
      </trkpt>
      <trkpt lat="49.09965" lon="-1.45971">
        <ele>71.8</ele>
      </trkpt>
      <trkpt lat="49.09967" lon="-1.45987">
        <ele>71.8</ele>
      </trkpt>
      <trkpt lat="49.0997" lon="-1.46004">
        <ele>71.8</ele>
      </trkpt>
      <trkpt lat="49.09972" lon="-1.46011">
        <ele>71.8</ele>
      </trkpt>
      <trkpt lat="49.09974" lon="-1.46022">
        <ele>71.9</ele>
      </trkpt>
      <trkpt lat="49.09978" lon="-1.46038">
        <ele>72.1</ele>
      </trkpt>
      <trkpt lat="49.09982" lon="-1.46056">
        <ele>72.3</ele>
      </trkpt>
      <trkpt lat="49.09983" lon="-1.46058">
        <ele>72.4</ele>
      </trkpt>
      <trkpt lat="49.09986" lon="-1.46075">
        <ele>72.7</ele>
      </trkpt>
      <trkpt lat="49.09989" lon="-1.4609">
        <ele>72.9</ele>
      </trkpt>
      <trkpt lat="49.09993" lon="-1.46105">
        <ele>73.2</ele>
      </trkpt>
      <trkpt lat="49.09996" lon="-1.46121">
        <ele>73.4</ele>
      </trkpt>
      <trkpt lat="49.1" lon="-1.46138">
        <ele>73.6</ele>
      </trkpt>
      <trkpt lat="49.10002" lon="-1.46157">
        <ele>73.8</ele>
      </trkpt>
      <trkpt lat="49.10004" lon="-1.46178">
        <ele>73.7</ele>
      </trkpt>
      <trkpt lat="49.10006" lon="-1.46197">
        <ele>73.3</ele>
      </trkpt>
      <trkpt lat="49.10009" lon="-1.46215">
        <ele>72.9</ele>
      </trkpt>
      <trkpt lat="49.10012" lon="-1.46233">
        <ele>72.5</ele>
      </trkpt>
      <trkpt lat="49.10014" lon="-1.4625">
        <ele>72.2</ele>
      </trkpt>
      <trkpt lat="49.10016" lon="-1.46267">
        <ele>72.1</ele>
      </trkpt>
      <trkpt lat="49.10017" lon="-1.4628">
        <ele>72</ele>
      </trkpt>
      <trkpt lat="49.10019" lon="-1.46295">
        <ele>72</ele>
      </trkpt>
      <trkpt lat="49.10021" lon="-1.46309">
        <ele>71.9</ele>
      </trkpt>
      <trkpt lat="49.10024" lon="-1.46323">
        <ele>71.8</ele>
      </trkpt>
      <trkpt lat="49.10028" lon="-1.46339">
        <ele>71.8</ele>
      </trkpt>
      <trkpt lat="49.10034" lon="-1.46378">
        <ele>72</ele>
      </trkpt>
      <trkpt lat="49.10037" lon="-1.46397">
        <ele>72.1</ele>
      </trkpt>
      <trkpt lat="49.10039" lon="-1.46413">
        <ele>72.1</ele>
      </trkpt>
      <trkpt lat="49.10041" lon="-1.4643">
        <ele>72</ele>
      </trkpt>
      <trkpt lat="49.10042" lon="-1.46444">
        <ele>71.8</ele>
      </trkpt>
      <trkpt lat="49.10043" lon="-1.46457">
        <ele>71.7</ele>
      </trkpt>
      <trkpt lat="49.10043" lon="-1.46469">
        <ele>71.6</ele>
      </trkpt>
      <trkpt lat="49.10043" lon="-1.46479">
        <ele>71.5</ele>
      </trkpt>
      <trkpt lat="49.10043" lon="-1.46489">
        <ele>71.5</ele>
      </trkpt>
      <trkpt lat="49.10042" lon="-1.465">
        <ele>71.5</ele>
      </trkpt>
      <trkpt lat="49.10042" lon="-1.46512">
        <ele>71.5</ele>
      </trkpt>
      <trkpt lat="49.10041" lon="-1.46525">
        <ele>71.5</ele>
      </trkpt>
      <trkpt lat="49.10039" lon="-1.46541">
        <ele>71.6</ele>
      </trkpt>
      <trkpt lat="49.10038" lon="-1.46554">
        <ele>71.6</ele>
      </trkpt>
      <trkpt lat="49.10038" lon="-1.46556">
        <ele>71.7</ele>
      </trkpt>
      <trkpt lat="49.10037" lon="-1.4657">
        <ele>71.7</ele>
      </trkpt>
      <trkpt lat="49.10035" lon="-1.46584">
        <ele>71.7</ele>
      </trkpt>
      <trkpt lat="49.10035" lon="-1.46597">
        <ele>71.6</ele>
      </trkpt>
      <trkpt lat="49.10034" lon="-1.4661">
        <ele>71.6</ele>
      </trkpt>
      <trkpt lat="49.10033" lon="-1.46622">
        <ele>71.5</ele>
      </trkpt>
      <trkpt lat="49.10032" lon="-1.46633">
        <ele>71.5</ele>
      </trkpt>
      <trkpt lat="49.10032" lon="-1.46645">
        <ele>71.4</ele>
      </trkpt>
      <trkpt lat="49.10032" lon="-1.46654">
        <ele>71.3</ele>
      </trkpt>
      <trkpt lat="49.10032" lon="-1.46655">
        <ele>71.3</ele>
      </trkpt>
      <trkpt lat="49.10032" lon="-1.46664">
        <ele>71.3</ele>
      </trkpt>
      <trkpt lat="49.10032" lon="-1.46674">
        <ele>71.1</ele>
      </trkpt>
      <trkpt lat="49.10032" lon="-1.46682">
        <ele>70.9</ele>
      </trkpt>
      <trkpt lat="49.10032" lon="-1.46691">
        <ele>70.8</ele>
      </trkpt>
      <trkpt lat="49.10032" lon="-1.46697">
        <ele>70.6</ele>
      </trkpt>
      <trkpt lat="49.10032" lon="-1.46702">
        <ele>70.5</ele>
      </trkpt>
      <trkpt lat="49.10032" lon="-1.46706">
        <ele>70.5</ele>
      </trkpt>
      <trkpt lat="49.10032" lon="-1.46712">
        <ele>70.3</ele>
      </trkpt>
      <trkpt lat="49.10037" lon="-1.46712">
        <ele>70.3</ele>
      </trkpt>
      <trkpt lat="49.10053" lon="-1.46712">
        <ele>70</ele>
      </trkpt>
      <trkpt lat="49.10072" lon="-1.46711">
        <ele>69.7</ele>
      </trkpt>
      <trkpt lat="49.1009" lon="-1.4671">
        <ele>69.5</ele>
      </trkpt>
      <trkpt lat="49.10116" lon="-1.46708">
        <ele>69.5</ele>
      </trkpt>
      <trkpt lat="49.10138" lon="-1.46704">
        <ele>69.5</ele>
      </trkpt>
      <trkpt lat="49.10164" lon="-1.46702">
        <ele>69.4</ele>
      </trkpt>
      <trkpt lat="49.10197" lon="-1.467">
        <ele>68.2</ele>
      </trkpt>
      <trkpt lat="49.10229" lon="-1.46696">
        <ele>66.9</ele>
      </trkpt>
      <trkpt lat="49.10249" lon="-1.46694">
        <ele>66</ele>
      </trkpt>
      <trkpt lat="49.10268" lon="-1.46693">
        <ele>66</ele>
      </trkpt>
      <trkpt lat="49.10283" lon="-1.46692">
        <ele>66</ele>
      </trkpt>
      <trkpt lat="49.10304" lon="-1.46689">
        <ele>66</ele>
      </trkpt>
      <trkpt lat="49.10335" lon="-1.46684">
        <ele>65.9</ele>
      </trkpt>
      <trkpt lat="49.10344" lon="-1.46683">
        <ele>65.6</ele>
      </trkpt>
      <trkpt lat="49.10351" lon="-1.46684">
        <ele>65.4</ele>
      </trkpt>
      <trkpt lat="49.10361" lon="-1.46687">
        <ele>65</ele>
      </trkpt>
      <trkpt lat="49.10383" lon="-1.46706">
        <ele>64.2</ele>
      </trkpt>
      <trkpt lat="49.10395" lon="-1.46715">
        <ele>63.8</ele>
      </trkpt>
      <trkpt lat="49.10413" lon="-1.46727">
        <ele>63.1</ele>
      </trkpt>
      <trkpt lat="49.10416" lon="-1.46729">
        <ele>63</ele>
      </trkpt>
      <trkpt lat="49.10442" lon="-1.46744">
        <ele>62.4</ele>
      </trkpt>
      <trkpt lat="49.10464" lon="-1.46754">
        <ele>61.8</ele>
      </trkpt>
      <trkpt lat="49.10473" lon="-1.46758">
        <ele>61.6</ele>
      </trkpt>
      <trkpt lat="49.10486" lon="-1.46766">
        <ele>61.3</ele>
      </trkpt>
      <trkpt lat="49.10508" lon="-1.46777">
        <ele>61</ele>
      </trkpt>
      <trkpt lat="49.1052" lon="-1.46784">
        <ele>61.1</ele>
      </trkpt>
      <trkpt lat="49.1054" lon="-1.46796">
        <ele>61.3</ele>
      </trkpt>
      <trkpt lat="49.10552" lon="-1.46802">
        <ele>61.4</ele>
      </trkpt>
      <trkpt lat="49.10564" lon="-1.46804">
        <ele>61.5</ele>
      </trkpt>
      <trkpt lat="49.10577" lon="-1.46803">
        <ele>61.6</ele>
      </trkpt>
      <trkpt lat="49.10594" lon="-1.46798">
        <ele>61.4</ele>
      </trkpt>
      <trkpt lat="49.10606" lon="-1.46795">
        <ele>61.1</ele>
      </trkpt>
      <trkpt lat="49.10639" lon="-1.46788">
        <ele>60.4</ele>
      </trkpt>
      <trkpt lat="49.10652" lon="-1.46784">
        <ele>60.1</ele>
      </trkpt>
      <trkpt lat="49.10676" lon="-1.46775">
        <ele>59.3</ele>
      </trkpt>
      <trkpt lat="49.10682" lon="-1.46773">
        <ele>59</ele>
      </trkpt>
      <trkpt lat="49.10696" lon="-1.46765">
        <ele>58.3</ele>
      </trkpt>
      <trkpt lat="49.10699" lon="-1.46774">
        <ele>58.4</ele>
      </trkpt>
      <trkpt lat="49.10696" lon="-1.46787">
        <ele>58.8</ele>
      </trkpt>
      <trkpt lat="49.10691" lon="-1.46798">
        <ele>59.3</ele>
      </trkpt>
      <trkpt lat="49.10687" lon="-1.46807">
        <ele>59.7</ele>
      </trkpt>
      <trkpt lat="49.10682" lon="-1.46815">
        <ele>60</ele>
      </trkpt>
      <trkpt lat="49.10677" lon="-1.46823">
        <ele>60.4</ele>
      </trkpt>
      <trkpt lat="49.10671" lon="-1.4683">
        <ele>60.8</ele>
      </trkpt>
      <trkpt lat="49.10665" lon="-1.46839">
        <ele>60.9</ele>
      </trkpt>
      <trkpt lat="49.10659" lon="-1.46848">
        <ele>60.7</ele>
      </trkpt>
      <trkpt lat="49.10653" lon="-1.46856">
        <ele>60.6</ele>
      </trkpt>
      <trkpt lat="49.10646" lon="-1.46866">
        <ele>60.5</ele>
      </trkpt>
      <trkpt lat="49.1064" lon="-1.46876">
        <ele>60.3</ele>
      </trkpt>
      <trkpt lat="49.10638" lon="-1.46879">
        <ele>60.2</ele>
      </trkpt>
      <trkpt lat="49.10634" lon="-1.46885">
        <ele>60.2</ele>
      </trkpt>
      <trkpt lat="49.10628" lon="-1.46894">
        <ele>60</ele>
      </trkpt>
      <trkpt lat="49.10623" lon="-1.46902">
        <ele>59.9</ele>
      </trkpt>
      <trkpt lat="49.10619" lon="-1.46909">
        <ele>59.7</ele>
      </trkpt>
      <trkpt lat="49.10614" lon="-1.46922">
        <ele>59.5</ele>
      </trkpt>
      <trkpt lat="49.1061" lon="-1.46934">
        <ele>59.1</ele>
      </trkpt>
      <trkpt lat="49.10608" lon="-1.46939">
        <ele>59</ele>
      </trkpt>
      <trkpt lat="49.10604" lon="-1.46943">
        <ele>58.9</ele>
      </trkpt>
      <trkpt lat="49.10599" lon="-1.46947">
        <ele>58.8</ele>
      </trkpt>
      <trkpt lat="49.10592" lon="-1.46951">
        <ele>58.7</ele>
      </trkpt>
      <trkpt lat="49.10581" lon="-1.46955">
        <ele>58.6</ele>
      </trkpt>
      <trkpt lat="49.10572" lon="-1.4696">
        <ele>58.5</ele>
      </trkpt>
      <trkpt lat="49.10563" lon="-1.46963">
        <ele>58.5</ele>
      </trkpt>
      <trkpt lat="49.10553" lon="-1.46967">
        <ele>58.4</ele>
      </trkpt>
      <trkpt lat="49.10546" lon="-1.46969">
        <ele>58.4</ele>
      </trkpt>
      <trkpt lat="49.10529" lon="-1.46974">
        <ele>58.4</ele>
      </trkpt>
      <trkpt lat="49.1052" lon="-1.46977">
        <ele>58.4</ele>
      </trkpt>
      <trkpt lat="49.10518" lon="-1.46977">
        <ele>58.4</ele>
      </trkpt>
      <trkpt lat="49.10511" lon="-1.46981">
        <ele>58.4</ele>
      </trkpt>
      <trkpt lat="49.10504" lon="-1.46984">
        <ele>58.4</ele>
      </trkpt>
      <trkpt lat="49.10496" lon="-1.46987">
        <ele>58.4</ele>
      </trkpt>
      <trkpt lat="49.10487" lon="-1.46991">
        <ele>58.4</ele>
      </trkpt>
      <trkpt lat="49.10478" lon="-1.46996">
        <ele>58.4</ele>
      </trkpt>
      <trkpt lat="49.1047" lon="-1.46999">
        <ele>58.4</ele>
      </trkpt>
      <trkpt lat="49.10462" lon="-1.47004">
        <ele>58.4</ele>
      </trkpt>
      <trkpt lat="49.10455" lon="-1.47009">
        <ele>58.3</ele>
      </trkpt>
      <trkpt lat="49.10444" lon="-1.47016">
        <ele>58.2</ele>
      </trkpt>
      <trkpt lat="49.10441" lon="-1.47017">
        <ele>58.2</ele>
      </trkpt>
      <trkpt lat="49.10439" lon="-1.47019">
        <ele>58.2</ele>
      </trkpt>
      <trkpt lat="49.1043" lon="-1.47028">
        <ele>58.1</ele>
      </trkpt>
      <trkpt lat="49.10422" lon="-1.47035">
        <ele>58.1</ele>
      </trkpt>
      <trkpt lat="49.10415" lon="-1.47041">
        <ele>58.1</ele>
      </trkpt>
      <trkpt lat="49.10407" lon="-1.47047">
        <ele>58.1</ele>
      </trkpt>
      <trkpt lat="49.10397" lon="-1.47054">
        <ele>58.2</ele>
      </trkpt>
      <trkpt lat="49.10382" lon="-1.47069">
        <ele>58.2</ele>
      </trkpt>
      <trkpt lat="49.10377" lon="-1.47074">
        <ele>58.2</ele>
      </trkpt>
      <trkpt lat="49.10369" lon="-1.47082">
        <ele>58.2</ele>
      </trkpt>
      <trkpt lat="49.10361" lon="-1.47091">
        <ele>58.1</ele>
      </trkpt>
      <trkpt lat="49.10348" lon="-1.47104">
        <ele>58</ele>
      </trkpt>
      <trkpt lat="49.10343" lon="-1.47109">
        <ele>57.9</ele>
      </trkpt>
      <trkpt lat="49.10328" lon="-1.47143">
        <ele>57</ele>
      </trkpt>
      <trkpt lat="49.10322" lon="-1.47157">
        <ele>56.8</ele>
      </trkpt>
      <trkpt lat="49.10315" lon="-1.4717">
        <ele>56.6</ele>
      </trkpt>
      <trkpt lat="49.10306" lon="-1.47186">
        <ele>56.7</ele>
      </trkpt>
      <trkpt lat="49.10301" lon="-1.47194">
        <ele>56.7</ele>
      </trkpt>
      <trkpt lat="49.10285" lon="-1.47222">
        <ele>56.7</ele>
      </trkpt>
      <trkpt lat="49.10281" lon="-1.47234">
        <ele>56.6</ele>
      </trkpt>
      <trkpt lat="49.10278" lon="-1.47274">
        <ele>55.6</ele>
      </trkpt>
      <trkpt lat="49.10277" lon="-1.47286">
        <ele>55.4</ele>
      </trkpt>
      <trkpt lat="49.10275" lon="-1.47298">
        <ele>55.1</ele>
      </trkpt>
      <trkpt lat="49.1027" lon="-1.47329">
        <ele>54.4</ele>
      </trkpt>
      <trkpt lat="49.10267" lon="-1.47363">
        <ele>53.7</ele>
      </trkpt>
      <trkpt lat="49.10263" lon="-1.47396">
        <ele>53.2</ele>
      </trkpt>
      <trkpt lat="49.10257" lon="-1.47431">
        <ele>52.5</ele>
      </trkpt>
      <trkpt lat="49.10255" lon="-1.47447">
        <ele>52.2</ele>
      </trkpt>
      <trkpt lat="49.10254" lon="-1.47471">
        <ele>51.7</ele>
      </trkpt>
      <trkpt lat="49.10257" lon="-1.47491">
        <ele>51.2</ele>
      </trkpt>
      <trkpt lat="49.10261" lon="-1.47517">
        <ele>51.2</ele>
      </trkpt>
      <trkpt lat="49.10266" lon="-1.47533">
        <ele>51.4</ele>
      </trkpt>
      <trkpt lat="49.10267" lon="-1.47536">
        <ele>51.4</ele>
      </trkpt>
      <trkpt lat="49.1027" lon="-1.47547">
        <ele>51.6</ele>
      </trkpt>
      <trkpt lat="49.10271" lon="-1.47551">
        <ele>51.6</ele>
      </trkpt>
      <trkpt lat="49.1028" lon="-1.47577">
        <ele>51.9</ele>
      </trkpt>
      <trkpt lat="49.10291" lon="-1.47604">
        <ele>52.1</ele>
      </trkpt>
      <trkpt lat="49.10295" lon="-1.47616">
        <ele>52.2</ele>
      </trkpt>
      <trkpt lat="49.10312" lon="-1.47665">
        <ele>52.7</ele>
      </trkpt>
      <trkpt lat="49.10321" lon="-1.47698">
        <ele>53.9</ele>
      </trkpt>
      <trkpt lat="49.10335" lon="-1.47763">
        <ele>56.4</ele>
      </trkpt>
      <trkpt lat="49.10346" lon="-1.47815">
        <ele>58.2</ele>
      </trkpt>
      <trkpt lat="49.10353" lon="-1.47842">
        <ele>59.2</ele>
      </trkpt>
      <trkpt lat="49.10366" lon="-1.47892">
        <ele>61.4</ele>
      </trkpt>
      <trkpt lat="49.10373" lon="-1.47918">
        <ele>62.5</ele>
      </trkpt>
      <trkpt lat="49.10378" lon="-1.47939">
        <ele>63.5</ele>
      </trkpt>
      <trkpt lat="49.10373" lon="-1.47918">
        <ele>62.5</ele>
      </trkpt>
      <trkpt lat="49.10375" lon="-1.47913">
        <ele>62.4</ele>
      </trkpt>
      <trkpt lat="49.10376" lon="-1.47911">
        <ele>62.4</ele>
      </trkpt>
      <trkpt lat="49.10381" lon="-1.47912">
        <ele>62.6</ele>
      </trkpt>
      <trkpt lat="49.10385" lon="-1.47913">
        <ele>62.8</ele>
      </trkpt>
      <trkpt lat="49.1039" lon="-1.47912">
        <ele>62.9</ele>
      </trkpt>
      <trkpt lat="49.10393" lon="-1.47912">
        <ele>63</ele>
      </trkpt>
      <trkpt lat="49.10408" lon="-1.47904">
        <ele>63.4</ele>
      </trkpt>
      <trkpt lat="49.10423" lon="-1.47897">
        <ele>63.7</ele>
      </trkpt>
      <trkpt lat="49.1044" lon="-1.4789">
        <ele>63.9</ele>
      </trkpt>
      <trkpt lat="49.10454" lon="-1.47882">
        <ele>64.1</ele>
      </trkpt>
      <trkpt lat="49.10469" lon="-1.47874">
        <ele>64.2</ele>
      </trkpt>
      <trkpt lat="49.10481" lon="-1.47867">
        <ele>64.3</ele>
      </trkpt>
      <trkpt lat="49.10492" lon="-1.47861">
        <ele>64.5</ele>
      </trkpt>
      <trkpt lat="49.10502" lon="-1.47857">
        <ele>64.7</ele>
      </trkpt>
      <trkpt lat="49.10512" lon="-1.47855">
        <ele>65.1</ele>
      </trkpt>
      <trkpt lat="49.10521" lon="-1.47853">
        <ele>65.5</ele>
      </trkpt>
      <trkpt lat="49.10529" lon="-1.47852">
        <ele>65.9</ele>
      </trkpt>
      <trkpt lat="49.10536" lon="-1.47853">
        <ele>66.2</ele>
      </trkpt>
      <trkpt lat="49.1054" lon="-1.47857">
        <ele>66.5</ele>
      </trkpt>
      <trkpt lat="49.10542" lon="-1.47859">
        <ele>66.6</ele>
      </trkpt>
      <trkpt lat="49.10544" lon="-1.47863">
        <ele>66.8</ele>
      </trkpt>
      <trkpt lat="49.10549" lon="-1.47867">
        <ele>67.2</ele>
      </trkpt>
      <trkpt lat="49.10558" lon="-1.4787">
        <ele>67.6</ele>
      </trkpt>
      <trkpt lat="49.10567" lon="-1.47872">
        <ele>68.1</ele>
      </trkpt>
      <trkpt lat="49.10569" lon="-1.47873">
        <ele>68.3</ele>
      </trkpt>
      <trkpt lat="49.1058" lon="-1.47879">
        <ele>68.9</ele>
      </trkpt>
      <trkpt lat="49.10594" lon="-1.47886">
        <ele>69.5</ele>
      </trkpt>
      <trkpt lat="49.10606" lon="-1.47891">
        <ele>69.9</ele>
      </trkpt>
      <trkpt lat="49.10618" lon="-1.47897">
        <ele>70.4</ele>
      </trkpt>
      <trkpt lat="49.10634" lon="-1.47907">
        <ele>71</ele>
      </trkpt>
      <trkpt lat="49.10649" lon="-1.47914">
        <ele>71.5</ele>
      </trkpt>
      <trkpt lat="49.10662" lon="-1.47919">
        <ele>71.9</ele>
      </trkpt>
      <trkpt lat="49.10673" lon="-1.47924">
        <ele>72.2</ele>
      </trkpt>
      <trkpt lat="49.10687" lon="-1.47927">
        <ele>72.4</ele>
      </trkpt>
      <trkpt lat="49.10711" lon="-1.4794">
        <ele>73.1</ele>
      </trkpt>
      <trkpt lat="49.10723" lon="-1.4795">
        <ele>73.6</ele>
      </trkpt>
      <trkpt lat="49.10728" lon="-1.47954">
        <ele>73.8</ele>
      </trkpt>
      <trkpt lat="49.1074" lon="-1.47965">
        <ele>74.5</ele>
      </trkpt>
      <trkpt lat="49.1076" lon="-1.47981">
        <ele>75.3</ele>
      </trkpt>
      <trkpt lat="49.10777" lon="-1.47995">
        <ele>75.8</ele>
      </trkpt>
      <trkpt lat="49.10801" lon="-1.48014">
        <ele>76.2</ele>
      </trkpt>
      <trkpt lat="49.10824" lon="-1.48031">
        <ele>76.7</ele>
      </trkpt>
      <trkpt lat="49.10845" lon="-1.48042">
        <ele>76.3</ele>
      </trkpt>
      <trkpt lat="49.10867" lon="-1.48052">
        <ele>75.2</ele>
      </trkpt>
      <trkpt lat="49.1088" lon="-1.48061">
        <ele>74.7</ele>
      </trkpt>
      <trkpt lat="49.10881" lon="-1.48078">
        <ele>75</ele>
      </trkpt>
      <trkpt lat="49.10898" lon="-1.48078">
        <ele>74</ele>
      </trkpt>
      <trkpt lat="49.10925" lon="-1.48076">
        <ele>72.3</ele>
      </trkpt>
      <trkpt lat="49.10933" lon="-1.4808">
        <ele>71.7</ele>
      </trkpt>
      <trkpt lat="49.10949" lon="-1.4809">
        <ele>70.7</ele>
      </trkpt>
      <trkpt lat="49.10963" lon="-1.48097">
        <ele>69.6</ele>
      </trkpt>
      <trkpt lat="49.10966" lon="-1.48069">
        <ele>69.4</ele>
      </trkpt>
      <trkpt lat="49.10967" lon="-1.48048">
        <ele>69.3</ele>
      </trkpt>
      <trkpt lat="49.10968" lon="-1.48025">
        <ele>69.2</ele>
      </trkpt>
      <trkpt lat="49.10967" lon="-1.48001">
        <ele>69.2</ele>
      </trkpt>
      <trkpt lat="49.10968" lon="-1.47995">
        <ele>69.2</ele>
      </trkpt>
      <trkpt lat="49.10966" lon="-1.47967">
        <ele>69.2</ele>
      </trkpt>
      <trkpt lat="49.10963" lon="-1.47934">
        <ele>69.2</ele>
      </trkpt>
      <trkpt lat="49.10962" lon="-1.47918">
        <ele>69.1</ele>
      </trkpt>
      <trkpt lat="49.1096" lon="-1.479">
        <ele>68.1</ele>
      </trkpt>
      <trkpt lat="49.10959" lon="-1.47881">
        <ele>67.1</ele>
      </trkpt>
      <trkpt lat="49.10958" lon="-1.4787">
        <ele>66.5</ele>
      </trkpt>
      <trkpt lat="49.10955" lon="-1.47832">
        <ele>64.5</ele>
      </trkpt>
      <trkpt lat="49.10955" lon="-1.47814">
        <ele>63.9</ele>
      </trkpt>
      <trkpt lat="49.10955" lon="-1.47811">
        <ele>63.8</ele>
      </trkpt>
      <trkpt lat="49.10955" lon="-1.47801">
        <ele>63.5</ele>
      </trkpt>
      <trkpt lat="49.10955" lon="-1.47794">
        <ele>63.2</ele>
      </trkpt>
      <trkpt lat="49.10957" lon="-1.47778">
        <ele>62.6</ele>
      </trkpt>
      <trkpt lat="49.10958" lon="-1.4776">
        <ele>61.8</ele>
      </trkpt>
      <trkpt lat="49.10958" lon="-1.47742">
        <ele>60.9</ele>
      </trkpt>
      <trkpt lat="49.10957" lon="-1.47731">
        <ele>60.1</ele>
      </trkpt>
      <trkpt lat="49.10957" lon="-1.47725">
        <ele>59.7</ele>
      </trkpt>
      <trkpt lat="49.10955" lon="-1.47717">
        <ele>59.2</ele>
      </trkpt>
      <trkpt lat="49.10953" lon="-1.47706">
        <ele>58.6</ele>
      </trkpt>
      <trkpt lat="49.10951" lon="-1.47699">
        <ele>58.3</ele>
      </trkpt>
      <trkpt lat="49.10949" lon="-1.47693">
        <ele>58</ele>
      </trkpt>
      <trkpt lat="49.10947" lon="-1.47685">
        <ele>57.7</ele>
      </trkpt>
      <trkpt lat="49.10942" lon="-1.47676">
        <ele>57.6</ele>
      </trkpt>
      <trkpt lat="49.10929" lon="-1.47654">
        <ele>57.3</ele>
      </trkpt>
      <trkpt lat="49.10913" lon="-1.47624">
        <ele>55.5</ele>
      </trkpt>
      <trkpt lat="49.10902" lon="-1.47602">
        <ele>53.7</ele>
      </trkpt>
      <trkpt lat="49.10901" lon="-1.4759">
        <ele>52.8</ele>
      </trkpt>
      <trkpt lat="49.10901" lon="-1.47579">
        <ele>52.1</ele>
      </trkpt>
      <trkpt lat="49.10904" lon="-1.47569">
        <ele>51.8</ele>
      </trkpt>
      <trkpt lat="49.10912" lon="-1.47561">
        <ele>51.1</ele>
      </trkpt>
      <trkpt lat="49.1092" lon="-1.47558">
        <ele>50.5</ele>
      </trkpt>
      <trkpt lat="49.10924" lon="-1.47556">
        <ele>50.3</ele>
      </trkpt>
      <trkpt lat="49.10928" lon="-1.47554">
        <ele>50.1</ele>
      </trkpt>
      <trkpt lat="49.10934" lon="-1.47551">
        <ele>49.8</ele>
      </trkpt>
      <trkpt lat="49.10951" lon="-1.47547">
        <ele>49.1</ele>
      </trkpt>
      <trkpt lat="49.10961" lon="-1.47548">
        <ele>48.6</ele>
      </trkpt>
      <trkpt lat="49.10977" lon="-1.47552">
        <ele>47.8</ele>
      </trkpt>
      <trkpt lat="49.10989" lon="-1.47557">
        <ele>47.2</ele>
      </trkpt>
      <trkpt lat="49.10993" lon="-1.47559">
        <ele>46.9</ele>
      </trkpt>
      <trkpt lat="49.10997" lon="-1.4756">
        <ele>46.7</ele>
      </trkpt>
      <trkpt lat="49.11004" lon="-1.47562">
        <ele>46.8</ele>
      </trkpt>
      <trkpt lat="49.1101" lon="-1.47565">
        <ele>47.1</ele>
      </trkpt>
      <trkpt lat="49.11027" lon="-1.47573">
        <ele>48</ele>
      </trkpt>
      <trkpt lat="49.11035" lon="-1.47576">
        <ele>48.4</ele>
      </trkpt>
      <trkpt lat="49.11037" lon="-1.47576">
        <ele>48.5</ele>
      </trkpt>
      <trkpt lat="49.11049" lon="-1.4758">
        <ele>49.1</ele>
      </trkpt>
      <trkpt lat="49.11065" lon="-1.47587">
        <ele>49.8</ele>
      </trkpt>
      <trkpt lat="49.11073" lon="-1.47589">
        <ele>50.1</ele>
      </trkpt>
      <trkpt lat="49.11082" lon="-1.47591">
        <ele>50.5</ele>
      </trkpt>
      <trkpt lat="49.11089" lon="-1.47591">
        <ele>50.8</ele>
      </trkpt>
      <trkpt lat="49.11095" lon="-1.47591">
        <ele>51.1</ele>
      </trkpt>
      <trkpt lat="49.11107" lon="-1.47588">
        <ele>51.9</ele>
      </trkpt>
      <trkpt lat="49.11113" lon="-1.47585">
        <ele>52.3</ele>
      </trkpt>
      <trkpt lat="49.11118" lon="-1.47582">
        <ele>52.8</ele>
      </trkpt>
      <trkpt lat="49.11121" lon="-1.47578">
        <ele>53.1</ele>
      </trkpt>
      <trkpt lat="49.11126" lon="-1.47574">
        <ele>53.5</ele>
      </trkpt>
      <trkpt lat="49.11129" lon="-1.47571">
        <ele>53.8</ele>
      </trkpt>
      <trkpt lat="49.11131" lon="-1.47567">
        <ele>54.1</ele>
      </trkpt>
      <trkpt lat="49.11143" lon="-1.47548">
        <ele>55.4</ele>
      </trkpt>
      <trkpt lat="49.11153" lon="-1.47531">
        <ele>56.4</ele>
      </trkpt>
      <trkpt lat="49.1116" lon="-1.47509">
        <ele>57.5</ele>
      </trkpt>
      <trkpt lat="49.11162" lon="-1.47486">
        <ele>57.7</ele>
      </trkpt>
      <trkpt lat="49.11164" lon="-1.47477">
        <ele>57.7</ele>
      </trkpt>
      <trkpt lat="49.11165" lon="-1.47465">
        <ele>57.6</ele>
      </trkpt>
      <trkpt lat="49.11166" lon="-1.47451">
        <ele>57.4</ele>
      </trkpt>
      <trkpt lat="49.11167" lon="-1.47433">
        <ele>57.2</ele>
      </trkpt>
      <trkpt lat="49.1117" lon="-1.4743">
        <ele>57.1</ele>
      </trkpt>
      <trkpt lat="49.11173" lon="-1.47427">
        <ele>57</ele>
      </trkpt>
      <trkpt lat="49.11178" lon="-1.47422">
        <ele>56.9</ele>
      </trkpt>
      <trkpt lat="49.11193" lon="-1.47411">
        <ele>56.6</ele>
      </trkpt>
      <trkpt lat="49.112" lon="-1.47406">
        <ele>56.4</ele>
      </trkpt>
      <trkpt lat="49.11233" lon="-1.47383">
        <ele>55.7</ele>
      </trkpt>
      <trkpt lat="49.11263" lon="-1.47367">
        <ele>55</ele>
      </trkpt>
      <trkpt lat="49.11287" lon="-1.47352">
        <ele>54.2</ele>
      </trkpt>
      <trkpt lat="49.11293" lon="-1.47344">
        <ele>54</ele>
      </trkpt>
      <trkpt lat="49.11299" lon="-1.47338">
        <ele>53.8</ele>
      </trkpt>
      <trkpt lat="49.11312" lon="-1.47321">
        <ele>53.7</ele>
      </trkpt>
      <trkpt lat="49.1132" lon="-1.4731">
        <ele>53.8</ele>
      </trkpt>
      <trkpt lat="49.11324" lon="-1.47302">
        <ele>53.9</ele>
      </trkpt>
      <trkpt lat="49.1133" lon="-1.4729">
        <ele>54.1</ele>
      </trkpt>
      <trkpt lat="49.11334" lon="-1.47283">
        <ele>54.2</ele>
      </trkpt>
      <trkpt lat="49.1134" lon="-1.47275">
        <ele>54.4</ele>
      </trkpt>
      <trkpt lat="49.11347" lon="-1.47266">
        <ele>54.6</ele>
      </trkpt>
      <trkpt lat="49.11349" lon="-1.47264">
        <ele>54.7</ele>
      </trkpt>
      <trkpt lat="49.11355" lon="-1.47257">
        <ele>54.8</ele>
      </trkpt>
      <trkpt lat="49.11367" lon="-1.47244">
        <ele>55.1</ele>
      </trkpt>
      <trkpt lat="49.1137" lon="-1.47239">
        <ele>55.3</ele>
      </trkpt>
      <trkpt lat="49.11385" lon="-1.4722">
        <ele>55.8</ele>
      </trkpt>
      <trkpt lat="49.11402" lon="-1.472">
        <ele>56.6</ele>
      </trkpt>
      <trkpt lat="49.11417" lon="-1.4718">
        <ele>57.5</ele>
      </trkpt>
      <trkpt lat="49.11435" lon="-1.47152">
        <ele>57.9</ele>
      </trkpt>
      <trkpt lat="49.11457" lon="-1.47122">
        <ele>58</ele>
      </trkpt>
      <trkpt lat="49.11463" lon="-1.47111">
        <ele>58.1</ele>
      </trkpt>
      <trkpt lat="49.11471" lon="-1.47096">
        <ele>58.3</ele>
      </trkpt>
      <trkpt lat="49.11474" lon="-1.47091">
        <ele>58.3</ele>
      </trkpt>
      <trkpt lat="49.11495" lon="-1.47053">
        <ele>59.3</ele>
      </trkpt>
      <trkpt lat="49.11498" lon="-1.47049">
        <ele>59.4</ele>
      </trkpt>
      <trkpt lat="49.11516" lon="-1.47022">
        <ele>59.6</ele>
      </trkpt>
      <trkpt lat="49.11519" lon="-1.47017">
        <ele>59.7</ele>
      </trkpt>
      <trkpt lat="49.11541" lon="-1.46985">
        <ele>60.4</ele>
      </trkpt>
      <trkpt lat="49.11548" lon="-1.46974">
        <ele>60.8</ele>
      </trkpt>
      <trkpt lat="49.11553" lon="-1.46966">
        <ele>61.1</ele>
      </trkpt>
      <trkpt lat="49.11555" lon="-1.46965">
        <ele>61.1</ele>
      </trkpt>
      <trkpt lat="49.11562" lon="-1.46957">
        <ele>61.4</ele>
      </trkpt>
      <trkpt lat="49.11581" lon="-1.46939">
        <ele>62.2</ele>
      </trkpt>
      <trkpt lat="49.11605" lon="-1.46922">
        <ele>62.6</ele>
      </trkpt>
      <trkpt lat="49.11627" lon="-1.46956">
        <ele>61.3</ele>
      </trkpt>
      <trkpt lat="49.11644" lon="-1.46986">
        <ele>60.4</ele>
      </trkpt>
      <trkpt lat="49.11671" lon="-1.47033">
        <ele>59.3</ele>
      </trkpt>
      <trkpt lat="49.11685" lon="-1.47054">
        <ele>59.4</ele>
      </trkpt>
      <trkpt lat="49.11692" lon="-1.47057">
        <ele>59.5</ele>
      </trkpt>
      <trkpt lat="49.11703" lon="-1.47064">
        <ele>59.9</ele>
      </trkpt>
      <trkpt lat="49.11715" lon="-1.4707">
        <ele>60.4</ele>
      </trkpt>
      <trkpt lat="49.11745" lon="-1.4708">
        <ele>61.7</ele>
      </trkpt>
      <trkpt lat="49.11767" lon="-1.47087">
        <ele>62.5</ele>
      </trkpt>
      <trkpt lat="49.11795" lon="-1.47098">
        <ele>63.3</ele>
      </trkpt>
      <trkpt lat="49.11806" lon="-1.47102">
        <ele>63.6</ele>
      </trkpt>
      <trkpt lat="49.11816" lon="-1.47105">
        <ele>63.9</ele>
      </trkpt>
      <trkpt lat="49.11818" lon="-1.47106">
        <ele>63.9</ele>
      </trkpt>
      <trkpt lat="49.11831" lon="-1.47111">
        <ele>64.3</ele>
      </trkpt>
      <trkpt lat="49.11863" lon="-1.4712">
        <ele>64.1</ele>
      </trkpt>
      <trkpt lat="49.11902" lon="-1.47134">
        <ele>64</ele>
      </trkpt>
      <trkpt lat="49.11909" lon="-1.47136">
        <ele>64</ele>
      </trkpt>
      <trkpt lat="49.11933" lon="-1.47143">
        <ele>64.2</ele>
      </trkpt>
      <trkpt lat="49.11934" lon="-1.47143">
        <ele>64.2</ele>
      </trkpt>
      <trkpt lat="49.11964" lon="-1.47153">
        <ele>64.6</ele>
      </trkpt>
      <trkpt lat="49.12002" lon="-1.47164">
        <ele>65</ele>
      </trkpt>
      <trkpt lat="49.12022" lon="-1.47168">
        <ele>65</ele>
      </trkpt>
      <trkpt lat="49.12038" lon="-1.47165">
        <ele>65</ele>
      </trkpt>
      <trkpt lat="49.12084" lon="-1.4717">
        <ele>65</ele>
      </trkpt>
      <trkpt lat="49.12134" lon="-1.47175">
        <ele>64.4</ele>
      </trkpt>
      <trkpt lat="49.12178" lon="-1.4718">
        <ele>63.9</ele>
      </trkpt>
      <trkpt lat="49.12186" lon="-1.47181">
        <ele>63.9</ele>
      </trkpt>
      <trkpt lat="49.12188" lon="-1.47181">
        <ele>63.8</ele>
      </trkpt>
      <trkpt lat="49.12219" lon="-1.47179">
        <ele>63.6</ele>
      </trkpt>
      <trkpt lat="49.12252" lon="-1.47178">
        <ele>63.3</ele>
      </trkpt>
      <trkpt lat="49.12245" lon="-1.472">
        <ele>63.8</ele>
      </trkpt>
      <trkpt lat="49.12241" lon="-1.4723">
        <ele>64.5</ele>
      </trkpt>
      <trkpt lat="49.12239" lon="-1.47255">
        <ele>64.8</ele>
      </trkpt>
      <trkpt lat="49.12237" lon="-1.47277">
        <ele>64.6</ele>
      </trkpt>
      <trkpt lat="49.1223" lon="-1.47301">
        <ele>64.3</ele>
      </trkpt>
      <trkpt lat="49.1223" lon="-1.47301">
        <ele>64.3</ele>
      </trkpt>
      <trkpt lat="49.12222" lon="-1.47317">
        <ele>64.1</ele>
      </trkpt>
      <trkpt lat="49.12208" lon="-1.47348">
        <ele>63.7</ele>
      </trkpt>
      <trkpt lat="49.12191" lon="-1.47391">
        <ele>62.6</ele>
      </trkpt>
      <trkpt lat="49.12188" lon="-1.474">
        <ele>62.4</ele>
      </trkpt>
      <trkpt lat="49.12182" lon="-1.47421">
        <ele>61.9</ele>
      </trkpt>
      <trkpt lat="49.12173" lon="-1.47458">
        <ele>61</ele>
      </trkpt>
      <trkpt lat="49.12162" lon="-1.47496">
        <ele>60.1</ele>
      </trkpt>
      <trkpt lat="49.12158" lon="-1.47508">
        <ele>59.8</ele>
      </trkpt>
      <trkpt lat="49.1215" lon="-1.47535">
        <ele>59.1</ele>
      </trkpt>
      <trkpt lat="49.12148" lon="-1.47543">
        <ele>58.9</ele>
      </trkpt>
      <trkpt lat="49.12142" lon="-1.47566">
        <ele>58.2</ele>
      </trkpt>
      <trkpt lat="49.12134" lon="-1.47597">
        <ele>56.9</ele>
      </trkpt>
      <trkpt lat="49.12125" lon="-1.47628">
        <ele>55.3</ele>
      </trkpt>
      <trkpt lat="49.12117" lon="-1.4765">
        <ele>54.2</ele>
      </trkpt>
      <trkpt lat="49.12113" lon="-1.47661">
        <ele>53.6</ele>
      </trkpt>
      <trkpt lat="49.12107" lon="-1.47673">
        <ele>52.9</ele>
      </trkpt>
      <trkpt lat="49.12104" lon="-1.47684">
        <ele>52.1</ele>
      </trkpt>
      <trkpt lat="49.12098" lon="-1.47695">
        <ele>51.4</ele>
      </trkpt>
      <trkpt lat="49.12087" lon="-1.47707">
        <ele>50.6</ele>
      </trkpt>
      <trkpt lat="49.12079" lon="-1.47713">
        <ele>50.4</ele>
      </trkpt>
      <trkpt lat="49.12082" lon="-1.47749">
        <ele>48.1</ele>
      </trkpt>
      <trkpt lat="49.12084" lon="-1.47765">
        <ele>47.3</ele>
      </trkpt>
      <trkpt lat="49.12088" lon="-1.47804">
        <ele>45.4</ele>
      </trkpt>
      <trkpt lat="49.12092" lon="-1.4784">
        <ele>43.8</ele>
      </trkpt>
      <trkpt lat="49.12094" lon="-1.47863">
        <ele>43.2</ele>
      </trkpt>
      <trkpt lat="49.12095" lon="-1.4787">
        <ele>43.1</ele>
      </trkpt>
      <trkpt lat="49.12094" lon="-1.47875">
        <ele>43</ele>
      </trkpt>
      <trkpt lat="49.12094" lon="-1.47885">
        <ele>42.8</ele>
      </trkpt>
      <trkpt lat="49.12094" lon="-1.47889">
        <ele>42.7</ele>
      </trkpt>
      <trkpt lat="49.12093" lon="-1.47894">
        <ele>42.6</ele>
      </trkpt>
      <trkpt lat="49.12093" lon="-1.479">
        <ele>42.5</ele>
      </trkpt>
      <trkpt lat="49.12092" lon="-1.47907">
        <ele>42.3</ele>
      </trkpt>
      <trkpt lat="49.12086" lon="-1.4794">
        <ele>42.3</ele>
      </trkpt>
      <trkpt lat="49.1208" lon="-1.47987">
        <ele>42.9</ele>
      </trkpt>
      <trkpt lat="49.12074" lon="-1.48035">
        <ele>44.7</ele>
      </trkpt>
      <trkpt lat="49.12068" lon="-1.48067">
        <ele>46</ele>
      </trkpt>
      <trkpt lat="49.12062" lon="-1.48106">
        <ele>47.1</ele>
      </trkpt>
      <trkpt lat="49.1206" lon="-1.48119">
        <ele>47.4</ele>
      </trkpt>
      <trkpt lat="49.12058" lon="-1.48131">
        <ele>47.7</ele>
      </trkpt>
      <trkpt lat="49.12056" lon="-1.4815">
        <ele>48.2</ele>
      </trkpt>
      <trkpt lat="49.12053" lon="-1.48169">
        <ele>48.7</ele>
      </trkpt>
      <trkpt lat="49.12053" lon="-1.48171">
        <ele>48.7</ele>
      </trkpt>
      <trkpt lat="49.12053" lon="-1.48182">
        <ele>48.8</ele>
      </trkpt>
      <trkpt lat="49.12053" lon="-1.48199">
        <ele>48.9</ele>
      </trkpt>
      <trkpt lat="49.12054" lon="-1.48208">
        <ele>49</ele>
      </trkpt>
      <trkpt lat="49.12055" lon="-1.48219">
        <ele>49.1</ele>
      </trkpt>
      <trkpt lat="49.12058" lon="-1.48239">
        <ele>49.2</ele>
      </trkpt>
      <trkpt lat="49.12071" lon="-1.48305">
        <ele>49</ele>
      </trkpt>
      <trkpt lat="49.12081" lon="-1.48309">
        <ele>49</ele>
      </trkpt>
      <trkpt lat="49.12098" lon="-1.48325">
        <ele>48.9</ele>
      </trkpt>
      <trkpt lat="49.12113" lon="-1.48341">
        <ele>49.2</ele>
      </trkpt>
      <trkpt lat="49.12119" lon="-1.48345">
        <ele>49.3</ele>
      </trkpt>
      <trkpt lat="49.12147" lon="-1.48367">
        <ele>49.8</ele>
      </trkpt>
      <trkpt lat="49.12159" lon="-1.48376">
        <ele>50</ele>
      </trkpt>
      <trkpt lat="49.12168" lon="-1.48382">
        <ele>50.2</ele>
      </trkpt>
      <trkpt lat="49.12187" lon="-1.48396">
        <ele>50.6</ele>
      </trkpt>
      <trkpt lat="49.12204" lon="-1.48408">
        <ele>51.2</ele>
      </trkpt>
      <trkpt lat="49.12208" lon="-1.48412">
        <ele>51.3</ele>
      </trkpt>
      <trkpt lat="49.12231" lon="-1.48427">
        <ele>52</ele>
      </trkpt>
      <trkpt lat="49.12243" lon="-1.48434">
        <ele>52.3</ele>
      </trkpt>
      <trkpt lat="49.12247" lon="-1.48436">
        <ele>52.4</ele>
      </trkpt>
      <trkpt lat="49.12258" lon="-1.48439">
        <ele>52.6</ele>
      </trkpt>
      <trkpt lat="49.12259" lon="-1.48439">
        <ele>52.6</ele>
      </trkpt>
      <trkpt lat="49.12267" lon="-1.4844">
        <ele>52.7</ele>
      </trkpt>
      <trkpt lat="49.1228" lon="-1.4844">
        <ele>52.8</ele>
      </trkpt>
      <trkpt lat="49.12292" lon="-1.48448">
        <ele>53.1</ele>
      </trkpt>
      <trkpt lat="49.12333" lon="-1.48478">
        <ele>53.7</ele>
      </trkpt>
      <trkpt lat="49.12371" lon="-1.485">
        <ele>54.9</ele>
      </trkpt>
      <trkpt lat="49.12419" lon="-1.48529">
        <ele>56</ele>
      </trkpt>
      <trkpt lat="49.12436" lon="-1.48541">
        <ele>55.9</ele>
      </trkpt>
      <trkpt lat="49.12446" lon="-1.48547">
        <ele>55.8</ele>
      </trkpt>
      <trkpt lat="49.12464" lon="-1.48558">
        <ele>55.8</ele>
      </trkpt>
      <trkpt lat="49.12484" lon="-1.48574">
        <ele>55.9</ele>
      </trkpt>
      <trkpt lat="49.12498" lon="-1.4857">
        <ele>55.8</ele>
      </trkpt>
      <trkpt lat="49.12512" lon="-1.48565">
        <ele>55.5</ele>
      </trkpt>
      <trkpt lat="49.12514" lon="-1.48574">
        <ele>55.6</ele>
      </trkpt>
      <trkpt lat="49.1252" lon="-1.4859">
        <ele>55.5</ele>
      </trkpt>
      <trkpt lat="49.12534" lon="-1.48619">
        <ele>54.9</ele>
      </trkpt>
      <trkpt lat="49.1255" lon="-1.48646">
        <ele>54.5</ele>
      </trkpt>
      <trkpt lat="49.12563" lon="-1.48668">
        <ele>54.2</ele>
      </trkpt>
      <trkpt lat="49.12568" lon="-1.48676">
        <ele>54.1</ele>
      </trkpt>
      <trkpt lat="49.12588" lon="-1.48706">
        <ele>53.4</ele>
      </trkpt>
      <trkpt lat="49.12588" lon="-1.48706">
        <ele>53.4</ele>
      </trkpt>
      <trkpt lat="49.12601" lon="-1.48725">
        <ele>53</ele>
      </trkpt>
      <trkpt lat="49.12603" lon="-1.48727">
        <ele>53</ele>
      </trkpt>
      <trkpt lat="49.12626" lon="-1.48764">
        <ele>52.5</ele>
      </trkpt>
      <trkpt lat="49.12627" lon="-1.48766">
        <ele>52.5</ele>
      </trkpt>
      <trkpt lat="49.12642" lon="-1.48793">
        <ele>52.3</ele>
      </trkpt>
      <trkpt lat="49.12643" lon="-1.48797">
        <ele>52.3</ele>
      </trkpt>
      <trkpt lat="49.12652" lon="-1.48821">
        <ele>52.2</ele>
      </trkpt>
      <trkpt lat="49.12669" lon="-1.48857">
        <ele>51.7</ele>
      </trkpt>
      <trkpt lat="49.12677" lon="-1.48875">
        <ele>51.4</ele>
      </trkpt>
      <trkpt lat="49.12685" lon="-1.48891">
        <ele>51.2</ele>
      </trkpt>
      <trkpt lat="49.12691" lon="-1.48901">
        <ele>51</ele>
      </trkpt>
      <trkpt lat="49.12697" lon="-1.48909">
        <ele>50.8</ele>
      </trkpt>
      <trkpt lat="49.12702" lon="-1.48912">
        <ele>50.7</ele>
      </trkpt>
      <trkpt lat="49.12707" lon="-1.48916">
        <ele>50.5</ele>
      </trkpt>
      <trkpt lat="49.12718" lon="-1.48918">
        <ele>50.4</ele>
      </trkpt>
      <trkpt lat="49.1273" lon="-1.48917">
        <ele>50.2</ele>
      </trkpt>
      <trkpt lat="49.1273" lon="-1.48917">
        <ele>50.2</ele>
      </trkpt>
      <trkpt lat="49.12741" lon="-1.48916">
        <ele>50.1</ele>
      </trkpt>
      <trkpt lat="49.12749" lon="-1.48917">
        <ele>50</ele>
      </trkpt>
      <trkpt lat="49.12764" lon="-1.48921">
        <ele>50.2</ele>
      </trkpt>
      <trkpt lat="49.12786" lon="-1.48929">
        <ele>50.4</ele>
      </trkpt>
      <trkpt lat="49.12803" lon="-1.48937">
        <ele>50.5</ele>
      </trkpt>
      <trkpt lat="49.12813" lon="-1.48941">
        <ele>50.5</ele>
      </trkpt>
      <trkpt lat="49.12832" lon="-1.48948">
        <ele>50.6</ele>
      </trkpt>
      <trkpt lat="49.12873" lon="-1.48961">
        <ele>51.4</ele>
      </trkpt>
      <trkpt lat="49.12905" lon="-1.48974">
        <ele>52.3</ele>
      </trkpt>
      <trkpt lat="49.12913" lon="-1.48975">
        <ele>52.6</ele>
      </trkpt>
      <trkpt lat="49.12937" lon="-1.4898">
        <ele>53.7</ele>
      </trkpt>
      <trkpt lat="49.12949" lon="-1.48981">
        <ele>54.3</ele>
      </trkpt>
      <trkpt lat="49.12965" lon="-1.48981">
        <ele>55.1</ele>
      </trkpt>
      <trkpt lat="49.12978" lon="-1.4898">
        <ele>55.7</ele>
      </trkpt>
      <trkpt lat="49.12978" lon="-1.48983">
        <ele>55.8</ele>
      </trkpt>
      <trkpt lat="49.1298" lon="-1.49014">
        <ele>56.1</ele>
      </trkpt>
      <trkpt lat="49.1298" lon="-1.49027">
        <ele>56.1</ele>
      </trkpt>
      <trkpt lat="49.12979" lon="-1.49036">
        <ele>56.1</ele>
      </trkpt>
      <trkpt lat="49.12978" lon="-1.49055">
        <ele>56.1</ele>
      </trkpt>
      <trkpt lat="49.12976" lon="-1.49076">
        <ele>56.1</ele>
      </trkpt>
      <trkpt lat="49.12973" lon="-1.49097">
        <ele>56.1</ele>
      </trkpt>
      <trkpt lat="49.12969" lon="-1.49117">
        <ele>56</ele>
      </trkpt>
      <trkpt lat="49.12966" lon="-1.4913">
        <ele>55.9</ele>
      </trkpt>
      <trkpt lat="49.12961" lon="-1.4915">
        <ele>55.7</ele>
      </trkpt>
      <trkpt lat="49.12955" lon="-1.49176">
        <ele>55.4</ele>
      </trkpt>
      <trkpt lat="49.1295" lon="-1.49197">
        <ele>55.2</ele>
      </trkpt>
      <trkpt lat="49.12943" lon="-1.49216">
        <ele>55</ele>
      </trkpt>
      <trkpt lat="49.12937" lon="-1.49231">
        <ele>54.8</ele>
      </trkpt>
      <trkpt lat="49.12928" lon="-1.49252">
        <ele>54.6</ele>
      </trkpt>
      <trkpt lat="49.12922" lon="-1.49266">
        <ele>54.3</ele>
      </trkpt>
      <trkpt lat="49.12919" lon="-1.49281">
        <ele>54.1</ele>
      </trkpt>
      <trkpt lat="49.12918" lon="-1.49293">
        <ele>54.1</ele>
      </trkpt>
      <trkpt lat="49.12918" lon="-1.49304">
        <ele>54.1</ele>
      </trkpt>
      <trkpt lat="49.12919" lon="-1.49317">
        <ele>54.2</ele>
      </trkpt>
      <trkpt lat="49.12919" lon="-1.49322">
        <ele>54.2</ele>
      </trkpt>
      <trkpt lat="49.1292" lon="-1.49331">
        <ele>54.3</ele>
      </trkpt>
      <trkpt lat="49.1292" lon="-1.49332">
        <ele>54.3</ele>
      </trkpt>
      <trkpt lat="49.12928" lon="-1.4934">
        <ele>54.9</ele>
      </trkpt>
      <trkpt lat="49.12939" lon="-1.49349">
        <ele>55.8</ele>
      </trkpt>
      <trkpt lat="49.1295" lon="-1.4936">
        <ele>56.7</ele>
      </trkpt>
      <trkpt lat="49.1296" lon="-1.49372">
        <ele>57.6</ele>
      </trkpt>
      <trkpt lat="49.1297" lon="-1.49387">
        <ele>58.5</ele>
      </trkpt>
      <trkpt lat="49.12979" lon="-1.49402">
        <ele>59.3</ele>
      </trkpt>
      <trkpt lat="49.12979" lon="-1.49403">
        <ele>59.3</ele>
      </trkpt>
      <trkpt lat="49.12986" lon="-1.49414">
        <ele>59.9</ele>
      </trkpt>
      <trkpt lat="49.12991" lon="-1.49423">
        <ele>60.3</ele>
      </trkpt>
      <trkpt lat="49.12995" lon="-1.49436">
        <ele>60.6</ele>
      </trkpt>
      <trkpt lat="49.12996" lon="-1.49438">
        <ele>60.7</ele>
      </trkpt>
      <trkpt lat="49.13" lon="-1.49455">
        <ele>61</ele>
      </trkpt>
      <trkpt lat="49.13006" lon="-1.49477">
        <ele>61.4</ele>
      </trkpt>
      <trkpt lat="49.13009" lon="-1.4949">
        <ele>61.6</ele>
      </trkpt>
      <trkpt lat="49.13014" lon="-1.49508">
        <ele>62</ele>
      </trkpt>
      <trkpt lat="49.13019" lon="-1.49524">
        <ele>62.5</ele>
      </trkpt>
      <trkpt lat="49.13025" lon="-1.49538">
        <ele>63</ele>
      </trkpt>
      <trkpt lat="49.13031" lon="-1.49554">
        <ele>63.7</ele>
      </trkpt>
      <trkpt lat="49.13038" lon="-1.49571">
        <ele>64.5</ele>
      </trkpt>
      <trkpt lat="49.13045" lon="-1.49595">
        <ele>65.3</ele>
      </trkpt>
      <trkpt lat="49.13054" lon="-1.49624">
        <ele>66.2</ele>
      </trkpt>
      <trkpt lat="49.13059" lon="-1.49638">
        <ele>66.7</ele>
      </trkpt>
      <trkpt lat="49.13063" lon="-1.49651">
        <ele>67.1</ele>
      </trkpt>
      <trkpt lat="49.13072" lon="-1.49673">
        <ele>67.8</ele>
      </trkpt>
      <trkpt lat="49.1308" lon="-1.49691">
        <ele>68.1</ele>
      </trkpt>
      <trkpt lat="49.13081" lon="-1.49694">
        <ele>68.1</ele>
      </trkpt>
      <trkpt lat="49.13091" lon="-1.49714">
        <ele>68.1</ele>
      </trkpt>
      <trkpt lat="49.13103" lon="-1.4974">
        <ele>68</ele>
      </trkpt>
      <trkpt lat="49.13116" lon="-1.49766">
        <ele>68</ele>
      </trkpt>
      <trkpt lat="49.13127" lon="-1.49792">
        <ele>68.3</ele>
      </trkpt>
      <trkpt lat="49.13137" lon="-1.49819">
        <ele>68.9</ele>
      </trkpt>
      <trkpt lat="49.13144" lon="-1.49842">
        <ele>69.2</ele>
      </trkpt>
      <trkpt lat="49.13148" lon="-1.49852">
        <ele>69.3</ele>
      </trkpt>
      <trkpt lat="49.1315" lon="-1.49856">
        <ele>69.3</ele>
      </trkpt>
      <trkpt lat="49.13155" lon="-1.49869">
        <ele>69.4</ele>
      </trkpt>
      <trkpt lat="49.13157" lon="-1.49872">
        <ele>69.4</ele>
      </trkpt>
      <trkpt lat="49.13169" lon="-1.49898">
        <ele>69.5</ele>
      </trkpt>
      <trkpt lat="49.13171" lon="-1.49901">
        <ele>69.4</ele>
      </trkpt>
      <trkpt lat="49.13186" lon="-1.49932">
        <ele>69</ele>
      </trkpt>
      <trkpt lat="49.13192" lon="-1.49944">
        <ele>69</ele>
      </trkpt>
      <trkpt lat="49.13196" lon="-1.49952">
        <ele>68.9</ele>
      </trkpt>
      <trkpt lat="49.13199" lon="-1.49959">
        <ele>68.9</ele>
      </trkpt>
      <trkpt lat="49.13209" lon="-1.49981">
        <ele>68.7</ele>
      </trkpt>
      <trkpt lat="49.1322" lon="-1.5">
        <ele>68.6</ele>
      </trkpt>
      <trkpt lat="49.13237" lon="-1.50029">
        <ele>68.1</ele>
      </trkpt>
      <trkpt lat="49.13248" lon="-1.50048">
        <ele>67.8</ele>
      </trkpt>
      <trkpt lat="49.13253" lon="-1.50057">
        <ele>67.6</ele>
      </trkpt>
      <trkpt lat="49.13267" lon="-1.50077">
        <ele>67.1</ele>
      </trkpt>
      <trkpt lat="49.13296" lon="-1.50125">
        <ele>67</ele>
      </trkpt>
      <trkpt lat="49.13302" lon="-1.50134">
        <ele>67</ele>
      </trkpt>
      <trkpt lat="49.13306" lon="-1.50137">
        <ele>67</ele>
      </trkpt>
      <trkpt lat="49.13313" lon="-1.50146">
        <ele>67</ele>
      </trkpt>
      <trkpt lat="49.13312" lon="-1.50135">
        <ele>67</ele>
      </trkpt>
      <trkpt lat="49.1331" lon="-1.50118">
        <ele>67</ele>
      </trkpt>
      <trkpt lat="49.13343" lon="-1.501">
        <ele>66.7</ele>
      </trkpt>
      <trkpt lat="49.13372" lon="-1.50088">
        <ele>65.6</ele>
      </trkpt>
      <trkpt lat="49.13392" lon="-1.50077">
        <ele>64.8</ele>
      </trkpt>
      <trkpt lat="49.13408" lon="-1.50066">
        <ele>63.9</ele>
      </trkpt>
      <trkpt lat="49.13413" lon="-1.50082">
        <ele>64.1</ele>
      </trkpt>
      <trkpt lat="49.13421" lon="-1.50106">
        <ele>63.6</ele>
      </trkpt>
      <trkpt lat="49.13424" lon="-1.50114">
        <ele>63.4</ele>
      </trkpt>
      <trkpt lat="49.13443" lon="-1.50115">
        <ele>61.7</ele>
      </trkpt>
      <trkpt lat="49.13451" lon="-1.50115">
        <ele>61</ele>
      </trkpt>
      <trkpt lat="49.13457" lon="-1.50115">
        <ele>60.5</ele>
      </trkpt>
      <trkpt lat="49.13476" lon="-1.50113">
        <ele>58.8</ele>
      </trkpt>
      <trkpt lat="49.13486" lon="-1.50112">
        <ele>57.9</ele>
      </trkpt>
      <trkpt lat="49.13496" lon="-1.50111">
        <ele>57</ele>
      </trkpt>
      <trkpt lat="49.13506" lon="-1.50109">
        <ele>56</ele>
      </trkpt>
      <trkpt lat="49.13509" lon="-1.50109">
        <ele>55.6</ele>
      </trkpt>
      <trkpt lat="49.13521" lon="-1.50108">
        <ele>54.2</ele>
      </trkpt>
      <trkpt lat="49.13531" lon="-1.50107">
        <ele>53</ele>
      </trkpt>
      <trkpt lat="49.13537" lon="-1.50109">
        <ele>52.3</ele>
      </trkpt>
      <trkpt lat="49.13542" lon="-1.50114">
        <ele>51.8</ele>
      </trkpt>
      <trkpt lat="49.13542" lon="-1.50123">
        <ele>51.9</ele>
      </trkpt>
      <trkpt lat="49.13543" lon="-1.50131">
        <ele>51.9</ele>
      </trkpt>
      <trkpt lat="49.13548" lon="-1.50136">
        <ele>51.4</ele>
      </trkpt>
      <trkpt lat="49.13559" lon="-1.50141">
        <ele>50</ele>
      </trkpt>
      <trkpt lat="49.13565" lon="-1.50142">
        <ele>49.3</ele>
      </trkpt>
      <trkpt lat="49.13595" lon="-1.50149">
        <ele>46.5</ele>
      </trkpt>
      <trkpt lat="49.13641" lon="-1.50158">
        <ele>44.3</ele>
      </trkpt>
      <trkpt lat="49.13656" lon="-1.50161">
        <ele>43.6</ele>
      </trkpt>
      <trkpt lat="49.13689" lon="-1.50167">
        <ele>42.5</ele>
      </trkpt>
      <trkpt lat="49.13718" lon="-1.50174">
        <ele>41.8</ele>
      </trkpt>
      <trkpt lat="49.13757" lon="-1.50189">
        <ele>41.2</ele>
      </trkpt>
      <trkpt lat="49.13776" lon="-1.50199">
        <ele>41.1</ele>
      </trkpt>
      <trkpt lat="49.1381" lon="-1.50224">
        <ele>41</ele>
      </trkpt>
      <trkpt lat="49.13835" lon="-1.50246">
        <ele>40.9</ele>
      </trkpt>
      <trkpt lat="49.13827" lon="-1.50265">
        <ele>40.9</ele>
      </trkpt>
      <trkpt lat="49.13818" lon="-1.50283">
        <ele>40.8</ele>
      </trkpt>
      <trkpt lat="49.13803" lon="-1.50318">
        <ele>40.5</ele>
      </trkpt>
      <trkpt lat="49.13796" lon="-1.50334">
        <ele>40.4</ele>
      </trkpt>
      <trkpt lat="49.13767" lon="-1.50393">
        <ele>40.5</ele>
      </trkpt>
      <trkpt lat="49.1376" lon="-1.50409">
        <ele>40.7</ele>
      </trkpt>
      <trkpt lat="49.1374" lon="-1.50449">
        <ele>40.8</ele>
      </trkpt>
      <trkpt lat="49.13734" lon="-1.50463">
        <ele>40.7</ele>
      </trkpt>
      <trkpt lat="49.13721" lon="-1.50491">
        <ele>40.5</ele>
      </trkpt>
      <trkpt lat="49.13706" lon="-1.50524">
        <ele>40.5</ele>
      </trkpt>
      <trkpt lat="49.13696" lon="-1.50554">
        <ele>40.6</ele>
      </trkpt>
      <trkpt lat="49.1369" lon="-1.50578">
        <ele>40.7</ele>
      </trkpt>
      <trkpt lat="49.13688" lon="-1.50587">
        <ele>40.8</ele>
      </trkpt>
      <trkpt lat="49.13685" lon="-1.50613">
        <ele>40.9</ele>
      </trkpt>
      <trkpt lat="49.13685" lon="-1.5063">
        <ele>40.9</ele>
      </trkpt>
      <trkpt lat="49.13692" lon="-1.50652">
        <ele>40.9</ele>
      </trkpt>
      <trkpt lat="49.13698" lon="-1.50673">
        <ele>41</ele>
      </trkpt>
      <trkpt lat="49.13698" lon="-1.50681">
        <ele>40.9</ele>
      </trkpt>
      <trkpt lat="49.13698" lon="-1.50687">
        <ele>40.9</ele>
      </trkpt>
      <trkpt lat="49.13698" lon="-1.50694">
        <ele>40.9</ele>
      </trkpt>
      <trkpt lat="49.13697" lon="-1.50706">
        <ele>40.8</ele>
      </trkpt>
      <trkpt lat="49.13694" lon="-1.50736">
        <ele>40.7</ele>
      </trkpt>
      <trkpt lat="49.13693" lon="-1.50749">
        <ele>40.7</ele>
      </trkpt>
      <trkpt lat="49.13691" lon="-1.5077">
        <ele>40.6</ele>
      </trkpt>
      <trkpt lat="49.13689" lon="-1.50787">
        <ele>40.6</ele>
      </trkpt>
      <trkpt lat="49.13687" lon="-1.50802">
        <ele>40.6</ele>
      </trkpt>
      <trkpt lat="49.13682" lon="-1.50837">
        <ele>40.6</ele>
      </trkpt>
      <trkpt lat="49.13679" lon="-1.5086">
        <ele>40.7</ele>
      </trkpt>
      <trkpt lat="49.13669" lon="-1.50911">
        <ele>40.9</ele>
      </trkpt>
      <trkpt lat="49.13667" lon="-1.50923">
        <ele>40.9</ele>
      </trkpt>
      <trkpt lat="49.1366" lon="-1.50971">
        <ele>40.3</ele>
      </trkpt>
      <trkpt lat="49.13659" lon="-1.50975">
        <ele>40.3</ele>
      </trkpt>
      <trkpt lat="49.13657" lon="-1.50988">
        <ele>40.1</ele>
      </trkpt>
      <trkpt lat="49.13653" lon="-1.51005">
        <ele>40</ele>
      </trkpt>
      <trkpt lat="49.13647" lon="-1.51037">
        <ele>39.9</ele>
      </trkpt>
      <trkpt lat="49.13643" lon="-1.51058">
        <ele>39.9</ele>
      </trkpt>
      <trkpt lat="49.13637" lon="-1.51088">
        <ele>40</ele>
      </trkpt>
      <trkpt lat="49.13635" lon="-1.51106">
        <ele>39.8</ele>
      </trkpt>
      <trkpt lat="49.13632" lon="-1.51137">
        <ele>39.3</ele>
      </trkpt>
      <trkpt lat="49.13631" lon="-1.51171">
        <ele>38.8</ele>
      </trkpt>
      <trkpt lat="49.13631" lon="-1.51184">
        <ele>38.5</ele>
      </trkpt>
      <trkpt lat="49.13631" lon="-1.51187">
        <ele>38.4</ele>
      </trkpt>
      <trkpt lat="49.13631" lon="-1.51224">
        <ele>37.5</ele>
      </trkpt>
      <trkpt lat="49.13634" lon="-1.5127">
        <ele>36.8</ele>
      </trkpt>
      <trkpt lat="49.13635" lon="-1.51291">
        <ele>36.9</ele>
      </trkpt>
      <trkpt lat="49.13637" lon="-1.51327">
        <ele>37</ele>
      </trkpt>
      <trkpt lat="49.13638" lon="-1.51332">
        <ele>37</ele>
      </trkpt>
      <trkpt lat="49.1364" lon="-1.51365">
        <ele>36.9</ele>
      </trkpt>
      <trkpt lat="49.13641" lon="-1.51378">
        <ele>36.8</ele>
      </trkpt>
      <trkpt lat="49.1364" lon="-1.51425">
        <ele>36.8</ele>
      </trkpt>
      <trkpt lat="49.13639" lon="-1.51472">
        <ele>37.6</ele>
      </trkpt>
      <trkpt lat="49.13638" lon="-1.51479">
        <ele>37.7</ele>
      </trkpt>
      <trkpt lat="49.13637" lon="-1.51486">
        <ele>37.8</ele>
      </trkpt>
      <trkpt lat="49.13637" lon="-1.51491">
        <ele>37.9</ele>
      </trkpt>
      <trkpt lat="49.13635" lon="-1.51508">
        <ele>37.9</ele>
      </trkpt>
      <trkpt lat="49.1363" lon="-1.51521">
        <ele>37.8</ele>
      </trkpt>
      <trkpt lat="49.1362" lon="-1.51537">
        <ele>37.9</ele>
      </trkpt>
      <trkpt lat="49.13615" lon="-1.51549">
        <ele>37.9</ele>
      </trkpt>
      <trkpt lat="49.13609" lon="-1.51583">
        <ele>38.1</ele>
      </trkpt>
      <trkpt lat="49.136" lon="-1.51676">
        <ele>37.1</ele>
      </trkpt>
      <trkpt lat="49.13598" lon="-1.51696">
        <ele>37.1</ele>
      </trkpt>
      <trkpt lat="49.13593" lon="-1.51738">
        <ele>36.9</ele>
      </trkpt>
      <trkpt lat="49.13593" lon="-1.51745">
        <ele>36.8</ele>
      </trkpt>
      <trkpt lat="49.13588" lon="-1.51798">
        <ele>36.9</ele>
      </trkpt>
      <trkpt lat="49.13588" lon="-1.51806">
        <ele>36.9</ele>
      </trkpt>
      <trkpt lat="49.13585" lon="-1.51848">
        <ele>36.8</ele>
      </trkpt>
      <trkpt lat="49.13583" lon="-1.51903">
        <ele>36.2</ele>
      </trkpt>
      <trkpt lat="49.13581" lon="-1.51959">
        <ele>35.5</ele>
      </trkpt>
      <trkpt lat="49.13581" lon="-1.51971">
        <ele>35.4</ele>
      </trkpt>
      <trkpt lat="49.13579" lon="-1.52022">
        <ele>34.8</ele>
      </trkpt>
      <trkpt lat="49.13579" lon="-1.52073">
        <ele>34.2</ele>
      </trkpt>
      <trkpt lat="49.13577" lon="-1.52148">
        <ele>33.4</ele>
      </trkpt>
      <trkpt lat="49.13546" lon="-1.52151">
        <ele>34.1</ele>
      </trkpt>
      <trkpt lat="49.13543" lon="-1.52151">
        <ele>34.2</ele>
      </trkpt>
      <trkpt lat="49.13516" lon="-1.52153">
        <ele>34.8</ele>
      </trkpt>
      <trkpt lat="49.13496" lon="-1.52157">
        <ele>35.1</ele>
      </trkpt>
      <trkpt lat="49.13469" lon="-1.52167">
        <ele>34.6</ele>
      </trkpt>
      <trkpt lat="49.13464" lon="-1.52169">
        <ele>34.5</ele>
      </trkpt>
      <trkpt lat="49.13428" lon="-1.52186">
        <ele>33.9</ele>
      </trkpt>
      <trkpt lat="49.13401" lon="-1.52195">
        <ele>33.7</ele>
      </trkpt>
      <trkpt lat="49.13374" lon="-1.52201">
        <ele>33.8</ele>
      </trkpt>
      <trkpt lat="49.13367" lon="-1.52202">
        <ele>33.8</ele>
      </trkpt>
      <trkpt lat="49.13326" lon="-1.52205">
        <ele>33.8</ele>
      </trkpt>
      <trkpt lat="49.13317" lon="-1.52206">
        <ele>33.5</ele>
      </trkpt>
      <trkpt lat="49.13287" lon="-1.52209">
        <ele>32.6</ele>
      </trkpt>
      <trkpt lat="49.13273" lon="-1.52212">
        <ele>32.2</ele>
      </trkpt>
      <trkpt lat="49.13262" lon="-1.52214">
        <ele>31.9</ele>
      </trkpt>
      <trkpt lat="49.13231" lon="-1.52233">
        <ele>31.9</ele>
      </trkpt>
      <trkpt lat="49.13207" lon="-1.5225">
        <ele>32</ele>
      </trkpt>
      <trkpt lat="49.13188" lon="-1.5227">
        <ele>32.3</ele>
      </trkpt>
      <trkpt lat="49.13177" lon="-1.52281">
        <ele>32.4</ele>
      </trkpt>
      <trkpt lat="49.13159" lon="-1.523">
        <ele>32.5</ele>
      </trkpt>
      <trkpt lat="49.13155" lon="-1.52305">
        <ele>32.5</ele>
      </trkpt>
      <trkpt lat="49.13143" lon="-1.52317">
        <ele>32.5</ele>
      </trkpt>
      <trkpt lat="49.13114" lon="-1.52353">
        <ele>32.4</ele>
      </trkpt>
      <trkpt lat="49.13111" lon="-1.52359">
        <ele>32.3</ele>
      </trkpt>
      <trkpt lat="49.13085" lon="-1.52398">
        <ele>32</ele>
      </trkpt>
      <trkpt lat="49.13053" lon="-1.52453">
        <ele>31.8</ele>
      </trkpt>
      <trkpt lat="49.13048" lon="-1.52462">
        <ele>31.8</ele>
      </trkpt>
      <trkpt lat="49.13023" lon="-1.52511">
        <ele>32</ele>
      </trkpt>
      <trkpt lat="49.13002" lon="-1.52547">
        <ele>32</ele>
      </trkpt>
      <trkpt lat="49.12991" lon="-1.52508">
        <ele>32.2</ele>
      </trkpt>
      <trkpt lat="49.12989" lon="-1.52498">
        <ele>32.2</ele>
      </trkpt>
      <trkpt lat="49.12981" lon="-1.52467">
        <ele>32</ele>
      </trkpt>
      <trkpt lat="49.12975" lon="-1.52442">
        <ele>31.9</ele>
      </trkpt>
      <trkpt lat="49.12973" lon="-1.52434">
        <ele>31.9</ele>
      </trkpt>
      <trkpt lat="49.12958" lon="-1.52442">
        <ele>32.3</ele>
      </trkpt>
      <trkpt lat="49.1287" lon="-1.52472">
        <ele>34.4</ele>
      </trkpt>
      <trkpt lat="49.12853" lon="-1.52477">
        <ele>34.7</ele>
      </trkpt>
      <trkpt lat="49.12849" lon="-1.52478">
        <ele>34.8</ele>
      </trkpt>
      <trkpt lat="49.1283" lon="-1.52483">
        <ele>35</ele>
      </trkpt>
      <trkpt lat="49.12807" lon="-1.52485">
        <ele>34.7</ele>
      </trkpt>
      <trkpt lat="49.12785" lon="-1.52486">
        <ele>34.4</ele>
      </trkpt>
      <trkpt lat="49.12768" lon="-1.52487">
        <ele>34.2</ele>
      </trkpt>
      <trkpt lat="49.12752" lon="-1.52488">
        <ele>34</ele>
      </trkpt>
      <trkpt lat="49.1274" lon="-1.52491">
        <ele>34.2</ele>
      </trkpt>
      <trkpt lat="49.12729" lon="-1.52498">
        <ele>34.3</ele>
      </trkpt>
      <trkpt lat="49.12724" lon="-1.5251">
        <ele>34.2</ele>
      </trkpt>
      <trkpt lat="49.12721" lon="-1.5253">
        <ele>34.1</ele>
      </trkpt>
      <trkpt lat="49.1272" lon="-1.52555">
        <ele>33.9</ele>
      </trkpt>
      <trkpt lat="49.12719" lon="-1.52562">
        <ele>33.8</ele>
      </trkpt>
      <trkpt lat="49.12717" lon="-1.52578">
        <ele>33.7</ele>
      </trkpt>
      <trkpt lat="49.12716" lon="-1.52584">
        <ele>33.6</ele>
      </trkpt>
      <trkpt lat="49.1271" lon="-1.52609">
        <ele>33.5</ele>
      </trkpt>
      <trkpt lat="49.12702" lon="-1.52652">
        <ele>33.5</ele>
      </trkpt>
      <trkpt lat="49.12701" lon="-1.52656">
        <ele>33.6</ele>
      </trkpt>
      <trkpt lat="49.127" lon="-1.52676">
        <ele>33.5</ele>
      </trkpt>
      <trkpt lat="49.127" lon="-1.52703">
        <ele>33.3</ele>
      </trkpt>
      <trkpt lat="49.12702" lon="-1.5273">
        <ele>33.1</ele>
      </trkpt>
      <trkpt lat="49.12702" lon="-1.52756">
        <ele>33</ele>
      </trkpt>
      <trkpt lat="49.12705" lon="-1.52807">
        <ele>33</ele>
      </trkpt>
      <trkpt lat="49.12705" lon="-1.52811">
        <ele>33</ele>
      </trkpt>
      <trkpt lat="49.12706" lon="-1.52833">
        <ele>33</ele>
      </trkpt>
      <trkpt lat="49.12706" lon="-1.52857">
        <ele>32.7</ele>
      </trkpt>
      <trkpt lat="49.12704" lon="-1.52881">
        <ele>32.4</ele>
      </trkpt>
      <trkpt lat="49.12704" lon="-1.52905">
        <ele>32.1</ele>
      </trkpt>
      <trkpt lat="49.12703" lon="-1.5293">
        <ele>32</ele>
      </trkpt>
      <trkpt lat="49.12703" lon="-1.52937">
        <ele>32</ele>
      </trkpt>
      <trkpt lat="49.12702" lon="-1.52954">
        <ele>32.1</ele>
      </trkpt>
      <trkpt lat="49.12701" lon="-1.52982">
        <ele>32.1</ele>
      </trkpt>
      <trkpt lat="49.127" lon="-1.53002">
        <ele>32.2</ele>
      </trkpt>
      <trkpt lat="49.127" lon="-1.53012">
        <ele>32.3</ele>
      </trkpt>
      <trkpt lat="49.12699" lon="-1.53041">
        <ele>32.5</ele>
      </trkpt>
      <trkpt lat="49.12697" lon="-1.5307">
        <ele>32.8</ele>
      </trkpt>
      <trkpt lat="49.12694" lon="-1.531">
        <ele>33.1</ele>
      </trkpt>
      <trkpt lat="49.12692" lon="-1.53122">
        <ele>33.2</ele>
      </trkpt>
      <trkpt lat="49.12692" lon="-1.53126">
        <ele>33.2</ele>
      </trkpt>
      <trkpt lat="49.12689" lon="-1.53149">
        <ele>33.4</ele>
      </trkpt>
      <trkpt lat="49.12687" lon="-1.53159">
        <ele>33.5</ele>
      </trkpt>
      <trkpt lat="49.12684" lon="-1.53173">
        <ele>33.6</ele>
      </trkpt>
      <trkpt lat="49.12679" lon="-1.532">
        <ele>33.8</ele>
      </trkpt>
      <trkpt lat="49.12673" lon="-1.53223">
        <ele>33.9</ele>
      </trkpt>
      <trkpt lat="49.12669" lon="-1.53237">
        <ele>34</ele>
      </trkpt>
      <trkpt lat="49.12667" lon="-1.53245">
        <ele>34</ele>
      </trkpt>
      <trkpt lat="49.12662" lon="-1.53262">
        <ele>33.7</ele>
      </trkpt>
      <trkpt lat="49.12661" lon="-1.53266">
        <ele>33.6</ele>
      </trkpt>
      <trkpt lat="49.12656" lon="-1.53288">
        <ele>33.2</ele>
      </trkpt>
      <trkpt lat="49.12651" lon="-1.53317">
        <ele>32.8</ele>
      </trkpt>
      <trkpt lat="49.12643" lon="-1.53349">
        <ele>32.3</ele>
      </trkpt>
      <trkpt lat="49.12641" lon="-1.53361">
        <ele>32.2</ele>
      </trkpt>
      <trkpt lat="49.12634" lon="-1.53404">
        <ele>31.7</ele>
      </trkpt>
      <trkpt lat="49.12627" lon="-1.53444">
        <ele>31.2</ele>
      </trkpt>
      <trkpt lat="49.12622" lon="-1.53467">
        <ele>30.9</ele>
      </trkpt>
      <trkpt lat="49.12621" lon="-1.53482">
        <ele>30.7</ele>
      </trkpt>
      <trkpt lat="49.12618" lon="-1.53518">
        <ele>30.3</ele>
      </trkpt>
      <trkpt lat="49.12617" lon="-1.53544">
        <ele>30.2</ele>
      </trkpt>
      <trkpt lat="49.12617" lon="-1.53574">
        <ele>30</ele>
      </trkpt>
      <trkpt lat="49.12616" lon="-1.53605">
        <ele>30</ele>
      </trkpt>
      <trkpt lat="49.12615" lon="-1.53637">
        <ele>30</ele>
      </trkpt>
      <trkpt lat="49.12613" lon="-1.53667">
        <ele>30</ele>
      </trkpt>
      <trkpt lat="49.12609" lon="-1.53696">
        <ele>29.8</ele>
      </trkpt>
      <trkpt lat="49.12605" lon="-1.53729">
        <ele>29.5</ele>
      </trkpt>
      <trkpt lat="49.12602" lon="-1.5376">
        <ele>29.2</ele>
      </trkpt>
      <trkpt lat="49.12595" lon="-1.53806">
        <ele>29</ele>
      </trkpt>
      <trkpt lat="49.12592" lon="-1.53831">
        <ele>29</ele>
      </trkpt>
      <trkpt lat="49.1259" lon="-1.53847">
        <ele>29</ele>
      </trkpt>
      <trkpt lat="49.12585" lon="-1.53848">
        <ele>29</ele>
      </trkpt>
      <trkpt lat="49.12587" lon="-1.53866">
        <ele>29</ele>
      </trkpt>
      <trkpt lat="49.12587" lon="-1.53878">
        <ele>29</ele>
      </trkpt>
      <trkpt lat="49.12587" lon="-1.53892">
        <ele>29</ele>
      </trkpt>
      <trkpt lat="49.12587" lon="-1.539">
        <ele>29</ele>
      </trkpt>
      <trkpt lat="49.12585" lon="-1.5391">
        <ele>29</ele>
      </trkpt>
      <trkpt lat="49.12583" lon="-1.53919">
        <ele>28.9</ele>
      </trkpt>
      <trkpt lat="49.12577" lon="-1.53931">
        <ele>28.6</ele>
      </trkpt>
      <trkpt lat="49.12572" lon="-1.53946">
        <ele>28.2</ele>
      </trkpt>
      <trkpt lat="49.12567" lon="-1.53958">
        <ele>27.8</ele>
      </trkpt>
      <trkpt lat="49.12563" lon="-1.5397">
        <ele>27.5</ele>
      </trkpt>
      <trkpt lat="49.12561" lon="-1.53981">
        <ele>27.2</ele>
      </trkpt>
      <trkpt lat="49.1256" lon="-1.53992">
        <ele>26.9</ele>
      </trkpt>
      <trkpt lat="49.12561" lon="-1.53998">
        <ele>26.8</ele>
      </trkpt>
      <trkpt lat="49.12562" lon="-1.54004">
        <ele>26.7</ele>
      </trkpt>
      <trkpt lat="49.12568" lon="-1.54027">
        <ele>26.6</ele>
      </trkpt>
      <trkpt lat="49.1258" lon="-1.54063">
        <ele>26.2</ele>
      </trkpt>
      <trkpt lat="49.12592" lon="-1.54102">
        <ele>26.1</ele>
      </trkpt>
      <trkpt lat="49.12596" lon="-1.54114">
        <ele>26.1</ele>
      </trkpt>
      <trkpt lat="49.12602" lon="-1.54136">
        <ele>26.1</ele>
      </trkpt>
      <trkpt lat="49.1261" lon="-1.54167">
        <ele>26</ele>
      </trkpt>
      <trkpt lat="49.12612" lon="-1.54186">
        <ele>25.9</ele>
      </trkpt>
      <trkpt lat="49.12613" lon="-1.54193">
        <ele>25.8</ele>
      </trkpt>
      <trkpt lat="49.12616" lon="-1.54228">
        <ele>25.6</ele>
      </trkpt>
      <trkpt lat="49.12619" lon="-1.54269">
        <ele>25.5</ele>
      </trkpt>
      <trkpt lat="49.12621" lon="-1.543">
        <ele>25.5</ele>
      </trkpt>
      <trkpt lat="49.12621" lon="-1.54305">
        <ele>25.5</ele>
      </trkpt>
      <trkpt lat="49.12621" lon="-1.54307">
        <ele>25.5</ele>
      </trkpt>
      <trkpt lat="49.12624" lon="-1.54319">
        <ele>25.5</ele>
      </trkpt>
      <trkpt lat="49.12626" lon="-1.54325">
        <ele>25.5</ele>
      </trkpt>
      <trkpt lat="49.12629" lon="-1.54337">
        <ele>25.4</ele>
      </trkpt>
      <trkpt lat="49.12639" lon="-1.54362">
        <ele>25.3</ele>
      </trkpt>
      <trkpt lat="49.12643" lon="-1.5437">
        <ele>25.3</ele>
      </trkpt>
      <trkpt lat="49.1265" lon="-1.54386">
        <ele>25.2</ele>
      </trkpt>
      <trkpt lat="49.12659" lon="-1.54409">
        <ele>25.1</ele>
      </trkpt>
      <trkpt lat="49.12672" lon="-1.54429">
        <ele>25.2</ele>
      </trkpt>
      <trkpt lat="49.1268" lon="-1.54442">
        <ele>25.4</ele>
      </trkpt>
      <trkpt lat="49.12688" lon="-1.54456">
        <ele>25.5</ele>
      </trkpt>
      <trkpt lat="49.12704" lon="-1.54486">
        <ele>25.5</ele>
      </trkpt>
      <trkpt lat="49.12722" lon="-1.54518">
        <ele>25.2</ele>
      </trkpt>
      <trkpt lat="49.12738" lon="-1.54544">
        <ele>24.7</ele>
      </trkpt>
      <trkpt lat="49.12747" lon="-1.54564">
        <ele>24.3</ele>
      </trkpt>
      <trkpt lat="49.1275" lon="-1.54576">
        <ele>24.1</ele>
      </trkpt>
      <trkpt lat="49.12754" lon="-1.54594">
        <ele>23.9</ele>
      </trkpt>
      <trkpt lat="49.12754" lon="-1.54599">
        <ele>23.8</ele>
      </trkpt>
      <trkpt lat="49.12757" lon="-1.54619">
        <ele>23.6</ele>
      </trkpt>
      <trkpt lat="49.12758" lon="-1.54625">
        <ele>23.5</ele>
      </trkpt>
      <trkpt lat="49.12762" lon="-1.54643">
        <ele>23.3</ele>
      </trkpt>
      <trkpt lat="49.12768" lon="-1.54664">
        <ele>23</ele>
      </trkpt>
      <trkpt lat="49.12775" lon="-1.54682">
        <ele>23.2</ele>
      </trkpt>
      <trkpt lat="49.12778" lon="-1.5469">
        <ele>23.3</ele>
      </trkpt>
      <trkpt lat="49.12784" lon="-1.54703">
        <ele>23.3</ele>
      </trkpt>
      <trkpt lat="49.12794" lon="-1.54724">
        <ele>23.3</ele>
      </trkpt>
      <trkpt lat="49.12798" lon="-1.54737">
        <ele>23.2</ele>
      </trkpt>
      <trkpt lat="49.12798" lon="-1.54738">
        <ele>23.2</ele>
      </trkpt>
      <trkpt lat="49.128" lon="-1.54745">
        <ele>23.2</ele>
      </trkpt>
      <trkpt lat="49.12802" lon="-1.54751">
        <ele>23.1</ele>
      </trkpt>
      <trkpt lat="49.12806" lon="-1.54769">
        <ele>22.9</ele>
      </trkpt>
      <trkpt lat="49.12808" lon="-1.5479">
        <ele>22.8</ele>
      </trkpt>
      <trkpt lat="49.12809" lon="-1.54813">
        <ele>22.7</ele>
      </trkpt>
      <trkpt lat="49.12811" lon="-1.54834">
        <ele>22.5</ele>
      </trkpt>
      <trkpt lat="49.12812" lon="-1.54853">
        <ele>22.5</ele>
      </trkpt>
      <trkpt lat="49.12816" lon="-1.54884">
        <ele>22.4</ele>
      </trkpt>
      <trkpt lat="49.12819" lon="-1.54904">
        <ele>22.3</ele>
      </trkpt>
      <trkpt lat="49.1282" lon="-1.54905">
        <ele>22.3</ele>
      </trkpt>
      <trkpt lat="49.12824" lon="-1.54932">
        <ele>22.4</ele>
      </trkpt>
      <trkpt lat="49.12836" lon="-1.55002">
        <ele>23</ele>
      </trkpt>
      <trkpt lat="49.12844" lon="-1.55051">
        <ele>23.4</ele>
      </trkpt>
      <trkpt lat="49.12848" lon="-1.55074">
        <ele>23.6</ele>
      </trkpt>
      <trkpt lat="49.12853" lon="-1.55094">
        <ele>23.6</ele>
      </trkpt>
      <trkpt lat="49.12858" lon="-1.55115">
        <ele>23.7</ele>
      </trkpt>
      <trkpt lat="49.12865" lon="-1.55141">
        <ele>23.7</ele>
      </trkpt>
      <trkpt lat="49.12873" lon="-1.55167">
        <ele>23.6</ele>
      </trkpt>
      <trkpt lat="49.12874" lon="-1.55173">
        <ele>23.5</ele>
      </trkpt>
      <trkpt lat="49.12876" lon="-1.5518">
        <ele>23.4</ele>
      </trkpt>
      <trkpt lat="49.12878" lon="-1.5519">
        <ele>23.3</ele>
      </trkpt>
      <trkpt lat="49.12884" lon="-1.55215">
        <ele>23</ele>
      </trkpt>
      <trkpt lat="49.12887" lon="-1.55237">
        <ele>22.8</ele>
      </trkpt>
      <trkpt lat="49.12892" lon="-1.5526">
        <ele>22.7</ele>
      </trkpt>
      <trkpt lat="49.12895" lon="-1.55278">
        <ele>22.9</ele>
      </trkpt>
      <trkpt lat="49.12896" lon="-1.55284">
        <ele>22.9</ele>
      </trkpt>
      <trkpt lat="49.12897" lon="-1.55295">
        <ele>23</ele>
      </trkpt>
      <trkpt lat="49.12899" lon="-1.55319">
        <ele>23.2</ele>
      </trkpt>
      <trkpt lat="49.12901" lon="-1.55338">
        <ele>23.3</ele>
      </trkpt>
      <trkpt lat="49.12901" lon="-1.55356">
        <ele>23.1</ele>
      </trkpt>
      <trkpt lat="49.12903" lon="-1.55379">
        <ele>22.9</ele>
      </trkpt>
      <trkpt lat="49.12905" lon="-1.554">
        <ele>22.6</ele>
      </trkpt>
      <trkpt lat="49.12908" lon="-1.55421">
        <ele>22.3</ele>
      </trkpt>
      <trkpt lat="49.1291" lon="-1.55445">
        <ele>22.2</ele>
      </trkpt>
      <trkpt lat="49.12912" lon="-1.55466">
        <ele>22.1</ele>
      </trkpt>
      <trkpt lat="49.12914" lon="-1.55489">
        <ele>22.1</ele>
      </trkpt>
      <trkpt lat="49.12916" lon="-1.55514">
        <ele>22.2</ele>
      </trkpt>
      <trkpt lat="49.12917" lon="-1.55535">
        <ele>22.4</ele>
      </trkpt>
      <trkpt lat="49.12917" lon="-1.55541">
        <ele>22.5</ele>
      </trkpt>
      <trkpt lat="49.12917" lon="-1.55558">
        <ele>22.7</ele>
      </trkpt>
      <trkpt lat="49.12918" lon="-1.55635">
        <ele>22.4</ele>
      </trkpt>
      <trkpt lat="49.12918" lon="-1.55646">
        <ele>22.2</ele>
      </trkpt>
      <trkpt lat="49.12918" lon="-1.5566">
        <ele>22.1</ele>
      </trkpt>
      <trkpt lat="49.12919" lon="-1.55687">
        <ele>21.5</ele>
      </trkpt>
      <trkpt lat="49.12919" lon="-1.55717">
        <ele>20.8</ele>
      </trkpt>
      <trkpt lat="49.1292" lon="-1.55741">
        <ele>20.2</ele>
      </trkpt>
      <trkpt lat="49.12922" lon="-1.55793">
        <ele>20</ele>
      </trkpt>
      <trkpt lat="49.12922" lon="-1.55814">
        <ele>19.9</ele>
      </trkpt>
      <trkpt lat="49.12923" lon="-1.55829">
        <ele>19.9</ele>
      </trkpt>
      <trkpt lat="49.12923" lon="-1.55834">
        <ele>19.9</ele>
      </trkpt>
      <trkpt lat="49.12924" lon="-1.55855">
        <ele>19.9</ele>
      </trkpt>
      <trkpt lat="49.12925" lon="-1.55882">
        <ele>19.8</ele>
      </trkpt>
      <trkpt lat="49.12926" lon="-1.55893">
        <ele>19.8</ele>
      </trkpt>
      <trkpt lat="49.12943" lon="-1.55894">
        <ele>19.4</ele>
      </trkpt>
      <trkpt lat="49.12958" lon="-1.55895">
        <ele>19.1</ele>
      </trkpt>
      <trkpt lat="49.12967" lon="-1.55893">
        <ele>19</ele>
      </trkpt>
      <trkpt lat="49.12977" lon="-1.55892">
        <ele>18.8</ele>
      </trkpt>
      <trkpt lat="49.12985" lon="-1.55891">
        <ele>18.6</ele>
      </trkpt>
      <trkpt lat="49.1299" lon="-1.55891">
        <ele>18.5</ele>
      </trkpt>
      <trkpt lat="49.12992" lon="-1.55891">
        <ele>18.5</ele>
      </trkpt>
      <trkpt lat="49.13001" lon="-1.55893">
        <ele>18.3</ele>
      </trkpt>
      <trkpt lat="49.13011" lon="-1.55897">
        <ele>18.6</ele>
      </trkpt>
      <trkpt lat="49.1302" lon="-1.55901">
        <ele>18.9</ele>
      </trkpt>
      <trkpt lat="49.13029" lon="-1.55904">
        <ele>19.2</ele>
      </trkpt>
      <trkpt lat="49.13028" lon="-1.55916">
        <ele>19</ele>
      </trkpt>
      <trkpt lat="49.13027" lon="-1.55928">
        <ele>18.7</ele>
      </trkpt>
      <trkpt lat="49.13028" lon="-1.55937">
        <ele>18.5</ele>
      </trkpt>
      <trkpt lat="49.13031" lon="-1.55949">
        <ele>18.3</ele>
      </trkpt>
      <trkpt lat="49.13038" lon="-1.55971">
        <ele>18</ele>
      </trkpt>
      <trkpt lat="49.13047" lon="-1.56">
        <ele>17.7</ele>
      </trkpt>
      <trkpt lat="49.13048" lon="-1.56003">
        <ele>17.7</ele>
      </trkpt>
      <trkpt lat="49.13059" lon="-1.56037">
        <ele>17.5</ele>
      </trkpt>
      <trkpt lat="49.1306" lon="-1.5604">
        <ele>17.5</ele>
      </trkpt>
      <trkpt lat="49.13069" lon="-1.5607">
        <ele>17.1</ele>
      </trkpt>
      <trkpt lat="49.13076" lon="-1.56089">
        <ele>16.8</ele>
      </trkpt>
      <trkpt lat="49.13083" lon="-1.56108">
        <ele>16.7</ele>
      </trkpt>
      <trkpt lat="49.13096" lon="-1.56143">
        <ele>16.4</ele>
      </trkpt>
      <trkpt lat="49.13107" lon="-1.56174">
        <ele>16.2</ele>
      </trkpt>
      <trkpt lat="49.13111" lon="-1.56189">
        <ele>16.1</ele>
      </trkpt>
      <trkpt lat="49.13116" lon="-1.56213">
        <ele>15.8</ele>
      </trkpt>
      <trkpt lat="49.13119" lon="-1.5624">
        <ele>15.5</ele>
      </trkpt>
      <trkpt lat="49.1312" lon="-1.56271">
        <ele>15.6</ele>
      </trkpt>
      <trkpt lat="49.1312" lon="-1.56284">
        <ele>15.6</ele>
      </trkpt>
      <trkpt lat="49.1312" lon="-1.56291">
        <ele>15.7</ele>
      </trkpt>
      <trkpt lat="49.1312" lon="-1.56305">
        <ele>15.7</ele>
      </trkpt>
      <trkpt lat="49.13119" lon="-1.56362">
        <ele>16</ele>
      </trkpt>
      <trkpt lat="49.13115" lon="-1.56417">
        <ele>16.4</ele>
      </trkpt>
      <trkpt lat="49.13114" lon="-1.56425">
        <ele>16.3</ele>
      </trkpt>
      <trkpt lat="49.13112" lon="-1.56469">
        <ele>15.7</ele>
      </trkpt>
      <trkpt lat="49.13111" lon="-1.56488">
        <ele>15.5</ele>
      </trkpt>
      <trkpt lat="49.13109" lon="-1.56518">
        <ele>14.8</ele>
      </trkpt>
      <trkpt lat="49.13107" lon="-1.5656">
        <ele>13.6</ele>
      </trkpt>
      <trkpt lat="49.13106" lon="-1.56615">
        <ele>12.4</ele>
      </trkpt>
      <trkpt lat="49.13108" lon="-1.56658">
        <ele>11.7</ele>
      </trkpt>
      <trkpt lat="49.13109" lon="-1.56665">
        <ele>11.6</ele>
      </trkpt>
      <trkpt lat="49.13115" lon="-1.56711">
        <ele>12.1</ele>
      </trkpt>
      <trkpt lat="49.13125" lon="-1.56775">
        <ele>12.4</ele>
      </trkpt>
      <trkpt lat="49.13126" lon="-1.56777">
        <ele>12.3</ele>
      </trkpt>
      <trkpt lat="49.13133" lon="-1.56845">
        <ele>11.9</ele>
      </trkpt>
      <trkpt lat="49.13134" lon="-1.56896">
        <ele>11.3</ele>
      </trkpt>
      <trkpt lat="49.13134" lon="-1.56908">
        <ele>11.1</ele>
      </trkpt>
      <trkpt lat="49.13134" lon="-1.56922">
        <ele>11</ele>
      </trkpt>
      <trkpt lat="49.13134" lon="-1.56925">
        <ele>11.1</ele>
      </trkpt>
      <trkpt lat="49.13132" lon="-1.56925">
        <ele>11.1</ele>
      </trkpt>
      <trkpt lat="49.13134" lon="-1.56925">
        <ele>11.1</ele>
      </trkpt>
      <trkpt lat="49.13133" lon="-1.56958">
        <ele>11.3</ele>
      </trkpt>
      <trkpt lat="49.13133" lon="-1.5698">
        <ele>11.5</ele>
      </trkpt>
      <trkpt lat="49.13132" lon="-1.57002">
        <ele>11.6</ele>
      </trkpt>
      <trkpt lat="49.1313" lon="-1.57044">
        <ele>11.3</ele>
      </trkpt>
      <trkpt lat="49.13128" lon="-1.57055">
        <ele>11.2</ele>
      </trkpt>
      <trkpt lat="49.13127" lon="-1.57065">
        <ele>11.1</ele>
      </trkpt>
      <trkpt lat="49.13123" lon="-1.57082">
        <ele>11</ele>
      </trkpt>
      <trkpt lat="49.13118" lon="-1.57098">
        <ele>10.9</ele>
      </trkpt>
      <trkpt lat="49.13115" lon="-1.57104">
        <ele>10.8</ele>
      </trkpt>
      <trkpt lat="49.13111" lon="-1.57114">
        <ele>10.8</ele>
      </trkpt>
      <trkpt lat="49.13108" lon="-1.5712">
        <ele>10.7</ele>
      </trkpt>
      <trkpt lat="49.131" lon="-1.57144">
        <ele>10.4</ele>
      </trkpt>
      <trkpt lat="49.13096" lon="-1.57164">
        <ele>10.2</ele>
      </trkpt>
      <trkpt lat="49.13094" lon="-1.57189">
        <ele>9.7</ele>
      </trkpt>
      <trkpt lat="49.13097" lon="-1.57227">
        <ele>8.9</ele>
      </trkpt>
      <trkpt lat="49.13097" lon="-1.57233">
        <ele>8.8</ele>
      </trkpt>
      <trkpt lat="49.13102" lon="-1.57281">
        <ele>8.7</ele>
      </trkpt>
      <trkpt lat="49.13104" lon="-1.57297">
        <ele>8.7</ele>
      </trkpt>
      <trkpt lat="49.13107" lon="-1.57333">
        <ele>8.9</ele>
      </trkpt>
      <trkpt lat="49.1311" lon="-1.57361">
        <ele>8.8</ele>
      </trkpt>
      <trkpt lat="49.13111" lon="-1.57368">
        <ele>8.9</ele>
      </trkpt>
      <trkpt lat="49.13119" lon="-1.57402">
        <ele>8.9</ele>
      </trkpt>
      <trkpt lat="49.13132" lon="-1.57457">
        <ele>8.9</ele>
      </trkpt>
      <trkpt lat="49.13135" lon="-1.57472">
        <ele>8.8</ele>
      </trkpt>
      <trkpt lat="49.13141" lon="-1.57497">
        <ele>8.7</ele>
      </trkpt>
      <trkpt lat="49.13144" lon="-1.5751">
        <ele>8.8</ele>
      </trkpt>
      <trkpt lat="49.13151" lon="-1.57545">
        <ele>8.9</ele>
      </trkpt>
      <trkpt lat="49.13155" lon="-1.57567">
        <ele>9</ele>
      </trkpt>
      <trkpt lat="49.13157" lon="-1.57577">
        <ele>9</ele>
      </trkpt>
      <trkpt lat="49.13165" lon="-1.57611">
        <ele>8.7</ele>
      </trkpt>
      <trkpt lat="49.13165" lon="-1.57614">
        <ele>8.6</ele>
      </trkpt>
      <trkpt lat="49.13177" lon="-1.5766">
        <ele>8.2</ele>
      </trkpt>
      <trkpt lat="49.1318" lon="-1.57672">
        <ele>8.2</ele>
      </trkpt>
      <trkpt lat="49.13189" lon="-1.57707">
        <ele>8.3</ele>
      </trkpt>
      <trkpt lat="49.13193" lon="-1.5774">
        <ele>8.3</ele>
      </trkpt>
      <trkpt lat="49.13195" lon="-1.57772">
        <ele>7.9</ele>
      </trkpt>
      <trkpt lat="49.13196" lon="-1.57784">
        <ele>7.7</ele>
      </trkpt>
      <trkpt lat="49.13198" lon="-1.57896">
        <ele>5.7</ele>
      </trkpt>
      <trkpt lat="49.13198" lon="-1.57921">
        <ele>5.3</ele>
      </trkpt>
      <trkpt lat="49.13198" lon="-1.5793">
        <ele>5.2</ele>
      </trkpt>
      <trkpt lat="49.13198" lon="-1.5795">
        <ele>4.8</ele>
      </trkpt>
      <trkpt lat="49.13199" lon="-1.5796">
        <ele>4.7</ele>
      </trkpt>
      <trkpt lat="49.132" lon="-1.5797">
        <ele>4.5</ele>
      </trkpt>
      <trkpt lat="49.1322" lon="-1.57968">
        <ele>4.6</ele>
      </trkpt>
      <trkpt lat="49.13223" lon="-1.57963">
        <ele>4.8</ele>
      </trkpt>
      <trkpt lat="49.13224" lon="-1.57958">
        <ele>4.8</ele>
      </trkpt>
      <trkpt lat="49.13226" lon="-1.57955">
        <ele>4.9</ele>
      </trkpt>
      <trkpt lat="49.13229" lon="-1.57951">
        <ele>5</ele>
      </trkpt>
      <trkpt lat="49.13233" lon="-1.57951">
        <ele>5.1</ele>
      </trkpt>
      <trkpt lat="49.13239" lon="-1.57952">
        <ele>5.1</ele>
      </trkpt>
      <trkpt lat="49.13244" lon="-1.57952">
        <ele>5.1</ele>
      </trkpt>
      <trkpt lat="49.1325" lon="-1.57954">
        <ele>5.1</ele>
      </trkpt>
      <trkpt lat="49.13254" lon="-1.57954">
        <ele>5.1</ele>
      </trkpt>
      <trkpt lat="49.13259" lon="-1.57953">
        <ele>5.2</ele>
      </trkpt>
      <trkpt lat="49.13265" lon="-1.57952">
        <ele>5.2</ele>
      </trkpt>
      <trkpt lat="49.1327" lon="-1.57951">
        <ele>5.3</ele>
      </trkpt>
      <trkpt lat="49.13276" lon="-1.57949">
        <ele>5.3</ele>
      </trkpt>
      <trkpt lat="49.13281" lon="-1.57949">
        <ele>5.4</ele>
      </trkpt>
      <trkpt lat="49.13286" lon="-1.57949">
        <ele>5.4</ele>
      </trkpt>
      <trkpt lat="49.13291" lon="-1.5795">
        <ele>5.4</ele>
      </trkpt>
      <trkpt lat="49.13298" lon="-1.57954">
        <ele>5.4</ele>
      </trkpt>
      <trkpt lat="49.13319" lon="-1.57969">
        <ele>5.3</ele>
      </trkpt>
      <trkpt lat="49.13338" lon="-1.57988">
        <ele>5.1</ele>
      </trkpt>
      <trkpt lat="49.13344" lon="-1.57993">
        <ele>4.9</ele>
      </trkpt>
      <trkpt lat="49.13353" lon="-1.58">
        <ele>4.8</ele>
      </trkpt>
      <trkpt lat="49.13368" lon="-1.58008">
        <ele>4.5</ele>
      </trkpt>
      <trkpt lat="49.13383" lon="-1.58013">
        <ele>4.3</ele>
      </trkpt>
      <trkpt lat="49.134" lon="-1.58014">
        <ele>4.1</ele>
      </trkpt>
      <trkpt lat="49.13419" lon="-1.58013">
        <ele>4</ele>
      </trkpt>
      <trkpt lat="49.1343" lon="-1.58011">
        <ele>4</ele>
      </trkpt>
      <trkpt lat="49.13437" lon="-1.58008">
        <ele>4</ele>
      </trkpt>
      <trkpt lat="49.1344" lon="-1.58004">
        <ele>4</ele>
      </trkpt>
      <trkpt lat="49.13441" lon="-1.57995">
        <ele>4</ele>
      </trkpt>
      <trkpt lat="49.13451" lon="-1.57996">
        <ele>4</ele>
      </trkpt>
      <trkpt lat="49.13468" lon="-1.57995">
        <ele>4</ele>
      </trkpt>
      <trkpt lat="49.13491" lon="-1.57986">
        <ele>4</ele>
      </trkpt>
      <trkpt lat="49.13505" lon="-1.5798">
        <ele>4</ele>
      </trkpt>
      <trkpt lat="49.13518" lon="-1.57971">
        <ele>4.1</ele>
      </trkpt>
      <trkpt lat="49.13531" lon="-1.57961">
        <ele>4.2</ele>
      </trkpt>
      <trkpt lat="49.13542" lon="-1.57946">
        <ele>4.3</ele>
      </trkpt>
      <trkpt lat="49.13552" lon="-1.57929">
        <ele>4.5</ele>
      </trkpt>
      <trkpt lat="49.13559" lon="-1.57918">
        <ele>4.7</ele>
      </trkpt>
      <trkpt lat="49.1356" lon="-1.57918">
        <ele>4.7</ele>
      </trkpt>
      <trkpt lat="49.1357" lon="-1.57907">
        <ele>5</ele>
      </trkpt>
      <trkpt lat="49.13577" lon="-1.57899">
        <ele>5.1</ele>
      </trkpt>
      <trkpt lat="49.13578" lon="-1.57891">
        <ele>5.2</ele>
      </trkpt>
      <trkpt lat="49.1358" lon="-1.57883">
        <ele>5.4</ele>
      </trkpt>
      <trkpt lat="49.13581" lon="-1.57874">
        <ele>5.5</ele>
      </trkpt>
      <trkpt lat="49.13583" lon="-1.57866">
        <ele>5.6</ele>
      </trkpt>
      <trkpt lat="49.13585" lon="-1.57859">
        <ele>5.7</ele>
      </trkpt>
      <trkpt lat="49.13589" lon="-1.57853">
        <ele>5.8</ele>
      </trkpt>
      <trkpt lat="49.13594" lon="-1.57855">
        <ele>5.7</ele>
      </trkpt>
      <trkpt lat="49.13605" lon="-1.57858">
        <ele>5.7</ele>
      </trkpt>
      <trkpt lat="49.13613" lon="-1.57859">
        <ele>5.7</ele>
      </trkpt>
      <trkpt lat="49.13614" lon="-1.57859">
        <ele>5.7</ele>
      </trkpt>
      <trkpt lat="49.13623" lon="-1.57859">
        <ele>5.7</ele>
      </trkpt>
      <trkpt lat="49.13633" lon="-1.57859">
        <ele>5.7</ele>
      </trkpt>
      <trkpt lat="49.13652" lon="-1.57861">
        <ele>5.7</ele>
      </trkpt>
      <trkpt lat="49.1369" lon="-1.57863">
        <ele>5.5</ele>
      </trkpt>
      <trkpt lat="49.1372" lon="-1.57865">
        <ele>5.4</ele>
      </trkpt>
      <trkpt lat="49.13749" lon="-1.57868">
        <ele>5.2</ele>
      </trkpt>
      <trkpt lat="49.13769" lon="-1.57869">
        <ele>5.2</ele>
      </trkpt>
      <trkpt lat="49.13787" lon="-1.5787">
        <ele>5.3</ele>
      </trkpt>
      <trkpt lat="49.13805" lon="-1.57871">
        <ele>5.4</ele>
      </trkpt>
      <trkpt lat="49.13818" lon="-1.57872">
        <ele>5.5</ele>
      </trkpt>
      <trkpt lat="49.13826" lon="-1.57871">
        <ele>5.5</ele>
      </trkpt>
      <trkpt lat="49.13831" lon="-1.57872">
        <ele>5.5</ele>
      </trkpt>
      <trkpt lat="49.13834" lon="-1.57872">
        <ele>5.5</ele>
      </trkpt>
      <trkpt lat="49.13835" lon="-1.57873">
        <ele>5.5</ele>
      </trkpt>
      <trkpt lat="49.13845" lon="-1.57877">
        <ele>5.6</ele>
      </trkpt>
      <trkpt lat="49.13866" lon="-1.57888">
        <ele>5.7</ele>
      </trkpt>
      <trkpt lat="49.13883" lon="-1.57896">
        <ele>5.8</ele>
      </trkpt>
      <trkpt lat="49.13919" lon="-1.57911">
        <ele>6.1</ele>
      </trkpt>
      <trkpt lat="49.13931" lon="-1.57917">
        <ele>6.2</ele>
      </trkpt>
      <trkpt lat="49.13949" lon="-1.57927">
        <ele>6.2</ele>
      </trkpt>
      <trkpt lat="49.13967" lon="-1.57934">
        <ele>6.3</ele>
      </trkpt>
      <trkpt lat="49.13984" lon="-1.57941">
        <ele>6.3</ele>
      </trkpt>
      <trkpt lat="49.14002" lon="-1.5795">
        <ele>6.2</ele>
      </trkpt>
      <trkpt lat="49.14007" lon="-1.57953">
        <ele>6.1</ele>
      </trkpt>
      <trkpt lat="49.1401" lon="-1.57959">
        <ele>5.9</ele>
      </trkpt>
      <trkpt lat="49.1401" lon="-1.57964">
        <ele>5.8</ele>
      </trkpt>
      <trkpt lat="49.14011" lon="-1.57968">
        <ele>5.7</ele>
      </trkpt>
      <trkpt lat="49.14013" lon="-1.57971">
        <ele>5.7</ele>
      </trkpt>
      <trkpt lat="49.14019" lon="-1.57974">
        <ele>5.5</ele>
      </trkpt>
      <trkpt lat="49.14027" lon="-1.57977">
        <ele>5.5</ele>
      </trkpt>
      <trkpt lat="49.14038" lon="-1.5798">
        <ele>5.4</ele>
      </trkpt>
      <trkpt lat="49.14049" lon="-1.57983">
        <ele>5.3</ele>
      </trkpt>
      <trkpt lat="49.14068" lon="-1.57986">
        <ele>5.2</ele>
      </trkpt>
      <trkpt lat="49.14087" lon="-1.57988">
        <ele>5.2</ele>
      </trkpt>
      <trkpt lat="49.14096" lon="-1.57986">
        <ele>5.3</ele>
      </trkpt>
      <trkpt lat="49.14103" lon="-1.57981">
        <ele>5.4</ele>
      </trkpt>
      <trkpt lat="49.14114" lon="-1.57971">
        <ele>5.6</ele>
      </trkpt>
      <trkpt lat="49.1413" lon="-1.57959">
        <ele>5.8</ele>
      </trkpt>
      <trkpt lat="49.14141" lon="-1.57953">
        <ele>5.9</ele>
      </trkpt>
      <trkpt lat="49.14153" lon="-1.57948">
        <ele>5.9</ele>
      </trkpt>
      <trkpt lat="49.14168" lon="-1.57943">
        <ele>6</ele>
      </trkpt>
      <trkpt lat="49.14179" lon="-1.57937">
        <ele>6.1</ele>
      </trkpt>
      <trkpt lat="49.14191" lon="-1.57932">
        <ele>6.1</ele>
      </trkpt>
      <trkpt lat="49.14189" lon="-1.57919">
        <ele>6</ele>
      </trkpt>
      <trkpt lat="49.14187" lon="-1.57908">
        <ele>6</ele>
      </trkpt>
      <trkpt lat="49.14185" lon="-1.57902">
        <ele>6</ele>
      </trkpt>
      <trkpt lat="49.14186" lon="-1.57882">
        <ele>6</ele>
      </trkpt>
      <trkpt lat="49.14187" lon="-1.57873">
        <ele>6</ele>
      </trkpt>
      <trkpt lat="49.14188" lon="-1.57862">
        <ele>6</ele>
      </trkpt>
      <trkpt lat="49.14191" lon="-1.57854">
        <ele>6</ele>
      </trkpt>
      <trkpt lat="49.14198" lon="-1.57854">
        <ele>6</ele>
      </trkpt>
      <trkpt lat="49.14213" lon="-1.57856">
        <ele>6</ele>
      </trkpt>
      <trkpt lat="49.14226" lon="-1.57856">
        <ele>6</ele>
      </trkpt>
      <trkpt lat="49.14237" lon="-1.57854">
        <ele>6</ele>
      </trkpt>
      <trkpt lat="49.14258" lon="-1.57848">
        <ele>6.1</ele>
      </trkpt>
      <trkpt lat="49.14284" lon="-1.57838">
        <ele>6.4</ele>
      </trkpt>
      <trkpt lat="49.14287" lon="-1.57838">
        <ele>6.5</ele>
      </trkpt>
      <trkpt lat="49.14291" lon="-1.57841">
        <ele>6.5</ele>
      </trkpt>
      <trkpt lat="49.14293" lon="-1.57845">
        <ele>6.6</ele>
      </trkpt>
      <trkpt lat="49.14298" lon="-1.57854">
        <ele>6.7</ele>
      </trkpt>
      <trkpt lat="49.143" lon="-1.57856">
        <ele>6.8</ele>
      </trkpt>
      <trkpt lat="49.14302" lon="-1.57857">
        <ele>6.8</ele>
      </trkpt>
      <trkpt lat="49.14305" lon="-1.57857">
        <ele>6.8</ele>
      </trkpt>
      <trkpt lat="49.14307" lon="-1.57855">
        <ele>6.9</ele>
      </trkpt>
      <trkpt lat="49.14309" lon="-1.57852">
        <ele>6.9</ele>
      </trkpt>
      <trkpt lat="49.14312" lon="-1.57843">
        <ele>6.8</ele>
      </trkpt>
      <trkpt lat="49.14313" lon="-1.57832">
        <ele>6.8</ele>
      </trkpt>
      <trkpt lat="49.14309" lon="-1.57825">
        <ele>6.8</ele>
      </trkpt>
      <trkpt lat="49.14296" lon="-1.57799">
        <ele>6.8</ele>
      </trkpt>
      <trkpt lat="49.14287" lon="-1.57772">
        <ele>6.8</ele>
      </trkpt>
      <trkpt lat="49.14287" lon="-1.57771">
        <ele>6.8</ele>
      </trkpt>
      <trkpt lat="49.14276" lon="-1.57737">
        <ele>6.8</ele>
      </trkpt>
      <trkpt lat="49.14274" lon="-1.5773">
        <ele>6.9</ele>
      </trkpt>
      <trkpt lat="49.14268" lon="-1.57709">
        <ele>7.2</ele>
      </trkpt>
      <trkpt lat="49.14267" lon="-1.57705">
        <ele>7.3</ele>
      </trkpt>
      <trkpt lat="49.14258" lon="-1.57674">
        <ele>7.8</ele>
      </trkpt>
      <trkpt lat="49.14255" lon="-1.57661">
        <ele>8.1</ele>
      </trkpt>
      <trkpt lat="49.14254" lon="-1.57645">
        <ele>8.3</ele>
      </trkpt>
      <trkpt lat="49.14253" lon="-1.57639">
        <ele>8.3</ele>
      </trkpt>
      <trkpt lat="49.14251" lon="-1.57612">
        <ele>8.7</ele>
      </trkpt>
      <trkpt lat="49.1425" lon="-1.57578">
        <ele>9.1</ele>
      </trkpt>
      <trkpt lat="49.14249" lon="-1.57542">
        <ele>9.5</ele>
      </trkpt>
      <trkpt lat="49.1425" lon="-1.57502">
        <ele>10</ele>
      </trkpt>
      <trkpt lat="49.14252" lon="-1.5748">
        <ele>10.2</ele>
      </trkpt>
      <trkpt lat="49.14253" lon="-1.57463">
        <ele>10.4</ele>
      </trkpt>
      <trkpt lat="49.14255" lon="-1.57442">
        <ele>10.6</ele>
      </trkpt>
      <trkpt lat="49.14259" lon="-1.57412">
        <ele>10.9</ele>
      </trkpt>
      <trkpt lat="49.14261" lon="-1.57388">
        <ele>11.2</ele>
      </trkpt>
      <trkpt lat="49.14262" lon="-1.57373">
        <ele>11.4</ele>
      </trkpt>
      <trkpt lat="49.14266" lon="-1.57371">
        <ele>11.4</ele>
      </trkpt>
      <trkpt lat="49.14276" lon="-1.57378">
        <ele>11.2</ele>
      </trkpt>
      <trkpt lat="49.1432" lon="-1.57407">
        <ele>10.3</ele>
      </trkpt>
      <trkpt lat="49.14362" lon="-1.57439">
        <ele>9.6</ele>
      </trkpt>
      <trkpt lat="49.14368" lon="-1.57443">
        <ele>9.6</ele>
      </trkpt>
      <trkpt lat="49.14376" lon="-1.5745">
        <ele>9.4</ele>
      </trkpt>
      <trkpt lat="49.14402" lon="-1.57471">
        <ele>8.8</ele>
      </trkpt>
      <trkpt lat="49.14461" lon="-1.57516">
        <ele>9</ele>
      </trkpt>
      <trkpt lat="49.14487" lon="-1.57537">
        <ele>9.3</ele>
      </trkpt>
      <trkpt lat="49.145" lon="-1.57549">
        <ele>9.4</ele>
      </trkpt>
      <trkpt lat="49.14506" lon="-1.57555">
        <ele>9.3</ele>
      </trkpt>
      <trkpt lat="49.14519" lon="-1.57569">
        <ele>8.9</ele>
      </trkpt>
      <trkpt lat="49.14537" lon="-1.57593">
        <ele>8.5</ele>
      </trkpt>
      <trkpt lat="49.1455" lon="-1.57612">
        <ele>8.5</ele>
      </trkpt>
      <trkpt lat="49.14552" lon="-1.57616">
        <ele>8.5</ele>
      </trkpt>
      <trkpt lat="49.14556" lon="-1.57622">
        <ele>8.5</ele>
      </trkpt>
      <trkpt lat="49.1456" lon="-1.57626">
        <ele>8.5</ele>
      </trkpt>
      <trkpt lat="49.14564" lon="-1.57628">
        <ele>8.5</ele>
      </trkpt>
      <trkpt lat="49.1457" lon="-1.57631">
        <ele>8.5</ele>
      </trkpt>
      <trkpt lat="49.14578" lon="-1.57634">
        <ele>8.6</ele>
      </trkpt>
      <trkpt lat="49.14584" lon="-1.57638">
        <ele>8.7</ele>
      </trkpt>
      <trkpt lat="49.14587" lon="-1.57643">
        <ele>8.8</ele>
      </trkpt>
      <trkpt lat="49.14592" lon="-1.57648">
        <ele>8.9</ele>
      </trkpt>
      <trkpt lat="49.14596" lon="-1.5765">
        <ele>9</ele>
      </trkpt>
      <trkpt lat="49.14603" lon="-1.57649">
        <ele>9</ele>
      </trkpt>
      <trkpt lat="49.1461" lon="-1.57645">
        <ele>9.1</ele>
      </trkpt>
      <trkpt lat="49.14616" lon="-1.5764">
        <ele>9.1</ele>
      </trkpt>
      <trkpt lat="49.1462" lon="-1.57637">
        <ele>9.1</ele>
      </trkpt>
      <trkpt lat="49.14625" lon="-1.57634">
        <ele>9.1</ele>
      </trkpt>
      <trkpt lat="49.14629" lon="-1.57633">
        <ele>9.1</ele>
      </trkpt>
      <trkpt lat="49.14633" lon="-1.57635">
        <ele>9.2</ele>
      </trkpt>
      <trkpt lat="49.14638" lon="-1.5765">
        <ele>9.5</ele>
      </trkpt>
      <trkpt lat="49.14645" lon="-1.57677">
        <ele>9.8</ele>
      </trkpt>
      <trkpt lat="49.14654" lon="-1.57705">
        <ele>10.2</ele>
      </trkpt>
      <trkpt lat="49.1466" lon="-1.57719">
        <ele>10.5</ele>
      </trkpt>
      <trkpt lat="49.14663" lon="-1.57726">
        <ele>10.6</ele>
      </trkpt>
      <trkpt lat="49.14679" lon="-1.57758">
        <ele>11</ele>
      </trkpt>
      <trkpt lat="49.1469" lon="-1.57779">
        <ele>11.1</ele>
      </trkpt>
      <trkpt lat="49.14698" lon="-1.57789">
        <ele>11.2</ele>
      </trkpt>
      <trkpt lat="49.1471" lon="-1.57765">
        <ele>11.1</ele>
      </trkpt>
      <trkpt lat="49.14711" lon="-1.57761">
        <ele>11.1</ele>
      </trkpt>
      <trkpt lat="49.14731" lon="-1.57719">
        <ele>10.9</ele>
      </trkpt>
      <trkpt lat="49.14738" lon="-1.57699">
        <ele>10.9</ele>
      </trkpt>
      <trkpt lat="49.14741" lon="-1.57691">
        <ele>10.9</ele>
      </trkpt>
      <trkpt lat="49.14743" lon="-1.57682">
        <ele>10.9</ele>
      </trkpt>
      <trkpt lat="49.14744" lon="-1.57674">
        <ele>10.9</ele>
      </trkpt>
      <trkpt lat="49.14745" lon="-1.57668">
        <ele>10.9</ele>
      </trkpt>
      <trkpt lat="49.14745" lon="-1.5766">
        <ele>10.9</ele>
      </trkpt>
      <trkpt lat="49.14752" lon="-1.57658">
        <ele>10.9</ele>
      </trkpt>
      <trkpt lat="49.14769" lon="-1.57661">
        <ele>11.2</ele>
      </trkpt>
      <trkpt lat="49.14793" lon="-1.57667">
        <ele>11.5</ele>
      </trkpt>
      <trkpt lat="49.1481" lon="-1.57669">
        <ele>11.7</ele>
      </trkpt>
      <trkpt lat="49.14826" lon="-1.57669">
        <ele>11.9</ele>
      </trkpt>
      <trkpt lat="49.14845" lon="-1.57666">
        <ele>12</ele>
      </trkpt>
      <trkpt lat="49.14858" lon="-1.57663">
        <ele>12</ele>
      </trkpt>
      <trkpt lat="49.14863" lon="-1.57661">
        <ele>12</ele>
      </trkpt>
      <trkpt lat="49.14875" lon="-1.57658">
        <ele>11.9</ele>
      </trkpt>
      <trkpt lat="49.14914" lon="-1.57647">
        <ele>12</ele>
      </trkpt>
      <trkpt lat="49.14956" lon="-1.57633">
        <ele>12.6</ele>
      </trkpt>
      <trkpt lat="49.15" lon="-1.57615">
        <ele>12.8</ele>
      </trkpt>
      <trkpt lat="49.1504" lon="-1.57599">
        <ele>12.3</ele>
      </trkpt>
      <trkpt lat="49.15063" lon="-1.57586">
        <ele>12</ele>
      </trkpt>
      <trkpt lat="49.15073" lon="-1.57576">
        <ele>12.1</ele>
      </trkpt>
      <trkpt lat="49.15091" lon="-1.57551">
        <ele>12.3</ele>
      </trkpt>
      <trkpt lat="49.15093" lon="-1.57539">
        <ele>12.5</ele>
      </trkpt>
      <trkpt lat="49.15099" lon="-1.57506">
        <ele>12.8</ele>
      </trkpt>
      <trkpt lat="49.15101" lon="-1.57496">
        <ele>12.8</ele>
      </trkpt>
      <trkpt lat="49.15107" lon="-1.57463">
        <ele>12.7</ele>
      </trkpt>
      <trkpt lat="49.15109" lon="-1.57452">
        <ele>12.7</ele>
      </trkpt>
      <trkpt lat="49.15114" lon="-1.5744">
        <ele>12.6</ele>
      </trkpt>
      <trkpt lat="49.15115" lon="-1.57438">
        <ele>12.6</ele>
      </trkpt>
      <trkpt lat="49.15119" lon="-1.57436">
        <ele>12.6</ele>
      </trkpt>
      <trkpt lat="49.15139" lon="-1.57434">
        <ele>12.3</ele>
      </trkpt>
      <trkpt lat="49.15161" lon="-1.57435">
        <ele>12.1</ele>
      </trkpt>
      <trkpt lat="49.15171" lon="-1.57434">
        <ele>12</ele>
      </trkpt>
      <trkpt lat="49.15181" lon="-1.57434">
        <ele>12</ele>
      </trkpt>
      <trkpt lat="49.15197" lon="-1.57433">
        <ele>11.9</ele>
      </trkpt>
      <trkpt lat="49.15206" lon="-1.57433">
        <ele>11.9</ele>
      </trkpt>
      <trkpt lat="49.1521" lon="-1.57433">
        <ele>11.9</ele>
      </trkpt>
      <trkpt lat="49.15224" lon="-1.57436">
        <ele>11.8</ele>
      </trkpt>
      <trkpt lat="49.1523" lon="-1.57437">
        <ele>11.8</ele>
      </trkpt>
      <trkpt lat="49.15238" lon="-1.57439">
        <ele>11.8</ele>
      </trkpt>
      <trkpt lat="49.15248" lon="-1.5744">
        <ele>11.7</ele>
      </trkpt>
      <trkpt lat="49.15252" lon="-1.5744">
        <ele>11.8</ele>
      </trkpt>
      <trkpt lat="49.15261" lon="-1.57441">
        <ele>12.1</ele>
      </trkpt>
      <trkpt lat="49.15294" lon="-1.5744">
        <ele>13.3</ele>
      </trkpt>
      <trkpt lat="49.15312" lon="-1.57438">
        <ele>14</ele>
      </trkpt>
      <trkpt lat="49.15327" lon="-1.57434">
        <ele>14.6</ele>
      </trkpt>
      <trkpt lat="49.15346" lon="-1.57429">
        <ele>14.6</ele>
      </trkpt>
      <trkpt lat="49.15349" lon="-1.57426">
        <ele>14.5</ele>
      </trkpt>
      <trkpt lat="49.15352" lon="-1.57428">
        <ele>14.5</ele>
      </trkpt>
      <trkpt lat="49.15356" lon="-1.57428">
        <ele>14.4</ele>
      </trkpt>
      <trkpt lat="49.15358" lon="-1.57428">
        <ele>14.3</ele>
      </trkpt>
      <trkpt lat="49.15364" lon="-1.57425">
        <ele>14.2</ele>
      </trkpt>
      <trkpt lat="49.15371" lon="-1.57424">
        <ele>14</ele>
      </trkpt>
      <trkpt lat="49.15386" lon="-1.57426">
        <ele>13.7</ele>
      </trkpt>
      <trkpt lat="49.15404" lon="-1.57428">
        <ele>13.3</ele>
      </trkpt>
      <trkpt lat="49.1541" lon="-1.57431">
        <ele>13.1</ele>
      </trkpt>
      <trkpt lat="49.15415" lon="-1.57436">
        <ele>13</ele>
      </trkpt>
      <trkpt lat="49.15425" lon="-1.57433">
        <ele>12.7</ele>
      </trkpt>
      <trkpt lat="49.15439" lon="-1.57433">
        <ele>12.2</ele>
      </trkpt>
      <trkpt lat="49.15463" lon="-1.57437">
        <ele>11.3</ele>
      </trkpt>
      <trkpt lat="49.15483" lon="-1.57441">
        <ele>10.6</ele>
      </trkpt>
      <trkpt lat="49.15505" lon="-1.57449">
        <ele>9.9</ele>
      </trkpt>
      <trkpt lat="49.15513" lon="-1.57452">
        <ele>9.7</ele>
      </trkpt>
      <trkpt lat="49.15517" lon="-1.57452">
        <ele>9.6</ele>
      </trkpt>
      <trkpt lat="49.15522" lon="-1.57451">
        <ele>9.5</ele>
      </trkpt>
      <trkpt lat="49.1553" lon="-1.57446">
        <ele>9.3</ele>
      </trkpt>
      <trkpt lat="49.15535" lon="-1.57441">
        <ele>9.2</ele>
      </trkpt>
      <trkpt lat="49.15543" lon="-1.57433">
        <ele>9</ele>
      </trkpt>
      <trkpt lat="49.15556" lon="-1.57424">
        <ele>8.7</ele>
      </trkpt>
      <trkpt lat="49.15565" lon="-1.5742">
        <ele>8.4</ele>
      </trkpt>
      <trkpt lat="49.15567" lon="-1.57418">
        <ele>8.4</ele>
      </trkpt>
      <trkpt lat="49.15569" lon="-1.57417">
        <ele>8.4</ele>
      </trkpt>
      <trkpt lat="49.15572" lon="-1.57415">
        <ele>8.3</ele>
      </trkpt>
      <trkpt lat="49.15578" lon="-1.57406">
        <ele>8.4</ele>
      </trkpt>
      <trkpt lat="49.15584" lon="-1.57394">
        <ele>8.6</ele>
      </trkpt>
      <trkpt lat="49.15589" lon="-1.57385">
        <ele>8.9</ele>
      </trkpt>
      <trkpt lat="49.15593" lon="-1.57379">
        <ele>9.2</ele>
      </trkpt>
      <trkpt lat="49.15595" lon="-1.57353">
        <ele>9.8</ele>
      </trkpt>
      <trkpt lat="49.15615" lon="-1.57359">
        <ele>10.3</ele>
      </trkpt>
      <trkpt lat="49.15622" lon="-1.57362">
        <ele>10.4</ele>
      </trkpt>
      <trkpt lat="49.15628" lon="-1.57361">
        <ele>10.6</ele>
      </trkpt>
      <trkpt lat="49.15629" lon="-1.5736">
        <ele>10.6</ele>
      </trkpt>
      <trkpt lat="49.15633" lon="-1.57357">
        <ele>10.8</ele>
      </trkpt>
      <trkpt lat="49.15637" lon="-1.57353">
        <ele>11</ele>
      </trkpt>
      <trkpt lat="49.15642" lon="-1.5735">
        <ele>11.2</ele>
      </trkpt>
      <trkpt lat="49.15654" lon="-1.57349">
        <ele>11.5</ele>
      </trkpt>
      <trkpt lat="49.15698" lon="-1.5735">
        <ele>12.2</ele>
      </trkpt>
      <trkpt lat="49.15702" lon="-1.5735">
        <ele>12.2</ele>
      </trkpt>
      <trkpt lat="49.15734" lon="-1.57351">
        <ele>12.6</ele>
      </trkpt>
      <trkpt lat="49.15751" lon="-1.57354">
        <ele>12.8</ele>
      </trkpt>
      <trkpt lat="49.15766" lon="-1.57357">
        <ele>12.8</ele>
      </trkpt>
      <trkpt lat="49.15777" lon="-1.57358">
        <ele>12.9</ele>
      </trkpt>
      <trkpt lat="49.15786" lon="-1.57362">
        <ele>12.9</ele>
      </trkpt>
      <trkpt lat="49.15799" lon="-1.57367">
        <ele>12.9</ele>
      </trkpt>
      <trkpt lat="49.15833" lon="-1.57391">
        <ele>12.6</ele>
      </trkpt>
      <trkpt lat="49.15875" lon="-1.57426">
        <ele>12.4</ele>
      </trkpt>
      <trkpt lat="49.15906" lon="-1.57452">
        <ele>12.8</ele>
      </trkpt>
      <trkpt lat="49.15916" lon="-1.57464">
        <ele>13</ele>
      </trkpt>
      <trkpt lat="49.15921" lon="-1.57471">
        <ele>13</ele>
      </trkpt>
      <trkpt lat="49.15926" lon="-1.57477">
        <ele>13</ele>
      </trkpt>
      <trkpt lat="49.15933" lon="-1.5749">
        <ele>13</ele>
      </trkpt>
      <trkpt lat="49.15938" lon="-1.57505">
        <ele>13</ele>
      </trkpt>
      <trkpt lat="49.15941" lon="-1.57521">
        <ele>13</ele>
      </trkpt>
      <trkpt lat="49.15942" lon="-1.57543">
        <ele>13</ele>
      </trkpt>
      <trkpt lat="49.15943" lon="-1.57568">
        <ele>13</ele>
      </trkpt>
      <trkpt lat="49.15944" lon="-1.57583">
        <ele>13</ele>
      </trkpt>
      <trkpt lat="49.15946" lon="-1.57596">
        <ele>13.1</ele>
      </trkpt>
      <trkpt lat="49.15947" lon="-1.57605">
        <ele>13.1</ele>
      </trkpt>
      <trkpt lat="49.15951" lon="-1.57622">
        <ele>13.2</ele>
      </trkpt>
      <trkpt lat="49.15956" lon="-1.57635">
        <ele>13.3</ele>
      </trkpt>
      <trkpt lat="49.15967" lon="-1.57659">
        <ele>13.5</ele>
      </trkpt>
      <trkpt lat="49.15983" lon="-1.57693">
        <ele>13.8</ele>
      </trkpt>
      <trkpt lat="49.16002" lon="-1.57738">
        <ele>14</ele>
      </trkpt>
      <trkpt lat="49.16008" lon="-1.57749">
        <ele>13.9</ele>
      </trkpt>
      <trkpt lat="49.16014" lon="-1.57755">
        <ele>13.7</ele>
      </trkpt>
      <trkpt lat="49.16023" lon="-1.5776">
        <ele>13.6</ele>
      </trkpt>
      <trkpt lat="49.15976" lon="-1.57837">
        <ele>12</ele>
      </trkpt>
      <trkpt lat="49.1594" lon="-1.57898">
        <ele>11.2</ele>
      </trkpt>
      <trkpt lat="49.15968" lon="-1.57924">
        <ele>11</ele>
      </trkpt>
      <trkpt lat="49.15977" lon="-1.57933">
        <ele>10.9</ele>
      </trkpt>
      <trkpt lat="49.15981" lon="-1.57936">
        <ele>10.9</ele>
      </trkpt>
      <trkpt lat="49.15991" lon="-1.57947">
        <ele>11</ele>
      </trkpt>
      <trkpt lat="49.15996" lon="-1.57949">
        <ele>11</ele>
      </trkpt>
      <trkpt lat="49.16003" lon="-1.57954">
        <ele>11</ele>
      </trkpt>
      <trkpt lat="49.16018" lon="-1.57961">
        <ele>11.2</ele>
      </trkpt>
      <trkpt lat="49.16023" lon="-1.57963">
        <ele>11.2</ele>
      </trkpt>
      <trkpt lat="49.16045" lon="-1.57969">
        <ele>11.4</ele>
      </trkpt>
      <trkpt lat="49.16061" lon="-1.57971">
        <ele>11.5</ele>
      </trkpt>
      <trkpt lat="49.16082" lon="-1.57972">
        <ele>11.7</ele>
      </trkpt>
      <trkpt lat="49.16101" lon="-1.57973">
        <ele>11.4</ele>
      </trkpt>
      <trkpt lat="49.1615" lon="-1.57977">
        <ele>10.5</ele>
      </trkpt>
      <trkpt lat="49.16154" lon="-1.57978">
        <ele>10.5</ele>
      </trkpt>
      <trkpt lat="49.16161" lon="-1.57979">
        <ele>10.3</ele>
      </trkpt>
      <trkpt lat="49.16166" lon="-1.57984">
        <ele>10.2</ele>
      </trkpt>
      <trkpt lat="49.16171" lon="-1.58002">
        <ele>10</ele>
      </trkpt>
      <trkpt lat="49.16183" lon="-1.58065">
        <ele>10.6</ele>
      </trkpt>
      <trkpt lat="49.16185" lon="-1.58073">
        <ele>10.7</ele>
      </trkpt>
      <trkpt lat="49.16205" lon="-1.58078">
        <ele>10.5</ele>
      </trkpt>
      <trkpt lat="49.16229" lon="-1.58079">
        <ele>10.2</ele>
      </trkpt>
      <trkpt lat="49.16247" lon="-1.5808">
        <ele>10</ele>
      </trkpt>
      <trkpt lat="49.16249" lon="-1.5808">
        <ele>10</ele>
      </trkpt>
      <trkpt lat="49.1626" lon="-1.5808">
        <ele>10.1</ele>
      </trkpt>
      <trkpt lat="49.16276" lon="-1.58083">
        <ele>10.3</ele>
      </trkpt>
      <trkpt lat="49.16287" lon="-1.58085">
        <ele>10.5</ele>
      </trkpt>
      <trkpt lat="49.16296" lon="-1.58088">
        <ele>10.6</ele>
      </trkpt>
      <trkpt lat="49.16299" lon="-1.58089">
        <ele>10.6</ele>
      </trkpt>
      <trkpt lat="49.16311" lon="-1.58093">
        <ele>10.8</ele>
      </trkpt>
      <trkpt lat="49.16318" lon="-1.58094">
        <ele>10.8</ele>
      </trkpt>
      <trkpt lat="49.16321" lon="-1.58094">
        <ele>10.9</ele>
      </trkpt>
      <trkpt lat="49.16332" lon="-1.58093">
        <ele>11</ele>
      </trkpt>
      <trkpt lat="49.16343" lon="-1.58091">
        <ele>10.8</ele>
      </trkpt>
      <trkpt lat="49.16347" lon="-1.58091">
        <ele>10.7</ele>
      </trkpt>
      <trkpt lat="49.16352" lon="-1.5809">
        <ele>10.5</ele>
      </trkpt>
      <trkpt lat="49.16364" lon="-1.58095">
        <ele>10.3</ele>
      </trkpt>
      <trkpt lat="49.16385" lon="-1.58109">
        <ele>9.8</ele>
      </trkpt>
      <trkpt lat="49.16407" lon="-1.5812">
        <ele>9.2</ele>
      </trkpt>
      <trkpt lat="49.16409" lon="-1.58122">
        <ele>9.2</ele>
      </trkpt>
      <trkpt lat="49.16423" lon="-1.58131">
        <ele>9</ele>
      </trkpt>
      <trkpt lat="49.16426" lon="-1.58124">
        <ele>9</ele>
      </trkpt>
      <trkpt lat="49.16446" lon="-1.58104">
        <ele>9</ele>
      </trkpt>
      <trkpt lat="49.1645" lon="-1.58096">
        <ele>9</ele>
      </trkpt>
      <trkpt lat="49.16463" lon="-1.58052">
        <ele>9.4</ele>
      </trkpt>
      <trkpt lat="49.16478" lon="-1.57997">
        <ele>10</ele>
      </trkpt>
      <trkpt lat="49.1649" lon="-1.5795">
        <ele>10</ele>
      </trkpt>
      <trkpt lat="49.16493" lon="-1.57933">
        <ele>10</ele>
      </trkpt>
      <trkpt lat="49.16495" lon="-1.57914">
        <ele>10</ele>
      </trkpt>
      <trkpt lat="49.16496" lon="-1.57896">
        <ele>10</ele>
      </trkpt>
      <trkpt lat="49.16497" lon="-1.57884">
        <ele>10</ele>
      </trkpt>
      <trkpt lat="49.16503" lon="-1.5786">
        <ele>10</ele>
      </trkpt>
      <trkpt lat="49.16502" lon="-1.57854">
        <ele>10</ele>
      </trkpt>
      <trkpt lat="49.16497" lon="-1.57834">
        <ele>10</ele>
      </trkpt>
      <trkpt lat="49.16495" lon="-1.57819">
        <ele>10</ele>
      </trkpt>
      <trkpt lat="49.16493" lon="-1.57812">
        <ele>10</ele>
      </trkpt>
      <trkpt lat="49.16489" lon="-1.57789">
        <ele>10.1</ele>
      </trkpt>
      <trkpt lat="49.16486" lon="-1.57769">
        <ele>10.1</ele>
      </trkpt>
      <trkpt lat="49.16488" lon="-1.57762">
        <ele>10.1</ele>
      </trkpt>
      <trkpt lat="49.1649" lon="-1.57752">
        <ele>10.1</ele>
      </trkpt>
      <trkpt lat="49.16492" lon="-1.57721">
        <ele>10.1</ele>
      </trkpt>
      <trkpt lat="49.16494" lon="-1.57676">
        <ele>10.1</ele>
      </trkpt>
      <trkpt lat="49.16494" lon="-1.57638">
        <ele>10.1</ele>
      </trkpt>
      <trkpt lat="49.16495" lon="-1.57599">
        <ele>10.1</ele>
      </trkpt>
      <trkpt lat="49.16495" lon="-1.57568">
        <ele>10.1</ele>
      </trkpt>
      <trkpt lat="49.16493" lon="-1.57533">
        <ele>10.2</ele>
      </trkpt>
      <trkpt lat="49.1649" lon="-1.57485">
        <ele>10.3</ele>
      </trkpt>
      <trkpt lat="49.16486" lon="-1.57454">
        <ele>10.3</ele>
      </trkpt>
      <trkpt lat="49.16485" lon="-1.57446">
        <ele>10.4</ele>
      </trkpt>
      <trkpt lat="49.1648" lon="-1.57415">
        <ele>10.4</ele>
      </trkpt>
      <trkpt lat="49.16474" lon="-1.57383">
        <ele>10.1</ele>
      </trkpt>
      <trkpt lat="49.16469" lon="-1.5736">
        <ele>9.8</ele>
      </trkpt>
      <trkpt lat="49.16462" lon="-1.57331">
        <ele>9.5</ele>
      </trkpt>
      <trkpt lat="49.16455" lon="-1.57304">
        <ele>9.8</ele>
      </trkpt>
      <trkpt lat="49.1645" lon="-1.57285">
        <ele>10.1</ele>
      </trkpt>
      <trkpt lat="49.16446" lon="-1.57262">
        <ele>10.5</ele>
      </trkpt>
      <trkpt lat="49.16439" lon="-1.57235">
        <ele>10.9</ele>
      </trkpt>
      <trkpt lat="49.16437" lon="-1.57218">
        <ele>11</ele>
      </trkpt>
      <trkpt lat="49.16435" lon="-1.57205">
        <ele>11.1</ele>
      </trkpt>
      <trkpt lat="49.16435" lon="-1.57197">
        <ele>11.1</ele>
      </trkpt>
      <trkpt lat="49.16435" lon="-1.57187">
        <ele>11.1</ele>
      </trkpt>
      <trkpt lat="49.16436" lon="-1.57171">
        <ele>11.1</ele>
      </trkpt>
      <trkpt lat="49.16439" lon="-1.57151">
        <ele>10.8</ele>
      </trkpt>
      <trkpt lat="49.16443" lon="-1.57132">
        <ele>10.6</ele>
      </trkpt>
      <trkpt lat="49.16449" lon="-1.57111">
        <ele>10.3</ele>
      </trkpt>
      <trkpt lat="49.16459" lon="-1.57077">
        <ele>9.9</ele>
      </trkpt>
      <trkpt lat="49.16472" lon="-1.57042">
        <ele>9.5</ele>
      </trkpt>
      <trkpt lat="49.16484" lon="-1.5701">
        <ele>9.2</ele>
      </trkpt>
      <trkpt lat="49.16492" lon="-1.56989">
        <ele>9.2</ele>
      </trkpt>
      <trkpt lat="49.16496" lon="-1.56973">
        <ele>9.4</ele>
      </trkpt>
      <trkpt lat="49.16502" lon="-1.5697">
        <ele>9.4</ele>
      </trkpt>
      <trkpt lat="49.16505" lon="-1.56968">
        <ele>9.5</ele>
      </trkpt>
      <trkpt lat="49.16508" lon="-1.56966">
        <ele>9.6</ele>
      </trkpt>
      <trkpt lat="49.16519" lon="-1.5696">
        <ele>9.9</ele>
      </trkpt>
      <trkpt lat="49.16531" lon="-1.56952">
        <ele>10.3</ele>
      </trkpt>
      <trkpt lat="49.1654" lon="-1.56948">
        <ele>10.6</ele>
      </trkpt>
      <trkpt lat="49.16544" lon="-1.56939">
        <ele>10.8</ele>
      </trkpt>
      <trkpt lat="49.16553" lon="-1.5692">
        <ele>11.2</ele>
      </trkpt>
      <trkpt lat="49.16561" lon="-1.56906">
        <ele>11.5</ele>
      </trkpt>
      <trkpt lat="49.16568" lon="-1.56896">
        <ele>11.7</ele>
      </trkpt>
      <trkpt lat="49.16566" lon="-1.56862">
        <ele>11.7</ele>
      </trkpt>
      <trkpt lat="49.16565" lon="-1.56842">
        <ele>11.8</ele>
      </trkpt>
      <trkpt lat="49.16563" lon="-1.56818">
        <ele>11.8</ele>
      </trkpt>
      <trkpt lat="49.16562" lon="-1.56801">
        <ele>11.7</ele>
      </trkpt>
      <trkpt lat="49.16562" lon="-1.56782">
        <ele>11.7</ele>
      </trkpt>
      <trkpt lat="49.16564" lon="-1.56764">
        <ele>11.8</ele>
      </trkpt>
      <trkpt lat="49.16565" lon="-1.56748">
        <ele>11.8</ele>
      </trkpt>
      <trkpt lat="49.16568" lon="-1.56727">
        <ele>12</ele>
      </trkpt>
      <trkpt lat="49.16571" lon="-1.56712">
        <ele>12.2</ele>
      </trkpt>
      <trkpt lat="49.16581" lon="-1.56665">
        <ele>12.9</ele>
      </trkpt>
      <trkpt lat="49.16593" lon="-1.56593">
        <ele>11.2</ele>
      </trkpt>
      <trkpt lat="49.16601" lon="-1.56545">
        <ele>11.8</ele>
      </trkpt>
      <trkpt lat="49.16602" lon="-1.56529">
        <ele>12.1</ele>
      </trkpt>
      <trkpt lat="49.16603" lon="-1.56516">
        <ele>12.4</ele>
      </trkpt>
      <trkpt lat="49.16614" lon="-1.56513">
        <ele>12.4</ele>
      </trkpt>
      <trkpt lat="49.16627" lon="-1.56509">
        <ele>12.3</ele>
      </trkpt>
      <trkpt lat="49.16643" lon="-1.56502">
        <ele>12.3</ele>
      </trkpt>
      <trkpt lat="49.16662" lon="-1.56494">
        <ele>12.2</ele>
      </trkpt>
      <trkpt lat="49.16683" lon="-1.56485">
        <ele>12.7</ele>
      </trkpt>
      <trkpt lat="49.16701" lon="-1.56482">
        <ele>13.2</ele>
      </trkpt>
      <trkpt lat="49.16724" lon="-1.56479">
        <ele>13.7</ele>
      </trkpt>
      <trkpt lat="49.16737" lon="-1.56478">
        <ele>14</ele>
      </trkpt>
      <trkpt lat="49.16761" lon="-1.56474">
        <ele>14.5</ele>
      </trkpt>
      <trkpt lat="49.16768" lon="-1.56472">
        <ele>14.7</ele>
      </trkpt>
      <trkpt lat="49.16772" lon="-1.56469">
        <ele>14.8</ele>
      </trkpt>
      <trkpt lat="49.1677" lon="-1.56463">
        <ele>14.8</ele>
      </trkpt>
      <trkpt lat="49.1677" lon="-1.56457">
        <ele>14.9</ele>
      </trkpt>
      <trkpt lat="49.16773" lon="-1.56453">
        <ele>15</ele>
      </trkpt>
      <trkpt lat="49.16783" lon="-1.56439">
        <ele>15.2</ele>
      </trkpt>
      <trkpt lat="49.16786" lon="-1.56434">
        <ele>15.3</ele>
      </trkpt>
      <trkpt lat="49.16804" lon="-1.56397">
        <ele>15.8</ele>
      </trkpt>
      <trkpt lat="49.16833" lon="-1.56338">
        <ele>16.9</ele>
      </trkpt>
      <trkpt lat="49.16838" lon="-1.56328">
        <ele>17.1</ele>
      </trkpt>
      <trkpt lat="49.16846" lon="-1.56311">
        <ele>17.3</ele>
      </trkpt>
      <trkpt lat="49.16857" lon="-1.5627">
        <ele>17.8</ele>
      </trkpt>
      <trkpt lat="49.16858" lon="-1.56267">
        <ele>17.8</ele>
      </trkpt>
      <trkpt lat="49.16859" lon="-1.56263">
        <ele>17.8</ele>
      </trkpt>
      <trkpt lat="49.16868" lon="-1.56231">
        <ele>18.1</ele>
      </trkpt>
      <trkpt lat="49.16882" lon="-1.56164">
        <ele>18.6</ele>
      </trkpt>
      <trkpt lat="49.16883" lon="-1.5616">
        <ele>18.7</ele>
      </trkpt>
      <trkpt lat="49.16892" lon="-1.56122">
        <ele>19.5</ele>
      </trkpt>
      <trkpt lat="49.16904" lon="-1.56095">
        <ele>20.3</ele>
      </trkpt>
      <trkpt lat="49.16929" lon="-1.56034">
        <ele>20.9</ele>
      </trkpt>
      <trkpt lat="49.16975" lon="-1.55943">
        <ele>22</ele>
      </trkpt>
      <trkpt lat="49.16992" lon="-1.55913">
        <ele>22.8</ele>
      </trkpt>
      <trkpt lat="49.17006" lon="-1.55888">
        <ele>22.9</ele>
      </trkpt>
      <trkpt lat="49.1703" lon="-1.55856">
        <ele>22.4</ele>
      </trkpt>
      <trkpt lat="49.17047" lon="-1.55847">
        <ele>22</ele>
      </trkpt>
      <trkpt lat="49.17056" lon="-1.55843">
        <ele>21.7</ele>
      </trkpt>
      <trkpt lat="49.1707" lon="-1.55838">
        <ele>21.4</ele>
      </trkpt>
      <trkpt lat="49.17085" lon="-1.55833">
        <ele>21</ele>
      </trkpt>
      <trkpt lat="49.17096" lon="-1.55832">
        <ele>21.3</ele>
      </trkpt>
      <trkpt lat="49.17106" lon="-1.55832">
        <ele>21.6</ele>
      </trkpt>
      <trkpt lat="49.17113" lon="-1.55832">
        <ele>21.7</ele>
      </trkpt>
      <trkpt lat="49.17136" lon="-1.55835">
        <ele>22.2</ele>
      </trkpt>
      <trkpt lat="49.17162" lon="-1.55839">
        <ele>22.7</ele>
      </trkpt>
      <trkpt lat="49.17171" lon="-1.5584">
        <ele>22.7</ele>
      </trkpt>
      <trkpt lat="49.17176" lon="-1.55839">
        <ele>22.6</ele>
      </trkpt>
      <trkpt lat="49.1718" lon="-1.55836">
        <ele>22.6</ele>
      </trkpt>
      <trkpt lat="49.17183" lon="-1.55834">
        <ele>22.6</ele>
      </trkpt>
      <trkpt lat="49.17186" lon="-1.5583">
        <ele>22.5</ele>
      </trkpt>
      <trkpt lat="49.1719" lon="-1.55824">
        <ele>22.4</ele>
      </trkpt>
      <trkpt lat="49.17193" lon="-1.55818">
        <ele>22.4</ele>
      </trkpt>
      <trkpt lat="49.172" lon="-1.55809">
        <ele>22.3</ele>
      </trkpt>
      <trkpt lat="49.17208" lon="-1.55802">
        <ele>22.2</ele>
      </trkpt>
      <trkpt lat="49.1722" lon="-1.55793">
        <ele>22.2</ele>
      </trkpt>
      <trkpt lat="49.17231" lon="-1.55785">
        <ele>22.2</ele>
      </trkpt>
      <trkpt lat="49.17236" lon="-1.55782">
        <ele>22.3</ele>
      </trkpt>
      <trkpt lat="49.17249" lon="-1.55774">
        <ele>22.4</ele>
      </trkpt>
      <trkpt lat="49.17262" lon="-1.55769">
        <ele>22.5</ele>
      </trkpt>
      <trkpt lat="49.17275" lon="-1.55765">
        <ele>22.6</ele>
      </trkpt>
      <trkpt lat="49.17285" lon="-1.5576">
        <ele>22.8</ele>
      </trkpt>
      <trkpt lat="49.17305" lon="-1.55748">
        <ele>23</ele>
      </trkpt>
      <trkpt lat="49.17325" lon="-1.55734">
        <ele>23.1</ele>
      </trkpt>
      <trkpt lat="49.17345" lon="-1.5572">
        <ele>23.4</ele>
      </trkpt>
      <trkpt lat="49.17365" lon="-1.55705">
        <ele>23.7</ele>
      </trkpt>
      <trkpt lat="49.17381" lon="-1.55689">
        <ele>24.1</ele>
      </trkpt>
      <trkpt lat="49.17391" lon="-1.55681">
        <ele>24.4</ele>
      </trkpt>
      <trkpt lat="49.17405" lon="-1.55668">
        <ele>24.8</ele>
      </trkpt>
      <trkpt lat="49.17417" lon="-1.55655">
        <ele>25</ele>
      </trkpt>
      <trkpt lat="49.17428" lon="-1.55644">
        <ele>25.2</ele>
      </trkpt>
      <trkpt lat="49.17436" lon="-1.55637">
        <ele>25.3</ele>
      </trkpt>
      <trkpt lat="49.1744" lon="-1.55635">
        <ele>25.3</ele>
      </trkpt>
      <trkpt lat="49.17443" lon="-1.55633">
        <ele>25.4</ele>
      </trkpt>
      <trkpt lat="49.17451" lon="-1.55628">
        <ele>25.4</ele>
      </trkpt>
      <trkpt lat="49.1746" lon="-1.55625">
        <ele>25.5</ele>
      </trkpt>
      <trkpt lat="49.17467" lon="-1.55621">
        <ele>25.6</ele>
      </trkpt>
      <trkpt lat="49.17471" lon="-1.5562">
        <ele>25.6</ele>
      </trkpt>
      <trkpt lat="49.17483" lon="-1.55617">
        <ele>25.6</ele>
      </trkpt>
      <trkpt lat="49.17493" lon="-1.55616">
        <ele>25.7</ele>
      </trkpt>
      <trkpt lat="49.17503" lon="-1.55615">
        <ele>25.8</ele>
      </trkpt>
      <trkpt lat="49.17512" lon="-1.55614">
        <ele>25.8</ele>
      </trkpt>
      <trkpt lat="49.17518" lon="-1.55613">
        <ele>25.8</ele>
      </trkpt>
      <trkpt lat="49.17521" lon="-1.55611">
        <ele>25.7</ele>
      </trkpt>
      <trkpt lat="49.17524" lon="-1.55609">
        <ele>25.7</ele>
      </trkpt>
      <trkpt lat="49.17532" lon="-1.55605">
        <ele>25.7</ele>
      </trkpt>
      <trkpt lat="49.17549" lon="-1.55596">
        <ele>25.7</ele>
      </trkpt>
      <trkpt lat="49.17552" lon="-1.55594">
        <ele>25.7</ele>
      </trkpt>
      <trkpt lat="49.17556" lon="-1.55592">
        <ele>25.7</ele>
      </trkpt>
      <trkpt lat="49.17573" lon="-1.55584">
        <ele>25.9</ele>
      </trkpt>
      <trkpt lat="49.17579" lon="-1.55582">
        <ele>25.9</ele>
      </trkpt>
      <trkpt lat="49.17584" lon="-1.55582">
        <ele>26</ele>
      </trkpt>
      <trkpt lat="49.17589" lon="-1.55586">
        <ele>25.9</ele>
      </trkpt>
      <trkpt lat="49.17591" lon="-1.55588">
        <ele>25.9</ele>
      </trkpt>
      <trkpt lat="49.17594" lon="-1.55593">
        <ele>25.9</ele>
      </trkpt>
      <trkpt lat="49.17597" lon="-1.55603">
        <ele>25.8</ele>
      </trkpt>
      <trkpt lat="49.17599" lon="-1.55608">
        <ele>25.8</ele>
      </trkpt>
      <trkpt lat="49.17612" lon="-1.55643">
        <ele>25.7</ele>
      </trkpt>
      <trkpt lat="49.17621" lon="-1.55665">
        <ele>25.5</ele>
      </trkpt>
      <trkpt lat="49.17628" lon="-1.55683">
        <ele>25.3</ele>
      </trkpt>
      <trkpt lat="49.17633" lon="-1.55696">
        <ele>25.1</ele>
      </trkpt>
      <trkpt lat="49.1764" lon="-1.55715">
        <ele>24.9</ele>
      </trkpt>
      <trkpt lat="49.17647" lon="-1.5573">
        <ele>24.9</ele>
      </trkpt>
      <trkpt lat="49.1766" lon="-1.55755">
        <ele>24.9</ele>
      </trkpt>
      <trkpt lat="49.17675" lon="-1.55783">
        <ele>25.1</ele>
      </trkpt>
      <trkpt lat="49.17703" lon="-1.55833">
        <ele>25.4</ele>
      </trkpt>
      <trkpt lat="49.17724" lon="-1.55869">
        <ele>25.4</ele>
      </trkpt>
      <trkpt lat="49.17737" lon="-1.55888">
        <ele>25.3</ele>
      </trkpt>
      <trkpt lat="49.1774" lon="-1.55893">
        <ele>25.3</ele>
      </trkpt>
      <trkpt lat="49.17749" lon="-1.55905">
        <ele>25.1</ele>
      </trkpt>
      <trkpt lat="49.17763" lon="-1.55928">
        <ele>25.1</ele>
      </trkpt>
      <trkpt lat="49.17768" lon="-1.55937">
        <ele>25.2</ele>
      </trkpt>
      <trkpt lat="49.17773" lon="-1.55945">
        <ele>25.2</ele>
      </trkpt>
      <trkpt lat="49.17779" lon="-1.55962">
        <ele>25.4</ele>
      </trkpt>
      <trkpt lat="49.17782" lon="-1.55971">
        <ele>25.4</ele>
      </trkpt>
      <trkpt lat="49.17786" lon="-1.55984">
        <ele>25.5</ele>
      </trkpt>
      <trkpt lat="49.17788" lon="-1.55996">
        <ele>25.5</ele>
      </trkpt>
      <trkpt lat="49.1779" lon="-1.56013">
        <ele>25.3</ele>
      </trkpt>
      <trkpt lat="49.1779" lon="-1.56036">
        <ele>24.9</ele>
      </trkpt>
      <trkpt lat="49.17789" lon="-1.56052">
        <ele>24.6</ele>
      </trkpt>
      <trkpt lat="49.17785" lon="-1.56078">
        <ele>24.1</ele>
      </trkpt>
      <trkpt lat="49.17783" lon="-1.56083">
        <ele>24</ele>
      </trkpt>
      <trkpt lat="49.17792" lon="-1.56082">
        <ele>24</ele>
      </trkpt>
      <trkpt lat="49.17803" lon="-1.56076">
        <ele>24.1</ele>
      </trkpt>
      <trkpt lat="49.17818" lon="-1.56066">
        <ele>24.3</ele>
      </trkpt>
      <trkpt lat="49.17834" lon="-1.5605">
        <ele>24.4</ele>
      </trkpt>
      <trkpt lat="49.1784" lon="-1.56042">
        <ele>24.5</ele>
      </trkpt>
      <trkpt lat="49.17849" lon="-1.56032">
        <ele>24.6</ele>
      </trkpt>
      <trkpt lat="49.1786" lon="-1.5602">
        <ele>24.8</ele>
      </trkpt>
      <trkpt lat="49.17864" lon="-1.56012">
        <ele>24.9</ele>
      </trkpt>
      <trkpt lat="49.17868" lon="-1.55996">
        <ele>25</ele>
      </trkpt>
      <trkpt lat="49.17874" lon="-1.55991">
        <ele>25</ele>
      </trkpt>
      <trkpt lat="49.17899" lon="-1.55977">
        <ele>25</ele>
      </trkpt>
      <trkpt lat="49.17919" lon="-1.55967">
        <ele>25</ele>
      </trkpt>
      <trkpt lat="49.17921" lon="-1.55965">
        <ele>25</ele>
      </trkpt>
      <trkpt lat="49.17935" lon="-1.55957">
        <ele>25.2</ele>
      </trkpt>
      <trkpt lat="49.17938" lon="-1.55956">
        <ele>25.3</ele>
      </trkpt>
      <trkpt lat="49.17953" lon="-1.55947">
        <ele>25.6</ele>
      </trkpt>
      <trkpt lat="49.17957" lon="-1.55945">
        <ele>25.6</ele>
      </trkpt>
      <trkpt lat="49.17974" lon="-1.55932">
        <ele>26.1</ele>
      </trkpt>
      <trkpt lat="49.17977" lon="-1.55929">
        <ele>26.2</ele>
      </trkpt>
      <trkpt lat="49.17982" lon="-1.55924">
        <ele>26.4</ele>
      </trkpt>
      <trkpt lat="49.17992" lon="-1.55927">
        <ele>26.6</ele>
      </trkpt>
      <trkpt lat="49.17999" lon="-1.55929">
        <ele>26.7</ele>
      </trkpt>
      <trkpt lat="49.18008" lon="-1.55929">
        <ele>26.8</ele>
      </trkpt>
      <trkpt lat="49.18016" lon="-1.55929">
        <ele>26.9</ele>
      </trkpt>
      <trkpt lat="49.18028" lon="-1.5593">
        <ele>27</ele>
      </trkpt>
      <trkpt lat="49.1804" lon="-1.55935">
        <ele>26.9</ele>
      </trkpt>
      <trkpt lat="49.18052" lon="-1.55938">
        <ele>27</ele>
      </trkpt>
      <trkpt lat="49.18064" lon="-1.55939">
        <ele>27</ele>
      </trkpt>
      <trkpt lat="49.18074" lon="-1.55938">
        <ele>27.1</ele>
      </trkpt>
      <trkpt lat="49.18082" lon="-1.55937">
        <ele>27.2</ele>
      </trkpt>
      <trkpt lat="49.18093" lon="-1.55935">
        <ele>27.3</ele>
      </trkpt>
      <trkpt lat="49.181" lon="-1.55935">
        <ele>27.2</ele>
      </trkpt>
      <trkpt lat="49.18119" lon="-1.55936">
        <ele>27.1</ele>
      </trkpt>
      <trkpt lat="49.18138" lon="-1.5594">
        <ele>26.9</ele>
      </trkpt>
      <trkpt lat="49.18158" lon="-1.55941">
        <ele>26.8</ele>
      </trkpt>
      <trkpt lat="49.18176" lon="-1.55942">
        <ele>26.9</ele>
      </trkpt>
      <trkpt lat="49.18182" lon="-1.55942">
        <ele>27.1</ele>
      </trkpt>
      <trkpt lat="49.18199" lon="-1.55941">
        <ele>27.6</ele>
      </trkpt>
      <trkpt lat="49.18215" lon="-1.55938">
        <ele>28</ele>
      </trkpt>
      <trkpt lat="49.18247" lon="-1.55931">
        <ele>28.9</ele>
      </trkpt>
      <trkpt lat="49.1827" lon="-1.55925">
        <ele>28.3</ele>
      </trkpt>
      <trkpt lat="49.18283" lon="-1.5592">
        <ele>27.8</ele>
      </trkpt>
      <trkpt lat="49.18293" lon="-1.55915">
        <ele>27.5</ele>
      </trkpt>
      <trkpt lat="49.18301" lon="-1.55913">
        <ele>27.2</ele>
      </trkpt>
      <trkpt lat="49.18309" lon="-1.55913">
        <ele>26.9</ele>
      </trkpt>
      <trkpt lat="49.18322" lon="-1.55912">
        <ele>26.5</ele>
      </trkpt>
      <trkpt lat="49.18336" lon="-1.55912">
        <ele>26.1</ele>
      </trkpt>
      <trkpt lat="49.1835" lon="-1.55911">
        <ele>26.5</ele>
      </trkpt>
      <trkpt lat="49.18357" lon="-1.55911">
        <ele>26.6</ele>
      </trkpt>
      <trkpt lat="49.18397" lon="-1.5591">
        <ele>27.6</ele>
      </trkpt>
      <trkpt lat="49.18429" lon="-1.55905">
        <ele>28.3</ele>
      </trkpt>
      <trkpt lat="49.18464" lon="-1.55901">
        <ele>28.6</ele>
      </trkpt>
      <trkpt lat="49.18478" lon="-1.55898">
        <ele>28.8</ele>
      </trkpt>
      <trkpt lat="49.18488" lon="-1.55892">
        <ele>28.9</ele>
      </trkpt>
      <trkpt lat="49.18499" lon="-1.55885">
        <ele>29</ele>
      </trkpt>
      <trkpt lat="49.18508" lon="-1.55881">
        <ele>29.1</ele>
      </trkpt>
      <trkpt lat="49.18518" lon="-1.55881">
        <ele>29.1</ele>
      </trkpt>
      <trkpt lat="49.18529" lon="-1.5588">
        <ele>29.2</ele>
      </trkpt>
      <trkpt lat="49.18538" lon="-1.5588">
        <ele>29.3</ele>
      </trkpt>
      <trkpt lat="49.18551" lon="-1.55872">
        <ele>29.3</ele>
      </trkpt>
      <trkpt lat="49.18553" lon="-1.55871">
        <ele>29.3</ele>
      </trkpt>
      <trkpt lat="49.18559" lon="-1.55868">
        <ele>29.3</ele>
      </trkpt>
      <trkpt lat="49.1857" lon="-1.55861">
        <ele>29.3</ele>
      </trkpt>
      <trkpt lat="49.18579" lon="-1.55859">
        <ele>29.3</ele>
      </trkpt>
      <trkpt lat="49.18591" lon="-1.55858">
        <ele>29.2</ele>
      </trkpt>
      <trkpt lat="49.18605" lon="-1.55857">
        <ele>29</ele>
      </trkpt>
      <trkpt lat="49.18615" lon="-1.55857">
        <ele>28.8</ele>
      </trkpt>
      <trkpt lat="49.18628" lon="-1.55856">
        <ele>28.6</ele>
      </trkpt>
      <trkpt lat="49.1864" lon="-1.55855">
        <ele>28.4</ele>
      </trkpt>
      <trkpt lat="49.18647" lon="-1.55853">
        <ele>28.3</ele>
      </trkpt>
      <trkpt lat="49.18654" lon="-1.55846">
        <ele>28.2</ele>
      </trkpt>
      <trkpt lat="49.18658" lon="-1.55837">
        <ele>28.1</ele>
      </trkpt>
      <trkpt lat="49.18666" lon="-1.55829">
        <ele>28</ele>
      </trkpt>
      <trkpt lat="49.18673" lon="-1.55823">
        <ele>27.8</ele>
      </trkpt>
      <trkpt lat="49.18681" lon="-1.55823">
        <ele>27.7</ele>
      </trkpt>
      <trkpt lat="49.18691" lon="-1.55825">
        <ele>27.6</ele>
      </trkpt>
      <trkpt lat="49.18702" lon="-1.55828">
        <ele>27.5</ele>
      </trkpt>
      <trkpt lat="49.18711" lon="-1.55831">
        <ele>27.5</ele>
      </trkpt>
      <trkpt lat="49.18724" lon="-1.5583">
        <ele>27.3</ele>
      </trkpt>
      <trkpt lat="49.1874" lon="-1.55826">
        <ele>27.1</ele>
      </trkpt>
      <trkpt lat="49.18753" lon="-1.55822">
        <ele>26.9</ele>
      </trkpt>
      <trkpt lat="49.1877" lon="-1.55814">
        <ele>26.5</ele>
      </trkpt>
      <trkpt lat="49.18783" lon="-1.55805">
        <ele>26.2</ele>
      </trkpt>
      <trkpt lat="49.18797" lon="-1.55794">
        <ele>25.9</ele>
      </trkpt>
      <trkpt lat="49.18805" lon="-1.55792">
        <ele>25.7</ele>
      </trkpt>
      <trkpt lat="49.18815" lon="-1.55791">
        <ele>25.5</ele>
      </trkpt>
      <trkpt lat="49.1884" lon="-1.55789">
        <ele>24.9</ele>
      </trkpt>
      <trkpt lat="49.18851" lon="-1.55784">
        <ele>24.8</ele>
      </trkpt>
      <trkpt lat="49.18865" lon="-1.55775">
        <ele>24.6</ele>
      </trkpt>
      <trkpt lat="49.18883" lon="-1.5576">
        <ele>24.4</ele>
      </trkpt>
      <trkpt lat="49.18897" lon="-1.55749">
        <ele>24.2</ele>
      </trkpt>
      <trkpt lat="49.18903" lon="-1.55745">
        <ele>24.2</ele>
      </trkpt>
      <trkpt lat="49.18909" lon="-1.55741">
        <ele>24.1</ele>
      </trkpt>
      <trkpt lat="49.18918" lon="-1.5574">
        <ele>24</ele>
      </trkpt>
      <trkpt lat="49.18939" lon="-1.55742">
        <ele>24.3</ele>
      </trkpt>
      <trkpt lat="49.18947" lon="-1.55743">
        <ele>24.4</ele>
      </trkpt>
      <trkpt lat="49.18953" lon="-1.55742">
        <ele>24.4</ele>
      </trkpt>
      <trkpt lat="49.18959" lon="-1.55741">
        <ele>24.5</ele>
      </trkpt>
      <trkpt lat="49.18971" lon="-1.55739">
        <ele>24.7</ele>
      </trkpt>
      <trkpt lat="49.18988" lon="-1.55741">
        <ele>24.9</ele>
      </trkpt>
      <trkpt lat="49.19006" lon="-1.55745">
        <ele>24.9</ele>
      </trkpt>
      <trkpt lat="49.19017" lon="-1.55745">
        <ele>24.8</ele>
      </trkpt>
      <trkpt lat="49.19034" lon="-1.55741">
        <ele>24.6</ele>
      </trkpt>
      <trkpt lat="49.19048" lon="-1.55738">
        <ele>24.5</ele>
      </trkpt>
      <trkpt lat="49.19058" lon="-1.5574">
        <ele>24.4</ele>
      </trkpt>
      <trkpt lat="49.19073" lon="-1.55749">
        <ele>24.1</ele>
      </trkpt>
      <trkpt lat="49.19089" lon="-1.55756">
        <ele>24</ele>
      </trkpt>
      <trkpt lat="49.19105" lon="-1.5576">
        <ele>24</ele>
      </trkpt>
      <trkpt lat="49.19121" lon="-1.55764">
        <ele>24</ele>
      </trkpt>
      <trkpt lat="49.19135" lon="-1.55769">
        <ele>24</ele>
      </trkpt>
      <trkpt lat="49.1915" lon="-1.55776">
        <ele>24</ele>
      </trkpt>
      <trkpt lat="49.19165" lon="-1.55785">
        <ele>24</ele>
      </trkpt>
      <trkpt lat="49.19177" lon="-1.55793">
        <ele>23.9</ele>
      </trkpt>
      <trkpt lat="49.19188" lon="-1.55801">
        <ele>23.7</ele>
      </trkpt>
      <trkpt lat="49.19198" lon="-1.55807">
        <ele>23.6</ele>
      </trkpt>
      <trkpt lat="49.1921" lon="-1.5581">
        <ele>23.5</ele>
      </trkpt>
      <trkpt lat="49.19224" lon="-1.55814">
        <ele>23.3</ele>
      </trkpt>
      <trkpt lat="49.19238" lon="-1.55815">
        <ele>23.1</ele>
      </trkpt>
      <trkpt lat="49.19245" lon="-1.55815">
        <ele>23.1</ele>
      </trkpt>
      <trkpt lat="49.19253" lon="-1.55819">
        <ele>22.9</ele>
      </trkpt>
      <trkpt lat="49.19264" lon="-1.55821">
        <ele>22.5</ele>
      </trkpt>
      <trkpt lat="49.19277" lon="-1.55825">
        <ele>22</ele>
      </trkpt>
      <trkpt lat="49.19286" lon="-1.55829">
        <ele>21.7</ele>
      </trkpt>
      <trkpt lat="49.19292" lon="-1.55828">
        <ele>21.5</ele>
      </trkpt>
      <trkpt lat="49.19299" lon="-1.55828">
        <ele>21.2</ele>
      </trkpt>
      <trkpt lat="49.19305" lon="-1.5583">
        <ele>21</ele>
      </trkpt>
      <trkpt lat="49.19339" lon="-1.55839">
        <ele>19.7</ele>
      </trkpt>
      <trkpt lat="49.19357" lon="-1.55846">
        <ele>19.1</ele>
      </trkpt>
      <trkpt lat="49.19362" lon="-1.55851">
        <ele>18.9</ele>
      </trkpt>
      <trkpt lat="49.19365" lon="-1.55859">
        <ele>18.8</ele>
      </trkpt>
      <trkpt lat="49.19376" lon="-1.55861">
        <ele>18.5</ele>
      </trkpt>
      <trkpt lat="49.19399" lon="-1.55867">
        <ele>17.9</ele>
      </trkpt>
      <trkpt lat="49.19425" lon="-1.55876">
        <ele>17.7</ele>
      </trkpt>
      <trkpt lat="49.19449" lon="-1.55886">
        <ele>18.4</ele>
      </trkpt>
      <trkpt lat="49.19467" lon="-1.55897">
        <ele>19</ele>
      </trkpt>
      <trkpt lat="49.19471" lon="-1.55899">
        <ele>19.1</ele>
      </trkpt>
      <trkpt lat="49.19482" lon="-1.55906">
        <ele>19.4</ele>
      </trkpt>
      <trkpt lat="49.19494" lon="-1.55914">
        <ele>19.8</ele>
      </trkpt>
      <trkpt lat="49.19504" lon="-1.55915">
        <ele>20</ele>
      </trkpt>
      <trkpt lat="49.19523" lon="-1.55914">
        <ele>20.2</ele>
      </trkpt>
      <trkpt lat="49.19548" lon="-1.55909">
        <ele>20.5</ele>
      </trkpt>
      <trkpt lat="49.19559" lon="-1.55906">
        <ele>20.6</ele>
      </trkpt>
      <trkpt lat="49.19565" lon="-1.55902">
        <ele>20.6</ele>
      </trkpt>
      <trkpt lat="49.19561" lon="-1.55861">
        <ele>20.1</ele>
      </trkpt>
      <trkpt lat="49.19561" lon="-1.55854">
        <ele>20</ele>
      </trkpt>
      <trkpt lat="49.19558" lon="-1.55814">
        <ele>19.7</ele>
      </trkpt>
      <trkpt lat="49.19557" lon="-1.55798">
        <ele>19.7</ele>
      </trkpt>
      <trkpt lat="49.19557" lon="-1.55793">
        <ele>19.7</ele>
      </trkpt>
      <trkpt lat="49.19558" lon="-1.5579">
        <ele>19.7</ele>
      </trkpt>
      <trkpt lat="49.19559" lon="-1.55783">
        <ele>19.7</ele>
      </trkpt>
      <trkpt lat="49.19563" lon="-1.55774">
        <ele>19.8</ele>
      </trkpt>
      <trkpt lat="49.19561" lon="-1.55765">
        <ele>19.7</ele>
      </trkpt>
      <trkpt lat="49.19561" lon="-1.55755">
        <ele>19.7</ele>
      </trkpt>
      <trkpt lat="49.19561" lon="-1.55744">
        <ele>19.8</ele>
      </trkpt>
      <trkpt lat="49.19562" lon="-1.55722">
        <ele>20.1</ele>
      </trkpt>
      <trkpt lat="49.19562" lon="-1.55706">
        <ele>20.3</ele>
      </trkpt>
      <trkpt lat="49.19562" lon="-1.55689">
        <ele>20.5</ele>
      </trkpt>
      <trkpt lat="49.1956" lon="-1.55677">
        <ele>20.6</ele>
      </trkpt>
      <trkpt lat="49.19556" lon="-1.55663">
        <ele>20.7</ele>
      </trkpt>
      <trkpt lat="49.19552" lon="-1.55649">
        <ele>20.7</ele>
      </trkpt>
      <trkpt lat="49.19546" lon="-1.55637">
        <ele>20.7</ele>
      </trkpt>
      <trkpt lat="49.19539" lon="-1.55624">
        <ele>20.7</ele>
      </trkpt>
      <trkpt lat="49.19534" lon="-1.55617">
        <ele>20.8</ele>
      </trkpt>
      <trkpt lat="49.19531" lon="-1.55611">
        <ele>20.8</ele>
      </trkpt>
      <trkpt lat="49.19528" lon="-1.55605">
        <ele>20.8</ele>
      </trkpt>
      <trkpt lat="49.19525" lon="-1.55597">
        <ele>20.9</ele>
      </trkpt>
      <trkpt lat="49.19524" lon="-1.55589">
        <ele>21</ele>
      </trkpt>
      <trkpt lat="49.19522" lon="-1.55575">
        <ele>21.1</ele>
      </trkpt>
      <trkpt lat="49.19521" lon="-1.55567">
        <ele>21.1</ele>
      </trkpt>
      <trkpt lat="49.19518" lon="-1.55553">
        <ele>21.3</ele>
      </trkpt>
      <trkpt lat="49.1952" lon="-1.55537">
        <ele>21.4</ele>
      </trkpt>
      <trkpt lat="49.19519" lon="-1.55529">
        <ele>21.5</ele>
      </trkpt>
      <trkpt lat="49.19517" lon="-1.55522">
        <ele>21.6</ele>
      </trkpt>
      <trkpt lat="49.19514" lon="-1.55512">
        <ele>21.7</ele>
      </trkpt>
      <trkpt lat="49.19504" lon="-1.5549">
        <ele>22.2</ele>
      </trkpt>
      <trkpt lat="49.19501" lon="-1.55485">
        <ele>22.4</ele>
      </trkpt>
      <trkpt lat="49.19497" lon="-1.55481">
        <ele>22.4</ele>
      </trkpt>
      <trkpt lat="49.19499" lon="-1.55473">
        <ele>22.6</ele>
      </trkpt>
      <trkpt lat="49.19501" lon="-1.55461">
        <ele>22.9</ele>
      </trkpt>
      <trkpt lat="49.19505" lon="-1.55449">
        <ele>23.2</ele>
      </trkpt>
      <trkpt lat="49.19515" lon="-1.55417">
        <ele>23.8</ele>
      </trkpt>
      <trkpt lat="49.19532" lon="-1.55369">
        <ele>23.3</ele>
      </trkpt>
      <trkpt lat="49.19535" lon="-1.55361">
        <ele>23.2</ele>
      </trkpt>
      <trkpt lat="49.19558" lon="-1.55293">
        <ele>23.3</ele>
      </trkpt>
      <trkpt lat="49.19568" lon="-1.5526">
        <ele>23.3</ele>
      </trkpt>
      <trkpt lat="49.19553" lon="-1.55245">
        <ele>23.7</ele>
      </trkpt>
      <trkpt lat="49.19529" lon="-1.55223">
        <ele>24.3</ele>
      </trkpt>
      <trkpt lat="49.19529" lon="-1.55223">
        <ele>24.3</ele>
      </trkpt>
      <trkpt lat="49.19509" lon="-1.55203">
        <ele>24.8</ele>
      </trkpt>
      <trkpt lat="49.19492" lon="-1.55183">
        <ele>25</ele>
      </trkpt>
      <trkpt lat="49.19476" lon="-1.55163">
        <ele>25</ele>
      </trkpt>
      <trkpt lat="49.1947" lon="-1.55158">
        <ele>24.9</ele>
      </trkpt>
      <trkpt lat="49.19466" lon="-1.55154">
        <ele>24.9</ele>
      </trkpt>
      <trkpt lat="49.19456" lon="-1.55146">
        <ele>24.7</ele>
      </trkpt>
      <trkpt lat="49.19442" lon="-1.55138">
        <ele>24.5</ele>
      </trkpt>
      <trkpt lat="49.19428" lon="-1.55132">
        <ele>24.3</ele>
      </trkpt>
      <trkpt lat="49.19409" lon="-1.55127">
        <ele>23.9</ele>
      </trkpt>
      <trkpt lat="49.19386" lon="-1.55118">
        <ele>23.5</ele>
      </trkpt>
      <trkpt lat="49.19372" lon="-1.55109">
        <ele>23.3</ele>
      </trkpt>
      <trkpt lat="49.19362" lon="-1.55101">
        <ele>23.1</ele>
      </trkpt>
      <trkpt lat="49.19355" lon="-1.55093">
        <ele>23.1</ele>
      </trkpt>
      <trkpt lat="49.19348" lon="-1.55081">
        <ele>23</ele>
      </trkpt>
      <trkpt lat="49.19342" lon="-1.55063">
        <ele>23</ele>
      </trkpt>
      <trkpt lat="49.19336" lon="-1.55053">
        <ele>23</ele>
      </trkpt>
      <trkpt lat="49.19324" lon="-1.55025">
        <ele>23.2</ele>
      </trkpt>
      <trkpt lat="49.19319" lon="-1.55011">
        <ele>23.3</ele>
      </trkpt>
      <trkpt lat="49.19316" lon="-1.54999">
        <ele>23.4</ele>
      </trkpt>
      <trkpt lat="49.19313" lon="-1.54984">
        <ele>23.3</ele>
      </trkpt>
      <trkpt lat="49.19309" lon="-1.54972">
        <ele>23.3</ele>
      </trkpt>
      <trkpt lat="49.19306" lon="-1.54962">
        <ele>23.4</ele>
      </trkpt>
      <trkpt lat="49.19297" lon="-1.54944">
        <ele>23.5</ele>
      </trkpt>
      <trkpt lat="49.19293" lon="-1.54937">
        <ele>23.6</ele>
      </trkpt>
      <trkpt lat="49.1928" lon="-1.54907">
        <ele>24</ele>
      </trkpt>
      <trkpt lat="49.19268" lon="-1.5488">
        <ele>24.7</ele>
      </trkpt>
      <trkpt lat="49.19254" lon="-1.54845">
        <ele>25.7</ele>
      </trkpt>
      <trkpt lat="49.19247" lon="-1.5483">
        <ele>26</ele>
      </trkpt>
      <trkpt lat="49.19235" lon="-1.54795">
        <ele>26</ele>
      </trkpt>
      <trkpt lat="49.19223" lon="-1.54767">
        <ele>26</ele>
      </trkpt>
      <trkpt lat="49.19213" lon="-1.54748">
        <ele>26</ele>
      </trkpt>
      <trkpt lat="49.19196" lon="-1.54705">
        <ele>26.4</ele>
      </trkpt>
      <trkpt lat="49.19183" lon="-1.54672">
        <ele>26.4</ele>
      </trkpt>
      <trkpt lat="49.19167" lon="-1.54629">
        <ele>26.4</ele>
      </trkpt>
      <trkpt lat="49.19164" lon="-1.54622">
        <ele>26.4</ele>
      </trkpt>
      <trkpt lat="49.19124" lon="-1.54519">
        <ele>26.2</ele>
      </trkpt>
      <trkpt lat="49.19083" lon="-1.54415">
        <ele>26</ele>
      </trkpt>
      <trkpt lat="49.19045" lon="-1.5432">
        <ele>25.3</ele>
      </trkpt>
      <trkpt lat="49.19024" lon="-1.54264">
        <ele>23.7</ele>
      </trkpt>
      <trkpt lat="49.19002" lon="-1.54207">
        <ele>23.1</ele>
      </trkpt>
      <trkpt lat="49.18985" lon="-1.54161">
        <ele>23.9</ele>
      </trkpt>
      <trkpt lat="49.18964" lon="-1.54107">
        <ele>24</ele>
      </trkpt>
      <trkpt lat="49.1892" lon="-1.54">
        <ele>24</ele>
      </trkpt>
      <trkpt lat="49.18892" lon="-1.53927">
        <ele>25.5</ele>
      </trkpt>
      <trkpt lat="49.18899" lon="-1.53923">
        <ele>25.6</ele>
      </trkpt>
      <trkpt lat="49.18912" lon="-1.53911">
        <ele>26</ele>
      </trkpt>
      <trkpt lat="49.18945" lon="-1.53885">
        <ele>25.6</ele>
      </trkpt>
      <trkpt lat="49.18982" lon="-1.53855">
        <ele>24.6</ele>
      </trkpt>
      <trkpt lat="49.18993" lon="-1.53845">
        <ele>24.2</ele>
      </trkpt>
      <trkpt lat="49.19004" lon="-1.53839">
        <ele>24</ele>
      </trkpt>
      <trkpt lat="49.19015" lon="-1.53836">
        <ele>24.2</ele>
      </trkpt>
      <trkpt lat="49.19029" lon="-1.53834">
        <ele>24.3</ele>
      </trkpt>
      <trkpt lat="49.19043" lon="-1.53833">
        <ele>24.5</ele>
      </trkpt>
      <trkpt lat="49.19057" lon="-1.53834">
        <ele>24.7</ele>
      </trkpt>
      <trkpt lat="49.19073" lon="-1.53834">
        <ele>24.9</ele>
      </trkpt>
      <trkpt lat="49.19089" lon="-1.53833">
        <ele>25.3</ele>
      </trkpt>
      <trkpt lat="49.19129" lon="-1.53828">
        <ele>27.2</ele>
      </trkpt>
      <trkpt lat="49.19137" lon="-1.53826">
        <ele>27.6</ele>
      </trkpt>
      <trkpt lat="49.19147" lon="-1.53821">
        <ele>28</ele>
      </trkpt>
      <trkpt lat="49.19155" lon="-1.53817">
        <ele>28.3</ele>
      </trkpt>
      <trkpt lat="49.1917" lon="-1.53807">
        <ele>28.7</ele>
      </trkpt>
      <trkpt lat="49.19177" lon="-1.53803">
        <ele>28.7</ele>
      </trkpt>
      <trkpt lat="49.19189" lon="-1.53797">
        <ele>28.8</ele>
      </trkpt>
      <trkpt lat="49.19213" lon="-1.53788">
        <ele>28.7</ele>
      </trkpt>
      <trkpt lat="49.19229" lon="-1.53783">
        <ele>28.5</ele>
      </trkpt>
      <trkpt lat="49.19234" lon="-1.5378">
        <ele>28.4</ele>
      </trkpt>
      <trkpt lat="49.19229" lon="-1.53783">
        <ele>28.5</ele>
      </trkpt>
      <trkpt lat="49.19213" lon="-1.53788">
        <ele>28.7</ele>
      </trkpt>
      <trkpt lat="49.19189" lon="-1.53797">
        <ele>28.8</ele>
      </trkpt>
      <trkpt lat="49.19177" lon="-1.53803">
        <ele>28.7</ele>
      </trkpt>
      <trkpt lat="49.1917" lon="-1.53807">
        <ele>28.7</ele>
      </trkpt>
      <trkpt lat="49.19155" lon="-1.53817">
        <ele>28.3</ele>
      </trkpt>
      <trkpt lat="49.19154" lon="-1.5381">
        <ele>28.3</ele>
      </trkpt>
      <trkpt lat="49.19152" lon="-1.53802">
        <ele>28.1</ele>
      </trkpt>
      <trkpt lat="49.19147" lon="-1.53792">
        <ele>27.9</ele>
      </trkpt>
      <trkpt lat="49.19142" lon="-1.5378">
        <ele>27.7</ele>
      </trkpt>
      <trkpt lat="49.19138" lon="-1.53766">
        <ele>27.6</ele>
      </trkpt>
      <trkpt lat="49.19134" lon="-1.53753">
        <ele>27.6</ele>
      </trkpt>
      <trkpt lat="49.1913" lon="-1.53736">
        <ele>27.3</ele>
      </trkpt>
      <trkpt lat="49.19127" lon="-1.53723">
        <ele>27</ele>
      </trkpt>
      <trkpt lat="49.19122" lon="-1.53703">
        <ele>26.7</ele>
      </trkpt>
      <trkpt lat="49.19119" lon="-1.53691">
        <ele>26.5</ele>
      </trkpt>
      <trkpt lat="49.19117" lon="-1.53685">
        <ele>26.5</ele>
      </trkpt>
      <trkpt lat="49.19111" lon="-1.53679">
        <ele>26.5</ele>
      </trkpt>
      <trkpt lat="49.19105" lon="-1.53675">
        <ele>26.6</ele>
      </trkpt>
      <trkpt lat="49.19099" lon="-1.53668">
        <ele>26.6</ele>
      </trkpt>
      <trkpt lat="49.19091" lon="-1.5366">
        <ele>26.8</ele>
      </trkpt>
      <trkpt lat="49.19084" lon="-1.53654">
        <ele>27</ele>
      </trkpt>
      <trkpt lat="49.19077" lon="-1.53651">
        <ele>27</ele>
      </trkpt>
      <trkpt lat="49.19073" lon="-1.53648">
        <ele>27</ele>
      </trkpt>
      <trkpt lat="49.19068" lon="-1.53644">
        <ele>27</ele>
      </trkpt>
      <trkpt lat="49.19065" lon="-1.53637">
        <ele>27.1</ele>
      </trkpt>
      <trkpt lat="49.19063" lon="-1.53626">
        <ele>27.2</ele>
      </trkpt>
      <trkpt lat="49.1906" lon="-1.53618">
        <ele>27.4</ele>
      </trkpt>
      <trkpt lat="49.19056" lon="-1.53611">
        <ele>27.6</ele>
      </trkpt>
      <trkpt lat="49.19043" lon="-1.536">
        <ele>28.1</ele>
      </trkpt>
      <trkpt lat="49.19029" lon="-1.53585">
        <ele>28.9</ele>
      </trkpt>
      <trkpt lat="49.19018" lon="-1.53574">
        <ele>29.4</ele>
      </trkpt>
      <trkpt lat="49.19011" lon="-1.53568">
        <ele>29.8</ele>
      </trkpt>
      <trkpt lat="49.19006" lon="-1.53567">
        <ele>30</ele>
      </trkpt>
      <trkpt lat="49.19001" lon="-1.53568">
        <ele>30.1</ele>
      </trkpt>
      <trkpt lat="49.18995" lon="-1.53574">
        <ele>30.1</ele>
      </trkpt>
      <trkpt lat="49.18991" lon="-1.5358">
        <ele>30</ele>
      </trkpt>
      <trkpt lat="49.18987" lon="-1.53586">
        <ele>29.9</ele>
      </trkpt>
      <trkpt lat="49.18982" lon="-1.53597">
        <ele>29.4</ele>
      </trkpt>
      <trkpt lat="49.18978" lon="-1.53612">
        <ele>28.7</ele>
      </trkpt>
      <trkpt lat="49.18968" lon="-1.53636">
        <ele>27.7</ele>
      </trkpt>
      <trkpt lat="49.18962" lon="-1.53645">
        <ele>27.4</ele>
      </trkpt>
      <trkpt lat="49.18957" lon="-1.53648">
        <ele>27.3</ele>
      </trkpt>
      <trkpt lat="49.18952" lon="-1.53649">
        <ele>27.3</ele>
      </trkpt>
      <trkpt lat="49.18943" lon="-1.53647">
        <ele>27.5</ele>
      </trkpt>
      <trkpt lat="49.18936" lon="-1.53642">
        <ele>27.7</ele>
      </trkpt>
      <trkpt lat="49.18928" lon="-1.53634">
        <ele>28.1</ele>
      </trkpt>
      <trkpt lat="49.18923" lon="-1.5363">
        <ele>28.3</ele>
      </trkpt>
      <trkpt lat="49.18913" lon="-1.53623">
        <ele>28.5</ele>
      </trkpt>
      <trkpt lat="49.18905" lon="-1.53614">
        <ele>28.7</ele>
      </trkpt>
      <trkpt lat="49.18899" lon="-1.53609">
        <ele>28.9</ele>
      </trkpt>
      <trkpt lat="49.18885" lon="-1.53597">
        <ele>29.1</ele>
      </trkpt>
      <trkpt lat="49.18876" lon="-1.53591">
        <ele>29.3</ele>
      </trkpt>
      <trkpt lat="49.18866" lon="-1.53588">
        <ele>29.2</ele>
      </trkpt>
      <trkpt lat="49.18853" lon="-1.53584">
        <ele>29.2</ele>
      </trkpt>
      <trkpt lat="49.18849" lon="-1.53582">
        <ele>29.2</ele>
      </trkpt>
      <trkpt lat="49.18845" lon="-1.53576">
        <ele>29.2</ele>
      </trkpt>
      <trkpt lat="49.18842" lon="-1.53568">
        <ele>29.3</ele>
      </trkpt>
      <trkpt lat="49.18838" lon="-1.53559">
        <ele>29.3</ele>
      </trkpt>
      <trkpt lat="49.1883" lon="-1.53541">
        <ele>29.4</ele>
      </trkpt>
      <trkpt lat="49.18824" lon="-1.5353">
        <ele>29.5</ele>
      </trkpt>
      <trkpt lat="49.18815" lon="-1.53517">
        <ele>29.5</ele>
      </trkpt>
      <trkpt lat="49.18804" lon="-1.53504">
        <ele>29.6</ele>
      </trkpt>
      <trkpt lat="49.18791" lon="-1.53489">
        <ele>29.7</ele>
      </trkpt>
      <trkpt lat="49.18782" lon="-1.53477">
        <ele>29.9</ele>
      </trkpt>
      <trkpt lat="49.18772" lon="-1.53468">
        <ele>30</ele>
      </trkpt>
      <trkpt lat="49.18764" lon="-1.5346">
        <ele>30.1</ele>
      </trkpt>
      <trkpt lat="49.18757" lon="-1.5345">
        <ele>30.3</ele>
      </trkpt>
      <trkpt lat="49.18752" lon="-1.53442">
        <ele>30.4</ele>
      </trkpt>
      <trkpt lat="49.18749" lon="-1.53434">
        <ele>30.6</ele>
      </trkpt>
      <trkpt lat="49.18746" lon="-1.53428">
        <ele>30.7</ele>
      </trkpt>
      <trkpt lat="49.18743" lon="-1.53419">
        <ele>30.9</ele>
      </trkpt>
      <trkpt lat="49.18741" lon="-1.53409">
        <ele>31.4</ele>
      </trkpt>
      <trkpt lat="49.18739" lon="-1.53397">
        <ele>32.1</ele>
      </trkpt>
      <trkpt lat="49.18736" lon="-1.53389">
        <ele>32.5</ele>
      </trkpt>
      <trkpt lat="49.18733" lon="-1.53378">
        <ele>33.1</ele>
      </trkpt>
      <trkpt lat="49.18729" lon="-1.53369">
        <ele>33.6</ele>
      </trkpt>
      <trkpt lat="49.18725" lon="-1.53356">
        <ele>34.2</ele>
      </trkpt>
      <trkpt lat="49.1872" lon="-1.53335">
        <ele>35.2</ele>
      </trkpt>
      <trkpt lat="49.18718" lon="-1.53322">
        <ele>35.6</ele>
      </trkpt>
      <trkpt lat="49.18719" lon="-1.5331">
        <ele>36</ele>
      </trkpt>
      <trkpt lat="49.18716" lon="-1.533">
        <ele>36.3</ele>
      </trkpt>
      <trkpt lat="49.18713" lon="-1.53293">
        <ele>36.5</ele>
      </trkpt>
      <trkpt lat="49.18707" lon="-1.53286">
        <ele>36.7</ele>
      </trkpt>
      <trkpt lat="49.18697" lon="-1.53269">
        <ele>37.2</ele>
      </trkpt>
      <trkpt lat="49.18689" lon="-1.53262">
        <ele>37.5</ele>
      </trkpt>
      <trkpt lat="49.18684" lon="-1.53251">
        <ele>38</ele>
      </trkpt>
      <trkpt lat="49.18681" lon="-1.5324">
        <ele>38.2</ele>
      </trkpt>
      <trkpt lat="49.18678" lon="-1.53223">
        <ele>38.6</ele>
      </trkpt>
      <trkpt lat="49.18677" lon="-1.53209">
        <ele>38.9</ele>
      </trkpt>
      <trkpt lat="49.18675" lon="-1.53196">
        <ele>39.2</ele>
      </trkpt>
      <trkpt lat="49.1867" lon="-1.53184">
        <ele>39.6</ele>
      </trkpt>
      <trkpt lat="49.18668" lon="-1.53172">
        <ele>39.9</ele>
      </trkpt>
      <trkpt lat="49.18668" lon="-1.53162">
        <ele>40</ele>
      </trkpt>
      <trkpt lat="49.18672" lon="-1.53143">
        <ele>40</ele>
      </trkpt>
      <trkpt lat="49.18677" lon="-1.53128">
        <ele>39.9</ele>
      </trkpt>
      <trkpt lat="49.18807" lon="-1.53096">
        <ele>37.9</ele>
      </trkpt>
      <trkpt lat="49.18811" lon="-1.53095">
        <ele>37.8</ele>
      </trkpt>
      <trkpt lat="49.18859" lon="-1.53083">
        <ele>36.7</ele>
      </trkpt>
      <trkpt lat="49.18859" lon="-1.53083">
        <ele>36.7</ele>
      </trkpt>
      <trkpt lat="49.18891" lon="-1.53075">
        <ele>36.1</ele>
      </trkpt>
      <trkpt lat="49.18935" lon="-1.53093">
        <ele>35.4</ele>
      </trkpt>
      <trkpt lat="49.18945" lon="-1.53101">
        <ele>35.2</ele>
      </trkpt>
      <trkpt lat="49.18952" lon="-1.5311">
        <ele>35</ele>
      </trkpt>
      <trkpt lat="49.18955" lon="-1.53114">
        <ele>35</ele>
      </trkpt>
      <trkpt lat="49.18964" lon="-1.53118">
        <ele>34.7</ele>
      </trkpt>
      <trkpt lat="49.18979" lon="-1.53138">
        <ele>34.4</ele>
      </trkpt>
      <trkpt lat="49.18987" lon="-1.53153">
        <ele>34.3</ele>
      </trkpt>
      <trkpt lat="49.18986" lon="-1.53165">
        <ele>34.5</ele>
      </trkpt>
      <trkpt lat="49.18984" lon="-1.53178">
        <ele>34.6</ele>
      </trkpt>
      <trkpt lat="49.18983" lon="-1.53187">
        <ele>34.6</ele>
      </trkpt>
      <trkpt lat="49.1899" lon="-1.53196">
        <ele>34.4</ele>
      </trkpt>
      <trkpt lat="49.18998" lon="-1.53204">
        <ele>34.1</ele>
      </trkpt>
      <trkpt lat="49.19006" lon="-1.53208">
        <ele>33.8</ele>
      </trkpt>
      <trkpt lat="49.19008" lon="-1.53213">
        <ele>33.7</ele>
      </trkpt>
      <trkpt lat="49.19013" lon="-1.53227">
        <ele>33.5</ele>
      </trkpt>
      <trkpt lat="49.19019" lon="-1.53237">
        <ele>33.3</ele>
      </trkpt>
      <trkpt lat="49.19031" lon="-1.53255">
        <ele>32.8</ele>
      </trkpt>
      <trkpt lat="49.19044" lon="-1.53277">
        <ele>32.1</ele>
      </trkpt>
      <trkpt lat="49.19047" lon="-1.53285">
        <ele>31.9</ele>
      </trkpt>
      <trkpt lat="49.19048" lon="-1.53292">
        <ele>31.8</ele>
      </trkpt>
      <trkpt lat="49.19049" lon="-1.53302">
        <ele>31.6</ele>
      </trkpt>
      <trkpt lat="49.19052" lon="-1.5331">
        <ele>31.4</ele>
      </trkpt>
      <trkpt lat="49.19058" lon="-1.5332">
        <ele>31.1</ele>
      </trkpt>
      <trkpt lat="49.19075" lon="-1.5334">
        <ele>30.2</ele>
      </trkpt>
      <trkpt lat="49.19098" lon="-1.53365">
        <ele>29</ele>
      </trkpt>
      <trkpt lat="49.1911" lon="-1.53365">
        <ele>28.5</ele>
      </trkpt>
      <trkpt lat="49.19131" lon="-1.53364">
        <ele>27.7</ele>
      </trkpt>
      <trkpt lat="49.19154" lon="-1.53363">
        <ele>26.8</ele>
      </trkpt>
      <trkpt lat="49.19171" lon="-1.53363">
        <ele>26.3</ele>
      </trkpt>
      <trkpt lat="49.19176" lon="-1.53363">
        <ele>26.4</ele>
      </trkpt>
      <trkpt lat="49.1918" lon="-1.53364">
        <ele>26.4</ele>
      </trkpt>
      <trkpt lat="49.19188" lon="-1.53367">
        <ele>26.5</ele>
      </trkpt>
      <trkpt lat="49.19199" lon="-1.53371">
        <ele>26.5</ele>
      </trkpt>
      <trkpt lat="49.19203" lon="-1.53371">
        <ele>26.5</ele>
      </trkpt>
      <trkpt lat="49.19209" lon="-1.53371">
        <ele>26.6</ele>
      </trkpt>
      <trkpt lat="49.19215" lon="-1.53371">
        <ele>26.7</ele>
      </trkpt>
      <trkpt lat="49.19217" lon="-1.53371">
        <ele>26.7</ele>
      </trkpt>
      <trkpt lat="49.19225" lon="-1.53368">
        <ele>26.9</ele>
      </trkpt>
      <trkpt lat="49.19231" lon="-1.53364">
        <ele>27</ele>
      </trkpt>
      <trkpt lat="49.1924" lon="-1.5336">
        <ele>27.2</ele>
      </trkpt>
      <trkpt lat="49.19249" lon="-1.53354">
        <ele>27.5</ele>
      </trkpt>
      <trkpt lat="49.19259" lon="-1.53349">
        <ele>28</ele>
      </trkpt>
      <trkpt lat="49.19265" lon="-1.53347">
        <ele>28.3</ele>
      </trkpt>
      <trkpt lat="49.19278" lon="-1.53343">
        <ele>28.8</ele>
      </trkpt>
      <trkpt lat="49.19291" lon="-1.5334">
        <ele>29.4</ele>
      </trkpt>
      <trkpt lat="49.193" lon="-1.53336">
        <ele>29.8</ele>
      </trkpt>
      <trkpt lat="49.19313" lon="-1.53336">
        <ele>30.3</ele>
      </trkpt>
      <trkpt lat="49.19324" lon="-1.53336">
        <ele>30.7</ele>
      </trkpt>
      <trkpt lat="49.19334" lon="-1.53333">
        <ele>31</ele>
      </trkpt>
      <trkpt lat="49.19342" lon="-1.5333">
        <ele>31</ele>
      </trkpt>
      <trkpt lat="49.19351" lon="-1.53323">
        <ele>30.9</ele>
      </trkpt>
      <trkpt lat="49.19358" lon="-1.53319">
        <ele>30.9</ele>
      </trkpt>
      <trkpt lat="49.1938" lon="-1.53314">
        <ele>31</ele>
      </trkpt>
      <trkpt lat="49.19382" lon="-1.5331">
        <ele>30.9</ele>
      </trkpt>
      <trkpt lat="49.19384" lon="-1.53305">
        <ele>30.7</ele>
      </trkpt>
      <trkpt lat="49.19386" lon="-1.53297">
        <ele>30.5</ele>
      </trkpt>
      <trkpt lat="49.19387" lon="-1.53284">
        <ele>30.1</ele>
      </trkpt>
      <trkpt lat="49.19389" lon="-1.53274">
        <ele>29.8</ele>
      </trkpt>
      <trkpt lat="49.19393" lon="-1.53264">
        <ele>29.5</ele>
      </trkpt>
      <trkpt lat="49.194" lon="-1.53255">
        <ele>29.2</ele>
      </trkpt>
      <trkpt lat="49.19405" lon="-1.53247">
        <ele>29</ele>
      </trkpt>
      <trkpt lat="49.1941" lon="-1.53237">
        <ele>28.9</ele>
      </trkpt>
      <trkpt lat="49.19414" lon="-1.53225">
        <ele>28.7</ele>
      </trkpt>
      <trkpt lat="49.1942" lon="-1.53216">
        <ele>28.7</ele>
      </trkpt>
      <trkpt lat="49.19424" lon="-1.53209">
        <ele>28.8</ele>
      </trkpt>
      <trkpt lat="49.19411" lon="-1.53178">
        <ele>28.2</ele>
      </trkpt>
      <trkpt lat="49.19405" lon="-1.53166">
        <ele>28.1</ele>
      </trkpt>
      <trkpt lat="49.19397" lon="-1.53148">
        <ele>28.5</ele>
      </trkpt>
      <trkpt lat="49.19386" lon="-1.53128">
        <ele>28.8</ele>
      </trkpt>
      <trkpt lat="49.19375" lon="-1.53111">
        <ele>29.2</ele>
      </trkpt>
      <trkpt lat="49.19361" lon="-1.5309">
        <ele>29.6</ele>
      </trkpt>
      <trkpt lat="49.19351" lon="-1.53077">
        <ele>29.9</ele>
      </trkpt>
      <trkpt lat="49.19344" lon="-1.53068">
        <ele>30.1</ele>
      </trkpt>
      <trkpt lat="49.19324" lon="-1.53045">
        <ele>30.2</ele>
      </trkpt>
      <trkpt lat="49.19305" lon="-1.53022">
        <ele>29.9</ele>
      </trkpt>
      <trkpt lat="49.19292" lon="-1.53008">
        <ele>29.5</ele>
      </trkpt>
      <trkpt lat="49.19232" lon="-1.52939">
        <ele>27.8</ele>
      </trkpt>
      <trkpt lat="49.19219" lon="-1.52923">
        <ele>27.6</ele>
      </trkpt>
      <trkpt lat="49.19212" lon="-1.5291">
        <ele>27.6</ele>
      </trkpt>
      <trkpt lat="49.19207" lon="-1.529">
        <ele>27.6</ele>
      </trkpt>
      <trkpt lat="49.19203" lon="-1.52891">
        <ele>27.6</ele>
      </trkpt>
      <trkpt lat="49.192" lon="-1.52886">
        <ele>27.6</ele>
      </trkpt>
      <trkpt lat="49.19195" lon="-1.52871">
        <ele>27.7</ele>
      </trkpt>
      <trkpt lat="49.19191" lon="-1.52858">
        <ele>27.8</ele>
      </trkpt>
      <trkpt lat="49.19184" lon="-1.5283">
        <ele>28</ele>
      </trkpt>
      <trkpt lat="49.19177" lon="-1.52796">
        <ele>28</ele>
      </trkpt>
      <trkpt lat="49.19162" lon="-1.5272">
        <ele>28.1</ele>
      </trkpt>
      <trkpt lat="49.19151" lon="-1.52672">
        <ele>28.4</ele>
      </trkpt>
      <trkpt lat="49.19146" lon="-1.52649">
        <ele>28.6</ele>
      </trkpt>
      <trkpt lat="49.1914" lon="-1.52629">
        <ele>28.8</ele>
      </trkpt>
      <trkpt lat="49.19135" lon="-1.52614">
        <ele>28.9</ele>
      </trkpt>
      <trkpt lat="49.19129" lon="-1.526">
        <ele>29</ele>
      </trkpt>
      <trkpt lat="49.19121" lon="-1.52583">
        <ele>29</ele>
      </trkpt>
      <trkpt lat="49.19108" lon="-1.52555">
        <ele>29</ele>
      </trkpt>
      <trkpt lat="49.19093" lon="-1.52516">
        <ele>29</ele>
      </trkpt>
      <trkpt lat="49.19083" lon="-1.52488">
        <ele>29.1</ele>
      </trkpt>
      <trkpt lat="49.19067" lon="-1.52441">
        <ele>30.2</ele>
      </trkpt>
      <trkpt lat="49.19059" lon="-1.52416">
        <ele>30.9</ele>
      </trkpt>
      <trkpt lat="49.19029" lon="-1.52326">
        <ele>31.3</ele>
      </trkpt>
      <trkpt lat="49.19028" lon="-1.52317">
        <ele>31.3</ele>
      </trkpt>
      <trkpt lat="49.19028" lon="-1.5231">
        <ele>31.3</ele>
      </trkpt>
      <trkpt lat="49.19021" lon="-1.52308">
        <ele>31.5</ele>
      </trkpt>
      <trkpt lat="49.19019" lon="-1.52298">
        <ele>31.5</ele>
      </trkpt>
      <trkpt lat="49.19002" lon="-1.52248">
        <ele>31.9</ele>
      </trkpt>
      <trkpt lat="49.18992" lon="-1.52216">
        <ele>31.9</ele>
      </trkpt>
      <trkpt lat="49.1899" lon="-1.52204">
        <ele>31.8</ele>
      </trkpt>
      <trkpt lat="49.18989" lon="-1.52198">
        <ele>31.7</ele>
      </trkpt>
      <trkpt lat="49.18987" lon="-1.52187">
        <ele>31.6</ele>
      </trkpt>
      <trkpt lat="49.18984" lon="-1.52172">
        <ele>31.5</ele>
      </trkpt>
      <trkpt lat="49.18982" lon="-1.5216">
        <ele>31.2</ele>
      </trkpt>
      <trkpt lat="49.18984" lon="-1.52124">
        <ele>30.3</ele>
      </trkpt>
      <trkpt lat="49.18984" lon="-1.52109">
        <ele>29.9</ele>
      </trkpt>
      <trkpt lat="49.18985" lon="-1.52061">
        <ele>29.1</ele>
      </trkpt>
      <trkpt lat="49.18985" lon="-1.52055">
        <ele>29.1</ele>
      </trkpt>
      <trkpt lat="49.18987" lon="-1.52014">
        <ele>28.9</ele>
      </trkpt>
      <trkpt lat="49.1899" lon="-1.5199">
        <ele>28.9</ele>
      </trkpt>
      <trkpt lat="49.18993" lon="-1.51975">
        <ele>28.9</ele>
      </trkpt>
      <trkpt lat="49.18997" lon="-1.51959">
        <ele>29</ele>
      </trkpt>
      <trkpt lat="49.19002" lon="-1.51946">
        <ele>29</ele>
      </trkpt>
      <trkpt lat="49.19007" lon="-1.51938">
        <ele>28.9</ele>
      </trkpt>
      <trkpt lat="49.18999" lon="-1.51927">
        <ele>29</ele>
      </trkpt>
      <trkpt lat="49.18995" lon="-1.51919">
        <ele>28.9</ele>
      </trkpt>
      <trkpt lat="49.18992" lon="-1.51908">
        <ele>28.9</ele>
      </trkpt>
      <trkpt lat="49.18988" lon="-1.5187">
        <ele>28.9</ele>
      </trkpt>
      <trkpt lat="49.18983" lon="-1.51803">
        <ele>28.6</ele>
      </trkpt>
      <trkpt lat="49.18982" lon="-1.51777">
        <ele>28.3</ele>
      </trkpt>
      <trkpt lat="49.18982" lon="-1.51773">
        <ele>28.3</ele>
      </trkpt>
      <trkpt lat="49.18982" lon="-1.51738">
        <ele>27.9</ele>
      </trkpt>
      <trkpt lat="49.18983" lon="-1.51713">
        <ele>27.6</ele>
      </trkpt>
      <trkpt lat="49.18983" lon="-1.51702">
        <ele>27.5</ele>
      </trkpt>
      <trkpt lat="49.18985" lon="-1.51692">
        <ele>27.4</ele>
      </trkpt>
      <trkpt lat="49.18989" lon="-1.51684">
        <ele>27.3</ele>
      </trkpt>
      <trkpt lat="49.18992" lon="-1.51674">
        <ele>27.2</ele>
      </trkpt>
      <trkpt lat="49.18995" lon="-1.51656">
        <ele>26.7</ele>
      </trkpt>
      <trkpt lat="49.18998" lon="-1.51626">
        <ele>25.6</ele>
      </trkpt>
      <trkpt lat="49.19001" lon="-1.51588">
        <ele>24.2</ele>
      </trkpt>
      <trkpt lat="49.19001" lon="-1.51576">
        <ele>23.8</ele>
      </trkpt>
      <trkpt lat="49.19" lon="-1.51553">
        <ele>23.3</ele>
      </trkpt>
      <trkpt lat="49.18999" lon="-1.51538">
        <ele>22.9</ele>
      </trkpt>
      <trkpt lat="49.18998" lon="-1.51533">
        <ele>22.8</ele>
      </trkpt>
      <trkpt lat="49.18996" lon="-1.51524">
        <ele>22.6</ele>
      </trkpt>
      <trkpt lat="49.18991" lon="-1.51504">
        <ele>22.2</ele>
      </trkpt>
      <trkpt lat="49.18989" lon="-1.51498">
        <ele>22.1</ele>
      </trkpt>
      <trkpt lat="49.18985" lon="-1.51484">
        <ele>21.8</ele>
      </trkpt>
      <trkpt lat="49.18979" lon="-1.51464">
        <ele>21.5</ele>
      </trkpt>
      <trkpt lat="49.18963" lon="-1.51417">
        <ele>20.9</ele>
      </trkpt>
      <trkpt lat="49.18943" lon="-1.51353">
        <ele>19.8</ele>
      </trkpt>
      <trkpt lat="49.1893" lon="-1.51304">
        <ele>19.5</ele>
      </trkpt>
      <trkpt lat="49.18925" lon="-1.51261">
        <ele>19.9</ele>
      </trkpt>
      <trkpt lat="49.18921" lon="-1.51222">
        <ele>20.3</ele>
      </trkpt>
      <trkpt lat="49.18916" lon="-1.51158">
        <ele>21.1</ele>
      </trkpt>
      <trkpt lat="49.18912" lon="-1.51122">
        <ele>21.6</ele>
      </trkpt>
      <trkpt lat="49.18912" lon="-1.51109">
        <ele>21.7</ele>
      </trkpt>
      <trkpt lat="49.18919" lon="-1.51114">
        <ele>21.6</ele>
      </trkpt>
      <trkpt lat="49.18928" lon="-1.51116">
        <ele>21.5</ele>
      </trkpt>
      <trkpt lat="49.18951" lon="-1.51116">
        <ele>21.3</ele>
      </trkpt>
      <trkpt lat="49.18964" lon="-1.51116">
        <ele>21.2</ele>
      </trkpt>
      <trkpt lat="49.18977" lon="-1.51116">
        <ele>21</ele>
      </trkpt>
      <trkpt lat="49.19003" lon="-1.51117">
        <ele>20.8</ele>
      </trkpt>
      <trkpt lat="49.1901" lon="-1.51117">
        <ele>20.7</ele>
      </trkpt>
      <trkpt lat="49.19023" lon="-1.51119">
        <ele>20.5</ele>
      </trkpt>
      <trkpt lat="49.1904" lon="-1.51122">
        <ele>20.3</ele>
      </trkpt>
      <trkpt lat="49.19057" lon="-1.51126">
        <ele>20.2</ele>
      </trkpt>
      <trkpt lat="49.19069" lon="-1.5113">
        <ele>20.1</ele>
      </trkpt>
      <trkpt lat="49.19079" lon="-1.51134">
        <ele>20</ele>
      </trkpt>
      <trkpt lat="49.19086" lon="-1.51136">
        <ele>19.9</ele>
      </trkpt>
      <trkpt lat="49.19096" lon="-1.51137">
        <ele>19.7</ele>
      </trkpt>
      <trkpt lat="49.19101" lon="-1.51138">
        <ele>19.6</ele>
      </trkpt>
      <trkpt lat="49.19104" lon="-1.51138">
        <ele>19.5</ele>
      </trkpt>
      <trkpt lat="49.19117" lon="-1.5114">
        <ele>19.2</ele>
      </trkpt>
      <trkpt lat="49.19135" lon="-1.51146">
        <ele>18.8</ele>
      </trkpt>
      <trkpt lat="49.19147" lon="-1.51149">
        <ele>18.5</ele>
      </trkpt>
      <trkpt lat="49.19166" lon="-1.51152">
        <ele>18</ele>
      </trkpt>
      <trkpt lat="49.19175" lon="-1.51152">
        <ele>17.9</ele>
      </trkpt>
      <trkpt lat="49.19179" lon="-1.51152">
        <ele>17.9</ele>
      </trkpt>
      <trkpt lat="49.19182" lon="-1.51149">
        <ele>17.8</ele>
      </trkpt>
      <trkpt lat="49.19184" lon="-1.51144">
        <ele>17.8</ele>
      </trkpt>
      <trkpt lat="49.19191" lon="-1.51124">
        <ele>17.7</ele>
      </trkpt>
      <trkpt lat="49.19196" lon="-1.51108">
        <ele>17.6</ele>
      </trkpt>
      <trkpt lat="49.192" lon="-1.511">
        <ele>17.6</ele>
      </trkpt>
      <trkpt lat="49.19209" lon="-1.51089">
        <ele>17.5</ele>
      </trkpt>
      <trkpt lat="49.19219" lon="-1.51074">
        <ele>17.4</ele>
      </trkpt>
      <trkpt lat="49.19222" lon="-1.5107">
        <ele>17.4</ele>
      </trkpt>
      <trkpt lat="49.19224" lon="-1.51068">
        <ele>17.4</ele>
      </trkpt>
      <trkpt lat="49.19226" lon="-1.51065">
        <ele>17.4</ele>
      </trkpt>
      <trkpt lat="49.19229" lon="-1.51059">
        <ele>17.5</ele>
      </trkpt>
      <trkpt lat="49.19233" lon="-1.51048">
        <ele>17.5</ele>
      </trkpt>
      <trkpt lat="49.1924" lon="-1.51024">
        <ele>17.7</ele>
      </trkpt>
      <trkpt lat="49.19247" lon="-1.51007">
        <ele>17.9</ele>
      </trkpt>
      <trkpt lat="49.19256" lon="-1.50989">
        <ele>18.2</ele>
      </trkpt>
      <trkpt lat="49.19262" lon="-1.50994">
        <ele>18.4</ele>
      </trkpt>
      <trkpt lat="49.19311" lon="-1.51024">
        <ele>19.9</ele>
      </trkpt>
      <trkpt lat="49.19323" lon="-1.51033">
        <ele>20.2</ele>
      </trkpt>
      <trkpt lat="49.1933" lon="-1.5104">
        <ele>20.4</ele>
      </trkpt>
      <trkpt lat="49.19337" lon="-1.51048">
        <ele>20.5</ele>
      </trkpt>
      <trkpt lat="49.19357" lon="-1.51006">
        <ele>21.4</ele>
      </trkpt>
      <trkpt lat="49.19361" lon="-1.50996">
        <ele>21.6</ele>
      </trkpt>
      <trkpt lat="49.19364" lon="-1.50987">
        <ele>21.6</ele>
      </trkpt>
      <trkpt lat="49.19368" lon="-1.50986">
        <ele>21.7</ele>
      </trkpt>
      <trkpt lat="49.19371" lon="-1.50983">
        <ele>21.7</ele>
      </trkpt>
      <trkpt lat="49.19378" lon="-1.50974">
        <ele>21.7</ele>
      </trkpt>
      <trkpt lat="49.19385" lon="-1.50963">
        <ele>21.8</ele>
      </trkpt>
      <trkpt lat="49.19391" lon="-1.50954">
        <ele>21.8</ele>
      </trkpt>
      <trkpt lat="49.19397" lon="-1.50949">
        <ele>21.9</ele>
      </trkpt>
      <trkpt lat="49.19403" lon="-1.50945">
        <ele>22</ele>
      </trkpt>
      <trkpt lat="49.19417" lon="-1.50939">
        <ele>22.3</ele>
      </trkpt>
      <trkpt lat="49.19442" lon="-1.50931">
        <ele>22.7</ele>
      </trkpt>
      <trkpt lat="49.19488" lon="-1.50916">
        <ele>23.7</ele>
      </trkpt>
      <trkpt lat="49.19516" lon="-1.50906">
        <ele>24.4</ele>
      </trkpt>
      <trkpt lat="49.19581" lon="-1.50884">
        <ele>25.6</ele>
      </trkpt>
      <trkpt lat="49.19587" lon="-1.50882">
        <ele>25.6</ele>
      </trkpt>
      <trkpt lat="49.19593" lon="-1.50882">
        <ele>25.6</ele>
      </trkpt>
      <trkpt lat="49.196" lon="-1.50884">
        <ele>25.7</ele>
      </trkpt>
      <trkpt lat="49.19605" lon="-1.50886">
        <ele>25.7</ele>
      </trkpt>
      <trkpt lat="49.19609" lon="-1.5089">
        <ele>25.8</ele>
      </trkpt>
      <trkpt lat="49.19615" lon="-1.509">
        <ele>25.9</ele>
      </trkpt>
      <trkpt lat="49.19628" lon="-1.50932">
        <ele>25.9</ele>
      </trkpt>
      <trkpt lat="49.19644" lon="-1.50972">
        <ele>25.5</ele>
      </trkpt>
      <trkpt lat="49.19647" lon="-1.50976">
        <ele>25.5</ele>
      </trkpt>
      <trkpt lat="49.1965" lon="-1.50978">
        <ele>25.4</ele>
      </trkpt>
      <trkpt lat="49.19653" lon="-1.50978">
        <ele>25.4</ele>
      </trkpt>
      <trkpt lat="49.19656" lon="-1.50977">
        <ele>25.4</ele>
      </trkpt>
      <trkpt lat="49.19661" lon="-1.50974">
        <ele>25.4</ele>
      </trkpt>
      <trkpt lat="49.19685" lon="-1.50948">
        <ele>25.5</ele>
      </trkpt>
      <trkpt lat="49.1969" lon="-1.50945">
        <ele>25.5</ele>
      </trkpt>
      <trkpt lat="49.19696" lon="-1.50943">
        <ele>25.4</ele>
      </trkpt>
      <trkpt lat="49.19702" lon="-1.50942">
        <ele>25.4</ele>
      </trkpt>
      <trkpt lat="49.19711" lon="-1.50928">
        <ele>25.4</ele>
      </trkpt>
      <trkpt lat="49.19717" lon="-1.50919">
        <ele>25.4</ele>
      </trkpt>
      <trkpt lat="49.19734" lon="-1.50901">
        <ele>25.4</ele>
      </trkpt>
      <trkpt lat="49.19761" lon="-1.50868">
        <ele>25.6</ele>
      </trkpt>
      <trkpt lat="49.19771" lon="-1.50853">
        <ele>25.8</ele>
      </trkpt>
      <trkpt lat="49.19773" lon="-1.50849">
        <ele>25.8</ele>
      </trkpt>
      <trkpt lat="49.19776" lon="-1.50845">
        <ele>25.9</ele>
      </trkpt>
      <trkpt lat="49.19779" lon="-1.50836">
        <ele>26</ele>
      </trkpt>
      <trkpt lat="49.19783" lon="-1.50826">
        <ele>26.1</ele>
      </trkpt>
      <trkpt lat="49.19786" lon="-1.50818">
        <ele>26.1</ele>
      </trkpt>
      <trkpt lat="49.1979" lon="-1.50815">
        <ele>26.1</ele>
      </trkpt>
      <trkpt lat="49.19793" lon="-1.50813">
        <ele>26.1</ele>
      </trkpt>
      <trkpt lat="49.19798" lon="-1.50813">
        <ele>26.1</ele>
      </trkpt>
      <trkpt lat="49.19803" lon="-1.50814">
        <ele>26.1</ele>
      </trkpt>
      <trkpt lat="49.19808" lon="-1.50817">
        <ele>26.1</ele>
      </trkpt>
      <trkpt lat="49.19824" lon="-1.50825">
        <ele>26</ele>
      </trkpt>
      <trkpt lat="49.19854" lon="-1.50842">
        <ele>26.1</ele>
      </trkpt>
      <trkpt lat="49.19867" lon="-1.5085">
        <ele>26.2</ele>
      </trkpt>
      <trkpt lat="49.199" lon="-1.50868">
        <ele>26.4</ele>
      </trkpt>
      <trkpt lat="49.19953" lon="-1.50894">
        <ele>26.5</ele>
      </trkpt>
      <trkpt lat="49.19975" lon="-1.50905">
        <ele>26.6</ele>
      </trkpt>
      <trkpt lat="49.19982" lon="-1.50909">
        <ele>26.7</ele>
      </trkpt>
      <trkpt lat="49.19993" lon="-1.50914">
        <ele>26.9</ele>
      </trkpt>
      <trkpt lat="49.19999" lon="-1.50918">
        <ele>27</ele>
      </trkpt>
      <trkpt lat="49.20003" lon="-1.50923">
        <ele>27</ele>
      </trkpt>
      <trkpt lat="49.20006" lon="-1.5093">
        <ele>26.9</ele>
      </trkpt>
      <trkpt lat="49.20009" lon="-1.50939">
        <ele>26.9</ele>
      </trkpt>
      <trkpt lat="49.20013" lon="-1.50974">
        <ele>27</ele>
      </trkpt>
      <trkpt lat="49.20014" lon="-1.50987">
        <ele>27</ele>
      </trkpt>
      <trkpt lat="49.20017" lon="-1.51006">
        <ele>26.9</ele>
      </trkpt>
      <trkpt lat="49.20018" lon="-1.51016">
        <ele>26.7</ele>
      </trkpt>
      <trkpt lat="49.20022" lon="-1.51043">
        <ele>26.1</ele>
      </trkpt>
      <trkpt lat="49.20025" lon="-1.51057">
        <ele>25.8</ele>
      </trkpt>
      <trkpt lat="49.20029" lon="-1.51065">
        <ele>25.7</ele>
      </trkpt>
      <trkpt lat="49.20038" lon="-1.51085">
        <ele>25.4</ele>
      </trkpt>
      <trkpt lat="49.20044" lon="-1.51102">
        <ele>25.2</ele>
      </trkpt>
      <trkpt lat="49.20048" lon="-1.51119">
        <ele>24.9</ele>
      </trkpt>
      <trkpt lat="49.20052" lon="-1.51137">
        <ele>24.6</ele>
      </trkpt>
      <trkpt lat="49.20055" lon="-1.51154">
        <ele>24.3</ele>
      </trkpt>
      <trkpt lat="49.20058" lon="-1.51176">
        <ele>24</ele>
      </trkpt>
      <trkpt lat="49.20062" lon="-1.51189">
        <ele>24.1</ele>
      </trkpt>
      <trkpt lat="49.20067" lon="-1.51204">
        <ele>24.1</ele>
      </trkpt>
      <trkpt lat="49.20081" lon="-1.51234">
        <ele>24</ele>
      </trkpt>
      <trkpt lat="49.20093" lon="-1.51264">
        <ele>24.3</ele>
      </trkpt>
      <trkpt lat="49.20096" lon="-1.51274">
        <ele>24.4</ele>
      </trkpt>
      <trkpt lat="49.20098" lon="-1.51284">
        <ele>24.5</ele>
      </trkpt>
      <trkpt lat="49.20099" lon="-1.51294">
        <ele>24.6</ele>
      </trkpt>
      <trkpt lat="49.20101" lon="-1.51311">
        <ele>24.8</ele>
      </trkpt>
      <trkpt lat="49.20103" lon="-1.51329">
        <ele>25</ele>
      </trkpt>
      <trkpt lat="49.20106" lon="-1.51346">
        <ele>24.8</ele>
      </trkpt>
      <trkpt lat="49.20111" lon="-1.51364">
        <ele>24.6</ele>
      </trkpt>
      <trkpt lat="49.20114" lon="-1.51373">
        <ele>24.6</ele>
      </trkpt>
      <trkpt lat="49.20119" lon="-1.51382">
        <ele>24.6</ele>
      </trkpt>
      <trkpt lat="49.20125" lon="-1.5139">
        <ele>24.7</ele>
      </trkpt>
      <trkpt lat="49.20133" lon="-1.514">
        <ele>24.8</ele>
      </trkpt>
      <trkpt lat="49.20142" lon="-1.51408">
        <ele>25.1</ele>
      </trkpt>
      <trkpt lat="49.20152" lon="-1.51416">
        <ele>25.5</ele>
      </trkpt>
      <trkpt lat="49.2016" lon="-1.51419">
        <ele>25.7</ele>
      </trkpt>
      <trkpt lat="49.20165" lon="-1.51421">
        <ele>25.9</ele>
      </trkpt>
      <trkpt lat="49.20173" lon="-1.51425">
        <ele>25.8</ele>
      </trkpt>
      <trkpt lat="49.20179" lon="-1.51428">
        <ele>25.6</ele>
      </trkpt>
      <trkpt lat="49.20185" lon="-1.51433">
        <ele>25.4</ele>
      </trkpt>
      <trkpt lat="49.20189" lon="-1.5144">
        <ele>25.2</ele>
      </trkpt>
      <trkpt lat="49.20193" lon="-1.51447">
        <ele>25.1</ele>
      </trkpt>
      <trkpt lat="49.20198" lon="-1.51455">
        <ele>25</ele>
      </trkpt>
      <trkpt lat="49.20202" lon="-1.51461">
        <ele>24.8</ele>
      </trkpt>
      <trkpt lat="49.20206" lon="-1.51465">
        <ele>24.7</ele>
      </trkpt>
      <trkpt lat="49.20214" lon="-1.51469">
        <ele>24.6</ele>
      </trkpt>
      <trkpt lat="49.20222" lon="-1.51473">
        <ele>24.4</ele>
      </trkpt>
      <trkpt lat="49.20229" lon="-1.51478">
        <ele>24.3</ele>
      </trkpt>
      <trkpt lat="49.20232" lon="-1.51483">
        <ele>24.3</ele>
      </trkpt>
      <trkpt lat="49.20234" lon="-1.51489">
        <ele>24.2</ele>
      </trkpt>
      <trkpt lat="49.20236" lon="-1.51496">
        <ele>24.2</ele>
      </trkpt>
      <trkpt lat="49.20238" lon="-1.5152">
        <ele>23.9</ele>
      </trkpt>
      <trkpt lat="49.2024" lon="-1.51546">
        <ele>23.6</ele>
      </trkpt>
      <trkpt lat="49.20242" lon="-1.51561">
        <ele>23.4</ele>
      </trkpt>
      <trkpt lat="49.20244" lon="-1.51574">
        <ele>23.2</ele>
      </trkpt>
      <trkpt lat="49.20245" lon="-1.51577">
        <ele>23.1</ele>
      </trkpt>
      <trkpt lat="49.20247" lon="-1.51586">
        <ele>23</ele>
      </trkpt>
      <trkpt lat="49.2025" lon="-1.51597">
        <ele>22.8</ele>
      </trkpt>
      <trkpt lat="49.20255" lon="-1.51608">
        <ele>22.6</ele>
      </trkpt>
      <trkpt lat="49.20259" lon="-1.51613">
        <ele>22.5</ele>
      </trkpt>
      <trkpt lat="49.20265" lon="-1.51617">
        <ele>22.3</ele>
      </trkpt>
      <trkpt lat="49.20273" lon="-1.5162">
        <ele>22.1</ele>
      </trkpt>
      <trkpt lat="49.20297" lon="-1.51625">
        <ele>21.7</ele>
      </trkpt>
      <trkpt lat="49.20311" lon="-1.51626">
        <ele>21.4</ele>
      </trkpt>
      <trkpt lat="49.20317" lon="-1.51629">
        <ele>21.3</ele>
      </trkpt>
      <trkpt lat="49.2033" lon="-1.51638">
        <ele>21.1</ele>
      </trkpt>
      <trkpt lat="49.20355" lon="-1.51656">
        <ele>21</ele>
      </trkpt>
      <trkpt lat="49.20362" lon="-1.5166">
        <ele>21</ele>
      </trkpt>
      <trkpt lat="49.20367" lon="-1.51662">
        <ele>21</ele>
      </trkpt>
      <trkpt lat="49.20373" lon="-1.51661">
        <ele>21</ele>
      </trkpt>
      <trkpt lat="49.2038" lon="-1.51657">
        <ele>21</ele>
      </trkpt>
      <trkpt lat="49.20388" lon="-1.51654">
        <ele>21</ele>
      </trkpt>
      <trkpt lat="49.20394" lon="-1.51653">
        <ele>21</ele>
      </trkpt>
      <trkpt lat="49.20412" lon="-1.51653">
        <ele>21</ele>
      </trkpt>
      <trkpt lat="49.20428" lon="-1.51654">
        <ele>20.8</ele>
      </trkpt>
      <trkpt lat="49.20437" lon="-1.51656">
        <ele>20.7</ele>
      </trkpt>
      <trkpt lat="49.20445" lon="-1.51661">
        <ele>20.6</ele>
      </trkpt>
      <trkpt lat="49.20448" lon="-1.51666">
        <ele>20.6</ele>
      </trkpt>
      <trkpt lat="49.20458" lon="-1.51683">
        <ele>20.7</ele>
      </trkpt>
      <trkpt lat="49.20468" lon="-1.51702">
        <ele>20.8</ele>
      </trkpt>
      <trkpt lat="49.2048" lon="-1.51723">
        <ele>20.9</ele>
      </trkpt>
      <trkpt lat="49.20489" lon="-1.51735">
        <ele>21</ele>
      </trkpt>
      <trkpt lat="49.20494" lon="-1.51745">
        <ele>21</ele>
      </trkpt>
      <trkpt lat="49.20497" lon="-1.51756">
        <ele>21</ele>
      </trkpt>
      <trkpt lat="49.20502" lon="-1.51756">
        <ele>20.9</ele>
      </trkpt>
      <trkpt lat="49.2051" lon="-1.51752">
        <ele>20.7</ele>
      </trkpt>
      <trkpt lat="49.20519" lon="-1.51745">
        <ele>20.5</ele>
      </trkpt>
      <trkpt lat="49.20556" lon="-1.51703">
        <ele>19.1</ele>
      </trkpt>
      <trkpt lat="49.20564" lon="-1.51696">
        <ele>18.8</ele>
      </trkpt>
      <trkpt lat="49.2057" lon="-1.51693">
        <ele>18.6</ele>
      </trkpt>
      <trkpt lat="49.20576" lon="-1.51691">
        <ele>18.5</ele>
      </trkpt>
      <trkpt lat="49.20584" lon="-1.51691">
        <ele>18.3</ele>
      </trkpt>
      <trkpt lat="49.20594" lon="-1.51692">
        <ele>18.3</ele>
      </trkpt>
      <trkpt lat="49.20602" lon="-1.51692">
        <ele>18.4</ele>
      </trkpt>
      <trkpt lat="49.20612" lon="-1.51691">
        <ele>18.4</ele>
      </trkpt>
      <trkpt lat="49.20615" lon="-1.5169">
        <ele>18.4</ele>
      </trkpt>
      <trkpt lat="49.20618" lon="-1.5169">
        <ele>18.4</ele>
      </trkpt>
      <trkpt lat="49.20627" lon="-1.51688">
        <ele>18.4</ele>
      </trkpt>
      <trkpt lat="49.20635" lon="-1.51687">
        <ele>18.4</ele>
      </trkpt>
      <trkpt lat="49.20647" lon="-1.51687">
        <ele>18.4</ele>
      </trkpt>
      <trkpt lat="49.20654" lon="-1.51687">
        <ele>18.4</ele>
      </trkpt>
      <trkpt lat="49.20658" lon="-1.51686">
        <ele>18.4</ele>
      </trkpt>
      <trkpt lat="49.20671" lon="-1.51684">
        <ele>18.6</ele>
      </trkpt>
      <trkpt lat="49.20685" lon="-1.51682">
        <ele>18.9</ele>
      </trkpt>
      <trkpt lat="49.20705" lon="-1.51679">
        <ele>19.5</ele>
      </trkpt>
      <trkpt lat="49.20722" lon="-1.51676">
        <ele>20.1</ele>
      </trkpt>
      <trkpt lat="49.2074" lon="-1.51676">
        <ele>20.7</ele>
      </trkpt>
      <trkpt lat="49.20747" lon="-1.51675">
        <ele>20.9</ele>
      </trkpt>
      <trkpt lat="49.20766" lon="-1.51678">
        <ele>21.2</ele>
      </trkpt>
      <trkpt lat="49.20781" lon="-1.51681">
        <ele>21.3</ele>
      </trkpt>
      <trkpt lat="49.2079" lon="-1.51683">
        <ele>21.4</ele>
      </trkpt>
      <trkpt lat="49.208" lon="-1.51688">
        <ele>21.4</ele>
      </trkpt>
      <trkpt lat="49.20807" lon="-1.5169">
        <ele>21.5</ele>
      </trkpt>
      <trkpt lat="49.20812" lon="-1.5169">
        <ele>21.5</ele>
      </trkpt>
      <trkpt lat="49.20824" lon="-1.51693">
        <ele>21.6</ele>
      </trkpt>
      <trkpt lat="49.20825" lon="-1.51689">
        <ele>21.7</ele>
      </trkpt>
      <trkpt lat="49.20827" lon="-1.51686">
        <ele>21.7</ele>
      </trkpt>
      <trkpt lat="49.20831" lon="-1.51683">
        <ele>21.8</ele>
      </trkpt>
      <trkpt lat="49.20833" lon="-1.51682">
        <ele>21.8</ele>
      </trkpt>
      <trkpt lat="49.20837" lon="-1.5168">
        <ele>21.6</ele>
      </trkpt>
      <trkpt lat="49.2084" lon="-1.51679">
        <ele>21.4</ele>
      </trkpt>
      <trkpt lat="49.20842" lon="-1.51679">
        <ele>21.3</ele>
      </trkpt>
      <trkpt lat="49.20856" lon="-1.51676">
        <ele>20.4</ele>
      </trkpt>
      <trkpt lat="49.20913" lon="-1.51668">
        <ele>16.3</ele>
      </trkpt>
      <trkpt lat="49.20939" lon="-1.51664">
        <ele>14.7</ele>
      </trkpt>
      <trkpt lat="49.20961" lon="-1.5166">
        <ele>13.5</ele>
      </trkpt>
      <trkpt lat="49.20975" lon="-1.51658">
        <ele>12.7</ele>
      </trkpt>
      <trkpt lat="49.21016" lon="-1.51651">
        <ele>11.7</ele>
      </trkpt>
      <trkpt lat="49.21077" lon="-1.51638">
        <ele>12.3</ele>
      </trkpt>
      <trkpt lat="49.21087" lon="-1.51634">
        <ele>12.4</ele>
      </trkpt>
      <trkpt lat="49.21098" lon="-1.51632">
        <ele>12.3</ele>
      </trkpt>
      <trkpt lat="49.2094" lon="-1.51123">
        <ele>16.9</ele>
      </trkpt>
      <trkpt lat="49.20859" lon="-1.50625">
        <ele>17.4</ele>
      </trkpt>
      <trkpt lat="49.20817" lon="-1.50004">
        <ele>23.7</ele>
      </trkpt>
      <trkpt lat="49.20759" lon="-1.4887">
        <ele>23.5</ele>
      </trkpt>
      <trkpt lat="49.2078" lon="-1.48905">
        <ele>23.7</ele>
      </trkpt>
      <trkpt lat="49.20853" lon="-1.48953">
        <ele>22.6</ele>
      </trkpt>
      <trkpt lat="49.20937" lon="-1.49193">
        <ele>23.8</ele>
      </trkpt>
      <trkpt lat="49.20931" lon="-1.49197">
        <ele>23.7</ele>
      </trkpt>
      <trkpt lat="49.20922" lon="-1.4916">
        <ele>22.9</ele>
      </trkpt>
      <trkpt lat="49.20926" lon="-1.49159">
        <ele>23</ele>
      </trkpt>
      <trkpt lat="49.20931" lon="-1.4916">
        <ele>23.1</ele>
      </trkpt>
      <trkpt lat="49.20939" lon="-1.49163">
        <ele>23.4</ele>
      </trkpt>
      <trkpt lat="49.20951" lon="-1.49169">
        <ele>23.8</ele>
      </trkpt>
      <trkpt lat="49.20958" lon="-1.49171">
        <ele>24</ele>
      </trkpt>
      <trkpt lat="49.20964" lon="-1.4917">
        <ele>24.2</ele>
      </trkpt>
      <trkpt lat="49.2097" lon="-1.49167">
        <ele>24.3</ele>
      </trkpt>
      <trkpt lat="49.20978" lon="-1.49164">
        <ele>24.3</ele>
      </trkpt>
      <trkpt lat="49.20984" lon="-1.49161">
        <ele>24.3</ele>
      </trkpt>
      <trkpt lat="49.21007" lon="-1.4915">
        <ele>24.3</ele>
      </trkpt>
      <trkpt lat="49.21029" lon="-1.49139">
        <ele>24.3</ele>
      </trkpt>
      <trkpt lat="49.21038" lon="-1.49136">
        <ele>24.3</ele>
      </trkpt>
      <trkpt lat="49.21042" lon="-1.49136">
        <ele>24.4</ele>
      </trkpt>
      <trkpt lat="49.21047" lon="-1.49135">
        <ele>24.5</ele>
      </trkpt>
      <trkpt lat="49.21056" lon="-1.49136">
        <ele>24.7</ele>
      </trkpt>
      <trkpt lat="49.21066" lon="-1.49137">
        <ele>24.9</ele>
      </trkpt>
      <trkpt lat="49.21075" lon="-1.49135">
        <ele>25.1</ele>
      </trkpt>
      <trkpt lat="49.21083" lon="-1.49133">
        <ele>25.2</ele>
      </trkpt>
      <trkpt lat="49.2109" lon="-1.49128">
        <ele>25</ele>
      </trkpt>
      <trkpt lat="49.21098" lon="-1.49121">
        <ele>24.8</ele>
      </trkpt>
      <trkpt lat="49.2111" lon="-1.49109">
        <ele>24.5</ele>
      </trkpt>
      <trkpt lat="49.21123" lon="-1.49093">
        <ele>24.2</ele>
      </trkpt>
      <trkpt lat="49.21128" lon="-1.49089">
        <ele>24.1</ele>
      </trkpt>
      <trkpt lat="49.21133" lon="-1.49086">
        <ele>24</ele>
      </trkpt>
      <trkpt lat="49.21141" lon="-1.49082">
        <ele>24</ele>
      </trkpt>
      <trkpt lat="49.21159" lon="-1.49075">
        <ele>24</ele>
      </trkpt>
      <trkpt lat="49.21179" lon="-1.49068">
        <ele>24.1</ele>
      </trkpt>
      <trkpt lat="49.21193" lon="-1.49062">
        <ele>24.3</ele>
      </trkpt>
      <trkpt lat="49.2123" lon="-1.49049">
        <ele>24.8</ele>
      </trkpt>
      <trkpt lat="49.21247" lon="-1.49041">
        <ele>25</ele>
      </trkpt>
      <trkpt lat="49.21262" lon="-1.49037">
        <ele>25.1</ele>
      </trkpt>
      <trkpt lat="49.21276" lon="-1.49035">
        <ele>25.3</ele>
      </trkpt>
      <trkpt lat="49.21291" lon="-1.4903">
        <ele>25.5</ele>
      </trkpt>
      <trkpt lat="49.21316" lon="-1.49018">
        <ele>25.8</ele>
      </trkpt>
      <trkpt lat="49.21342" lon="-1.49008">
        <ele>25.8</ele>
      </trkpt>
      <trkpt lat="49.21353" lon="-1.49003">
        <ele>25.6</ele>
      </trkpt>
      <trkpt lat="49.21362" lon="-1.48995">
        <ele>25.2</ele>
      </trkpt>
      <trkpt lat="49.21374" lon="-1.48983">
        <ele>24.6</ele>
      </trkpt>
      <trkpt lat="49.21377" lon="-1.48982">
        <ele>24.5</ele>
      </trkpt>
      <trkpt lat="49.21382" lon="-1.48978">
        <ele>24.3</ele>
      </trkpt>
      <trkpt lat="49.21389" lon="-1.48974">
        <ele>23.9</ele>
      </trkpt>
      <trkpt lat="49.21403" lon="-1.48968">
        <ele>23.3</ele>
      </trkpt>
      <trkpt lat="49.21406" lon="-1.48975">
        <ele>23.4</ele>
      </trkpt>
      <trkpt lat="49.21405" lon="-1.48985">
        <ele>23.8</ele>
      </trkpt>
      <trkpt lat="49.21405" lon="-1.48985">
        <ele>23.8</ele>
      </trkpt>
      <trkpt lat="49.21406" lon="-1.48995">
        <ele>24.1</ele>
      </trkpt>
      <trkpt lat="49.21406" lon="-1.49004">
        <ele>24.3</ele>
      </trkpt>
      <trkpt lat="49.21408" lon="-1.49012">
        <ele>24.5</ele>
      </trkpt>
      <trkpt lat="49.21412" lon="-1.49019">
        <ele>24.5</ele>
      </trkpt>
      <trkpt lat="49.21421" lon="-1.49029">
        <ele>24.5</ele>
      </trkpt>
      <trkpt lat="49.21434" lon="-1.49043">
        <ele>24.3</ele>
      </trkpt>
      <trkpt lat="49.21448" lon="-1.49053">
        <ele>24</ele>
      </trkpt>
      <trkpt lat="49.21457" lon="-1.49063">
        <ele>23.9</ele>
      </trkpt>
      <trkpt lat="49.21465" lon="-1.49076">
        <ele>24</ele>
      </trkpt>
      <trkpt lat="49.21474" lon="-1.49093">
        <ele>24</ele>
      </trkpt>
      <trkpt lat="49.21482" lon="-1.49109">
        <ele>23.7</ele>
      </trkpt>
      <trkpt lat="49.2149" lon="-1.49128">
        <ele>23.4</ele>
      </trkpt>
      <trkpt lat="49.21496" lon="-1.49152">
        <ele>23.2</ele>
      </trkpt>
      <trkpt lat="49.215" lon="-1.49177">
        <ele>22.5</ele>
      </trkpt>
      <trkpt lat="49.21501" lon="-1.49186">
        <ele>22</ele>
      </trkpt>
      <trkpt lat="49.21503" lon="-1.49199">
        <ele>21.1</ele>
      </trkpt>
      <trkpt lat="49.21508" lon="-1.49226">
        <ele>19.4</ele>
      </trkpt>
      <trkpt lat="49.21514" lon="-1.49262">
        <ele>18.1</ele>
      </trkpt>
      <trkpt lat="49.21517" lon="-1.49272">
        <ele>18.1</ele>
      </trkpt>
      <trkpt lat="49.21522" lon="-1.49298">
        <ele>18.2</ele>
      </trkpt>
      <trkpt lat="49.21526" lon="-1.4932">
        <ele>18.2</ele>
      </trkpt>
      <trkpt lat="49.2153" lon="-1.49338">
        <ele>18.1</ele>
      </trkpt>
      <trkpt lat="49.21532" lon="-1.49367">
        <ele>17.5</ele>
      </trkpt>
      <trkpt lat="49.21533" lon="-1.4938">
        <ele>17.2</ele>
      </trkpt>
      <trkpt lat="49.21534" lon="-1.4939">
        <ele>17.1</ele>
      </trkpt>
      <trkpt lat="49.21537" lon="-1.49409">
        <ele>16.6</ele>
      </trkpt>
      <trkpt lat="49.21539" lon="-1.49419">
        <ele>16.2</ele>
      </trkpt>
      <trkpt lat="49.21545" lon="-1.49434">
        <ele>15.6</ele>
      </trkpt>
      <trkpt lat="49.21551" lon="-1.4945">
        <ele>14.9</ele>
      </trkpt>
      <trkpt lat="49.21557" lon="-1.49467">
        <ele>14.3</ele>
      </trkpt>
      <trkpt lat="49.2156" lon="-1.49481">
        <ele>14</ele>
      </trkpt>
      <trkpt lat="49.21561" lon="-1.4949">
        <ele>13.9</ele>
      </trkpt>
      <trkpt lat="49.2156" lon="-1.49506">
        <ele>13.7</ele>
      </trkpt>
      <trkpt lat="49.21557" lon="-1.49517">
        <ele>13.5</ele>
      </trkpt>
      <trkpt lat="49.2155" lon="-1.49536">
        <ele>13.3</ele>
      </trkpt>
      <trkpt lat="49.21545" lon="-1.4955">
        <ele>13.1</ele>
      </trkpt>
      <trkpt lat="49.21543" lon="-1.49559">
        <ele>12.9</ele>
      </trkpt>
      <trkpt lat="49.21542" lon="-1.49569">
        <ele>12.5</ele>
      </trkpt>
      <trkpt lat="49.2154" lon="-1.49571">
        <ele>12.7</ele>
      </trkpt>
      <trkpt lat="49.21534" lon="-1.49575">
        <ele>13.1</ele>
      </trkpt>
      <trkpt lat="49.21526" lon="-1.49584">
        <ele>13.5</ele>
      </trkpt>
      <trkpt lat="49.21518" lon="-1.49594">
        <ele>13.7</ele>
      </trkpt>
      <trkpt lat="49.21512" lon="-1.49603">
        <ele>13.7</ele>
      </trkpt>
      <trkpt lat="49.21507" lon="-1.49609">
        <ele>13.9</ele>
      </trkpt>
      <trkpt lat="49.21501" lon="-1.49614">
        <ele>14.1</ele>
      </trkpt>
      <trkpt lat="49.21489" lon="-1.49621">
        <ele>14.1</ele>
      </trkpt>
      <trkpt lat="49.21474" lon="-1.49632">
        <ele>13.9</ele>
      </trkpt>
      <trkpt lat="49.21461" lon="-1.49643">
        <ele>13.7</ele>
      </trkpt>
      <trkpt lat="49.21458" lon="-1.49648">
        <ele>13.5</ele>
      </trkpt>
      <trkpt lat="49.21457" lon="-1.49652">
        <ele>13.4</ele>
      </trkpt>
      <trkpt lat="49.21458" lon="-1.49658">
        <ele>13</ele>
      </trkpt>
      <trkpt lat="49.21458" lon="-1.49665">
        <ele>12.6</ele>
      </trkpt>
      <trkpt lat="49.21458" lon="-1.4967">
        <ele>12.5</ele>
      </trkpt>
      <trkpt lat="49.21458" lon="-1.49677">
        <ele>12.4</ele>
      </trkpt>
      <trkpt lat="49.21459" lon="-1.49691">
        <ele>12.2</ele>
      </trkpt>
      <trkpt lat="49.21465" lon="-1.49692">
        <ele>12</ele>
      </trkpt>
      <trkpt lat="49.21471" lon="-1.49698">
        <ele>11.8</ele>
      </trkpt>
      <trkpt lat="49.21484" lon="-1.49717">
        <ele>11.3</ele>
      </trkpt>
      <trkpt lat="49.21497" lon="-1.49739">
        <ele>11</ele>
      </trkpt>
      <trkpt lat="49.21504" lon="-1.49749">
        <ele>10.9</ele>
      </trkpt>
      <trkpt lat="49.21507" lon="-1.49754">
        <ele>10.7</ele>
      </trkpt>
      <trkpt lat="49.21509" lon="-1.49757">
        <ele>10.7</ele>
      </trkpt>
      <trkpt lat="49.21519" lon="-1.49773">
        <ele>10.2</ele>
      </trkpt>
      <trkpt lat="49.21529" lon="-1.4979">
        <ele>9.8</ele>
      </trkpt>
      <trkpt lat="49.2154" lon="-1.49813">
        <ele>9.2</ele>
      </trkpt>
      <trkpt lat="49.21547" lon="-1.49828">
        <ele>8.8</ele>
      </trkpt>
      <trkpt lat="49.21557" lon="-1.49848">
        <ele>8</ele>
      </trkpt>
      <trkpt lat="49.21568" lon="-1.49871">
        <ele>7.2</ele>
      </trkpt>
      <trkpt lat="49.21574" lon="-1.49883">
        <ele>6.8</ele>
      </trkpt>
      <trkpt lat="49.21585" lon="-1.49907">
        <ele>6.1</ele>
      </trkpt>
      <trkpt lat="49.21598" lon="-1.49935">
        <ele>6.5</ele>
      </trkpt>
      <trkpt lat="49.21602" lon="-1.49943">
        <ele>6.8</ele>
      </trkpt>
      <trkpt lat="49.21609" lon="-1.49959">
        <ele>7.4</ele>
      </trkpt>
      <trkpt lat="49.21621" lon="-1.49982">
        <ele>8.7</ele>
      </trkpt>
      <trkpt lat="49.21625" lon="-1.49992">
        <ele>9.3</ele>
      </trkpt>
      <trkpt lat="49.21634" lon="-1.50012">
        <ele>10.5</ele>
      </trkpt>
      <trkpt lat="49.21639" lon="-1.50021">
        <ele>11.2</ele>
      </trkpt>
      <trkpt lat="49.21642" lon="-1.50027">
        <ele>11.6</ele>
      </trkpt>
      <trkpt lat="49.21649" lon="-1.50041">
        <ele>12.7</ele>
      </trkpt>
      <trkpt lat="49.21652" lon="-1.50048">
        <ele>13.2</ele>
      </trkpt>
      <trkpt lat="49.21651" lon="-1.50055">
        <ele>13.3</ele>
      </trkpt>
      <trkpt lat="49.2165" lon="-1.50066">
        <ele>13.5</ele>
      </trkpt>
      <trkpt lat="49.2165" lon="-1.50077">
        <ele>13.8</ele>
      </trkpt>
      <trkpt lat="49.2165" lon="-1.50087">
        <ele>14</ele>
      </trkpt>
      <trkpt lat="49.21649" lon="-1.50097">
        <ele>14</ele>
      </trkpt>
      <trkpt lat="49.21649" lon="-1.50106">
        <ele>14.2</ele>
      </trkpt>
      <trkpt lat="49.2165" lon="-1.50115">
        <ele>14.3</ele>
      </trkpt>
      <trkpt lat="49.21651" lon="-1.5012">
        <ele>14.6</ele>
      </trkpt>
      <trkpt lat="49.21654" lon="-1.50123">
        <ele>14.9</ele>
      </trkpt>
      <trkpt lat="49.21663" lon="-1.50127">
        <ele>16.1</ele>
      </trkpt>
      <trkpt lat="49.21664" lon="-1.50127">
        <ele>16.2</ele>
      </trkpt>
      <trkpt lat="49.21684" lon="-1.50168">
        <ele>18.7</ele>
      </trkpt>
      <trkpt lat="49.21694" lon="-1.50187">
        <ele>19.9</ele>
      </trkpt>
      <trkpt lat="49.21707" lon="-1.5021">
        <ele>21.4</ele>
      </trkpt>
      <trkpt lat="49.21719" lon="-1.5023">
        <ele>22.5</ele>
      </trkpt>
      <trkpt lat="49.21728" lon="-1.50246">
        <ele>23.4</ele>
      </trkpt>
      <trkpt lat="49.21739" lon="-1.50271">
        <ele>23.9</ele>
      </trkpt>
      <trkpt lat="49.21756" lon="-1.50298">
        <ele>24.5</ele>
      </trkpt>
      <trkpt lat="49.21766" lon="-1.50319">
        <ele>24.5</ele>
      </trkpt>
      <trkpt lat="49.21781" lon="-1.50352">
        <ele>24.1</ele>
      </trkpt>
      <trkpt lat="49.21791" lon="-1.50373">
        <ele>23.5</ele>
      </trkpt>
      <trkpt lat="49.218" lon="-1.50391">
        <ele>23.1</ele>
      </trkpt>
      <trkpt lat="49.21817" lon="-1.50423">
        <ele>22.5</ele>
      </trkpt>
      <trkpt lat="49.21826" lon="-1.50436">
        <ele>22.6</ele>
      </trkpt>
      <trkpt lat="49.21836" lon="-1.50446">
        <ele>22.7</ele>
      </trkpt>
      <trkpt lat="49.21844" lon="-1.50457">
        <ele>22.8</ele>
      </trkpt>
      <trkpt lat="49.21851" lon="-1.50468">
        <ele>22.9</ele>
      </trkpt>
      <trkpt lat="49.21866" lon="-1.5051">
        <ele>23.2</ele>
      </trkpt>
      <trkpt lat="49.21885" lon="-1.50556">
        <ele>23.7</ele>
      </trkpt>
      <trkpt lat="49.21895" lon="-1.50581">
        <ele>23.8</ele>
      </trkpt>
      <trkpt lat="49.21909" lon="-1.5061">
        <ele>24.6</ele>
      </trkpt>
      <trkpt lat="49.21917" lon="-1.50627">
        <ele>25</ele>
      </trkpt>
      <trkpt lat="49.21921" lon="-1.50633">
        <ele>25.1</ele>
      </trkpt>
      <trkpt lat="49.21933" lon="-1.50655">
        <ele>25</ele>
      </trkpt>
      <trkpt lat="49.21949" lon="-1.50678">
        <ele>24.6</ele>
      </trkpt>
      <trkpt lat="49.21972" lon="-1.50709">
        <ele>24.2</ele>
      </trkpt>
      <trkpt lat="49.21985" lon="-1.50726">
        <ele>24</ele>
      </trkpt>
      <trkpt lat="49.21999" lon="-1.5075">
        <ele>24</ele>
      </trkpt>
      <trkpt lat="49.2201" lon="-1.50772">
        <ele>23.3</ele>
      </trkpt>
      <trkpt lat="49.22023" lon="-1.508">
        <ele>22.7</ele>
      </trkpt>
      <trkpt lat="49.22034" lon="-1.50814">
        <ele>22.4</ele>
      </trkpt>
      <trkpt lat="49.22045" lon="-1.50828">
        <ele>22.3</ele>
      </trkpt>
      <trkpt lat="49.22073" lon="-1.50859">
        <ele>21.9</ele>
      </trkpt>
      <trkpt lat="49.22114" lon="-1.50903">
        <ele>21.6</ele>
      </trkpt>
      <trkpt lat="49.22116" lon="-1.50905">
        <ele>21.6</ele>
      </trkpt>
      <trkpt lat="49.22129" lon="-1.50919">
        <ele>21.3</ele>
      </trkpt>
      <trkpt lat="49.22159" lon="-1.50949">
        <ele>20.2</ele>
      </trkpt>
      <trkpt lat="49.22165" lon="-1.50956">
        <ele>20</ele>
      </trkpt>
      <trkpt lat="49.22177" lon="-1.50971">
        <ele>19.8</ele>
      </trkpt>
      <trkpt lat="49.22187" lon="-1.5098">
        <ele>19.7</ele>
      </trkpt>
      <trkpt lat="49.22201" lon="-1.50992">
        <ele>19.5</ele>
      </trkpt>
      <trkpt lat="49.22208" lon="-1.50997">
        <ele>19.5</ele>
      </trkpt>
      <trkpt lat="49.22217" lon="-1.51004">
        <ele>19.3</ele>
      </trkpt>
      <trkpt lat="49.22224" lon="-1.5101">
        <ele>19.2</ele>
      </trkpt>
      <trkpt lat="49.22232" lon="-1.51013">
        <ele>19.1</ele>
      </trkpt>
      <trkpt lat="49.22251" lon="-1.5102">
        <ele>18.7</ele>
      </trkpt>
      <trkpt lat="49.22261" lon="-1.51023">
        <ele>18.5</ele>
      </trkpt>
      <trkpt lat="49.22267" lon="-1.51025">
        <ele>18.4</ele>
      </trkpt>
      <trkpt lat="49.22277" lon="-1.51029">
        <ele>18.2</ele>
      </trkpt>
      <trkpt lat="49.22284" lon="-1.51031">
        <ele>18.1</ele>
      </trkpt>
      <trkpt lat="49.22289" lon="-1.51035">
        <ele>18</ele>
      </trkpt>
      <trkpt lat="49.22292" lon="-1.51039">
        <ele>18</ele>
      </trkpt>
      <trkpt lat="49.22299" lon="-1.51049">
        <ele>17.9</ele>
      </trkpt>
      <trkpt lat="49.2231" lon="-1.51068">
        <ele>17.9</ele>
      </trkpt>
      <trkpt lat="49.22319" lon="-1.51081">
        <ele>18</ele>
      </trkpt>
      <trkpt lat="49.22331" lon="-1.51097">
        <ele>17.8</ele>
      </trkpt>
      <trkpt lat="49.22336" lon="-1.51104">
        <ele>17.6</ele>
      </trkpt>
      <trkpt lat="49.22342" lon="-1.51111">
        <ele>17.1</ele>
      </trkpt>
      <trkpt lat="49.22346" lon="-1.51115">
        <ele>16.9</ele>
      </trkpt>
      <trkpt lat="49.22353" lon="-1.51141">
        <ele>16.1</ele>
      </trkpt>
      <trkpt lat="49.22377" lon="-1.51213">
        <ele>14.4</ele>
      </trkpt>
      <trkpt lat="49.22394" lon="-1.5127">
        <ele>13.4</ele>
      </trkpt>
      <trkpt lat="49.22399" lon="-1.51286">
        <ele>13</ele>
      </trkpt>
      <trkpt lat="49.22406" lon="-1.51302">
        <ele>12.7</ele>
      </trkpt>
      <trkpt lat="49.22411" lon="-1.51315">
        <ele>12.3</ele>
      </trkpt>
      <trkpt lat="49.22424" lon="-1.51344">
        <ele>11.9</ele>
      </trkpt>
      <trkpt lat="49.2244" lon="-1.51382">
        <ele>11.9</ele>
      </trkpt>
      <trkpt lat="49.22454" lon="-1.51415">
        <ele>11.7</ele>
      </trkpt>
      <trkpt lat="49.22461" lon="-1.51429">
        <ele>11.5</ele>
      </trkpt>
      <trkpt lat="49.22464" lon="-1.51434">
        <ele>11.4</ele>
      </trkpt>
      <trkpt lat="49.22469" lon="-1.51437">
        <ele>11.3</ele>
      </trkpt>
      <trkpt lat="49.22489" lon="-1.51445">
        <ele>10.7</ele>
      </trkpt>
      <trkpt lat="49.22504" lon="-1.51451">
        <ele>10.7</ele>
      </trkpt>
      <trkpt lat="49.22517" lon="-1.51457">
        <ele>11.6</ele>
      </trkpt>
      <trkpt lat="49.22516" lon="-1.51463">
        <ele>11.6</ele>
      </trkpt>
      <trkpt lat="49.22516" lon="-1.51468">
        <ele>11.7</ele>
      </trkpt>
      <trkpt lat="49.22519" lon="-1.51474">
        <ele>12</ele>
      </trkpt>
      <trkpt lat="49.22523" lon="-1.51477">
        <ele>12.3</ele>
      </trkpt>
      <trkpt lat="49.22538" lon="-1.51486">
        <ele>13.5</ele>
      </trkpt>
      <trkpt lat="49.22558" lon="-1.51498">
        <ele>15.1</ele>
      </trkpt>
      <trkpt lat="49.2256" lon="-1.51499">
        <ele>15.3</ele>
      </trkpt>
      <trkpt lat="49.22574" lon="-1.51505">
        <ele>16.3</ele>
      </trkpt>
      <trkpt lat="49.22598" lon="-1.51512">
        <ele>17.6</ele>
      </trkpt>
      <trkpt lat="49.22606" lon="-1.51516">
        <ele>18</ele>
      </trkpt>
      <trkpt lat="49.22609" lon="-1.51499">
        <ele>17.9</ele>
      </trkpt>
      <trkpt lat="49.22612" lon="-1.51482">
        <ele>17.8</ele>
      </trkpt>
      <trkpt lat="49.22613" lon="-1.51475">
        <ele>17.7</ele>
      </trkpt>
      <trkpt lat="49.22616" lon="-1.51458">
        <ele>17.5</ele>
      </trkpt>
      <trkpt lat="49.22618" lon="-1.51433">
        <ele>17.3</ele>
      </trkpt>
      <trkpt lat="49.2262" lon="-1.51412">
        <ele>17.1</ele>
      </trkpt>
      <trkpt lat="49.22629" lon="-1.51412">
        <ele>17.6</ele>
      </trkpt>
      <trkpt lat="49.22639" lon="-1.51413">
        <ele>18.2</ele>
      </trkpt>
      <trkpt lat="49.22659" lon="-1.51416">
        <ele>19.5</ele>
      </trkpt>
      <trkpt lat="49.22683" lon="-1.5142">
        <ele>20.6</ele>
      </trkpt>
      <trkpt lat="49.22704" lon="-1.51423">
        <ele>21.3</ele>
      </trkpt>
      <trkpt lat="49.22726" lon="-1.51427">
        <ele>22</ele>
      </trkpt>
      <trkpt lat="49.22745" lon="-1.51434">
        <ele>22.6</ele>
      </trkpt>
      <trkpt lat="49.22748" lon="-1.51435">
        <ele>22.7</ele>
      </trkpt>
      <trkpt lat="49.22753" lon="-1.51437">
        <ele>22.8</ele>
      </trkpt>
      <trkpt lat="49.22763" lon="-1.5144">
        <ele>22.9</ele>
      </trkpt>
      <trkpt lat="49.22778" lon="-1.51443">
        <ele>23.1</ele>
      </trkpt>
      <trkpt lat="49.22803" lon="-1.51445">
        <ele>23.5</ele>
      </trkpt>
      <trkpt lat="49.22804" lon="-1.51446">
        <ele>23.5</ele>
      </trkpt>
      <trkpt lat="49.22809" lon="-1.51447">
        <ele>23.6</ele>
      </trkpt>
      <trkpt lat="49.22835" lon="-1.51455">
        <ele>24</ele>
      </trkpt>
      <trkpt lat="49.22856" lon="-1.5147">
        <ele>23.7</ele>
      </trkpt>
      <trkpt lat="49.22859" lon="-1.51473">
        <ele>23.7</ele>
      </trkpt>
      <trkpt lat="49.2287" lon="-1.5148">
        <ele>23.6</ele>
      </trkpt>
      <trkpt lat="49.2288" lon="-1.51495">
        <ele>23.4</ele>
      </trkpt>
      <trkpt lat="49.22885" lon="-1.51502">
        <ele>23.4</ele>
      </trkpt>
      <trkpt lat="49.22893" lon="-1.51514">
        <ele>23.4</ele>
      </trkpt>
      <trkpt lat="49.22903" lon="-1.51534">
        <ele>23.5</ele>
      </trkpt>
      <trkpt lat="49.22919" lon="-1.51569">
        <ele>23.8</ele>
      </trkpt>
      <trkpt lat="49.22933" lon="-1.51602">
        <ele>23.8</ele>
      </trkpt>
      <trkpt lat="49.22936" lon="-1.51607">
        <ele>23.8</ele>
      </trkpt>
      <trkpt lat="49.22939" lon="-1.51614">
        <ele>23.7</ele>
      </trkpt>
      <trkpt lat="49.2295" lon="-1.51639">
        <ele>23.6</ele>
      </trkpt>
      <trkpt lat="49.2296" lon="-1.51663">
        <ele>23.5</ele>
      </trkpt>
      <trkpt lat="49.22962" lon="-1.51666">
        <ele>23.5</ele>
      </trkpt>
      <trkpt lat="49.22972" lon="-1.51689">
        <ele>23.2</ele>
      </trkpt>
      <trkpt lat="49.22977" lon="-1.51698">
        <ele>23.1</ele>
      </trkpt>
      <trkpt lat="49.22982" lon="-1.51702">
        <ele>23</ele>
      </trkpt>
      <trkpt lat="49.22986" lon="-1.51703">
        <ele>23</ele>
      </trkpt>
      <trkpt lat="49.22992" lon="-1.51705">
        <ele>23</ele>
      </trkpt>
      <trkpt lat="49.22988" lon="-1.51721">
        <ele>22.7</ele>
      </trkpt>
      <trkpt lat="49.22987" lon="-1.51728">
        <ele>22.5</ele>
      </trkpt>
      <trkpt lat="49.22986" lon="-1.51735">
        <ele>22.3</ele>
      </trkpt>
      <trkpt lat="49.2298" lon="-1.51762">
        <ele>21.8</ele>
      </trkpt>
      <trkpt lat="49.22978" lon="-1.51771">
        <ele>21.6</ele>
      </trkpt>
      <trkpt lat="49.22973" lon="-1.51797">
        <ele>21.1</ele>
      </trkpt>
      <trkpt lat="49.22971" lon="-1.51807">
        <ele>20.8</ele>
      </trkpt>
      <trkpt lat="49.22966" lon="-1.51826">
        <ele>20.4</ele>
      </trkpt>
      <trkpt lat="49.22958" lon="-1.51856">
        <ele>19.5</ele>
      </trkpt>
      <trkpt lat="49.2295" lon="-1.51887">
        <ele>18.4</ele>
      </trkpt>
      <trkpt lat="49.22942" lon="-1.51916">
        <ele>17.2</ele>
      </trkpt>
      <trkpt lat="49.2294" lon="-1.51925">
        <ele>16.9</ele>
      </trkpt>
      <trkpt lat="49.22933" lon="-1.51948">
        <ele>16</ele>
      </trkpt>
      <trkpt lat="49.2293" lon="-1.51966">
        <ele>15.5</ele>
      </trkpt>
      <trkpt lat="49.22929" lon="-1.51973">
        <ele>15.2</ele>
      </trkpt>
      <trkpt lat="49.22927" lon="-1.51981">
        <ele>15</ele>
      </trkpt>
      <trkpt lat="49.22926" lon="-1.51993">
        <ele>14.6</ele>
      </trkpt>
      <trkpt lat="49.22926" lon="-1.52006">
        <ele>14.6</ele>
      </trkpt>
      <trkpt lat="49.22925" lon="-1.5202">
        <ele>15</ele>
      </trkpt>
      <trkpt lat="49.22923" lon="-1.52028">
        <ele>15.2</ele>
      </trkpt>
      <trkpt lat="49.22922" lon="-1.52034">
        <ele>15.4</ele>
      </trkpt>
      <trkpt lat="49.2292" lon="-1.52041">
        <ele>15.6</ele>
      </trkpt>
      <trkpt lat="49.22917" lon="-1.52046">
        <ele>15.7</ele>
      </trkpt>
      <trkpt lat="49.2291" lon="-1.52053">
        <ele>15.8</ele>
      </trkpt>
      <trkpt lat="49.2291" lon="-1.5206">
        <ele>16.1</ele>
      </trkpt>
      <trkpt lat="49.22912" lon="-1.5207">
        <ele>16.5</ele>
      </trkpt>
      <trkpt lat="49.22917" lon="-1.52082">
        <ele>16.9</ele>
      </trkpt>
      <trkpt lat="49.2292" lon="-1.52093">
        <ele>17.2</ele>
      </trkpt>
      <trkpt lat="49.22925" lon="-1.52108">
        <ele>17.6</ele>
      </trkpt>
      <trkpt lat="49.22929" lon="-1.52118">
        <ele>17.8</ele>
      </trkpt>
      <trkpt lat="49.22933" lon="-1.52126">
        <ele>18</ele>
      </trkpt>
      <trkpt lat="49.22937" lon="-1.52135">
        <ele>18.2</ele>
      </trkpt>
      <trkpt lat="49.22939" lon="-1.52146">
        <ele>18.5</ele>
      </trkpt>
      <trkpt lat="49.2294" lon="-1.52158">
        <ele>18.8</ele>
      </trkpt>
      <trkpt lat="49.22943" lon="-1.5217">
        <ele>19.1</ele>
      </trkpt>
      <trkpt lat="49.22945" lon="-1.52178">
        <ele>19.2</ele>
      </trkpt>
      <trkpt lat="49.22947" lon="-1.5219">
        <ele>19.4</ele>
      </trkpt>
      <trkpt lat="49.22947" lon="-1.52206">
        <ele>19.7</ele>
      </trkpt>
      <trkpt lat="49.2295" lon="-1.52224">
        <ele>20</ele>
      </trkpt>
      <trkpt lat="49.22954" lon="-1.52237">
        <ele>20.2</ele>
      </trkpt>
      <trkpt lat="49.22954" lon="-1.52241">
        <ele>20.3</ele>
      </trkpt>
      <trkpt lat="49.22947" lon="-1.52257">
        <ele>20.4</ele>
      </trkpt>
      <trkpt lat="49.22943" lon="-1.52266">
        <ele>20.5</ele>
      </trkpt>
      <trkpt lat="49.22943" lon="-1.52271">
        <ele>20.6</ele>
      </trkpt>
      <trkpt lat="49.22947" lon="-1.52282">
        <ele>20.8</ele>
      </trkpt>
      <trkpt lat="49.22954" lon="-1.52286">
        <ele>20.9</ele>
      </trkpt>
      <trkpt lat="49.22992" lon="-1.52294">
        <ele>21.4</ele>
      </trkpt>
      <trkpt lat="49.22998" lon="-1.52297">
        <ele>21.5</ele>
      </trkpt>
      <trkpt lat="49.23001" lon="-1.52303">
        <ele>21.6</ele>
      </trkpt>
      <trkpt lat="49.23001" lon="-1.52314">
        <ele>21.8</ele>
      </trkpt>
      <trkpt lat="49.22998" lon="-1.52385">
        <ele>22.6</ele>
      </trkpt>
      <trkpt lat="49.22998" lon="-1.52391">
        <ele>22.7</ele>
      </trkpt>
      <trkpt lat="49.22998" lon="-1.52427">
        <ele>23.1</ele>
      </trkpt>
      <trkpt lat="49.22998" lon="-1.52484">
        <ele>23.7</ele>
      </trkpt>
      <trkpt lat="49.23016" lon="-1.52473">
        <ele>23.6</ele>
      </trkpt>
      <trkpt lat="49.23029" lon="-1.52465">
        <ele>23.4</ele>
      </trkpt>
      <trkpt lat="49.23048" lon="-1.52458">
        <ele>23.2</ele>
      </trkpt>
      <trkpt lat="49.23056" lon="-1.52457">
        <ele>23.1</ele>
      </trkpt>
      <trkpt lat="49.2306" lon="-1.52464">
        <ele>23.2</ele>
      </trkpt>
      <trkpt lat="49.23063" lon="-1.52478">
        <ele>23.5</ele>
      </trkpt>
      <trkpt lat="49.23065" lon="-1.52503">
        <ele>24</ele>
      </trkpt>
      <trkpt lat="49.23065" lon="-1.52509">
        <ele>24.1</ele>
      </trkpt>
      <trkpt lat="49.23066" lon="-1.52536">
        <ele>24.3</ele>
      </trkpt>
      <trkpt lat="49.23066" lon="-1.52586">
        <ele>24.8</ele>
      </trkpt>
      <trkpt lat="49.23064" lon="-1.52637">
        <ele>25.3</ele>
      </trkpt>
      <trkpt lat="49.23062" lon="-1.52675">
        <ele>25.7</ele>
      </trkpt>
      <trkpt lat="49.23063" lon="-1.52689">
        <ele>26</ele>
      </trkpt>
      <trkpt lat="49.23064" lon="-1.52693">
        <ele>26.1</ele>
      </trkpt>
      <trkpt lat="49.23066" lon="-1.52698">
        <ele>26.3</ele>
      </trkpt>
      <trkpt lat="49.23076" lon="-1.52705">
        <ele>26.7</ele>
      </trkpt>
      <trkpt lat="49.23086" lon="-1.52715">
        <ele>27.1</ele>
      </trkpt>
      <trkpt lat="49.23089" lon="-1.5272">
        <ele>27.2</ele>
      </trkpt>
      <trkpt lat="49.23097" lon="-1.52734">
        <ele>27.3</ele>
      </trkpt>
      <trkpt lat="49.2311" lon="-1.52761">
        <ele>27.5</ele>
      </trkpt>
      <trkpt lat="49.23124" lon="-1.52788">
        <ele>27.7</ele>
      </trkpt>
      <trkpt lat="49.23135" lon="-1.5281">
        <ele>27.9</ele>
      </trkpt>
      <trkpt lat="49.23147" lon="-1.52839">
        <ele>28.3</ele>
      </trkpt>
      <trkpt lat="49.2316" lon="-1.5288">
        <ele>28.5</ele>
      </trkpt>
      <trkpt lat="49.23165" lon="-1.52891">
        <ele>28.7</ele>
      </trkpt>
      <trkpt lat="49.2317" lon="-1.52906">
        <ele>28.8</ele>
      </trkpt>
      <trkpt lat="49.23178" lon="-1.52936">
        <ele>28.6</ele>
      </trkpt>
      <trkpt lat="49.2319" lon="-1.52972">
        <ele>28.1</ele>
      </trkpt>
      <trkpt lat="49.232" lon="-1.53004">
        <ele>28.1</ele>
      </trkpt>
      <trkpt lat="49.23204" lon="-1.53028">
        <ele>28.3</ele>
      </trkpt>
      <trkpt lat="49.23207" lon="-1.53045">
        <ele>28.5</ele>
      </trkpt>
      <trkpt lat="49.2321" lon="-1.53063">
        <ele>28.7</ele>
      </trkpt>
      <trkpt lat="49.2321" lon="-1.53086">
        <ele>29</ele>
      </trkpt>
      <trkpt lat="49.23214" lon="-1.53152">
        <ele>29</ele>
      </trkpt>
      <trkpt lat="49.23215" lon="-1.53221">
        <ele>28.1</ele>
      </trkpt>
      <trkpt lat="49.23215" lon="-1.5327">
        <ele>27.2</ele>
      </trkpt>
      <trkpt lat="49.23214" lon="-1.53278">
        <ele>27.1</ele>
      </trkpt>
      <trkpt lat="49.23213" lon="-1.5329">
        <ele>26.9</ele>
      </trkpt>
      <trkpt lat="49.2321" lon="-1.53297">
        <ele>26.7</ele>
      </trkpt>
      <trkpt lat="49.23206" lon="-1.53311">
        <ele>26.4</ele>
      </trkpt>
      <trkpt lat="49.23204" lon="-1.5332">
        <ele>26.1</ele>
      </trkpt>
      <trkpt lat="49.23203" lon="-1.53326">
        <ele>26</ele>
      </trkpt>
      <trkpt lat="49.23203" lon="-1.53336">
        <ele>25.8</ele>
      </trkpt>
      <trkpt lat="49.23203" lon="-1.53348">
        <ele>25.6</ele>
      </trkpt>
      <trkpt lat="49.24018" lon="-1.53358">
        <ele>27.8</ele>
      </trkpt>
      <trkpt lat="49.24593" lon="-1.53382">
        <ele>31.5</ele>
      </trkpt>
      <trkpt lat="49.25633" lon="-1.53646">
        <ele>44.6</ele>
      </trkpt>
      <trkpt lat="49.25952" lon="-1.53734">
        <ele>46.8</ele>
      </trkpt>
      <trkpt lat="49.26401" lon="-1.53854">
        <ele>50.7</ele>
      </trkpt>
      <trkpt lat="49.26621" lon="-1.53814">
        <ele>50.8</ele>
      </trkpt>
      <trkpt lat="49.26882" lon="-1.53702">
        <ele>47.8</ele>
      </trkpt>
      <trkpt lat="49.27159" lon="-1.5363">
        <ele>43.6</ele>
      </trkpt>
      <trkpt lat="49.27702" lon="-1.53702">
        <ele>38.9</ele>
      </trkpt>
      <trkpt lat="49.28463" lon="-1.5381">
        <ele>47.8</ele>
      </trkpt>
      <trkpt lat="49.28828" lon="-1.53863">
        <ele>51.4</ele>
      </trkpt>
      <trkpt lat="49.29062" lon="-1.53858">
        <ele>50.7</ele>
      </trkpt>
      <trkpt lat="49.29249" lon="-1.53911">
        <ele>42.2</ele>
      </trkpt>
      <trkpt lat="49.29417" lon="-1.54091">
        <ele>38</ele>
      </trkpt>
      <trkpt lat="49.29486" lon="-1.54312">
        <ele>34.5</ele>
      </trkpt>
      <trkpt lat="49.29517" lon="-1.54481">
        <ele>32.6</ele>
      </trkpt>
      <trkpt lat="49.29545" lon="-1.54888">
        <ele>34.9</ele>
      </trkpt>
      <trkpt lat="49.29559" lon="-1.54952">
        <ele>34.8</ele>
      </trkpt>
      <trkpt lat="49.29555" lon="-1.55031">
        <ele>36</ele>
      </trkpt>
      <trkpt lat="49.29597" lon="-1.55174">
        <ele>35.5</ele>
      </trkpt>
      <trkpt lat="49.29672" lon="-1.55258">
        <ele>32.9</ele>
      </trkpt>
      <trkpt lat="49.2967" lon="-1.5526">
        <ele>33</ele>
      </trkpt>
      <trkpt lat="49.29677" lon="-1.55275">
        <ele>32.8</ele>
      </trkpt>
      <trkpt lat="49.29681" lon="-1.55271">
        <ele>32.6</ele>
      </trkpt>
      <trkpt lat="49.2969" lon="-1.55262">
        <ele>32.2</ele>
      </trkpt>
      <trkpt lat="49.29693" lon="-1.55255">
        <ele>32.1</ele>
      </trkpt>
      <trkpt lat="49.29695" lon="-1.5525">
        <ele>32</ele>
      </trkpt>
      <trkpt lat="49.29695" lon="-1.55247">
        <ele>32</ele>
      </trkpt>
      <trkpt lat="49.29697" lon="-1.55236">
        <ele>32</ele>
      </trkpt>
      <trkpt lat="49.29696" lon="-1.55226">
        <ele>32</ele>
      </trkpt>
      <trkpt lat="49.29689" lon="-1.55189">
        <ele>32.4</ele>
      </trkpt>
      <trkpt lat="49.29679" lon="-1.55147">
        <ele>32.7</ele>
      </trkpt>
      <trkpt lat="49.29678" lon="-1.55141">
        <ele>32.8</ele>
      </trkpt>
      <trkpt lat="49.29675" lon="-1.55127">
        <ele>32.9</ele>
      </trkpt>
      <trkpt lat="49.29675" lon="-1.55117">
        <ele>32.9</ele>
      </trkpt>
      <trkpt lat="49.29678" lon="-1.55107">
        <ele>32.8</ele>
      </trkpt>
      <trkpt lat="49.29683" lon="-1.55098">
        <ele>32.8</ele>
      </trkpt>
      <trkpt lat="49.29715" lon="-1.55066">
        <ele>32.5</ele>
      </trkpt>
      <trkpt lat="49.29756" lon="-1.55026">
        <ele>31.8</ele>
      </trkpt>
      <trkpt lat="49.29766" lon="-1.55015">
        <ele>31.5</ele>
      </trkpt>
      <trkpt lat="49.29766" lon="-1.55015">
        <ele>31.5</ele>
      </trkpt>
      <trkpt lat="49.29778" lon="-1.55002">
        <ele>31</ele>
      </trkpt>
      <trkpt lat="49.29785" lon="-1.5499">
        <ele>30.5</ele>
      </trkpt>
      <trkpt lat="49.29788" lon="-1.54979">
        <ele>30.1</ele>
      </trkpt>
      <trkpt lat="49.29789" lon="-1.54972">
        <ele>29.9</ele>
      </trkpt>
      <trkpt lat="49.29794" lon="-1.54951">
        <ele>29.2</ele>
      </trkpt>
      <trkpt lat="49.29796" lon="-1.54943">
        <ele>29</ele>
      </trkpt>
      <trkpt lat="49.29799" lon="-1.54934">
        <ele>28.7</ele>
      </trkpt>
      <trkpt lat="49.29814" lon="-1.54903">
        <ele>28</ele>
      </trkpt>
      <trkpt lat="49.29831" lon="-1.54868">
        <ele>28.2</ele>
      </trkpt>
      <trkpt lat="49.29842" lon="-1.54846">
        <ele>28.9</ele>
      </trkpt>
      <trkpt lat="49.29868" lon="-1.54793">
        <ele>31.5</ele>
      </trkpt>
      <trkpt lat="49.29873" lon="-1.54802">
        <ele>31.2</ele>
      </trkpt>
      <trkpt lat="49.29889" lon="-1.54822">
        <ele>30.8</ele>
      </trkpt>
      <trkpt lat="49.29901" lon="-1.54832">
        <ele>30.7</ele>
      </trkpt>
      <trkpt lat="49.29917" lon="-1.54841">
        <ele>30.8</ele>
      </trkpt>
      <trkpt lat="49.2992" lon="-1.54843">
        <ele>30.8</ele>
      </trkpt>
      <trkpt lat="49.29951" lon="-1.54858">
        <ele>30.3</ele>
      </trkpt>
      <trkpt lat="49.29969" lon="-1.54869">
        <ele>29.9</ele>
      </trkpt>
      <trkpt lat="49.29992" lon="-1.54886">
        <ele>29.2</ele>
      </trkpt>
      <trkpt lat="49.30009" lon="-1.54901">
        <ele>28.8</ele>
      </trkpt>
      <trkpt lat="49.30024" lon="-1.5491">
        <ele>28.8</ele>
      </trkpt>
      <trkpt lat="49.30036" lon="-1.54912">
        <ele>29</ele>
      </trkpt>
      <trkpt lat="49.30046" lon="-1.5491">
        <ele>29.3</ele>
      </trkpt>
      <trkpt lat="49.30062" lon="-1.54904">
        <ele>29.8</ele>
      </trkpt>
      <trkpt lat="49.30076" lon="-1.54898">
        <ele>30.3</ele>
      </trkpt>
      <trkpt lat="49.30083" lon="-1.54896">
        <ele>30.5</ele>
      </trkpt>
      <trkpt lat="49.30088" lon="-1.54894">
        <ele>31</ele>
      </trkpt>
      <trkpt lat="49.30088" lon="-1.54935">
        <ele>30.6</ele>
      </trkpt>
      <trkpt lat="49.30088" lon="-1.55017">
        <ele>31.6</ele>
      </trkpt>
      <trkpt lat="49.30088" lon="-1.55036">
        <ele>31.8</ele>
      </trkpt>
      <trkpt lat="49.30087" lon="-1.55063">
        <ele>32</ele>
      </trkpt>
      <trkpt lat="49.30087" lon="-1.55102">
        <ele>32.2</ele>
      </trkpt>
      <trkpt lat="49.30086" lon="-1.55137">
        <ele>32.2</ele>
      </trkpt>
      <trkpt lat="49.30086" lon="-1.55196">
        <ele>31.8</ele>
      </trkpt>
      <trkpt lat="49.30084" lon="-1.55252">
        <ele>31.1</ele>
      </trkpt>
      <trkpt lat="49.30084" lon="-1.55286">
        <ele>31.5</ele>
      </trkpt>
      <trkpt lat="49.30084" lon="-1.55311">
        <ele>31.8</ele>
      </trkpt>
      <trkpt lat="49.30085" lon="-1.55336">
        <ele>32.1</ele>
      </trkpt>
      <trkpt lat="49.30086" lon="-1.5536">
        <ele>31.9</ele>
      </trkpt>
      <trkpt lat="49.30087" lon="-1.55366">
        <ele>31.8</ele>
      </trkpt>
      <trkpt lat="49.3009" lon="-1.55409">
        <ele>31.7</ele>
      </trkpt>
      <trkpt lat="49.30093" lon="-1.55438">
        <ele>31.8</ele>
      </trkpt>
      <trkpt lat="49.30096" lon="-1.55467">
        <ele>32.1</ele>
      </trkpt>
      <trkpt lat="49.301" lon="-1.55494">
        <ele>32.4</ele>
      </trkpt>
      <trkpt lat="49.30106" lon="-1.55536">
        <ele>32.7</ele>
      </trkpt>
      <trkpt lat="49.30111" lon="-1.55568">
        <ele>32.8</ele>
      </trkpt>
      <trkpt lat="49.30113" lon="-1.55582">
        <ele>32.8</ele>
      </trkpt>
      <trkpt lat="49.30121" lon="-1.55613">
        <ele>33.4</ele>
      </trkpt>
      <trkpt lat="49.30127" lon="-1.55636">
        <ele>33.9</ele>
      </trkpt>
      <trkpt lat="49.30135" lon="-1.55669">
        <ele>34.5</ele>
      </trkpt>
      <trkpt lat="49.30141" lon="-1.55691">
        <ele>34.5</ele>
      </trkpt>
      <trkpt lat="49.30147" lon="-1.55716">
        <ele>34.5</ele>
      </trkpt>
      <trkpt lat="49.30151" lon="-1.55731">
        <ele>34.5</ele>
      </trkpt>
      <trkpt lat="49.30154" lon="-1.55749">
        <ele>34.4</ele>
      </trkpt>
      <trkpt lat="49.30156" lon="-1.55774">
        <ele>34</ele>
      </trkpt>
      <trkpt lat="49.30157" lon="-1.55784">
        <ele>33.8</ele>
      </trkpt>
      <trkpt lat="49.30159" lon="-1.55806">
        <ele>33.3</ele>
      </trkpt>
      <trkpt lat="49.3016" lon="-1.55837">
        <ele>32.7</ele>
      </trkpt>
      <trkpt lat="49.3016" lon="-1.55843">
        <ele>32.6</ele>
      </trkpt>
      <trkpt lat="49.3016" lon="-1.55866">
        <ele>32.4</ele>
      </trkpt>
      <trkpt lat="49.3016" lon="-1.55866">
        <ele>32.4</ele>
      </trkpt>
      <trkpt lat="49.3016" lon="-1.55872">
        <ele>32.3</ele>
      </trkpt>
      <trkpt lat="49.30161" lon="-1.55881">
        <ele>32.2</ele>
      </trkpt>
      <trkpt lat="49.30162" lon="-1.55898">
        <ele>32.1</ele>
      </trkpt>
      <trkpt lat="49.30163" lon="-1.55919">
        <ele>31.9</ele>
      </trkpt>
      <trkpt lat="49.30163" lon="-1.55936">
        <ele>32.1</ele>
      </trkpt>
      <trkpt lat="49.30162" lon="-1.55963">
        <ele>32.3</ele>
      </trkpt>
      <trkpt lat="49.3016" lon="-1.5598">
        <ele>32.4</ele>
      </trkpt>
      <trkpt lat="49.3016" lon="-1.55985">
        <ele>32.4</ele>
      </trkpt>
      <trkpt lat="49.30155" lon="-1.56004">
        <ele>32.3</ele>
      </trkpt>
      <trkpt lat="49.3015" lon="-1.56028">
        <ele>31.7</ele>
      </trkpt>
      <trkpt lat="49.30144" lon="-1.56051">
        <ele>31</ele>
      </trkpt>
      <trkpt lat="49.30142" lon="-1.56065">
        <ele>30.7</ele>
      </trkpt>
      <trkpt lat="49.30141" lon="-1.56074">
        <ele>30.6</ele>
      </trkpt>
      <trkpt lat="49.30141" lon="-1.56084">
        <ele>30.4</ele>
      </trkpt>
      <trkpt lat="49.30142" lon="-1.56094">
        <ele>30.3</ele>
      </trkpt>
      <trkpt lat="49.30145" lon="-1.56115">
        <ele>30.1</ele>
      </trkpt>
      <trkpt lat="49.30148" lon="-1.56131">
        <ele>30</ele>
      </trkpt>
      <trkpt lat="49.30149" lon="-1.56137">
        <ele>29.9</ele>
      </trkpt>
      <trkpt lat="49.30149" lon="-1.56144">
        <ele>29.8</ele>
      </trkpt>
      <trkpt lat="49.30148" lon="-1.56148">
        <ele>29.7</ele>
      </trkpt>
      <trkpt lat="49.30146" lon="-1.56154">
        <ele>29.5</ele>
      </trkpt>
      <trkpt lat="49.30141" lon="-1.56161">
        <ele>29.2</ele>
      </trkpt>
      <trkpt lat="49.30135" lon="-1.56165">
        <ele>28.9</ele>
      </trkpt>
      <trkpt lat="49.30126" lon="-1.56171">
        <ele>28.5</ele>
      </trkpt>
      <trkpt lat="49.30115" lon="-1.56178">
        <ele>28</ele>
      </trkpt>
      <trkpt lat="49.30094" lon="-1.56192">
        <ele>27.1</ele>
      </trkpt>
      <trkpt lat="49.30079" lon="-1.56206">
        <ele>26.5</ele>
      </trkpt>
      <trkpt lat="49.30071" lon="-1.56212">
        <ele>26.3</ele>
      </trkpt>
      <trkpt lat="49.30061" lon="-1.56217">
        <ele>26.1</ele>
      </trkpt>
      <trkpt lat="49.30054" lon="-1.5622">
        <ele>26</ele>
      </trkpt>
      <trkpt lat="49.30054" lon="-1.5622">
        <ele>26</ele>
      </trkpt>
      <trkpt lat="49.30045" lon="-1.56223">
        <ele>25.9</ele>
      </trkpt>
      <trkpt lat="49.30039" lon="-1.56223">
        <ele>25.8</ele>
      </trkpt>
      <trkpt lat="49.30037" lon="-1.56224">
        <ele>25.8</ele>
      </trkpt>
      <trkpt lat="49.30035" lon="-1.56224">
        <ele>25.7</ele>
      </trkpt>
      <trkpt lat="49.30033" lon="-1.56224">
        <ele>25.7</ele>
      </trkpt>
      <trkpt lat="49.30028" lon="-1.56223">
        <ele>25.7</ele>
      </trkpt>
      <trkpt lat="49.30019" lon="-1.5622">
        <ele>25.6</ele>
      </trkpt>
      <trkpt lat="49.30007" lon="-1.56214">
        <ele>25.5</ele>
      </trkpt>
      <trkpt lat="49.29998" lon="-1.56208">
        <ele>25.5</ele>
      </trkpt>
      <trkpt lat="49.29993" lon="-1.56207">
        <ele>25.6</ele>
      </trkpt>
      <trkpt lat="49.29979" lon="-1.56206">
        <ele>25.8</ele>
      </trkpt>
      <trkpt lat="49.29977" lon="-1.56206">
        <ele>25.8</ele>
      </trkpt>
      <trkpt lat="49.29989" lon="-1.56241">
        <ele>25.2</ele>
      </trkpt>
      <trkpt lat="49.30004" lon="-1.5629">
        <ele>24.6</ele>
      </trkpt>
      <trkpt lat="49.30021" lon="-1.56336">
        <ele>24.2</ele>
      </trkpt>
      <trkpt lat="49.30033" lon="-1.56374">
        <ele>24.4</ele>
      </trkpt>
      <trkpt lat="49.30044" lon="-1.56402">
        <ele>24.5</ele>
      </trkpt>
      <trkpt lat="49.30057" lon="-1.56437">
        <ele>24.7</ele>
      </trkpt>
      <trkpt lat="49.30069" lon="-1.5647">
        <ele>24.8</ele>
      </trkpt>
      <trkpt lat="49.30082" lon="-1.56499">
        <ele>25</ele>
      </trkpt>
      <trkpt lat="49.30096" lon="-1.56535">
        <ele>25.2</ele>
      </trkpt>
      <trkpt lat="49.30106" lon="-1.56557">
        <ele>25.3</ele>
      </trkpt>
      <trkpt lat="49.30112" lon="-1.56571">
        <ele>25.3</ele>
      </trkpt>
      <trkpt lat="49.30127" lon="-1.56603">
        <ele>25.6</ele>
      </trkpt>
      <trkpt lat="49.30141" lon="-1.56633">
        <ele>25.9</ele>
      </trkpt>
      <trkpt lat="49.30147" lon="-1.56645">
        <ele>25.9</ele>
      </trkpt>
      <trkpt lat="49.30155" lon="-1.56662">
        <ele>26</ele>
      </trkpt>
      <trkpt lat="49.30157" lon="-1.56667">
        <ele>26</ele>
      </trkpt>
      <trkpt lat="49.30171" lon="-1.56695">
        <ele>25.9</ele>
      </trkpt>
      <trkpt lat="49.30183" lon="-1.56718">
        <ele>25.6</ele>
      </trkpt>
      <trkpt lat="49.30192" lon="-1.56735">
        <ele>25.4</ele>
      </trkpt>
      <trkpt lat="49.30206" lon="-1.56762">
        <ele>25</ele>
      </trkpt>
      <trkpt lat="49.3022" lon="-1.56788">
        <ele>24.6</ele>
      </trkpt>
      <trkpt lat="49.30228" lon="-1.56803">
        <ele>24.4</ele>
      </trkpt>
      <trkpt lat="49.30237" lon="-1.56819">
        <ele>24.2</ele>
      </trkpt>
      <trkpt lat="49.30249" lon="-1.56842">
        <ele>24</ele>
      </trkpt>
      <trkpt lat="49.30264" lon="-1.56868">
        <ele>24.1</ele>
      </trkpt>
      <trkpt lat="49.30279" lon="-1.56891">
        <ele>24.2</ele>
      </trkpt>
      <trkpt lat="49.30292" lon="-1.56916">
        <ele>24.5</ele>
      </trkpt>
      <trkpt lat="49.30295" lon="-1.56922">
        <ele>24.5</ele>
      </trkpt>
      <trkpt lat="49.30307" lon="-1.56939">
        <ele>24.3</ele>
      </trkpt>
      <trkpt lat="49.3032" lon="-1.56959">
        <ele>24</ele>
      </trkpt>
      <trkpt lat="49.30336" lon="-1.56982">
        <ele>23.4</ele>
      </trkpt>
      <trkpt lat="49.30351" lon="-1.57004">
        <ele>22.8</ele>
      </trkpt>
      <trkpt lat="49.30356" lon="-1.57012">
        <ele>22.7</ele>
      </trkpt>
      <trkpt lat="49.30369" lon="-1.57032">
        <ele>22.6</ele>
      </trkpt>
      <trkpt lat="49.30373" lon="-1.57039">
        <ele>22.5</ele>
      </trkpt>
      <trkpt lat="49.30385" lon="-1.57058">
        <ele>22.4</ele>
      </trkpt>
      <trkpt lat="49.30386" lon="-1.5706">
        <ele>22.4</ele>
      </trkpt>
      <trkpt lat="49.30388" lon="-1.57063">
        <ele>22.3</ele>
      </trkpt>
      <trkpt lat="49.30411" lon="-1.57098">
        <ele>22.1</ele>
      </trkpt>
      <trkpt lat="49.30413" lon="-1.57102">
        <ele>22</ele>
      </trkpt>
      <trkpt lat="49.30419" lon="-1.57112">
        <ele>22</ele>
      </trkpt>
      <trkpt lat="49.30448" lon="-1.57158">
        <ele>23.1</ele>
      </trkpt>
      <trkpt lat="49.30451" lon="-1.57163">
        <ele>23.2</ele>
      </trkpt>
      <trkpt lat="49.30476" lon="-1.57201">
        <ele>24.8</ele>
      </trkpt>
      <trkpt lat="49.30495" lon="-1.57232">
        <ele>26.4</ele>
      </trkpt>
      <trkpt lat="49.30513" lon="-1.5726">
        <ele>26.9</ele>
      </trkpt>
      <trkpt lat="49.3053" lon="-1.57288">
        <ele>26.8</ele>
      </trkpt>
      <trkpt lat="49.30546" lon="-1.57313">
        <ele>26.9</ele>
      </trkpt>
      <trkpt lat="49.30559" lon="-1.57333">
        <ele>27</ele>
      </trkpt>
      <trkpt lat="49.3057" lon="-1.5735">
        <ele>26.9</ele>
      </trkpt>
      <trkpt lat="49.3058" lon="-1.57366">
        <ele>27</ele>
      </trkpt>
      <trkpt lat="49.30586" lon="-1.57376">
        <ele>26.9</ele>
      </trkpt>
      <trkpt lat="49.30601" lon="-1.57399">
        <ele>26.4</ele>
      </trkpt>
      <trkpt lat="49.30615" lon="-1.57423">
        <ele>25.9</ele>
      </trkpt>
      <trkpt lat="49.30632" lon="-1.5745">
        <ele>25.8</ele>
      </trkpt>
      <trkpt lat="49.30637" lon="-1.57457">
        <ele>25.8</ele>
      </trkpt>
      <trkpt lat="49.30642" lon="-1.57466">
        <ele>26</ele>
      </trkpt>
      <trkpt lat="49.30663" lon="-1.57499">
        <ele>26.9</ele>
      </trkpt>
      <trkpt lat="49.30691" lon="-1.57543">
        <ele>28.7</ele>
      </trkpt>
      <trkpt lat="49.30696" lon="-1.57552">
        <ele>29.1</ele>
      </trkpt>
      <trkpt lat="49.30719" lon="-1.57587">
        <ele>30.7</ele>
      </trkpt>
      <trkpt lat="49.30734" lon="-1.57611">
        <ele>31.5</ele>
      </trkpt>
      <trkpt lat="49.30742" lon="-1.57622">
        <ele>31.8</ele>
      </trkpt>
      <trkpt lat="49.30763" lon="-1.57655">
        <ele>32.2</ele>
      </trkpt>
      <trkpt lat="49.30792" lon="-1.57694">
        <ele>31.3</ele>
      </trkpt>
      <trkpt lat="49.30795" lon="-1.57699">
        <ele>31.2</ele>
      </trkpt>
      <trkpt lat="49.30816" lon="-1.5773">
        <ele>30.9</ele>
      </trkpt>
      <trkpt lat="49.30836" lon="-1.57758">
        <ele>31</ele>
      </trkpt>
      <trkpt lat="49.3085" lon="-1.57773">
        <ele>30.9</ele>
      </trkpt>
      <trkpt lat="49.30871" lon="-1.57798">
        <ele>30.8</ele>
      </trkpt>
      <trkpt lat="49.30873" lon="-1.578">
        <ele>30.8</ele>
      </trkpt>
      <trkpt lat="49.30875" lon="-1.57802">
        <ele>30.8</ele>
      </trkpt>
      <trkpt lat="49.30876" lon="-1.57804">
        <ele>30.8</ele>
      </trkpt>
      <trkpt lat="49.30878" lon="-1.57805">
        <ele>30.8</ele>
      </trkpt>
      <trkpt lat="49.30879" lon="-1.57807">
        <ele>30.8</ele>
      </trkpt>
      <trkpt lat="49.30895" lon="-1.57825">
        <ele>30.9</ele>
      </trkpt>
      <trkpt lat="49.3092" lon="-1.57854">
        <ele>31.2</ele>
      </trkpt>
      <trkpt lat="49.30937" lon="-1.5787">
        <ele>31.3</ele>
      </trkpt>
      <trkpt lat="49.30955" lon="-1.57888">
        <ele>31.5</ele>
      </trkpt>
      <trkpt lat="49.30977" lon="-1.57907">
        <ele>31.8</ele>
      </trkpt>
      <trkpt lat="49.31004" lon="-1.5793">
        <ele>32.4</ele>
      </trkpt>
      <trkpt lat="49.31031" lon="-1.57953">
        <ele>33.1</ele>
      </trkpt>
      <trkpt lat="49.31034" lon="-1.57956">
        <ele>33.2</ele>
      </trkpt>
      <trkpt lat="49.31055" lon="-1.57975">
        <ele>33.6</ele>
      </trkpt>
      <trkpt lat="49.31076" lon="-1.57992">
        <ele>33.9</ele>
      </trkpt>
      <trkpt lat="49.31096" lon="-1.58009">
        <ele>34.3</ele>
      </trkpt>
      <trkpt lat="49.31102" lon="-1.58015">
        <ele>34.5</ele>
      </trkpt>
      <trkpt lat="49.31106" lon="-1.58018">
        <ele>34.7</ele>
      </trkpt>
      <trkpt lat="49.31108" lon="-1.5802">
        <ele>34.7</ele>
      </trkpt>
      <trkpt lat="49.31117" lon="-1.58028">
        <ele>35.1</ele>
      </trkpt>
      <trkpt lat="49.31158" lon="-1.58063">
        <ele>37.2</ele>
      </trkpt>
      <trkpt lat="49.3116" lon="-1.58065">
        <ele>37.3</ele>
      </trkpt>
      <trkpt lat="49.31195" lon="-1.58095">
        <ele>37.8</ele>
      </trkpt>
      <trkpt lat="49.31225" lon="-1.58119">
        <ele>37.5</ele>
      </trkpt>
      <trkpt lat="49.31261" lon="-1.58151">
        <ele>37.1</ele>
      </trkpt>
      <trkpt lat="49.31294" lon="-1.58179">
        <ele>37</ele>
      </trkpt>
      <trkpt lat="49.31325" lon="-1.58205">
        <ele>37</ele>
      </trkpt>
      <trkpt lat="49.3135" lon="-1.58227">
        <ele>37.3</ele>
      </trkpt>
      <trkpt lat="49.31364" lon="-1.5824">
        <ele>37.4</ele>
      </trkpt>
      <trkpt lat="49.31386" lon="-1.58259">
        <ele>37.6</ele>
      </trkpt>
      <trkpt lat="49.31406" lon="-1.58274">
        <ele>37.6</ele>
      </trkpt>
      <trkpt lat="49.3143" lon="-1.58292">
        <ele>37.2</ele>
      </trkpt>
      <trkpt lat="49.31548" lon="-1.58393">
        <ele>34.7</ele>
      </trkpt>
      <trkpt lat="49.31582" lon="-1.58422">
        <ele>34.8</ele>
      </trkpt>
      <trkpt lat="49.31674" lon="-1.58501">
        <ele>35</ele>
      </trkpt>
      <trkpt lat="49.31695" lon="-1.58518">
        <ele>34.6</ele>
      </trkpt>
      <trkpt lat="49.31698" lon="-1.58521">
        <ele>34.5</ele>
      </trkpt>
      <trkpt lat="49.31712" lon="-1.58533">
        <ele>34.5</ele>
      </trkpt>
      <trkpt lat="49.31721" lon="-1.5854">
        <ele>34.5</ele>
      </trkpt>
      <trkpt lat="49.31722" lon="-1.58542">
        <ele>34.5</ele>
      </trkpt>
      <trkpt lat="49.31725" lon="-1.58544">
        <ele>34.5</ele>
      </trkpt>
      <trkpt lat="49.31777" lon="-1.58589">
        <ele>35.3</ele>
      </trkpt>
      <trkpt lat="49.3181" lon="-1.58616">
        <ele>36</ele>
      </trkpt>
      <trkpt lat="49.31773" lon="-1.58565">
        <ele>35.2</ele>
      </trkpt>
      <trkpt lat="49.31766" lon="-1.58559">
        <ele>35.1</ele>
      </trkpt>
      <trkpt lat="49.31758" lon="-1.58549">
        <ele>35.1</ele>
      </trkpt>
      <trkpt lat="49.31749" lon="-1.58538">
        <ele>35</ele>
      </trkpt>
      <trkpt lat="49.31742" lon="-1.58532">
        <ele>34.9</ele>
      </trkpt>
      <trkpt lat="49.31728" lon="-1.58522">
        <ele>34.8</ele>
      </trkpt>
      <trkpt lat="49.31727" lon="-1.58527">
        <ele>34.7</ele>
      </trkpt>
      <trkpt lat="49.31728" lon="-1.58522">
        <ele>34.8</ele>
      </trkpt>
      <trkpt lat="49.31733" lon="-1.58502">
        <ele>35</ele>
      </trkpt>
      <trkpt lat="49.31735" lon="-1.58484">
        <ele>35.2</ele>
      </trkpt>
      <trkpt lat="49.31736" lon="-1.58477">
        <ele>35.2</ele>
      </trkpt>
      <trkpt lat="49.31736" lon="-1.58467">
        <ele>35.3</ele>
      </trkpt>
      <trkpt lat="49.31734" lon="-1.58445">
        <ele>35.5</ele>
      </trkpt>
      <trkpt lat="49.3173" lon="-1.58425">
        <ele>35.7</ele>
      </trkpt>
      <trkpt lat="49.31726" lon="-1.58399">
        <ele>35.8</ele>
      </trkpt>
      <trkpt lat="49.31725" lon="-1.58385">
        <ele>35.8</ele>
      </trkpt>
      <trkpt lat="49.31725" lon="-1.58381">
        <ele>35.8</ele>
      </trkpt>
      <trkpt lat="49.31725" lon="-1.58369">
        <ele>35.9</ele>
      </trkpt>
      <trkpt lat="49.31727" lon="-1.58355">
        <ele>35.9</ele>
      </trkpt>
      <trkpt lat="49.31731" lon="-1.58344">
        <ele>36</ele>
      </trkpt>
      <trkpt lat="49.31738" lon="-1.58333">
        <ele>36</ele>
      </trkpt>
      <trkpt lat="49.31746" lon="-1.58319">
        <ele>35.8</ele>
      </trkpt>
      <trkpt lat="49.3175" lon="-1.58313">
        <ele>35.8</ele>
      </trkpt>
      <trkpt lat="49.31756" lon="-1.58304">
        <ele>35.7</ele>
      </trkpt>
      <trkpt lat="49.31761" lon="-1.58295">
        <ele>35.7</ele>
      </trkpt>
      <trkpt lat="49.31767" lon="-1.58283">
        <ele>35.6</ele>
      </trkpt>
      <trkpt lat="49.31771" lon="-1.58272">
        <ele>35.5</ele>
      </trkpt>
      <trkpt lat="49.31773" lon="-1.58264">
        <ele>35.4</ele>
      </trkpt>
      <trkpt lat="49.31775" lon="-1.58254">
        <ele>35.3</ele>
      </trkpt>
      <trkpt lat="49.31778" lon="-1.58243">
        <ele>35.5</ele>
      </trkpt>
      <trkpt lat="49.3178" lon="-1.58234">
        <ele>35.7</ele>
      </trkpt>
      <trkpt lat="49.31784" lon="-1.58227">
        <ele>35.9</ele>
      </trkpt>
      <trkpt lat="49.31794" lon="-1.58213">
        <ele>36.2</ele>
      </trkpt>
      <trkpt lat="49.31811" lon="-1.58202">
        <ele>36.5</ele>
      </trkpt>
      <trkpt lat="49.3182" lon="-1.58194">
        <ele>36.6</ele>
      </trkpt>
      <trkpt lat="49.31826" lon="-1.58187">
        <ele>36.7</ele>
      </trkpt>
      <trkpt lat="49.31831" lon="-1.58181">
        <ele>36.8</ele>
      </trkpt>
      <trkpt lat="49.31833" lon="-1.58178">
        <ele>36.9</ele>
      </trkpt>
      <trkpt lat="49.31834" lon="-1.5817">
        <ele>37</ele>
      </trkpt>
      <trkpt lat="49.31835" lon="-1.58155">
        <ele>37</ele>
      </trkpt>
      <trkpt lat="49.31839" lon="-1.58131">
        <ele>37</ele>
      </trkpt>
      <trkpt lat="49.31844" lon="-1.58115">
        <ele>37.1</ele>
      </trkpt>
      <trkpt lat="49.31847" lon="-1.58105">
        <ele>37.1</ele>
      </trkpt>
      <trkpt lat="49.31856" lon="-1.58074">
        <ele>37.2</ele>
      </trkpt>
      <trkpt lat="49.31862" lon="-1.58038">
        <ele>37.2</ele>
      </trkpt>
      <trkpt lat="49.31863" lon="-1.58035">
        <ele>37.2</ele>
      </trkpt>
      <trkpt lat="49.31867" lon="-1.58014">
        <ele>37.1</ele>
      </trkpt>
      <trkpt lat="49.3187" lon="-1.58003">
        <ele>37</ele>
      </trkpt>
      <trkpt lat="49.31874" lon="-1.57986">
        <ele>37.2</ele>
      </trkpt>
      <trkpt lat="49.31883" lon="-1.57952">
        <ele>37.6</ele>
      </trkpt>
      <trkpt lat="49.31886" lon="-1.57944">
        <ele>37.7</ele>
      </trkpt>
      <trkpt lat="49.31897" lon="-1.57901">
        <ele>38</ele>
      </trkpt>
      <trkpt lat="49.31911" lon="-1.57861">
        <ele>38</ele>
      </trkpt>
      <trkpt lat="49.31916" lon="-1.57847">
        <ele>38</ele>
      </trkpt>
      <trkpt lat="49.31925" lon="-1.57824">
        <ele>38.4</ele>
      </trkpt>
      <trkpt lat="49.3194" lon="-1.57771">
        <ele>39.8</ele>
      </trkpt>
      <trkpt lat="49.31948" lon="-1.57741">
        <ele>40.5</ele>
      </trkpt>
      <trkpt lat="49.31959" lon="-1.57705">
        <ele>41</ele>
      </trkpt>
      <trkpt lat="49.31964" lon="-1.57689">
        <ele>41.2</ele>
      </trkpt>
      <trkpt lat="49.31965" lon="-1.57688">
        <ele>41.2</ele>
      </trkpt>
      <trkpt lat="49.3197" lon="-1.5766">
        <ele>41.6</ele>
      </trkpt>
      <trkpt lat="49.31974" lon="-1.57638">
        <ele>42.3</ele>
      </trkpt>
      <trkpt lat="49.31974" lon="-1.5763">
        <ele>42.6</ele>
      </trkpt>
      <trkpt lat="49.31976" lon="-1.57626">
        <ele>42.8</ele>
      </trkpt>
      <trkpt lat="49.31978" lon="-1.57623">
        <ele>42.8</ele>
      </trkpt>
      <trkpt lat="49.31991" lon="-1.57617">
        <ele>42.9</ele>
      </trkpt>
      <trkpt lat="49.31998" lon="-1.57612">
        <ele>43</ele>
      </trkpt>
      <trkpt lat="49.32016" lon="-1.57605">
        <ele>43.3</ele>
      </trkpt>
      <trkpt lat="49.32023" lon="-1.57602">
        <ele>43.5</ele>
      </trkpt>
      <trkpt lat="49.32038" lon="-1.57597">
        <ele>43.7</ele>
      </trkpt>
      <trkpt lat="49.32052" lon="-1.57593">
        <ele>43.8</ele>
      </trkpt>
      <trkpt lat="49.32064" lon="-1.57588">
        <ele>43.9</ele>
      </trkpt>
      <trkpt lat="49.32068" lon="-1.57585">
        <ele>44</ele>
      </trkpt>
      <trkpt lat="49.32071" lon="-1.57575">
        <ele>44.2</ele>
      </trkpt>
      <trkpt lat="49.3206" lon="-1.57568">
        <ele>44.4</ele>
      </trkpt>
      <trkpt lat="49.32038" lon="-1.57552">
        <ele>44.8</ele>
      </trkpt>
      <trkpt lat="49.32017" lon="-1.57536">
        <ele>45.1</ele>
      </trkpt>
      <trkpt lat="49.32005" lon="-1.57527">
        <ele>45.3</ele>
      </trkpt>
      <trkpt lat="49.31991" lon="-1.57516">
        <ele>45.6</ele>
      </trkpt>
      <trkpt lat="49.3198" lon="-1.57509">
        <ele>45.8</ele>
      </trkpt>
      <trkpt lat="49.31962" lon="-1.57499">
        <ele>46</ele>
      </trkpt>
      <trkpt lat="49.31945" lon="-1.5749">
        <ele>46</ele>
      </trkpt>
      <trkpt lat="49.3193" lon="-1.57485">
        <ele>45.9</ele>
      </trkpt>
      <trkpt lat="49.31905" lon="-1.5748">
        <ele>45.7</ele>
      </trkpt>
      <trkpt lat="49.31879" lon="-1.57475">
        <ele>45.4</ele>
      </trkpt>
      <trkpt lat="49.31856" lon="-1.5747">
        <ele>45.2</ele>
      </trkpt>
      <trkpt lat="49.31848" lon="-1.57467">
        <ele>45.1</ele>
      </trkpt>
      <trkpt lat="49.31839" lon="-1.57464">
        <ele>45</ele>
      </trkpt>
      <trkpt lat="49.31845" lon="-1.57452">
        <ele>45.1</ele>
      </trkpt>
      <trkpt lat="49.31859" lon="-1.57425">
        <ele>45</ele>
      </trkpt>
      <trkpt lat="49.3187" lon="-1.57405">
        <ele>44.8</ele>
      </trkpt>
      <trkpt lat="49.31882" lon="-1.57378">
        <ele>44.6</ele>
      </trkpt>
      <trkpt lat="49.3189" lon="-1.57359">
        <ele>44.6</ele>
      </trkpt>
      <trkpt lat="49.31896" lon="-1.57339">
        <ele>44.5</ele>
      </trkpt>
      <trkpt lat="49.31903" lon="-1.57316">
        <ele>44.8</ele>
      </trkpt>
      <trkpt lat="49.3191" lon="-1.57288">
        <ele>45.3</ele>
      </trkpt>
      <trkpt lat="49.31914" lon="-1.57256">
        <ele>45.8</ele>
      </trkpt>
      <trkpt lat="49.31916" lon="-1.5724">
        <ele>46</ele>
      </trkpt>
      <trkpt lat="49.31916" lon="-1.57233">
        <ele>46</ele>
      </trkpt>
      <trkpt lat="49.31917" lon="-1.57224">
        <ele>46</ele>
      </trkpt>
      <trkpt lat="49.31918" lon="-1.57203">
        <ele>46</ele>
      </trkpt>
      <trkpt lat="49.31917" lon="-1.57199">
        <ele>46</ele>
      </trkpt>
      <trkpt lat="49.31918" lon="-1.57188">
        <ele>46.1</ele>
      </trkpt>
      <trkpt lat="49.31921" lon="-1.57154">
        <ele>46.2</ele>
      </trkpt>
      <trkpt lat="49.31923" lon="-1.57137">
        <ele>46.3</ele>
      </trkpt>
      <trkpt lat="49.31923" lon="-1.57119">
        <ele>46.4</ele>
      </trkpt>
      <trkpt lat="49.31922" lon="-1.57103">
        <ele>46.3</ele>
      </trkpt>
      <trkpt lat="49.31921" lon="-1.5709">
        <ele>46.2</ele>
      </trkpt>
      <trkpt lat="49.3192" lon="-1.57081">
        <ele>46.2</ele>
      </trkpt>
      <trkpt lat="49.31921" lon="-1.57075">
        <ele>46.2</ele>
      </trkpt>
      <trkpt lat="49.31922" lon="-1.57069">
        <ele>46.3</ele>
      </trkpt>
      <trkpt lat="49.3193" lon="-1.57056">
        <ele>46.8</ele>
      </trkpt>
      <trkpt lat="49.31941" lon="-1.57043">
        <ele>47.4</ele>
      </trkpt>
      <trkpt lat="49.31946" lon="-1.57035">
        <ele>47.8</ele>
      </trkpt>
      <trkpt lat="49.31947" lon="-1.57026">
        <ele>47.8</ele>
      </trkpt>
      <trkpt lat="49.31955" lon="-1.57028">
        <ele>48.3</ele>
      </trkpt>
      <trkpt lat="49.31961" lon="-1.57028">
        <ele>48.6</ele>
      </trkpt>
      <trkpt lat="49.31969" lon="-1.57026">
        <ele>49.1</ele>
      </trkpt>
      <trkpt lat="49.31982" lon="-1.57017">
        <ele>49.9</ele>
      </trkpt>
      <trkpt lat="49.31991" lon="-1.57011">
        <ele>50.5</ele>
      </trkpt>
      <trkpt lat="49.32004" lon="-1.57005">
        <ele>51.4</ele>
      </trkpt>
      <trkpt lat="49.32025" lon="-1.56995">
        <ele>53.5</ele>
      </trkpt>
      <trkpt lat="49.32044" lon="-1.56982">
        <ele>55.6</ele>
      </trkpt>
      <trkpt lat="49.32047" lon="-1.56979">
        <ele>55.9</ele>
      </trkpt>
      <trkpt lat="49.32055" lon="-1.56972">
        <ele>56.7</ele>
      </trkpt>
      <trkpt lat="49.32065" lon="-1.56959">
        <ele>57.9</ele>
      </trkpt>
      <trkpt lat="49.32073" lon="-1.56949">
        <ele>58.7</ele>
      </trkpt>
      <trkpt lat="49.32079" lon="-1.56942">
        <ele>59.3</ele>
      </trkpt>
      <trkpt lat="49.32084" lon="-1.56939">
        <ele>59.8</ele>
      </trkpt>
      <trkpt lat="49.32175" lon="-1.56848">
        <ele>73.9</ele>
      </trkpt>
      <trkpt lat="49.32181" lon="-1.56866">
        <ele>73.3</ele>
      </trkpt>
      <trkpt lat="49.32192" lon="-1.56892">
        <ele>72.4</ele>
      </trkpt>
      <trkpt lat="49.32198" lon="-1.56889">
        <ele>73.2</ele>
      </trkpt>
      <trkpt lat="49.32199" lon="-1.56883">
        <ele>73.9</ele>
      </trkpt>
      <trkpt lat="49.32201" lon="-1.56869">
        <ele>75.2</ele>
      </trkpt>
      <trkpt lat="49.32202" lon="-1.56857">
        <ele>76.2</ele>
      </trkpt>
      <trkpt lat="49.32202" lon="-1.56839">
        <ele>77.7</ele>
      </trkpt>
      <trkpt lat="49.32203" lon="-1.56828">
        <ele>78.5</ele>
      </trkpt>
      <trkpt lat="49.32199" lon="-1.56823">
        <ele>78.2</ele>
      </trkpt>
      <trkpt lat="49.32197" lon="-1.56816">
        <ele>78.1</ele>
      </trkpt>
      <trkpt lat="49.32197" lon="-1.56809">
        <ele>78.3</ele>
      </trkpt>
      <trkpt lat="49.32199" lon="-1.56802">
        <ele>78.7</ele>
      </trkpt>
      <trkpt lat="49.32204" lon="-1.56793">
        <ele>79.6</ele>
      </trkpt>
      <trkpt lat="49.32209" lon="-1.56783">
        <ele>80.5</ele>
      </trkpt>
      <trkpt lat="49.32215" lon="-1.56776">
        <ele>81.7</ele>
      </trkpt>
      <trkpt lat="49.32221" lon="-1.56772">
        <ele>82.7</ele>
      </trkpt>
      <trkpt lat="49.32227" lon="-1.56769">
        <ele>83.6</ele>
      </trkpt>
      <trkpt lat="49.3223" lon="-1.56764">
        <ele>84.3</ele>
      </trkpt>
      <trkpt lat="49.32232" lon="-1.56757">
        <ele>84.9</ele>
      </trkpt>
      <trkpt lat="49.32235" lon="-1.56751">
        <ele>85.6</ele>
      </trkpt>
      <trkpt lat="49.3224" lon="-1.56743">
        <ele>86.7</ele>
      </trkpt>
      <trkpt lat="49.32241" lon="-1.56741">
        <ele>87.1</ele>
      </trkpt>
      <trkpt lat="49.32246" lon="-1.56736">
        <ele>88.1</ele>
      </trkpt>
      <trkpt lat="49.32252" lon="-1.56732">
        <ele>89</ele>
      </trkpt>
      <trkpt lat="49.32259" lon="-1.56733">
        <ele>89.9</ele>
      </trkpt>
      <trkpt lat="49.32267" lon="-1.56732">
        <ele>91</ele>
      </trkpt>
      <trkpt lat="49.32275" lon="-1.5673">
        <ele>92.1</ele>
      </trkpt>
      <trkpt lat="49.32284" lon="-1.56726">
        <ele>93.4</ele>
      </trkpt>
      <trkpt lat="49.32292" lon="-1.56721">
        <ele>94.8</ele>
      </trkpt>
      <trkpt lat="49.32299" lon="-1.56717">
        <ele>95.9</ele>
      </trkpt>
      <trkpt lat="49.3231" lon="-1.56714">
        <ele>97.6</ele>
      </trkpt>
      <trkpt lat="49.32316" lon="-1.56715">
        <ele>98.3</ele>
      </trkpt>
      <trkpt lat="49.32324" lon="-1.56718">
        <ele>99.1</ele>
      </trkpt>
      <trkpt lat="49.32334" lon="-1.56715">
        <ele>100.6</ele>
      </trkpt>
      <trkpt lat="49.32346" lon="-1.56711">
        <ele>102</ele>
      </trkpt>
      <trkpt lat="49.32358" lon="-1.56709">
        <ele>103.1</ele>
      </trkpt>
      <trkpt lat="49.3237" lon="-1.56705">
        <ele>104.5</ele>
      </trkpt>
      <trkpt lat="49.32386" lon="-1.56699">
        <ele>106.4</ele>
      </trkpt>
      <trkpt lat="49.3241" lon="-1.56691">
        <ele>108.9</ele>
      </trkpt>
      <trkpt lat="49.32418" lon="-1.56688">
        <ele>109.8</ele>
      </trkpt>
      <trkpt lat="49.32429" lon="-1.56684">
        <ele>110.7</ele>
      </trkpt>
      <trkpt lat="49.32437" lon="-1.56683">
        <ele>111.1</ele>
      </trkpt>
      <trkpt lat="49.32445" lon="-1.56681">
        <ele>111.6</ele>
      </trkpt>
      <trkpt lat="49.32492" lon="-1.56658">
        <ele>115</ele>
      </trkpt>
      <trkpt lat="49.32497" lon="-1.56646">
        <ele>115.8</ele>
      </trkpt>
      <trkpt lat="49.32501" lon="-1.56632">
        <ele>116.7</ele>
      </trkpt>
      <trkpt lat="49.32504" lon="-1.56622">
        <ele>117.3</ele>
      </trkpt>
      <trkpt lat="49.32508" lon="-1.56615">
        <ele>117.8</ele>
      </trkpt>
      <trkpt lat="49.32514" lon="-1.56609">
        <ele>118.2</ele>
      </trkpt>
      <trkpt lat="49.32526" lon="-1.56599">
        <ele>119</ele>
      </trkpt>
      <trkpt lat="49.32543" lon="-1.56581">
        <ele>120.1</ele>
      </trkpt>
      <trkpt lat="49.32562" lon="-1.56566">
        <ele>120.6</ele>
      </trkpt>
      <trkpt lat="49.32567" lon="-1.56562">
        <ele>120.8</ele>
      </trkpt>
      <trkpt lat="49.32574" lon="-1.56557">
        <ele>121.1</ele>
      </trkpt>
      <trkpt lat="49.32579" lon="-1.56556">
        <ele>121.2</ele>
      </trkpt>
      <trkpt lat="49.32583" lon="-1.56554">
        <ele>121.3</ele>
      </trkpt>
      <trkpt lat="49.32587" lon="-1.56553">
        <ele>121.5</ele>
      </trkpt>
      <trkpt lat="49.32591" lon="-1.56553">
        <ele>121.6</ele>
      </trkpt>
      <trkpt lat="49.32595" lon="-1.56553">
        <ele>121.6</ele>
      </trkpt>
      <trkpt lat="49.32599" lon="-1.56554">
        <ele>121.7</ele>
      </trkpt>
      <trkpt lat="49.32604" lon="-1.56555">
        <ele>121.8</ele>
      </trkpt>
      <trkpt lat="49.32609" lon="-1.56555">
        <ele>122</ele>
      </trkpt>
      <trkpt lat="49.32614" lon="-1.56555">
        <ele>122.1</ele>
      </trkpt>
      <trkpt lat="49.3262" lon="-1.56554">
        <ele>122.2</ele>
      </trkpt>
      <trkpt lat="49.32625" lon="-1.56553">
        <ele>122.4</ele>
      </trkpt>
      <trkpt lat="49.3263" lon="-1.56552">
        <ele>122.5</ele>
      </trkpt>
      <trkpt lat="49.32637" lon="-1.56551">
        <ele>122.7</ele>
      </trkpt>
      <trkpt lat="49.32644" lon="-1.5655">
        <ele>122.9</ele>
      </trkpt>
      <trkpt lat="49.32651" lon="-1.56549">
        <ele>123</ele>
      </trkpt>
      <trkpt lat="49.32656" lon="-1.56548">
        <ele>123.2</ele>
      </trkpt>
      <trkpt lat="49.32661" lon="-1.56547">
        <ele>123.3</ele>
      </trkpt>
      <trkpt lat="49.32665" lon="-1.56546">
        <ele>123.4</ele>
      </trkpt>
      <trkpt lat="49.32671" lon="-1.56543">
        <ele>123.5</ele>
      </trkpt>
      <trkpt lat="49.32676" lon="-1.56539">
        <ele>123.5</ele>
      </trkpt>
      <trkpt lat="49.32679" lon="-1.56529">
        <ele>123.6</ele>
      </trkpt>
      <trkpt lat="49.32682" lon="-1.56521">
        <ele>123.7</ele>
      </trkpt>
      <trkpt lat="49.32683" lon="-1.56513">
        <ele>123.8</ele>
      </trkpt>
      <trkpt lat="49.32683" lon="-1.56506">
        <ele>123.9</ele>
      </trkpt>
      <trkpt lat="49.32684" lon="-1.56497">
        <ele>124.1</ele>
      </trkpt>
      <trkpt lat="49.32685" lon="-1.56489">
        <ele>124.2</ele>
      </trkpt>
      <trkpt lat="49.32687" lon="-1.56481">
        <ele>124.4</ele>
      </trkpt>
      <trkpt lat="49.3269" lon="-1.56474">
        <ele>124.5</ele>
      </trkpt>
      <trkpt lat="49.32693" lon="-1.56468">
        <ele>124.7</ele>
      </trkpt>
      <trkpt lat="49.32696" lon="-1.56463">
        <ele>124.7</ele>
      </trkpt>
      <trkpt lat="49.32699" lon="-1.56456">
        <ele>124.9</ele>
      </trkpt>
      <trkpt lat="49.32701" lon="-1.56449">
        <ele>125</ele>
      </trkpt>
      <trkpt lat="49.32704" lon="-1.56443">
        <ele>125.1</ele>
      </trkpt>
      <trkpt lat="49.32707" lon="-1.56438">
        <ele>125.1</ele>
      </trkpt>
      <trkpt lat="49.32709" lon="-1.56433">
        <ele>125.2</ele>
      </trkpt>
      <trkpt lat="49.32713" lon="-1.5643">
        <ele>125.2</ele>
      </trkpt>
      <trkpt lat="49.32717" lon="-1.56423">
        <ele>125.3</ele>
      </trkpt>
      <trkpt lat="49.3272" lon="-1.56415">
        <ele>125.3</ele>
      </trkpt>
      <trkpt lat="49.32721" lon="-1.56411">
        <ele>125.2</ele>
      </trkpt>
      <trkpt lat="49.32714" lon="-1.56407">
        <ele>125.2</ele>
      </trkpt>
      <trkpt lat="49.32704" lon="-1.56401">
        <ele>125.2</ele>
      </trkpt>
      <trkpt lat="49.32686" lon="-1.56393">
        <ele>125.2</ele>
      </trkpt>
      <trkpt lat="49.32669" lon="-1.56393">
        <ele>125.4</ele>
      </trkpt>
      <trkpt lat="49.3266" lon="-1.56393">
        <ele>125.2</ele>
      </trkpt>
      <trkpt lat="49.32653" lon="-1.56392">
        <ele>125</ele>
      </trkpt>
      <trkpt lat="49.32642" lon="-1.56388">
        <ele>124.6</ele>
      </trkpt>
      <trkpt lat="49.32633" lon="-1.56378">
        <ele>124.2</ele>
      </trkpt>
      <trkpt lat="49.32621" lon="-1.56366">
        <ele>123.8</ele>
      </trkpt>
      <trkpt lat="49.32607" lon="-1.56353">
        <ele>123.4</ele>
      </trkpt>
      <trkpt lat="49.32603" lon="-1.56348">
        <ele>123.3</ele>
      </trkpt>
      <trkpt lat="49.326" lon="-1.56346">
        <ele>123.3</ele>
      </trkpt>
      <trkpt lat="49.32587" lon="-1.56327">
        <ele>122.8</ele>
      </trkpt>
      <trkpt lat="49.32576" lon="-1.56309">
        <ele>122.1</ele>
      </trkpt>
      <trkpt lat="49.32561" lon="-1.56284">
        <ele>121.4</ele>
      </trkpt>
      <trkpt lat="49.32552" lon="-1.5627">
        <ele>121</ele>
      </trkpt>
      <trkpt lat="49.32545" lon="-1.56261">
        <ele>120.8</ele>
      </trkpt>
      <trkpt lat="49.32529" lon="-1.5624">
        <ele>120</ele>
      </trkpt>
      <trkpt lat="49.32514" lon="-1.56224">
        <ele>119.2</ele>
      </trkpt>
      <trkpt lat="49.32507" lon="-1.56219">
        <ele>119</ele>
      </trkpt>
      <trkpt lat="49.32493" lon="-1.56212">
        <ele>118.8</ele>
      </trkpt>
      <trkpt lat="49.32485" lon="-1.5621">
        <ele>118.7</ele>
      </trkpt>
      <trkpt lat="49.32478" lon="-1.56206">
        <ele>118.5</ele>
      </trkpt>
      <trkpt lat="49.32471" lon="-1.562">
        <ele>118.3</ele>
      </trkpt>
      <trkpt lat="49.3245" lon="-1.56184">
        <ele>117.9</ele>
      </trkpt>
      <trkpt lat="49.32431" lon="-1.5617">
        <ele>117.8</ele>
      </trkpt>
      <trkpt lat="49.32407" lon="-1.56155">
        <ele>117.2</ele>
      </trkpt>
      <trkpt lat="49.32365" lon="-1.56127">
        <ele>116</ele>
      </trkpt>
      <trkpt lat="49.32358" lon="-1.56122">
        <ele>115.9</ele>
      </trkpt>
      <trkpt lat="49.32345" lon="-1.56114">
        <ele>115.8</ele>
      </trkpt>
      <trkpt lat="49.32323" lon="-1.561">
        <ele>114.9</ele>
      </trkpt>
      <trkpt lat="49.32286" lon="-1.56074">
        <ele>111.4</ele>
      </trkpt>
      <trkpt lat="49.32263" lon="-1.56058">
        <ele>109.3</ele>
      </trkpt>
      <trkpt lat="49.32257" lon="-1.56054">
        <ele>108.9</ele>
      </trkpt>
      <trkpt lat="49.32244" lon="-1.56043">
        <ele>107.6</ele>
      </trkpt>
      <trkpt lat="49.32237" lon="-1.56032">
        <ele>106.7</ele>
      </trkpt>
      <trkpt lat="49.32241" lon="-1.56023">
        <ele>106.6</ele>
      </trkpt>
      <trkpt lat="49.32252" lon="-1.56003">
        <ele>106.1</ele>
      </trkpt>
      <trkpt lat="49.32259" lon="-1.55986">
        <ele>104.5</ele>
      </trkpt>
      <trkpt lat="49.32265" lon="-1.55968">
        <ele>102.7</ele>
      </trkpt>
      <trkpt lat="49.32269" lon="-1.55945">
        <ele>100.4</ele>
      </trkpt>
      <trkpt lat="49.32269" lon="-1.55935">
        <ele>99.4</ele>
      </trkpt>
      <trkpt lat="49.32266" lon="-1.55917">
        <ele>97.6</ele>
      </trkpt>
      <trkpt lat="49.32263" lon="-1.55899">
        <ele>95.8</ele>
      </trkpt>
      <trkpt lat="49.32253" lon="-1.55875">
        <ele>93.4</ele>
      </trkpt>
      <trkpt lat="49.32241" lon="-1.5585">
        <ele>91</ele>
      </trkpt>
      <trkpt lat="49.32236" lon="-1.55842">
        <ele>90.4</ele>
      </trkpt>
      <trkpt lat="49.32247" lon="-1.55831">
        <ele>88.9</ele>
      </trkpt>
      <trkpt lat="49.32256" lon="-1.55818">
        <ele>87.1</ele>
      </trkpt>
      <trkpt lat="49.32259" lon="-1.55814">
        <ele>86.5</ele>
      </trkpt>
      <trkpt lat="49.32262" lon="-1.55809">
        <ele>85.8</ele>
      </trkpt>
      <trkpt lat="49.32266" lon="-1.558">
        <ele>84.6</ele>
      </trkpt>
      <trkpt lat="49.32272" lon="-1.55781">
        <ele>82</ele>
      </trkpt>
      <trkpt lat="49.32275" lon="-1.5577">
        <ele>80.5</ele>
      </trkpt>
      <trkpt lat="49.32279" lon="-1.5575">
        <ele>77.9</ele>
      </trkpt>
      <trkpt lat="49.32322" lon="-1.55737">
        <ele>73.3</ele>
      </trkpt>
      <trkpt lat="49.32349" lon="-1.55727">
        <ele>70.9</ele>
      </trkpt>
      <trkpt lat="49.32371" lon="-1.55713">
        <ele>68.8</ele>
      </trkpt>
      <trkpt lat="49.32393" lon="-1.55699">
        <ele>66.9</ele>
      </trkpt>
      <trkpt lat="49.32405" lon="-1.55695">
        <ele>66.3</ele>
      </trkpt>
      <trkpt lat="49.32414" lon="-1.55691">
        <ele>65.8</ele>
      </trkpt>
      <trkpt lat="49.32437" lon="-1.55685">
        <ele>65.2</ele>
      </trkpt>
      <trkpt lat="49.32452" lon="-1.55679">
        <ele>64.8</ele>
      </trkpt>
      <trkpt lat="49.32465" lon="-1.55674">
        <ele>64.5</ele>
      </trkpt>
      <trkpt lat="49.32484" lon="-1.55668">
        <ele>64.1</ele>
      </trkpt>
      <trkpt lat="49.32503" lon="-1.55655">
        <ele>62.8</ele>
      </trkpt>
      <trkpt lat="49.3252" lon="-1.55638">
        <ele>60.2</ele>
      </trkpt>
      <trkpt lat="49.32533" lon="-1.55628">
        <ele>58.5</ele>
      </trkpt>
      <trkpt lat="49.32541" lon="-1.55614">
        <ele>57</ele>
      </trkpt>
      <trkpt lat="49.32551" lon="-1.556">
        <ele>55.6</ele>
      </trkpt>
      <trkpt lat="49.32557" lon="-1.55596">
        <ele>55</ele>
      </trkpt>
      <trkpt lat="49.32564" lon="-1.55591">
        <ele>54.4</ele>
      </trkpt>
      <trkpt lat="49.32585" lon="-1.55578">
        <ele>52.5</ele>
      </trkpt>
      <trkpt lat="49.32603" lon="-1.55566">
        <ele>50.6</ele>
      </trkpt>
      <trkpt lat="49.32607" lon="-1.55563">
        <ele>50.2</ele>
      </trkpt>
      <trkpt lat="49.32619" lon="-1.55555">
        <ele>48.9</ele>
      </trkpt>
      <trkpt lat="49.32638" lon="-1.5554">
        <ele>46.9</ele>
      </trkpt>
      <trkpt lat="49.32656" lon="-1.55527">
        <ele>45.2</ele>
      </trkpt>
      <trkpt lat="49.32663" lon="-1.55523">
        <ele>44.5</ele>
      </trkpt>
      <trkpt lat="49.32673" lon="-1.55516">
        <ele>43.7</ele>
      </trkpt>
      <trkpt lat="49.32688" lon="-1.55507">
        <ele>42.7</ele>
      </trkpt>
      <trkpt lat="49.327" lon="-1.55502">
        <ele>41.9</ele>
      </trkpt>
      <trkpt lat="49.32713" lon="-1.55499">
        <ele>41.3</ele>
      </trkpt>
      <trkpt lat="49.32724" lon="-1.55499">
        <ele>40.9</ele>
      </trkpt>
      <trkpt lat="49.32724" lon="-1.55494">
        <ele>40.6</ele>
      </trkpt>
      <trkpt lat="49.32727" lon="-1.55483">
        <ele>40</ele>
      </trkpt>
      <trkpt lat="49.32723" lon="-1.55474">
        <ele>39.7</ele>
      </trkpt>
      <trkpt lat="49.32703" lon="-1.55423">
        <ele>38</ele>
      </trkpt>
      <trkpt lat="49.32684" lon="-1.55379">
        <ele>37.6</ele>
      </trkpt>
      <trkpt lat="49.32675" lon="-1.55352">
        <ele>37.2</ele>
      </trkpt>
      <trkpt lat="49.32666" lon="-1.55328">
        <ele>37</ele>
      </trkpt>
      <trkpt lat="49.32665" lon="-1.55325">
        <ele>37</ele>
      </trkpt>
      <trkpt lat="49.32661" lon="-1.55314">
        <ele>37</ele>
      </trkpt>
      <trkpt lat="49.32663" lon="-1.55307">
        <ele>36.8</ele>
      </trkpt>
      <trkpt lat="49.32665" lon="-1.55297">
        <ele>36.6</ele>
      </trkpt>
      <trkpt lat="49.32666" lon="-1.55283">
        <ele>36.4</ele>
      </trkpt>
      <trkpt lat="49.32667" lon="-1.55252">
        <ele>36</ele>
      </trkpt>
      <trkpt lat="49.32667" lon="-1.55234">
        <ele>36.4</ele>
      </trkpt>
      <trkpt lat="49.32667" lon="-1.5522">
        <ele>36.7</ele>
      </trkpt>
      <trkpt lat="49.32662" lon="-1.5516">
        <ele>38</ele>
      </trkpt>
      <trkpt lat="49.32661" lon="-1.55138">
        <ele>38</ele>
      </trkpt>
      <trkpt lat="49.32659" lon="-1.55113">
        <ele>38</ele>
      </trkpt>
      <trkpt lat="49.32658" lon="-1.55097">
        <ele>38</ele>
      </trkpt>
      <trkpt lat="49.32657" lon="-1.55074">
        <ele>38</ele>
      </trkpt>
      <trkpt lat="49.32654" lon="-1.5504">
        <ele>37.8</ele>
      </trkpt>
      <trkpt lat="49.32652" lon="-1.55008">
        <ele>37.7</ele>
      </trkpt>
      <trkpt lat="49.32649" lon="-1.54979">
        <ele>37.6</ele>
      </trkpt>
      <trkpt lat="49.32647" lon="-1.54955">
        <ele>37.5</ele>
      </trkpt>
      <trkpt lat="49.32646" lon="-1.54939">
        <ele>37.5</ele>
      </trkpt>
      <trkpt lat="49.32644" lon="-1.54926">
        <ele>37.5</ele>
      </trkpt>
      <trkpt lat="49.32644" lon="-1.54922">
        <ele>37.5</ele>
      </trkpt>
      <trkpt lat="49.32642" lon="-1.54907">
        <ele>37.2</ele>
      </trkpt>
      <trkpt lat="49.32642" lon="-1.54904">
        <ele>37.2</ele>
      </trkpt>
      <trkpt lat="49.3264" lon="-1.54887">
        <ele>36.9</ele>
      </trkpt>
      <trkpt lat="49.32636" lon="-1.54865">
        <ele>36.5</ele>
      </trkpt>
      <trkpt lat="49.32632" lon="-1.54845">
        <ele>36.2</ele>
      </trkpt>
      <trkpt lat="49.3263" lon="-1.54834">
        <ele>36</ele>
      </trkpt>
      <trkpt lat="49.32627" lon="-1.54819">
        <ele>35.7</ele>
      </trkpt>
      <trkpt lat="49.32618" lon="-1.54786">
        <ele>35</ele>
      </trkpt>
      <trkpt lat="49.32616" lon="-1.54776">
        <ele>34.8</ele>
      </trkpt>
      <trkpt lat="49.32611" lon="-1.54756">
        <ele>34.5</ele>
      </trkpt>
      <trkpt lat="49.32605" lon="-1.5473">
        <ele>33.6</ele>
      </trkpt>
      <trkpt lat="49.32601" lon="-1.54714">
        <ele>32.9</ele>
      </trkpt>
      <trkpt lat="49.32591" lon="-1.54682">
        <ele>31.6</ele>
      </trkpt>
      <trkpt lat="49.32586" lon="-1.54666">
        <ele>31</ele>
      </trkpt>
      <trkpt lat="49.32584" lon="-1.54658">
        <ele>30.9</ele>
      </trkpt>
      <trkpt lat="49.32584" lon="-1.54654">
        <ele>30.8</ele>
      </trkpt>
      <trkpt lat="49.32584" lon="-1.5465">
        <ele>30.8</ele>
      </trkpt>
      <trkpt lat="49.32585" lon="-1.54639">
        <ele>30.6</ele>
      </trkpt>
      <trkpt lat="49.32575" lon="-1.54641">
        <ele>30.8</ele>
      </trkpt>
      <trkpt lat="49.32567" lon="-1.54646">
        <ele>31</ele>
      </trkpt>
      <trkpt lat="49.32559" lon="-1.54652">
        <ele>31.1</ele>
      </trkpt>
      <trkpt lat="49.32537" lon="-1.54678">
        <ele>32.1</ele>
      </trkpt>
      <trkpt lat="49.3252" lon="-1.54701">
        <ele>33.4</ele>
      </trkpt>
      <trkpt lat="49.32496" lon="-1.54731">
        <ele>35.1</ele>
      </trkpt>
      <trkpt lat="49.3249" lon="-1.5474">
        <ele>35.5</ele>
      </trkpt>
      <trkpt lat="49.32485" lon="-1.54747">
        <ele>35.7</ele>
      </trkpt>
      <trkpt lat="49.32476" lon="-1.54759">
        <ele>35.8</ele>
      </trkpt>
      <trkpt lat="49.3246" lon="-1.54779">
        <ele>35.7</ele>
      </trkpt>
      <trkpt lat="49.32439" lon="-1.54799">
        <ele>35.4</ele>
      </trkpt>
      <trkpt lat="49.3243" lon="-1.54809">
        <ele>35.3</ele>
      </trkpt>
      <trkpt lat="49.32424" lon="-1.54818">
        <ele>35.2</ele>
      </trkpt>
      <trkpt lat="49.32421" lon="-1.54823">
        <ele>35.1</ele>
      </trkpt>
      <trkpt lat="49.32408" lon="-1.5479">
        <ele>34.4</ele>
      </trkpt>
      <trkpt lat="49.32398" lon="-1.54769">
        <ele>33.7</ele>
      </trkpt>
      <trkpt lat="49.32378" lon="-1.5472">
        <ele>32.8</ele>
      </trkpt>
      <trkpt lat="49.32374" lon="-1.54711">
        <ele>32.6</ele>
      </trkpt>
      <trkpt lat="49.32373" lon="-1.547">
        <ele>32.8</ele>
      </trkpt>
      <trkpt lat="49.32376" lon="-1.54681">
        <ele>33.4</ele>
      </trkpt>
      <trkpt lat="49.32378" lon="-1.54667">
        <ele>33.7</ele>
      </trkpt>
      <trkpt lat="49.32381" lon="-1.54655">
        <ele>33.5</ele>
      </trkpt>
      <trkpt lat="49.32381" lon="-1.54643">
        <ele>32.9</ele>
      </trkpt>
      <trkpt lat="49.32379" lon="-1.54634">
        <ele>32.3</ele>
      </trkpt>
      <trkpt lat="49.3237" lon="-1.54615">
        <ele>30.6</ele>
      </trkpt>
      <trkpt lat="49.32359" lon="-1.546">
        <ele>28.7</ele>
      </trkpt>
      <trkpt lat="49.32355" lon="-1.54594">
        <ele>27.9</ele>
      </trkpt>
      <trkpt lat="49.32344" lon="-1.54578">
        <ele>25.8</ele>
      </trkpt>
      <trkpt lat="49.32329" lon="-1.54551">
        <ele>23.3</ele>
      </trkpt>
      <trkpt lat="49.3233" lon="-1.54543">
        <ele>23</ele>
      </trkpt>
      <trkpt lat="49.32336" lon="-1.54532">
        <ele>22.8</ele>
      </trkpt>
      <trkpt lat="49.32337" lon="-1.54524">
        <ele>22.5</ele>
      </trkpt>
      <trkpt lat="49.32339" lon="-1.54517">
        <ele>22.3</ele>
      </trkpt>
      <trkpt lat="49.32339" lon="-1.54508">
        <ele>21.9</ele>
      </trkpt>
      <trkpt lat="49.32339" lon="-1.54501">
        <ele>21.5</ele>
      </trkpt>
      <trkpt lat="49.3234" lon="-1.54492">
        <ele>21.4</ele>
      </trkpt>
      <trkpt lat="49.32341" lon="-1.54484">
        <ele>21.4</ele>
      </trkpt>
      <trkpt lat="49.32343" lon="-1.54474">
        <ele>21.3</ele>
      </trkpt>
      <trkpt lat="49.32345" lon="-1.54468">
        <ele>21.3</ele>
      </trkpt>
      <trkpt lat="49.32346" lon="-1.54459">
        <ele>21.1</ele>
      </trkpt>
      <trkpt lat="49.32347" lon="-1.54454">
        <ele>21</ele>
      </trkpt>
      <trkpt lat="49.32347" lon="-1.54448">
        <ele>20.9</ele>
      </trkpt>
      <trkpt lat="49.32346" lon="-1.54438">
        <ele>20.6</ele>
      </trkpt>
      <trkpt lat="49.32349" lon="-1.54413">
        <ele>20.3</ele>
      </trkpt>
      <trkpt lat="49.32342" lon="-1.54385">
        <ele>21</ele>
      </trkpt>
      <trkpt lat="49.32345" lon="-1.54381">
        <ele>21</ele>
      </trkpt>
      <trkpt lat="49.32349" lon="-1.54376">
        <ele>21</ele>
      </trkpt>
      <trkpt lat="49.32355" lon="-1.54368">
        <ele>21</ele>
      </trkpt>
      <trkpt lat="49.32358" lon="-1.54362">
        <ele>20.9</ele>
      </trkpt>
      <trkpt lat="49.32368" lon="-1.54346">
        <ele>20.5</ele>
      </trkpt>
      <trkpt lat="49.32371" lon="-1.54339">
        <ele>20.3</ele>
      </trkpt>
      <trkpt lat="49.32374" lon="-1.5433">
        <ele>20.3</ele>
      </trkpt>
      <trkpt lat="49.32378" lon="-1.54321">
        <ele>20.4</ele>
      </trkpt>
      <trkpt lat="49.32382" lon="-1.54313">
        <ele>20.6</ele>
      </trkpt>
      <trkpt lat="49.32389" lon="-1.54301">
        <ele>20.7</ele>
      </trkpt>
      <trkpt lat="49.32395" lon="-1.54289">
        <ele>20.7</ele>
      </trkpt>
      <trkpt lat="49.32402" lon="-1.54276">
        <ele>20.6</ele>
      </trkpt>
      <trkpt lat="49.32408" lon="-1.54267">
        <ele>20.4</ele>
      </trkpt>
      <trkpt lat="49.32412" lon="-1.54259">
        <ele>20.2</ele>
      </trkpt>
      <trkpt lat="49.32418" lon="-1.54248">
        <ele>20</ele>
      </trkpt>
      <trkpt lat="49.32424" lon="-1.54239">
        <ele>20.1</ele>
      </trkpt>
      <trkpt lat="49.32424" lon="-1.54239">
        <ele>20.1</ele>
      </trkpt>
      <trkpt lat="49.3243" lon="-1.54228">
        <ele>20.1</ele>
      </trkpt>
      <trkpt lat="49.32435" lon="-1.54218">
        <ele>20.1</ele>
      </trkpt>
      <trkpt lat="49.32439" lon="-1.54209">
        <ele>20.2</ele>
      </trkpt>
      <trkpt lat="49.32444" lon="-1.54199">
        <ele>20.2</ele>
      </trkpt>
      <trkpt lat="49.32448" lon="-1.54189">
        <ele>20.2</ele>
      </trkpt>
      <trkpt lat="49.32452" lon="-1.5418">
        <ele>20.1</ele>
      </trkpt>
      <trkpt lat="49.32456" lon="-1.54172">
        <ele>20</ele>
      </trkpt>
      <trkpt lat="49.32462" lon="-1.54163">
        <ele>19.9</ele>
      </trkpt>
      <trkpt lat="49.32467" lon="-1.54156">
        <ele>19.7</ele>
      </trkpt>
      <trkpt lat="49.32474" lon="-1.54147">
        <ele>19.5</ele>
      </trkpt>
      <trkpt lat="49.32483" lon="-1.54133">
        <ele>19.2</ele>
      </trkpt>
      <trkpt lat="49.32487" lon="-1.54127">
        <ele>19.1</ele>
      </trkpt>
      <trkpt lat="49.32491" lon="-1.54119">
        <ele>19</ele>
      </trkpt>
      <trkpt lat="49.32494" lon="-1.54112">
        <ele>18.9</ele>
      </trkpt>
      <trkpt lat="49.32498" lon="-1.54096">
        <ele>19</ele>
      </trkpt>
      <trkpt lat="49.325" lon="-1.5409">
        <ele>18.9</ele>
      </trkpt>
      <trkpt lat="49.32503" lon="-1.54082">
        <ele>18.9</ele>
      </trkpt>
      <trkpt lat="49.32507" lon="-1.54076">
        <ele>19.1</ele>
      </trkpt>
      <trkpt lat="49.32511" lon="-1.54072">
        <ele>19.2</ele>
      </trkpt>
      <trkpt lat="49.32515" lon="-1.54069">
        <ele>19.2</ele>
      </trkpt>
      <trkpt lat="49.3252" lon="-1.54065">
        <ele>19.1</ele>
      </trkpt>
      <trkpt lat="49.32531" lon="-1.54059">
        <ele>18.8</ele>
      </trkpt>
      <trkpt lat="49.32536" lon="-1.54056">
        <ele>18.7</ele>
      </trkpt>
      <trkpt lat="49.32542" lon="-1.54052">
        <ele>18.6</ele>
      </trkpt>
      <trkpt lat="49.32547" lon="-1.54047">
        <ele>18.5</ele>
      </trkpt>
      <trkpt lat="49.32551" lon="-1.54042">
        <ele>18.6</ele>
      </trkpt>
      <trkpt lat="49.32557" lon="-1.54031">
        <ele>18.7</ele>
      </trkpt>
      <trkpt lat="49.32561" lon="-1.54023">
        <ele>18.8</ele>
      </trkpt>
      <trkpt lat="49.32564" lon="-1.54015">
        <ele>19</ele>
      </trkpt>
      <trkpt lat="49.32568" lon="-1.54005">
        <ele>19.2</ele>
      </trkpt>
      <trkpt lat="49.3257" lon="-1.53998">
        <ele>19.5</ele>
      </trkpt>
      <trkpt lat="49.32573" lon="-1.53987">
        <ele>19.9</ele>
      </trkpt>
      <trkpt lat="49.32575" lon="-1.53981">
        <ele>20.2</ele>
      </trkpt>
      <trkpt lat="49.32578" lon="-1.53976">
        <ele>20.3</ele>
      </trkpt>
      <trkpt lat="49.32582" lon="-1.53971">
        <ele>20.2</ele>
      </trkpt>
      <trkpt lat="49.32586" lon="-1.53967">
        <ele>20.2</ele>
      </trkpt>
      <trkpt lat="49.32591" lon="-1.53962">
        <ele>20.3</ele>
      </trkpt>
      <trkpt lat="49.32595" lon="-1.53956">
        <ele>20.4</ele>
      </trkpt>
      <trkpt lat="49.32597" lon="-1.53953">
        <ele>20.4</ele>
      </trkpt>
      <trkpt lat="49.32601" lon="-1.53948">
        <ele>20.5</ele>
      </trkpt>
      <trkpt lat="49.32608" lon="-1.53939">
        <ele>20.4</ele>
      </trkpt>
      <trkpt lat="49.32614" lon="-1.53929">
        <ele>20.4</ele>
      </trkpt>
      <trkpt lat="49.32623" lon="-1.53912">
        <ele>20.6</ele>
      </trkpt>
      <trkpt lat="49.32625" lon="-1.53907">
        <ele>20.7</ele>
      </trkpt>
      <trkpt lat="49.32629" lon="-1.539">
        <ele>20.8</ele>
      </trkpt>
      <trkpt lat="49.32633" lon="-1.53897">
        <ele>20.7</ele>
      </trkpt>
      <trkpt lat="49.32638" lon="-1.53896">
        <ele>20.3</ele>
      </trkpt>
      <trkpt lat="49.32643" lon="-1.53895">
        <ele>19.9</ele>
      </trkpt>
      <trkpt lat="49.32647" lon="-1.53894">
        <ele>19.5</ele>
      </trkpt>
      <trkpt lat="49.32653" lon="-1.53892">
        <ele>19.1</ele>
      </trkpt>
      <trkpt lat="49.3266" lon="-1.53889">
        <ele>18.6</ele>
      </trkpt>
      <trkpt lat="49.32669" lon="-1.53884">
        <ele>18.2</ele>
      </trkpt>
      <trkpt lat="49.32675" lon="-1.53881">
        <ele>18.1</ele>
      </trkpt>
      <trkpt lat="49.32682" lon="-1.53877">
        <ele>18</ele>
      </trkpt>
      <trkpt lat="49.3269" lon="-1.5387">
        <ele>17.9</ele>
      </trkpt>
      <trkpt lat="49.32701" lon="-1.53862">
        <ele>17.7</ele>
      </trkpt>
      <trkpt lat="49.32718" lon="-1.53846">
        <ele>17.6</ele>
      </trkpt>
      <trkpt lat="49.32725" lon="-1.53838">
        <ele>17.6</ele>
      </trkpt>
      <trkpt lat="49.32732" lon="-1.5383">
        <ele>17.6</ele>
      </trkpt>
      <trkpt lat="49.32748" lon="-1.53817">
        <ele>17.3</ele>
      </trkpt>
      <trkpt lat="49.32762" lon="-1.53806">
        <ele>17.7</ele>
      </trkpt>
      <trkpt lat="49.32775" lon="-1.53789">
        <ele>18.4</ele>
      </trkpt>
      <trkpt lat="49.3279" lon="-1.53773">
        <ele>18.8</ele>
      </trkpt>
      <trkpt lat="49.32798" lon="-1.53764">
        <ele>18.9</ele>
      </trkpt>
      <trkpt lat="49.32814" lon="-1.53749">
        <ele>19</ele>
      </trkpt>
      <trkpt lat="49.32828" lon="-1.53733">
        <ele>19.5</ele>
      </trkpt>
      <trkpt lat="49.3283" lon="-1.53731">
        <ele>19.6</ele>
      </trkpt>
      <trkpt lat="49.32841" lon="-1.53716">
        <ele>20.1</ele>
      </trkpt>
      <trkpt lat="49.32853" lon="-1.53699">
        <ele>20.5</ele>
      </trkpt>
      <trkpt lat="49.32857" lon="-1.53692">
        <ele>20.6</ele>
      </trkpt>
      <trkpt lat="49.3287" lon="-1.53673">
        <ele>20.6</ele>
      </trkpt>
      <trkpt lat="49.32875" lon="-1.53667">
        <ele>20.5</ele>
      </trkpt>
      <trkpt lat="49.32881" lon="-1.53658">
        <ele>20.4</ele>
      </trkpt>
      <trkpt lat="49.32885" lon="-1.53653">
        <ele>20.3</ele>
      </trkpt>
      <trkpt lat="49.32889" lon="-1.53647">
        <ele>20.3</ele>
      </trkpt>
      <trkpt lat="49.32895" lon="-1.53637">
        <ele>20.2</ele>
      </trkpt>
      <trkpt lat="49.32903" lon="-1.53626">
        <ele>20.1</ele>
      </trkpt>
      <trkpt lat="49.32911" lon="-1.53613">
        <ele>20</ele>
      </trkpt>
      <trkpt lat="49.32918" lon="-1.53603">
        <ele>20</ele>
      </trkpt>
      <trkpt lat="49.32923" lon="-1.53597">
        <ele>20.2</ele>
      </trkpt>
      <trkpt lat="49.32927" lon="-1.53593">
        <ele>20.3</ele>
      </trkpt>
      <trkpt lat="49.32933" lon="-1.53588">
        <ele>20.4</ele>
      </trkpt>
      <trkpt lat="49.32951" lon="-1.53575">
        <ele>20.6</ele>
      </trkpt>
      <trkpt lat="49.32956" lon="-1.53572">
        <ele>20.7</ele>
      </trkpt>
      <trkpt lat="49.32961" lon="-1.5357">
        <ele>20.7</ele>
      </trkpt>
      <trkpt lat="49.32967" lon="-1.53567">
        <ele>20.6</ele>
      </trkpt>
      <trkpt lat="49.32976" lon="-1.53565">
        <ele>20.4</ele>
      </trkpt>
      <trkpt lat="49.32979" lon="-1.53565">
        <ele>20.4</ele>
      </trkpt>
      <trkpt lat="49.32987" lon="-1.53571">
        <ele>19.8</ele>
      </trkpt>
      <trkpt lat="49.3299" lon="-1.53576">
        <ele>19.5</ele>
      </trkpt>
      <trkpt lat="49.32993" lon="-1.53587">
        <ele>19.1</ele>
      </trkpt>
      <trkpt lat="49.32996" lon="-1.53599">
        <ele>19.1</ele>
      </trkpt>
      <trkpt lat="49.32996" lon="-1.53605">
        <ele>19</ele>
      </trkpt>
      <trkpt lat="49.32997" lon="-1.53614">
        <ele>19</ele>
      </trkpt>
      <trkpt lat="49.32997" lon="-1.53621">
        <ele>19</ele>
      </trkpt>
      <trkpt lat="49.32997" lon="-1.5363">
        <ele>19</ele>
      </trkpt>
      <trkpt lat="49.32997" lon="-1.53639">
        <ele>19</ele>
      </trkpt>
      <trkpt lat="49.32995" lon="-1.53656">
        <ele>18.9</ele>
      </trkpt>
      <trkpt lat="49.32993" lon="-1.53662">
        <ele>18.9</ele>
      </trkpt>
      <trkpt lat="49.3299" lon="-1.53669">
        <ele>18.8</ele>
      </trkpt>
      <trkpt lat="49.32985" lon="-1.53681">
        <ele>19</ele>
      </trkpt>
      <trkpt lat="49.32981" lon="-1.53688">
        <ele>19.1</ele>
      </trkpt>
      <trkpt lat="49.32972" lon="-1.53702">
        <ele>19</ele>
      </trkpt>
      <trkpt lat="49.32966" lon="-1.53716">
        <ele>19</ele>
      </trkpt>
      <trkpt lat="49.3296" lon="-1.5373">
        <ele>18.9</ele>
      </trkpt>
      <trkpt lat="49.32958" lon="-1.53741">
        <ele>18.9</ele>
      </trkpt>
      <trkpt lat="49.32959" lon="-1.53753">
        <ele>19.1</ele>
      </trkpt>
      <trkpt lat="49.32962" lon="-1.53762">
        <ele>19.4</ele>
      </trkpt>
      <trkpt lat="49.32964" lon="-1.53766">
        <ele>19.6</ele>
      </trkpt>
      <trkpt lat="49.32968" lon="-1.53772">
        <ele>20</ele>
      </trkpt>
      <trkpt lat="49.32998" lon="-1.53804">
        <ele>21.9</ele>
      </trkpt>
      <trkpt lat="49.33" lon="-1.53796">
        <ele>22</ele>
      </trkpt>
      <trkpt lat="49.33003" lon="-1.53781">
        <ele>22.1</ele>
      </trkpt>
      <trkpt lat="49.33015" lon="-1.53743">
        <ele>22.1</ele>
      </trkpt>
      <trkpt lat="49.3302" lon="-1.53732">
        <ele>21.8</ele>
      </trkpt>
      <trkpt lat="49.33029" lon="-1.5372">
        <ele>21.6</ele>
      </trkpt>
      <trkpt lat="49.33032" lon="-1.53726">
        <ele>21.9</ele>
      </trkpt>
      <trkpt lat="49.33036" lon="-1.53736">
        <ele>22.3</ele>
      </trkpt>
      <trkpt lat="49.33062" lon="-1.5377">
        <ele>23.5</ele>
      </trkpt>
      <trkpt lat="49.33077" lon="-1.53794">
        <ele>23.8</ele>
      </trkpt>
      <trkpt lat="49.3309" lon="-1.53814">
        <ele>24.3</ele>
      </trkpt>
      <trkpt lat="49.33092" lon="-1.53817">
        <ele>24.3</ele>
      </trkpt>
      <trkpt lat="49.33101" lon="-1.53833">
        <ele>24.9</ele>
      </trkpt>
      <trkpt lat="49.33113" lon="-1.53848">
        <ele>25.5</ele>
      </trkpt>
      <trkpt lat="49.33129" lon="-1.53869">
        <ele>26.4</ele>
      </trkpt>
      <trkpt lat="49.3315" lon="-1.53894">
        <ele>27.8</ele>
      </trkpt>
      <trkpt lat="49.33165" lon="-1.53916">
        <ele>28.9</ele>
      </trkpt>
      <trkpt lat="49.33176" lon="-1.53932">
        <ele>29.2</ele>
      </trkpt>
      <trkpt lat="49.332" lon="-1.53966">
        <ele>29.4</ele>
      </trkpt>
      <trkpt lat="49.33198" lon="-1.5397">
        <ele>29.4</ele>
      </trkpt>
      <trkpt lat="49.33245" lon="-1.54049">
        <ele>30.2</ele>
      </trkpt>
      <trkpt lat="49.33275" lon="-1.541">
        <ele>31.7</ele>
      </trkpt>
      <trkpt lat="49.33298" lon="-1.54136">
        <ele>32.1</ele>
      </trkpt>
      <trkpt lat="49.33319" lon="-1.5417">
        <ele>32</ele>
      </trkpt>
      <trkpt lat="49.33409" lon="-1.54293">
        <ele>32.5</ele>
      </trkpt>
      <trkpt lat="49.33417" lon="-1.54304">
        <ele>32.3</ele>
      </trkpt>
      <trkpt lat="49.33431" lon="-1.5432">
        <ele>32</ele>
      </trkpt>
      <trkpt lat="49.33436" lon="-1.54302">
        <ele>32.3</ele>
      </trkpt>
      <trkpt lat="49.33442" lon="-1.5428">
        <ele>32.7</ele>
      </trkpt>
      <trkpt lat="49.3345" lon="-1.54251">
        <ele>33.4</ele>
      </trkpt>
      <trkpt lat="49.33453" lon="-1.54238">
        <ele>33.4</ele>
      </trkpt>
      <trkpt lat="49.33469" lon="-1.54252">
        <ele>33.6</ele>
      </trkpt>
      <trkpt lat="49.33473" lon="-1.54262">
        <ele>33.3</ele>
      </trkpt>
      <trkpt lat="49.33477" lon="-1.5427">
        <ele>33.1</ele>
      </trkpt>
      <trkpt lat="49.33478" lon="-1.54276">
        <ele>33</ele>
      </trkpt>
      <trkpt lat="49.33479" lon="-1.54285">
        <ele>32.7</ele>
      </trkpt>
      <trkpt lat="49.3348" lon="-1.54296">
        <ele>32.4</ele>
      </trkpt>
      <trkpt lat="49.33483" lon="-1.54319">
        <ele>31.7</ele>
      </trkpt>
      <trkpt lat="49.33491" lon="-1.54372">
        <ele>30.2</ele>
      </trkpt>
      <trkpt lat="49.33495" lon="-1.544">
        <ele>29.5</ele>
      </trkpt>
      <trkpt lat="49.33498" lon="-1.54421">
        <ele>28.9</ele>
      </trkpt>
      <trkpt lat="49.33501" lon="-1.54446">
        <ele>27.9</ele>
      </trkpt>
      <trkpt lat="49.33506" lon="-1.54448">
        <ele>27.6</ele>
      </trkpt>
      <trkpt lat="49.33546" lon="-1.54474">
        <ele>24.5</ele>
      </trkpt>
      <trkpt lat="49.33564" lon="-1.54488">
        <ele>22.8</ele>
      </trkpt>
      <trkpt lat="49.3357" lon="-1.54492">
        <ele>22.2</ele>
      </trkpt>
      <trkpt lat="49.33584" lon="-1.54501">
        <ele>20.9</ele>
      </trkpt>
      <trkpt lat="49.33589" lon="-1.54502">
        <ele>20.6</ele>
      </trkpt>
      <trkpt lat="49.33592" lon="-1.54502">
        <ele>20.4</ele>
      </trkpt>
      <trkpt lat="49.33595" lon="-1.545">
        <ele>20.3</ele>
      </trkpt>
      <trkpt lat="49.33598" lon="-1.54497">
        <ele>20.3</ele>
      </trkpt>
      <trkpt lat="49.33601" lon="-1.54491">
        <ele>20.4</ele>
      </trkpt>
      <trkpt lat="49.33603" lon="-1.54483">
        <ele>20.7</ele>
      </trkpt>
      <trkpt lat="49.33605" lon="-1.54471">
        <ele>21.2</ele>
      </trkpt>
      <trkpt lat="49.33608" lon="-1.54455">
        <ele>21.9</ele>
      </trkpt>
      <trkpt lat="49.33607" lon="-1.54443">
        <ele>22.6</ele>
      </trkpt>
      <trkpt lat="49.33606" lon="-1.54435">
        <ele>23.1</ele>
      </trkpt>
      <trkpt lat="49.33605" lon="-1.54428">
        <ele>23.6</ele>
      </trkpt>
      <trkpt lat="49.33604" lon="-1.54419">
        <ele>24.2</ele>
      </trkpt>
      <trkpt lat="49.33603" lon="-1.54411">
        <ele>24.5</ele>
      </trkpt>
      <trkpt lat="49.33602" lon="-1.54403">
        <ele>24.8</ele>
      </trkpt>
      <trkpt lat="49.33602" lon="-1.54395">
        <ele>25</ele>
      </trkpt>
      <trkpt lat="49.33602" lon="-1.54387">
        <ele>25.3</ele>
      </trkpt>
      <trkpt lat="49.33602" lon="-1.54379">
        <ele>25.4</ele>
      </trkpt>
      <trkpt lat="49.33603" lon="-1.54372">
        <ele>25.5</ele>
      </trkpt>
      <trkpt lat="49.33605" lon="-1.54366">
        <ele>25.6</ele>
      </trkpt>
      <trkpt lat="49.33606" lon="-1.54359">
        <ele>25.6</ele>
      </trkpt>
      <trkpt lat="49.33608" lon="-1.54352">
        <ele>25.7</ele>
      </trkpt>
      <trkpt lat="49.33608" lon="-1.54345">
        <ele>25.9</ele>
      </trkpt>
      <trkpt lat="49.33609" lon="-1.54338">
        <ele>26</ele>
      </trkpt>
      <trkpt lat="49.33609" lon="-1.54331">
        <ele>26.2</ele>
      </trkpt>
      <trkpt lat="49.33608" lon="-1.54324">
        <ele>26.2</ele>
      </trkpt>
      <trkpt lat="49.33608" lon="-1.54318">
        <ele>26.3</ele>
      </trkpt>
      <trkpt lat="49.33608" lon="-1.54314">
        <ele>26.3</ele>
      </trkpt>
      <trkpt lat="49.33607" lon="-1.54308">
        <ele>26.4</ele>
      </trkpt>
      <trkpt lat="49.33607" lon="-1.54298">
        <ele>26.4</ele>
      </trkpt>
      <trkpt lat="49.33609" lon="-1.54286">
        <ele>26.3</ele>
      </trkpt>
      <trkpt lat="49.33612" lon="-1.54266">
        <ele>26.2</ele>
      </trkpt>
      <trkpt lat="49.33616" lon="-1.54254">
        <ele>26</ele>
      </trkpt>
      <trkpt lat="49.33617" lon="-1.54246">
        <ele>26</ele>
      </trkpt>
      <trkpt lat="49.3362" lon="-1.54228">
        <ele>26.1</ele>
      </trkpt>
      <trkpt lat="49.33623" lon="-1.5421">
        <ele>26.1</ele>
      </trkpt>
      <trkpt lat="49.33625" lon="-1.54197">
        <ele>26.1</ele>
      </trkpt>
      <trkpt lat="49.33626" lon="-1.54187">
        <ele>26.2</ele>
      </trkpt>
      <trkpt lat="49.33626" lon="-1.54184">
        <ele>26.2</ele>
      </trkpt>
      <trkpt lat="49.33631" lon="-1.54158">
        <ele>26.2</ele>
      </trkpt>
      <trkpt lat="49.33636" lon="-1.54141">
        <ele>26.2</ele>
      </trkpt>
      <trkpt lat="49.3364" lon="-1.54125">
        <ele>26.3</ele>
      </trkpt>
      <trkpt lat="49.33649" lon="-1.54098">
        <ele>26.4</ele>
      </trkpt>
      <trkpt lat="49.33653" lon="-1.54101">
        <ele>26.1</ele>
      </trkpt>
      <trkpt lat="49.3372" lon="-1.54153">
        <ele>21.7</ele>
      </trkpt>
      <trkpt lat="49.33757" lon="-1.54182">
        <ele>19.1</ele>
      </trkpt>
      <trkpt lat="49.33856" lon="-1.54253">
        <ele>12.1</ele>
      </trkpt>
      <trkpt lat="49.33881" lon="-1.54275">
        <ele>10.2</ele>
      </trkpt>
      <trkpt lat="49.33886" lon="-1.54258">
        <ele>10.7</ele>
      </trkpt>
      <trkpt lat="49.33897" lon="-1.54223">
        <ele>11.7</ele>
      </trkpt>
      <trkpt lat="49.33901" lon="-1.54208">
        <ele>12.1</ele>
      </trkpt>
      <trkpt lat="49.33902" lon="-1.54204">
        <ele>12.2</ele>
      </trkpt>
      <trkpt lat="49.33915" lon="-1.54157">
        <ele>13</ele>
      </trkpt>
      <trkpt lat="49.33918" lon="-1.54148">
        <ele>12.7</ele>
      </trkpt>
      <trkpt lat="49.33922" lon="-1.54136">
        <ele>12.3</ele>
      </trkpt>
      <trkpt lat="49.33929" lon="-1.54115">
        <ele>11.5</ele>
      </trkpt>
      <trkpt lat="49.33931" lon="-1.54109">
        <ele>11.2</ele>
      </trkpt>
      <trkpt lat="49.33942" lon="-1.54079">
        <ele>9.9</ele>
      </trkpt>
      <trkpt lat="49.33947" lon="-1.54065">
        <ele>9.3</ele>
      </trkpt>
      <trkpt lat="49.33956" lon="-1.54044">
        <ele>8.5</ele>
      </trkpt>
      <trkpt lat="49.33973" lon="-1.53997">
        <ele>7</ele>
      </trkpt>
      <trkpt lat="49.3398" lon="-1.5398">
        <ele>6.6</ele>
      </trkpt>
      <trkpt lat="49.33986" lon="-1.53963">
        <ele>6.2</ele>
      </trkpt>
      <trkpt lat="49.33994" lon="-1.53938">
        <ele>5.6</ele>
      </trkpt>
      <trkpt lat="49.33999" lon="-1.53927">
        <ele>5.2</ele>
      </trkpt>
      <trkpt lat="49.34" lon="-1.53921">
        <ele>5</ele>
      </trkpt>
      <trkpt lat="49.34001" lon="-1.53912">
        <ele>5.1</ele>
      </trkpt>
      <trkpt lat="49.34003" lon="-1.53903">
        <ele>5.4</ele>
      </trkpt>
      <trkpt lat="49.34005" lon="-1.53896">
        <ele>5.6</ele>
      </trkpt>
      <trkpt lat="49.34007" lon="-1.53888">
        <ele>5.8</ele>
      </trkpt>
      <trkpt lat="49.3401" lon="-1.5388">
        <ele>6</ele>
      </trkpt>
      <trkpt lat="49.34012" lon="-1.53875">
        <ele>6.1</ele>
      </trkpt>
      <trkpt lat="49.34019" lon="-1.5386">
        <ele>6.4</ele>
      </trkpt>
      <trkpt lat="49.34025" lon="-1.53846">
        <ele>6.7</ele>
      </trkpt>
      <trkpt lat="49.34034" lon="-1.53833">
        <ele>6.8</ele>
      </trkpt>
      <trkpt lat="49.3404" lon="-1.53823">
        <ele>7.2</ele>
      </trkpt>
      <trkpt lat="49.34043" lon="-1.53819">
        <ele>7.4</ele>
      </trkpt>
      <trkpt lat="49.34056" lon="-1.538">
        <ele>8</ele>
      </trkpt>
      <trkpt lat="49.3406" lon="-1.53792">
        <ele>8.2</ele>
      </trkpt>
      <trkpt lat="49.3407" lon="-1.53778">
        <ele>8.5</ele>
      </trkpt>
      <trkpt lat="49.34077" lon="-1.53766">
        <ele>8.7</ele>
      </trkpt>
      <trkpt lat="49.3408" lon="-1.53758">
        <ele>8.8</ele>
      </trkpt>
      <trkpt lat="49.34083" lon="-1.53749">
        <ele>9</ele>
      </trkpt>
      <trkpt lat="49.34085" lon="-1.53742">
        <ele>9</ele>
      </trkpt>
      <trkpt lat="49.34088" lon="-1.53733">
        <ele>8.8</ele>
      </trkpt>
      <trkpt lat="49.3409" lon="-1.53723">
        <ele>8.8</ele>
      </trkpt>
      <trkpt lat="49.34093" lon="-1.53712">
        <ele>8.7</ele>
      </trkpt>
      <trkpt lat="49.341" lon="-1.5368">
        <ele>8.6</ele>
      </trkpt>
      <trkpt lat="49.34102" lon="-1.53669">
        <ele>8.7</ele>
      </trkpt>
      <trkpt lat="49.34102" lon="-1.53665">
        <ele>8.7</ele>
      </trkpt>
      <trkpt lat="49.34104" lon="-1.53658">
        <ele>8.7</ele>
      </trkpt>
      <trkpt lat="49.34106" lon="-1.53652">
        <ele>8.6</ele>
      </trkpt>
      <trkpt lat="49.34108" lon="-1.53645">
        <ele>8.6</ele>
      </trkpt>
      <trkpt lat="49.34111" lon="-1.53637">
        <ele>8.5</ele>
      </trkpt>
      <trkpt lat="49.34115" lon="-1.53628">
        <ele>8.4</ele>
      </trkpt>
      <trkpt lat="49.3412" lon="-1.53621">
        <ele>8.2</ele>
      </trkpt>
      <trkpt lat="49.34134" lon="-1.53595">
        <ele>7.7</ele>
      </trkpt>
      <trkpt lat="49.34144" lon="-1.53579">
        <ele>7.6</ele>
      </trkpt>
      <trkpt lat="49.34147" lon="-1.5357">
        <ele>7.7</ele>
      </trkpt>
      <trkpt lat="49.34151" lon="-1.5356">
        <ele>7.9</ele>
      </trkpt>
      <trkpt lat="49.34153" lon="-1.53551">
        <ele>8.1</ele>
      </trkpt>
      <trkpt lat="49.34154" lon="-1.53543">
        <ele>8.3</ele>
      </trkpt>
      <trkpt lat="49.34155" lon="-1.53537">
        <ele>8.6</ele>
      </trkpt>
      <trkpt lat="49.34155" lon="-1.53529">
        <ele>8.9</ele>
      </trkpt>
      <trkpt lat="49.34155" lon="-1.53513">
        <ele>9.5</ele>
      </trkpt>
      <trkpt lat="49.34154" lon="-1.53502">
        <ele>10</ele>
      </trkpt>
      <trkpt lat="49.34153" lon="-1.53489">
        <ele>10.1</ele>
      </trkpt>
      <trkpt lat="49.3415" lon="-1.53474">
        <ele>10.1</ele>
      </trkpt>
      <trkpt lat="49.34148" lon="-1.53461">
        <ele>10.3</ele>
      </trkpt>
      <trkpt lat="49.34146" lon="-1.53452">
        <ele>10.3</ele>
      </trkpt>
      <trkpt lat="49.34145" lon="-1.53443">
        <ele>10.3</ele>
      </trkpt>
      <trkpt lat="49.34145" lon="-1.53435">
        <ele>10.2</ele>
      </trkpt>
      <trkpt lat="49.34145" lon="-1.53427">
        <ele>10.2</ele>
      </trkpt>
      <trkpt lat="49.34146" lon="-1.5342">
        <ele>10</ele>
      </trkpt>
      <trkpt lat="49.34147" lon="-1.53412">
        <ele>9.8</ele>
      </trkpt>
      <trkpt lat="49.34149" lon="-1.534">
        <ele>9.5</ele>
      </trkpt>
      <trkpt lat="49.34152" lon="-1.53387">
        <ele>9.1</ele>
      </trkpt>
      <trkpt lat="49.34155" lon="-1.53371">
        <ele>8.6</ele>
      </trkpt>
      <trkpt lat="49.34157" lon="-1.53357">
        <ele>8.2</ele>
      </trkpt>
      <trkpt lat="49.34159" lon="-1.53345">
        <ele>7.9</ele>
      </trkpt>
      <trkpt lat="49.34159" lon="-1.53334">
        <ele>7.7</ele>
      </trkpt>
      <trkpt lat="49.3416" lon="-1.53321">
        <ele>8</ele>
      </trkpt>
      <trkpt lat="49.34159" lon="-1.53304">
        <ele>8.5</ele>
      </trkpt>
      <trkpt lat="49.34161" lon="-1.53284">
        <ele>8.8</ele>
      </trkpt>
      <trkpt lat="49.34166" lon="-1.53264">
        <ele>8.7</ele>
      </trkpt>
      <trkpt lat="49.34174" lon="-1.53238">
        <ele>8.9</ele>
      </trkpt>
      <trkpt lat="49.34179" lon="-1.53213">
        <ele>9.1</ele>
      </trkpt>
      <trkpt lat="49.34184" lon="-1.53174">
        <ele>9.6</ele>
      </trkpt>
      <trkpt lat="49.34185" lon="-1.53167">
        <ele>9.7</ele>
      </trkpt>
      <trkpt lat="49.34189" lon="-1.53138">
        <ele>9.5</ele>
      </trkpt>
      <trkpt lat="49.34192" lon="-1.53108">
        <ele>9.4</ele>
      </trkpt>
      <trkpt lat="49.34195" lon="-1.53092">
        <ele>9.3</ele>
      </trkpt>
      <trkpt lat="49.34196" lon="-1.53082">
        <ele>9.3</ele>
      </trkpt>
      <trkpt lat="49.34205" lon="-1.53062">
        <ele>9.1</ele>
      </trkpt>
      <trkpt lat="49.34215" lon="-1.53043">
        <ele>8.9</ele>
      </trkpt>
      <trkpt lat="49.34218" lon="-1.53038">
        <ele>8.8</ele>
      </trkpt>
      <trkpt lat="49.34231" lon="-1.53011">
        <ele>8.7</ele>
      </trkpt>
      <trkpt lat="49.34232" lon="-1.53006">
        <ele>8.7</ele>
      </trkpt>
      <trkpt lat="49.34244" lon="-1.52977">
        <ele>8.6</ele>
      </trkpt>
      <trkpt lat="49.34255" lon="-1.52945">
        <ele>8.4</ele>
      </trkpt>
      <trkpt lat="49.34262" lon="-1.52908">
        <ele>8.3</ele>
      </trkpt>
      <trkpt lat="49.34264" lon="-1.5289">
        <ele>8.1</ele>
      </trkpt>
      <trkpt lat="49.34265" lon="-1.52885">
        <ele>8</ele>
      </trkpt>
      <trkpt lat="49.34269" lon="-1.52849">
        <ele>7.7</ele>
      </trkpt>
      <trkpt lat="49.3427" lon="-1.52821">
        <ele>7.6</ele>
      </trkpt>
      <trkpt lat="49.3427" lon="-1.52817">
        <ele>7.5</ele>
      </trkpt>
      <trkpt lat="49.34271" lon="-1.52786">
        <ele>7.5</ele>
      </trkpt>
      <trkpt lat="49.34269" lon="-1.5276">
        <ele>7.6</ele>
      </trkpt>
      <trkpt lat="49.34268" lon="-1.5275">
        <ele>7.7</ele>
      </trkpt>
      <trkpt lat="49.34263" lon="-1.527">
        <ele>8.6</ele>
      </trkpt>
      <trkpt lat="49.34258" lon="-1.52665">
        <ele>9.3</ele>
      </trkpt>
      <trkpt lat="49.34257" lon="-1.52655">
        <ele>9.3</ele>
      </trkpt>
      <trkpt lat="49.3425" lon="-1.52616">
        <ele>9.4</ele>
      </trkpt>
      <trkpt lat="49.34247" lon="-1.52601">
        <ele>9.6</ele>
      </trkpt>
      <trkpt lat="49.34242" lon="-1.5258">
        <ele>9.8</ele>
      </trkpt>
      <trkpt lat="49.34235" lon="-1.52549">
        <ele>9.3</ele>
      </trkpt>
      <trkpt lat="49.34226" lon="-1.52517">
        <ele>8.6</ele>
      </trkpt>
      <trkpt lat="49.34215" lon="-1.52491">
        <ele>8.3</ele>
      </trkpt>
      <trkpt lat="49.34209" lon="-1.52486">
        <ele>8.4</ele>
      </trkpt>
      <trkpt lat="49.34199" lon="-1.52472">
        <ele>8.6</ele>
      </trkpt>
      <trkpt lat="49.34194" lon="-1.52466">
        <ele>8.7</ele>
      </trkpt>
      <trkpt lat="49.34182" lon="-1.52457">
        <ele>9</ele>
      </trkpt>
      <trkpt lat="49.34164" lon="-1.52449">
        <ele>9.7</ele>
      </trkpt>
      <trkpt lat="49.34151" lon="-1.52441">
        <ele>10.2</ele>
      </trkpt>
      <trkpt lat="49.34141" lon="-1.52434">
        <ele>10.6</ele>
      </trkpt>
      <trkpt lat="49.34133" lon="-1.52425">
        <ele>10.7</ele>
      </trkpt>
      <trkpt lat="49.34129" lon="-1.52415">
        <ele>10.8</ele>
      </trkpt>
      <trkpt lat="49.34125" lon="-1.52404">
        <ele>11.1</ele>
      </trkpt>
      <trkpt lat="49.34123" lon="-1.52397">
        <ele>11.4</ele>
      </trkpt>
      <trkpt lat="49.34118" lon="-1.52384">
        <ele>11.9</ele>
      </trkpt>
      <trkpt lat="49.34108" lon="-1.52355">
        <ele>13.3</ele>
      </trkpt>
      <trkpt lat="49.34057" lon="-1.52291">
        <ele>17.7</ele>
      </trkpt>
      <trkpt lat="49.34033" lon="-1.52257">
        <ele>19.6</ele>
      </trkpt>
      <trkpt lat="49.34026" lon="-1.52242">
        <ele>19.9</ele>
      </trkpt>
      <trkpt lat="49.34021" lon="-1.52226">
        <ele>19.8</ele>
      </trkpt>
      <trkpt lat="49.34017" lon="-1.52204">
        <ele>19.6</ele>
      </trkpt>
      <trkpt lat="49.34013" lon="-1.52183">
        <ele>19.3</ele>
      </trkpt>
      <trkpt lat="49.34007" lon="-1.52149">
        <ele>18.8</ele>
      </trkpt>
      <trkpt lat="49.34005" lon="-1.52139">
        <ele>18.6</ele>
      </trkpt>
      <trkpt lat="49.34002" lon="-1.52122">
        <ele>18.2</ele>
      </trkpt>
      <trkpt lat="49.33995" lon="-1.52083">
        <ele>17.3</ele>
      </trkpt>
      <trkpt lat="49.3399" lon="-1.52054">
        <ele>17.6</ele>
      </trkpt>
      <trkpt lat="49.33985" lon="-1.52031">
        <ele>17.8</ele>
      </trkpt>
      <trkpt lat="49.33972" lon="-1.51971">
        <ele>17.9</ele>
      </trkpt>
      <trkpt lat="49.33971" lon="-1.51966">
        <ele>17.8</ele>
      </trkpt>
      <trkpt lat="49.33969" lon="-1.51956">
        <ele>17.9</ele>
      </trkpt>
      <trkpt lat="49.33967" lon="-1.51948">
        <ele>17.9</ele>
      </trkpt>
      <trkpt lat="49.3396" lon="-1.51921">
        <ele>18</ele>
      </trkpt>
      <trkpt lat="49.33953" lon="-1.51893">
        <ele>19.1</ele>
      </trkpt>
      <trkpt lat="49.33949" lon="-1.5188">
        <ele>19.6</ele>
      </trkpt>
      <trkpt lat="49.33947" lon="-1.51858">
        <ele>20.3</ele>
      </trkpt>
      <trkpt lat="49.33948" lon="-1.51836">
        <ele>20.8</ele>
      </trkpt>
      <trkpt lat="49.33949" lon="-1.51817">
        <ele>21.1</ele>
      </trkpt>
      <trkpt lat="49.33953" lon="-1.51777">
        <ele>21.7</ele>
      </trkpt>
      <trkpt lat="49.33954" lon="-1.51761">
        <ele>21.9</ele>
      </trkpt>
      <trkpt lat="49.33958" lon="-1.51724">
        <ele>21.1</ele>
      </trkpt>
      <trkpt lat="49.33959" lon="-1.51707">
        <ele>20.4</ele>
      </trkpt>
      <trkpt lat="49.3396" lon="-1.51685">
        <ele>19.7</ele>
      </trkpt>
      <trkpt lat="49.3396" lon="-1.51663">
        <ele>18.9</ele>
      </trkpt>
      <trkpt lat="49.3396" lon="-1.51656">
        <ele>18.7</ele>
      </trkpt>
      <trkpt lat="49.33955" lon="-1.51617">
        <ele>17.5</ele>
      </trkpt>
      <trkpt lat="49.33948" lon="-1.51579">
        <ele>16.5</ele>
      </trkpt>
      <trkpt lat="49.33944" lon="-1.51558">
        <ele>15.9</ele>
      </trkpt>
      <trkpt lat="49.33955" lon="-1.51546">
        <ele>15.4</ele>
      </trkpt>
      <trkpt lat="49.33955" lon="-1.51539">
        <ele>15.2</ele>
      </trkpt>
      <trkpt lat="49.33949" lon="-1.51516">
        <ele>14.5</ele>
      </trkpt>
      <trkpt lat="49.3391" lon="-1.51373">
        <ele>7.3</ele>
      </trkpt>
      <trkpt lat="49.33909" lon="-1.51369">
        <ele>7.1</ele>
      </trkpt>
      <trkpt lat="49.33907" lon="-1.51363">
        <ele>6.7</ele>
      </trkpt>
      <trkpt lat="49.33904" lon="-1.51354">
        <ele>6.2</ele>
      </trkpt>
      <trkpt lat="49.33884" lon="-1.51275">
        <ele>6.5</ele>
      </trkpt>
      <trkpt lat="49.33881" lon="-1.51247">
        <ele>7.4</ele>
      </trkpt>
      <trkpt lat="49.3388" lon="-1.51229">
        <ele>8.3</ele>
      </trkpt>
      <trkpt lat="49.3388" lon="-1.5122">
        <ele>8.8</ele>
      </trkpt>
      <trkpt lat="49.3388" lon="-1.51213">
        <ele>9.2</ele>
      </trkpt>
      <trkpt lat="49.3388" lon="-1.51208">
        <ele>9.5</ele>
      </trkpt>
      <trkpt lat="49.3388" lon="-1.51187">
        <ele>10.6</ele>
      </trkpt>
      <trkpt lat="49.33903" lon="-1.51169">
        <ele>8.1</ele>
      </trkpt>
      <trkpt lat="49.3394" lon="-1.51132">
        <ele>7.1</ele>
      </trkpt>
      <trkpt lat="49.33976" lon="-1.51099">
        <ele>7.4</ele>
      </trkpt>
      <trkpt lat="49.33999" lon="-1.51088">
        <ele>6.8</ele>
      </trkpt>
      <trkpt lat="49.3401" lon="-1.51087">
        <ele>6.8</ele>
      </trkpt>
      <trkpt lat="49.34021" lon="-1.51085">
        <ele>6.9</ele>
      </trkpt>
      <trkpt lat="49.34024" lon="-1.51085">
        <ele>6.9</ele>
      </trkpt>
      <trkpt lat="49.34037" lon="-1.51077">
        <ele>7.2</ele>
      </trkpt>
      <trkpt lat="49.34087" lon="-1.51044">
        <ele>7.8</ele>
      </trkpt>
      <trkpt lat="49.34101" lon="-1.5103">
        <ele>7.4</ele>
      </trkpt>
      <trkpt lat="49.34109" lon="-1.51024">
        <ele>7.1</ele>
      </trkpt>
      <trkpt lat="49.34116" lon="-1.51016">
        <ele>6.9</ele>
      </trkpt>
      <trkpt lat="49.34118" lon="-1.51009">
        <ele>6.8</ele>
      </trkpt>
      <trkpt lat="49.34119" lon="-1.51001">
        <ele>6.8</ele>
      </trkpt>
      <trkpt lat="49.34119" lon="-1.50994">
        <ele>6.8</ele>
      </trkpt>
      <trkpt lat="49.34115" lon="-1.50979">
        <ele>6.8</ele>
      </trkpt>
      <trkpt lat="49.34108" lon="-1.50961">
        <ele>6.9</ele>
      </trkpt>
      <trkpt lat="49.34103" lon="-1.50948">
        <ele>6.9</ele>
      </trkpt>
      <trkpt lat="49.34096" lon="-1.5093">
        <ele>6.8</ele>
      </trkpt>
      <trkpt lat="49.34095" lon="-1.50924">
        <ele>6.7</ele>
      </trkpt>
      <trkpt lat="49.34087" lon="-1.50899">
        <ele>6.7</ele>
      </trkpt>
      <trkpt lat="49.34079" lon="-1.50884">
        <ele>6.7</ele>
      </trkpt>
      <trkpt lat="49.34066" lon="-1.50856">
        <ele>6.5</ele>
      </trkpt>
      <trkpt lat="49.34055" lon="-1.5084">
        <ele>6.4</ele>
      </trkpt>
      <trkpt lat="49.34048" lon="-1.50823">
        <ele>6.5</ele>
      </trkpt>
      <trkpt lat="49.3404" lon="-1.5081">
        <ele>6.8</ele>
      </trkpt>
      <trkpt lat="49.34034" lon="-1.50802">
        <ele>7</ele>
      </trkpt>
      <trkpt lat="49.34026" lon="-1.50796">
        <ele>7.1</ele>
      </trkpt>
      <trkpt lat="49.34016" lon="-1.50791">
        <ele>7.3</ele>
      </trkpt>
      <trkpt lat="49.34006" lon="-1.50784">
        <ele>7.5</ele>
      </trkpt>
      <trkpt lat="49.33996" lon="-1.50772">
        <ele>7.9</ele>
      </trkpt>
      <trkpt lat="49.33991" lon="-1.50757">
        <ele>8.4</ele>
      </trkpt>
      <trkpt lat="49.33979" lon="-1.5071">
        <ele>9.6</ele>
      </trkpt>
      <trkpt lat="49.33969" lon="-1.5068">
        <ele>10.2</ele>
      </trkpt>
      <trkpt lat="49.33963" lon="-1.5067">
        <ele>10.4</ele>
      </trkpt>
      <trkpt lat="49.3396" lon="-1.50668">
        <ele>10.5</ele>
      </trkpt>
      <trkpt lat="49.33958" lon="-1.50667">
        <ele>10.5</ele>
      </trkpt>
      <trkpt lat="49.33948" lon="-1.50667">
        <ele>10.6</ele>
      </trkpt>
      <trkpt lat="49.33937" lon="-1.50671">
        <ele>10.8</ele>
      </trkpt>
      <trkpt lat="49.3389" lon="-1.50709">
        <ele>13</ele>
      </trkpt>
      <trkpt lat="49.33868" lon="-1.50724">
        <ele>14.2</ele>
      </trkpt>
      <trkpt lat="49.3387" lon="-1.50702">
        <ele>14</ele>
      </trkpt>
      <trkpt lat="49.33868" lon="-1.50676">
        <ele>14</ele>
      </trkpt>
      <trkpt lat="49.33863" lon="-1.50634">
        <ele>13.6</ele>
      </trkpt>
      <trkpt lat="49.3386" lon="-1.50608">
        <ele>13.2</ele>
      </trkpt>
      <trkpt lat="49.33854" lon="-1.50581">
        <ele>12.8</ele>
      </trkpt>
      <trkpt lat="49.33845" lon="-1.50551">
        <ele>12.9</ele>
      </trkpt>
      <trkpt lat="49.33837" lon="-1.50531">
        <ele>13</ele>
      </trkpt>
      <trkpt lat="49.3383" lon="-1.50511">
        <ele>13.2</ele>
      </trkpt>
      <trkpt lat="49.33817" lon="-1.50476">
        <ele>13.3</ele>
      </trkpt>
      <trkpt lat="49.33809" lon="-1.50447">
        <ele>13.3</ele>
      </trkpt>
      <trkpt lat="49.33805" lon="-1.50435">
        <ele>13.3</ele>
      </trkpt>
      <trkpt lat="49.33799" lon="-1.50414">
        <ele>13.4</ele>
      </trkpt>
      <trkpt lat="49.33797" lon="-1.50406">
        <ele>13.4</ele>
      </trkpt>
      <trkpt lat="49.33797" lon="-1.50396">
        <ele>13.2</ele>
      </trkpt>
      <trkpt lat="49.33798" lon="-1.50386">
        <ele>13</ele>
      </trkpt>
      <trkpt lat="49.33799" lon="-1.50383">
        <ele>12.9</ele>
      </trkpt>
      <trkpt lat="49.33799" lon="-1.50378">
        <ele>12.8</ele>
      </trkpt>
      <trkpt lat="49.33801" lon="-1.50369">
        <ele>12.5</ele>
      </trkpt>
      <trkpt lat="49.33804" lon="-1.5036">
        <ele>12.2</ele>
      </trkpt>
      <trkpt lat="49.33805" lon="-1.5035">
        <ele>12</ele>
      </trkpt>
      <trkpt lat="49.33807" lon="-1.5034">
        <ele>11.7</ele>
      </trkpt>
      <trkpt lat="49.33807" lon="-1.50329">
        <ele>11.6</ele>
      </trkpt>
      <trkpt lat="49.33806" lon="-1.50314">
        <ele>11.5</ele>
      </trkpt>
      <trkpt lat="49.33805" lon="-1.50309">
        <ele>11.5</ele>
      </trkpt>
      <trkpt lat="49.33805" lon="-1.50302">
        <ele>11.5</ele>
      </trkpt>
      <trkpt lat="49.33803" lon="-1.50289">
        <ele>11.4</ele>
      </trkpt>
      <trkpt lat="49.33801" lon="-1.50267">
        <ele>11.3</ele>
      </trkpt>
      <trkpt lat="49.33798" lon="-1.50253">
        <ele>11.3</ele>
      </trkpt>
      <trkpt lat="49.33793" lon="-1.50234">
        <ele>11.6</ele>
      </trkpt>
      <trkpt lat="49.33789" lon="-1.5022">
        <ele>12</ele>
      </trkpt>
      <trkpt lat="49.33782" lon="-1.50191">
        <ele>12.7</ele>
      </trkpt>
      <trkpt lat="49.33771" lon="-1.50156">
        <ele>13.7</ele>
      </trkpt>
      <trkpt lat="49.33763" lon="-1.50128">
        <ele>14.2</ele>
      </trkpt>
      <trkpt lat="49.3376" lon="-1.50118">
        <ele>14.4</ele>
      </trkpt>
      <trkpt lat="49.33758" lon="-1.50106">
        <ele>14.5</ele>
      </trkpt>
      <trkpt lat="49.33755" lon="-1.50092">
        <ele>14.7</ele>
      </trkpt>
      <trkpt lat="49.33753" lon="-1.50074">
        <ele>14.7</ele>
      </trkpt>
      <trkpt lat="49.33751" lon="-1.50066">
        <ele>14.7</ele>
      </trkpt>
      <trkpt lat="49.33749" lon="-1.50056">
        <ele>14.7</ele>
      </trkpt>
      <trkpt lat="49.33744" lon="-1.50029">
        <ele>14.5</ele>
      </trkpt>
      <trkpt lat="49.33739" lon="-1.50014">
        <ele>14.3</ele>
      </trkpt>
      <trkpt lat="49.3373" lon="-1.49987">
        <ele>13.8</ele>
      </trkpt>
      <trkpt lat="49.33741" lon="-1.49971">
        <ele>13.1</ele>
      </trkpt>
      <trkpt lat="49.33756" lon="-1.49945">
        <ele>11.8</ele>
      </trkpt>
      <trkpt lat="49.33776" lon="-1.49913">
        <ele>10.4</ele>
      </trkpt>
      <trkpt lat="49.33785" lon="-1.4989">
        <ele>10.1</ele>
      </trkpt>
      <trkpt lat="49.33792" lon="-1.49868">
        <ele>10</ele>
      </trkpt>
      <trkpt lat="49.33795" lon="-1.4986">
        <ele>10</ele>
      </trkpt>
      <trkpt lat="49.33799" lon="-1.49844">
        <ele>10</ele>
      </trkpt>
      <trkpt lat="49.33805" lon="-1.49824">
        <ele>10.2</ele>
      </trkpt>
      <trkpt lat="49.33817" lon="-1.49792">
        <ele>10.9</ele>
      </trkpt>
      <trkpt lat="49.33823" lon="-1.4977">
        <ele>11.4</ele>
      </trkpt>
      <trkpt lat="49.33835" lon="-1.49769">
        <ele>11.5</ele>
      </trkpt>
      <trkpt lat="49.33867" lon="-1.4978">
        <ele>11.1</ele>
      </trkpt>
      <trkpt lat="49.33877" lon="-1.49785">
        <ele>10.9</ele>
      </trkpt>
      <trkpt lat="49.33885" lon="-1.49793">
        <ele>10.6</ele>
      </trkpt>
      <trkpt lat="49.33902" lon="-1.49802">
        <ele>10.2</ele>
      </trkpt>
      <trkpt lat="49.3393" lon="-1.49814">
        <ele>9.5</ele>
      </trkpt>
      <trkpt lat="49.33953" lon="-1.49822">
        <ele>8.9</ele>
      </trkpt>
      <trkpt lat="49.33954" lon="-1.49823">
        <ele>8.9</ele>
      </trkpt>
      <trkpt lat="49.33967" lon="-1.49825">
        <ele>8.7</ele>
      </trkpt>
      <trkpt lat="49.33981" lon="-1.49827">
        <ele>8.4</ele>
      </trkpt>
      <trkpt lat="49.33995" lon="-1.49829">
        <ele>8.2</ele>
      </trkpt>
      <trkpt lat="49.34007" lon="-1.49831">
        <ele>8.1</ele>
      </trkpt>
      <trkpt lat="49.34023" lon="-1.49836">
        <ele>8.3</ele>
      </trkpt>
      <trkpt lat="49.3404" lon="-1.49841">
        <ele>8.4</ele>
      </trkpt>
      <trkpt lat="49.34046" lon="-1.49843">
        <ele>8.5</ele>
      </trkpt>
      <trkpt lat="49.3405" lon="-1.49844">
        <ele>8.5</ele>
      </trkpt>
      <trkpt lat="49.34059" lon="-1.49844">
        <ele>8.7</ele>
      </trkpt>
      <trkpt lat="49.34068" lon="-1.49844">
        <ele>8.8</ele>
      </trkpt>
      <trkpt lat="49.3408" lon="-1.4984">
        <ele>9</ele>
      </trkpt>
      <trkpt lat="49.34089" lon="-1.49837">
        <ele>9.1</ele>
      </trkpt>
      <trkpt lat="49.34095" lon="-1.49834">
        <ele>9.1</ele>
      </trkpt>
      <trkpt lat="49.34105" lon="-1.4983">
        <ele>9.3</ele>
      </trkpt>
      <trkpt lat="49.34117" lon="-1.49815">
        <ele>9.6</ele>
      </trkpt>
      <trkpt lat="49.34133" lon="-1.49798">
        <ele>10</ele>
      </trkpt>
      <trkpt lat="49.3415" lon="-1.49774">
        <ele>10.5</ele>
      </trkpt>
      <trkpt lat="49.34168" lon="-1.49749">
        <ele>11</ele>
      </trkpt>
      <trkpt lat="49.34178" lon="-1.49735">
        <ele>11.3</ele>
      </trkpt>
      <trkpt lat="49.34188" lon="-1.49722">
        <ele>11.6</ele>
      </trkpt>
      <trkpt lat="49.342" lon="-1.49712">
        <ele>11.7</ele>
      </trkpt>
      <trkpt lat="49.34215" lon="-1.497">
        <ele>11.8</ele>
      </trkpt>
      <trkpt lat="49.34234" lon="-1.49686">
        <ele>11.9</ele>
      </trkpt>
      <trkpt lat="49.34241" lon="-1.49681">
        <ele>11.9</ele>
      </trkpt>
      <trkpt lat="49.34255" lon="-1.49669">
        <ele>12</ele>
      </trkpt>
      <trkpt lat="49.34267" lon="-1.49658">
        <ele>12.7</ele>
      </trkpt>
      <trkpt lat="49.34273" lon="-1.49649">
        <ele>13.3</ele>
      </trkpt>
      <trkpt lat="49.3428" lon="-1.4964">
        <ele>13.8</ele>
      </trkpt>
      <trkpt lat="49.34303" lon="-1.49614">
        <ele>14.6</ele>
      </trkpt>
      <trkpt lat="49.34323" lon="-1.49593">
        <ele>14.4</ele>
      </trkpt>
      <trkpt lat="49.34324" lon="-1.49592">
        <ele>14.4</ele>
      </trkpt>
      <trkpt lat="49.34332" lon="-1.49582">
        <ele>14.2</ele>
      </trkpt>
      <trkpt lat="49.34339" lon="-1.49574">
        <ele>14.7</ele>
      </trkpt>
      <trkpt lat="49.34354" lon="-1.4956">
        <ele>15.6</ele>
      </trkpt>
      <trkpt lat="49.34357" lon="-1.49557">
        <ele>15.7</ele>
      </trkpt>
      <trkpt lat="49.34373" lon="-1.49544">
        <ele>16.4</ele>
      </trkpt>
      <trkpt lat="49.34386" lon="-1.49535">
        <ele>16.8</ele>
      </trkpt>
      <trkpt lat="49.34414" lon="-1.49513">
        <ele>17.4</ele>
      </trkpt>
      <trkpt lat="49.3444" lon="-1.49495">
        <ele>17.4</ele>
      </trkpt>
      <trkpt lat="49.34448" lon="-1.49488">
        <ele>17.4</ele>
      </trkpt>
      <trkpt lat="49.3446" lon="-1.49479">
        <ele>17.3</ele>
      </trkpt>
      <trkpt lat="49.34476" lon="-1.49468">
        <ele>17.1</ele>
      </trkpt>
      <trkpt lat="49.34492" lon="-1.4946">
        <ele>16.8</ele>
      </trkpt>
      <trkpt lat="49.34509" lon="-1.49453">
        <ele>16.5</ele>
      </trkpt>
      <trkpt lat="49.34527" lon="-1.49446">
        <ele>16.4</ele>
      </trkpt>
      <trkpt lat="49.34536" lon="-1.4944">
        <ele>16.4</ele>
      </trkpt>
      <trkpt lat="49.34546" lon="-1.49435">
        <ele>16.4</ele>
      </trkpt>
      <trkpt lat="49.34554" lon="-1.49427">
        <ele>16.4</ele>
      </trkpt>
      <trkpt lat="49.34561" lon="-1.49417">
        <ele>16.5</ele>
      </trkpt>
      <trkpt lat="49.34568" lon="-1.49404">
        <ele>17.4</ele>
      </trkpt>
      <trkpt lat="49.34571" lon="-1.49392">
        <ele>18.3</ele>
      </trkpt>
      <trkpt lat="49.34578" lon="-1.49347">
        <ele>21.9</ele>
      </trkpt>
      <trkpt lat="49.34594" lon="-1.4934">
        <ele>21.6</ele>
      </trkpt>
      <trkpt lat="49.34602" lon="-1.49337">
        <ele>21.2</ele>
      </trkpt>
      <trkpt lat="49.34614" lon="-1.49323">
        <ele>20.7</ele>
      </trkpt>
      <trkpt lat="49.34644" lon="-1.49291">
        <ele>18.7</ele>
      </trkpt>
      <trkpt lat="49.34653" lon="-1.4928">
        <ele>18</ele>
      </trkpt>
      <trkpt lat="49.34673" lon="-1.49251">
        <ele>16.5</ele>
      </trkpt>
      <trkpt lat="49.34684" lon="-1.49233">
        <ele>15.9</ele>
      </trkpt>
      <trkpt lat="49.34699" lon="-1.49205">
        <ele>15.4</ele>
      </trkpt>
      <trkpt lat="49.34707" lon="-1.49192">
        <ele>15</ele>
      </trkpt>
      <trkpt lat="49.34716" lon="-1.49181">
        <ele>14.5</ele>
      </trkpt>
      <trkpt lat="49.3473" lon="-1.49164">
        <ele>13.7</ele>
      </trkpt>
      <trkpt lat="49.34743" lon="-1.49144">
        <ele>12.8</ele>
      </trkpt>
      <trkpt lat="49.34767" lon="-1.49107">
        <ele>11.8</ele>
      </trkpt>
      <trkpt lat="49.34782" lon="-1.49086">
        <ele>11.1</ele>
      </trkpt>
      <trkpt lat="49.34787" lon="-1.49067">
        <ele>11</ele>
      </trkpt>
      <trkpt lat="49.34798" lon="-1.49033">
        <ele>10.7</ele>
      </trkpt>
      <trkpt lat="49.34816" lon="-1.48988">
        <ele>10.5</ele>
      </trkpt>
      <trkpt lat="49.3482" lon="-1.48977">
        <ele>10.7</ele>
      </trkpt>
      <trkpt lat="49.34825" lon="-1.48967">
        <ele>10.7</ele>
      </trkpt>
      <trkpt lat="49.34832" lon="-1.48955">
        <ele>10.7</ele>
      </trkpt>
      <trkpt lat="49.3484" lon="-1.48945">
        <ele>10.7</ele>
      </trkpt>
      <trkpt lat="49.34862" lon="-1.48927">
        <ele>10.6</ele>
      </trkpt>
      <trkpt lat="49.34873" lon="-1.4892">
        <ele>10.4</ele>
      </trkpt>
      <trkpt lat="49.34884" lon="-1.48912">
        <ele>10.3</ele>
      </trkpt>
      <trkpt lat="49.34904" lon="-1.48899">
        <ele>10.2</ele>
      </trkpt>
      <trkpt lat="49.34918" lon="-1.48891">
        <ele>10.2</ele>
      </trkpt>
      <trkpt lat="49.34938" lon="-1.48874">
        <ele>10.2</ele>
      </trkpt>
      <trkpt lat="49.34951" lon="-1.48856">
        <ele>10.4</ele>
      </trkpt>
      <trkpt lat="49.3496" lon="-1.48839">
        <ele>10.7</ele>
      </trkpt>
      <trkpt lat="49.34966" lon="-1.48822">
        <ele>11.4</ele>
      </trkpt>
      <trkpt lat="49.34971" lon="-1.48805">
        <ele>12.2</ele>
      </trkpt>
      <trkpt lat="49.34982" lon="-1.48783">
        <ele>12.8</ele>
      </trkpt>
      <trkpt lat="49.34999" lon="-1.48756">
        <ele>12.8</ele>
      </trkpt>
      <trkpt lat="49.3502" lon="-1.48721">
        <ele>13.3</ele>
      </trkpt>
      <trkpt lat="49.35025" lon="-1.48713">
        <ele>13.2</ele>
      </trkpt>
      <trkpt lat="49.35025" lon="-1.48713">
        <ele>13.2</ele>
      </trkpt>
      <trkpt lat="49.35045" lon="-1.48682">
        <ele>12.7</ele>
      </trkpt>
      <trkpt lat="49.35047" lon="-1.48677">
        <ele>12.7</ele>
      </trkpt>
      <trkpt lat="49.35059" lon="-1.48651">
        <ele>12.5</ele>
      </trkpt>
      <trkpt lat="49.35066" lon="-1.48634">
        <ele>12.6</ele>
      </trkpt>
      <trkpt lat="49.35078" lon="-1.48617">
        <ele>12.3</ele>
      </trkpt>
      <trkpt lat="49.35093" lon="-1.48593">
        <ele>12.8</ele>
      </trkpt>
      <trkpt lat="49.35104" lon="-1.48576">
        <ele>13.3</ele>
      </trkpt>
      <trkpt lat="49.35107" lon="-1.4857">
        <ele>13.4</ele>
      </trkpt>
      <trkpt lat="49.3511" lon="-1.48562">
        <ele>13.7</ele>
      </trkpt>
      <trkpt lat="49.35116" lon="-1.48547">
        <ele>14.1</ele>
      </trkpt>
      <trkpt lat="49.35123" lon="-1.48534">
        <ele>14.4</ele>
      </trkpt>
      <trkpt lat="49.35129" lon="-1.48519">
        <ele>14.6</ele>
      </trkpt>
      <trkpt lat="49.35139" lon="-1.48496">
        <ele>14.8</ele>
      </trkpt>
      <trkpt lat="49.3516" lon="-1.48445">
        <ele>14.6</ele>
      </trkpt>
      <trkpt lat="49.35185" lon="-1.48375">
        <ele>14.7</ele>
      </trkpt>
      <trkpt lat="49.35199" lon="-1.48332">
        <ele>14.3</ele>
      </trkpt>
      <trkpt lat="49.3521" lon="-1.483">
        <ele>14</ele>
      </trkpt>
      <trkpt lat="49.35217" lon="-1.48274">
        <ele>13.9</ele>
      </trkpt>
      <trkpt lat="49.35223" lon="-1.48252">
        <ele>13.8</ele>
      </trkpt>
      <trkpt lat="49.35229" lon="-1.48223">
        <ele>13</ele>
      </trkpt>
      <trkpt lat="49.35245" lon="-1.48177">
        <ele>11.4</ele>
      </trkpt>
      <trkpt lat="49.35255" lon="-1.48151">
        <ele>11.4</ele>
      </trkpt>
      <trkpt lat="49.35263" lon="-1.48127">
        <ele>12</ele>
      </trkpt>
      <trkpt lat="49.3527" lon="-1.48106">
        <ele>12.5</ele>
      </trkpt>
      <trkpt lat="49.35276" lon="-1.48083">
        <ele>13.1</ele>
      </trkpt>
      <trkpt lat="49.35282" lon="-1.48057">
        <ele>13.1</ele>
      </trkpt>
      <trkpt lat="49.35289" lon="-1.48032">
        <ele>13.1</ele>
      </trkpt>
      <trkpt lat="49.35294" lon="-1.48011">
        <ele>13.2</ele>
      </trkpt>
      <trkpt lat="49.35299" lon="-1.47997">
        <ele>13.3</ele>
      </trkpt>
      <trkpt lat="49.3531" lon="-1.47975">
        <ele>13.2</ele>
      </trkpt>
      <trkpt lat="49.35317" lon="-1.4796">
        <ele>13.1</ele>
      </trkpt>
      <trkpt lat="49.35323" lon="-1.47944">
        <ele>13.1</ele>
      </trkpt>
      <trkpt lat="49.35327" lon="-1.47922">
        <ele>13.2</ele>
      </trkpt>
      <trkpt lat="49.35331" lon="-1.47907">
        <ele>13</ele>
      </trkpt>
      <trkpt lat="49.35336" lon="-1.47893">
        <ele>12.6</ele>
      </trkpt>
      <trkpt lat="49.3534" lon="-1.47877">
        <ele>12.2</ele>
      </trkpt>
      <trkpt lat="49.35341" lon="-1.47852">
        <ele>11.9</ele>
      </trkpt>
      <trkpt lat="49.3534" lon="-1.47832">
        <ele>11.7</ele>
      </trkpt>
      <trkpt lat="49.35341" lon="-1.47807">
        <ele>11.4</ele>
      </trkpt>
      <trkpt lat="49.35344" lon="-1.47784">
        <ele>11</ele>
      </trkpt>
      <trkpt lat="49.35345" lon="-1.47768">
        <ele>10.7</ele>
      </trkpt>
      <trkpt lat="49.35346" lon="-1.4775">
        <ele>10.4</ele>
      </trkpt>
      <trkpt lat="49.35346" lon="-1.47734">
        <ele>10.3</ele>
      </trkpt>
      <trkpt lat="49.35346" lon="-1.47729">
        <ele>10.2</ele>
      </trkpt>
      <trkpt lat="49.35345" lon="-1.47714">
        <ele>10.1</ele>
      </trkpt>
      <trkpt lat="49.35344" lon="-1.47704">
        <ele>10.1</ele>
      </trkpt>
      <trkpt lat="49.35342" lon="-1.47688">
        <ele>10</ele>
      </trkpt>
      <trkpt lat="49.35342" lon="-1.47679">
        <ele>9.9</ele>
      </trkpt>
      <trkpt lat="49.35342" lon="-1.47672">
        <ele>9.9</ele>
      </trkpt>
      <trkpt lat="49.35342" lon="-1.47668">
        <ele>9.8</ele>
      </trkpt>
      <trkpt lat="49.35343" lon="-1.47657">
        <ele>10.1</ele>
      </trkpt>
      <trkpt lat="49.35345" lon="-1.47645">
        <ele>10.4</ele>
      </trkpt>
      <trkpt lat="49.35349" lon="-1.47631">
        <ele>10.9</ele>
      </trkpt>
      <trkpt lat="49.35352" lon="-1.47616">
        <ele>11.4</ele>
      </trkpt>
      <trkpt lat="49.35357" lon="-1.47604">
        <ele>12</ele>
      </trkpt>
      <trkpt lat="49.3536" lon="-1.47593">
        <ele>12.5</ele>
      </trkpt>
      <trkpt lat="49.35362" lon="-1.4759">
        <ele>12.7</ele>
      </trkpt>
      <trkpt lat="49.35367" lon="-1.47577">
        <ele>13.3</ele>
      </trkpt>
      <trkpt lat="49.35371" lon="-1.4757">
        <ele>13.6</ele>
      </trkpt>
      <trkpt lat="49.35377" lon="-1.47562">
        <ele>13.8</ele>
      </trkpt>
      <trkpt lat="49.35384" lon="-1.47553">
        <ele>14</ele>
      </trkpt>
      <trkpt lat="49.3539" lon="-1.47539">
        <ele>14.2</ele>
      </trkpt>
      <trkpt lat="49.35399" lon="-1.47521">
        <ele>14.2</ele>
      </trkpt>
      <trkpt lat="49.35407" lon="-1.47503">
        <ele>14.1</ele>
      </trkpt>
      <trkpt lat="49.35409" lon="-1.47498">
        <ele>14.1</ele>
      </trkpt>
      <trkpt lat="49.35422" lon="-1.47472">
        <ele>13.2</ele>
      </trkpt>
      <trkpt lat="49.35441" lon="-1.47444">
        <ele>11.3</ele>
      </trkpt>
      <trkpt lat="49.35461" lon="-1.47416">
        <ele>9.3</ele>
      </trkpt>
      <trkpt lat="49.35477" lon="-1.47384">
        <ele>9.6</ele>
      </trkpt>
      <trkpt lat="49.35492" lon="-1.47351">
        <ele>10.4</ele>
      </trkpt>
      <trkpt lat="49.35503" lon="-1.47323">
        <ele>11.2</ele>
      </trkpt>
      <trkpt lat="49.3551" lon="-1.47304">
        <ele>11.5</ele>
      </trkpt>
      <trkpt lat="49.35523" lon="-1.47284">
        <ele>11.4</ele>
      </trkpt>
      <trkpt lat="49.35535" lon="-1.47264">
        <ele>11.1</ele>
      </trkpt>
      <trkpt lat="49.35542" lon="-1.47246">
        <ele>11</ele>
      </trkpt>
      <trkpt lat="49.35543" lon="-1.47239">
        <ele>11</ele>
      </trkpt>
      <trkpt lat="49.35544" lon="-1.47231">
        <ele>10.9</ele>
      </trkpt>
      <trkpt lat="49.35546" lon="-1.47221">
        <ele>10.8</ele>
      </trkpt>
      <trkpt lat="49.35549" lon="-1.47211">
        <ele>10.6</ele>
      </trkpt>
      <trkpt lat="49.35553" lon="-1.47204">
        <ele>10.4</ele>
      </trkpt>
      <trkpt lat="49.35562" lon="-1.47187">
        <ele>9.7</ele>
      </trkpt>
      <trkpt lat="49.35573" lon="-1.47168">
        <ele>8.8</ele>
      </trkpt>
      <trkpt lat="49.35584" lon="-1.47144">
        <ele>9.1</ele>
      </trkpt>
      <trkpt lat="49.35589" lon="-1.47133">
        <ele>9.4</ele>
      </trkpt>
      <trkpt lat="49.35591" lon="-1.47129">
        <ele>9.5</ele>
      </trkpt>
      <trkpt lat="49.35597" lon="-1.47112">
        <ele>9.9</ele>
      </trkpt>
      <trkpt lat="49.35605" lon="-1.471">
        <ele>10</ele>
      </trkpt>
      <trkpt lat="49.35623" lon="-1.47077">
        <ele>10</ele>
      </trkpt>
      <trkpt lat="49.35635" lon="-1.47054">
        <ele>10.5</ele>
      </trkpt>
      <trkpt lat="49.35643" lon="-1.47034">
        <ele>11.2</ele>
      </trkpt>
      <trkpt lat="49.35654" lon="-1.47021">
        <ele>11.4</ele>
      </trkpt>
      <trkpt lat="49.3567" lon="-1.47001">
        <ele>11.7</ele>
      </trkpt>
      <trkpt lat="49.35684" lon="-1.46979">
        <ele>11.7</ele>
      </trkpt>
      <trkpt lat="49.35699" lon="-1.46963">
        <ele>11.4</ele>
      </trkpt>
      <trkpt lat="49.35706" lon="-1.46956">
        <ele>11.2</ele>
      </trkpt>
      <trkpt lat="49.35712" lon="-1.4695">
        <ele>11.1</ele>
      </trkpt>
      <trkpt lat="49.35717" lon="-1.46943">
        <ele>11</ele>
      </trkpt>
      <trkpt lat="49.35724" lon="-1.46933">
        <ele>11</ele>
      </trkpt>
      <trkpt lat="49.35731" lon="-1.46913">
        <ele>11.3</ele>
      </trkpt>
      <trkpt lat="49.35741" lon="-1.46875">
        <ele>12</ele>
      </trkpt>
      <trkpt lat="49.35752" lon="-1.46844">
        <ele>12.5</ele>
      </trkpt>
      <trkpt lat="49.35764" lon="-1.46809">
        <ele>13.2</ele>
      </trkpt>
      <trkpt lat="49.35776" lon="-1.46778">
        <ele>13.9</ele>
      </trkpt>
      <trkpt lat="49.35782" lon="-1.46758">
        <ele>14.4</ele>
      </trkpt>
      <trkpt lat="49.35788" lon="-1.46728">
        <ele>15.1</ele>
      </trkpt>
      <trkpt lat="49.35794" lon="-1.46701">
        <ele>15.6</ele>
      </trkpt>
      <trkpt lat="49.358" lon="-1.46677">
        <ele>16</ele>
      </trkpt>
      <trkpt lat="49.35806" lon="-1.46662">
        <ele>16.2</ele>
      </trkpt>
      <trkpt lat="49.35814" lon="-1.46649">
        <ele>16.3</ele>
      </trkpt>
      <trkpt lat="49.3582" lon="-1.46636">
        <ele>16.4</ele>
      </trkpt>
      <trkpt lat="49.35827" lon="-1.46623">
        <ele>16.6</ele>
      </trkpt>
      <trkpt lat="49.35832" lon="-1.46613">
        <ele>16.7</ele>
      </trkpt>
      <trkpt lat="49.35839" lon="-1.46596">
        <ele>16.9</ele>
      </trkpt>
      <trkpt lat="49.35852" lon="-1.46575">
        <ele>16.7</ele>
      </trkpt>
      <trkpt lat="49.35865" lon="-1.4656">
        <ele>16.6</ele>
      </trkpt>
      <trkpt lat="49.35878" lon="-1.46543">
        <ele>16.3</ele>
      </trkpt>
      <trkpt lat="49.35892" lon="-1.46528">
        <ele>15.9</ele>
      </trkpt>
      <trkpt lat="49.359" lon="-1.46521">
        <ele>15.6</ele>
      </trkpt>
      <trkpt lat="49.35907" lon="-1.46514">
        <ele>15.2</ele>
      </trkpt>
      <trkpt lat="49.35913" lon="-1.4651">
        <ele>14.8</ele>
      </trkpt>
      <trkpt lat="49.35919" lon="-1.46506">
        <ele>14.4</ele>
      </trkpt>
      <trkpt lat="49.35924" lon="-1.46498">
        <ele>14.3</ele>
      </trkpt>
      <trkpt lat="49.35927" lon="-1.46489">
        <ele>14.7</ele>
      </trkpt>
      <trkpt lat="49.35931" lon="-1.46482">
        <ele>15</ele>
      </trkpt>
      <trkpt lat="49.35936" lon="-1.46473">
        <ele>15</ele>
      </trkpt>
      <trkpt lat="49.35965" lon="-1.46433">
        <ele>13.8</ele>
      </trkpt>
      <trkpt lat="49.3598" lon="-1.46408">
        <ele>12.7</ele>
      </trkpt>
      <trkpt lat="49.35986" lon="-1.46402">
        <ele>12.2</ele>
      </trkpt>
      <trkpt lat="49.35991" lon="-1.46396">
        <ele>11.7</ele>
      </trkpt>
      <trkpt lat="49.35996" lon="-1.46392">
        <ele>11.1</ele>
      </trkpt>
      <trkpt lat="49.36003" lon="-1.46386">
        <ele>10.6</ele>
      </trkpt>
      <trkpt lat="49.36023" lon="-1.46371">
        <ele>10.1</ele>
      </trkpt>
      <trkpt lat="49.36032" lon="-1.46366">
        <ele>9.8</ele>
      </trkpt>
      <trkpt lat="49.36039" lon="-1.46363">
        <ele>9.4</ele>
      </trkpt>
      <trkpt lat="49.36047" lon="-1.4636">
        <ele>9.1</ele>
      </trkpt>
      <trkpt lat="49.36051" lon="-1.46357">
        <ele>8.9</ele>
      </trkpt>
      <trkpt lat="49.36055" lon="-1.46356">
        <ele>8.7</ele>
      </trkpt>
      <trkpt lat="49.36063" lon="-1.46351">
        <ele>8.4</ele>
      </trkpt>
      <trkpt lat="49.3607" lon="-1.46346">
        <ele>8.2</ele>
      </trkpt>
      <trkpt lat="49.36077" lon="-1.46341">
        <ele>8</ele>
      </trkpt>
      <trkpt lat="49.36083" lon="-1.46337">
        <ele>7.8</ele>
      </trkpt>
      <trkpt lat="49.36089" lon="-1.46336">
        <ele>7.9</ele>
      </trkpt>
      <trkpt lat="49.36095" lon="-1.46336">
        <ele>8</ele>
      </trkpt>
      <trkpt lat="49.36102" lon="-1.46337">
        <ele>8</ele>
      </trkpt>
      <trkpt lat="49.36108" lon="-1.46339">
        <ele>7.9</ele>
      </trkpt>
      <trkpt lat="49.36112" lon="-1.46341">
        <ele>7.8</ele>
      </trkpt>
      <trkpt lat="49.36118" lon="-1.46343">
        <ele>7.7</ele>
      </trkpt>
      <trkpt lat="49.36124" lon="-1.46344">
        <ele>7.7</ele>
      </trkpt>
      <trkpt lat="49.36131" lon="-1.46344">
        <ele>7.8</ele>
      </trkpt>
      <trkpt lat="49.3614" lon="-1.46344">
        <ele>7.9</ele>
      </trkpt>
      <trkpt lat="49.36149" lon="-1.46342">
        <ele>8.1</ele>
      </trkpt>
      <trkpt lat="49.36159" lon="-1.4634">
        <ele>8.4</ele>
      </trkpt>
      <trkpt lat="49.36169" lon="-1.46336">
        <ele>8.6</ele>
      </trkpt>
      <trkpt lat="49.36179" lon="-1.46332">
        <ele>8.2</ele>
      </trkpt>
      <trkpt lat="49.36189" lon="-1.46327">
        <ele>7.6</ele>
      </trkpt>
      <trkpt lat="49.36198" lon="-1.46321">
        <ele>7.1</ele>
      </trkpt>
      <trkpt lat="49.36208" lon="-1.46314">
        <ele>6.6</ele>
      </trkpt>
      <trkpt lat="49.36222" lon="-1.46302">
        <ele>5.9</ele>
      </trkpt>
      <trkpt lat="49.36233" lon="-1.46284">
        <ele>5.5</ele>
      </trkpt>
      <trkpt lat="49.36236" lon="-1.46277">
        <ele>5.5</ele>
      </trkpt>
      <trkpt lat="49.3625" lon="-1.46246">
        <ele>5</ele>
      </trkpt>
      <trkpt lat="49.36256" lon="-1.46227">
        <ele>4.7</ele>
      </trkpt>
      <trkpt lat="49.36257" lon="-1.46215">
        <ele>4.6</ele>
      </trkpt>
      <trkpt lat="49.36263" lon="-1.46206">
        <ele>4.4</ele>
      </trkpt>
      <trkpt lat="49.3627" lon="-1.46199">
        <ele>4.1</ele>
      </trkpt>
      <trkpt lat="49.36272" lon="-1.46196">
        <ele>3.9</ele>
      </trkpt>
      <trkpt lat="49.36274" lon="-1.46193">
        <ele>3.8</ele>
      </trkpt>
      <trkpt lat="49.36284" lon="-1.46181">
        <ele>3.4</ele>
      </trkpt>
      <trkpt lat="49.36298" lon="-1.46165">
        <ele>2.7</ele>
      </trkpt>
      <trkpt lat="49.36331" lon="-1.46123">
        <ele>2.1</ele>
      </trkpt>
      <trkpt lat="49.3634" lon="-1.46111">
        <ele>2.2</ele>
      </trkpt>
      <trkpt lat="49.36362" lon="-1.46085">
        <ele>2.3</ele>
      </trkpt>
      <trkpt lat="49.36369" lon="-1.46075">
        <ele>2.4</ele>
      </trkpt>
      <trkpt lat="49.36374" lon="-1.46067">
        <ele>2.5</ele>
      </trkpt>
      <trkpt lat="49.36376" lon="-1.46061">
        <ele>2.7</ele>
      </trkpt>
      <trkpt lat="49.36378" lon="-1.46056">
        <ele>2.8</ele>
      </trkpt>
      <trkpt lat="49.36378" lon="-1.46052">
        <ele>2.9</ele>
      </trkpt>
      <trkpt lat="49.36377" lon="-1.46047">
        <ele>3.1</ele>
      </trkpt>
      <trkpt lat="49.36386" lon="-1.46044">
        <ele>3.1</ele>
      </trkpt>
      <trkpt lat="49.36392" lon="-1.46044">
        <ele>3</ele>
      </trkpt>
      <trkpt lat="49.36402" lon="-1.46047">
        <ele>2.9</ele>
      </trkpt>
      <trkpt lat="49.36411" lon="-1.46051">
        <ele>2.6</ele>
      </trkpt>
      <trkpt lat="49.36429" lon="-1.46059">
        <ele>2.1</ele>
      </trkpt>
      <trkpt lat="49.36435" lon="-1.46059">
        <ele>2</ele>
      </trkpt>
      <trkpt lat="49.36441" lon="-1.46054">
        <ele>2.2</ele>
      </trkpt>
      <trkpt lat="49.36446" lon="-1.46047">
        <ele>2.4</ele>
      </trkpt>
      <trkpt lat="49.36452" lon="-1.46038">
        <ele>2.7</ele>
      </trkpt>
      <trkpt lat="49.36475" lon="-1.45997">
        <ele>3.7</ele>
      </trkpt>
      <trkpt lat="49.36499" lon="-1.45942">
        <ele>3.7</ele>
      </trkpt>
      <trkpt lat="49.36513" lon="-1.45911">
        <ele>3.7</ele>
      </trkpt>
      <trkpt lat="49.36515" lon="-1.45906">
        <ele>3.7</ele>
      </trkpt>
      <trkpt lat="49.3653" lon="-1.4587">
        <ele>3.9</ele>
      </trkpt>
      <trkpt lat="49.36539" lon="-1.4584">
        <ele>4</ele>
      </trkpt>
      <trkpt lat="49.36543" lon="-1.45827">
        <ele>4.1</ele>
      </trkpt>
      <trkpt lat="49.36545" lon="-1.45818">
        <ele>4.3</ele>
      </trkpt>
      <trkpt lat="49.36547" lon="-1.45812">
        <ele>4.4</ele>
      </trkpt>
      <trkpt lat="49.3655" lon="-1.45799">
        <ele>4.7</ele>
      </trkpt>
      <trkpt lat="49.36554" lon="-1.45784">
        <ele>5</ele>
      </trkpt>
      <trkpt lat="49.36543" lon="-1.45775">
        <ele>5.7</ele>
      </trkpt>
      <trkpt lat="49.36511" lon="-1.45747">
        <ele>7.6</ele>
      </trkpt>
      <trkpt lat="49.36489" lon="-1.45726">
        <ele>8.3</ele>
      </trkpt>
      <trkpt lat="49.3646" lon="-1.45698">
        <ele>9.3</ele>
      </trkpt>
      <trkpt lat="49.36435" lon="-1.45671">
        <ele>10.3</ele>
      </trkpt>
      <trkpt lat="49.36428" lon="-1.45662">
        <ele>10.5</ele>
      </trkpt>
      <trkpt lat="49.36422" lon="-1.45654">
        <ele>10.7</ele>
      </trkpt>
      <trkpt lat="49.36415" lon="-1.45646">
        <ele>10.8</ele>
      </trkpt>
      <trkpt lat="49.36406" lon="-1.45638">
        <ele>11</ele>
      </trkpt>
      <trkpt lat="49.36386" lon="-1.45623">
        <ele>11.4</ele>
      </trkpt>
      <trkpt lat="49.3636" lon="-1.45604">
        <ele>11.8</ele>
      </trkpt>
      <trkpt lat="49.36346" lon="-1.45594">
        <ele>11.9</ele>
      </trkpt>
      <trkpt lat="49.36349" lon="-1.45584">
        <ele>11.6</ele>
      </trkpt>
      <trkpt lat="49.36354" lon="-1.45568">
        <ele>11.6</ele>
      </trkpt>
      <trkpt lat="49.36358" lon="-1.45551">
        <ele>11.6</ele>
      </trkpt>
      <trkpt lat="49.36361" lon="-1.45532">
        <ele>11.5</ele>
      </trkpt>
      <trkpt lat="49.36363" lon="-1.45519">
        <ele>11.5</ele>
      </trkpt>
      <trkpt lat="49.36364" lon="-1.45513">
        <ele>11.5</ele>
      </trkpt>
      <trkpt lat="49.36366" lon="-1.45491">
        <ele>11.5</ele>
      </trkpt>
      <trkpt lat="49.36367" lon="-1.45479">
        <ele>11.6</ele>
      </trkpt>
      <trkpt lat="49.36371" lon="-1.45434">
        <ele>12</ele>
      </trkpt>
      <trkpt lat="49.36373" lon="-1.45414">
        <ele>12.1</ele>
      </trkpt>
      <trkpt lat="49.3638" lon="-1.45371">
        <ele>11.2</ele>
      </trkpt>
      <trkpt lat="49.36388" lon="-1.45326">
        <ele>10.4</ele>
      </trkpt>
      <trkpt lat="49.36398" lon="-1.45278">
        <ele>10.1</ele>
      </trkpt>
      <trkpt lat="49.364" lon="-1.45268">
        <ele>10</ele>
      </trkpt>
      <trkpt lat="49.36407" lon="-1.45238">
        <ele>9.9</ele>
      </trkpt>
      <trkpt lat="49.36412" lon="-1.45224">
        <ele>9.9</ele>
      </trkpt>
      <trkpt lat="49.36417" lon="-1.45206">
        <ele>10.1</ele>
      </trkpt>
      <trkpt lat="49.36423" lon="-1.45187">
        <ele>10.5</ele>
      </trkpt>
      <trkpt lat="49.36427" lon="-1.45164">
        <ele>11</ele>
      </trkpt>
      <trkpt lat="49.36432" lon="-1.45139">
        <ele>11.8</ele>
      </trkpt>
      <trkpt lat="49.36436" lon="-1.45113">
        <ele>12.5</ele>
      </trkpt>
      <trkpt lat="49.36438" lon="-1.45092">
        <ele>13.2</ele>
      </trkpt>
      <trkpt lat="49.36441" lon="-1.45066">
        <ele>13.5</ele>
      </trkpt>
      <trkpt lat="49.36444" lon="-1.45042">
        <ele>13.5</ele>
      </trkpt>
      <trkpt lat="49.36448" lon="-1.45017">
        <ele>13.6</ele>
      </trkpt>
      <trkpt lat="49.36453" lon="-1.44994">
        <ele>13.7</ele>
      </trkpt>
      <trkpt lat="49.36461" lon="-1.4497">
        <ele>14.2</ele>
      </trkpt>
      <trkpt lat="49.36462" lon="-1.44967">
        <ele>14.2</ele>
      </trkpt>
      <trkpt lat="49.36475" lon="-1.44933">
        <ele>14.6</ele>
      </trkpt>
      <trkpt lat="49.36477" lon="-1.44927">
        <ele>14.6</ele>
      </trkpt>
      <trkpt lat="49.36482" lon="-1.44913">
        <ele>14.7</ele>
      </trkpt>
      <trkpt lat="49.36488" lon="-1.44896">
        <ele>14.8</ele>
      </trkpt>
      <trkpt lat="49.36494" lon="-1.44877">
        <ele>14.8</ele>
      </trkpt>
      <trkpt lat="49.36498" lon="-1.44856">
        <ele>14.8</ele>
      </trkpt>
      <trkpt lat="49.365" lon="-1.44841">
        <ele>14.9</ele>
      </trkpt>
      <trkpt lat="49.36501" lon="-1.44833">
        <ele>15</ele>
      </trkpt>
      <trkpt lat="49.36501" lon="-1.44824">
        <ele>14.8</ele>
      </trkpt>
      <trkpt lat="49.36502" lon="-1.44812">
        <ele>14.7</ele>
      </trkpt>
      <trkpt lat="49.36506" lon="-1.44785">
        <ele>14.3</ele>
      </trkpt>
      <trkpt lat="49.36524" lon="-1.44698">
        <ele>13.4</ele>
      </trkpt>
      <trkpt lat="49.36531" lon="-1.44662">
        <ele>13.4</ele>
      </trkpt>
      <trkpt lat="49.36535" lon="-1.44642">
        <ele>13.9</ele>
      </trkpt>
      <trkpt lat="49.36537" lon="-1.44623">
        <ele>14.4</ele>
      </trkpt>
      <trkpt lat="49.36537" lon="-1.44605">
        <ele>14.9</ele>
      </trkpt>
      <trkpt lat="49.36537" lon="-1.44578">
        <ele>15.8</ele>
      </trkpt>
      <trkpt lat="49.36535" lon="-1.44559">
        <ele>16.6</ele>
      </trkpt>
      <trkpt lat="49.36534" lon="-1.44537">
        <ele>17.6</ele>
      </trkpt>
      <trkpt lat="49.36534" lon="-1.44529">
        <ele>17.9</ele>
      </trkpt>
      <trkpt lat="49.36533" lon="-1.44498">
        <ele>19.3</ele>
      </trkpt>
      <trkpt lat="49.36531" lon="-1.4445">
        <ele>20.5</ele>
      </trkpt>
      <trkpt lat="49.36527" lon="-1.44394">
        <ele>21.7</ele>
      </trkpt>
      <trkpt lat="49.36525" lon="-1.44364">
        <ele>22.2</ele>
      </trkpt>
      <trkpt lat="49.36524" lon="-1.44352">
        <ele>22.4</ele>
      </trkpt>
      <trkpt lat="49.36522" lon="-1.44329">
        <ele>22.7</ele>
      </trkpt>
      <trkpt lat="49.36519" lon="-1.44312">
        <ele>22.8</ele>
      </trkpt>
      <trkpt lat="49.36515" lon="-1.4429">
        <ele>22.8</ele>
      </trkpt>
      <trkpt lat="49.36511" lon="-1.4427">
        <ele>22.9</ele>
      </trkpt>
      <trkpt lat="49.36509" lon="-1.44262">
        <ele>22.9</ele>
      </trkpt>
      <trkpt lat="49.36508" lon="-1.44253">
        <ele>22.9</ele>
      </trkpt>
      <trkpt lat="49.36506" lon="-1.44245">
        <ele>23.1</ele>
      </trkpt>
      <trkpt lat="49.36505" lon="-1.44236">
        <ele>23.4</ele>
      </trkpt>
      <trkpt lat="49.36505" lon="-1.44226">
        <ele>23.8</ele>
      </trkpt>
      <trkpt lat="49.36505" lon="-1.44219">
        <ele>24</ele>
      </trkpt>
      <trkpt lat="49.36505" lon="-1.44211">
        <ele>24.3</ele>
      </trkpt>
      <trkpt lat="49.36506" lon="-1.44203">
        <ele>24.6</ele>
      </trkpt>
      <trkpt lat="49.36506" lon="-1.44195">
        <ele>24.8</ele>
      </trkpt>
      <trkpt lat="49.36507" lon="-1.44184">
        <ele>25.1</ele>
      </trkpt>
      <trkpt lat="49.36508" lon="-1.44174">
        <ele>25.5</ele>
      </trkpt>
      <trkpt lat="49.3651" lon="-1.44148">
        <ele>25.2</ele>
      </trkpt>
      <trkpt lat="49.3651" lon="-1.4413">
        <ele>24.8</ele>
      </trkpt>
      <trkpt lat="49.3651" lon="-1.44121">
        <ele>24.6</ele>
      </trkpt>
      <trkpt lat="49.3651" lon="-1.44112">
        <ele>24.4</ele>
      </trkpt>
      <trkpt lat="49.3651" lon="-1.44097">
        <ele>24.1</ele>
      </trkpt>
      <trkpt lat="49.3651" lon="-1.44087">
        <ele>23.8</ele>
      </trkpt>
      <trkpt lat="49.36511" lon="-1.44079">
        <ele>23.8</ele>
      </trkpt>
      <trkpt lat="49.36512" lon="-1.44071">
        <ele>24</ele>
      </trkpt>
      <trkpt lat="49.36513" lon="-1.44064">
        <ele>24.1</ele>
      </trkpt>
      <trkpt lat="49.36515" lon="-1.44058">
        <ele>24.2</ele>
      </trkpt>
      <trkpt lat="49.36516" lon="-1.44052">
        <ele>24.3</ele>
      </trkpt>
      <trkpt lat="49.36518" lon="-1.44046">
        <ele>24.4</ele>
      </trkpt>
      <trkpt lat="49.3652" lon="-1.44038">
        <ele>24.5</ele>
      </trkpt>
      <trkpt lat="49.36522" lon="-1.44032">
        <ele>24.5</ele>
      </trkpt>
      <trkpt lat="49.36523" lon="-1.4403">
        <ele>24.6</ele>
      </trkpt>
      <trkpt lat="49.36524" lon="-1.44025">
        <ele>24.6</ele>
      </trkpt>
      <trkpt lat="49.36524" lon="-1.44025">
        <ele>24.6</ele>
      </trkpt>
      <trkpt lat="49.36525" lon="-1.44017">
        <ele>24.8</ele>
      </trkpt>
      <trkpt lat="49.36527" lon="-1.44009">
        <ele>24.9</ele>
      </trkpt>
      <trkpt lat="49.36528" lon="-1.44">
        <ele>25</ele>
      </trkpt>
      <trkpt lat="49.36529" lon="-1.43992">
        <ele>25</ele>
      </trkpt>
      <trkpt lat="49.3653" lon="-1.43981">
        <ele>25.1</ele>
      </trkpt>
      <trkpt lat="49.3653" lon="-1.4397">
        <ele>25.2</ele>
      </trkpt>
      <trkpt lat="49.36531" lon="-1.43957">
        <ele>25.3</ele>
      </trkpt>
      <trkpt lat="49.36532" lon="-1.43939">
        <ele>25.4</ele>
      </trkpt>
      <trkpt lat="49.36532" lon="-1.43931">
        <ele>25.5</ele>
      </trkpt>
      <trkpt lat="49.36533" lon="-1.43913">
        <ele>25.6</ele>
      </trkpt>
      <trkpt lat="49.36534" lon="-1.43897">
        <ele>25.4</ele>
      </trkpt>
      <trkpt lat="49.36535" lon="-1.43881">
        <ele>25.2</ele>
      </trkpt>
      <trkpt lat="49.36535" lon="-1.43867">
        <ele>25.1</ele>
      </trkpt>
      <trkpt lat="49.36535" lon="-1.43854">
        <ele>24.9</ele>
      </trkpt>
      <trkpt lat="49.36536" lon="-1.43838">
        <ele>24.7</ele>
      </trkpt>
      <trkpt lat="49.36537" lon="-1.43827">
        <ele>24.7</ele>
      </trkpt>
      <trkpt lat="49.36537" lon="-1.43814">
        <ele>24.7</ele>
      </trkpt>
      <trkpt lat="49.36538" lon="-1.43803">
        <ele>24.6</ele>
      </trkpt>
      <trkpt lat="49.36539" lon="-1.43794">
        <ele>24.6</ele>
      </trkpt>
      <trkpt lat="49.3654" lon="-1.43783">
        <ele>24.6</ele>
      </trkpt>
      <trkpt lat="49.36541" lon="-1.43773">
        <ele>24.5</ele>
      </trkpt>
      <trkpt lat="49.36543" lon="-1.43763">
        <ele>24.5</ele>
      </trkpt>
      <trkpt lat="49.36544" lon="-1.43753">
        <ele>24.4</ele>
      </trkpt>
      <trkpt lat="49.36546" lon="-1.43742">
        <ele>24.4</ele>
      </trkpt>
      <trkpt lat="49.36547" lon="-1.43733">
        <ele>24.3</ele>
      </trkpt>
      <trkpt lat="49.36549" lon="-1.43707">
        <ele>24.2</ele>
      </trkpt>
      <trkpt lat="49.3655" lon="-1.43683">
        <ele>24.2</ele>
      </trkpt>
      <trkpt lat="49.36551" lon="-1.43653">
        <ele>24.1</ele>
      </trkpt>
      <trkpt lat="49.36553" lon="-1.4363">
        <ele>23.8</ele>
      </trkpt>
      <trkpt lat="49.36553" lon="-1.4362">
        <ele>23.7</ele>
      </trkpt>
      <trkpt lat="49.36553" lon="-1.43616">
        <ele>23.7</ele>
      </trkpt>
      <trkpt lat="49.36553" lon="-1.43606">
        <ele>23.6</ele>
      </trkpt>
      <trkpt lat="49.36554" lon="-1.43595">
        <ele>23.5</ele>
      </trkpt>
      <trkpt lat="49.36555" lon="-1.43584">
        <ele>23.3</ele>
      </trkpt>
      <trkpt lat="49.36556" lon="-1.43576">
        <ele>23.4</ele>
      </trkpt>
      <trkpt lat="49.36556" lon="-1.43562">
        <ele>23.6</ele>
      </trkpt>
      <trkpt lat="49.36556" lon="-1.43555">
        <ele>23.6</ele>
      </trkpt>
      <trkpt lat="49.36556" lon="-1.43547">
        <ele>23.7</ele>
      </trkpt>
      <trkpt lat="49.36556" lon="-1.43539">
        <ele>23.8</ele>
      </trkpt>
      <trkpt lat="49.36555" lon="-1.43524">
        <ele>24.1</ele>
      </trkpt>
      <trkpt lat="49.36554" lon="-1.43517">
        <ele>24.2</ele>
      </trkpt>
      <trkpt lat="49.36552" lon="-1.43509">
        <ele>24.4</ele>
      </trkpt>
      <trkpt lat="49.36549" lon="-1.43496">
        <ele>24.8</ele>
      </trkpt>
      <trkpt lat="49.36546" lon="-1.43489">
        <ele>25</ele>
      </trkpt>
      <trkpt lat="49.36543" lon="-1.43482">
        <ele>25.3</ele>
      </trkpt>
      <trkpt lat="49.3654" lon="-1.43475">
        <ele>25.5</ele>
      </trkpt>
      <trkpt lat="49.36537" lon="-1.43467">
        <ele>25.8</ele>
      </trkpt>
      <trkpt lat="49.36533" lon="-1.4346">
        <ele>26</ele>
      </trkpt>
      <trkpt lat="49.36529" lon="-1.43454">
        <ele>26.2</ele>
      </trkpt>
      <trkpt lat="49.36526" lon="-1.43449">
        <ele>26.3</ele>
      </trkpt>
      <trkpt lat="49.36522" lon="-1.43443">
        <ele>26.5</ele>
      </trkpt>
      <trkpt lat="49.36518" lon="-1.43438">
        <ele>26.6</ele>
      </trkpt>
      <trkpt lat="49.36514" lon="-1.43433">
        <ele>26.7</ele>
      </trkpt>
      <trkpt lat="49.3651" lon="-1.43429">
        <ele>26.8</ele>
      </trkpt>
      <trkpt lat="49.36505" lon="-1.43424">
        <ele>26.9</ele>
      </trkpt>
      <trkpt lat="49.36499" lon="-1.43419">
        <ele>27</ele>
      </trkpt>
      <trkpt lat="49.36493" lon="-1.43413">
        <ele>26.7</ele>
      </trkpt>
      <trkpt lat="49.36488" lon="-1.43409">
        <ele>26.4</ele>
      </trkpt>
      <trkpt lat="49.36483" lon="-1.43405">
        <ele>26.2</ele>
      </trkpt>
      <trkpt lat="49.36478" lon="-1.43402">
        <ele>26</ele>
      </trkpt>
      <trkpt lat="49.36472" lon="-1.43399">
        <ele>25.8</ele>
      </trkpt>
      <trkpt lat="49.36468" lon="-1.43398">
        <ele>25.7</ele>
      </trkpt>
      <trkpt lat="49.36464" lon="-1.43398">
        <ele>25.5</ele>
      </trkpt>
      <trkpt lat="49.3646" lon="-1.43397">
        <ele>25.5</ele>
      </trkpt>
      <trkpt lat="49.36456" lon="-1.43398">
        <ele>25.4</ele>
      </trkpt>
      <trkpt lat="49.36453" lon="-1.43399">
        <ele>25.3</ele>
      </trkpt>
      <trkpt lat="49.36449" lon="-1.434">
        <ele>25.3</ele>
      </trkpt>
      <trkpt lat="49.36445" lon="-1.43402">
        <ele>25.3</ele>
      </trkpt>
      <trkpt lat="49.36441" lon="-1.43403">
        <ele>25.2</ele>
      </trkpt>
      <trkpt lat="49.36438" lon="-1.43404">
        <ele>25.2</ele>
      </trkpt>
      <trkpt lat="49.36431" lon="-1.43404">
        <ele>25</ele>
      </trkpt>
      <trkpt lat="49.36424" lon="-1.43399">
        <ele>24.7</ele>
      </trkpt>
      <trkpt lat="49.36421" lon="-1.43396">
        <ele>24.6</ele>
      </trkpt>
      <trkpt lat="49.36417" lon="-1.43389">
        <ele>24.3</ele>
      </trkpt>
      <trkpt lat="49.36409" lon="-1.43373">
        <ele>24</ele>
      </trkpt>
      <trkpt lat="49.36394" lon="-1.43343">
        <ele>23.7</ele>
      </trkpt>
      <trkpt lat="49.36373" lon="-1.43297">
        <ele>24.3</ele>
      </trkpt>
      <trkpt lat="49.36346" lon="-1.43239">
        <ele>25.5</ele>
      </trkpt>
      <trkpt lat="49.3632" lon="-1.43181">
        <ele>26</ele>
      </trkpt>
      <trkpt lat="49.36299" lon="-1.43135">
        <ele>26</ele>
      </trkpt>
      <trkpt lat="49.36299" lon="-1.43134">
        <ele>26</ele>
      </trkpt>
      <trkpt lat="49.36288" lon="-1.4311">
        <ele>26</ele>
      </trkpt>
      <trkpt lat="49.36284" lon="-1.43101">
        <ele>26</ele>
      </trkpt>
      <trkpt lat="49.36276" lon="-1.43083">
        <ele>26</ele>
      </trkpt>
      <trkpt lat="49.36266" lon="-1.43059">
        <ele>25.8</ele>
      </trkpt>
      <trkpt lat="49.36261" lon="-1.43042">
        <ele>25.6</ele>
      </trkpt>
      <trkpt lat="49.36249" lon="-1.43045">
        <ele>25.5</ele>
      </trkpt>
      <trkpt lat="49.36245" lon="-1.43046">
        <ele>25.5</ele>
      </trkpt>
      <trkpt lat="49.36238" lon="-1.43049">
        <ele>25.3</ele>
      </trkpt>
      <trkpt lat="49.36233" lon="-1.43051">
        <ele>25.3</ele>
      </trkpt>
      <trkpt lat="49.36228" lon="-1.43053">
        <ele>25.2</ele>
      </trkpt>
      <trkpt lat="49.36222" lon="-1.43056">
        <ele>25.1</ele>
      </trkpt>
      <trkpt lat="49.36216" lon="-1.43062">
        <ele>25</ele>
      </trkpt>
      <trkpt lat="49.36209" lon="-1.43067">
        <ele>24.9</ele>
      </trkpt>
      <trkpt lat="49.36204" lon="-1.43072">
        <ele>24.8</ele>
      </trkpt>
      <trkpt lat="49.36199" lon="-1.43077">
        <ele>24.7</ele>
      </trkpt>
      <trkpt lat="49.36193" lon="-1.43081">
        <ele>24.6</ele>
      </trkpt>
      <trkpt lat="49.36188" lon="-1.43085">
        <ele>24.5</ele>
      </trkpt>
      <trkpt lat="49.36181" lon="-1.43086">
        <ele>24.4</ele>
      </trkpt>
      <trkpt lat="49.36174" lon="-1.43086">
        <ele>24.2</ele>
      </trkpt>
      <trkpt lat="49.36166" lon="-1.43086">
        <ele>24</ele>
      </trkpt>
      <trkpt lat="49.36159" lon="-1.43085">
        <ele>24</ele>
      </trkpt>
      <trkpt lat="49.36152" lon="-1.43082">
        <ele>24</ele>
      </trkpt>
      <trkpt lat="49.36146" lon="-1.43079">
        <ele>24</ele>
      </trkpt>
      <trkpt lat="49.3614" lon="-1.43074">
        <ele>24</ele>
      </trkpt>
      <trkpt lat="49.36135" lon="-1.43067">
        <ele>23.9</ele>
      </trkpt>
      <trkpt lat="49.36129" lon="-1.43061">
        <ele>23.9</ele>
      </trkpt>
      <trkpt lat="49.36124" lon="-1.43055">
        <ele>23.8</ele>
      </trkpt>
      <trkpt lat="49.3612" lon="-1.43049">
        <ele>23.8</ele>
      </trkpt>
      <trkpt lat="49.36115" lon="-1.43044">
        <ele>23.7</ele>
      </trkpt>
      <trkpt lat="49.36108" lon="-1.43038">
        <ele>23.6</ele>
      </trkpt>
      <trkpt lat="49.361" lon="-1.4303">
        <ele>23.5</ele>
      </trkpt>
      <trkpt lat="49.3609" lon="-1.43022">
        <ele>23.3</ele>
      </trkpt>
      <trkpt lat="49.36064" lon="-1.42996">
        <ele>23.2</ele>
      </trkpt>
      <trkpt lat="49.3602" lon="-1.42957">
        <ele>23.2</ele>
      </trkpt>
      <trkpt lat="49.35991" lon="-1.42927">
        <ele>23.1</ele>
      </trkpt>
      <trkpt lat="49.35989" lon="-1.42924">
        <ele>23.1</ele>
      </trkpt>
      <trkpt lat="49.35981" lon="-1.42916">
        <ele>23</ele>
      </trkpt>
      <trkpt lat="49.35972" lon="-1.42905">
        <ele>22.7</ele>
      </trkpt>
      <trkpt lat="49.35954" lon="-1.42887">
        <ele>22.1</ele>
      </trkpt>
      <trkpt lat="49.35934" lon="-1.42873">
        <ele>21.5</ele>
      </trkpt>
      <trkpt lat="49.35895" lon="-1.4285">
        <ele>21.5</ele>
      </trkpt>
      <trkpt lat="49.35915" lon="-1.42819">
        <ele>19.9</ele>
      </trkpt>
      <trkpt lat="49.35926" lon="-1.42797">
        <ele>19.6</ele>
      </trkpt>
      <trkpt lat="49.35934" lon="-1.42781">
        <ele>19.3</ele>
      </trkpt>
      <trkpt lat="49.35949" lon="-1.42753">
        <ele>18.7</ele>
      </trkpt>
      <trkpt lat="49.35963" lon="-1.42735">
        <ele>18.5</ele>
      </trkpt>
      <trkpt lat="49.35981" lon="-1.42718">
        <ele>18.3</ele>
      </trkpt>
      <trkpt lat="49.36004" lon="-1.42704">
        <ele>18.1</ele>
      </trkpt>
      <trkpt lat="49.3602" lon="-1.42696">
        <ele>18.6</ele>
      </trkpt>
      <trkpt lat="49.36028" lon="-1.42693">
        <ele>18.8</ele>
      </trkpt>
      <trkpt lat="49.36033" lon="-1.42692">
        <ele>18.9</ele>
      </trkpt>
      <trkpt lat="49.3604" lon="-1.42691">
        <ele>19.1</ele>
      </trkpt>
      <trkpt lat="49.36049" lon="-1.42689">
        <ele>19.3</ele>
      </trkpt>
      <trkpt lat="49.36077" lon="-1.42683">
        <ele>20</ele>
      </trkpt>
      <trkpt lat="49.36084" lon="-1.42683">
        <ele>20.2</ele>
      </trkpt>
      <trkpt lat="49.36089" lon="-1.42683">
        <ele>20.3</ele>
      </trkpt>
      <trkpt lat="49.36095" lon="-1.42683">
        <ele>20.5</ele>
      </trkpt>
      <trkpt lat="49.36104" lon="-1.42684">
        <ele>20.7</ele>
      </trkpt>
      <trkpt lat="49.36114" lon="-1.42683">
        <ele>20.9</ele>
      </trkpt>
      <trkpt lat="49.36123" lon="-1.42683">
        <ele>21.1</ele>
      </trkpt>
      <trkpt lat="49.3613" lon="-1.42682">
        <ele>21.3</ele>
      </trkpt>
      <trkpt lat="49.36137" lon="-1.4268">
        <ele>21.4</ele>
      </trkpt>
      <trkpt lat="49.36148" lon="-1.42677">
        <ele>21.7</ele>
      </trkpt>
      <trkpt lat="49.36156" lon="-1.42674">
        <ele>21.8</ele>
      </trkpt>
      <trkpt lat="49.36163" lon="-1.42671">
        <ele>22</ele>
      </trkpt>
      <trkpt lat="49.36172" lon="-1.42667">
        <ele>22.1</ele>
      </trkpt>
      <trkpt lat="49.36181" lon="-1.42663">
        <ele>22.2</ele>
      </trkpt>
      <trkpt lat="49.36191" lon="-1.42658">
        <ele>22.4</ele>
      </trkpt>
      <trkpt lat="49.36207" lon="-1.42651">
        <ele>22.7</ele>
      </trkpt>
      <trkpt lat="49.3622" lon="-1.42647">
        <ele>23</ele>
      </trkpt>
      <trkpt lat="49.36222" lon="-1.42647">
        <ele>23</ele>
      </trkpt>
      <trkpt lat="49.36232" lon="-1.42647">
        <ele>23.3</ele>
      </trkpt>
      <trkpt lat="49.36239" lon="-1.4264">
        <ele>23.4</ele>
      </trkpt>
      <trkpt lat="49.36241" lon="-1.42638">
        <ele>23.4</ele>
      </trkpt>
      <trkpt lat="49.36247" lon="-1.42631">
        <ele>23.5</ele>
      </trkpt>
      <trkpt lat="49.36256" lon="-1.42623">
        <ele>23.5</ele>
      </trkpt>
      <trkpt lat="49.36264" lon="-1.42615">
        <ele>23.6</ele>
      </trkpt>
      <trkpt lat="49.36273" lon="-1.42608">
        <ele>23.6</ele>
      </trkpt>
      <trkpt lat="49.36284" lon="-1.42601">
        <ele>23.6</ele>
      </trkpt>
      <trkpt lat="49.36292" lon="-1.42596">
        <ele>23.7</ele>
      </trkpt>
      <trkpt lat="49.36302" lon="-1.42592">
        <ele>23.7</ele>
      </trkpt>
      <trkpt lat="49.36318" lon="-1.42583">
        <ele>23.8</ele>
      </trkpt>
      <trkpt lat="49.36357" lon="-1.42566">
        <ele>22.5</ele>
      </trkpt>
      <trkpt lat="49.364" lon="-1.42546">
        <ele>20.3</ele>
      </trkpt>
      <trkpt lat="49.36416" lon="-1.42539">
        <ele>19.5</ele>
      </trkpt>
      <trkpt lat="49.36462" lon="-1.42517">
        <ele>17.2</ele>
      </trkpt>
      <trkpt lat="49.36491" lon="-1.42504">
        <ele>15.6</ele>
      </trkpt>
      <trkpt lat="49.365" lon="-1.425">
        <ele>15</ele>
      </trkpt>
      <trkpt lat="49.36501" lon="-1.4249">
        <ele>15</ele>
      </trkpt>
      <trkpt lat="49.36502" lon="-1.42483">
        <ele>14.9</ele>
      </trkpt>
      <trkpt lat="49.36504" lon="-1.4248">
        <ele>14.8</ele>
      </trkpt>
      <trkpt lat="49.36502" lon="-1.42483">
        <ele>14.9</ele>
      </trkpt>
      <trkpt lat="49.36501" lon="-1.4249">
        <ele>15</ele>
      </trkpt>
      <trkpt lat="49.365" lon="-1.425">
        <ele>15</ele>
      </trkpt>
      <trkpt lat="49.36502" lon="-1.42499">
        <ele>14.9</ele>
      </trkpt>
      <trkpt lat="49.36509" lon="-1.42497">
        <ele>14.4</ele>
      </trkpt>
      <trkpt lat="49.36518" lon="-1.42495">
        <ele>13.9</ele>
      </trkpt>
      <trkpt lat="49.36526" lon="-1.42493">
        <ele>13.4</ele>
      </trkpt>
      <trkpt lat="49.36534" lon="-1.42492">
        <ele>12.9</ele>
      </trkpt>
      <trkpt lat="49.36546" lon="-1.42491">
        <ele>12.2</ele>
      </trkpt>
      <trkpt lat="49.36568" lon="-1.42492">
        <ele>10.8</ele>
      </trkpt>
      <trkpt lat="49.36599" lon="-1.42493">
        <ele>8.6</ele>
      </trkpt>
      <trkpt lat="49.36605" lon="-1.42493">
        <ele>8.1</ele>
      </trkpt>
      <trkpt lat="49.36611" lon="-1.42493">
        <ele>7.7</ele>
      </trkpt>
      <trkpt lat="49.36612" lon="-1.42493">
        <ele>7.5</ele>
      </trkpt>
      <trkpt lat="49.36621" lon="-1.42493">
        <ele>6.8</ele>
      </trkpt>
      <trkpt lat="49.36628" lon="-1.42494">
        <ele>6.2</ele>
      </trkpt>
      <trkpt lat="49.36635" lon="-1.42494">
        <ele>5.6</ele>
      </trkpt>
      <trkpt lat="49.36639" lon="-1.42493">
        <ele>5.3</ele>
      </trkpt>
      <trkpt lat="49.36643" lon="-1.42493">
        <ele>5</ele>
      </trkpt>
      <trkpt lat="49.36654" lon="-1.42491">
        <ele>4</ele>
      </trkpt>
      <trkpt lat="49.36672" lon="-1.42489">
        <ele>2.9</ele>
      </trkpt>
      <trkpt lat="49.36691" lon="-1.42486">
        <ele>2.7</ele>
      </trkpt>
      <trkpt lat="49.36711" lon="-1.42483">
        <ele>2.4</ele>
      </trkpt>
      <trkpt lat="49.36731" lon="-1.42481">
        <ele>2.1</ele>
      </trkpt>
      <trkpt lat="49.36746" lon="-1.42479">
        <ele>1.8</ele>
      </trkpt>
      <trkpt lat="49.36773" lon="-1.42478">
        <ele>1.7</ele>
      </trkpt>
      <trkpt lat="49.36802" lon="-1.42478">
        <ele>1.7</ele>
      </trkpt>
      <trkpt lat="49.36873" lon="-1.42479">
        <ele>1.4</ele>
      </trkpt>
      <trkpt lat="49.3694" lon="-1.4248">
        <ele>1</ele>
      </trkpt>
      <trkpt lat="49.37012" lon="-1.4248">
        <ele>2.6</ele>
      </trkpt>
      <trkpt lat="49.37075" lon="-1.42481">
        <ele>2.7</ele>
      </trkpt>
      <trkpt lat="49.37105" lon="-1.42481">
        <ele>2.7</ele>
      </trkpt>
      <trkpt lat="49.37133" lon="-1.42481">
        <ele>2.1</ele>
      </trkpt>
      <trkpt lat="49.37168" lon="-1.42481">
        <ele>2.7</ele>
      </trkpt>
      <trkpt lat="49.37191" lon="-1.4248">
        <ele>3.4</ele>
      </trkpt>
      <trkpt lat="49.37225" lon="-1.42477">
        <ele>3.6</ele>
      </trkpt>
      <trkpt lat="49.37256" lon="-1.42475">
        <ele>2.8</ele>
      </trkpt>
      <trkpt lat="49.37257" lon="-1.42475">
        <ele>2.8</ele>
      </trkpt>
      <trkpt lat="49.37262" lon="-1.42474">
        <ele>2.9</ele>
      </trkpt>
      <trkpt lat="49.37298" lon="-1.42471">
        <ele>3</ele>
      </trkpt>
      <trkpt lat="49.37346" lon="-1.42466">
        <ele>1</ele>
      </trkpt>
      <trkpt lat="49.37401" lon="-1.42462">
        <ele>1</ele>
      </trkpt>
      <trkpt lat="49.37452" lon="-1.42457">
        <ele>1</ele>
      </trkpt>
      <trkpt lat="49.37456" lon="-1.42457">
        <ele>1</ele>
      </trkpt>
      <trkpt lat="49.37521" lon="-1.42451">
        <ele>1.6</ele>
      </trkpt>
      <trkpt lat="49.37575" lon="-1.42447">
        <ele>1.9</ele>
      </trkpt>
      <trkpt lat="49.37602" lon="-1.42444">
        <ele>2.2</ele>
      </trkpt>
      <trkpt lat="49.37607" lon="-1.42443">
        <ele>2.3</ele>
      </trkpt>
      <trkpt lat="49.37619" lon="-1.42442">
        <ele>2.4</ele>
      </trkpt>
      <trkpt lat="49.37626" lon="-1.42441">
        <ele>2.5</ele>
      </trkpt>
      <trkpt lat="49.37629" lon="-1.42441">
        <ele>2.5</ele>
      </trkpt>
      <trkpt lat="49.37646" lon="-1.42441">
        <ele>2.8</ele>
      </trkpt>
      <trkpt lat="49.37662" lon="-1.42441">
        <ele>2.9</ele>
      </trkpt>
      <trkpt lat="49.37687" lon="-1.42444">
        <ele>3.8</ele>
      </trkpt>
      <trkpt lat="49.37691" lon="-1.42446">
        <ele>3.9</ele>
      </trkpt>
      <trkpt lat="49.37705" lon="-1.42447">
        <ele>4.5</ele>
      </trkpt>
      <trkpt lat="49.37712" lon="-1.42448">
        <ele>4.8</ele>
      </trkpt>
      <trkpt lat="49.3772" lon="-1.42449">
        <ele>5.1</ele>
      </trkpt>
      <trkpt lat="49.37728" lon="-1.42451">
        <ele>5.4</ele>
      </trkpt>
      <trkpt lat="49.37739" lon="-1.42451">
        <ele>5.7</ele>
      </trkpt>
      <trkpt lat="49.37747" lon="-1.42451">
        <ele>6</ele>
      </trkpt>
      <trkpt lat="49.37755" lon="-1.42451">
        <ele>6.2</ele>
      </trkpt>
      <trkpt lat="49.37763" lon="-1.42451">
        <ele>6.4</ele>
      </trkpt>
      <trkpt lat="49.37768" lon="-1.42451">
        <ele>6.4</ele>
      </trkpt>
      <trkpt lat="49.37776" lon="-1.42451">
        <ele>6.5</ele>
      </trkpt>
      <trkpt lat="49.37782" lon="-1.4245">
        <ele>6.7</ele>
      </trkpt>
      <trkpt lat="49.37787" lon="-1.42449">
        <ele>6.8</ele>
      </trkpt>
      <trkpt lat="49.37792" lon="-1.42448">
        <ele>6.9</ele>
      </trkpt>
      <trkpt lat="49.37795" lon="-1.42449">
        <ele>6.9</ele>
      </trkpt>
      <trkpt lat="49.37799" lon="-1.42452">
        <ele>6.8</ele>
      </trkpt>
      <trkpt lat="49.37799" lon="-1.42457">
        <ele>6.7</ele>
      </trkpt>
      <trkpt lat="49.378" lon="-1.42462">
        <ele>6.5</ele>
      </trkpt>
      <trkpt lat="49.37801" lon="-1.42464">
        <ele>6.4</ele>
      </trkpt>
      <trkpt lat="49.378" lon="-1.42462">
        <ele>6.5</ele>
      </trkpt>
      <trkpt lat="49.37799" lon="-1.42457">
        <ele>6.7</ele>
      </trkpt>
      <trkpt lat="49.37799" lon="-1.42452">
        <ele>6.8</ele>
      </trkpt>
      <trkpt lat="49.37801" lon="-1.42447">
        <ele>7</ele>
      </trkpt>
      <trkpt lat="49.37802" lon="-1.42446">
        <ele>7.1</ele>
      </trkpt>
      <trkpt lat="49.37804" lon="-1.42444">
        <ele>7.2</ele>
      </trkpt>
      <trkpt lat="49.37807" lon="-1.42443">
        <ele>7.3</ele>
      </trkpt>
      <trkpt lat="49.3781" lon="-1.42444">
        <ele>7.3</ele>
      </trkpt>
      <trkpt lat="49.37811" lon="-1.42444">
        <ele>7.3</ele>
      </trkpt>
      <trkpt lat="49.37812" lon="-1.42438">
        <ele>7.6</ele>
      </trkpt>
      <trkpt lat="49.37815" lon="-1.42431">
        <ele>7.9</ele>
      </trkpt>
      <trkpt lat="49.37818" lon="-1.42426">
        <ele>8.2</ele>
      </trkpt>
      <trkpt lat="49.37821" lon="-1.42422">
        <ele>8.5</ele>
      </trkpt>
      <trkpt lat="49.37824" lon="-1.42419">
        <ele>8.7</ele>
      </trkpt>
      <trkpt lat="49.37829" lon="-1.42415">
        <ele>9</ele>
      </trkpt>
      <trkpt lat="49.37835" lon="-1.42411">
        <ele>9.2</ele>
      </trkpt>
      <trkpt lat="49.37837" lon="-1.4241">
        <ele>9.3</ele>
      </trkpt>
      <trkpt lat="49.3784" lon="-1.42408">
        <ele>9.4</ele>
      </trkpt>
      <trkpt lat="49.37846" lon="-1.42402">
        <ele>9.8</ele>
      </trkpt>
      <trkpt lat="49.37848" lon="-1.42404">
        <ele>9.7</ele>
      </trkpt>
      <trkpt lat="49.37851" lon="-1.42407">
        <ele>9.6</ele>
      </trkpt>
      <trkpt lat="49.37856" lon="-1.42407">
        <ele>9.7</ele>
      </trkpt>
      <trkpt lat="49.37861" lon="-1.42406">
        <ele>9.8</ele>
      </trkpt>
      <trkpt lat="49.3787" lon="-1.42402">
        <ele>10.1</ele>
      </trkpt>
      <trkpt lat="49.37921" lon="-1.42381">
        <ele>12.1</ele>
      </trkpt>
      <trkpt lat="49.37928" lon="-1.42379">
        <ele>12.2</ele>
      </trkpt>
      <trkpt lat="49.37935" lon="-1.42375">
        <ele>12.3</ele>
      </trkpt>
      <trkpt lat="49.37944" lon="-1.4237">
        <ele>12.5</ele>
      </trkpt>
      <trkpt lat="49.37976" lon="-1.4235">
        <ele>13.3</ele>
      </trkpt>
      <trkpt lat="49.37991" lon="-1.42342">
        <ele>13.6</ele>
      </trkpt>
      <trkpt lat="49.38005" lon="-1.42334">
        <ele>14</ele>
      </trkpt>
      <trkpt lat="49.38007" lon="-1.42342">
        <ele>13.5</ele>
      </trkpt>
      <trkpt lat="49.38009" lon="-1.42351">
        <ele>13</ele>
      </trkpt>
      <trkpt lat="49.38011" lon="-1.4236">
        <ele>12.5</ele>
      </trkpt>
      <trkpt lat="49.38018" lon="-1.42361">
        <ele>12.5</ele>
      </trkpt>
      <trkpt lat="49.3803" lon="-1.42363">
        <ele>12.6</ele>
      </trkpt>
      <trkpt lat="49.38046" lon="-1.42364">
        <ele>12.8</ele>
      </trkpt>
      <trkpt lat="49.38057" lon="-1.42363">
        <ele>13</ele>
      </trkpt>
      <trkpt lat="49.38062" lon="-1.42363">
        <ele>13</ele>
      </trkpt>
      <trkpt lat="49.38068" lon="-1.42363">
        <ele>13.1</ele>
      </trkpt>
      <trkpt lat="49.38089" lon="-1.42365">
        <ele>13.5</ele>
      </trkpt>
      <trkpt lat="49.38101" lon="-1.42366">
        <ele>14</ele>
      </trkpt>
      <trkpt lat="49.38147" lon="-1.42386">
        <ele>16</ele>
      </trkpt>
      <trkpt lat="49.38172" lon="-1.42385">
        <ele>16.7</ele>
      </trkpt>
      <trkpt lat="49.38193" lon="-1.42383">
        <ele>15.2</ele>
      </trkpt>
      <trkpt lat="49.38198" lon="-1.42374">
        <ele>15</ele>
      </trkpt>
      <trkpt lat="49.38207" lon="-1.42355">
        <ele>14.5</ele>
      </trkpt>
      <trkpt lat="49.38212" lon="-1.42345">
        <ele>14.2</ele>
      </trkpt>
      <trkpt lat="49.38216" lon="-1.42333">
        <ele>14</ele>
      </trkpt>
      <trkpt lat="49.38219" lon="-1.42325">
        <ele>14</ele>
      </trkpt>
      <trkpt lat="49.38222" lon="-1.42313">
        <ele>14.1</ele>
      </trkpt>
      <trkpt lat="49.38225" lon="-1.42303">
        <ele>14.1</ele>
      </trkpt>
      <trkpt lat="49.38228" lon="-1.4229">
        <ele>14.2</ele>
      </trkpt>
      <trkpt lat="49.3823" lon="-1.42281">
        <ele>14.3</ele>
      </trkpt>
      <trkpt lat="49.38232" lon="-1.4227">
        <ele>14.4</ele>
      </trkpt>
      <trkpt lat="49.38234" lon="-1.42259">
        <ele>14.6</ele>
      </trkpt>
      <trkpt lat="49.38236" lon="-1.42248">
        <ele>14.7</ele>
      </trkpt>
      <trkpt lat="49.3824" lon="-1.42232">
        <ele>15.1</ele>
      </trkpt>
      <trkpt lat="49.38242" lon="-1.42222">
        <ele>15.4</ele>
      </trkpt>
      <trkpt lat="49.38245" lon="-1.42211">
        <ele>15.6</ele>
      </trkpt>
      <trkpt lat="49.38248" lon="-1.42201">
        <ele>15.9</ele>
      </trkpt>
      <trkpt lat="49.38252" lon="-1.42193">
        <ele>16</ele>
      </trkpt>
      <trkpt lat="49.38256" lon="-1.42187">
        <ele>16.2</ele>
      </trkpt>
      <trkpt lat="49.3826" lon="-1.4218">
        <ele>16.4</ele>
      </trkpt>
      <trkpt lat="49.38264" lon="-1.42172">
        <ele>16.6</ele>
      </trkpt>
      <trkpt lat="49.3827" lon="-1.4216">
        <ele>16.9</ele>
      </trkpt>
      <trkpt lat="49.38275" lon="-1.42151">
        <ele>17</ele>
      </trkpt>
      <trkpt lat="49.38279" lon="-1.42141">
        <ele>17.2</ele>
      </trkpt>
      <trkpt lat="49.38284" lon="-1.42129">
        <ele>17.3</ele>
      </trkpt>
      <trkpt lat="49.38288" lon="-1.42116">
        <ele>17.5</ele>
      </trkpt>
      <trkpt lat="49.38292" lon="-1.42105">
        <ele>17.6</ele>
      </trkpt>
      <trkpt lat="49.38295" lon="-1.42093">
        <ele>17.8</ele>
      </trkpt>
      <trkpt lat="49.38297" lon="-1.42084">
        <ele>17.8</ele>
      </trkpt>
      <trkpt lat="49.383" lon="-1.42073">
        <ele>17.9</ele>
      </trkpt>
      <trkpt lat="49.38303" lon="-1.4206">
        <ele>17.9</ele>
      </trkpt>
      <trkpt lat="49.38306" lon="-1.42049">
        <ele>17.9</ele>
      </trkpt>
      <trkpt lat="49.38308" lon="-1.42041">
        <ele>17.9</ele>
      </trkpt>
      <trkpt lat="49.38309" lon="-1.42037">
        <ele>17.9</ele>
      </trkpt>
      <trkpt lat="49.38313" lon="-1.42023">
        <ele>17.8</ele>
      </trkpt>
      <trkpt lat="49.38317" lon="-1.42007">
        <ele>17.7</ele>
      </trkpt>
      <trkpt lat="49.38321" lon="-1.41993">
        <ele>17.8</ele>
      </trkpt>
      <trkpt lat="49.38324" lon="-1.41979">
        <ele>17.9</ele>
      </trkpt>
      <trkpt lat="49.38327" lon="-1.41966">
        <ele>18.1</ele>
      </trkpt>
      <trkpt lat="49.38329" lon="-1.41951">
        <ele>18.3</ele>
      </trkpt>
      <trkpt lat="49.38331" lon="-1.41937">
        <ele>18.6</ele>
      </trkpt>
      <trkpt lat="49.38334" lon="-1.41919">
        <ele>19</ele>
      </trkpt>
      <trkpt lat="49.38336" lon="-1.41903">
        <ele>19.1</ele>
      </trkpt>
      <trkpt lat="49.38338" lon="-1.41889">
        <ele>19.3</ele>
      </trkpt>
      <trkpt lat="49.38343" lon="-1.41866">
        <ele>19.4</ele>
      </trkpt>
      <trkpt lat="49.38347" lon="-1.41846">
        <ele>19.6</ele>
      </trkpt>
      <trkpt lat="49.3835" lon="-1.41846">
        <ele>19.5</ele>
      </trkpt>
      <trkpt lat="49.38353" lon="-1.41845">
        <ele>19.4</ele>
      </trkpt>
      <trkpt lat="49.38355" lon="-1.41844">
        <ele>19.4</ele>
      </trkpt>
      <trkpt lat="49.38365" lon="-1.41833">
        <ele>19.2</ele>
      </trkpt>
      <trkpt lat="49.38382" lon="-1.41809">
        <ele>19</ele>
      </trkpt>
      <trkpt lat="49.38393" lon="-1.4179">
        <ele>18.9</ele>
      </trkpt>
      <trkpt lat="49.384" lon="-1.41776">
        <ele>19</ele>
      </trkpt>
      <trkpt lat="49.38406" lon="-1.41762">
        <ele>19</ele>
      </trkpt>
      <trkpt lat="49.38413" lon="-1.4175">
        <ele>19.1</ele>
      </trkpt>
      <trkpt lat="49.38419" lon="-1.41737">
        <ele>19.4</ele>
      </trkpt>
      <trkpt lat="49.38428" lon="-1.41727">
        <ele>20.1</ele>
      </trkpt>
      <trkpt lat="49.38434" lon="-1.41718">
        <ele>20.5</ele>
      </trkpt>
      <trkpt lat="49.38441" lon="-1.41708">
        <ele>21</ele>
      </trkpt>
      <trkpt lat="49.38447" lon="-1.41694">
        <ele>21.5</ele>
      </trkpt>
      <trkpt lat="49.38454" lon="-1.41676">
        <ele>22.2</ele>
      </trkpt>
      <trkpt lat="49.3846" lon="-1.41657">
        <ele>22.5</ele>
      </trkpt>
      <trkpt lat="49.38476" lon="-1.41606">
        <ele>22.3</ele>
      </trkpt>
      <trkpt lat="49.38483" lon="-1.41586">
        <ele>22</ele>
      </trkpt>
      <trkpt lat="49.38487" lon="-1.41571">
        <ele>22</ele>
      </trkpt>
      <trkpt lat="49.38491" lon="-1.41557">
        <ele>22</ele>
      </trkpt>
      <trkpt lat="49.38494" lon="-1.41546">
        <ele>22</ele>
      </trkpt>
      <trkpt lat="49.38497" lon="-1.41533">
        <ele>22</ele>
      </trkpt>
      <trkpt lat="49.38499" lon="-1.41522">
        <ele>22</ele>
      </trkpt>
      <trkpt lat="49.38501" lon="-1.4151">
        <ele>22</ele>
      </trkpt>
      <trkpt lat="49.38503" lon="-1.41501">
        <ele>22</ele>
      </trkpt>
      <trkpt lat="49.38504" lon="-1.4149">
        <ele>22.1</ele>
      </trkpt>
      <trkpt lat="49.38505" lon="-1.41481">
        <ele>22.1</ele>
      </trkpt>
      <trkpt lat="49.38508" lon="-1.41464">
        <ele>22.1</ele>
      </trkpt>
      <trkpt lat="49.38512" lon="-1.41443">
        <ele>22.1</ele>
      </trkpt>
      <trkpt lat="49.38514" lon="-1.41447">
        <ele>22.2</ele>
      </trkpt>
      <trkpt lat="49.38519" lon="-1.41454">
        <ele>22.2</ele>
      </trkpt>
      <trkpt lat="49.3852" lon="-1.41457">
        <ele>22.2</ele>
      </trkpt>
      <trkpt lat="49.38525" lon="-1.41464">
        <ele>22.3</ele>
      </trkpt>
      <trkpt lat="49.38529" lon="-1.41471">
        <ele>22.3</ele>
      </trkpt>
      <trkpt lat="49.38534" lon="-1.41477">
        <ele>22.4</ele>
      </trkpt>
      <trkpt lat="49.38541" lon="-1.41485">
        <ele>22.5</ele>
      </trkpt>
      <trkpt lat="49.38546" lon="-1.41491">
        <ele>22.6</ele>
      </trkpt>
      <trkpt lat="49.38551" lon="-1.41495">
        <ele>22.6</ele>
      </trkpt>
      <trkpt lat="49.38558" lon="-1.41501">
        <ele>22.7</ele>
      </trkpt>
      <trkpt lat="49.38563" lon="-1.41505">
        <ele>22.8</ele>
      </trkpt>
      <trkpt lat="49.38569" lon="-1.41509">
        <ele>22.9</ele>
      </trkpt>
      <trkpt lat="49.38602" lon="-1.41523">
        <ele>23.4</ele>
      </trkpt>
      <trkpt lat="49.38628" lon="-1.41535">
        <ele>23.7</ele>
      </trkpt>
      <trkpt lat="49.3864" lon="-1.4154">
        <ele>23.8</ele>
      </trkpt>
      <trkpt lat="49.38656" lon="-1.41547">
        <ele>23.9</ele>
      </trkpt>
      <trkpt lat="49.38675" lon="-1.41558">
        <ele>24.3</ele>
      </trkpt>
      <trkpt lat="49.38684" lon="-1.41563">
        <ele>24.6</ele>
      </trkpt>
      <trkpt lat="49.38715" lon="-1.41585">
        <ele>25.7</ele>
      </trkpt>
      <trkpt lat="49.38738" lon="-1.41601">
        <ele>26.4</ele>
      </trkpt>
      <trkpt lat="49.3879" lon="-1.41635">
        <ele>26.9</ele>
      </trkpt>
      <trkpt lat="49.38838" lon="-1.41667">
        <ele>27.1</ele>
      </trkpt>
      <trkpt lat="49.38873" lon="-1.41688">
        <ele>27.2</ele>
      </trkpt>
      <trkpt lat="49.38904" lon="-1.41704">
        <ele>27.1</ele>
      </trkpt>
      <trkpt lat="49.38946" lon="-1.41723">
        <ele>26.5</ele>
      </trkpt>
      <trkpt lat="49.38976" lon="-1.41739">
        <ele>26.2</ele>
      </trkpt>
      <trkpt lat="49.39014" lon="-1.41758">
        <ele>25.9</ele>
      </trkpt>
      <trkpt lat="49.39067" lon="-1.41787">
        <ele>25.2</ele>
      </trkpt>
      <trkpt lat="49.39118" lon="-1.41818">
        <ele>24.7</ele>
      </trkpt>
      <trkpt lat="49.39138" lon="-1.41832">
        <ele>24.7</ele>
      </trkpt>
      <trkpt lat="49.39148" lon="-1.4184">
        <ele>24.8</ele>
      </trkpt>
      <trkpt lat="49.39157" lon="-1.41848">
        <ele>24.9</ele>
      </trkpt>
      <trkpt lat="49.39168" lon="-1.41855">
        <ele>25</ele>
      </trkpt>
      <trkpt lat="49.3918" lon="-1.41859">
        <ele>25.2</ele>
      </trkpt>
      <trkpt lat="49.39191" lon="-1.41864">
        <ele>25.4</ele>
      </trkpt>
      <trkpt lat="49.392" lon="-1.41867">
        <ele>25.6</ele>
      </trkpt>
      <trkpt lat="49.3921" lon="-1.41871">
        <ele>25.8</ele>
      </trkpt>
      <trkpt lat="49.39219" lon="-1.41873">
        <ele>25.9</ele>
      </trkpt>
      <trkpt lat="49.39233" lon="-1.41876">
        <ele>26.2</ele>
      </trkpt>
      <trkpt lat="49.3925" lon="-1.41879">
        <ele>26.5</ele>
      </trkpt>
      <trkpt lat="49.39254" lon="-1.4188">
        <ele>26.5</ele>
      </trkpt>
      <trkpt lat="49.39265" lon="-1.41882">
        <ele>26.3</ele>
      </trkpt>
      <trkpt lat="49.39278" lon="-1.41886">
        <ele>26.1</ele>
      </trkpt>
      <trkpt lat="49.39289" lon="-1.4189">
        <ele>25.9</ele>
      </trkpt>
      <trkpt lat="49.39296" lon="-1.41893">
        <ele>25.8</ele>
      </trkpt>
      <trkpt lat="49.39343" lon="-1.41916">
        <ele>24.9</ele>
      </trkpt>
      <trkpt lat="49.39354" lon="-1.41923">
        <ele>24.8</ele>
      </trkpt>
      <trkpt lat="49.39362" lon="-1.41929">
        <ele>24.7</ele>
      </trkpt>
      <trkpt lat="49.39374" lon="-1.41936">
        <ele>24.5</ele>
      </trkpt>
      <trkpt lat="49.39384" lon="-1.41941">
        <ele>24.4</ele>
      </trkpt>
      <trkpt lat="49.39394" lon="-1.41945">
        <ele>24.3</ele>
      </trkpt>
      <trkpt lat="49.39405" lon="-1.41948">
        <ele>24.1</ele>
      </trkpt>
      <trkpt lat="49.39415" lon="-1.41951">
        <ele>24</ele>
      </trkpt>
      <trkpt lat="49.39419" lon="-1.41952">
        <ele>24</ele>
      </trkpt>
      <trkpt lat="49.39426" lon="-1.41954">
        <ele>24.1</ele>
      </trkpt>
      <trkpt lat="49.39435" lon="-1.41956">
        <ele>24.2</ele>
      </trkpt>
      <trkpt lat="49.3946" lon="-1.41961">
        <ele>24.5</ele>
      </trkpt>
      <trkpt lat="49.39492" lon="-1.41965">
        <ele>25</ele>
      </trkpt>
      <trkpt lat="49.3951" lon="-1.41966">
        <ele>25.3</ele>
      </trkpt>
      <trkpt lat="49.39565" lon="-1.41967">
        <ele>25.8</ele>
      </trkpt>
      <trkpt lat="49.396" lon="-1.41968">
        <ele>25.9</ele>
      </trkpt>
      <trkpt lat="49.39672" lon="-1.41969">
        <ele>25.3</ele>
      </trkpt>
      <trkpt lat="49.39669" lon="-1.41987">
        <ele>25.7</ele>
      </trkpt>
      <trkpt lat="49.3966" lon="-1.42022">
        <ele>26.2</ele>
      </trkpt>
      <trkpt lat="49.39642" lon="-1.42106">
        <ele>26.2</ele>
      </trkpt>
      <trkpt lat="49.3964" lon="-1.42116">
        <ele>26</ele>
      </trkpt>
      <trkpt lat="49.39639" lon="-1.42124">
        <ele>25.9</ele>
      </trkpt>
      <trkpt lat="49.39638" lon="-1.42131">
        <ele>25.7</ele>
      </trkpt>
      <trkpt lat="49.39637" lon="-1.42139">
        <ele>25.5</ele>
      </trkpt>
      <trkpt lat="49.39638" lon="-1.42147">
        <ele>25.4</ele>
      </trkpt>
      <trkpt lat="49.39639" lon="-1.42153">
        <ele>25.3</ele>
      </trkpt>
      <trkpt lat="49.3964" lon="-1.42158">
        <ele>25.2</ele>
      </trkpt>
      <trkpt lat="49.39642" lon="-1.42164">
        <ele>25.1</ele>
      </trkpt>
      <trkpt lat="49.39645" lon="-1.42171">
        <ele>25</ele>
      </trkpt>
      <trkpt lat="49.39667" lon="-1.42209">
        <ele>25.5</ele>
      </trkpt>
      <trkpt lat="49.39684" lon="-1.42234">
        <ele>25.8</ele>
      </trkpt>
      <trkpt lat="49.39697" lon="-1.42255">
        <ele>26</ele>
      </trkpt>
      <trkpt lat="49.397" lon="-1.4226">
        <ele>26</ele>
      </trkpt>
      <trkpt lat="49.39704" lon="-1.42265">
        <ele>25.9</ele>
      </trkpt>
      <trkpt lat="49.39708" lon="-1.42272">
        <ele>25.9</ele>
      </trkpt>
      <trkpt lat="49.3971" lon="-1.42278">
        <ele>25.8</ele>
      </trkpt>
      <trkpt lat="49.39712" lon="-1.42282">
        <ele>25.8</ele>
      </trkpt>
      <trkpt lat="49.39714" lon="-1.42288">
        <ele>25.7</ele>
      </trkpt>
      <trkpt lat="49.39716" lon="-1.42293">
        <ele>25.7</ele>
      </trkpt>
      <trkpt lat="49.39718" lon="-1.42302">
        <ele>25.6</ele>
      </trkpt>
      <trkpt lat="49.39721" lon="-1.4231">
        <ele>25.5</ele>
      </trkpt>
      <trkpt lat="49.39722" lon="-1.42317">
        <ele>25.5</ele>
      </trkpt>
      <trkpt lat="49.39723" lon="-1.42323">
        <ele>25.4</ele>
      </trkpt>
      <trkpt lat="49.39724" lon="-1.42331">
        <ele>25.3</ele>
      </trkpt>
      <trkpt lat="49.39725" lon="-1.42338">
        <ele>25.2</ele>
      </trkpt>
      <trkpt lat="49.39725" lon="-1.42348">
        <ele>25</ele>
      </trkpt>
      <trkpt lat="49.39725" lon="-1.42382">
        <ele>24.3</ele>
      </trkpt>
      <trkpt lat="49.39725" lon="-1.42395">
        <ele>24.1</ele>
      </trkpt>
      <trkpt lat="49.39724" lon="-1.4241">
        <ele>23.8</ele>
      </trkpt>
      <trkpt lat="49.39724" lon="-1.4242">
        <ele>23.6</ele>
      </trkpt>
      <trkpt lat="49.39724" lon="-1.42431">
        <ele>23.6</ele>
      </trkpt>
      <trkpt lat="49.39723" lon="-1.42438">
        <ele>23.6</ele>
      </trkpt>
      <trkpt lat="49.39724" lon="-1.42444">
        <ele>23.5</ele>
      </trkpt>
      <trkpt lat="49.39725" lon="-1.42449">
        <ele>23.5</ele>
      </trkpt>
      <trkpt lat="49.39726" lon="-1.42454">
        <ele>23.5</ele>
      </trkpt>
      <trkpt lat="49.39727" lon="-1.42459">
        <ele>23.4</ele>
      </trkpt>
      <trkpt lat="49.39728" lon="-1.42462">
        <ele>23.4</ele>
      </trkpt>
      <trkpt lat="49.3973" lon="-1.42466">
        <ele>23.3</ele>
      </trkpt>
      <trkpt lat="49.39733" lon="-1.42474">
        <ele>23.3</ele>
      </trkpt>
      <trkpt lat="49.39736" lon="-1.42478">
        <ele>23.2</ele>
      </trkpt>
      <trkpt lat="49.39743" lon="-1.42494">
        <ele>23.1</ele>
      </trkpt>
      <trkpt lat="49.3973" lon="-1.42509">
        <ele>23.3</ele>
      </trkpt>
      <trkpt lat="49.39715" lon="-1.42524">
        <ele>23.5</ele>
      </trkpt>
      <trkpt lat="49.39695" lon="-1.42538">
        <ele>23.5</ele>
      </trkpt>
      <trkpt lat="49.39667" lon="-1.42559">
        <ele>23.3</ele>
      </trkpt>
      <trkpt lat="49.39658" lon="-1.42566">
        <ele>23</ele>
      </trkpt>
      <trkpt lat="49.3965" lon="-1.42574">
        <ele>22.8</ele>
      </trkpt>
      <trkpt lat="49.3964" lon="-1.42587">
        <ele>22.4</ele>
      </trkpt>
      <trkpt lat="49.39631" lon="-1.426">
        <ele>22.3</ele>
      </trkpt>
      <trkpt lat="49.39622" lon="-1.42617">
        <ele>22.1</ele>
      </trkpt>
      <trkpt lat="49.39615" lon="-1.42632">
        <ele>22</ele>
      </trkpt>
      <trkpt lat="49.39611" lon="-1.42645">
        <ele>21.9</ele>
      </trkpt>
      <trkpt lat="49.39607" lon="-1.42664">
        <ele>21.8</ele>
      </trkpt>
      <trkpt lat="49.39593" lon="-1.42725">
        <ele>22</ele>
      </trkpt>
      <trkpt lat="49.3959" lon="-1.42747">
        <ele>22.1</ele>
      </trkpt>
      <trkpt lat="49.39588" lon="-1.42756">
        <ele>22.2</ele>
      </trkpt>
      <trkpt lat="49.39587" lon="-1.42769">
        <ele>22.3</ele>
      </trkpt>
      <trkpt lat="49.39586" lon="-1.4278">
        <ele>22.4</ele>
      </trkpt>
      <trkpt lat="49.39585" lon="-1.4279">
        <ele>22.5</ele>
      </trkpt>
      <trkpt lat="49.39585" lon="-1.42799">
        <ele>22.6</ele>
      </trkpt>
      <trkpt lat="49.39586" lon="-1.42808">
        <ele>22.7</ele>
      </trkpt>
      <trkpt lat="49.39586" lon="-1.42818">
        <ele>22.9</ele>
      </trkpt>
      <trkpt lat="49.39586" lon="-1.42826">
        <ele>23</ele>
      </trkpt>
      <trkpt lat="49.39586" lon="-1.42834">
        <ele>23</ele>
      </trkpt>
      <trkpt lat="49.39586" lon="-1.42843">
        <ele>23.1</ele>
      </trkpt>
      <trkpt lat="49.39584" lon="-1.4285">
        <ele>23.2</ele>
      </trkpt>
      <trkpt lat="49.39582" lon="-1.42858">
        <ele>23.3</ele>
      </trkpt>
      <trkpt lat="49.39579" lon="-1.42865">
        <ele>23.4</ele>
      </trkpt>
      <trkpt lat="49.39575" lon="-1.42873">
        <ele>23.5</ele>
      </trkpt>
      <trkpt lat="49.3957" lon="-1.42883">
        <ele>23.6</ele>
      </trkpt>
      <trkpt lat="49.39564" lon="-1.42893">
        <ele>23.7</ele>
      </trkpt>
      <trkpt lat="49.39548" lon="-1.42919">
        <ele>23.6</ele>
      </trkpt>
      <trkpt lat="49.39519" lon="-1.42971">
        <ele>23.7</ele>
      </trkpt>
      <trkpt lat="49.39513" lon="-1.42986">
        <ele>23.9</ele>
      </trkpt>
      <trkpt lat="49.3951" lon="-1.42995">
        <ele>23.9</ele>
      </trkpt>
      <trkpt lat="49.39508" lon="-1.43002">
        <ele>24</ele>
      </trkpt>
      <trkpt lat="49.39507" lon="-1.4301">
        <ele>24.1</ele>
      </trkpt>
      <trkpt lat="49.39506" lon="-1.43021">
        <ele>24.2</ele>
      </trkpt>
      <trkpt lat="49.39504" lon="-1.43031">
        <ele>24.4</ele>
      </trkpt>
      <trkpt lat="49.39503" lon="-1.43042">
        <ele>24.5</ele>
      </trkpt>
      <trkpt lat="49.39503" lon="-1.43055">
        <ele>24.6</ele>
      </trkpt>
      <trkpt lat="49.39502" lon="-1.43066">
        <ele>24.8</ele>
      </trkpt>
      <trkpt lat="49.39501" lon="-1.4308">
        <ele>24.9</ele>
      </trkpt>
      <trkpt lat="49.395" lon="-1.43091">
        <ele>24.8</ele>
      </trkpt>
      <trkpt lat="49.395" lon="-1.43104">
        <ele>24.5</ele>
      </trkpt>
      <trkpt lat="49.39499" lon="-1.43113">
        <ele>24.3</ele>
      </trkpt>
      <trkpt lat="49.39499" lon="-1.43123">
        <ele>24</ele>
      </trkpt>
      <trkpt lat="49.39498" lon="-1.43133">
        <ele>23.8</ele>
      </trkpt>
      <trkpt lat="49.39496" lon="-1.43142">
        <ele>23.6</ele>
      </trkpt>
      <trkpt lat="49.39495" lon="-1.43153">
        <ele>23.4</ele>
      </trkpt>
      <trkpt lat="49.39493" lon="-1.43163">
        <ele>23.2</ele>
      </trkpt>
      <trkpt lat="49.39491" lon="-1.43173">
        <ele>23.1</ele>
      </trkpt>
      <trkpt lat="49.39489" lon="-1.43182">
        <ele>23.1</ele>
      </trkpt>
      <trkpt lat="49.39487" lon="-1.43191">
        <ele>23.1</ele>
      </trkpt>
      <trkpt lat="49.39485" lon="-1.43202">
        <ele>23.1</ele>
      </trkpt>
      <trkpt lat="49.39479" lon="-1.43224">
        <ele>23.1</ele>
      </trkpt>
      <trkpt lat="49.3947" lon="-1.43259">
        <ele>23</ele>
      </trkpt>
      <trkpt lat="49.39466" lon="-1.43277">
        <ele>22.9</ele>
      </trkpt>
      <trkpt lat="49.39465" lon="-1.43283">
        <ele>22.9</ele>
      </trkpt>
      <trkpt lat="49.39464" lon="-1.43291">
        <ele>22.9</ele>
      </trkpt>
      <trkpt lat="49.39464" lon="-1.433">
        <ele>22.9</ele>
      </trkpt>
      <trkpt lat="49.39462" lon="-1.43321">
        <ele>22.9</ele>
      </trkpt>
      <trkpt lat="49.39459" lon="-1.43341">
        <ele>23.1</ele>
      </trkpt>
      <trkpt lat="49.39452" lon="-1.43379">
        <ele>24</ele>
      </trkpt>
      <trkpt lat="49.39443" lon="-1.43432">
        <ele>24.9</ele>
      </trkpt>
      <trkpt lat="49.39438" lon="-1.43476">
        <ele>24.7</ele>
      </trkpt>
      <trkpt lat="49.39435" lon="-1.43507">
        <ele>24.7</ele>
      </trkpt>
      <trkpt lat="49.39431" lon="-1.43533">
        <ele>25.2</ele>
      </trkpt>
      <trkpt lat="49.39428" lon="-1.43551">
        <ele>25.5</ele>
      </trkpt>
      <trkpt lat="49.39423" lon="-1.43575">
        <ele>25.9</ele>
      </trkpt>
      <trkpt lat="49.39417" lon="-1.43602">
        <ele>25.8</ele>
      </trkpt>
      <trkpt lat="49.39411" lon="-1.43628">
        <ele>25.4</ele>
      </trkpt>
      <trkpt lat="49.39408" lon="-1.43642">
        <ele>25.2</ele>
      </trkpt>
      <trkpt lat="49.39406" lon="-1.43656">
        <ele>25</ele>
      </trkpt>
      <trkpt lat="49.39405" lon="-1.43665">
        <ele>24.9</ele>
      </trkpt>
      <trkpt lat="49.39404" lon="-1.43677">
        <ele>24.7</ele>
      </trkpt>
      <trkpt lat="49.39403" lon="-1.4369">
        <ele>24.6</ele>
      </trkpt>
      <trkpt lat="49.39403" lon="-1.43701">
        <ele>24.5</ele>
      </trkpt>
      <trkpt lat="49.39403" lon="-1.43703">
        <ele>24.5</ele>
      </trkpt>
      <trkpt lat="49.39402" lon="-1.43714">
        <ele>24.4</ele>
      </trkpt>
      <trkpt lat="49.39402" lon="-1.4373">
        <ele>24.2</ele>
      </trkpt>
      <trkpt lat="49.39401" lon="-1.43741">
        <ele>24.1</ele>
      </trkpt>
      <trkpt lat="49.394" lon="-1.43754">
        <ele>24.1</ele>
      </trkpt>
      <trkpt lat="49.39399" lon="-1.43768">
        <ele>24.3</ele>
      </trkpt>
      <trkpt lat="49.39398" lon="-1.43779">
        <ele>24.5</ele>
      </trkpt>
      <trkpt lat="49.39397" lon="-1.43789">
        <ele>24.7</ele>
      </trkpt>
      <trkpt lat="49.39396" lon="-1.43801">
        <ele>24.9</ele>
      </trkpt>
      <trkpt lat="49.39395" lon="-1.43811">
        <ele>25.1</ele>
      </trkpt>
      <trkpt lat="49.39394" lon="-1.43821">
        <ele>25.3</ele>
      </trkpt>
      <trkpt lat="49.39393" lon="-1.43832">
        <ele>25.4</ele>
      </trkpt>
      <trkpt lat="49.39393" lon="-1.43845">
        <ele>25.3</ele>
      </trkpt>
      <trkpt lat="49.39393" lon="-1.43855">
        <ele>25.2</ele>
      </trkpt>
      <trkpt lat="49.39394" lon="-1.43899">
        <ele>24.9</ele>
      </trkpt>
      <trkpt lat="49.39394" lon="-1.4392">
        <ele>24.7</ele>
      </trkpt>
      <trkpt lat="49.39394" lon="-1.4392">
        <ele>24.7</ele>
      </trkpt>
      <trkpt lat="49.39395" lon="-1.4394">
        <ele>24.7</ele>
      </trkpt>
      <trkpt lat="49.39396" lon="-1.44022">
        <ele>24.4</ele>
      </trkpt>
      <trkpt lat="49.39398" lon="-1.44041">
        <ele>24.3</ele>
      </trkpt>
      <trkpt lat="49.39398" lon="-1.44078">
        <ele>24</ele>
      </trkpt>
      <trkpt lat="49.39397" lon="-1.44105">
        <ele>24.1</ele>
      </trkpt>
      <trkpt lat="49.39396" lon="-1.4413">
        <ele>24.3</ele>
      </trkpt>
      <trkpt lat="49.39396" lon="-1.44162">
        <ele>24.5</ele>
      </trkpt>
      <trkpt lat="49.39395" lon="-1.44189">
        <ele>24.4</ele>
      </trkpt>
      <trkpt lat="49.39396" lon="-1.44207">
        <ele>24.4</ele>
      </trkpt>
      <trkpt lat="49.39396" lon="-1.44218">
        <ele>24.3</ele>
      </trkpt>
      <trkpt lat="49.39397" lon="-1.44233">
        <ele>24.3</ele>
      </trkpt>
      <trkpt lat="49.39398" lon="-1.44251">
        <ele>24.2</ele>
      </trkpt>
      <trkpt lat="49.394" lon="-1.44279">
        <ele>23.8</ele>
      </trkpt>
      <trkpt lat="49.39402" lon="-1.44303">
        <ele>23.4</ele>
      </trkpt>
      <trkpt lat="49.39403" lon="-1.44325">
        <ele>23.1</ele>
      </trkpt>
      <trkpt lat="49.39404" lon="-1.44364">
        <ele>22.9</ele>
      </trkpt>
      <trkpt lat="49.39405" lon="-1.44399">
        <ele>22.9</ele>
      </trkpt>
      <trkpt lat="49.39404" lon="-1.44457">
        <ele>22.4</ele>
      </trkpt>
      <trkpt lat="49.39403" lon="-1.44506">
        <ele>22.1</ele>
      </trkpt>
      <trkpt lat="49.394" lon="-1.44557">
        <ele>22.5</ele>
      </trkpt>
      <trkpt lat="49.39401" lon="-1.44598">
        <ele>22.8</ele>
      </trkpt>
      <trkpt lat="49.39401" lon="-1.44607">
        <ele>22.9</ele>
      </trkpt>
      <trkpt lat="49.39403" lon="-1.44635">
        <ele>22.9</ele>
      </trkpt>
      <trkpt lat="49.39403" lon="-1.44639">
        <ele>22.9</ele>
      </trkpt>
      <trkpt lat="49.39403" lon="-1.4465">
        <ele>23</ele>
      </trkpt>
      <trkpt lat="49.39407" lon="-1.44684">
        <ele>22.8</ele>
      </trkpt>
      <trkpt lat="49.39411" lon="-1.44712">
        <ele>22.5</ele>
      </trkpt>
      <trkpt lat="49.39412" lon="-1.44723">
        <ele>22.3</ele>
      </trkpt>
      <trkpt lat="49.39417" lon="-1.44751">
        <ele>22</ele>
      </trkpt>
      <trkpt lat="49.39421" lon="-1.44778">
        <ele>21.6</ele>
      </trkpt>
      <trkpt lat="49.39424" lon="-1.44806">
        <ele>21.3</ele>
      </trkpt>
      <trkpt lat="49.39427" lon="-1.44817">
        <ele>21.2</ele>
      </trkpt>
      <trkpt lat="49.39432" lon="-1.44833">
        <ele>21</ele>
      </trkpt>
      <trkpt lat="49.39441" lon="-1.44823">
        <ele>21.1</ele>
      </trkpt>
      <trkpt lat="49.39459" lon="-1.44802">
        <ele>21.2</ele>
      </trkpt>
      <trkpt lat="49.39473" lon="-1.44786">
        <ele>21.2</ele>
      </trkpt>
      <trkpt lat="49.39473" lon="-1.44786">
        <ele>21.2</ele>
      </trkpt>
      <trkpt lat="49.39483" lon="-1.44774">
        <ele>21.1</ele>
      </trkpt>
      <trkpt lat="49.39499" lon="-1.44753">
        <ele>21</ele>
      </trkpt>
      <trkpt lat="49.39512" lon="-1.44732">
        <ele>21.7</ele>
      </trkpt>
      <trkpt lat="49.39519" lon="-1.44721">
        <ele>22</ele>
      </trkpt>
      <trkpt lat="49.39523" lon="-1.44712">
        <ele>22.3</ele>
      </trkpt>
      <trkpt lat="49.39536" lon="-1.44696">
        <ele>22.5</ele>
      </trkpt>
      <trkpt lat="49.39551" lon="-1.44679">
        <ele>22.6</ele>
      </trkpt>
      <trkpt lat="49.39564" lon="-1.44659">
        <ele>22.6</ele>
      </trkpt>
      <trkpt lat="49.39569" lon="-1.44647">
        <ele>22.7</ele>
      </trkpt>
      <trkpt lat="49.39581" lon="-1.44626">
        <ele>23</ele>
      </trkpt>
      <trkpt lat="49.39583" lon="-1.44622">
        <ele>23.1</ele>
      </trkpt>
      <trkpt lat="49.39592" lon="-1.44603">
        <ele>23.6</ele>
      </trkpt>
      <trkpt lat="49.39604" lon="-1.44585">
        <ele>24</ele>
      </trkpt>
      <trkpt lat="49.39618" lon="-1.44557">
        <ele>24.5</ele>
      </trkpt>
      <trkpt lat="49.3963" lon="-1.44532">
        <ele>24.9</ele>
      </trkpt>
      <trkpt lat="49.39666" lon="-1.44449">
        <ele>25</ele>
      </trkpt>
      <trkpt lat="49.39672" lon="-1.44433">
        <ele>24.9</ele>
      </trkpt>
      <trkpt lat="49.39674" lon="-1.44424">
        <ele>24.9</ele>
      </trkpt>
      <trkpt lat="49.39677" lon="-1.44413">
        <ele>24.9</ele>
      </trkpt>
      <trkpt lat="49.39678" lon="-1.44411">
        <ele>24.9</ele>
      </trkpt>
      <trkpt lat="49.39681" lon="-1.44399">
        <ele>24.9</ele>
      </trkpt>
      <trkpt lat="49.39688" lon="-1.44384">
        <ele>24.9</ele>
      </trkpt>
      <trkpt lat="49.39696" lon="-1.44368">
        <ele>25.1</ele>
      </trkpt>
      <trkpt lat="49.39699" lon="-1.44364">
        <ele>25.1</ele>
      </trkpt>
      <trkpt lat="49.39701" lon="-1.44359">
        <ele>25.2</ele>
      </trkpt>
      <trkpt lat="49.39703" lon="-1.44364">
        <ele>25.1</ele>
      </trkpt>
      <trkpt lat="49.39709" lon="-1.44378">
        <ele>25</ele>
      </trkpt>
      <trkpt lat="49.39717" lon="-1.44395">
        <ele>24.7</ele>
      </trkpt>
      <trkpt lat="49.39728" lon="-1.44413">
        <ele>24.3</ele>
      </trkpt>
      <trkpt lat="49.39738" lon="-1.44429">
        <ele>24</ele>
      </trkpt>
      <trkpt lat="49.39754" lon="-1.44442">
        <ele>23.8</ele>
      </trkpt>
      <trkpt lat="49.39763" lon="-1.44452">
        <ele>23.9</ele>
      </trkpt>
      <trkpt lat="49.39771" lon="-1.4446">
        <ele>24</ele>
      </trkpt>
      <trkpt lat="49.39786" lon="-1.44472">
        <ele>24.3</ele>
      </trkpt>
      <trkpt lat="49.39791" lon="-1.44477">
        <ele>24.5</ele>
      </trkpt>
      <trkpt lat="49.39796" lon="-1.44482">
        <ele>24.6</ele>
      </trkpt>
      <trkpt lat="49.39803" lon="-1.4449">
        <ele>24.9</ele>
      </trkpt>
      <trkpt lat="49.3982" lon="-1.44511">
        <ele>25.7</ele>
      </trkpt>
      <trkpt lat="49.39838" lon="-1.4453">
        <ele>26.3</ele>
      </trkpt>
      <trkpt lat="49.39864" lon="-1.44555">
        <ele>26.5</ele>
      </trkpt>
      <trkpt lat="49.39883" lon="-1.44576">
        <ele>26.9</ele>
      </trkpt>
      <trkpt lat="49.39898" lon="-1.44591">
        <ele>27</ele>
      </trkpt>
      <trkpt lat="49.39906" lon="-1.44601">
        <ele>27</ele>
      </trkpt>
      <trkpt lat="49.39912" lon="-1.44613">
        <ele>27</ele>
      </trkpt>
      <trkpt lat="49.39927" lon="-1.44641">
        <ele>27</ele>
      </trkpt>
      <trkpt lat="49.39942" lon="-1.44673">
        <ele>27</ele>
      </trkpt>
      <trkpt lat="49.39955" lon="-1.44704">
        <ele>27</ele>
      </trkpt>
      <trkpt lat="49.39966" lon="-1.44724">
        <ele>27</ele>
      </trkpt>
      <trkpt lat="49.39976" lon="-1.44737">
        <ele>27</ele>
      </trkpt>
      <trkpt lat="49.3999" lon="-1.44766">
        <ele>27.2</ele>
      </trkpt>
      <trkpt lat="49.40004" lon="-1.44796">
        <ele>27.7</ele>
      </trkpt>
      <trkpt lat="49.40014" lon="-1.4482">
        <ele>28.1</ele>
      </trkpt>
      <trkpt lat="49.40017" lon="-1.44825">
        <ele>28.1</ele>
      </trkpt>
      <trkpt lat="49.40028" lon="-1.44844">
        <ele>28.5</ele>
      </trkpt>
      <trkpt lat="49.40039" lon="-1.44864">
        <ele>28.9</ele>
      </trkpt>
      <trkpt lat="49.40047" lon="-1.44879">
        <ele>29</ele>
      </trkpt>
      <trkpt lat="49.4006" lon="-1.44895">
        <ele>29.1</ele>
      </trkpt>
      <trkpt lat="49.40071" lon="-1.44912">
        <ele>29.1</ele>
      </trkpt>
      <trkpt lat="49.40079" lon="-1.44928">
        <ele>28.9</ele>
      </trkpt>
      <trkpt lat="49.40088" lon="-1.44953">
        <ele>28.5</ele>
      </trkpt>
      <trkpt lat="49.40097" lon="-1.44986">
        <ele>28</ele>
      </trkpt>
      <trkpt lat="49.40107" lon="-1.45022">
        <ele>27.6</ele>
      </trkpt>
      <trkpt lat="49.40118" lon="-1.45058">
        <ele>27.3</ele>
      </trkpt>
      <trkpt lat="49.40131" lon="-1.45093">
        <ele>26.9</ele>
      </trkpt>
      <trkpt lat="49.40145" lon="-1.4513">
        <ele>26.9</ele>
      </trkpt>
      <trkpt lat="49.40157" lon="-1.45166">
        <ele>27.1</ele>
      </trkpt>
      <trkpt lat="49.40165" lon="-1.45188">
        <ele>27.3</ele>
      </trkpt>
      <trkpt lat="49.4017" lon="-1.45202">
        <ele>27.5</ele>
      </trkpt>
      <trkpt lat="49.40172" lon="-1.45211">
        <ele>27.6</ele>
      </trkpt>
      <trkpt lat="49.40175" lon="-1.45221">
        <ele>27.8</ele>
      </trkpt>
      <trkpt lat="49.4018" lon="-1.45213">
        <ele>27.7</ele>
      </trkpt>
      <trkpt lat="49.40191" lon="-1.45193">
        <ele>27.5</ele>
      </trkpt>
      <trkpt lat="49.40204" lon="-1.4517">
        <ele>27.1</ele>
      </trkpt>
      <trkpt lat="49.40214" lon="-1.45148">
        <ele>26.9</ele>
      </trkpt>
      <trkpt lat="49.40216" lon="-1.45143">
        <ele>26.9</ele>
      </trkpt>
      <trkpt lat="49.40221" lon="-1.45129">
        <ele>26.8</ele>
      </trkpt>
      <trkpt lat="49.40228" lon="-1.45103">
        <ele>26.8</ele>
      </trkpt>
      <trkpt lat="49.40232" lon="-1.45088">
        <ele>26.8</ele>
      </trkpt>
      <trkpt lat="49.40235" lon="-1.45067">
        <ele>27</ele>
      </trkpt>
      <trkpt lat="49.40237" lon="-1.45051">
        <ele>27.2</ele>
      </trkpt>
      <trkpt lat="49.40239" lon="-1.45025">
        <ele>27.6</ele>
      </trkpt>
      <trkpt lat="49.40242" lon="-1.44999">
        <ele>27.9</ele>
      </trkpt>
      <trkpt lat="49.40245" lon="-1.44982">
        <ele>28</ele>
      </trkpt>
      <trkpt lat="49.40245" lon="-1.44975">
        <ele>28</ele>
      </trkpt>
      <trkpt lat="49.40247" lon="-1.44963">
        <ele>28</ele>
      </trkpt>
      <trkpt lat="49.40249" lon="-1.44946">
        <ele>28</ele>
      </trkpt>
      <trkpt lat="49.4025" lon="-1.44931">
        <ele>28</ele>
      </trkpt>
      <trkpt lat="49.40252" lon="-1.44919">
        <ele>28</ele>
      </trkpt>
      <trkpt lat="49.40252" lon="-1.44914">
        <ele>27.9</ele>
      </trkpt>
      <trkpt lat="49.40255" lon="-1.44902">
        <ele>27.5</ele>
      </trkpt>
      <trkpt lat="49.40257" lon="-1.44887">
        <ele>27.2</ele>
      </trkpt>
      <trkpt lat="49.40257" lon="-1.4487">
        <ele>26.8</ele>
      </trkpt>
      <trkpt lat="49.40258" lon="-1.44845">
        <ele>26.3</ele>
      </trkpt>
      <trkpt lat="49.4026" lon="-1.4482">
        <ele>26</ele>
      </trkpt>
      <trkpt lat="49.40263" lon="-1.44797">
        <ele>25.9</ele>
      </trkpt>
      <trkpt lat="49.40265" lon="-1.44774">
        <ele>25.9</ele>
      </trkpt>
      <trkpt lat="49.40268" lon="-1.44753">
        <ele>25.8</ele>
      </trkpt>
      <trkpt lat="49.40271" lon="-1.44736">
        <ele>25.7</ele>
      </trkpt>
      <trkpt lat="49.40272" lon="-1.44727">
        <ele>25.7</ele>
      </trkpt>
      <trkpt lat="49.40279" lon="-1.44712">
        <ele>25.5</ele>
      </trkpt>
      <trkpt lat="49.40293" lon="-1.44685">
        <ele>25.1</ele>
      </trkpt>
      <trkpt lat="49.4031" lon="-1.44644">
        <ele>24.6</ele>
      </trkpt>
      <trkpt lat="49.40324" lon="-1.44615">
        <ele>24.3</ele>
      </trkpt>
      <trkpt lat="49.40336" lon="-1.44586">
        <ele>24</ele>
      </trkpt>
      <trkpt lat="49.40347" lon="-1.44558">
        <ele>24.3</ele>
      </trkpt>
      <trkpt lat="49.4035" lon="-1.4455">
        <ele>24.3</ele>
      </trkpt>
      <trkpt lat="49.40355" lon="-1.44536">
        <ele>24.4</ele>
      </trkpt>
      <trkpt lat="49.40362" lon="-1.44517">
        <ele>24.5</ele>
      </trkpt>
      <trkpt lat="49.40372" lon="-1.44484">
        <ele>24.6</ele>
      </trkpt>
      <trkpt lat="49.40381" lon="-1.44452">
        <ele>24.8</ele>
      </trkpt>
      <trkpt lat="49.40392" lon="-1.44417">
        <ele>25</ele>
      </trkpt>
      <trkpt lat="49.40401" lon="-1.4439">
        <ele>25.3</ele>
      </trkpt>
      <trkpt lat="49.40408" lon="-1.44373">
        <ele>25.5</ele>
      </trkpt>
      <trkpt lat="49.40413" lon="-1.44364">
        <ele>25.6</ele>
      </trkpt>
      <trkpt lat="49.40414" lon="-1.44363">
        <ele>25.6</ele>
      </trkpt>
      <trkpt lat="49.40418" lon="-1.44358">
        <ele>25.7</ele>
      </trkpt>
      <trkpt lat="49.40424" lon="-1.44352">
        <ele>25.9</ele>
      </trkpt>
      <trkpt lat="49.40429" lon="-1.44347">
        <ele>26.1</ele>
      </trkpt>
      <trkpt lat="49.40434" lon="-1.44344">
        <ele>26.3</ele>
      </trkpt>
      <trkpt lat="49.40454" lon="-1.44332">
        <ele>26.9</ele>
      </trkpt>
      <trkpt lat="49.40462" lon="-1.44327">
        <ele>27.1</ele>
      </trkpt>
      <trkpt lat="49.40468" lon="-1.44323">
        <ele>27.2</ele>
      </trkpt>
      <trkpt lat="49.40473" lon="-1.4432">
        <ele>27.3</ele>
      </trkpt>
      <trkpt lat="49.4048" lon="-1.44316">
        <ele>27.4</ele>
      </trkpt>
      <trkpt lat="49.40486" lon="-1.44311">
        <ele>27.4</ele>
      </trkpt>
      <trkpt lat="49.4049" lon="-1.44307">
        <ele>27.5</ele>
      </trkpt>
      <trkpt lat="49.40498" lon="-1.44296">
        <ele>27.5</ele>
      </trkpt>
      <trkpt lat="49.40503" lon="-1.44289">
        <ele>27.4</ele>
      </trkpt>
      <trkpt lat="49.40507" lon="-1.44283">
        <ele>27.3</ele>
      </trkpt>
      <trkpt lat="49.40509" lon="-1.44274">
        <ele>27.1</ele>
      </trkpt>
      <trkpt lat="49.40509" lon="-1.44267">
        <ele>27.1</ele>
      </trkpt>
      <trkpt lat="49.40519" lon="-1.44258">
        <ele>26.8</ele>
      </trkpt>
      <trkpt lat="49.40519" lon="-1.44257">
        <ele>26.8</ele>
      </trkpt>
      <trkpt lat="49.4053" lon="-1.44247">
        <ele>26.6</ele>
      </trkpt>
      <trkpt lat="49.40555" lon="-1.44231">
        <ele>26.4</ele>
      </trkpt>
      <trkpt lat="49.40598" lon="-1.44204">
        <ele>26.7</ele>
      </trkpt>
      <trkpt lat="49.40603" lon="-1.44201">
        <ele>26.8</ele>
      </trkpt>
      <trkpt lat="49.40606" lon="-1.44197">
        <ele>26.8</ele>
      </trkpt>
      <trkpt lat="49.4061" lon="-1.44194">
        <ele>26.9</ele>
      </trkpt>
      <trkpt lat="49.40617" lon="-1.44185">
        <ele>27</ele>
      </trkpt>
      <trkpt lat="49.4062" lon="-1.4418">
        <ele>27</ele>
      </trkpt>
      <trkpt lat="49.40626" lon="-1.44168">
        <ele>27</ele>
      </trkpt>
      <trkpt lat="49.40633" lon="-1.44151">
        <ele>26.9</ele>
      </trkpt>
      <trkpt lat="49.40639" lon="-1.44136">
        <ele>26.9</ele>
      </trkpt>
      <trkpt lat="49.40646" lon="-1.44123">
        <ele>26.9</ele>
      </trkpt>
      <trkpt lat="49.40653" lon="-1.44111">
        <ele>26.9</ele>
      </trkpt>
      <trkpt lat="49.40664" lon="-1.44091">
        <ele>27</ele>
      </trkpt>
      <trkpt lat="49.40676" lon="-1.4407">
        <ele>27.2</ele>
      </trkpt>
      <trkpt lat="49.40685" lon="-1.44051">
        <ele>27.3</ele>
      </trkpt>
      <trkpt lat="49.4069" lon="-1.44041">
        <ele>27.3</ele>
      </trkpt>
      <trkpt lat="49.40693" lon="-1.44034">
        <ele>27.3</ele>
      </trkpt>
      <trkpt lat="49.40696" lon="-1.44025">
        <ele>27.2</ele>
      </trkpt>
      <trkpt lat="49.40698" lon="-1.44019">
        <ele>27.2</ele>
      </trkpt>
      <trkpt lat="49.407" lon="-1.44016">
        <ele>27.2</ele>
      </trkpt>
      <trkpt lat="49.40701" lon="-1.44015">
        <ele>27.1</ele>
      </trkpt>
      <trkpt lat="49.40705" lon="-1.44009">
        <ele>27.1</ele>
      </trkpt>
      <trkpt lat="49.40712" lon="-1.43999">
        <ele>27</ele>
      </trkpt>
      <trkpt lat="49.40722" lon="-1.43986">
        <ele>26.8</ele>
      </trkpt>
      <trkpt lat="49.40728" lon="-1.43979">
        <ele>26.7</ele>
      </trkpt>
      <trkpt lat="49.40733" lon="-1.43972">
        <ele>26.7</ele>
      </trkpt>
      <trkpt lat="49.40737" lon="-1.43968">
        <ele>26.6</ele>
      </trkpt>
      <trkpt lat="49.40741" lon="-1.43962">
        <ele>26.5</ele>
      </trkpt>
      <trkpt lat="49.40748" lon="-1.43955">
        <ele>26.5</ele>
      </trkpt>
      <trkpt lat="49.40754" lon="-1.43948">
        <ele>26.4</ele>
      </trkpt>
      <trkpt lat="49.4076" lon="-1.43941">
        <ele>26.4</ele>
      </trkpt>
      <trkpt lat="49.40765" lon="-1.43933">
        <ele>26.4</ele>
      </trkpt>
      <trkpt lat="49.40773" lon="-1.43915">
        <ele>26.3</ele>
      </trkpt>
      <trkpt lat="49.40777" lon="-1.43902">
        <ele>26.4</ele>
      </trkpt>
      <trkpt lat="49.4078" lon="-1.43892">
        <ele>26.5</ele>
      </trkpt>
      <trkpt lat="49.40783" lon="-1.43881">
        <ele>26.6</ele>
      </trkpt>
      <trkpt lat="49.40786" lon="-1.43866">
        <ele>26.7</ele>
      </trkpt>
      <trkpt lat="49.40789" lon="-1.4385">
        <ele>26.8</ele>
      </trkpt>
      <trkpt lat="49.40791" lon="-1.4384">
        <ele>26.9</ele>
      </trkpt>
      <trkpt lat="49.40793" lon="-1.43825">
        <ele>26.9</ele>
      </trkpt>
      <trkpt lat="49.40798" lon="-1.43801">
        <ele>26.7</ele>
      </trkpt>
      <trkpt lat="49.40803" lon="-1.43781">
        <ele>26.5</ele>
      </trkpt>
      <trkpt lat="49.4081" lon="-1.43761">
        <ele>26.2</ele>
      </trkpt>
      <trkpt lat="49.40816" lon="-1.43744">
        <ele>26.1</ele>
      </trkpt>
      <trkpt lat="49.40823" lon="-1.43728">
        <ele>26.3</ele>
      </trkpt>
      <trkpt lat="49.40829" lon="-1.43713">
        <ele>26.4</ele>
      </trkpt>
      <trkpt lat="49.40842" lon="-1.43684">
        <ele>26.8</ele>
      </trkpt>
      <trkpt lat="49.40858" lon="-1.43648">
        <ele>27.1</ele>
      </trkpt>
      <trkpt lat="49.40858" lon="-1.43647">
        <ele>27.1</ele>
      </trkpt>
      <trkpt lat="49.4086" lon="-1.43646">
        <ele>27.1</ele>
      </trkpt>
      <trkpt lat="49.40862" lon="-1.43644">
        <ele>27.1</ele>
      </trkpt>
      <trkpt lat="49.40865" lon="-1.43643">
        <ele>27.1</ele>
      </trkpt>
      <trkpt lat="49.4087" lon="-1.43643">
        <ele>27.1</ele>
      </trkpt>
      <trkpt lat="49.40875" lon="-1.43644">
        <ele>27.1</ele>
      </trkpt>
      <trkpt lat="49.40881" lon="-1.43644">
        <ele>27.2</ele>
      </trkpt>
      <trkpt lat="49.4089" lon="-1.43645">
        <ele>27.2</ele>
      </trkpt>
      <trkpt lat="49.40898" lon="-1.43645">
        <ele>27.2</ele>
      </trkpt>
      <trkpt lat="49.40904" lon="-1.43645">
        <ele>27.2</ele>
      </trkpt>
      <trkpt lat="49.4091" lon="-1.43646">
        <ele>27.2</ele>
      </trkpt>
      <trkpt lat="49.40917" lon="-1.43647">
        <ele>27.2</ele>
      </trkpt>
      <trkpt lat="49.40922" lon="-1.43648">
        <ele>27.2</ele>
      </trkpt>
      <trkpt lat="49.40929" lon="-1.43651">
        <ele>27.2</ele>
      </trkpt>
      <trkpt lat="49.40935" lon="-1.43654">
        <ele>27.1</ele>
      </trkpt>
      <trkpt lat="49.40941" lon="-1.43658">
        <ele>27.1</ele>
      </trkpt>
      <trkpt lat="49.40949" lon="-1.43661">
        <ele>27</ele>
      </trkpt>
      <trkpt lat="49.40962" lon="-1.43667">
        <ele>27</ele>
      </trkpt>
      <trkpt lat="49.40984" lon="-1.43682">
        <ele>27.3</ele>
      </trkpt>
      <trkpt lat="49.41001" lon="-1.43693">
        <ele>27.6</ele>
      </trkpt>
      <trkpt lat="49.41007" lon="-1.43698">
        <ele>27.7</ele>
      </trkpt>
      <trkpt lat="49.41012" lon="-1.43702">
        <ele>27.7</ele>
      </trkpt>
      <trkpt lat="49.41016" lon="-1.43705">
        <ele>27.8</ele>
      </trkpt>
      <trkpt lat="49.41019" lon="-1.43708">
        <ele>27.8</ele>
      </trkpt>
      <trkpt lat="49.41022" lon="-1.43711">
        <ele>27.8</ele>
      </trkpt>
      <trkpt lat="49.41026" lon="-1.43713">
        <ele>27.8</ele>
      </trkpt>
      <trkpt lat="49.41029" lon="-1.43715">
        <ele>27.8</ele>
      </trkpt>
      <trkpt lat="49.41032" lon="-1.43715">
        <ele>27.7</ele>
      </trkpt>
      <trkpt lat="49.41036" lon="-1.43715">
        <ele>27.7</ele>
      </trkpt>
      <trkpt lat="49.41051" lon="-1.43725">
        <ele>27.6</ele>
      </trkpt>
      <trkpt lat="49.41067" lon="-1.43739">
        <ele>27.3</ele>
      </trkpt>
      <trkpt lat="49.41092" lon="-1.43764">
        <ele>27.1</ele>
      </trkpt>
      <trkpt lat="49.41133" lon="-1.43807">
        <ele>27.5</ele>
      </trkpt>
      <trkpt lat="49.41183" lon="-1.43858">
        <ele>27.3</ele>
      </trkpt>
      <trkpt lat="49.41251" lon="-1.43931">
        <ele>25.2</ele>
      </trkpt>
      <trkpt lat="49.41322" lon="-1.44014">
        <ele>22.5</ele>
      </trkpt>
      <trkpt lat="49.41378" lon="-1.44082">
        <ele>19.9</ele>
      </trkpt>
      <trkpt lat="49.41406" lon="-1.44113">
        <ele>18.8</ele>
      </trkpt>
      <trkpt lat="49.41427" lon="-1.44146">
        <ele>18.6</ele>
      </trkpt>
      <trkpt lat="49.41427" lon="-1.4416">
        <ele>18.8</ele>
      </trkpt>
      <trkpt lat="49.41433" lon="-1.44191">
        <ele>19.4</ele>
      </trkpt>
      <trkpt lat="49.41434" lon="-1.44213">
        <ele>20</ele>
      </trkpt>
      <trkpt lat="49.41432" lon="-1.44271">
        <ele>21.4</ele>
      </trkpt>
      <trkpt lat="49.4143" lon="-1.44304">
        <ele>22.1</ele>
      </trkpt>
      <trkpt lat="49.41426" lon="-1.44364">
        <ele>23.4</ele>
      </trkpt>
      <trkpt lat="49.41429" lon="-1.44412">
        <ele>24.3</ele>
      </trkpt>
      <trkpt lat="49.41429" lon="-1.44422">
        <ele>24.5</ele>
      </trkpt>
      <trkpt lat="49.41429" lon="-1.4447">
        <ele>25.4</ele>
      </trkpt>
      <trkpt lat="49.41428" lon="-1.44484">
        <ele>25.7</ele>
      </trkpt>
      <trkpt lat="49.41426" lon="-1.44495">
        <ele>26.1</ele>
      </trkpt>
      <trkpt lat="49.41425" lon="-1.44509">
        <ele>26.3</ele>
      </trkpt>
      <trkpt lat="49.41424" lon="-1.44525">
        <ele>26.4</ele>
      </trkpt>
      <trkpt lat="49.41422" lon="-1.44581">
        <ele>26.6</ele>
      </trkpt>
      <trkpt lat="49.41418" lon="-1.44645">
        <ele>26.2</ele>
      </trkpt>
      <trkpt lat="49.41418" lon="-1.44666">
        <ele>25.9</ele>
      </trkpt>
      <trkpt lat="49.41418" lon="-1.44681">
        <ele>25.7</ele>
      </trkpt>
      <trkpt lat="49.41418" lon="-1.44694">
        <ele>25.6</ele>
      </trkpt>
      <trkpt lat="49.41418" lon="-1.44705">
        <ele>25.5</ele>
      </trkpt>
      <trkpt lat="49.41417" lon="-1.44717">
        <ele>25.4</ele>
      </trkpt>
      <trkpt lat="49.41416" lon="-1.44727">
        <ele>25.3</ele>
      </trkpt>
      <trkpt lat="49.41416" lon="-1.44734">
        <ele>25.2</ele>
      </trkpt>
      <trkpt lat="49.41415" lon="-1.44743">
        <ele>25.2</ele>
      </trkpt>
      <trkpt lat="49.41413" lon="-1.44755">
        <ele>25.2</ele>
      </trkpt>
      <trkpt lat="49.41412" lon="-1.44763">
        <ele>25.2</ele>
      </trkpt>
      <trkpt lat="49.4141" lon="-1.44775">
        <ele>25.4</ele>
      </trkpt>
      <trkpt lat="49.41406" lon="-1.44797">
        <ele>25.6</ele>
      </trkpt>
      <trkpt lat="49.41404" lon="-1.44807">
        <ele>25.7</ele>
      </trkpt>
      <trkpt lat="49.414" lon="-1.44828">
        <ele>26</ele>
      </trkpt>
      <trkpt lat="49.41399" lon="-1.44834">
        <ele>26</ele>
      </trkpt>
      <trkpt lat="49.41394" lon="-1.44866">
        <ele>26</ele>
      </trkpt>
      <trkpt lat="49.41391" lon="-1.44888">
        <ele>25.9</ele>
      </trkpt>
      <trkpt lat="49.41386" lon="-1.44915">
        <ele>25.8</ele>
      </trkpt>
      <trkpt lat="49.41384" lon="-1.44932">
        <ele>26.1</ele>
      </trkpt>
      <trkpt lat="49.41382" lon="-1.44957">
        <ele>26.4</ele>
      </trkpt>
      <trkpt lat="49.41382" lon="-1.44962">
        <ele>26.5</ele>
      </trkpt>
      <trkpt lat="49.41381" lon="-1.44972">
        <ele>26.6</ele>
      </trkpt>
      <trkpt lat="49.41379" lon="-1.4499">
        <ele>26.8</ele>
      </trkpt>
      <trkpt lat="49.41378" lon="-1.45015">
        <ele>26.7</ele>
      </trkpt>
      <trkpt lat="49.41375" lon="-1.45046">
        <ele>26.2</ele>
      </trkpt>
      <trkpt lat="49.41372" lon="-1.45083">
        <ele>25.6</ele>
      </trkpt>
      <trkpt lat="49.41367" lon="-1.45129">
        <ele>25.6</ele>
      </trkpt>
      <trkpt lat="49.41364" lon="-1.45152">
        <ele>25.6</ele>
      </trkpt>
      <trkpt lat="49.41363" lon="-1.45166">
        <ele>25.6</ele>
      </trkpt>
      <trkpt lat="49.41362" lon="-1.45185">
        <ele>25.6</ele>
      </trkpt>
      <trkpt lat="49.41356" lon="-1.45202">
        <ele>25.7</ele>
      </trkpt>
      <trkpt lat="49.41348" lon="-1.45219">
        <ele>25.9</ele>
      </trkpt>
      <trkpt lat="49.41342" lon="-1.45234">
        <ele>26</ele>
      </trkpt>
      <trkpt lat="49.41334" lon="-1.45252">
        <ele>26</ele>
      </trkpt>
      <trkpt lat="49.41326" lon="-1.45273">
        <ele>26.2</ele>
      </trkpt>
      <trkpt lat="49.4132" lon="-1.45288">
        <ele>26.4</ele>
      </trkpt>
      <trkpt lat="49.41317" lon="-1.45301">
        <ele>26.5</ele>
      </trkpt>
      <trkpt lat="49.41317" lon="-1.45305">
        <ele>26.5</ele>
      </trkpt>
      <trkpt lat="49.41316" lon="-1.45316">
        <ele>26.4</ele>
      </trkpt>
      <trkpt lat="49.41316" lon="-1.45329">
        <ele>26.3</ele>
      </trkpt>
      <trkpt lat="49.41317" lon="-1.45345">
        <ele>26.2</ele>
      </trkpt>
      <trkpt lat="49.41322" lon="-1.4538">
        <ele>26.1</ele>
      </trkpt>
      <trkpt lat="49.41323" lon="-1.45395">
        <ele>26.1</ele>
      </trkpt>
      <trkpt lat="49.41323" lon="-1.45399">
        <ele>26.1</ele>
      </trkpt>
      <trkpt lat="49.41324" lon="-1.45408">
        <ele>26.2</ele>
      </trkpt>
      <trkpt lat="49.41324" lon="-1.45432">
        <ele>26.2</ele>
      </trkpt>
      <trkpt lat="49.41323" lon="-1.45473">
        <ele>26.2</ele>
      </trkpt>
      <trkpt lat="49.41324" lon="-1.45497">
        <ele>26.1</ele>
      </trkpt>
      <trkpt lat="49.41324" lon="-1.45507">
        <ele>26.1</ele>
      </trkpt>
      <trkpt lat="49.41325" lon="-1.45544">
        <ele>26</ele>
      </trkpt>
      <trkpt lat="49.41326" lon="-1.45566">
        <ele>25.9</ele>
      </trkpt>
      <trkpt lat="49.41326" lon="-1.45576">
        <ele>25.9</ele>
      </trkpt>
      <trkpt lat="49.41326" lon="-1.45582">
        <ele>25.9</ele>
      </trkpt>
      <trkpt lat="49.41327" lon="-1.45593">
        <ele>26.2</ele>
      </trkpt>
      <trkpt lat="49.41327" lon="-1.45598">
        <ele>26.3</ele>
      </trkpt>
      <trkpt lat="49.41329" lon="-1.45627">
        <ele>27</ele>
      </trkpt>
      <trkpt lat="49.4133" lon="-1.45653">
        <ele>27.6</ele>
      </trkpt>
      <trkpt lat="49.41332" lon="-1.45676">
        <ele>28.2</ele>
      </trkpt>
      <trkpt lat="49.41332" lon="-1.4568">
        <ele>28.3</ele>
      </trkpt>
      <trkpt lat="49.41334" lon="-1.45693">
        <ele>28.6</ele>
      </trkpt>
      <trkpt lat="49.41337" lon="-1.45711">
        <ele>29</ele>
      </trkpt>
      <trkpt lat="49.41339" lon="-1.45725">
        <ele>29.4</ele>
      </trkpt>
      <trkpt lat="49.41342" lon="-1.45741">
        <ele>29.7</ele>
      </trkpt>
      <trkpt lat="49.4135" lon="-1.45782">
        <ele>30.2</ele>
      </trkpt>
      <trkpt lat="49.41353" lon="-1.458">
        <ele>30.4</ele>
      </trkpt>
      <trkpt lat="49.41354" lon="-1.4581">
        <ele>30.5</ele>
      </trkpt>
      <trkpt lat="49.41358" lon="-1.45838">
        <ele>30.7</ele>
      </trkpt>
      <trkpt lat="49.41361" lon="-1.45865">
        <ele>30.9</ele>
      </trkpt>
      <trkpt lat="49.41363" lon="-1.45882">
        <ele>31.1</ele>
      </trkpt>
      <trkpt lat="49.41364" lon="-1.45898">
        <ele>31.2</ele>
      </trkpt>
      <trkpt lat="49.41365" lon="-1.45926">
        <ele>31.4</ele>
      </trkpt>
      <trkpt lat="49.41367" lon="-1.45946">
        <ele>31.4</ele>
      </trkpt>
      <trkpt lat="49.41372" lon="-1.45959">
        <ele>31.5</ele>
      </trkpt>
      <trkpt lat="49.41367" lon="-1.45969">
        <ele>31.4</ele>
      </trkpt>
      <trkpt lat="49.41371" lon="-1.45986">
        <ele>31.4</ele>
      </trkpt>
      <trkpt lat="49.41374" lon="-1.46001">
        <ele>31.5</ele>
      </trkpt>
      <trkpt lat="49.41377" lon="-1.46019">
        <ele>31.5</ele>
      </trkpt>
      <trkpt lat="49.4138" lon="-1.46044">
        <ele>31.6</ele>
      </trkpt>
      <trkpt lat="49.41383" lon="-1.46083">
        <ele>31.8</ele>
      </trkpt>
      <trkpt lat="49.41386" lon="-1.46114">
        <ele>32</ele>
      </trkpt>
      <trkpt lat="49.41387" lon="-1.46124">
        <ele>32.1</ele>
      </trkpt>
      <trkpt lat="49.41395" lon="-1.46165">
        <ele>32.5</ele>
      </trkpt>
      <trkpt lat="49.41396" lon="-1.46174">
        <ele>32.4</ele>
      </trkpt>
      <trkpt lat="49.41399" lon="-1.46192">
        <ele>32.3</ele>
      </trkpt>
      <trkpt lat="49.41399" lon="-1.46195">
        <ele>32.3</ele>
      </trkpt>
      <trkpt lat="49.41404" lon="-1.46218">
        <ele>32.2</ele>
      </trkpt>
      <trkpt lat="49.4141" lon="-1.46244">
        <ele>32</ele>
      </trkpt>
      <trkpt lat="49.41417" lon="-1.46271">
        <ele>32.3</ele>
      </trkpt>
      <trkpt lat="49.41425" lon="-1.46294">
        <ele>32.6</ele>
      </trkpt>
      <trkpt lat="49.41431" lon="-1.46315">
        <ele>32.8</ele>
      </trkpt>
      <trkpt lat="49.41435" lon="-1.46331">
        <ele>33</ele>
      </trkpt>
      <trkpt lat="49.41436" lon="-1.46334">
        <ele>33</ele>
      </trkpt>
      <trkpt lat="49.41442" lon="-1.46356">
        <ele>33.3</ele>
      </trkpt>
      <trkpt lat="49.4149" lon="-1.47417">
        <ele>22</ele>
      </trkpt>
      <trkpt lat="49.41499" lon="-1.47415">
        <ele>22</ele>
      </trkpt>
      <trkpt lat="49.415" lon="-1.47426">
        <ele>22</ele>
      </trkpt>
      <trkpt lat="49.41504" lon="-1.47462">
        <ele>22.1</ele>
      </trkpt>
      <trkpt lat="49.41507" lon="-1.47506">
        <ele>22.2</ele>
      </trkpt>
      <trkpt lat="49.41508" lon="-1.4752">
        <ele>22.1</ele>
      </trkpt>
      <trkpt lat="49.4151" lon="-1.47553">
        <ele>21.7</ele>
      </trkpt>
      <trkpt lat="49.41511" lon="-1.47573">
        <ele>21.5</ele>
      </trkpt>
      <trkpt lat="49.41513" lon="-1.47604">
        <ele>21.4</ele>
      </trkpt>
      <trkpt lat="49.41513" lon="-1.47613">
        <ele>21.4</ele>
      </trkpt>
      <trkpt lat="49.41514" lon="-1.47642">
        <ele>21.4</ele>
      </trkpt>
      <trkpt lat="49.41513" lon="-1.47661">
        <ele>21.3</ele>
      </trkpt>
      <trkpt lat="49.41509" lon="-1.47674">
        <ele>21.2</ele>
      </trkpt>
      <trkpt lat="49.41505" lon="-1.47691">
        <ele>21.1</ele>
      </trkpt>
      <trkpt lat="49.41501" lon="-1.47706">
        <ele>21</ele>
      </trkpt>
      <trkpt lat="49.41499" lon="-1.47718">
        <ele>21</ele>
      </trkpt>
      <trkpt lat="49.41499" lon="-1.4774">
        <ele>21</ele>
      </trkpt>
      <trkpt lat="49.415" lon="-1.47768">
        <ele>20.8</ele>
      </trkpt>
      <trkpt lat="49.41501" lon="-1.47779">
        <ele>20.7</ele>
      </trkpt>
      <trkpt lat="49.41503" lon="-1.47818">
        <ele>20.2</ele>
      </trkpt>
      <trkpt lat="49.41504" lon="-1.47857">
        <ele>20.3</ele>
      </trkpt>
      <trkpt lat="49.41505" lon="-1.47866">
        <ele>20.4</ele>
      </trkpt>
      <trkpt lat="49.41507" lon="-1.47882">
        <ele>20.6</ele>
      </trkpt>
      <trkpt lat="49.41507" lon="-1.47892">
        <ele>20.7</ele>
      </trkpt>
      <trkpt lat="49.41507" lon="-1.47905">
        <ele>20.9</ele>
      </trkpt>
      <trkpt lat="49.41507" lon="-1.4792">
        <ele>21</ele>
      </trkpt>
      <trkpt lat="49.41506" lon="-1.47939">
        <ele>21.2</ele>
      </trkpt>
      <trkpt lat="49.41506" lon="-1.47961">
        <ele>21.5</ele>
      </trkpt>
      <trkpt lat="49.41505" lon="-1.47987">
        <ele>21.8</ele>
      </trkpt>
      <trkpt lat="49.41501" lon="-1.48029">
        <ele>22.7</ele>
      </trkpt>
      <trkpt lat="49.41499" lon="-1.48078">
        <ele>23.9</ele>
      </trkpt>
      <trkpt lat="49.41501" lon="-1.48099">
        <ele>24.2</ele>
      </trkpt>
      <trkpt lat="49.41503" lon="-1.48126">
        <ele>24.4</ele>
      </trkpt>
      <trkpt lat="49.41506" lon="-1.48154">
        <ele>24.6</ele>
      </trkpt>
      <trkpt lat="49.4151" lon="-1.48189">
        <ele>24.7</ele>
      </trkpt>
      <trkpt lat="49.41514" lon="-1.48215">
        <ele>24.7</ele>
      </trkpt>
      <trkpt lat="49.41515" lon="-1.48223">
        <ele>24.7</ele>
      </trkpt>
      <trkpt lat="49.41516" lon="-1.4823">
        <ele>24.7</ele>
      </trkpt>
      <trkpt lat="49.4152" lon="-1.48243">
        <ele>24.7</ele>
      </trkpt>
      <trkpt lat="49.41525" lon="-1.48258">
        <ele>24.6</ele>
      </trkpt>
      <trkpt lat="49.41532" lon="-1.48277">
        <ele>24.3</ele>
      </trkpt>
      <trkpt lat="49.41538" lon="-1.48297">
        <ele>24</ele>
      </trkpt>
      <trkpt lat="49.41543" lon="-1.48316">
        <ele>23.7</ele>
      </trkpt>
      <trkpt lat="49.41546" lon="-1.4833">
        <ele>23.5</ele>
      </trkpt>
      <trkpt lat="49.41549" lon="-1.48341">
        <ele>23.3</ele>
      </trkpt>
      <trkpt lat="49.4155" lon="-1.4835">
        <ele>23.2</ele>
      </trkpt>
      <trkpt lat="49.41551" lon="-1.48363">
        <ele>23</ele>
      </trkpt>
      <trkpt lat="49.41554" lon="-1.48389">
        <ele>22.7</ele>
      </trkpt>
      <trkpt lat="49.41555" lon="-1.48398">
        <ele>22.6</ele>
      </trkpt>
      <trkpt lat="49.41555" lon="-1.48399">
        <ele>22.6</ele>
      </trkpt>
      <trkpt lat="49.41555" lon="-1.4841">
        <ele>22.4</ele>
      </trkpt>
      <trkpt lat="49.41556" lon="-1.48429">
        <ele>22.5</ele>
      </trkpt>
      <trkpt lat="49.41557" lon="-1.48463">
        <ele>22.9</ele>
      </trkpt>
      <trkpt lat="49.41558" lon="-1.48497">
        <ele>23.3</ele>
      </trkpt>
      <trkpt lat="49.41559" lon="-1.48525">
        <ele>23.1</ele>
      </trkpt>
      <trkpt lat="49.4156" lon="-1.48554">
        <ele>22.8</ele>
      </trkpt>
      <trkpt lat="49.41562" lon="-1.48581">
        <ele>22.5</ele>
      </trkpt>
      <trkpt lat="49.41563" lon="-1.48602">
        <ele>22.3</ele>
      </trkpt>
      <trkpt lat="49.41567" lon="-1.48629">
        <ele>22</ele>
      </trkpt>
      <trkpt lat="49.41568" lon="-1.4864">
        <ele>21.8</ele>
      </trkpt>
      <trkpt lat="49.41571" lon="-1.48653">
        <ele>21.6</ele>
      </trkpt>
      <trkpt lat="49.41578" lon="-1.48693">
        <ele>20.8</ele>
      </trkpt>
      <trkpt lat="49.41584" lon="-1.4872">
        <ele>20.3</ele>
      </trkpt>
      <trkpt lat="49.41589" lon="-1.48736">
        <ele>20.1</ele>
      </trkpt>
      <trkpt lat="49.41595" lon="-1.48753">
        <ele>19.8</ele>
      </trkpt>
      <trkpt lat="49.416" lon="-1.48769">
        <ele>19.3</ele>
      </trkpt>
      <trkpt lat="49.41605" lon="-1.48785">
        <ele>18.9</ele>
      </trkpt>
      <trkpt lat="49.41614" lon="-1.48827">
        <ele>17.8</ele>
      </trkpt>
      <trkpt lat="49.41618" lon="-1.48845">
        <ele>17.7</ele>
      </trkpt>
      <trkpt lat="49.4162" lon="-1.48853">
        <ele>17.7</ele>
      </trkpt>
      <trkpt lat="49.41623" lon="-1.48864">
        <ele>17.7</ele>
      </trkpt>
      <trkpt lat="49.41626" lon="-1.48876">
        <ele>17.7</ele>
      </trkpt>
      <trkpt lat="49.41631" lon="-1.48889">
        <ele>17.7</ele>
      </trkpt>
      <trkpt lat="49.41633" lon="-1.48895">
        <ele>17.7</ele>
      </trkpt>
      <trkpt lat="49.41633" lon="-1.48895">
        <ele>17.7</ele>
      </trkpt>
      <trkpt lat="49.41634" lon="-1.48898">
        <ele>17.7</ele>
      </trkpt>
      <trkpt lat="49.41638" lon="-1.48902">
        <ele>17.6</ele>
      </trkpt>
      <trkpt lat="49.4164" lon="-1.48902">
        <ele>17.6</ele>
      </trkpt>
      <trkpt lat="49.41646" lon="-1.48905">
        <ele>17.5</ele>
      </trkpt>
      <trkpt lat="49.41647" lon="-1.48898">
        <ele>17.4</ele>
      </trkpt>
      <trkpt lat="49.4165" lon="-1.48889">
        <ele>17.3</ele>
      </trkpt>
      <trkpt lat="49.41653" lon="-1.48882">
        <ele>17.3</ele>
      </trkpt>
      <trkpt lat="49.41658" lon="-1.48874">
        <ele>17.2</ele>
      </trkpt>
      <trkpt lat="49.41662" lon="-1.48866">
        <ele>17.1</ele>
      </trkpt>
      <trkpt lat="49.4167" lon="-1.48856">
        <ele>17</ele>
      </trkpt>
      <trkpt lat="49.41676" lon="-1.48848">
        <ele>16.9</ele>
      </trkpt>
      <trkpt lat="49.41682" lon="-1.48839">
        <ele>16.8</ele>
      </trkpt>
      <trkpt lat="49.41687" lon="-1.48831">
        <ele>16.8</ele>
      </trkpt>
      <trkpt lat="49.41692" lon="-1.48822">
        <ele>16.9</ele>
      </trkpt>
      <trkpt lat="49.41696" lon="-1.48813">
        <ele>17.1</ele>
      </trkpt>
      <trkpt lat="49.41701" lon="-1.48801">
        <ele>17.2</ele>
      </trkpt>
      <trkpt lat="49.41713" lon="-1.48768">
        <ele>17.6</ele>
      </trkpt>
      <trkpt lat="49.41725" lon="-1.48737">
        <ele>17.7</ele>
      </trkpt>
      <trkpt lat="49.41737" lon="-1.48704">
        <ele>17.8</ele>
      </trkpt>
      <trkpt lat="49.41742" lon="-1.48689">
        <ele>17.8</ele>
      </trkpt>
      <trkpt lat="49.41746" lon="-1.48675">
        <ele>18</ele>
      </trkpt>
      <trkpt lat="49.41748" lon="-1.48664">
        <ele>18</ele>
      </trkpt>
      <trkpt lat="49.41751" lon="-1.48635">
        <ele>18</ele>
      </trkpt>
      <trkpt lat="49.41759" lon="-1.48582">
        <ele>17.9</ele>
      </trkpt>
      <trkpt lat="49.41767" lon="-1.48536">
        <ele>17.5</ele>
      </trkpt>
      <trkpt lat="49.4177" lon="-1.48521">
        <ele>17.4</ele>
      </trkpt>
      <trkpt lat="49.41775" lon="-1.48499">
        <ele>17.3</ele>
      </trkpt>
      <trkpt lat="49.41779" lon="-1.48483">
        <ele>17.8</ele>
      </trkpt>
      <trkpt lat="49.41781" lon="-1.48473">
        <ele>18</ele>
      </trkpt>
      <trkpt lat="49.41786" lon="-1.48457">
        <ele>18.5</ele>
      </trkpt>
      <trkpt lat="49.41789" lon="-1.48446">
        <ele>18.8</ele>
      </trkpt>
      <trkpt lat="49.4179" lon="-1.48443">
        <ele>18.8</ele>
      </trkpt>
      <trkpt lat="49.41804" lon="-1.48412">
        <ele>19.6</ele>
      </trkpt>
      <trkpt lat="49.41818" lon="-1.48384">
        <ele>19.8</ele>
      </trkpt>
      <trkpt lat="49.41832" lon="-1.48358">
        <ele>20</ele>
      </trkpt>
      <trkpt lat="49.41839" lon="-1.48345">
        <ele>19.9</ele>
      </trkpt>
      <trkpt lat="49.41842" lon="-1.4834">
        <ele>19.9</ele>
      </trkpt>
      <trkpt lat="49.41869" lon="-1.48288">
        <ele>18.8</ele>
      </trkpt>
      <trkpt lat="49.41882" lon="-1.48261">
        <ele>18</ele>
      </trkpt>
      <trkpt lat="49.4191" lon="-1.48201">
        <ele>17.8</ele>
      </trkpt>
      <trkpt lat="49.41924" lon="-1.48169">
        <ele>18.1</ele>
      </trkpt>
      <trkpt lat="49.41937" lon="-1.48138">
        <ele>19</ele>
      </trkpt>
      <trkpt lat="49.41943" lon="-1.48123">
        <ele>19.4</ele>
      </trkpt>
      <trkpt lat="49.41946" lon="-1.48112">
        <ele>19.6</ele>
      </trkpt>
      <trkpt lat="49.41951" lon="-1.48098">
        <ele>19.9</ele>
      </trkpt>
      <trkpt lat="49.41956" lon="-1.48084">
        <ele>20.1</ele>
      </trkpt>
      <trkpt lat="49.41957" lon="-1.4808">
        <ele>20</ele>
      </trkpt>
      <trkpt lat="49.41958" lon="-1.48074">
        <ele>19.8</ele>
      </trkpt>
      <trkpt lat="49.41965" lon="-1.48049">
        <ele>19.3</ele>
      </trkpt>
      <trkpt lat="49.41973" lon="-1.48016">
        <ele>18.6</ele>
      </trkpt>
      <trkpt lat="49.41976" lon="-1.48002">
        <ele>18.3</ele>
      </trkpt>
      <trkpt lat="49.41983" lon="-1.47969">
        <ele>18.2</ele>
      </trkpt>
      <trkpt lat="49.41989" lon="-1.47936">
        <ele>18.1</ele>
      </trkpt>
      <trkpt lat="49.4199" lon="-1.47934">
        <ele>18.1</ele>
      </trkpt>
      <trkpt lat="49.41993" lon="-1.47915">
        <ele>18.1</ele>
      </trkpt>
      <trkpt lat="49.41999" lon="-1.47883">
        <ele>18.4</ele>
      </trkpt>
      <trkpt lat="49.42" lon="-1.47878">
        <ele>18.5</ele>
      </trkpt>
      <trkpt lat="49.42001" lon="-1.47872">
        <ele>18.5</ele>
      </trkpt>
      <trkpt lat="49.42004" lon="-1.4786">
        <ele>18.7</ele>
      </trkpt>
      <trkpt lat="49.42009" lon="-1.4784">
        <ele>19</ele>
      </trkpt>
      <trkpt lat="49.42018" lon="-1.47816">
        <ele>19.2</ele>
      </trkpt>
      <trkpt lat="49.42031" lon="-1.47778">
        <ele>19.1</ele>
      </trkpt>
      <trkpt lat="49.42044" lon="-1.47743">
        <ele>19.2</ele>
      </trkpt>
      <trkpt lat="49.42053" lon="-1.47718">
        <ele>19.9</ele>
      </trkpt>
      <trkpt lat="49.42056" lon="-1.47708">
        <ele>20.2</ele>
      </trkpt>
      <trkpt lat="49.42067" lon="-1.47673">
        <ele>21</ele>
      </trkpt>
      <trkpt lat="49.42083" lon="-1.47621">
        <ele>20.5</ele>
      </trkpt>
      <trkpt lat="49.42096" lon="-1.47579">
        <ele>19.9</ele>
      </trkpt>
      <trkpt lat="49.42103" lon="-1.4756">
        <ele>19.8</ele>
      </trkpt>
      <trkpt lat="49.42117" lon="-1.4753">
        <ele>19.9</ele>
      </trkpt>
      <trkpt lat="49.4213" lon="-1.47505">
        <ele>20</ele>
      </trkpt>
      <trkpt lat="49.42155" lon="-1.47455">
        <ele>20.9</ele>
      </trkpt>
      <trkpt lat="49.42176" lon="-1.47417">
        <ele>22.1</ele>
      </trkpt>
      <trkpt lat="49.42183" lon="-1.47404">
        <ele>22.2</ele>
      </trkpt>
      <trkpt lat="49.42197" lon="-1.47385">
        <ele>22.2</ele>
      </trkpt>
      <trkpt lat="49.42205" lon="-1.47377">
        <ele>22.2</ele>
      </trkpt>
      <trkpt lat="49.42213" lon="-1.47371">
        <ele>22.2</ele>
      </trkpt>
      <trkpt lat="49.42225" lon="-1.47363">
        <ele>22.2</ele>
      </trkpt>
      <trkpt lat="49.42234" lon="-1.4736">
        <ele>22.3</ele>
      </trkpt>
      <trkpt lat="49.42247" lon="-1.47354">
        <ele>22.2</ele>
      </trkpt>
      <trkpt lat="49.42265" lon="-1.47346">
        <ele>21.8</ele>
      </trkpt>
      <trkpt lat="49.4228" lon="-1.47337">
        <ele>21.3</ele>
      </trkpt>
      <trkpt lat="49.42297" lon="-1.47326">
        <ele>20.9</ele>
      </trkpt>
      <trkpt lat="49.42302" lon="-1.4732">
        <ele>20.9</ele>
      </trkpt>
      <trkpt lat="49.42302" lon="-1.4732">
        <ele>20.9</ele>
      </trkpt>
      <trkpt lat="49.42317" lon="-1.47305">
        <ele>20.7</ele>
      </trkpt>
      <trkpt lat="49.42323" lon="-1.47297">
        <ele>20.6</ele>
      </trkpt>
      <trkpt lat="49.42338" lon="-1.47277">
        <ele>20.7</ele>
      </trkpt>
      <trkpt lat="49.42349" lon="-1.4726">
        <ele>21.1</ele>
      </trkpt>
      <trkpt lat="49.42368" lon="-1.47234">
        <ele>21.6</ele>
      </trkpt>
      <trkpt lat="49.42386" lon="-1.47218">
        <ele>22</ele>
      </trkpt>
      <trkpt lat="49.42404" lon="-1.4721">
        <ele>22.3</ele>
      </trkpt>
      <trkpt lat="49.42423" lon="-1.47208">
        <ele>22.5</ele>
      </trkpt>
      <trkpt lat="49.42433" lon="-1.47207">
        <ele>22.6</ele>
      </trkpt>
      <trkpt lat="49.42461" lon="-1.47214">
        <ele>22.7</ele>
      </trkpt>
      <trkpt lat="49.42469" lon="-1.47215">
        <ele>22.8</ele>
      </trkpt>
      <trkpt lat="49.42473" lon="-1.47226">
        <ele>22.8</ele>
      </trkpt>
      <trkpt lat="49.42478" lon="-1.47238">
        <ele>22.8</ele>
      </trkpt>
      <trkpt lat="49.42491" lon="-1.47266">
        <ele>22.9</ele>
      </trkpt>
      <trkpt lat="49.42508" lon="-1.47301">
        <ele>23.1</ele>
      </trkpt>
      <trkpt lat="49.42509" lon="-1.47303">
        <ele>23.2</ele>
      </trkpt>
      <trkpt lat="49.42525" lon="-1.47335">
        <ele>23.3</ele>
      </trkpt>
      <trkpt lat="49.4254" lon="-1.4736">
        <ele>23.2</ele>
      </trkpt>
      <trkpt lat="49.42547" lon="-1.47373">
        <ele>23</ele>
      </trkpt>
      <trkpt lat="49.42566" lon="-1.47403">
        <ele>22.5</ele>
      </trkpt>
      <trkpt lat="49.42589" lon="-1.47436">
        <ele>22.1</ele>
      </trkpt>
      <trkpt lat="49.426" lon="-1.47454">
        <ele>22.2</ele>
      </trkpt>
      <trkpt lat="49.42605" lon="-1.47463">
        <ele>22.3</ele>
      </trkpt>
      <trkpt lat="49.42612" lon="-1.47472">
        <ele>22.3</ele>
      </trkpt>
      <trkpt lat="49.42617" lon="-1.4748">
        <ele>22.4</ele>
      </trkpt>
      <trkpt lat="49.42625" lon="-1.47489">
        <ele>22.5</ele>
      </trkpt>
      <trkpt lat="49.42637" lon="-1.47499">
        <ele>22.6</ele>
      </trkpt>
      <trkpt lat="49.42641" lon="-1.47504">
        <ele>22.8</ele>
      </trkpt>
      <trkpt lat="49.42654" lon="-1.47515">
        <ele>23.2</ele>
      </trkpt>
      <trkpt lat="49.42658" lon="-1.47519">
        <ele>23.3</ele>
      </trkpt>
      <trkpt lat="49.42666" lon="-1.47527">
        <ele>23.6</ele>
      </trkpt>
      <trkpt lat="49.42685" lon="-1.47549">
        <ele>24.6</ele>
      </trkpt>
      <trkpt lat="49.42708" lon="-1.47576">
        <ele>25.4</ele>
      </trkpt>
      <trkpt lat="49.4271" lon="-1.47578">
        <ele>25.5</ele>
      </trkpt>
      <trkpt lat="49.4273" lon="-1.47604">
        <ele>25.6</ele>
      </trkpt>
      <trkpt lat="49.42752" lon="-1.47631">
        <ele>25.5</ele>
      </trkpt>
      <trkpt lat="49.42783" lon="-1.47667">
        <ele>25.8</ele>
      </trkpt>
      <trkpt lat="49.42796" lon="-1.47684">
        <ele>26.2</ele>
      </trkpt>
      <trkpt lat="49.42804" lon="-1.47694">
        <ele>26.4</ele>
      </trkpt>
      <trkpt lat="49.42821" lon="-1.47714">
        <ele>26.8</ele>
      </trkpt>
      <trkpt lat="49.42833" lon="-1.4773">
        <ele>27</ele>
      </trkpt>
      <trkpt lat="49.42836" lon="-1.47734">
        <ele>27.1</ele>
      </trkpt>
      <trkpt lat="49.42844" lon="-1.47745">
        <ele>27.3</ele>
      </trkpt>
      <trkpt lat="49.42859" lon="-1.47767">
        <ele>27.8</ele>
      </trkpt>
      <trkpt lat="49.42867" lon="-1.4778">
        <ele>28.1</ele>
      </trkpt>
      <trkpt lat="49.42871" lon="-1.47785">
        <ele>28.2</ele>
      </trkpt>
      <trkpt lat="49.42875" lon="-1.47792">
        <ele>28.3</ele>
      </trkpt>
      <trkpt lat="49.42885" lon="-1.47804">
        <ele>28.3</ele>
      </trkpt>
      <trkpt lat="49.42895" lon="-1.47815">
        <ele>28.3</ele>
      </trkpt>
      <trkpt lat="49.42904" lon="-1.47824">
        <ele>28.2</ele>
      </trkpt>
      <trkpt lat="49.42914" lon="-1.47834">
        <ele>28</ele>
      </trkpt>
      <trkpt lat="49.42946" lon="-1.47864">
        <ele>28.8</ele>
      </trkpt>
      <trkpt lat="49.42949" lon="-1.47867">
        <ele>28.9</ele>
      </trkpt>
      <trkpt lat="49.42963" lon="-1.47882">
        <ele>29</ele>
      </trkpt>
      <trkpt lat="49.42976" lon="-1.47895">
        <ele>29.1</ele>
      </trkpt>
      <trkpt lat="49.42989" lon="-1.47909">
        <ele>29.1</ele>
      </trkpt>
      <trkpt lat="49.43003" lon="-1.47931">
        <ele>28.9</ele>
      </trkpt>
      <trkpt lat="49.43015" lon="-1.47952">
        <ele>28.9</ele>
      </trkpt>
      <trkpt lat="49.4303" lon="-1.4798">
        <ele>29</ele>
      </trkpt>
      <trkpt lat="49.43044" lon="-1.48005">
        <ele>29</ele>
      </trkpt>
      <trkpt lat="49.43049" lon="-1.48011">
        <ele>29</ele>
      </trkpt>
      <trkpt lat="49.4306" lon="-1.48029">
        <ele>29.1</ele>
      </trkpt>
      <trkpt lat="49.43075" lon="-1.48051">
        <ele>29.2</ele>
      </trkpt>
      <trkpt lat="49.43104" lon="-1.4809">
        <ele>29.3</ele>
      </trkpt>
      <trkpt lat="49.43116" lon="-1.48107">
        <ele>29.5</ele>
      </trkpt>
      <trkpt lat="49.43134" lon="-1.48133">
        <ele>30</ele>
      </trkpt>
      <trkpt lat="49.43141" lon="-1.48143">
        <ele>30.2</ele>
      </trkpt>
      <trkpt lat="49.43157" lon="-1.48164">
        <ele>30.7</ele>
      </trkpt>
      <trkpt lat="49.43174" lon="-1.48185">
        <ele>31.1</ele>
      </trkpt>
      <trkpt lat="49.43186" lon="-1.48199">
        <ele>31.3</ele>
      </trkpt>
      <trkpt lat="49.43195" lon="-1.48208">
        <ele>31.5</ele>
      </trkpt>
      <trkpt lat="49.43214" lon="-1.48228">
        <ele>32</ele>
      </trkpt>
      <trkpt lat="49.43223" lon="-1.4824">
        <ele>32.3</ele>
      </trkpt>
      <trkpt lat="49.43236" lon="-1.48256">
        <ele>32.6</ele>
      </trkpt>
      <trkpt lat="49.43239" lon="-1.4826">
        <ele>32.6</ele>
      </trkpt>
      <trkpt lat="49.43255" lon="-1.48283">
        <ele>32.7</ele>
      </trkpt>
      <trkpt lat="49.43261" lon="-1.48291">
        <ele>32.6</ele>
      </trkpt>
      <trkpt lat="49.43293" lon="-1.48339">
        <ele>32.5</ele>
      </trkpt>
      <trkpt lat="49.43305" lon="-1.48356">
        <ele>32.8</ele>
      </trkpt>
      <trkpt lat="49.43342" lon="-1.4841">
        <ele>33.3</ele>
      </trkpt>
      <trkpt lat="49.43371" lon="-1.48454">
        <ele>33.5</ele>
      </trkpt>
      <trkpt lat="49.43391" lon="-1.48483">
        <ele>33.2</ele>
      </trkpt>
      <trkpt lat="49.434" lon="-1.48496">
        <ele>32.9</ele>
      </trkpt>
      <trkpt lat="49.43406" lon="-1.48508">
        <ele>32.7</ele>
      </trkpt>
      <trkpt lat="49.43411" lon="-1.48521">
        <ele>32.5</ele>
      </trkpt>
      <trkpt lat="49.43417" lon="-1.48537">
        <ele>32.1</ele>
      </trkpt>
      <trkpt lat="49.43423" lon="-1.48557">
        <ele>31.8</ele>
      </trkpt>
      <trkpt lat="49.4343" lon="-1.48578">
        <ele>31.4</ele>
      </trkpt>
      <trkpt lat="49.4344" lon="-1.48605">
        <ele>31.6</ele>
      </trkpt>
      <trkpt lat="49.43455" lon="-1.4864">
        <ele>31.9</ele>
      </trkpt>
      <trkpt lat="49.43457" lon="-1.48647">
        <ele>32</ele>
      </trkpt>
      <trkpt lat="49.43468" lon="-1.48683">
        <ele>32.2</ele>
      </trkpt>
      <trkpt lat="49.43469" lon="-1.48688">
        <ele>32.3</ele>
      </trkpt>
      <trkpt lat="49.43478" lon="-1.4872">
        <ele>32.5</ele>
      </trkpt>
      <trkpt lat="49.43482" lon="-1.48737">
        <ele>32.6</ele>
      </trkpt>
      <trkpt lat="49.4352" lon="-1.48884">
        <ele>32.8</ele>
      </trkpt>
      <trkpt lat="49.43524" lon="-1.48901">
        <ele>32.7</ele>
      </trkpt>
      <trkpt lat="49.43528" lon="-1.48918">
        <ele>32.7</ele>
      </trkpt>
      <trkpt lat="49.43536" lon="-1.4895">
        <ele>32.7</ele>
      </trkpt>
      <trkpt lat="49.43551" lon="-1.49014">
        <ele>32.9</ele>
      </trkpt>
      <trkpt lat="49.43552" lon="-1.49019">
        <ele>33</ele>
      </trkpt>
      <trkpt lat="49.43561" lon="-1.49045">
        <ele>33.6</ele>
      </trkpt>
      <trkpt lat="49.43569" lon="-1.49064">
        <ele>33.9</ele>
      </trkpt>
      <trkpt lat="49.43573" lon="-1.49072">
        <ele>33.9</ele>
      </trkpt>
      <trkpt lat="49.43583" lon="-1.4909">
        <ele>34.2</ele>
      </trkpt>
      <trkpt lat="49.43603" lon="-1.49125">
        <ele>35.9</ele>
      </trkpt>
      <trkpt lat="49.43608" lon="-1.49135">
        <ele>36.3</ele>
      </trkpt>
      <trkpt lat="49.4361" lon="-1.49138">
        <ele>36.4</ele>
      </trkpt>
      <trkpt lat="49.43626" lon="-1.49169">
        <ele>37.5</ele>
      </trkpt>
      <trkpt lat="49.43631" lon="-1.4918">
        <ele>37.7</ele>
      </trkpt>
      <trkpt lat="49.43634" lon="-1.49187">
        <ele>37.8</ele>
      </trkpt>
      <trkpt lat="49.43641" lon="-1.49205">
        <ele>38</ele>
      </trkpt>
      <trkpt lat="49.43647" lon="-1.49223">
        <ele>38.1</ele>
      </trkpt>
      <trkpt lat="49.43651" lon="-1.49238">
        <ele>38.1</ele>
      </trkpt>
      <trkpt lat="49.43653" lon="-1.49242">
        <ele>38.1</ele>
      </trkpt>
      <trkpt lat="49.43665" lon="-1.49278">
        <ele>38</ele>
      </trkpt>
      <trkpt lat="49.43669" lon="-1.49286">
        <ele>38</ele>
      </trkpt>
      <trkpt lat="49.43675" lon="-1.49297">
        <ele>37.9</ele>
      </trkpt>
      <trkpt lat="49.43681" lon="-1.49308">
        <ele>37.9</ele>
      </trkpt>
      <trkpt lat="49.43684" lon="-1.49311">
        <ele>37.8</ele>
      </trkpt>
      <trkpt lat="49.4369" lon="-1.49319">
        <ele>37.8</ele>
      </trkpt>
      <trkpt lat="49.43699" lon="-1.49329">
        <ele>37.6</ele>
      </trkpt>
      <trkpt lat="49.43703" lon="-1.49334">
        <ele>37.6</ele>
      </trkpt>
      <trkpt lat="49.43709" lon="-1.4934">
        <ele>37.5</ele>
      </trkpt>
      <trkpt lat="49.43723" lon="-1.49352">
        <ele>37.5</ele>
      </trkpt>
      <trkpt lat="49.43734" lon="-1.49358">
        <ele>37.4</ele>
      </trkpt>
      <trkpt lat="49.43747" lon="-1.49367">
        <ele>37.4</ele>
      </trkpt>
      <trkpt lat="49.43758" lon="-1.49375">
        <ele>37.5</ele>
      </trkpt>
      <trkpt lat="49.43766" lon="-1.49382">
        <ele>37.5</ele>
      </trkpt>
      <trkpt lat="49.43776" lon="-1.49393">
        <ele>37.5</ele>
      </trkpt>
      <trkpt lat="49.43782" lon="-1.494">
        <ele>37.5</ele>
      </trkpt>
      <trkpt lat="49.43785" lon="-1.49404">
        <ele>37.5</ele>
      </trkpt>
      <trkpt lat="49.43788" lon="-1.49408">
        <ele>37.5</ele>
      </trkpt>
      <trkpt lat="49.43792" lon="-1.49417">
        <ele>37.5</ele>
      </trkpt>
      <trkpt lat="49.438" lon="-1.49436">
        <ele>37.7</ele>
      </trkpt>
      <trkpt lat="49.43802" lon="-1.49441">
        <ele>37.7</ele>
      </trkpt>
      <trkpt lat="49.43807" lon="-1.49454">
        <ele>37.9</ele>
      </trkpt>
      <trkpt lat="49.43811" lon="-1.49464">
        <ele>38.1</ele>
      </trkpt>
      <trkpt lat="49.43815" lon="-1.49476">
        <ele>38.3</ele>
      </trkpt>
      <trkpt lat="49.43819" lon="-1.49488">
        <ele>38.6</ele>
      </trkpt>
      <trkpt lat="49.43825" lon="-1.49502">
        <ele>38.9</ele>
      </trkpt>
      <trkpt lat="49.43851" lon="-1.49562">
        <ele>38.1</ele>
      </trkpt>
      <trkpt lat="49.43868" lon="-1.49601">
        <ele>38</ele>
      </trkpt>
      <trkpt lat="49.43879" lon="-1.49629">
        <ele>38.1</ele>
      </trkpt>
      <trkpt lat="49.43885" lon="-1.49641">
        <ele>38.2</ele>
      </trkpt>
      <trkpt lat="49.43894" lon="-1.49659">
        <ele>38.4</ele>
      </trkpt>
      <trkpt lat="49.43904" lon="-1.49677">
        <ele>38.7</ele>
      </trkpt>
      <trkpt lat="49.43914" lon="-1.49696">
        <ele>39</ele>
      </trkpt>
      <trkpt lat="49.43922" lon="-1.49709">
        <ele>39.1</ele>
      </trkpt>
      <trkpt lat="49.43931" lon="-1.49724">
        <ele>39.2</ele>
      </trkpt>
      <trkpt lat="49.43946" lon="-1.4975">
        <ele>39.7</ele>
      </trkpt>
      <trkpt lat="49.43965" lon="-1.49778">
        <ele>40.1</ele>
      </trkpt>
      <trkpt lat="49.43987" lon="-1.49817">
        <ele>40.1</ele>
      </trkpt>
      <trkpt lat="49.44011" lon="-1.49852">
        <ele>39.8</ele>
      </trkpt>
      <trkpt lat="49.44022" lon="-1.49869">
        <ele>39.6</ele>
      </trkpt>
      <trkpt lat="49.4403" lon="-1.49879">
        <ele>39.5</ele>
      </trkpt>
      <trkpt lat="49.44039" lon="-1.49889">
        <ele>39.3</ele>
      </trkpt>
      <trkpt lat="49.44055" lon="-1.49906">
        <ele>39.1</ele>
      </trkpt>
      <trkpt lat="49.44071" lon="-1.49924">
        <ele>39</ele>
      </trkpt>
      <trkpt lat="49.44085" lon="-1.49939">
        <ele>39</ele>
      </trkpt>
      <trkpt lat="49.44102" lon="-1.49956">
        <ele>39.1</ele>
      </trkpt>
      <trkpt lat="49.44127" lon="-1.49978">
        <ele>39.1</ele>
      </trkpt>
      <trkpt lat="49.44134" lon="-1.49984">
        <ele>39.1</ele>
      </trkpt>
      <trkpt lat="49.44138" lon="-1.49988">
        <ele>39.1</ele>
      </trkpt>
      <trkpt lat="49.44146" lon="-1.49998">
        <ele>39</ele>
      </trkpt>
      <trkpt lat="49.44146" lon="-1.49992">
        <ele>39.1</ele>
      </trkpt>
      <trkpt lat="49.44146" lon="-1.49998">
        <ele>39</ele>
      </trkpt>
      <trkpt lat="49.44152" lon="-1.50007">
        <ele>38.9</ele>
      </trkpt>
      <trkpt lat="49.44163" lon="-1.50027">
        <ele>38.7</ele>
      </trkpt>
      <trkpt lat="49.44173" lon="-1.50048">
        <ele>38.5</ele>
      </trkpt>
      <trkpt lat="49.4418" lon="-1.50063">
        <ele>38.4</ele>
      </trkpt>
      <trkpt lat="49.44184" lon="-1.50072">
        <ele>38.3</ele>
      </trkpt>
      <trkpt lat="49.44189" lon="-1.50082">
        <ele>38.3</ele>
      </trkpt>
      <trkpt lat="49.44202" lon="-1.50119">
        <ele>38.4</ele>
      </trkpt>
      <trkpt lat="49.44209" lon="-1.50139">
        <ele>38.5</ele>
      </trkpt>
      <trkpt lat="49.44215" lon="-1.50155">
        <ele>38.6</ele>
      </trkpt>
      <trkpt lat="49.4422" lon="-1.50171">
        <ele>38.6</ele>
      </trkpt>
      <trkpt lat="49.44224" lon="-1.50186">
        <ele>38.6</ele>
      </trkpt>
      <trkpt lat="49.44228" lon="-1.50203">
        <ele>38.6</ele>
      </trkpt>
      <trkpt lat="49.44231" lon="-1.50211">
        <ele>38.6</ele>
      </trkpt>
      <trkpt lat="49.44232" lon="-1.50213">
        <ele>38.7</ele>
      </trkpt>
      <trkpt lat="49.44239" lon="-1.50233">
        <ele>38.8</ele>
      </trkpt>
      <trkpt lat="49.44244" lon="-1.50245">
        <ele>38.8</ele>
      </trkpt>
      <trkpt lat="49.44247" lon="-1.50251">
        <ele>38.9</ele>
      </trkpt>
      <trkpt lat="49.44248" lon="-1.50255">
        <ele>39</ele>
      </trkpt>
      <trkpt lat="49.44256" lon="-1.5027">
        <ele>38.9</ele>
      </trkpt>
      <trkpt lat="49.44268" lon="-1.50287">
        <ele>38.8</ele>
      </trkpt>
      <trkpt lat="49.44274" lon="-1.50294">
        <ele>38.7</ele>
      </trkpt>
      <trkpt lat="49.44284" lon="-1.50306">
        <ele>38.6</ele>
      </trkpt>
      <trkpt lat="49.443" lon="-1.50325">
        <ele>38.4</ele>
      </trkpt>
      <trkpt lat="49.44305" lon="-1.50331">
        <ele>38.3</ele>
      </trkpt>
      <trkpt lat="49.44322" lon="-1.50352">
        <ele>37.9</ele>
      </trkpt>
      <trkpt lat="49.44353" lon="-1.50394">
        <ele>37.7</ele>
      </trkpt>
      <trkpt lat="49.44385" lon="-1.50448">
        <ele>38.4</ele>
      </trkpt>
      <trkpt lat="49.44389" lon="-1.5046">
        <ele>38.5</ele>
      </trkpt>
      <trkpt lat="49.44396" lon="-1.5048">
        <ele>38.7</ele>
      </trkpt>
      <trkpt lat="49.44409" lon="-1.50516">
        <ele>38.9</ele>
      </trkpt>
      <trkpt lat="49.44413" lon="-1.50525">
        <ele>39</ele>
      </trkpt>
      <trkpt lat="49.44419" lon="-1.50539">
        <ele>39</ele>
      </trkpt>
      <trkpt lat="49.44428" lon="-1.50558">
        <ele>38.8</ele>
      </trkpt>
      <trkpt lat="49.44433" lon="-1.50557">
        <ele>38.7</ele>
      </trkpt>
      <trkpt lat="49.44444" lon="-1.50554">
        <ele>38.5</ele>
      </trkpt>
      <trkpt lat="49.44452" lon="-1.50552">
        <ele>38.3</ele>
      </trkpt>
      <trkpt lat="49.44476" lon="-1.50548">
        <ele>37.9</ele>
      </trkpt>
      <trkpt lat="49.44499" lon="-1.50543">
        <ele>37.5</ele>
      </trkpt>
      <trkpt lat="49.44513" lon="-1.50539">
        <ele>37.6</ele>
      </trkpt>
      <trkpt lat="49.44528" lon="-1.50536">
        <ele>37.7</ele>
      </trkpt>
      <trkpt lat="49.44562" lon="-1.50528">
        <ele>37.9</ele>
      </trkpt>
      <trkpt lat="49.44578" lon="-1.50524">
        <ele>38</ele>
      </trkpt>
      <trkpt lat="49.44581" lon="-1.50523">
        <ele>38</ele>
      </trkpt>
      <trkpt lat="49.44596" lon="-1.50517">
        <ele>38</ele>
      </trkpt>
      <trkpt lat="49.44606" lon="-1.50511">
        <ele>38</ele>
      </trkpt>
      <trkpt lat="49.44624" lon="-1.505">
        <ele>38</ele>
      </trkpt>
      <trkpt lat="49.4463" lon="-1.50497">
        <ele>38</ele>
      </trkpt>
      <trkpt lat="49.44647" lon="-1.50487">
        <ele>38</ele>
      </trkpt>
      <trkpt lat="49.44661" lon="-1.50481">
        <ele>38</ele>
      </trkpt>
      <trkpt lat="49.44664" lon="-1.5048">
        <ele>38</ele>
      </trkpt>
      <trkpt lat="49.44669" lon="-1.50478">
        <ele>38</ele>
      </trkpt>
      <trkpt lat="49.44734" lon="-1.50445">
        <ele>38.3</ele>
      </trkpt>
      <trkpt lat="49.44749" lon="-1.50434">
        <ele>38.2</ele>
      </trkpt>
      <trkpt lat="49.44759" lon="-1.50427">
        <ele>38.2</ele>
      </trkpt>
      <trkpt lat="49.44768" lon="-1.5042">
        <ele>38.3</ele>
      </trkpt>
      <trkpt lat="49.44778" lon="-1.50412">
        <ele>38.3</ele>
      </trkpt>
      <trkpt lat="49.44782" lon="-1.50409">
        <ele>38.3</ele>
      </trkpt>
      <trkpt lat="49.44786" lon="-1.50406">
        <ele>38.2</ele>
      </trkpt>
      <trkpt lat="49.44793" lon="-1.50403">
        <ele>38.3</ele>
      </trkpt>
      <trkpt lat="49.44797" lon="-1.50402">
        <ele>38.3</ele>
      </trkpt>
      <trkpt lat="49.44801" lon="-1.50403">
        <ele>38.4</ele>
      </trkpt>
      <trkpt lat="49.44804" lon="-1.50406">
        <ele>38.4</ele>
      </trkpt>
      <trkpt lat="49.4481" lon="-1.50411">
        <ele>38.6</ele>
      </trkpt>
      <trkpt lat="49.44816" lon="-1.50418">
        <ele>38.8</ele>
      </trkpt>
      <trkpt lat="49.44822" lon="-1.50422">
        <ele>38.9</ele>
      </trkpt>
      <trkpt lat="49.44827" lon="-1.50423">
        <ele>39</ele>
      </trkpt>
      <trkpt lat="49.44833" lon="-1.50423">
        <ele>39.1</ele>
      </trkpt>
      <trkpt lat="49.44839" lon="-1.50423">
        <ele>38.9</ele>
      </trkpt>
      <trkpt lat="49.44849" lon="-1.50422">
        <ele>38.7</ele>
      </trkpt>
      <trkpt lat="49.44863" lon="-1.50421">
        <ele>38.3</ele>
      </trkpt>
      <trkpt lat="49.44879" lon="-1.50421">
        <ele>38</ele>
      </trkpt>
      <trkpt lat="49.4489" lon="-1.50418">
        <ele>37.7</ele>
      </trkpt>
      <trkpt lat="49.44897" lon="-1.50416">
        <ele>37.5</ele>
      </trkpt>
      <trkpt lat="49.44902" lon="-1.50413">
        <ele>37.3</ele>
      </trkpt>
      <trkpt lat="49.44911" lon="-1.50409">
        <ele>37</ele>
      </trkpt>
      <trkpt lat="49.44927" lon="-1.50398">
        <ele>37.1</ele>
      </trkpt>
      <trkpt lat="49.44943" lon="-1.50384">
        <ele>37.4</ele>
      </trkpt>
      <trkpt lat="49.44953" lon="-1.50376">
        <ele>37.6</ele>
      </trkpt>
      <trkpt lat="49.44961" lon="-1.50369">
        <ele>37.8</ele>
      </trkpt>
      <trkpt lat="49.44968" lon="-1.50363">
        <ele>38</ele>
      </trkpt>
      <trkpt lat="49.44976" lon="-1.50356">
        <ele>38.2</ele>
      </trkpt>
      <trkpt lat="49.44985" lon="-1.50348">
        <ele>38.5</ele>
      </trkpt>
      <trkpt lat="49.44995" lon="-1.50338">
        <ele>38.8</ele>
      </trkpt>
      <trkpt lat="49.45005" lon="-1.50329">
        <ele>38.9</ele>
      </trkpt>
      <trkpt lat="49.45026" lon="-1.50307">
        <ele>38.6</ele>
      </trkpt>
      <trkpt lat="49.45043" lon="-1.5029">
        <ele>38.5</ele>
      </trkpt>
      <trkpt lat="49.45053" lon="-1.50283">
        <ele>38.6</ele>
      </trkpt>
      <trkpt lat="49.45069" lon="-1.50269">
        <ele>38.7</ele>
      </trkpt>
      <trkpt lat="49.45086" lon="-1.50257">
        <ele>38.9</ele>
      </trkpt>
      <trkpt lat="49.45098" lon="-1.50247">
        <ele>38.4</ele>
      </trkpt>
      <trkpt lat="49.45147" lon="-1.5022">
        <ele>36.6</ele>
      </trkpt>
      <trkpt lat="49.45194" lon="-1.50193">
        <ele>35</ele>
      </trkpt>
      <trkpt lat="49.45219" lon="-1.5018">
        <ele>34.1</ele>
      </trkpt>
      <trkpt lat="49.45249" lon="-1.50163">
        <ele>33</ele>
      </trkpt>
      <trkpt lat="49.45269" lon="-1.50153">
        <ele>32</ele>
      </trkpt>
      <trkpt lat="49.453" lon="-1.5014">
        <ele>30.5</ele>
      </trkpt>
      <trkpt lat="49.4532" lon="-1.50133">
        <ele>29.6</ele>
      </trkpt>
      <trkpt lat="49.45329" lon="-1.5013">
        <ele>29.2</ele>
      </trkpt>
      <trkpt lat="49.45345" lon="-1.50125">
        <ele>28.8</ele>
      </trkpt>
      <trkpt lat="49.45353" lon="-1.50122">
        <ele>28.6</ele>
      </trkpt>
      <trkpt lat="49.45356" lon="-1.5012">
        <ele>28.6</ele>
      </trkpt>
      <trkpt lat="49.45358" lon="-1.50117">
        <ele>28.5</ele>
      </trkpt>
      <trkpt lat="49.45361" lon="-1.5011">
        <ele>28.4</ele>
      </trkpt>
      <trkpt lat="49.45366" lon="-1.50089">
        <ele>28.2</ele>
      </trkpt>
      <trkpt lat="49.45373" lon="-1.5006">
        <ele>28.1</ele>
      </trkpt>
      <trkpt lat="49.45378" lon="-1.50041">
        <ele>27.9</ele>
      </trkpt>
      <trkpt lat="49.45382" lon="-1.50031">
        <ele>27.8</ele>
      </trkpt>
      <trkpt lat="49.45386" lon="-1.50021">
        <ele>27.7</ele>
      </trkpt>
      <trkpt lat="49.45391" lon="-1.5001">
        <ele>27.6</ele>
      </trkpt>
      <trkpt lat="49.45418" lon="-1.49954">
        <ele>27.6</ele>
      </trkpt>
      <trkpt lat="49.45439" lon="-1.49916">
        <ele>28</ele>
      </trkpt>
      <trkpt lat="49.45466" lon="-1.49874">
        <ele>28.2</ele>
      </trkpt>
      <trkpt lat="49.45477" lon="-1.49854">
        <ele>28.2</ele>
      </trkpt>
      <trkpt lat="49.45493" lon="-1.49815">
        <ele>28.3</ele>
      </trkpt>
      <trkpt lat="49.45498" lon="-1.49807">
        <ele>28.4</ele>
      </trkpt>
      <trkpt lat="49.45504" lon="-1.49803">
        <ele>28.3</ele>
      </trkpt>
      <trkpt lat="49.45505" lon="-1.49797">
        <ele>28.3</ele>
      </trkpt>
      <trkpt lat="49.45506" lon="-1.49783">
        <ele>28.5</ele>
      </trkpt>
      <trkpt lat="49.45514" lon="-1.49758">
        <ele>28.6</ele>
      </trkpt>
      <trkpt lat="49.45536" lon="-1.49685">
        <ele>28.9</ele>
      </trkpt>
      <trkpt lat="49.45548" lon="-1.49641">
        <ele>28.8</ele>
      </trkpt>
      <trkpt lat="49.45549" lon="-1.49634">
        <ele>28.7</ele>
      </trkpt>
      <trkpt lat="49.45551" lon="-1.49624">
        <ele>28.7</ele>
      </trkpt>
      <trkpt lat="49.45551" lon="-1.49615">
        <ele>28.7</ele>
      </trkpt>
      <trkpt lat="49.45551" lon="-1.49606">
        <ele>28.7</ele>
      </trkpt>
      <trkpt lat="49.45546" lon="-1.49557">
        <ele>27.9</ele>
      </trkpt>
      <trkpt lat="49.45544" lon="-1.4954">
        <ele>27.5</ele>
      </trkpt>
      <trkpt lat="49.4554" lon="-1.49497">
        <ele>26.4</ele>
      </trkpt>
      <trkpt lat="49.45538" lon="-1.49478">
        <ele>26.1</ele>
      </trkpt>
      <trkpt lat="49.45538" lon="-1.49464">
        <ele>25.8</ele>
      </trkpt>
      <trkpt lat="49.45565" lon="-1.49455">
        <ele>25.8</ele>
      </trkpt>
      <trkpt lat="49.45567" lon="-1.49454">
        <ele>25.8</ele>
      </trkpt>
      <trkpt lat="49.4558" lon="-1.49448">
        <ele>25.7</ele>
      </trkpt>
      <trkpt lat="49.45584" lon="-1.49446">
        <ele>25.7</ele>
      </trkpt>
      <trkpt lat="49.4559" lon="-1.49443">
        <ele>25.6</ele>
      </trkpt>
      <trkpt lat="49.45607" lon="-1.4943">
        <ele>25.3</ele>
      </trkpt>
      <trkpt lat="49.45625" lon="-1.49417">
        <ele>25</ele>
      </trkpt>
      <trkpt lat="49.45627" lon="-1.49415">
        <ele>25</ele>
      </trkpt>
      <trkpt lat="49.45645" lon="-1.49404">
        <ele>25</ele>
      </trkpt>
      <trkpt lat="49.4566" lon="-1.49396">
        <ele>25</ele>
      </trkpt>
      <trkpt lat="49.45676" lon="-1.49388">
        <ele>25.1</ele>
      </trkpt>
      <trkpt lat="49.45699" lon="-1.49377">
        <ele>25.4</ele>
      </trkpt>
      <trkpt lat="49.45713" lon="-1.4937">
        <ele>25.5</ele>
      </trkpt>
      <trkpt lat="49.4573" lon="-1.49364">
        <ele>25.6</ele>
      </trkpt>
      <trkpt lat="49.45748" lon="-1.49354">
        <ele>25.5</ele>
      </trkpt>
      <trkpt lat="49.45762" lon="-1.49353">
        <ele>25.2</ele>
      </trkpt>
      <trkpt lat="49.45778" lon="-1.49354">
        <ele>24.8</ele>
      </trkpt>
      <trkpt lat="49.45793" lon="-1.49357">
        <ele>24.4</ele>
      </trkpt>
      <trkpt lat="49.45819" lon="-1.49361">
        <ele>23.7</ele>
      </trkpt>
      <trkpt lat="49.45826" lon="-1.49361">
        <ele>23.6</ele>
      </trkpt>
      <trkpt lat="49.45828" lon="-1.49362">
        <ele>23.5</ele>
      </trkpt>
      <trkpt lat="49.45838" lon="-1.49362">
        <ele>23.3</ele>
      </trkpt>
      <trkpt lat="49.45848" lon="-1.49363">
        <ele>23.2</ele>
      </trkpt>
      <trkpt lat="49.45853" lon="-1.49363">
        <ele>23.2</ele>
      </trkpt>
      <trkpt lat="49.45879" lon="-1.49363">
        <ele>23</ele>
      </trkpt>
      <trkpt lat="49.45888" lon="-1.49362">
        <ele>22.9</ele>
      </trkpt>
      <trkpt lat="49.45908" lon="-1.4936">
        <ele>22.7</ele>
      </trkpt>
      <trkpt lat="49.45923" lon="-1.49359">
        <ele>22.9</ele>
      </trkpt>
      <trkpt lat="49.45938" lon="-1.49358">
        <ele>23.7</ele>
      </trkpt>
      <trkpt lat="49.45958" lon="-1.49357">
        <ele>24.8</ele>
      </trkpt>
      <trkpt lat="49.45961" lon="-1.49357">
        <ele>24.9</ele>
      </trkpt>
      <trkpt lat="49.46003" lon="-1.49354">
        <ele>27</ele>
      </trkpt>
      <trkpt lat="49.46027" lon="-1.49352">
        <ele>27.3</ele>
      </trkpt>
      <trkpt lat="49.4605" lon="-1.49351">
        <ele>27.6</ele>
      </trkpt>
      <trkpt lat="49.46067" lon="-1.49349">
        <ele>27.8</ele>
      </trkpt>
      <trkpt lat="49.46078" lon="-1.49347">
        <ele>27.9</ele>
      </trkpt>
      <trkpt lat="49.46086" lon="-1.49346">
        <ele>28</ele>
      </trkpt>
      <trkpt lat="49.46095" lon="-1.49345">
        <ele>27.9</ele>
      </trkpt>
      <trkpt lat="49.461" lon="-1.49347">
        <ele>27.9</ele>
      </trkpt>
      <trkpt lat="49.46108" lon="-1.49341">
        <ele>27.8</ele>
      </trkpt>
      <trkpt lat="49.4612" lon="-1.49331">
        <ele>27.5</ele>
      </trkpt>
      <trkpt lat="49.46129" lon="-1.49325">
        <ele>27.3</ele>
      </trkpt>
      <trkpt lat="49.4614" lon="-1.49316">
        <ele>27</ele>
      </trkpt>
      <trkpt lat="49.4615" lon="-1.49308">
        <ele>26.8</ele>
      </trkpt>
      <trkpt lat="49.46164" lon="-1.49295">
        <ele>26.6</ele>
      </trkpt>
      <trkpt lat="49.46176" lon="-1.49282">
        <ele>26.5</ele>
      </trkpt>
      <trkpt lat="49.4619" lon="-1.49268">
        <ele>26.5</ele>
      </trkpt>
      <trkpt lat="49.46194" lon="-1.49264">
        <ele>26.5</ele>
      </trkpt>
      <trkpt lat="49.46207" lon="-1.49253">
        <ele>26.5</ele>
      </trkpt>
      <trkpt lat="49.46223" lon="-1.49241">
        <ele>26.6</ele>
      </trkpt>
      <trkpt lat="49.46234" lon="-1.49235">
        <ele>26.6</ele>
      </trkpt>
      <trkpt lat="49.46245" lon="-1.4923">
        <ele>26.7</ele>
      </trkpt>
      <trkpt lat="49.46253" lon="-1.49225">
        <ele>26.7</ele>
      </trkpt>
      <trkpt lat="49.46261" lon="-1.49219">
        <ele>26.8</ele>
      </trkpt>
      <trkpt lat="49.46268" lon="-1.49211">
        <ele>26.7</ele>
      </trkpt>
      <trkpt lat="49.46273" lon="-1.49199">
        <ele>26.7</ele>
      </trkpt>
      <trkpt lat="49.46286" lon="-1.49171">
        <ele>26.5</ele>
      </trkpt>
      <trkpt lat="49.46294" lon="-1.49155">
        <ele>26.4</ele>
      </trkpt>
      <trkpt lat="49.46297" lon="-1.49151">
        <ele>26.4</ele>
      </trkpt>
      <trkpt lat="49.46301" lon="-1.49143">
        <ele>26.3</ele>
      </trkpt>
      <trkpt lat="49.46309" lon="-1.49132">
        <ele>26.3</ele>
      </trkpt>
      <trkpt lat="49.46313" lon="-1.49127">
        <ele>26.3</ele>
      </trkpt>
      <trkpt lat="49.46338" lon="-1.49096">
        <ele>26.2</ele>
      </trkpt>
      <trkpt lat="49.46357" lon="-1.49071">
        <ele>26.7</ele>
      </trkpt>
      <trkpt lat="49.46401" lon="-1.49012">
        <ele>27.8</ele>
      </trkpt>
      <trkpt lat="49.46425" lon="-1.48978">
        <ele>28</ele>
      </trkpt>
      <trkpt lat="49.46431" lon="-1.4897">
        <ele>28</ele>
      </trkpt>
      <trkpt lat="49.46437" lon="-1.48963">
        <ele>28</ele>
      </trkpt>
      <trkpt lat="49.46458" lon="-1.48936">
        <ele>28</ele>
      </trkpt>
      <trkpt lat="49.46499" lon="-1.48885">
        <ele>28</ele>
      </trkpt>
      <trkpt lat="49.46515" lon="-1.48865">
        <ele>28</ele>
      </trkpt>
      <trkpt lat="49.4656" lon="-1.48883">
        <ele>28</ele>
      </trkpt>
      <trkpt lat="49.46581" lon="-1.48906">
        <ele>28</ele>
      </trkpt>
      <trkpt lat="49.46615" lon="-1.4894">
        <ele>26.9</ele>
      </trkpt>
      <trkpt lat="49.46638" lon="-1.48964">
        <ele>26</ele>
      </trkpt>
      <trkpt lat="49.4667" lon="-1.48995">
        <ele>24.9</ele>
      </trkpt>
      <trkpt lat="49.46702" lon="-1.49029">
        <ele>23.5</ele>
      </trkpt>
      <trkpt lat="49.46724" lon="-1.49051">
        <ele>22.1</ele>
      </trkpt>
      <trkpt lat="49.4674" lon="-1.49067">
        <ele>21</ele>
      </trkpt>
      <trkpt lat="49.46746" lon="-1.49072">
        <ele>20.6</ele>
      </trkpt>
      <trkpt lat="49.46755" lon="-1.49077">
        <ele>20</ele>
      </trkpt>
      <trkpt lat="49.46768" lon="-1.49078">
        <ele>19.3</ele>
      </trkpt>
      <trkpt lat="49.46776" lon="-1.49076">
        <ele>19</ele>
      </trkpt>
      <trkpt lat="49.46807" lon="-1.49063">
        <ele>18</ele>
      </trkpt>
      <trkpt lat="49.46815" lon="-1.49061">
        <ele>17.7</ele>
      </trkpt>
      <trkpt lat="49.46821" lon="-1.49061">
        <ele>17.4</ele>
      </trkpt>
      <trkpt lat="49.46827" lon="-1.49064">
        <ele>17</ele>
      </trkpt>
      <trkpt lat="49.46832" lon="-1.49069">
        <ele>16.6</ele>
      </trkpt>
      <trkpt lat="49.46835" lon="-1.49074">
        <ele>16.4</ele>
      </trkpt>
      <trkpt lat="49.46836" lon="-1.49075">
        <ele>16.4</ele>
      </trkpt>
      <trkpt lat="49.4684" lon="-1.49082">
        <ele>16.3</ele>
      </trkpt>
      <trkpt lat="49.46842" lon="-1.49087">
        <ele>16.4</ele>
      </trkpt>
      <trkpt lat="49.46844" lon="-1.4909">
        <ele>16.5</ele>
      </trkpt>
      <trkpt lat="49.46845" lon="-1.49096">
        <ele>16.6</ele>
      </trkpt>
      <trkpt lat="49.46846" lon="-1.49101">
        <ele>16.7</ele>
      </trkpt>
      <trkpt lat="49.46848" lon="-1.4911">
        <ele>16.8</ele>
      </trkpt>
      <trkpt lat="49.46848" lon="-1.49122">
        <ele>17</ele>
      </trkpt>
      <trkpt lat="49.46848" lon="-1.49135">
        <ele>17.1</ele>
      </trkpt>
      <trkpt lat="49.46847" lon="-1.49146">
        <ele>17.2</ele>
      </trkpt>
      <trkpt lat="49.46845" lon="-1.49159">
        <ele>17.3</ele>
      </trkpt>
      <trkpt lat="49.46836" lon="-1.49195">
        <ele>18.1</ele>
      </trkpt>
      <trkpt lat="49.46824" lon="-1.49251">
        <ele>19.8</ele>
      </trkpt>
      <trkpt lat="49.46822" lon="-1.4926">
        <ele>20.2</ele>
      </trkpt>
      <trkpt lat="49.4682" lon="-1.49268">
        <ele>20.6</ele>
      </trkpt>
      <trkpt lat="49.46819" lon="-1.49282">
        <ele>21.3</ele>
      </trkpt>
      <trkpt lat="49.46817" lon="-1.49298">
        <ele>22</ele>
      </trkpt>
      <trkpt lat="49.46817" lon="-1.49313">
        <ele>22.8</ele>
      </trkpt>
      <trkpt lat="49.46817" lon="-1.49327">
        <ele>23.5</ele>
      </trkpt>
      <trkpt lat="49.4682" lon="-1.49375">
        <ele>24</ele>
      </trkpt>
      <trkpt lat="49.46823" lon="-1.49437">
        <ele>24.3</ele>
      </trkpt>
      <trkpt lat="49.46823" lon="-1.49447">
        <ele>24.4</ele>
      </trkpt>
      <trkpt lat="49.46823" lon="-1.49453">
        <ele>24.5</ele>
      </trkpt>
      <trkpt lat="49.46822" lon="-1.49465">
        <ele>24.6</ele>
      </trkpt>
      <trkpt lat="49.46821" lon="-1.49477">
        <ele>24.8</ele>
      </trkpt>
      <trkpt lat="49.46819" lon="-1.49487">
        <ele>24.9</ele>
      </trkpt>
      <trkpt lat="49.46816" lon="-1.49497">
        <ele>25</ele>
      </trkpt>
      <trkpt lat="49.46812" lon="-1.49509">
        <ele>25.1</ele>
      </trkpt>
      <trkpt lat="49.46793" lon="-1.49559">
        <ele>25.7</ele>
      </trkpt>
      <trkpt lat="49.46791" lon="-1.49569">
        <ele>25.8</ele>
      </trkpt>
      <trkpt lat="49.46791" lon="-1.49579">
        <ele>26</ele>
      </trkpt>
      <trkpt lat="49.46793" lon="-1.49588">
        <ele>26</ele>
      </trkpt>
      <trkpt lat="49.46795" lon="-1.49595">
        <ele>25.9</ele>
      </trkpt>
      <trkpt lat="49.46798" lon="-1.49602">
        <ele>25.7</ele>
      </trkpt>
      <trkpt lat="49.46804" lon="-1.4961">
        <ele>25.6</ele>
      </trkpt>
      <trkpt lat="49.46808" lon="-1.49616">
        <ele>25.5</ele>
      </trkpt>
      <trkpt lat="49.46814" lon="-1.49626">
        <ele>25.3</ele>
      </trkpt>
      <trkpt lat="49.4682" lon="-1.49639">
        <ele>25.2</ele>
      </trkpt>
      <trkpt lat="49.46824" lon="-1.49653">
        <ele>25.1</ele>
      </trkpt>
      <trkpt lat="49.46841" lon="-1.49704">
        <ele>24.6</ele>
      </trkpt>
      <trkpt lat="49.46854" lon="-1.49752">
        <ele>24</ele>
      </trkpt>
      <trkpt lat="49.46855" lon="-1.49755">
        <ele>24.1</ele>
      </trkpt>
      <trkpt lat="49.46863" lon="-1.49787">
        <ele>24.7</ele>
      </trkpt>
      <trkpt lat="49.46867" lon="-1.49802">
        <ele>25</ele>
      </trkpt>
      <trkpt lat="49.4687" lon="-1.49819">
        <ele>25.3</ele>
      </trkpt>
      <trkpt lat="49.46873" lon="-1.49836">
        <ele>25.6</ele>
      </trkpt>
      <trkpt lat="49.46875" lon="-1.49855">
        <ele>25.9</ele>
      </trkpt>
      <trkpt lat="49.46877" lon="-1.49874">
        <ele>26.2</ele>
      </trkpt>
      <trkpt lat="49.46881" lon="-1.49921">
        <ele>26.8</ele>
      </trkpt>
      <trkpt lat="49.46882" lon="-1.49935">
        <ele>26.6</ele>
      </trkpt>
      <trkpt lat="49.46883" lon="-1.49947">
        <ele>26.5</ele>
      </trkpt>
      <trkpt lat="49.46886" lon="-1.49967">
        <ele>26.3</ele>
      </trkpt>
      <trkpt lat="49.46891" lon="-1.49984">
        <ele>26.1</ele>
      </trkpt>
      <trkpt lat="49.46899" lon="-1.50004">
        <ele>26.1</ele>
      </trkpt>
      <trkpt lat="49.46912" lon="-1.50039">
        <ele>26.5</ele>
      </trkpt>
      <trkpt lat="49.46916" lon="-1.50051">
        <ele>26.6</ele>
      </trkpt>
      <trkpt lat="49.46925" lon="-1.50078">
        <ele>26.8</ele>
      </trkpt>
      <trkpt lat="49.46927" lon="-1.50087">
        <ele>26.9</ele>
      </trkpt>
      <trkpt lat="49.4693" lon="-1.50098">
        <ele>27</ele>
      </trkpt>
      <trkpt lat="49.46935" lon="-1.50116">
        <ele>27.1</ele>
      </trkpt>
      <trkpt lat="49.46938" lon="-1.50131">
        <ele>27.2</ele>
      </trkpt>
      <trkpt lat="49.46942" lon="-1.50144">
        <ele>27.2</ele>
      </trkpt>
      <trkpt lat="49.46945" lon="-1.50155">
        <ele>27.2</ele>
      </trkpt>
      <trkpt lat="49.4695" lon="-1.50166">
        <ele>27.2</ele>
      </trkpt>
      <trkpt lat="49.46955" lon="-1.50176">
        <ele>26.9</ele>
      </trkpt>
      <trkpt lat="49.46961" lon="-1.50187">
        <ele>26.6</ele>
      </trkpt>
      <trkpt lat="49.46963" lon="-1.50191">
        <ele>26.5</ele>
      </trkpt>
      <trkpt lat="49.4698" lon="-1.50223">
        <ele>25.6</ele>
      </trkpt>
      <trkpt lat="49.46987" lon="-1.50236">
        <ele>25.3</ele>
      </trkpt>
      <trkpt lat="49.47001" lon="-1.50261">
        <ele>24.8</ele>
      </trkpt>
      <trkpt lat="49.47028" lon="-1.50311">
        <ele>23.9</ele>
      </trkpt>
      <trkpt lat="49.47033" lon="-1.50321">
        <ele>23.7</ele>
      </trkpt>
      <trkpt lat="49.47037" lon="-1.50331">
        <ele>23.6</ele>
      </trkpt>
      <trkpt lat="49.47039" lon="-1.50341">
        <ele>23.5</ele>
      </trkpt>
      <trkpt lat="49.47041" lon="-1.50352">
        <ele>23.4</ele>
      </trkpt>
      <trkpt lat="49.47043" lon="-1.50364">
        <ele>23.3</ele>
      </trkpt>
      <trkpt lat="49.47046" lon="-1.50376">
        <ele>23.2</ele>
      </trkpt>
      <trkpt lat="49.4705" lon="-1.50388">
        <ele>23</ele>
      </trkpt>
      <trkpt lat="49.47054" lon="-1.50398">
        <ele>22.9</ele>
      </trkpt>
      <trkpt lat="49.47058" lon="-1.50406">
        <ele>22.7</ele>
      </trkpt>
      <trkpt lat="49.47071" lon="-1.50432">
        <ele>22.3</ele>
      </trkpt>
      <trkpt lat="49.47092" lon="-1.50472">
        <ele>22</ele>
      </trkpt>
      <trkpt lat="49.47096" lon="-1.50483">
        <ele>22</ele>
      </trkpt>
      <trkpt lat="49.47097" lon="-1.50491">
        <ele>22</ele>
      </trkpt>
      <trkpt lat="49.47099" lon="-1.505">
        <ele>22</ele>
      </trkpt>
      <trkpt lat="49.47101" lon="-1.50511">
        <ele>22.1</ele>
      </trkpt>
      <trkpt lat="49.47102" lon="-1.5052">
        <ele>22.2</ele>
      </trkpt>
      <trkpt lat="49.47102" lon="-1.50527">
        <ele>22.3</ele>
      </trkpt>
      <trkpt lat="49.47101" lon="-1.50532">
        <ele>22.3</ele>
      </trkpt>
      <trkpt lat="49.47101" lon="-1.50539">
        <ele>22.4</ele>
      </trkpt>
      <trkpt lat="49.47105" lon="-1.50563">
        <ele>22.6</ele>
      </trkpt>
      <trkpt lat="49.47111" lon="-1.50584">
        <ele>22.7</ele>
      </trkpt>
      <trkpt lat="49.47121" lon="-1.50604">
        <ele>22.7</ele>
      </trkpt>
      <trkpt lat="49.47129" lon="-1.50621">
        <ele>22.7</ele>
      </trkpt>
      <trkpt lat="49.47152" lon="-1.50668">
        <ele>22.3</ele>
      </trkpt>
      <trkpt lat="49.47174" lon="-1.50714">
        <ele>22.1</ele>
      </trkpt>
      <trkpt lat="49.47195" lon="-1.50756">
        <ele>22.5</ele>
      </trkpt>
      <trkpt lat="49.47215" lon="-1.50794">
        <ele>23.3</ele>
      </trkpt>
      <trkpt lat="49.47224" lon="-1.50811">
        <ele>23.7</ele>
      </trkpt>
      <trkpt lat="49.47235" lon="-1.50834">
        <ele>24</ele>
      </trkpt>
      <trkpt lat="49.47252" lon="-1.50869">
        <ele>24.4</ele>
      </trkpt>
      <trkpt lat="49.47255" lon="-1.50875">
        <ele>24.5</ele>
      </trkpt>
      <trkpt lat="49.47273" lon="-1.5091">
        <ele>24.9</ele>
      </trkpt>
      <trkpt lat="49.47292" lon="-1.5095">
        <ele>25.2</ele>
      </trkpt>
      <trkpt lat="49.47301" lon="-1.5097">
        <ele>25.2</ele>
      </trkpt>
      <trkpt lat="49.47308" lon="-1.50987">
        <ele>25.3</ele>
      </trkpt>
      <trkpt lat="49.47317" lon="-1.51017">
        <ele>25.5</ele>
      </trkpt>
      <trkpt lat="49.47331" lon="-1.51065">
        <ele>26.5</ele>
      </trkpt>
      <trkpt lat="49.47343" lon="-1.51114">
        <ele>27.7</ele>
      </trkpt>
      <trkpt lat="49.47353" lon="-1.51152">
        <ele>28.5</ele>
      </trkpt>
      <trkpt lat="49.47356" lon="-1.51163">
        <ele>28.6</ele>
      </trkpt>
      <trkpt lat="49.4736" lon="-1.51179">
        <ele>28.9</ele>
      </trkpt>
      <trkpt lat="49.47368" lon="-1.51209">
        <ele>29.2</ele>
      </trkpt>
      <trkpt lat="49.4738" lon="-1.5125">
        <ele>29.3</ele>
      </trkpt>
      <trkpt lat="49.47383" lon="-1.51262">
        <ele>29.4</ele>
      </trkpt>
      <trkpt lat="49.47388" lon="-1.51259">
        <ele>29.2</ele>
      </trkpt>
      <trkpt lat="49.47507" lon="-1.517">
        <ele>27.8</ele>
      </trkpt>
      <trkpt lat="49.47555" lon="-1.51903">
        <ele>30</ele>
      </trkpt>
      <trkpt lat="49.47744" lon="-1.52282">
        <ele>32.6</ele>
      </trkpt>
    </trkseg>
  </trk>
</gpx>